<?xml version="1.0" encoding="UTF-8"?>
<gpx xmlns="http://www.topografix.com/GPX/1/1"
     creator="GpsDump 4.77"
     version="1.1"
     xmlns:xsi="http://www.w3.org/2001/XMLSchema-instance"
     xsi:schemaLocation="http://www.topografix.com/GPX/1/1 http://www.topografix.com/GPX/1/1/gpx.xsd">
  <metadata>
    <link href="http://www.gethome.no/stein.sorensen/">
      <text>GPS dump for www.flightlog.org</text>
    </link>
    <time>2016-07-26T08:41:04Z</time>
    <bounds minlat="41.030100" minlon="-3.782483" maxlat="41.133233" maxlon="-3.643350"/>
  </metadata>
  <trk>
    <name>Track 001</name>
    <trkseg>
      <trkpt lat="41.077333" lon="-3.707750">
        <ele>1842.0</ele>
        <time>2016-07-25T15:35:02Z</time>
      </trkpt>
      <trkpt lat="41.077367" lon="-3.707733">
        <ele>1843.0</ele>
        <time>2016-07-25T15:35:03Z</time>
      </trkpt>
      <trkpt lat="41.077417" lon="-3.707717">
        <ele>1844.0</ele>
        <time>2016-07-25T15:35:04Z</time>
      </trkpt>
      <trkpt lat="41.077450" lon="-3.707700">
        <ele>1844.0</ele>
        <time>2016-07-25T15:35:05Z</time>
      </trkpt>
      <trkpt lat="41.077483" lon="-3.707667">
        <ele>1845.0</ele>
        <time>2016-07-25T15:35:06Z</time>
      </trkpt>
      <trkpt lat="41.077533" lon="-3.707650">
        <ele>1845.0</ele>
        <time>2016-07-25T15:35:07Z</time>
      </trkpt>
      <trkpt lat="41.077583" lon="-3.707633">
        <ele>1845.0</ele>
        <time>2016-07-25T15:35:08Z</time>
      </trkpt>
      <trkpt lat="41.077617" lon="-3.707633">
        <ele>1845.0</ele>
        <time>2016-07-25T15:35:09Z</time>
      </trkpt>
      <trkpt lat="41.077650" lon="-3.707650">
        <ele>1845.0</ele>
        <time>2016-07-25T15:35:10Z</time>
      </trkpt>
      <trkpt lat="41.077683" lon="-3.707700">
        <ele>1844.0</ele>
        <time>2016-07-25T15:35:11Z</time>
      </trkpt>
      <trkpt lat="41.077717" lon="-3.707717">
        <ele>1844.0</ele>
        <time>2016-07-25T15:35:12Z</time>
      </trkpt>
      <trkpt lat="41.077750" lon="-3.707717">
        <ele>1845.0</ele>
        <time>2016-07-25T15:35:13Z</time>
      </trkpt>
      <trkpt lat="41.077800" lon="-3.707700">
        <ele>1844.0</ele>
        <time>2016-07-25T15:35:14Z</time>
      </trkpt>
      <trkpt lat="41.077833" lon="-3.707667">
        <ele>1844.0</ele>
        <time>2016-07-25T15:35:15Z</time>
      </trkpt>
      <trkpt lat="41.077883" lon="-3.707650">
        <ele>1843.0</ele>
        <time>2016-07-25T15:35:16Z</time>
      </trkpt>
      <trkpt lat="41.077933" lon="-3.707650">
        <ele>1843.0</ele>
        <time>2016-07-25T15:35:17Z</time>
      </trkpt>
      <trkpt lat="41.077983" lon="-3.707650">
        <ele>1843.0</ele>
        <time>2016-07-25T15:35:18Z</time>
      </trkpt>
      <trkpt lat="41.078033" lon="-3.707667">
        <ele>1843.0</ele>
        <time>2016-07-25T15:35:19Z</time>
      </trkpt>
      <trkpt lat="41.078067" lon="-3.707700">
        <ele>1844.0</ele>
        <time>2016-07-25T15:35:20Z</time>
      </trkpt>
      <trkpt lat="41.078083" lon="-3.707717">
        <ele>1844.0</ele>
        <time>2016-07-25T15:35:21Z</time>
      </trkpt>
      <trkpt lat="41.078100" lon="-3.707750">
        <ele>1844.0</ele>
        <time>2016-07-25T15:35:22Z</time>
      </trkpt>
      <trkpt lat="41.078133" lon="-3.707783">
        <ele>1843.0</ele>
        <time>2016-07-25T15:35:23Z</time>
      </trkpt>
      <trkpt lat="41.078183" lon="-3.707817">
        <ele>1841.0</ele>
        <time>2016-07-25T15:35:24Z</time>
      </trkpt>
      <trkpt lat="41.078233" lon="-3.707833">
        <ele>1841.0</ele>
        <time>2016-07-25T15:35:25Z</time>
      </trkpt>
      <trkpt lat="41.078267" lon="-3.707850">
        <ele>1842.0</ele>
        <time>2016-07-25T15:35:26Z</time>
      </trkpt>
      <trkpt lat="41.078300" lon="-3.707883">
        <ele>1843.0</ele>
        <time>2016-07-25T15:35:27Z</time>
      </trkpt>
      <trkpt lat="41.078300" lon="-3.707917">
        <ele>1843.0</ele>
        <time>2016-07-25T15:35:28Z</time>
      </trkpt>
      <trkpt lat="41.078300" lon="-3.707967">
        <ele>1842.0</ele>
        <time>2016-07-25T15:35:29Z</time>
      </trkpt>
      <trkpt lat="41.078300" lon="-3.708017">
        <ele>1840.0</ele>
        <time>2016-07-25T15:35:30Z</time>
      </trkpt>
      <trkpt lat="41.078300" lon="-3.708100">
        <ele>1840.0</ele>
        <time>2016-07-25T15:35:31Z</time>
      </trkpt>
      <trkpt lat="41.078317" lon="-3.708183">
        <ele>1840.0</ele>
        <time>2016-07-25T15:35:32Z</time>
      </trkpt>
      <trkpt lat="41.078317" lon="-3.708250">
        <ele>1842.0</ele>
        <time>2016-07-25T15:35:33Z</time>
      </trkpt>
      <trkpt lat="41.078333" lon="-3.708300">
        <ele>1846.0</ele>
        <time>2016-07-25T15:35:34Z</time>
      </trkpt>
      <trkpt lat="41.078350" lon="-3.708333">
        <ele>1850.0</ele>
        <time>2016-07-25T15:35:35Z</time>
      </trkpt>
      <trkpt lat="41.078350" lon="-3.708350">
        <ele>1853.0</ele>
        <time>2016-07-25T15:35:36Z</time>
      </trkpt>
      <trkpt lat="41.078333" lon="-3.708367">
        <ele>1856.0</ele>
        <time>2016-07-25T15:35:37Z</time>
      </trkpt>
      <trkpt lat="41.078300" lon="-3.708400">
        <ele>1858.0</ele>
        <time>2016-07-25T15:35:38Z</time>
      </trkpt>
      <trkpt lat="41.078300" lon="-3.708433">
        <ele>1859.0</ele>
        <time>2016-07-25T15:35:39Z</time>
      </trkpt>
      <trkpt lat="41.078317" lon="-3.708483">
        <ele>1859.0</ele>
        <time>2016-07-25T15:35:40Z</time>
      </trkpt>
      <trkpt lat="41.078350" lon="-3.708517">
        <ele>1861.0</ele>
        <time>2016-07-25T15:35:41Z</time>
      </trkpt>
      <trkpt lat="41.078383" lon="-3.708550">
        <ele>1863.0</ele>
        <time>2016-07-25T15:35:42Z</time>
      </trkpt>
      <trkpt lat="41.078417" lon="-3.708567">
        <ele>1866.0</ele>
        <time>2016-07-25T15:35:43Z</time>
      </trkpt>
      <trkpt lat="41.078450" lon="-3.708600">
        <ele>1867.0</ele>
        <time>2016-07-25T15:35:44Z</time>
      </trkpt>
      <trkpt lat="41.078500" lon="-3.708633">
        <ele>1870.0</ele>
        <time>2016-07-25T15:35:45Z</time>
      </trkpt>
      <trkpt lat="41.078550" lon="-3.708683">
        <ele>1873.0</ele>
        <time>2016-07-25T15:35:46Z</time>
      </trkpt>
      <trkpt lat="41.078583" lon="-3.708700">
        <ele>1877.0</ele>
        <time>2016-07-25T15:35:47Z</time>
      </trkpt>
      <trkpt lat="41.078617" lon="-3.708733">
        <ele>1882.0</ele>
        <time>2016-07-25T15:35:48Z</time>
      </trkpt>
      <trkpt lat="41.078633" lon="-3.708767">
        <ele>1886.0</ele>
        <time>2016-07-25T15:35:49Z</time>
      </trkpt>
      <trkpt lat="41.078650" lon="-3.708800">
        <ele>1889.0</ele>
        <time>2016-07-25T15:35:50Z</time>
      </trkpt>
      <trkpt lat="41.078683" lon="-3.708800">
        <ele>1891.0</ele>
        <time>2016-07-25T15:35:51Z</time>
      </trkpt>
      <trkpt lat="41.078733" lon="-3.708783">
        <ele>1892.0</ele>
        <time>2016-07-25T15:35:52Z</time>
      </trkpt>
      <trkpt lat="41.078783" lon="-3.708733">
        <ele>1893.0</ele>
        <time>2016-07-25T15:35:53Z</time>
      </trkpt>
      <trkpt lat="41.078833" lon="-3.708717">
        <ele>1893.0</ele>
        <time>2016-07-25T15:35:54Z</time>
      </trkpt>
      <trkpt lat="41.078883" lon="-3.708700">
        <ele>1894.0</ele>
        <time>2016-07-25T15:35:55Z</time>
      </trkpt>
      <trkpt lat="41.078917" lon="-3.708717">
        <ele>1894.0</ele>
        <time>2016-07-25T15:35:56Z</time>
      </trkpt>
      <trkpt lat="41.078950" lon="-3.708750">
        <ele>1894.0</ele>
        <time>2016-07-25T15:35:57Z</time>
      </trkpt>
      <trkpt lat="41.078967" lon="-3.708767">
        <ele>1895.0</ele>
        <time>2016-07-25T15:35:58Z</time>
      </trkpt>
      <trkpt lat="41.079000" lon="-3.708783">
        <ele>1894.0</ele>
        <time>2016-07-25T15:35:59Z</time>
      </trkpt>
      <trkpt lat="41.079033" lon="-3.708800">
        <ele>1893.0</ele>
        <time>2016-07-25T15:36:00Z</time>
      </trkpt>
      <trkpt lat="41.079067" lon="-3.708833">
        <ele>1892.0</ele>
        <time>2016-07-25T15:36:01Z</time>
      </trkpt>
      <trkpt lat="41.079083" lon="-3.708867">
        <ele>1891.0</ele>
        <time>2016-07-25T15:36:02Z</time>
      </trkpt>
      <trkpt lat="41.079083" lon="-3.708917">
        <ele>1891.0</ele>
        <time>2016-07-25T15:36:03Z</time>
      </trkpt>
      <trkpt lat="41.079083" lon="-3.708983">
        <ele>1891.0</ele>
        <time>2016-07-25T15:36:04Z</time>
      </trkpt>
      <trkpt lat="41.079050" lon="-3.709017">
        <ele>1892.0</ele>
        <time>2016-07-25T15:36:05Z</time>
      </trkpt>
      <trkpt lat="41.079033" lon="-3.709067">
        <ele>1893.0</ele>
        <time>2016-07-25T15:36:06Z</time>
      </trkpt>
      <trkpt lat="41.079017" lon="-3.709100">
        <ele>1893.0</ele>
        <time>2016-07-25T15:36:07Z</time>
      </trkpt>
      <trkpt lat="41.079000" lon="-3.709133">
        <ele>1892.0</ele>
        <time>2016-07-25T15:36:08Z</time>
      </trkpt>
      <trkpt lat="41.078983" lon="-3.709183">
        <ele>1891.0</ele>
        <time>2016-07-25T15:36:09Z</time>
      </trkpt>
      <trkpt lat="41.078950" lon="-3.709250">
        <ele>1891.0</ele>
        <time>2016-07-25T15:36:10Z</time>
      </trkpt>
      <trkpt lat="41.078900" lon="-3.709300">
        <ele>1890.0</ele>
        <time>2016-07-25T15:36:11Z</time>
      </trkpt>
      <trkpt lat="41.078867" lon="-3.709350">
        <ele>1890.0</ele>
        <time>2016-07-25T15:36:12Z</time>
      </trkpt>
      <trkpt lat="41.078817" lon="-3.709383">
        <ele>1891.0</ele>
        <time>2016-07-25T15:36:13Z</time>
      </trkpt>
      <trkpt lat="41.078767" lon="-3.709433">
        <ele>1891.0</ele>
        <time>2016-07-25T15:36:14Z</time>
      </trkpt>
      <trkpt lat="41.078733" lon="-3.709467">
        <ele>1891.0</ele>
        <time>2016-07-25T15:36:15Z</time>
      </trkpt>
      <trkpt lat="41.078683" lon="-3.709517">
        <ele>1890.0</ele>
        <time>2016-07-25T15:36:16Z</time>
      </trkpt>
      <trkpt lat="41.078617" lon="-3.709567">
        <ele>1890.0</ele>
        <time>2016-07-25T15:36:17Z</time>
      </trkpt>
      <trkpt lat="41.078567" lon="-3.709600">
        <ele>1890.0</ele>
        <time>2016-07-25T15:36:18Z</time>
      </trkpt>
      <trkpt lat="41.078517" lon="-3.709667">
        <ele>1889.0</ele>
        <time>2016-07-25T15:36:19Z</time>
      </trkpt>
      <trkpt lat="41.078467" lon="-3.709700">
        <ele>1889.0</ele>
        <time>2016-07-25T15:36:20Z</time>
      </trkpt>
      <trkpt lat="41.078400" lon="-3.709750">
        <ele>1889.0</ele>
        <time>2016-07-25T15:36:21Z</time>
      </trkpt>
      <trkpt lat="41.078317" lon="-3.709767">
        <ele>1889.0</ele>
        <time>2016-07-25T15:36:22Z</time>
      </trkpt>
      <trkpt lat="41.078217" lon="-3.709750">
        <ele>1888.0</ele>
        <time>2016-07-25T15:36:23Z</time>
      </trkpt>
      <trkpt lat="41.078117" lon="-3.709750">
        <ele>1887.0</ele>
        <time>2016-07-25T15:36:24Z</time>
      </trkpt>
      <trkpt lat="41.078017" lon="-3.709750">
        <ele>1887.0</ele>
        <time>2016-07-25T15:36:25Z</time>
      </trkpt>
      <trkpt lat="41.077950" lon="-3.709783">
        <ele>1887.0</ele>
        <time>2016-07-25T15:36:26Z</time>
      </trkpt>
      <trkpt lat="41.077883" lon="-3.709817">
        <ele>1887.0</ele>
        <time>2016-07-25T15:36:27Z</time>
      </trkpt>
      <trkpt lat="41.077817" lon="-3.709850">
        <ele>1887.0</ele>
        <time>2016-07-25T15:36:28Z</time>
      </trkpt>
      <trkpt lat="41.077767" lon="-3.709900">
        <ele>1887.0</ele>
        <time>2016-07-25T15:36:29Z</time>
      </trkpt>
      <trkpt lat="41.077733" lon="-3.709950">
        <ele>1888.0</ele>
        <time>2016-07-25T15:36:30Z</time>
      </trkpt>
      <trkpt lat="41.077717" lon="-3.710033">
        <ele>1888.0</ele>
        <time>2016-07-25T15:36:31Z</time>
      </trkpt>
      <trkpt lat="41.077733" lon="-3.710100">
        <ele>1888.0</ele>
        <time>2016-07-25T15:36:32Z</time>
      </trkpt>
      <trkpt lat="41.077733" lon="-3.710150">
        <ele>1889.0</ele>
        <time>2016-07-25T15:36:33Z</time>
      </trkpt>
      <trkpt lat="41.077733" lon="-3.710200">
        <ele>1889.0</ele>
        <time>2016-07-25T15:36:34Z</time>
      </trkpt>
      <trkpt lat="41.077733" lon="-3.710250">
        <ele>1888.0</ele>
        <time>2016-07-25T15:36:35Z</time>
      </trkpt>
      <trkpt lat="41.077717" lon="-3.710317">
        <ele>1886.0</ele>
        <time>2016-07-25T15:36:36Z</time>
      </trkpt>
      <trkpt lat="41.077717" lon="-3.710400">
        <ele>1884.0</ele>
        <time>2016-07-25T15:36:37Z</time>
      </trkpt>
      <trkpt lat="41.077700" lon="-3.710467">
        <ele>1883.0</ele>
        <time>2016-07-25T15:36:38Z</time>
      </trkpt>
      <trkpt lat="41.077700" lon="-3.710550">
        <ele>1882.0</ele>
        <time>2016-07-25T15:36:39Z</time>
      </trkpt>
      <trkpt lat="41.077700" lon="-3.710600">
        <ele>1882.0</ele>
        <time>2016-07-25T15:36:40Z</time>
      </trkpt>
      <trkpt lat="41.077683" lon="-3.710667">
        <ele>1881.0</ele>
        <time>2016-07-25T15:36:41Z</time>
      </trkpt>
      <trkpt lat="41.077667" lon="-3.710733">
        <ele>1880.0</ele>
        <time>2016-07-25T15:36:42Z</time>
      </trkpt>
      <trkpt lat="41.077650" lon="-3.710800">
        <ele>1878.0</ele>
        <time>2016-07-25T15:36:43Z</time>
      </trkpt>
      <trkpt lat="41.077633" lon="-3.710883">
        <ele>1877.0</ele>
        <time>2016-07-25T15:36:44Z</time>
      </trkpt>
      <trkpt lat="41.077617" lon="-3.710950">
        <ele>1877.0</ele>
        <time>2016-07-25T15:36:45Z</time>
      </trkpt>
      <trkpt lat="41.077600" lon="-3.711017">
        <ele>1878.0</ele>
        <time>2016-07-25T15:36:46Z</time>
      </trkpt>
      <trkpt lat="41.077567" lon="-3.711067">
        <ele>1879.0</ele>
        <time>2016-07-25T15:36:47Z</time>
      </trkpt>
      <trkpt lat="41.077533" lon="-3.711117">
        <ele>1880.0</ele>
        <time>2016-07-25T15:36:48Z</time>
      </trkpt>
      <trkpt lat="41.077517" lon="-3.711167">
        <ele>1880.0</ele>
        <time>2016-07-25T15:36:49Z</time>
      </trkpt>
      <trkpt lat="41.077500" lon="-3.711233">
        <ele>1880.0</ele>
        <time>2016-07-25T15:36:50Z</time>
      </trkpt>
      <trkpt lat="41.077467" lon="-3.711300">
        <ele>1880.0</ele>
        <time>2016-07-25T15:36:51Z</time>
      </trkpt>
      <trkpt lat="41.077433" lon="-3.711383">
        <ele>1881.0</ele>
        <time>2016-07-25T15:36:52Z</time>
      </trkpt>
      <trkpt lat="41.077417" lon="-3.711433">
        <ele>1884.0</ele>
        <time>2016-07-25T15:36:53Z</time>
      </trkpt>
      <trkpt lat="41.077383" lon="-3.711483">
        <ele>1886.0</ele>
        <time>2016-07-25T15:36:54Z</time>
      </trkpt>
      <trkpt lat="41.077350" lon="-3.711550">
        <ele>1887.0</ele>
        <time>2016-07-25T15:36:55Z</time>
      </trkpt>
      <trkpt lat="41.077333" lon="-3.711600">
        <ele>1887.0</ele>
        <time>2016-07-25T15:36:56Z</time>
      </trkpt>
      <trkpt lat="41.077333" lon="-3.711667">
        <ele>1888.0</ele>
        <time>2016-07-25T15:36:57Z</time>
      </trkpt>
      <trkpt lat="41.077350" lon="-3.711733">
        <ele>1889.0</ele>
        <time>2016-07-25T15:36:58Z</time>
      </trkpt>
      <trkpt lat="41.077350" lon="-3.711783">
        <ele>1891.0</ele>
        <time>2016-07-25T15:36:59Z</time>
      </trkpt>
      <trkpt lat="41.077350" lon="-3.711833">
        <ele>1892.0</ele>
        <time>2016-07-25T15:37:00Z</time>
      </trkpt>
      <trkpt lat="41.077350" lon="-3.711900">
        <ele>1893.0</ele>
        <time>2016-07-25T15:37:01Z</time>
      </trkpt>
      <trkpt lat="41.077333" lon="-3.711967">
        <ele>1893.0</ele>
        <time>2016-07-25T15:37:02Z</time>
      </trkpt>
      <trkpt lat="41.077317" lon="-3.712050">
        <ele>1894.0</ele>
        <time>2016-07-25T15:37:03Z</time>
      </trkpt>
      <trkpt lat="41.077300" lon="-3.712117">
        <ele>1895.0</ele>
        <time>2016-07-25T15:37:04Z</time>
      </trkpt>
      <trkpt lat="41.077300" lon="-3.712183">
        <ele>1896.0</ele>
        <time>2016-07-25T15:37:05Z</time>
      </trkpt>
      <trkpt lat="41.077300" lon="-3.712217">
        <ele>1896.0</ele>
        <time>2016-07-25T15:37:06Z</time>
      </trkpt>
      <trkpt lat="41.077300" lon="-3.712250">
        <ele>1895.0</ele>
        <time>2016-07-25T15:37:07Z</time>
      </trkpt>
      <trkpt lat="41.077300" lon="-3.712300">
        <ele>1894.0</ele>
        <time>2016-07-25T15:37:08Z</time>
      </trkpt>
      <trkpt lat="41.077283" lon="-3.712367">
        <ele>1892.0</ele>
        <time>2016-07-25T15:37:09Z</time>
      </trkpt>
      <trkpt lat="41.077217" lon="-3.712433">
        <ele>1890.0</ele>
        <time>2016-07-25T15:37:10Z</time>
      </trkpt>
      <trkpt lat="41.077133" lon="-3.712500">
        <ele>1887.0</ele>
        <time>2016-07-25T15:37:11Z</time>
      </trkpt>
      <trkpt lat="41.077017" lon="-3.712550">
        <ele>1885.0</ele>
        <time>2016-07-25T15:37:12Z</time>
      </trkpt>
      <trkpt lat="41.076917" lon="-3.712600">
        <ele>1884.0</ele>
        <time>2016-07-25T15:37:13Z</time>
      </trkpt>
      <trkpt lat="41.076850" lon="-3.712650">
        <ele>1884.0</ele>
        <time>2016-07-25T15:37:14Z</time>
      </trkpt>
      <trkpt lat="41.076767" lon="-3.712700">
        <ele>1883.0</ele>
        <time>2016-07-25T15:37:15Z</time>
      </trkpt>
      <trkpt lat="41.076700" lon="-3.712767">
        <ele>1882.0</ele>
        <time>2016-07-25T15:37:16Z</time>
      </trkpt>
      <trkpt lat="41.076633" lon="-3.712817">
        <ele>1880.0</ele>
        <time>2016-07-25T15:37:17Z</time>
      </trkpt>
      <trkpt lat="41.076550" lon="-3.712900">
        <ele>1878.0</ele>
        <time>2016-07-25T15:37:18Z</time>
      </trkpt>
      <trkpt lat="41.076467" lon="-3.712983">
        <ele>1877.0</ele>
        <time>2016-07-25T15:37:19Z</time>
      </trkpt>
      <trkpt lat="41.076383" lon="-3.713067">
        <ele>1878.0</ele>
        <time>2016-07-25T15:37:20Z</time>
      </trkpt>
      <trkpt lat="41.076333" lon="-3.713133">
        <ele>1878.0</ele>
        <time>2016-07-25T15:37:21Z</time>
      </trkpt>
      <trkpt lat="41.076283" lon="-3.713200">
        <ele>1879.0</ele>
        <time>2016-07-25T15:37:22Z</time>
      </trkpt>
      <trkpt lat="41.076233" lon="-3.713283">
        <ele>1878.0</ele>
        <time>2016-07-25T15:37:23Z</time>
      </trkpt>
      <trkpt lat="41.076200" lon="-3.713367">
        <ele>1877.0</ele>
        <time>2016-07-25T15:37:24Z</time>
      </trkpt>
      <trkpt lat="41.076167" lon="-3.713467">
        <ele>1877.0</ele>
        <time>2016-07-25T15:37:25Z</time>
      </trkpt>
      <trkpt lat="41.076117" lon="-3.713550">
        <ele>1877.0</ele>
        <time>2016-07-25T15:37:26Z</time>
      </trkpt>
      <trkpt lat="41.076083" lon="-3.713633">
        <ele>1877.0</ele>
        <time>2016-07-25T15:37:27Z</time>
      </trkpt>
      <trkpt lat="41.076033" lon="-3.713700">
        <ele>1877.0</ele>
        <time>2016-07-25T15:37:28Z</time>
      </trkpt>
      <trkpt lat="41.075983" lon="-3.713783">
        <ele>1876.0</ele>
        <time>2016-07-25T15:37:29Z</time>
      </trkpt>
      <trkpt lat="41.075933" lon="-3.713867">
        <ele>1875.0</ele>
        <time>2016-07-25T15:37:30Z</time>
      </trkpt>
      <trkpt lat="41.075883" lon="-3.713950">
        <ele>1875.0</ele>
        <time>2016-07-25T15:37:31Z</time>
      </trkpt>
      <trkpt lat="41.075817" lon="-3.714033">
        <ele>1875.0</ele>
        <time>2016-07-25T15:37:32Z</time>
      </trkpt>
      <trkpt lat="41.075767" lon="-3.714100">
        <ele>1875.0</ele>
        <time>2016-07-25T15:37:33Z</time>
      </trkpt>
      <trkpt lat="41.075717" lon="-3.714183">
        <ele>1876.0</ele>
        <time>2016-07-25T15:37:34Z</time>
      </trkpt>
      <trkpt lat="41.075667" lon="-3.714250">
        <ele>1876.0</ele>
        <time>2016-07-25T15:37:35Z</time>
      </trkpt>
      <trkpt lat="41.075617" lon="-3.714333">
        <ele>1876.0</ele>
        <time>2016-07-25T15:37:36Z</time>
      </trkpt>
      <trkpt lat="41.075567" lon="-3.714417">
        <ele>1876.0</ele>
        <time>2016-07-25T15:37:37Z</time>
      </trkpt>
      <trkpt lat="41.075533" lon="-3.714500">
        <ele>1877.0</ele>
        <time>2016-07-25T15:37:38Z</time>
      </trkpt>
      <trkpt lat="41.075500" lon="-3.714583">
        <ele>1877.0</ele>
        <time>2016-07-25T15:37:39Z</time>
      </trkpt>
      <trkpt lat="41.075450" lon="-3.714667">
        <ele>1877.0</ele>
        <time>2016-07-25T15:37:40Z</time>
      </trkpt>
      <trkpt lat="41.075400" lon="-3.714733">
        <ele>1878.0</ele>
        <time>2016-07-25T15:37:41Z</time>
      </trkpt>
      <trkpt lat="41.075350" lon="-3.714800">
        <ele>1877.0</ele>
        <time>2016-07-25T15:37:42Z</time>
      </trkpt>
      <trkpt lat="41.075283" lon="-3.714883">
        <ele>1877.0</ele>
        <time>2016-07-25T15:37:43Z</time>
      </trkpt>
      <trkpt lat="41.075217" lon="-3.714983">
        <ele>1876.0</ele>
        <time>2016-07-25T15:37:44Z</time>
      </trkpt>
      <trkpt lat="41.075150" lon="-3.715067">
        <ele>1876.0</ele>
        <time>2016-07-25T15:37:45Z</time>
      </trkpt>
      <trkpt lat="41.075083" lon="-3.715150">
        <ele>1877.0</ele>
        <time>2016-07-25T15:37:46Z</time>
      </trkpt>
      <trkpt lat="41.075017" lon="-3.715233">
        <ele>1877.0</ele>
        <time>2016-07-25T15:37:47Z</time>
      </trkpt>
      <trkpt lat="41.074950" lon="-3.715300">
        <ele>1878.0</ele>
        <time>2016-07-25T15:37:48Z</time>
      </trkpt>
      <trkpt lat="41.074883" lon="-3.715383">
        <ele>1878.0</ele>
        <time>2016-07-25T15:37:49Z</time>
      </trkpt>
      <trkpt lat="41.074817" lon="-3.715450">
        <ele>1878.0</ele>
        <time>2016-07-25T15:37:50Z</time>
      </trkpt>
      <trkpt lat="41.074750" lon="-3.715533">
        <ele>1877.0</ele>
        <time>2016-07-25T15:37:51Z</time>
      </trkpt>
      <trkpt lat="41.074683" lon="-3.715617">
        <ele>1877.0</ele>
        <time>2016-07-25T15:37:52Z</time>
      </trkpt>
      <trkpt lat="41.074600" lon="-3.715700">
        <ele>1876.0</ele>
        <time>2016-07-25T15:37:53Z</time>
      </trkpt>
      <trkpt lat="41.074533" lon="-3.715800">
        <ele>1876.0</ele>
        <time>2016-07-25T15:37:54Z</time>
      </trkpt>
      <trkpt lat="41.074450" lon="-3.715883">
        <ele>1876.0</ele>
        <time>2016-07-25T15:37:55Z</time>
      </trkpt>
      <trkpt lat="41.074367" lon="-3.715950">
        <ele>1876.0</ele>
        <time>2016-07-25T15:37:56Z</time>
      </trkpt>
      <trkpt lat="41.074283" lon="-3.716033">
        <ele>1876.0</ele>
        <time>2016-07-25T15:37:57Z</time>
      </trkpt>
      <trkpt lat="41.074200" lon="-3.716117">
        <ele>1876.0</ele>
        <time>2016-07-25T15:37:58Z</time>
      </trkpt>
      <trkpt lat="41.074117" lon="-3.716200">
        <ele>1874.0</ele>
        <time>2016-07-25T15:37:59Z</time>
      </trkpt>
      <trkpt lat="41.074017" lon="-3.716283">
        <ele>1874.0</ele>
        <time>2016-07-25T15:38:00Z</time>
      </trkpt>
      <trkpt lat="41.073933" lon="-3.716367">
        <ele>1873.0</ele>
        <time>2016-07-25T15:38:01Z</time>
      </trkpt>
      <trkpt lat="41.073833" lon="-3.716450">
        <ele>1874.0</ele>
        <time>2016-07-25T15:38:02Z</time>
      </trkpt>
      <trkpt lat="41.073750" lon="-3.716533">
        <ele>1874.0</ele>
        <time>2016-07-25T15:38:03Z</time>
      </trkpt>
      <trkpt lat="41.073683" lon="-3.716600">
        <ele>1875.0</ele>
        <time>2016-07-25T15:38:04Z</time>
      </trkpt>
      <trkpt lat="41.073600" lon="-3.716683">
        <ele>1874.0</ele>
        <time>2016-07-25T15:38:05Z</time>
      </trkpt>
      <trkpt lat="41.073517" lon="-3.716783">
        <ele>1874.0</ele>
        <time>2016-07-25T15:38:06Z</time>
      </trkpt>
      <trkpt lat="41.073433" lon="-3.716867">
        <ele>1873.0</ele>
        <time>2016-07-25T15:38:07Z</time>
      </trkpt>
      <trkpt lat="41.073350" lon="-3.716950">
        <ele>1874.0</ele>
        <time>2016-07-25T15:38:08Z</time>
      </trkpt>
      <trkpt lat="41.073267" lon="-3.717033">
        <ele>1874.0</ele>
        <time>2016-07-25T15:38:09Z</time>
      </trkpt>
      <trkpt lat="41.073183" lon="-3.717133">
        <ele>1874.0</ele>
        <time>2016-07-25T15:38:10Z</time>
      </trkpt>
      <trkpt lat="41.073100" lon="-3.717217">
        <ele>1873.0</ele>
        <time>2016-07-25T15:38:11Z</time>
      </trkpt>
      <trkpt lat="41.073017" lon="-3.717300">
        <ele>1872.0</ele>
        <time>2016-07-25T15:38:12Z</time>
      </trkpt>
      <trkpt lat="41.072917" lon="-3.717383">
        <ele>1871.0</ele>
        <time>2016-07-25T15:38:13Z</time>
      </trkpt>
      <trkpt lat="41.072817" lon="-3.717467">
        <ele>1870.0</ele>
        <time>2016-07-25T15:38:14Z</time>
      </trkpt>
      <trkpt lat="41.072717" lon="-3.717550">
        <ele>1870.0</ele>
        <time>2016-07-25T15:38:15Z</time>
      </trkpt>
      <trkpt lat="41.072600" lon="-3.717633">
        <ele>1870.0</ele>
        <time>2016-07-25T15:38:16Z</time>
      </trkpt>
      <trkpt lat="41.072500" lon="-3.717717">
        <ele>1870.0</ele>
        <time>2016-07-25T15:38:17Z</time>
      </trkpt>
      <trkpt lat="41.072400" lon="-3.717783">
        <ele>1870.0</ele>
        <time>2016-07-25T15:38:18Z</time>
      </trkpt>
      <trkpt lat="41.072300" lon="-3.717867">
        <ele>1870.0</ele>
        <time>2016-07-25T15:38:19Z</time>
      </trkpt>
      <trkpt lat="41.072200" lon="-3.717933">
        <ele>1870.0</ele>
        <time>2016-07-25T15:38:20Z</time>
      </trkpt>
      <trkpt lat="41.072083" lon="-3.718000">
        <ele>1869.0</ele>
        <time>2016-07-25T15:38:21Z</time>
      </trkpt>
      <trkpt lat="41.071967" lon="-3.718067">
        <ele>1867.0</ele>
        <time>2016-07-25T15:38:22Z</time>
      </trkpt>
      <trkpt lat="41.071850" lon="-3.718133">
        <ele>1867.0</ele>
        <time>2016-07-25T15:38:23Z</time>
      </trkpt>
      <trkpt lat="41.071733" lon="-3.718217">
        <ele>1867.0</ele>
        <time>2016-07-25T15:38:24Z</time>
      </trkpt>
      <trkpt lat="41.071617" lon="-3.718283">
        <ele>1867.0</ele>
        <time>2016-07-25T15:38:25Z</time>
      </trkpt>
      <trkpt lat="41.071500" lon="-3.718367">
        <ele>1868.0</ele>
        <time>2016-07-25T15:38:26Z</time>
      </trkpt>
      <trkpt lat="41.071400" lon="-3.718450">
        <ele>1868.0</ele>
        <time>2016-07-25T15:38:27Z</time>
      </trkpt>
      <trkpt lat="41.071300" lon="-3.718533">
        <ele>1867.0</ele>
        <time>2016-07-25T15:38:28Z</time>
      </trkpt>
      <trkpt lat="41.071183" lon="-3.718633">
        <ele>1867.0</ele>
        <time>2016-07-25T15:38:29Z</time>
      </trkpt>
      <trkpt lat="41.071083" lon="-3.718733">
        <ele>1868.0</ele>
        <time>2016-07-25T15:38:30Z</time>
      </trkpt>
      <trkpt lat="41.070983" lon="-3.718833">
        <ele>1870.0</ele>
        <time>2016-07-25T15:38:31Z</time>
      </trkpt>
      <trkpt lat="41.070883" lon="-3.718933">
        <ele>1872.0</ele>
        <time>2016-07-25T15:38:32Z</time>
      </trkpt>
      <trkpt lat="41.070817" lon="-3.719033">
        <ele>1873.0</ele>
        <time>2016-07-25T15:38:33Z</time>
      </trkpt>
      <trkpt lat="41.070733" lon="-3.719133">
        <ele>1874.0</ele>
        <time>2016-07-25T15:38:34Z</time>
      </trkpt>
      <trkpt lat="41.070667" lon="-3.719250">
        <ele>1874.0</ele>
        <time>2016-07-25T15:38:35Z</time>
      </trkpt>
      <trkpt lat="41.070583" lon="-3.719367">
        <ele>1875.0</ele>
        <time>2016-07-25T15:38:36Z</time>
      </trkpt>
      <trkpt lat="41.070500" lon="-3.719467">
        <ele>1875.0</ele>
        <time>2016-07-25T15:38:37Z</time>
      </trkpt>
      <trkpt lat="41.070417" lon="-3.719583">
        <ele>1877.0</ele>
        <time>2016-07-25T15:38:38Z</time>
      </trkpt>
      <trkpt lat="41.070333" lon="-3.719683">
        <ele>1878.0</ele>
        <time>2016-07-25T15:38:39Z</time>
      </trkpt>
      <trkpt lat="41.070267" lon="-3.719783">
        <ele>1879.0</ele>
        <time>2016-07-25T15:38:40Z</time>
      </trkpt>
      <trkpt lat="41.070200" lon="-3.719883">
        <ele>1881.0</ele>
        <time>2016-07-25T15:38:41Z</time>
      </trkpt>
      <trkpt lat="41.070150" lon="-3.719983">
        <ele>1882.0</ele>
        <time>2016-07-25T15:38:42Z</time>
      </trkpt>
      <trkpt lat="41.070100" lon="-3.720067">
        <ele>1884.0</ele>
        <time>2016-07-25T15:38:43Z</time>
      </trkpt>
      <trkpt lat="41.070050" lon="-3.720167">
        <ele>1886.0</ele>
        <time>2016-07-25T15:38:44Z</time>
      </trkpt>
      <trkpt lat="41.070000" lon="-3.720233">
        <ele>1888.0</ele>
        <time>2016-07-25T15:38:45Z</time>
      </trkpt>
      <trkpt lat="41.069967" lon="-3.720300">
        <ele>1889.0</ele>
        <time>2016-07-25T15:38:46Z</time>
      </trkpt>
      <trkpt lat="41.069917" lon="-3.720367">
        <ele>1890.0</ele>
        <time>2016-07-25T15:38:47Z</time>
      </trkpt>
      <trkpt lat="41.069883" lon="-3.720433">
        <ele>1891.0</ele>
        <time>2016-07-25T15:38:48Z</time>
      </trkpt>
      <trkpt lat="41.069850" lon="-3.720517">
        <ele>1893.0</ele>
        <time>2016-07-25T15:38:49Z</time>
      </trkpt>
      <trkpt lat="41.069817" lon="-3.720567">
        <ele>1895.0</ele>
        <time>2016-07-25T15:38:50Z</time>
      </trkpt>
      <trkpt lat="41.069800" lon="-3.720600">
        <ele>1897.0</ele>
        <time>2016-07-25T15:38:51Z</time>
      </trkpt>
      <trkpt lat="41.069800" lon="-3.720633">
        <ele>1899.0</ele>
        <time>2016-07-25T15:38:52Z</time>
      </trkpt>
      <trkpt lat="41.069817" lon="-3.720667">
        <ele>1902.0</ele>
        <time>2016-07-25T15:38:53Z</time>
      </trkpt>
      <trkpt lat="41.069817" lon="-3.720683">
        <ele>1905.0</ele>
        <time>2016-07-25T15:38:54Z</time>
      </trkpt>
      <trkpt lat="41.069800" lon="-3.720717">
        <ele>1908.0</ele>
        <time>2016-07-25T15:38:55Z</time>
      </trkpt>
      <trkpt lat="41.069783" lon="-3.720733">
        <ele>1909.0</ele>
        <time>2016-07-25T15:38:56Z</time>
      </trkpt>
      <trkpt lat="41.069783" lon="-3.720767">
        <ele>1910.0</ele>
        <time>2016-07-25T15:38:57Z</time>
      </trkpt>
      <trkpt lat="41.069783" lon="-3.720800">
        <ele>1911.0</ele>
        <time>2016-07-25T15:38:58Z</time>
      </trkpt>
      <trkpt lat="41.069800" lon="-3.720833">
        <ele>1912.0</ele>
        <time>2016-07-25T15:38:59Z</time>
      </trkpt>
      <trkpt lat="41.069817" lon="-3.720850">
        <ele>1913.0</ele>
        <time>2016-07-25T15:39:00Z</time>
      </trkpt>
      <trkpt lat="41.069817" lon="-3.720867">
        <ele>1914.0</ele>
        <time>2016-07-25T15:39:01Z</time>
      </trkpt>
      <trkpt lat="41.069833" lon="-3.720867">
        <ele>1914.0</ele>
        <time>2016-07-25T15:39:02Z</time>
      </trkpt>
      <trkpt lat="41.069850" lon="-3.720883">
        <ele>1914.0</ele>
        <time>2016-07-25T15:39:03Z</time>
      </trkpt>
      <trkpt lat="41.069883" lon="-3.720900">
        <ele>1915.0</ele>
        <time>2016-07-25T15:39:04Z</time>
      </trkpt>
      <trkpt lat="41.069900" lon="-3.720900">
        <ele>1916.0</ele>
        <time>2016-07-25T15:39:05Z</time>
      </trkpt>
      <trkpt lat="41.069917" lon="-3.720900">
        <ele>1918.0</ele>
        <time>2016-07-25T15:39:06Z</time>
      </trkpt>
      <trkpt lat="41.069933" lon="-3.720900">
        <ele>1919.0</ele>
        <time>2016-07-25T15:39:07Z</time>
      </trkpt>
      <trkpt lat="41.069950" lon="-3.720883">
        <ele>1919.0</ele>
        <time>2016-07-25T15:39:08Z</time>
      </trkpt>
      <trkpt lat="41.069983" lon="-3.720883">
        <ele>1920.0</ele>
        <time>2016-07-25T15:39:09Z</time>
      </trkpt>
      <trkpt lat="41.070000" lon="-3.720867">
        <ele>1922.0</ele>
        <time>2016-07-25T15:39:10Z</time>
      </trkpt>
      <trkpt lat="41.070033" lon="-3.720850">
        <ele>1924.0</ele>
        <time>2016-07-25T15:39:11Z</time>
      </trkpt>
      <trkpt lat="41.070033" lon="-3.720850">
        <ele>1925.0</ele>
        <time>2016-07-25T15:39:12Z</time>
      </trkpt>
      <trkpt lat="41.070050" lon="-3.720850">
        <ele>1925.0</ele>
        <time>2016-07-25T15:39:13Z</time>
      </trkpt>
      <trkpt lat="41.070067" lon="-3.720850">
        <ele>1925.0</ele>
        <time>2016-07-25T15:39:14Z</time>
      </trkpt>
      <trkpt lat="41.070100" lon="-3.720850">
        <ele>1925.0</ele>
        <time>2016-07-25T15:39:15Z</time>
      </trkpt>
      <trkpt lat="41.070133" lon="-3.720800">
        <ele>1926.0</ele>
        <time>2016-07-25T15:39:16Z</time>
      </trkpt>
      <trkpt lat="41.070150" lon="-3.720750">
        <ele>1928.0</ele>
        <time>2016-07-25T15:39:17Z</time>
      </trkpt>
      <trkpt lat="41.070183" lon="-3.720683">
        <ele>1930.0</ele>
        <time>2016-07-25T15:39:18Z</time>
      </trkpt>
      <trkpt lat="41.070200" lon="-3.720617">
        <ele>1931.0</ele>
        <time>2016-07-25T15:39:19Z</time>
      </trkpt>
      <trkpt lat="41.070233" lon="-3.720567">
        <ele>1932.0</ele>
        <time>2016-07-25T15:39:20Z</time>
      </trkpt>
      <trkpt lat="41.070250" lon="-3.720500">
        <ele>1933.0</ele>
        <time>2016-07-25T15:39:21Z</time>
      </trkpt>
      <trkpt lat="41.070267" lon="-3.720400">
        <ele>1933.0</ele>
        <time>2016-07-25T15:39:22Z</time>
      </trkpt>
      <trkpt lat="41.070250" lon="-3.720283">
        <ele>1934.0</ele>
        <time>2016-07-25T15:39:23Z</time>
      </trkpt>
      <trkpt lat="41.070217" lon="-3.720117">
        <ele>1933.0</ele>
        <time>2016-07-25T15:39:24Z</time>
      </trkpt>
      <trkpt lat="41.070117" lon="-3.719950">
        <ele>1932.0</ele>
        <time>2016-07-25T15:39:25Z</time>
      </trkpt>
      <trkpt lat="41.069983" lon="-3.719833">
        <ele>1930.0</ele>
        <time>2016-07-25T15:39:26Z</time>
      </trkpt>
      <trkpt lat="41.069817" lon="-3.719800">
        <ele>1929.0</ele>
        <time>2016-07-25T15:39:27Z</time>
      </trkpt>
      <trkpt lat="41.069683" lon="-3.719833">
        <ele>1927.0</ele>
        <time>2016-07-25T15:39:28Z</time>
      </trkpt>
      <trkpt lat="41.069583" lon="-3.719917">
        <ele>1928.0</ele>
        <time>2016-07-25T15:39:29Z</time>
      </trkpt>
      <trkpt lat="41.069517" lon="-3.720000">
        <ele>1930.0</ele>
        <time>2016-07-25T15:39:30Z</time>
      </trkpt>
      <trkpt lat="41.069467" lon="-3.720050">
        <ele>1933.0</ele>
        <time>2016-07-25T15:39:31Z</time>
      </trkpt>
      <trkpt lat="41.069417" lon="-3.720083">
        <ele>1935.0</ele>
        <time>2016-07-25T15:39:32Z</time>
      </trkpt>
      <trkpt lat="41.069383" lon="-3.720117">
        <ele>1935.0</ele>
        <time>2016-07-25T15:39:33Z</time>
      </trkpt>
      <trkpt lat="41.069333" lon="-3.720150">
        <ele>1935.0</ele>
        <time>2016-07-25T15:39:34Z</time>
      </trkpt>
      <trkpt lat="41.069317" lon="-3.720200">
        <ele>1934.0</ele>
        <time>2016-07-25T15:39:35Z</time>
      </trkpt>
      <trkpt lat="41.069317" lon="-3.720233">
        <ele>1934.0</ele>
        <time>2016-07-25T15:39:36Z</time>
      </trkpt>
      <trkpt lat="41.069333" lon="-3.720250">
        <ele>1936.0</ele>
        <time>2016-07-25T15:39:37Z</time>
      </trkpt>
      <trkpt lat="41.069317" lon="-3.720267">
        <ele>1937.0</ele>
        <time>2016-07-25T15:39:38Z</time>
      </trkpt>
      <trkpt lat="41.069317" lon="-3.720267">
        <ele>1937.0</ele>
        <time>2016-07-25T15:39:39Z</time>
      </trkpt>
      <trkpt lat="41.069317" lon="-3.720300">
        <ele>1935.0</ele>
        <time>2016-07-25T15:39:40Z</time>
      </trkpt>
      <trkpt lat="41.069333" lon="-3.720333">
        <ele>1934.0</ele>
        <time>2016-07-25T15:39:41Z</time>
      </trkpt>
      <trkpt lat="41.069333" lon="-3.720367">
        <ele>1934.0</ele>
        <time>2016-07-25T15:39:42Z</time>
      </trkpt>
      <trkpt lat="41.069350" lon="-3.720400">
        <ele>1935.0</ele>
        <time>2016-07-25T15:39:43Z</time>
      </trkpt>
      <trkpt lat="41.069350" lon="-3.720417">
        <ele>1936.0</ele>
        <time>2016-07-25T15:39:44Z</time>
      </trkpt>
      <trkpt lat="41.069350" lon="-3.720433">
        <ele>1936.0</ele>
        <time>2016-07-25T15:39:45Z</time>
      </trkpt>
      <trkpt lat="41.069367" lon="-3.720433">
        <ele>1935.0</ele>
        <time>2016-07-25T15:39:46Z</time>
      </trkpt>
      <trkpt lat="41.069400" lon="-3.720467">
        <ele>1934.0</ele>
        <time>2016-07-25T15:39:47Z</time>
      </trkpt>
      <trkpt lat="41.069417" lon="-3.720517">
        <ele>1934.0</ele>
        <time>2016-07-25T15:39:48Z</time>
      </trkpt>
      <trkpt lat="41.069417" lon="-3.720550">
        <ele>1935.0</ele>
        <time>2016-07-25T15:39:49Z</time>
      </trkpt>
      <trkpt lat="41.069417" lon="-3.720600">
        <ele>1936.0</ele>
        <time>2016-07-25T15:39:50Z</time>
      </trkpt>
      <trkpt lat="41.069417" lon="-3.720633">
        <ele>1936.0</ele>
        <time>2016-07-25T15:39:51Z</time>
      </trkpt>
      <trkpt lat="41.069417" lon="-3.720667">
        <ele>1935.0</ele>
        <time>2016-07-25T15:39:52Z</time>
      </trkpt>
      <trkpt lat="41.069450" lon="-3.720717">
        <ele>1934.0</ele>
        <time>2016-07-25T15:39:53Z</time>
      </trkpt>
      <trkpt lat="41.069467" lon="-3.720767">
        <ele>1934.0</ele>
        <time>2016-07-25T15:39:54Z</time>
      </trkpt>
      <trkpt lat="41.069483" lon="-3.720817">
        <ele>1934.0</ele>
        <time>2016-07-25T15:39:55Z</time>
      </trkpt>
      <trkpt lat="41.069500" lon="-3.720867">
        <ele>1934.0</ele>
        <time>2016-07-25T15:39:56Z</time>
      </trkpt>
      <trkpt lat="41.069517" lon="-3.720917">
        <ele>1934.0</ele>
        <time>2016-07-25T15:39:57Z</time>
      </trkpt>
      <trkpt lat="41.069533" lon="-3.720967">
        <ele>1934.0</ele>
        <time>2016-07-25T15:39:58Z</time>
      </trkpt>
      <trkpt lat="41.069550" lon="-3.721017">
        <ele>1935.0</ele>
        <time>2016-07-25T15:39:59Z</time>
      </trkpt>
      <trkpt lat="41.069567" lon="-3.721067">
        <ele>1936.0</ele>
        <time>2016-07-25T15:40:00Z</time>
      </trkpt>
      <trkpt lat="41.069567" lon="-3.721133">
        <ele>1938.0</ele>
        <time>2016-07-25T15:40:01Z</time>
      </trkpt>
      <trkpt lat="41.069550" lon="-3.721183">
        <ele>1939.0</ele>
        <time>2016-07-25T15:40:02Z</time>
      </trkpt>
      <trkpt lat="41.069550" lon="-3.721233">
        <ele>1938.0</ele>
        <time>2016-07-25T15:40:03Z</time>
      </trkpt>
      <trkpt lat="41.069567" lon="-3.721283">
        <ele>1938.0</ele>
        <time>2016-07-25T15:40:04Z</time>
      </trkpt>
      <trkpt lat="41.069583" lon="-3.721350">
        <ele>1937.0</ele>
        <time>2016-07-25T15:40:05Z</time>
      </trkpt>
      <trkpt lat="41.069600" lon="-3.721400">
        <ele>1938.0</ele>
        <time>2016-07-25T15:40:06Z</time>
      </trkpt>
      <trkpt lat="41.069617" lon="-3.721467">
        <ele>1940.0</ele>
        <time>2016-07-25T15:40:07Z</time>
      </trkpt>
      <trkpt lat="41.069633" lon="-3.721517">
        <ele>1942.0</ele>
        <time>2016-07-25T15:40:08Z</time>
      </trkpt>
      <trkpt lat="41.069633" lon="-3.721583">
        <ele>1944.0</ele>
        <time>2016-07-25T15:40:09Z</time>
      </trkpt>
      <trkpt lat="41.069650" lon="-3.721633">
        <ele>1945.0</ele>
        <time>2016-07-25T15:40:10Z</time>
      </trkpt>
      <trkpt lat="41.069667" lon="-3.721683">
        <ele>1945.0</ele>
        <time>2016-07-25T15:40:11Z</time>
      </trkpt>
      <trkpt lat="41.069700" lon="-3.721733">
        <ele>1946.0</ele>
        <time>2016-07-25T15:40:12Z</time>
      </trkpt>
      <trkpt lat="41.069717" lon="-3.721783">
        <ele>1946.0</ele>
        <time>2016-07-25T15:40:13Z</time>
      </trkpt>
      <trkpt lat="41.069750" lon="-3.721833">
        <ele>1947.0</ele>
        <time>2016-07-25T15:40:14Z</time>
      </trkpt>
      <trkpt lat="41.069767" lon="-3.721883">
        <ele>1947.0</ele>
        <time>2016-07-25T15:40:15Z</time>
      </trkpt>
      <trkpt lat="41.069767" lon="-3.721950">
        <ele>1948.0</ele>
        <time>2016-07-25T15:40:16Z</time>
      </trkpt>
      <trkpt lat="41.069767" lon="-3.722033">
        <ele>1948.0</ele>
        <time>2016-07-25T15:40:17Z</time>
      </trkpt>
      <trkpt lat="41.069767" lon="-3.722100">
        <ele>1947.0</ele>
        <time>2016-07-25T15:40:18Z</time>
      </trkpt>
      <trkpt lat="41.069783" lon="-3.722183">
        <ele>1945.0</ele>
        <time>2016-07-25T15:40:19Z</time>
      </trkpt>
      <trkpt lat="41.069783" lon="-3.722267">
        <ele>1944.0</ele>
        <time>2016-07-25T15:40:20Z</time>
      </trkpt>
      <trkpt lat="41.069767" lon="-3.722350">
        <ele>1943.0</ele>
        <time>2016-07-25T15:40:21Z</time>
      </trkpt>
      <trkpt lat="41.069750" lon="-3.722450">
        <ele>1942.0</ele>
        <time>2016-07-25T15:40:22Z</time>
      </trkpt>
      <trkpt lat="41.069683" lon="-3.722567">
        <ele>1940.0</ele>
        <time>2016-07-25T15:40:23Z</time>
      </trkpt>
      <trkpt lat="41.069600" lon="-3.722683">
        <ele>1938.0</ele>
        <time>2016-07-25T15:40:24Z</time>
      </trkpt>
      <trkpt lat="41.069517" lon="-3.722783">
        <ele>1938.0</ele>
        <time>2016-07-25T15:40:25Z</time>
      </trkpt>
      <trkpt lat="41.069450" lon="-3.722883">
        <ele>1938.0</ele>
        <time>2016-07-25T15:40:26Z</time>
      </trkpt>
      <trkpt lat="41.069400" lon="-3.722983">
        <ele>1938.0</ele>
        <time>2016-07-25T15:40:27Z</time>
      </trkpt>
      <trkpt lat="41.069367" lon="-3.723083">
        <ele>1937.0</ele>
        <time>2016-07-25T15:40:28Z</time>
      </trkpt>
      <trkpt lat="41.069317" lon="-3.723183">
        <ele>1937.0</ele>
        <time>2016-07-25T15:40:29Z</time>
      </trkpt>
      <trkpt lat="41.069267" lon="-3.723283">
        <ele>1936.0</ele>
        <time>2016-07-25T15:40:30Z</time>
      </trkpt>
      <trkpt lat="41.069217" lon="-3.723383">
        <ele>1935.0</ele>
        <time>2016-07-25T15:40:31Z</time>
      </trkpt>
      <trkpt lat="41.069150" lon="-3.723483">
        <ele>1935.0</ele>
        <time>2016-07-25T15:40:32Z</time>
      </trkpt>
      <trkpt lat="41.069100" lon="-3.723583">
        <ele>1935.0</ele>
        <time>2016-07-25T15:40:33Z</time>
      </trkpt>
      <trkpt lat="41.069067" lon="-3.723683">
        <ele>1933.0</ele>
        <time>2016-07-25T15:40:34Z</time>
      </trkpt>
      <trkpt lat="41.069033" lon="-3.723783">
        <ele>1933.0</ele>
        <time>2016-07-25T15:40:35Z</time>
      </trkpt>
      <trkpt lat="41.068983" lon="-3.723883">
        <ele>1932.0</ele>
        <time>2016-07-25T15:40:36Z</time>
      </trkpt>
      <trkpt lat="41.068933" lon="-3.723983">
        <ele>1933.0</ele>
        <time>2016-07-25T15:40:37Z</time>
      </trkpt>
      <trkpt lat="41.068883" lon="-3.724067">
        <ele>1934.0</ele>
        <time>2016-07-25T15:40:38Z</time>
      </trkpt>
      <trkpt lat="41.068850" lon="-3.724133">
        <ele>1933.0</ele>
        <time>2016-07-25T15:40:39Z</time>
      </trkpt>
      <trkpt lat="41.068817" lon="-3.724217">
        <ele>1933.0</ele>
        <time>2016-07-25T15:40:40Z</time>
      </trkpt>
      <trkpt lat="41.068800" lon="-3.724317">
        <ele>1934.0</ele>
        <time>2016-07-25T15:40:41Z</time>
      </trkpt>
      <trkpt lat="41.068783" lon="-3.724400">
        <ele>1936.0</ele>
        <time>2016-07-25T15:40:42Z</time>
      </trkpt>
      <trkpt lat="41.068783" lon="-3.724467">
        <ele>1940.0</ele>
        <time>2016-07-25T15:40:43Z</time>
      </trkpt>
      <trkpt lat="41.068783" lon="-3.724533">
        <ele>1943.0</ele>
        <time>2016-07-25T15:40:44Z</time>
      </trkpt>
      <trkpt lat="41.068750" lon="-3.724600">
        <ele>1947.0</ele>
        <time>2016-07-25T15:40:45Z</time>
      </trkpt>
      <trkpt lat="41.068733" lon="-3.724650">
        <ele>1951.0</ele>
        <time>2016-07-25T15:40:46Z</time>
      </trkpt>
      <trkpt lat="41.068700" lon="-3.724717">
        <ele>1955.0</ele>
        <time>2016-07-25T15:40:47Z</time>
      </trkpt>
      <trkpt lat="41.068683" lon="-3.724767">
        <ele>1958.0</ele>
        <time>2016-07-25T15:40:48Z</time>
      </trkpt>
      <trkpt lat="41.068650" lon="-3.724850">
        <ele>1963.0</ele>
        <time>2016-07-25T15:40:49Z</time>
      </trkpt>
      <trkpt lat="41.068617" lon="-3.724917">
        <ele>1968.0</ele>
        <time>2016-07-25T15:40:50Z</time>
      </trkpt>
      <trkpt lat="41.068583" lon="-3.724983">
        <ele>1973.0</ele>
        <time>2016-07-25T15:40:51Z</time>
      </trkpt>
      <trkpt lat="41.068550" lon="-3.725050">
        <ele>1978.0</ele>
        <time>2016-07-25T15:40:52Z</time>
      </trkpt>
      <trkpt lat="41.068533" lon="-3.725100">
        <ele>1981.0</ele>
        <time>2016-07-25T15:40:53Z</time>
      </trkpt>
      <trkpt lat="41.068500" lon="-3.725183">
        <ele>1985.0</ele>
        <time>2016-07-25T15:40:54Z</time>
      </trkpt>
      <trkpt lat="41.068483" lon="-3.725267">
        <ele>1988.0</ele>
        <time>2016-07-25T15:40:55Z</time>
      </trkpt>
      <trkpt lat="41.068450" lon="-3.725367">
        <ele>1993.0</ele>
        <time>2016-07-25T15:40:56Z</time>
      </trkpt>
      <trkpt lat="41.068433" lon="-3.725467">
        <ele>2000.0</ele>
        <time>2016-07-25T15:40:57Z</time>
      </trkpt>
      <trkpt lat="41.068417" lon="-3.725550">
        <ele>2007.0</ele>
        <time>2016-07-25T15:40:58Z</time>
      </trkpt>
      <trkpt lat="41.068383" lon="-3.725600">
        <ele>2013.0</ele>
        <time>2016-07-25T15:40:59Z</time>
      </trkpt>
      <trkpt lat="41.068317" lon="-3.725667">
        <ele>2017.0</ele>
        <time>2016-07-25T15:41:00Z</time>
      </trkpt>
      <trkpt lat="41.068250" lon="-3.725750">
        <ele>2019.0</ele>
        <time>2016-07-25T15:41:01Z</time>
      </trkpt>
      <trkpt lat="41.068183" lon="-3.725850">
        <ele>2021.0</ele>
        <time>2016-07-25T15:41:02Z</time>
      </trkpt>
      <trkpt lat="41.068117" lon="-3.725967">
        <ele>2024.0</ele>
        <time>2016-07-25T15:41:03Z</time>
      </trkpt>
      <trkpt lat="41.068100" lon="-3.726067">
        <ele>2027.0</ele>
        <time>2016-07-25T15:41:04Z</time>
      </trkpt>
      <trkpt lat="41.068083" lon="-3.726133">
        <ele>2030.0</ele>
        <time>2016-07-25T15:41:05Z</time>
      </trkpt>
      <trkpt lat="41.068067" lon="-3.726200">
        <ele>2033.0</ele>
        <time>2016-07-25T15:41:06Z</time>
      </trkpt>
      <trkpt lat="41.068050" lon="-3.726267">
        <ele>2035.0</ele>
        <time>2016-07-25T15:41:07Z</time>
      </trkpt>
      <trkpt lat="41.068033" lon="-3.726350">
        <ele>2039.0</ele>
        <time>2016-07-25T15:41:08Z</time>
      </trkpt>
      <trkpt lat="41.068033" lon="-3.726433">
        <ele>2045.0</ele>
        <time>2016-07-25T15:41:09Z</time>
      </trkpt>
      <trkpt lat="41.068017" lon="-3.726483">
        <ele>2052.0</ele>
        <time>2016-07-25T15:41:10Z</time>
      </trkpt>
      <trkpt lat="41.068000" lon="-3.726500">
        <ele>2059.0</ele>
        <time>2016-07-25T15:41:11Z</time>
      </trkpt>
      <trkpt lat="41.067967" lon="-3.726500">
        <ele>2063.0</ele>
        <time>2016-07-25T15:41:12Z</time>
      </trkpt>
      <trkpt lat="41.067950" lon="-3.726517">
        <ele>2066.0</ele>
        <time>2016-07-25T15:41:13Z</time>
      </trkpt>
      <trkpt lat="41.067933" lon="-3.726550">
        <ele>2067.0</ele>
        <time>2016-07-25T15:41:14Z</time>
      </trkpt>
      <trkpt lat="41.067950" lon="-3.726583">
        <ele>2068.0</ele>
        <time>2016-07-25T15:41:15Z</time>
      </trkpt>
      <trkpt lat="41.068000" lon="-3.726617">
        <ele>2071.0</ele>
        <time>2016-07-25T15:41:16Z</time>
      </trkpt>
      <trkpt lat="41.068050" lon="-3.726617">
        <ele>2074.0</ele>
        <time>2016-07-25T15:41:17Z</time>
      </trkpt>
      <trkpt lat="41.068083" lon="-3.726617">
        <ele>2078.0</ele>
        <time>2016-07-25T15:41:18Z</time>
      </trkpt>
      <trkpt lat="41.068100" lon="-3.726633">
        <ele>2081.0</ele>
        <time>2016-07-25T15:41:19Z</time>
      </trkpt>
      <trkpt lat="41.068133" lon="-3.726633">
        <ele>2083.0</ele>
        <time>2016-07-25T15:41:20Z</time>
      </trkpt>
      <trkpt lat="41.068167" lon="-3.726650">
        <ele>2083.0</ele>
        <time>2016-07-25T15:41:21Z</time>
      </trkpt>
      <trkpt lat="41.068217" lon="-3.726667">
        <ele>2084.0</ele>
        <time>2016-07-25T15:41:22Z</time>
      </trkpt>
      <trkpt lat="41.068267" lon="-3.726683">
        <ele>2086.0</ele>
        <time>2016-07-25T15:41:23Z</time>
      </trkpt>
      <trkpt lat="41.068317" lon="-3.726667">
        <ele>2089.0</ele>
        <time>2016-07-25T15:41:24Z</time>
      </trkpt>
      <trkpt lat="41.068383" lon="-3.726650">
        <ele>2091.0</ele>
        <time>2016-07-25T15:41:25Z</time>
      </trkpt>
      <trkpt lat="41.068433" lon="-3.726617">
        <ele>2093.0</ele>
        <time>2016-07-25T15:41:26Z</time>
      </trkpt>
      <trkpt lat="41.068500" lon="-3.726583">
        <ele>2096.0</ele>
        <time>2016-07-25T15:41:27Z</time>
      </trkpt>
      <trkpt lat="41.068567" lon="-3.726550">
        <ele>2100.0</ele>
        <time>2016-07-25T15:41:28Z</time>
      </trkpt>
      <trkpt lat="41.068633" lon="-3.726517">
        <ele>2106.0</ele>
        <time>2016-07-25T15:41:29Z</time>
      </trkpt>
      <trkpt lat="41.068683" lon="-3.726483">
        <ele>2111.0</ele>
        <time>2016-07-25T15:41:30Z</time>
      </trkpt>
      <trkpt lat="41.068733" lon="-3.726467">
        <ele>2116.0</ele>
        <time>2016-07-25T15:41:31Z</time>
      </trkpt>
      <trkpt lat="41.068767" lon="-3.726433">
        <ele>2119.0</ele>
        <time>2016-07-25T15:41:32Z</time>
      </trkpt>
      <trkpt lat="41.068817" lon="-3.726383">
        <ele>2123.0</ele>
        <time>2016-07-25T15:41:33Z</time>
      </trkpt>
      <trkpt lat="41.068867" lon="-3.726300">
        <ele>2126.0</ele>
        <time>2016-07-25T15:41:34Z</time>
      </trkpt>
      <trkpt lat="41.068900" lon="-3.726200">
        <ele>2130.0</ele>
        <time>2016-07-25T15:41:35Z</time>
      </trkpt>
      <trkpt lat="41.068933" lon="-3.726083">
        <ele>2134.0</ele>
        <time>2016-07-25T15:41:36Z</time>
      </trkpt>
      <trkpt lat="41.068950" lon="-3.725950">
        <ele>2137.0</ele>
        <time>2016-07-25T15:41:37Z</time>
      </trkpt>
      <trkpt lat="41.068917" lon="-3.725800">
        <ele>2140.0</ele>
        <time>2016-07-25T15:41:38Z</time>
      </trkpt>
      <trkpt lat="41.068850" lon="-3.725650">
        <ele>2140.0</ele>
        <time>2016-07-25T15:41:39Z</time>
      </trkpt>
      <trkpt lat="41.068750" lon="-3.725533">
        <ele>2139.0</ele>
        <time>2016-07-25T15:41:40Z</time>
      </trkpt>
      <trkpt lat="41.068617" lon="-3.725467">
        <ele>2139.0</ele>
        <time>2016-07-25T15:41:41Z</time>
      </trkpt>
      <trkpt lat="41.068500" lon="-3.725450">
        <ele>2140.0</ele>
        <time>2016-07-25T15:41:42Z</time>
      </trkpt>
      <trkpt lat="41.068383" lon="-3.725467">
        <ele>2143.0</ele>
        <time>2016-07-25T15:41:43Z</time>
      </trkpt>
      <trkpt lat="41.068300" lon="-3.725500">
        <ele>2145.0</ele>
        <time>2016-07-25T15:41:44Z</time>
      </trkpt>
      <trkpt lat="41.068217" lon="-3.725500">
        <ele>2148.0</ele>
        <time>2016-07-25T15:41:45Z</time>
      </trkpt>
      <trkpt lat="41.068117" lon="-3.725500">
        <ele>2148.0</ele>
        <time>2016-07-25T15:41:46Z</time>
      </trkpt>
      <trkpt lat="41.068017" lon="-3.725533">
        <ele>2149.0</ele>
        <time>2016-07-25T15:41:47Z</time>
      </trkpt>
      <trkpt lat="41.067917" lon="-3.725583">
        <ele>2150.0</ele>
        <time>2016-07-25T15:41:48Z</time>
      </trkpt>
      <trkpt lat="41.067850" lon="-3.725683">
        <ele>2154.0</ele>
        <time>2016-07-25T15:41:49Z</time>
      </trkpt>
      <trkpt lat="41.067817" lon="-3.725783">
        <ele>2157.0</ele>
        <time>2016-07-25T15:41:50Z</time>
      </trkpt>
      <trkpt lat="41.067800" lon="-3.725850">
        <ele>2161.0</ele>
        <time>2016-07-25T15:41:51Z</time>
      </trkpt>
      <trkpt lat="41.067767" lon="-3.725917">
        <ele>2163.0</ele>
        <time>2016-07-25T15:41:52Z</time>
      </trkpt>
      <trkpt lat="41.067733" lon="-3.725983">
        <ele>2164.0</ele>
        <time>2016-07-25T15:41:53Z</time>
      </trkpt>
      <trkpt lat="41.067700" lon="-3.726083">
        <ele>2164.0</ele>
        <time>2016-07-25T15:41:54Z</time>
      </trkpt>
      <trkpt lat="41.067683" lon="-3.726200">
        <ele>2166.0</ele>
        <time>2016-07-25T15:41:55Z</time>
      </trkpt>
      <trkpt lat="41.067650" lon="-3.726283">
        <ele>2170.0</ele>
        <time>2016-07-25T15:41:56Z</time>
      </trkpt>
      <trkpt lat="41.067633" lon="-3.726350">
        <ele>2174.0</ele>
        <time>2016-07-25T15:41:57Z</time>
      </trkpt>
      <trkpt lat="41.067600" lon="-3.726367">
        <ele>2176.0</ele>
        <time>2016-07-25T15:41:58Z</time>
      </trkpt>
      <trkpt lat="41.067567" lon="-3.726400">
        <ele>2176.0</ele>
        <time>2016-07-25T15:41:59Z</time>
      </trkpt>
      <trkpt lat="41.067533" lon="-3.726467">
        <ele>2174.0</ele>
        <time>2016-07-25T15:42:00Z</time>
      </trkpt>
      <trkpt lat="41.067500" lon="-3.726550">
        <ele>2172.0</ele>
        <time>2016-07-25T15:42:01Z</time>
      </trkpt>
      <trkpt lat="41.067500" lon="-3.726633">
        <ele>2172.0</ele>
        <time>2016-07-25T15:42:02Z</time>
      </trkpt>
      <trkpt lat="41.067483" lon="-3.726700">
        <ele>2174.0</ele>
        <time>2016-07-25T15:42:03Z</time>
      </trkpt>
      <trkpt lat="41.067483" lon="-3.726750">
        <ele>2177.0</ele>
        <time>2016-07-25T15:42:04Z</time>
      </trkpt>
      <trkpt lat="41.067467" lon="-3.726767">
        <ele>2178.0</ele>
        <time>2016-07-25T15:42:05Z</time>
      </trkpt>
      <trkpt lat="41.067450" lon="-3.726800">
        <ele>2179.0</ele>
        <time>2016-07-25T15:42:06Z</time>
      </trkpt>
      <trkpt lat="41.067433" lon="-3.726850">
        <ele>2178.0</ele>
        <time>2016-07-25T15:42:07Z</time>
      </trkpt>
      <trkpt lat="41.067433" lon="-3.726900">
        <ele>2177.0</ele>
        <time>2016-07-25T15:42:08Z</time>
      </trkpt>
      <trkpt lat="41.067433" lon="-3.726967">
        <ele>2177.0</ele>
        <time>2016-07-25T15:42:09Z</time>
      </trkpt>
      <trkpt lat="41.067450" lon="-3.726983">
        <ele>2176.0</ele>
        <time>2016-07-25T15:42:10Z</time>
      </trkpt>
      <trkpt lat="41.067450" lon="-3.726983">
        <ele>2175.0</ele>
        <time>2016-07-25T15:42:11Z</time>
      </trkpt>
      <trkpt lat="41.067433" lon="-3.727000">
        <ele>2172.0</ele>
        <time>2016-07-25T15:42:12Z</time>
      </trkpt>
      <trkpt lat="41.067433" lon="-3.727050">
        <ele>2167.0</ele>
        <time>2016-07-25T15:42:13Z</time>
      </trkpt>
      <trkpt lat="41.067433" lon="-3.727133">
        <ele>2163.0</ele>
        <time>2016-07-25T15:42:14Z</time>
      </trkpt>
      <trkpt lat="41.067433" lon="-3.727217">
        <ele>2160.0</ele>
        <time>2016-07-25T15:42:15Z</time>
      </trkpt>
      <trkpt lat="41.067417" lon="-3.727317">
        <ele>2160.0</ele>
        <time>2016-07-25T15:42:16Z</time>
      </trkpt>
      <trkpt lat="41.067400" lon="-3.727383">
        <ele>2160.0</ele>
        <time>2016-07-25T15:42:17Z</time>
      </trkpt>
      <trkpt lat="41.067383" lon="-3.727467">
        <ele>2160.0</ele>
        <time>2016-07-25T15:42:18Z</time>
      </trkpt>
      <trkpt lat="41.067350" lon="-3.727517">
        <ele>2159.0</ele>
        <time>2016-07-25T15:42:19Z</time>
      </trkpt>
      <trkpt lat="41.067333" lon="-3.727583">
        <ele>2158.0</ele>
        <time>2016-07-25T15:42:20Z</time>
      </trkpt>
      <trkpt lat="41.067317" lon="-3.727650">
        <ele>2156.0</ele>
        <time>2016-07-25T15:42:21Z</time>
      </trkpt>
      <trkpt lat="41.067300" lon="-3.727717">
        <ele>2153.0</ele>
        <time>2016-07-25T15:42:22Z</time>
      </trkpt>
      <trkpt lat="41.067300" lon="-3.727800">
        <ele>2150.0</ele>
        <time>2016-07-25T15:42:23Z</time>
      </trkpt>
      <trkpt lat="41.067300" lon="-3.727883">
        <ele>2149.0</ele>
        <time>2016-07-25T15:42:24Z</time>
      </trkpt>
      <trkpt lat="41.067300" lon="-3.727950">
        <ele>2148.0</ele>
        <time>2016-07-25T15:42:25Z</time>
      </trkpt>
      <trkpt lat="41.067317" lon="-3.728000">
        <ele>2146.0</ele>
        <time>2016-07-25T15:42:26Z</time>
      </trkpt>
      <trkpt lat="41.067350" lon="-3.728050">
        <ele>2143.0</ele>
        <time>2016-07-25T15:42:27Z</time>
      </trkpt>
      <trkpt lat="41.067367" lon="-3.728083">
        <ele>2140.0</ele>
        <time>2016-07-25T15:42:28Z</time>
      </trkpt>
      <trkpt lat="41.067383" lon="-3.728150">
        <ele>2137.0</ele>
        <time>2016-07-25T15:42:29Z</time>
      </trkpt>
      <trkpt lat="41.067383" lon="-3.728250">
        <ele>2134.0</ele>
        <time>2016-07-25T15:42:30Z</time>
      </trkpt>
      <trkpt lat="41.067350" lon="-3.728367">
        <ele>2131.0</ele>
        <time>2016-07-25T15:42:31Z</time>
      </trkpt>
      <trkpt lat="41.067350" lon="-3.728467">
        <ele>2129.0</ele>
        <time>2016-07-25T15:42:32Z</time>
      </trkpt>
      <trkpt lat="41.067367" lon="-3.728533">
        <ele>2126.0</ele>
        <time>2016-07-25T15:42:33Z</time>
      </trkpt>
      <trkpt lat="41.067400" lon="-3.728567">
        <ele>2123.0</ele>
        <time>2016-07-25T15:42:34Z</time>
      </trkpt>
      <trkpt lat="41.067433" lon="-3.728617">
        <ele>2120.0</ele>
        <time>2016-07-25T15:42:35Z</time>
      </trkpt>
      <trkpt lat="41.067467" lon="-3.728683">
        <ele>2117.0</ele>
        <time>2016-07-25T15:42:36Z</time>
      </trkpt>
      <trkpt lat="41.067500" lon="-3.728750">
        <ele>2115.0</ele>
        <time>2016-07-25T15:42:37Z</time>
      </trkpt>
      <trkpt lat="41.067533" lon="-3.728817">
        <ele>2113.0</ele>
        <time>2016-07-25T15:42:38Z</time>
      </trkpt>
      <trkpt lat="41.067583" lon="-3.728850">
        <ele>2111.0</ele>
        <time>2016-07-25T15:42:39Z</time>
      </trkpt>
      <trkpt lat="41.067633" lon="-3.728883">
        <ele>2108.0</ele>
        <time>2016-07-25T15:42:40Z</time>
      </trkpt>
      <trkpt lat="41.067700" lon="-3.728900">
        <ele>2106.0</ele>
        <time>2016-07-25T15:42:41Z</time>
      </trkpt>
      <trkpt lat="41.067767" lon="-3.728933">
        <ele>2104.0</ele>
        <time>2016-07-25T15:42:42Z</time>
      </trkpt>
      <trkpt lat="41.067800" lon="-3.728983">
        <ele>2101.0</ele>
        <time>2016-07-25T15:42:43Z</time>
      </trkpt>
      <trkpt lat="41.067850" lon="-3.729017">
        <ele>2099.0</ele>
        <time>2016-07-25T15:42:44Z</time>
      </trkpt>
      <trkpt lat="41.067900" lon="-3.729067">
        <ele>2096.0</ele>
        <time>2016-07-25T15:42:45Z</time>
      </trkpt>
      <trkpt lat="41.067950" lon="-3.729100">
        <ele>2094.0</ele>
        <time>2016-07-25T15:42:46Z</time>
      </trkpt>
      <trkpt lat="41.068017" lon="-3.729133">
        <ele>2094.0</ele>
        <time>2016-07-25T15:42:47Z</time>
      </trkpt>
      <trkpt lat="41.068067" lon="-3.729150">
        <ele>2095.0</ele>
        <time>2016-07-25T15:42:48Z</time>
      </trkpt>
      <trkpt lat="41.068100" lon="-3.729167">
        <ele>2096.0</ele>
        <time>2016-07-25T15:42:49Z</time>
      </trkpt>
      <trkpt lat="41.068117" lon="-3.729183">
        <ele>2096.0</ele>
        <time>2016-07-25T15:42:50Z</time>
      </trkpt>
      <trkpt lat="41.068133" lon="-3.729183">
        <ele>2095.0</ele>
        <time>2016-07-25T15:42:51Z</time>
      </trkpt>
      <trkpt lat="41.068167" lon="-3.729200">
        <ele>2092.0</ele>
        <time>2016-07-25T15:42:52Z</time>
      </trkpt>
      <trkpt lat="41.068217" lon="-3.729200">
        <ele>2089.0</ele>
        <time>2016-07-25T15:42:53Z</time>
      </trkpt>
      <trkpt lat="41.068283" lon="-3.729183">
        <ele>2087.0</ele>
        <time>2016-07-25T15:42:54Z</time>
      </trkpt>
      <trkpt lat="41.068350" lon="-3.729167">
        <ele>2088.0</ele>
        <time>2016-07-25T15:42:55Z</time>
      </trkpt>
      <trkpt lat="41.068400" lon="-3.729150">
        <ele>2090.0</ele>
        <time>2016-07-25T15:42:56Z</time>
      </trkpt>
      <trkpt lat="41.068433" lon="-3.729150">
        <ele>2090.0</ele>
        <time>2016-07-25T15:42:57Z</time>
      </trkpt>
      <trkpt lat="41.068467" lon="-3.729150">
        <ele>2090.0</ele>
        <time>2016-07-25T15:42:58Z</time>
      </trkpt>
      <trkpt lat="41.068500" lon="-3.729150">
        <ele>2088.0</ele>
        <time>2016-07-25T15:42:59Z</time>
      </trkpt>
      <trkpt lat="41.068567" lon="-3.729150">
        <ele>2087.0</ele>
        <time>2016-07-25T15:43:00Z</time>
      </trkpt>
      <trkpt lat="41.068617" lon="-3.729183">
        <ele>2088.0</ele>
        <time>2016-07-25T15:43:01Z</time>
      </trkpt>
      <trkpt lat="41.068667" lon="-3.729200">
        <ele>2090.0</ele>
        <time>2016-07-25T15:43:02Z</time>
      </trkpt>
      <trkpt lat="41.068683" lon="-3.729217">
        <ele>2093.0</ele>
        <time>2016-07-25T15:43:03Z</time>
      </trkpt>
      <trkpt lat="41.068717" lon="-3.729217">
        <ele>2093.0</ele>
        <time>2016-07-25T15:43:04Z</time>
      </trkpt>
      <trkpt lat="41.068750" lon="-3.729183">
        <ele>2092.0</ele>
        <time>2016-07-25T15:43:05Z</time>
      </trkpt>
      <trkpt lat="41.068800" lon="-3.729150">
        <ele>2090.0</ele>
        <time>2016-07-25T15:43:06Z</time>
      </trkpt>
      <trkpt lat="41.068867" lon="-3.729117">
        <ele>2088.0</ele>
        <time>2016-07-25T15:43:07Z</time>
      </trkpt>
      <trkpt lat="41.068917" lon="-3.729083">
        <ele>2087.0</ele>
        <time>2016-07-25T15:43:08Z</time>
      </trkpt>
      <trkpt lat="41.068967" lon="-3.729050">
        <ele>2087.0</ele>
        <time>2016-07-25T15:43:09Z</time>
      </trkpt>
      <trkpt lat="41.069017" lon="-3.729000">
        <ele>2086.0</ele>
        <time>2016-07-25T15:43:10Z</time>
      </trkpt>
      <trkpt lat="41.069067" lon="-3.728950">
        <ele>2084.0</ele>
        <time>2016-07-25T15:43:11Z</time>
      </trkpt>
      <trkpt lat="41.069133" lon="-3.728900">
        <ele>2083.0</ele>
        <time>2016-07-25T15:43:12Z</time>
      </trkpt>
      <trkpt lat="41.069200" lon="-3.728833">
        <ele>2082.0</ele>
        <time>2016-07-25T15:43:13Z</time>
      </trkpt>
      <trkpt lat="41.069267" lon="-3.728767">
        <ele>2082.0</ele>
        <time>2016-07-25T15:43:14Z</time>
      </trkpt>
      <trkpt lat="41.069317" lon="-3.728750">
        <ele>2083.0</ele>
        <time>2016-07-25T15:43:15Z</time>
      </trkpt>
      <trkpt lat="41.069350" lon="-3.728733">
        <ele>2084.0</ele>
        <time>2016-07-25T15:43:16Z</time>
      </trkpt>
      <trkpt lat="41.069383" lon="-3.728717">
        <ele>2084.0</ele>
        <time>2016-07-25T15:43:17Z</time>
      </trkpt>
      <trkpt lat="41.069433" lon="-3.728683">
        <ele>2083.0</ele>
        <time>2016-07-25T15:43:18Z</time>
      </trkpt>
      <trkpt lat="41.069483" lon="-3.728617">
        <ele>2081.0</ele>
        <time>2016-07-25T15:43:19Z</time>
      </trkpt>
      <trkpt lat="41.069550" lon="-3.728567">
        <ele>2080.0</ele>
        <time>2016-07-25T15:43:20Z</time>
      </trkpt>
      <trkpt lat="41.069617" lon="-3.728517">
        <ele>2079.0</ele>
        <time>2016-07-25T15:43:21Z</time>
      </trkpt>
      <trkpt lat="41.069667" lon="-3.728483">
        <ele>2079.0</ele>
        <time>2016-07-25T15:43:22Z</time>
      </trkpt>
      <trkpt lat="41.069733" lon="-3.728467">
        <ele>2080.0</ele>
        <time>2016-07-25T15:43:23Z</time>
      </trkpt>
      <trkpt lat="41.069783" lon="-3.728417">
        <ele>2081.0</ele>
        <time>2016-07-25T15:43:24Z</time>
      </trkpt>
      <trkpt lat="41.069833" lon="-3.728383">
        <ele>2082.0</ele>
        <time>2016-07-25T15:43:25Z</time>
      </trkpt>
      <trkpt lat="41.069883" lon="-3.728333">
        <ele>2083.0</ele>
        <time>2016-07-25T15:43:26Z</time>
      </trkpt>
      <trkpt lat="41.069950" lon="-3.728300">
        <ele>2084.0</ele>
        <time>2016-07-25T15:43:27Z</time>
      </trkpt>
      <trkpt lat="41.070017" lon="-3.728267">
        <ele>2085.0</ele>
        <time>2016-07-25T15:43:28Z</time>
      </trkpt>
      <trkpt lat="41.070067" lon="-3.728233">
        <ele>2086.0</ele>
        <time>2016-07-25T15:43:29Z</time>
      </trkpt>
      <trkpt lat="41.070117" lon="-3.728217">
        <ele>2088.0</ele>
        <time>2016-07-25T15:43:30Z</time>
      </trkpt>
      <trkpt lat="41.070167" lon="-3.728183">
        <ele>2089.0</ele>
        <time>2016-07-25T15:43:31Z</time>
      </trkpt>
      <trkpt lat="41.070217" lon="-3.728150">
        <ele>2089.0</ele>
        <time>2016-07-25T15:43:32Z</time>
      </trkpt>
      <trkpt lat="41.070283" lon="-3.728100">
        <ele>2089.0</ele>
        <time>2016-07-25T15:43:33Z</time>
      </trkpt>
      <trkpt lat="41.070350" lon="-3.728067">
        <ele>2088.0</ele>
        <time>2016-07-25T15:43:34Z</time>
      </trkpt>
      <trkpt lat="41.070417" lon="-3.728000">
        <ele>2088.0</ele>
        <time>2016-07-25T15:43:35Z</time>
      </trkpt>
      <trkpt lat="41.070483" lon="-3.727950">
        <ele>2090.0</ele>
        <time>2016-07-25T15:43:36Z</time>
      </trkpt>
      <trkpt lat="41.070533" lon="-3.727917">
        <ele>2091.0</ele>
        <time>2016-07-25T15:43:37Z</time>
      </trkpt>
      <trkpt lat="41.070583" lon="-3.727867">
        <ele>2092.0</ele>
        <time>2016-07-25T15:43:38Z</time>
      </trkpt>
      <trkpt lat="41.070650" lon="-3.727850">
        <ele>2092.0</ele>
        <time>2016-07-25T15:43:39Z</time>
      </trkpt>
      <trkpt lat="41.070717" lon="-3.727833">
        <ele>2092.0</ele>
        <time>2016-07-25T15:43:40Z</time>
      </trkpt>
      <trkpt lat="41.070767" lon="-3.727833">
        <ele>2093.0</ele>
        <time>2016-07-25T15:43:41Z</time>
      </trkpt>
      <trkpt lat="41.070817" lon="-3.727833">
        <ele>2094.0</ele>
        <time>2016-07-25T15:43:42Z</time>
      </trkpt>
      <trkpt lat="41.070883" lon="-3.727817">
        <ele>2096.0</ele>
        <time>2016-07-25T15:43:43Z</time>
      </trkpt>
      <trkpt lat="41.070933" lon="-3.727783">
        <ele>2098.0</ele>
        <time>2016-07-25T15:43:44Z</time>
      </trkpt>
      <trkpt lat="41.071000" lon="-3.727767">
        <ele>2101.0</ele>
        <time>2016-07-25T15:43:45Z</time>
      </trkpt>
      <trkpt lat="41.071050" lon="-3.727750">
        <ele>2103.0</ele>
        <time>2016-07-25T15:43:46Z</time>
      </trkpt>
      <trkpt lat="41.071117" lon="-3.727750">
        <ele>2106.0</ele>
        <time>2016-07-25T15:43:47Z</time>
      </trkpt>
      <trkpt lat="41.071150" lon="-3.727750">
        <ele>2109.0</ele>
        <time>2016-07-25T15:43:48Z</time>
      </trkpt>
      <trkpt lat="41.071200" lon="-3.727750">
        <ele>2112.0</ele>
        <time>2016-07-25T15:43:49Z</time>
      </trkpt>
      <trkpt lat="41.071233" lon="-3.727750">
        <ele>2115.0</ele>
        <time>2016-07-25T15:43:50Z</time>
      </trkpt>
      <trkpt lat="41.071267" lon="-3.727750">
        <ele>2117.0</ele>
        <time>2016-07-25T15:43:51Z</time>
      </trkpt>
      <trkpt lat="41.071317" lon="-3.727750">
        <ele>2118.0</ele>
        <time>2016-07-25T15:43:52Z</time>
      </trkpt>
      <trkpt lat="41.071383" lon="-3.727733">
        <ele>2120.0</ele>
        <time>2016-07-25T15:43:53Z</time>
      </trkpt>
      <trkpt lat="41.071433" lon="-3.727717">
        <ele>2122.0</ele>
        <time>2016-07-25T15:43:54Z</time>
      </trkpt>
      <trkpt lat="41.071500" lon="-3.727717">
        <ele>2124.0</ele>
        <time>2016-07-25T15:43:55Z</time>
      </trkpt>
      <trkpt lat="41.071550" lon="-3.727700">
        <ele>2127.0</ele>
        <time>2016-07-25T15:43:56Z</time>
      </trkpt>
      <trkpt lat="41.071600" lon="-3.727683">
        <ele>2128.0</ele>
        <time>2016-07-25T15:43:57Z</time>
      </trkpt>
      <trkpt lat="41.071650" lon="-3.727667">
        <ele>2129.0</ele>
        <time>2016-07-25T15:43:58Z</time>
      </trkpt>
      <trkpt lat="41.071700" lon="-3.727667">
        <ele>2130.0</ele>
        <time>2016-07-25T15:43:59Z</time>
      </trkpt>
      <trkpt lat="41.071767" lon="-3.727650">
        <ele>2131.0</ele>
        <time>2016-07-25T15:44:00Z</time>
      </trkpt>
      <trkpt lat="41.071833" lon="-3.727633">
        <ele>2132.0</ele>
        <time>2016-07-25T15:44:01Z</time>
      </trkpt>
      <trkpt lat="41.071883" lon="-3.727600">
        <ele>2134.0</ele>
        <time>2016-07-25T15:44:02Z</time>
      </trkpt>
      <trkpt lat="41.071950" lon="-3.727583">
        <ele>2136.0</ele>
        <time>2016-07-25T15:44:03Z</time>
      </trkpt>
      <trkpt lat="41.072017" lon="-3.727567">
        <ele>2137.0</ele>
        <time>2016-07-25T15:44:04Z</time>
      </trkpt>
      <trkpt lat="41.072083" lon="-3.727567">
        <ele>2138.0</ele>
        <time>2016-07-25T15:44:05Z</time>
      </trkpt>
      <trkpt lat="41.072150" lon="-3.727600">
        <ele>2140.0</ele>
        <time>2016-07-25T15:44:06Z</time>
      </trkpt>
      <trkpt lat="41.072200" lon="-3.727633">
        <ele>2141.0</ele>
        <time>2016-07-25T15:44:07Z</time>
      </trkpt>
      <trkpt lat="41.072233" lon="-3.727683">
        <ele>2142.0</ele>
        <time>2016-07-25T15:44:08Z</time>
      </trkpt>
      <trkpt lat="41.072283" lon="-3.727733">
        <ele>2142.0</ele>
        <time>2016-07-25T15:44:09Z</time>
      </trkpt>
      <trkpt lat="41.072317" lon="-3.727800">
        <ele>2142.0</ele>
        <time>2016-07-25T15:44:10Z</time>
      </trkpt>
      <trkpt lat="41.072333" lon="-3.727883">
        <ele>2141.0</ele>
        <time>2016-07-25T15:44:11Z</time>
      </trkpt>
      <trkpt lat="41.072350" lon="-3.727983">
        <ele>2140.0</ele>
        <time>2016-07-25T15:44:12Z</time>
      </trkpt>
      <trkpt lat="41.072333" lon="-3.728100">
        <ele>2140.0</ele>
        <time>2016-07-25T15:44:13Z</time>
      </trkpt>
      <trkpt lat="41.072300" lon="-3.728183">
        <ele>2139.0</ele>
        <time>2016-07-25T15:44:14Z</time>
      </trkpt>
      <trkpt lat="41.072250" lon="-3.728283">
        <ele>2138.0</ele>
        <time>2016-07-25T15:44:15Z</time>
      </trkpt>
      <trkpt lat="41.072167" lon="-3.728367">
        <ele>2137.0</ele>
        <time>2016-07-25T15:44:16Z</time>
      </trkpt>
      <trkpt lat="41.072100" lon="-3.728433">
        <ele>2138.0</ele>
        <time>2016-07-25T15:44:17Z</time>
      </trkpt>
      <trkpt lat="41.072017" lon="-3.728500">
        <ele>2138.0</ele>
        <time>2016-07-25T15:44:18Z</time>
      </trkpt>
      <trkpt lat="41.071950" lon="-3.728567">
        <ele>2138.0</ele>
        <time>2016-07-25T15:44:19Z</time>
      </trkpt>
      <trkpt lat="41.071883" lon="-3.728633">
        <ele>2136.0</ele>
        <time>2016-07-25T15:44:20Z</time>
      </trkpt>
      <trkpt lat="41.071800" lon="-3.728717">
        <ele>2135.0</ele>
        <time>2016-07-25T15:44:21Z</time>
      </trkpt>
      <trkpt lat="41.071717" lon="-3.728800">
        <ele>2135.0</ele>
        <time>2016-07-25T15:44:22Z</time>
      </trkpt>
      <trkpt lat="41.071633" lon="-3.728867">
        <ele>2137.0</ele>
        <time>2016-07-25T15:44:23Z</time>
      </trkpt>
      <trkpt lat="41.071567" lon="-3.728933">
        <ele>2139.0</ele>
        <time>2016-07-25T15:44:24Z</time>
      </trkpt>
      <trkpt lat="41.071500" lon="-3.729000">
        <ele>2141.0</ele>
        <time>2016-07-25T15:44:25Z</time>
      </trkpt>
      <trkpt lat="41.071433" lon="-3.729083">
        <ele>2141.0</ele>
        <time>2016-07-25T15:44:26Z</time>
      </trkpt>
      <trkpt lat="41.071367" lon="-3.729167">
        <ele>2141.0</ele>
        <time>2016-07-25T15:44:27Z</time>
      </trkpt>
      <trkpt lat="41.071283" lon="-3.729233">
        <ele>2141.0</ele>
        <time>2016-07-25T15:44:28Z</time>
      </trkpt>
      <trkpt lat="41.071217" lon="-3.729283">
        <ele>2140.0</ele>
        <time>2016-07-25T15:44:29Z</time>
      </trkpt>
      <trkpt lat="41.071133" lon="-3.729333">
        <ele>2139.0</ele>
        <time>2016-07-25T15:44:30Z</time>
      </trkpt>
      <trkpt lat="41.071050" lon="-3.729383">
        <ele>2139.0</ele>
        <time>2016-07-25T15:44:31Z</time>
      </trkpt>
      <trkpt lat="41.070950" lon="-3.729450">
        <ele>2140.0</ele>
        <time>2016-07-25T15:44:32Z</time>
      </trkpt>
      <trkpt lat="41.070867" lon="-3.729517">
        <ele>2141.0</ele>
        <time>2016-07-25T15:44:33Z</time>
      </trkpt>
      <trkpt lat="41.070767" lon="-3.729567">
        <ele>2143.0</ele>
        <time>2016-07-25T15:44:34Z</time>
      </trkpt>
      <trkpt lat="41.070683" lon="-3.729617">
        <ele>2144.0</ele>
        <time>2016-07-25T15:44:35Z</time>
      </trkpt>
      <trkpt lat="41.070583" lon="-3.729667">
        <ele>2145.0</ele>
        <time>2016-07-25T15:44:36Z</time>
      </trkpt>
      <trkpt lat="41.070500" lon="-3.729733">
        <ele>2146.0</ele>
        <time>2016-07-25T15:44:37Z</time>
      </trkpt>
      <trkpt lat="41.070400" lon="-3.729783">
        <ele>2147.0</ele>
        <time>2016-07-25T15:44:38Z</time>
      </trkpt>
      <trkpt lat="41.070317" lon="-3.729850">
        <ele>2148.0</ele>
        <time>2016-07-25T15:44:39Z</time>
      </trkpt>
      <trkpt lat="41.070233" lon="-3.729900">
        <ele>2147.0</ele>
        <time>2016-07-25T15:44:40Z</time>
      </trkpt>
      <trkpt lat="41.070133" lon="-3.729950">
        <ele>2147.0</ele>
        <time>2016-07-25T15:44:41Z</time>
      </trkpt>
      <trkpt lat="41.070050" lon="-3.730000">
        <ele>2147.0</ele>
        <time>2016-07-25T15:44:42Z</time>
      </trkpt>
      <trkpt lat="41.069950" lon="-3.730033">
        <ele>2146.0</ele>
        <time>2016-07-25T15:44:43Z</time>
      </trkpt>
      <trkpt lat="41.069867" lon="-3.730083">
        <ele>2145.0</ele>
        <time>2016-07-25T15:44:44Z</time>
      </trkpt>
      <trkpt lat="41.069783" lon="-3.730117">
        <ele>2144.0</ele>
        <time>2016-07-25T15:44:45Z</time>
      </trkpt>
      <trkpt lat="41.069700" lon="-3.730150">
        <ele>2142.0</ele>
        <time>2016-07-25T15:44:46Z</time>
      </trkpt>
      <trkpt lat="41.069617" lon="-3.730183">
        <ele>2140.0</ele>
        <time>2016-07-25T15:44:47Z</time>
      </trkpt>
      <trkpt lat="41.069517" lon="-3.730200">
        <ele>2139.0</ele>
        <time>2016-07-25T15:44:48Z</time>
      </trkpt>
      <trkpt lat="41.069417" lon="-3.730183">
        <ele>2137.0</ele>
        <time>2016-07-25T15:44:49Z</time>
      </trkpt>
      <trkpt lat="41.069300" lon="-3.730133">
        <ele>2136.0</ele>
        <time>2016-07-25T15:44:50Z</time>
      </trkpt>
      <trkpt lat="41.069217" lon="-3.730033">
        <ele>2134.0</ele>
        <time>2016-07-25T15:44:51Z</time>
      </trkpt>
      <trkpt lat="41.069150" lon="-3.729900">
        <ele>2132.0</ele>
        <time>2016-07-25T15:44:52Z</time>
      </trkpt>
      <trkpt lat="41.069117" lon="-3.729750">
        <ele>2130.0</ele>
        <time>2016-07-25T15:44:53Z</time>
      </trkpt>
      <trkpt lat="41.069117" lon="-3.729617">
        <ele>2128.0</ele>
        <time>2016-07-25T15:44:54Z</time>
      </trkpt>
      <trkpt lat="41.069117" lon="-3.729467">
        <ele>2126.0</ele>
        <time>2016-07-25T15:44:55Z</time>
      </trkpt>
      <trkpt lat="41.069133" lon="-3.729333">
        <ele>2124.0</ele>
        <time>2016-07-25T15:44:56Z</time>
      </trkpt>
      <trkpt lat="41.069167" lon="-3.729200">
        <ele>2122.0</ele>
        <time>2016-07-25T15:44:57Z</time>
      </trkpt>
      <trkpt lat="41.069200" lon="-3.729050">
        <ele>2120.0</ele>
        <time>2016-07-25T15:44:58Z</time>
      </trkpt>
      <trkpt lat="41.069250" lon="-3.728933">
        <ele>2119.0</ele>
        <time>2016-07-25T15:44:59Z</time>
      </trkpt>
      <trkpt lat="41.069300" lon="-3.728800">
        <ele>2118.0</ele>
        <time>2016-07-25T15:45:00Z</time>
      </trkpt>
      <trkpt lat="41.069333" lon="-3.728700">
        <ele>2118.0</ele>
        <time>2016-07-25T15:45:01Z</time>
      </trkpt>
      <trkpt lat="41.069367" lon="-3.728617">
        <ele>2118.0</ele>
        <time>2016-07-25T15:45:02Z</time>
      </trkpt>
      <trkpt lat="41.069417" lon="-3.728533">
        <ele>2118.0</ele>
        <time>2016-07-25T15:45:03Z</time>
      </trkpt>
      <trkpt lat="41.069467" lon="-3.728450">
        <ele>2119.0</ele>
        <time>2016-07-25T15:45:04Z</time>
      </trkpt>
      <trkpt lat="41.069517" lon="-3.728383">
        <ele>2121.0</ele>
        <time>2016-07-25T15:45:05Z</time>
      </trkpt>
      <trkpt lat="41.069567" lon="-3.728333">
        <ele>2122.0</ele>
        <time>2016-07-25T15:45:06Z</time>
      </trkpt>
      <trkpt lat="41.069633" lon="-3.728283">
        <ele>2123.0</ele>
        <time>2016-07-25T15:45:07Z</time>
      </trkpt>
      <trkpt lat="41.069683" lon="-3.728233">
        <ele>2124.0</ele>
        <time>2016-07-25T15:45:08Z</time>
      </trkpt>
      <trkpt lat="41.069733" lon="-3.728183">
        <ele>2125.0</ele>
        <time>2016-07-25T15:45:09Z</time>
      </trkpt>
      <trkpt lat="41.069800" lon="-3.728117">
        <ele>2125.0</ele>
        <time>2016-07-25T15:45:10Z</time>
      </trkpt>
      <trkpt lat="41.069850" lon="-3.728050">
        <ele>2126.0</ele>
        <time>2016-07-25T15:45:11Z</time>
      </trkpt>
      <trkpt lat="41.069917" lon="-3.728000">
        <ele>2127.0</ele>
        <time>2016-07-25T15:45:12Z</time>
      </trkpt>
      <trkpt lat="41.069967" lon="-3.727950">
        <ele>2127.0</ele>
        <time>2016-07-25T15:45:13Z</time>
      </trkpt>
      <trkpt lat="41.070033" lon="-3.727933">
        <ele>2128.0</ele>
        <time>2016-07-25T15:45:14Z</time>
      </trkpt>
      <trkpt lat="41.070100" lon="-3.727883">
        <ele>2128.0</ele>
        <time>2016-07-25T15:45:15Z</time>
      </trkpt>
      <trkpt lat="41.070150" lon="-3.727850">
        <ele>2129.0</ele>
        <time>2016-07-25T15:45:16Z</time>
      </trkpt>
      <trkpt lat="41.070217" lon="-3.727783">
        <ele>2130.0</ele>
        <time>2016-07-25T15:45:17Z</time>
      </trkpt>
      <trkpt lat="41.070267" lon="-3.727733">
        <ele>2131.0</ele>
        <time>2016-07-25T15:45:18Z</time>
      </trkpt>
      <trkpt lat="41.070317" lon="-3.727683">
        <ele>2132.0</ele>
        <time>2016-07-25T15:45:19Z</time>
      </trkpt>
      <trkpt lat="41.070383" lon="-3.727633">
        <ele>2133.0</ele>
        <time>2016-07-25T15:45:20Z</time>
      </trkpt>
      <trkpt lat="41.070450" lon="-3.727600">
        <ele>2134.0</ele>
        <time>2016-07-25T15:45:21Z</time>
      </trkpt>
      <trkpt lat="41.070500" lon="-3.727550">
        <ele>2135.0</ele>
        <time>2016-07-25T15:45:22Z</time>
      </trkpt>
      <trkpt lat="41.070567" lon="-3.727500">
        <ele>2137.0</ele>
        <time>2016-07-25T15:45:23Z</time>
      </trkpt>
      <trkpt lat="41.070617" lon="-3.727467">
        <ele>2138.0</ele>
        <time>2016-07-25T15:45:24Z</time>
      </trkpt>
      <trkpt lat="41.070667" lon="-3.727450">
        <ele>2138.0</ele>
        <time>2016-07-25T15:45:25Z</time>
      </trkpt>
      <trkpt lat="41.070717" lon="-3.727417">
        <ele>2138.0</ele>
        <time>2016-07-25T15:45:26Z</time>
      </trkpt>
      <trkpt lat="41.070783" lon="-3.727383">
        <ele>2138.0</ele>
        <time>2016-07-25T15:45:27Z</time>
      </trkpt>
      <trkpt lat="41.070867" lon="-3.727333">
        <ele>2137.0</ele>
        <time>2016-07-25T15:45:28Z</time>
      </trkpt>
      <trkpt lat="41.070933" lon="-3.727283">
        <ele>2137.0</ele>
        <time>2016-07-25T15:45:29Z</time>
      </trkpt>
      <trkpt lat="41.071000" lon="-3.727233">
        <ele>2137.0</ele>
        <time>2016-07-25T15:45:30Z</time>
      </trkpt>
      <trkpt lat="41.071050" lon="-3.727183">
        <ele>2138.0</ele>
        <time>2016-07-25T15:45:31Z</time>
      </trkpt>
      <trkpt lat="41.071117" lon="-3.727150">
        <ele>2137.0</ele>
        <time>2016-07-25T15:45:32Z</time>
      </trkpt>
      <trkpt lat="41.071167" lon="-3.727117">
        <ele>2136.0</ele>
        <time>2016-07-25T15:45:33Z</time>
      </trkpt>
      <trkpt lat="41.071233" lon="-3.727083">
        <ele>2134.0</ele>
        <time>2016-07-25T15:45:34Z</time>
      </trkpt>
      <trkpt lat="41.071300" lon="-3.727050">
        <ele>2132.0</ele>
        <time>2016-07-25T15:45:35Z</time>
      </trkpt>
      <trkpt lat="41.071350" lon="-3.727000">
        <ele>2130.0</ele>
        <time>2016-07-25T15:45:36Z</time>
      </trkpt>
      <trkpt lat="41.071417" lon="-3.726950">
        <ele>2127.0</ele>
        <time>2016-07-25T15:45:37Z</time>
      </trkpt>
      <trkpt lat="41.071483" lon="-3.726933">
        <ele>2124.0</ele>
        <time>2016-07-25T15:45:38Z</time>
      </trkpt>
      <trkpt lat="41.071567" lon="-3.726917">
        <ele>2121.0</ele>
        <time>2016-07-25T15:45:39Z</time>
      </trkpt>
      <trkpt lat="41.071633" lon="-3.726900">
        <ele>2120.0</ele>
        <time>2016-07-25T15:45:40Z</time>
      </trkpt>
      <trkpt lat="41.071700" lon="-3.726883">
        <ele>2119.0</ele>
        <time>2016-07-25T15:45:41Z</time>
      </trkpt>
      <trkpt lat="41.071750" lon="-3.726867">
        <ele>2118.0</ele>
        <time>2016-07-25T15:45:42Z</time>
      </trkpt>
      <trkpt lat="41.071800" lon="-3.726833">
        <ele>2116.0</ele>
        <time>2016-07-25T15:45:43Z</time>
      </trkpt>
      <trkpt lat="41.071867" lon="-3.726800">
        <ele>2115.0</ele>
        <time>2016-07-25T15:45:44Z</time>
      </trkpt>
      <trkpt lat="41.071917" lon="-3.726750">
        <ele>2114.0</ele>
        <time>2016-07-25T15:45:45Z</time>
      </trkpt>
      <trkpt lat="41.071967" lon="-3.726717">
        <ele>2114.0</ele>
        <time>2016-07-25T15:45:46Z</time>
      </trkpt>
      <trkpt lat="41.072000" lon="-3.726683">
        <ele>2114.0</ele>
        <time>2016-07-25T15:45:47Z</time>
      </trkpt>
      <trkpt lat="41.072033" lon="-3.726650">
        <ele>2112.0</ele>
        <time>2016-07-25T15:45:48Z</time>
      </trkpt>
      <trkpt lat="41.072067" lon="-3.726617">
        <ele>2109.0</ele>
        <time>2016-07-25T15:45:49Z</time>
      </trkpt>
      <trkpt lat="41.072133" lon="-3.726583">
        <ele>2105.0</ele>
        <time>2016-07-25T15:45:50Z</time>
      </trkpt>
      <trkpt lat="41.072200" lon="-3.726567">
        <ele>2102.0</ele>
        <time>2016-07-25T15:45:51Z</time>
      </trkpt>
      <trkpt lat="41.072267" lon="-3.726550">
        <ele>2101.0</ele>
        <time>2016-07-25T15:45:52Z</time>
      </trkpt>
      <trkpt lat="41.072333" lon="-3.726550">
        <ele>2101.0</ele>
        <time>2016-07-25T15:45:53Z</time>
      </trkpt>
      <trkpt lat="41.072383" lon="-3.726550">
        <ele>2100.0</ele>
        <time>2016-07-25T15:45:54Z</time>
      </trkpt>
      <trkpt lat="41.072417" lon="-3.726550">
        <ele>2100.0</ele>
        <time>2016-07-25T15:45:55Z</time>
      </trkpt>
      <trkpt lat="41.072450" lon="-3.726550">
        <ele>2098.0</ele>
        <time>2016-07-25T15:45:56Z</time>
      </trkpt>
      <trkpt lat="41.072500" lon="-3.726550">
        <ele>2094.0</ele>
        <time>2016-07-25T15:45:57Z</time>
      </trkpt>
      <trkpt lat="41.072583" lon="-3.726533">
        <ele>2090.0</ele>
        <time>2016-07-25T15:45:58Z</time>
      </trkpt>
      <trkpt lat="41.072650" lon="-3.726550">
        <ele>2086.0</ele>
        <time>2016-07-25T15:45:59Z</time>
      </trkpt>
      <trkpt lat="41.072733" lon="-3.726550">
        <ele>2085.0</ele>
        <time>2016-07-25T15:46:00Z</time>
      </trkpt>
      <trkpt lat="41.072800" lon="-3.726550">
        <ele>2087.0</ele>
        <time>2016-07-25T15:46:01Z</time>
      </trkpt>
      <trkpt lat="41.072833" lon="-3.726550">
        <ele>2088.0</ele>
        <time>2016-07-25T15:46:02Z</time>
      </trkpt>
      <trkpt lat="41.072867" lon="-3.726517">
        <ele>2088.0</ele>
        <time>2016-07-25T15:46:03Z</time>
      </trkpt>
      <trkpt lat="41.072900" lon="-3.726500">
        <ele>2086.0</ele>
        <time>2016-07-25T15:46:04Z</time>
      </trkpt>
      <trkpt lat="41.072933" lon="-3.726500">
        <ele>2082.0</ele>
        <time>2016-07-25T15:46:05Z</time>
      </trkpt>
      <trkpt lat="41.073017" lon="-3.726517">
        <ele>2079.0</ele>
        <time>2016-07-25T15:46:06Z</time>
      </trkpt>
      <trkpt lat="41.073083" lon="-3.726533">
        <ele>2078.0</ele>
        <time>2016-07-25T15:46:07Z</time>
      </trkpt>
      <trkpt lat="41.073150" lon="-3.726550">
        <ele>2078.0</ele>
        <time>2016-07-25T15:46:08Z</time>
      </trkpt>
      <trkpt lat="41.073217" lon="-3.726550">
        <ele>2079.0</ele>
        <time>2016-07-25T15:46:09Z</time>
      </trkpt>
      <trkpt lat="41.073267" lon="-3.726567">
        <ele>2080.0</ele>
        <time>2016-07-25T15:46:10Z</time>
      </trkpt>
      <trkpt lat="41.073333" lon="-3.726583">
        <ele>2079.0</ele>
        <time>2016-07-25T15:46:11Z</time>
      </trkpt>
      <trkpt lat="41.073383" lon="-3.726600">
        <ele>2078.0</ele>
        <time>2016-07-25T15:46:12Z</time>
      </trkpt>
      <trkpt lat="41.073450" lon="-3.726633">
        <ele>2077.0</ele>
        <time>2016-07-25T15:46:13Z</time>
      </trkpt>
      <trkpt lat="41.073517" lon="-3.726683">
        <ele>2077.0</ele>
        <time>2016-07-25T15:46:14Z</time>
      </trkpt>
      <trkpt lat="41.073567" lon="-3.726733">
        <ele>2078.0</ele>
        <time>2016-07-25T15:46:15Z</time>
      </trkpt>
      <trkpt lat="41.073617" lon="-3.726750">
        <ele>2079.0</ele>
        <time>2016-07-25T15:46:16Z</time>
      </trkpt>
      <trkpt lat="41.073667" lon="-3.726750">
        <ele>2078.0</ele>
        <time>2016-07-25T15:46:17Z</time>
      </trkpt>
      <trkpt lat="41.073733" lon="-3.726767">
        <ele>2078.0</ele>
        <time>2016-07-25T15:46:18Z</time>
      </trkpt>
      <trkpt lat="41.073800" lon="-3.726767">
        <ele>2080.0</ele>
        <time>2016-07-25T15:46:19Z</time>
      </trkpt>
      <trkpt lat="41.073850" lon="-3.726783">
        <ele>2083.0</ele>
        <time>2016-07-25T15:46:20Z</time>
      </trkpt>
      <trkpt lat="41.073867" lon="-3.726783">
        <ele>2084.0</ele>
        <time>2016-07-25T15:46:21Z</time>
      </trkpt>
      <trkpt lat="41.073900" lon="-3.726783">
        <ele>2084.0</ele>
        <time>2016-07-25T15:46:22Z</time>
      </trkpt>
      <trkpt lat="41.073950" lon="-3.726783">
        <ele>2082.0</ele>
        <time>2016-07-25T15:46:23Z</time>
      </trkpt>
      <trkpt lat="41.074017" lon="-3.726783">
        <ele>2081.0</ele>
        <time>2016-07-25T15:46:24Z</time>
      </trkpt>
      <trkpt lat="41.074083" lon="-3.726817">
        <ele>2081.0</ele>
        <time>2016-07-25T15:46:25Z</time>
      </trkpt>
      <trkpt lat="41.074133" lon="-3.726850">
        <ele>2082.0</ele>
        <time>2016-07-25T15:46:26Z</time>
      </trkpt>
      <trkpt lat="41.074183" lon="-3.726883">
        <ele>2084.0</ele>
        <time>2016-07-25T15:46:27Z</time>
      </trkpt>
      <trkpt lat="41.074200" lon="-3.726900">
        <ele>2086.0</ele>
        <time>2016-07-25T15:46:28Z</time>
      </trkpt>
      <trkpt lat="41.074233" lon="-3.726917">
        <ele>2085.0</ele>
        <time>2016-07-25T15:46:29Z</time>
      </trkpt>
      <trkpt lat="41.074283" lon="-3.726917">
        <ele>2084.0</ele>
        <time>2016-07-25T15:46:30Z</time>
      </trkpt>
      <trkpt lat="41.074350" lon="-3.726933">
        <ele>2083.0</ele>
        <time>2016-07-25T15:46:31Z</time>
      </trkpt>
      <trkpt lat="41.074400" lon="-3.726950">
        <ele>2085.0</ele>
        <time>2016-07-25T15:46:32Z</time>
      </trkpt>
      <trkpt lat="41.074433" lon="-3.726967">
        <ele>2087.0</ele>
        <time>2016-07-25T15:46:33Z</time>
      </trkpt>
      <trkpt lat="41.074450" lon="-3.727000">
        <ele>2090.0</ele>
        <time>2016-07-25T15:46:34Z</time>
      </trkpt>
      <trkpt lat="41.074467" lon="-3.727017">
        <ele>2091.0</ele>
        <time>2016-07-25T15:46:35Z</time>
      </trkpt>
      <trkpt lat="41.074500" lon="-3.727017">
        <ele>2092.0</ele>
        <time>2016-07-25T15:46:36Z</time>
      </trkpt>
      <trkpt lat="41.074533" lon="-3.727000">
        <ele>2091.0</ele>
        <time>2016-07-25T15:46:37Z</time>
      </trkpt>
      <trkpt lat="41.074567" lon="-3.726983">
        <ele>2091.0</ele>
        <time>2016-07-25T15:46:38Z</time>
      </trkpt>
      <trkpt lat="41.074600" lon="-3.726983">
        <ele>2092.0</ele>
        <time>2016-07-25T15:46:39Z</time>
      </trkpt>
      <trkpt lat="41.074633" lon="-3.726983">
        <ele>2092.0</ele>
        <time>2016-07-25T15:46:40Z</time>
      </trkpt>
      <trkpt lat="41.074650" lon="-3.727000">
        <ele>2092.0</ele>
        <time>2016-07-25T15:46:41Z</time>
      </trkpt>
      <trkpt lat="41.074667" lon="-3.727017">
        <ele>2091.0</ele>
        <time>2016-07-25T15:46:42Z</time>
      </trkpt>
      <trkpt lat="41.074700" lon="-3.727033">
        <ele>2091.0</ele>
        <time>2016-07-25T15:46:43Z</time>
      </trkpt>
      <trkpt lat="41.074733" lon="-3.727067">
        <ele>2091.0</ele>
        <time>2016-07-25T15:46:44Z</time>
      </trkpt>
      <trkpt lat="41.074767" lon="-3.727117">
        <ele>2092.0</ele>
        <time>2016-07-25T15:46:45Z</time>
      </trkpt>
      <trkpt lat="41.074783" lon="-3.727167">
        <ele>2093.0</ele>
        <time>2016-07-25T15:46:46Z</time>
      </trkpt>
      <trkpt lat="41.074817" lon="-3.727200">
        <ele>2093.0</ele>
        <time>2016-07-25T15:46:47Z</time>
      </trkpt>
      <trkpt lat="41.074867" lon="-3.727233">
        <ele>2093.0</ele>
        <time>2016-07-25T15:46:48Z</time>
      </trkpt>
      <trkpt lat="41.074933" lon="-3.727267">
        <ele>2094.0</ele>
        <time>2016-07-25T15:46:49Z</time>
      </trkpt>
      <trkpt lat="41.074983" lon="-3.727317">
        <ele>2096.0</ele>
        <time>2016-07-25T15:46:50Z</time>
      </trkpt>
      <trkpt lat="41.075033" lon="-3.727367">
        <ele>2099.0</ele>
        <time>2016-07-25T15:46:51Z</time>
      </trkpt>
      <trkpt lat="41.075067" lon="-3.727417">
        <ele>2103.0</ele>
        <time>2016-07-25T15:46:52Z</time>
      </trkpt>
      <trkpt lat="41.075100" lon="-3.727450">
        <ele>2106.0</ele>
        <time>2016-07-25T15:46:53Z</time>
      </trkpt>
      <trkpt lat="41.075133" lon="-3.727500">
        <ele>2109.0</ele>
        <time>2016-07-25T15:46:54Z</time>
      </trkpt>
      <trkpt lat="41.075183" lon="-3.727550">
        <ele>2110.0</ele>
        <time>2016-07-25T15:46:55Z</time>
      </trkpt>
      <trkpt lat="41.075233" lon="-3.727600">
        <ele>2111.0</ele>
        <time>2016-07-25T15:46:56Z</time>
      </trkpt>
      <trkpt lat="41.075283" lon="-3.727633">
        <ele>2114.0</ele>
        <time>2016-07-25T15:46:57Z</time>
      </trkpt>
      <trkpt lat="41.075333" lon="-3.727683">
        <ele>2118.0</ele>
        <time>2016-07-25T15:46:58Z</time>
      </trkpt>
      <trkpt lat="41.075367" lon="-3.727717">
        <ele>2123.0</ele>
        <time>2016-07-25T15:46:59Z</time>
      </trkpt>
      <trkpt lat="41.075400" lon="-3.727733">
        <ele>2127.0</ele>
        <time>2016-07-25T15:47:00Z</time>
      </trkpt>
      <trkpt lat="41.075433" lon="-3.727767">
        <ele>2130.0</ele>
        <time>2016-07-25T15:47:01Z</time>
      </trkpt>
      <trkpt lat="41.075467" lon="-3.727783">
        <ele>2133.0</ele>
        <time>2016-07-25T15:47:02Z</time>
      </trkpt>
      <trkpt lat="41.075517" lon="-3.727800">
        <ele>2135.0</ele>
        <time>2016-07-25T15:47:03Z</time>
      </trkpt>
      <trkpt lat="41.075550" lon="-3.727800">
        <ele>2138.0</ele>
        <time>2016-07-25T15:47:04Z</time>
      </trkpt>
      <trkpt lat="41.075600" lon="-3.727767">
        <ele>2141.0</ele>
        <time>2016-07-25T15:47:05Z</time>
      </trkpt>
      <trkpt lat="41.075633" lon="-3.727717">
        <ele>2143.0</ele>
        <time>2016-07-25T15:47:06Z</time>
      </trkpt>
      <trkpt lat="41.075667" lon="-3.727633">
        <ele>2145.0</ele>
        <time>2016-07-25T15:47:07Z</time>
      </trkpt>
      <trkpt lat="41.075683" lon="-3.727517">
        <ele>2148.0</ele>
        <time>2016-07-25T15:47:08Z</time>
      </trkpt>
      <trkpt lat="41.075683" lon="-3.727383">
        <ele>2151.0</ele>
        <time>2016-07-25T15:47:09Z</time>
      </trkpt>
      <trkpt lat="41.075617" lon="-3.727250">
        <ele>2153.0</ele>
        <time>2016-07-25T15:47:10Z</time>
      </trkpt>
      <trkpt lat="41.075533" lon="-3.727133">
        <ele>2156.0</ele>
        <time>2016-07-25T15:47:11Z</time>
      </trkpt>
      <trkpt lat="41.075417" lon="-3.727067">
        <ele>2159.0</ele>
        <time>2016-07-25T15:47:12Z</time>
      </trkpt>
      <trkpt lat="41.075283" lon="-3.727067">
        <ele>2162.0</ele>
        <time>2016-07-25T15:47:13Z</time>
      </trkpt>
      <trkpt lat="41.075183" lon="-3.727117">
        <ele>2165.0</ele>
        <time>2016-07-25T15:47:14Z</time>
      </trkpt>
      <trkpt lat="41.075083" lon="-3.727200">
        <ele>2168.0</ele>
        <time>2016-07-25T15:47:15Z</time>
      </trkpt>
      <trkpt lat="41.075033" lon="-3.727283">
        <ele>2172.0</ele>
        <time>2016-07-25T15:47:16Z</time>
      </trkpt>
      <trkpt lat="41.075000" lon="-3.727383">
        <ele>2175.0</ele>
        <time>2016-07-25T15:47:17Z</time>
      </trkpt>
      <trkpt lat="41.074983" lon="-3.727467">
        <ele>2177.0</ele>
        <time>2016-07-25T15:47:18Z</time>
      </trkpt>
      <trkpt lat="41.074983" lon="-3.727550">
        <ele>2180.0</ele>
        <time>2016-07-25T15:47:19Z</time>
      </trkpt>
      <trkpt lat="41.075017" lon="-3.727617">
        <ele>2183.0</ele>
        <time>2016-07-25T15:47:20Z</time>
      </trkpt>
      <trkpt lat="41.075050" lon="-3.727667">
        <ele>2186.0</ele>
        <time>2016-07-25T15:47:21Z</time>
      </trkpt>
      <trkpt lat="41.075083" lon="-3.727717">
        <ele>2189.0</ele>
        <time>2016-07-25T15:47:22Z</time>
      </trkpt>
      <trkpt lat="41.075133" lon="-3.727717">
        <ele>2193.0</ele>
        <time>2016-07-25T15:47:23Z</time>
      </trkpt>
      <trkpt lat="41.075183" lon="-3.727700">
        <ele>2196.0</ele>
        <time>2016-07-25T15:47:24Z</time>
      </trkpt>
      <trkpt lat="41.075233" lon="-3.727667">
        <ele>2200.0</ele>
        <time>2016-07-25T15:47:25Z</time>
      </trkpt>
      <trkpt lat="41.075267" lon="-3.727617">
        <ele>2203.0</ele>
        <time>2016-07-25T15:47:26Z</time>
      </trkpt>
      <trkpt lat="41.075283" lon="-3.727533">
        <ele>2206.0</ele>
        <time>2016-07-25T15:47:27Z</time>
      </trkpt>
      <trkpt lat="41.075300" lon="-3.727400">
        <ele>2207.0</ele>
        <time>2016-07-25T15:47:28Z</time>
      </trkpt>
      <trkpt lat="41.075283" lon="-3.727250">
        <ele>2208.0</ele>
        <time>2016-07-25T15:47:29Z</time>
      </trkpt>
      <trkpt lat="41.075217" lon="-3.727100">
        <ele>2210.0</ele>
        <time>2016-07-25T15:47:30Z</time>
      </trkpt>
      <trkpt lat="41.075117" lon="-3.726983">
        <ele>2214.0</ele>
        <time>2016-07-25T15:47:31Z</time>
      </trkpt>
      <trkpt lat="41.075000" lon="-3.726900">
        <ele>2217.0</ele>
        <time>2016-07-25T15:47:32Z</time>
      </trkpt>
      <trkpt lat="41.074883" lon="-3.726883">
        <ele>2221.0</ele>
        <time>2016-07-25T15:47:33Z</time>
      </trkpt>
      <trkpt lat="41.074767" lon="-3.726883">
        <ele>2223.0</ele>
        <time>2016-07-25T15:47:34Z</time>
      </trkpt>
      <trkpt lat="41.074667" lon="-3.726917">
        <ele>2226.0</ele>
        <time>2016-07-25T15:47:35Z</time>
      </trkpt>
      <trkpt lat="41.074583" lon="-3.726983">
        <ele>2228.0</ele>
        <time>2016-07-25T15:47:36Z</time>
      </trkpt>
      <trkpt lat="41.074500" lon="-3.727067">
        <ele>2231.0</ele>
        <time>2016-07-25T15:47:37Z</time>
      </trkpt>
      <trkpt lat="41.074450" lon="-3.727150">
        <ele>2234.0</ele>
        <time>2016-07-25T15:47:38Z</time>
      </trkpt>
      <trkpt lat="41.074400" lon="-3.727233">
        <ele>2238.0</ele>
        <time>2016-07-25T15:47:39Z</time>
      </trkpt>
      <trkpt lat="41.074383" lon="-3.727300">
        <ele>2241.0</ele>
        <time>2016-07-25T15:47:40Z</time>
      </trkpt>
      <trkpt lat="41.074350" lon="-3.727383">
        <ele>2243.0</ele>
        <time>2016-07-25T15:47:41Z</time>
      </trkpt>
      <trkpt lat="41.074350" lon="-3.727467">
        <ele>2245.0</ele>
        <time>2016-07-25T15:47:42Z</time>
      </trkpt>
      <trkpt lat="41.074333" lon="-3.727533">
        <ele>2247.0</ele>
        <time>2016-07-25T15:47:43Z</time>
      </trkpt>
      <trkpt lat="41.074350" lon="-3.727583">
        <ele>2249.0</ele>
        <time>2016-07-25T15:47:44Z</time>
      </trkpt>
      <trkpt lat="41.074383" lon="-3.727617">
        <ele>2251.0</ele>
        <time>2016-07-25T15:47:45Z</time>
      </trkpt>
      <trkpt lat="41.074417" lon="-3.727633">
        <ele>2252.0</ele>
        <time>2016-07-25T15:47:46Z</time>
      </trkpt>
      <trkpt lat="41.074450" lon="-3.727633">
        <ele>2253.0</ele>
        <time>2016-07-25T15:47:47Z</time>
      </trkpt>
      <trkpt lat="41.074500" lon="-3.727633">
        <ele>2254.0</ele>
        <time>2016-07-25T15:47:48Z</time>
      </trkpt>
      <trkpt lat="41.074550" lon="-3.727583">
        <ele>2255.0</ele>
        <time>2016-07-25T15:47:49Z</time>
      </trkpt>
      <trkpt lat="41.074600" lon="-3.727517">
        <ele>2257.0</ele>
        <time>2016-07-25T15:47:50Z</time>
      </trkpt>
      <trkpt lat="41.074650" lon="-3.727417">
        <ele>2260.0</ele>
        <time>2016-07-25T15:47:51Z</time>
      </trkpt>
      <trkpt lat="41.074683" lon="-3.727317">
        <ele>2263.0</ele>
        <time>2016-07-25T15:47:52Z</time>
      </trkpt>
      <trkpt lat="41.074717" lon="-3.727217">
        <ele>2265.0</ele>
        <time>2016-07-25T15:47:53Z</time>
      </trkpt>
      <trkpt lat="41.074733" lon="-3.727117">
        <ele>2267.0</ele>
        <time>2016-07-25T15:47:54Z</time>
      </trkpt>
      <trkpt lat="41.074733" lon="-3.727000">
        <ele>2269.0</ele>
        <time>2016-07-25T15:47:55Z</time>
      </trkpt>
      <trkpt lat="41.074733" lon="-3.726867">
        <ele>2271.0</ele>
        <time>2016-07-25T15:47:56Z</time>
      </trkpt>
      <trkpt lat="41.074717" lon="-3.726717">
        <ele>2272.0</ele>
        <time>2016-07-25T15:47:57Z</time>
      </trkpt>
      <trkpt lat="41.074667" lon="-3.726550">
        <ele>2272.0</ele>
        <time>2016-07-25T15:47:58Z</time>
      </trkpt>
      <trkpt lat="41.074583" lon="-3.726400">
        <ele>2273.0</ele>
        <time>2016-07-25T15:47:59Z</time>
      </trkpt>
      <trkpt lat="41.074467" lon="-3.726267">
        <ele>2272.0</ele>
        <time>2016-07-25T15:48:00Z</time>
      </trkpt>
      <trkpt lat="41.074333" lon="-3.726200">
        <ele>2273.0</ele>
        <time>2016-07-25T15:48:01Z</time>
      </trkpt>
      <trkpt lat="41.074200" lon="-3.726200">
        <ele>2273.0</ele>
        <time>2016-07-25T15:48:02Z</time>
      </trkpt>
      <trkpt lat="41.074100" lon="-3.726217">
        <ele>2274.0</ele>
        <time>2016-07-25T15:48:03Z</time>
      </trkpt>
      <trkpt lat="41.074000" lon="-3.726267">
        <ele>2275.0</ele>
        <time>2016-07-25T15:48:04Z</time>
      </trkpt>
      <trkpt lat="41.073917" lon="-3.726333">
        <ele>2277.0</ele>
        <time>2016-07-25T15:48:05Z</time>
      </trkpt>
      <trkpt lat="41.073850" lon="-3.726383">
        <ele>2279.0</ele>
        <time>2016-07-25T15:48:06Z</time>
      </trkpt>
      <trkpt lat="41.073783" lon="-3.726450">
        <ele>2281.0</ele>
        <time>2016-07-25T15:48:07Z</time>
      </trkpt>
      <trkpt lat="41.073767" lon="-3.726517">
        <ele>2283.0</ele>
        <time>2016-07-25T15:48:08Z</time>
      </trkpt>
      <trkpt lat="41.073750" lon="-3.726583">
        <ele>2284.0</ele>
        <time>2016-07-25T15:48:09Z</time>
      </trkpt>
      <trkpt lat="41.073767" lon="-3.726633">
        <ele>2286.0</ele>
        <time>2016-07-25T15:48:10Z</time>
      </trkpt>
      <trkpt lat="41.073800" lon="-3.726667">
        <ele>2288.0</ele>
        <time>2016-07-25T15:48:11Z</time>
      </trkpt>
      <trkpt lat="41.073833" lon="-3.726700">
        <ele>2291.0</ele>
        <time>2016-07-25T15:48:12Z</time>
      </trkpt>
      <trkpt lat="41.073867" lon="-3.726700">
        <ele>2293.0</ele>
        <time>2016-07-25T15:48:13Z</time>
      </trkpt>
      <trkpt lat="41.073917" lon="-3.726683">
        <ele>2295.0</ele>
        <time>2016-07-25T15:48:14Z</time>
      </trkpt>
      <trkpt lat="41.073967" lon="-3.726650">
        <ele>2296.0</ele>
        <time>2016-07-25T15:48:15Z</time>
      </trkpt>
      <trkpt lat="41.074017" lon="-3.726600">
        <ele>2298.0</ele>
        <time>2016-07-25T15:48:16Z</time>
      </trkpt>
      <trkpt lat="41.074067" lon="-3.726533">
        <ele>2300.0</ele>
        <time>2016-07-25T15:48:17Z</time>
      </trkpt>
      <trkpt lat="41.074100" lon="-3.726450">
        <ele>2302.0</ele>
        <time>2016-07-25T15:48:18Z</time>
      </trkpt>
      <trkpt lat="41.074133" lon="-3.726333">
        <ele>2303.0</ele>
        <time>2016-07-25T15:48:19Z</time>
      </trkpt>
      <trkpt lat="41.074133" lon="-3.726200">
        <ele>2305.0</ele>
        <time>2016-07-25T15:48:20Z</time>
      </trkpt>
      <trkpt lat="41.074083" lon="-3.726033">
        <ele>2306.0</ele>
        <time>2016-07-25T15:48:21Z</time>
      </trkpt>
      <trkpt lat="41.073983" lon="-3.725900">
        <ele>2307.0</ele>
        <time>2016-07-25T15:48:22Z</time>
      </trkpt>
      <trkpt lat="41.073867" lon="-3.725800">
        <ele>2308.0</ele>
        <time>2016-07-25T15:48:23Z</time>
      </trkpt>
      <trkpt lat="41.073733" lon="-3.725750">
        <ele>2309.0</ele>
        <time>2016-07-25T15:48:24Z</time>
      </trkpt>
      <trkpt lat="41.073600" lon="-3.725750">
        <ele>2309.0</ele>
        <time>2016-07-25T15:48:25Z</time>
      </trkpt>
      <trkpt lat="41.073467" lon="-3.725800">
        <ele>2310.0</ele>
        <time>2016-07-25T15:48:26Z</time>
      </trkpt>
      <trkpt lat="41.073383" lon="-3.725867">
        <ele>2313.0</ele>
        <time>2016-07-25T15:48:27Z</time>
      </trkpt>
      <trkpt lat="41.073317" lon="-3.725933">
        <ele>2316.0</ele>
        <time>2016-07-25T15:48:28Z</time>
      </trkpt>
      <trkpt lat="41.073283" lon="-3.726000">
        <ele>2319.0</ele>
        <time>2016-07-25T15:48:29Z</time>
      </trkpt>
      <trkpt lat="41.073250" lon="-3.726033">
        <ele>2321.0</ele>
        <time>2016-07-25T15:48:30Z</time>
      </trkpt>
      <trkpt lat="41.073250" lon="-3.726083">
        <ele>2322.0</ele>
        <time>2016-07-25T15:48:31Z</time>
      </trkpt>
      <trkpt lat="41.073233" lon="-3.726133">
        <ele>2322.0</ele>
        <time>2016-07-25T15:48:32Z</time>
      </trkpt>
      <trkpt lat="41.073233" lon="-3.726183">
        <ele>2322.0</ele>
        <time>2016-07-25T15:48:33Z</time>
      </trkpt>
      <trkpt lat="41.073250" lon="-3.726233">
        <ele>2323.0</ele>
        <time>2016-07-25T15:48:34Z</time>
      </trkpt>
      <trkpt lat="41.073267" lon="-3.726283">
        <ele>2323.0</ele>
        <time>2016-07-25T15:48:35Z</time>
      </trkpt>
      <trkpt lat="41.073317" lon="-3.726317">
        <ele>2325.0</ele>
        <time>2016-07-25T15:48:36Z</time>
      </trkpt>
      <trkpt lat="41.073350" lon="-3.726350">
        <ele>2327.0</ele>
        <time>2016-07-25T15:48:37Z</time>
      </trkpt>
      <trkpt lat="41.073383" lon="-3.726350">
        <ele>2328.0</ele>
        <time>2016-07-25T15:48:38Z</time>
      </trkpt>
      <trkpt lat="41.073433" lon="-3.726367">
        <ele>2329.0</ele>
        <time>2016-07-25T15:48:39Z</time>
      </trkpt>
      <trkpt lat="41.073467" lon="-3.726367">
        <ele>2329.0</ele>
        <time>2016-07-25T15:48:40Z</time>
      </trkpt>
      <trkpt lat="41.073517" lon="-3.726350">
        <ele>2329.0</ele>
        <time>2016-07-25T15:48:41Z</time>
      </trkpt>
      <trkpt lat="41.073567" lon="-3.726333">
        <ele>2329.0</ele>
        <time>2016-07-25T15:48:42Z</time>
      </trkpt>
      <trkpt lat="41.073633" lon="-3.726283">
        <ele>2329.0</ele>
        <time>2016-07-25T15:48:43Z</time>
      </trkpt>
      <trkpt lat="41.073683" lon="-3.726233">
        <ele>2329.0</ele>
        <time>2016-07-25T15:48:44Z</time>
      </trkpt>
      <trkpt lat="41.073733" lon="-3.726150">
        <ele>2329.0</ele>
        <time>2016-07-25T15:48:45Z</time>
      </trkpt>
      <trkpt lat="41.073800" lon="-3.726067">
        <ele>2328.0</ele>
        <time>2016-07-25T15:48:46Z</time>
      </trkpt>
      <trkpt lat="41.073850" lon="-3.725983">
        <ele>2327.0</ele>
        <time>2016-07-25T15:48:47Z</time>
      </trkpt>
      <trkpt lat="41.073917" lon="-3.725900">
        <ele>2327.0</ele>
        <time>2016-07-25T15:48:48Z</time>
      </trkpt>
      <trkpt lat="41.073967" lon="-3.725817">
        <ele>2326.0</ele>
        <time>2016-07-25T15:48:49Z</time>
      </trkpt>
      <trkpt lat="41.074017" lon="-3.725733">
        <ele>2325.0</ele>
        <time>2016-07-25T15:48:50Z</time>
      </trkpt>
      <trkpt lat="41.074067" lon="-3.725650">
        <ele>2324.0</ele>
        <time>2016-07-25T15:48:51Z</time>
      </trkpt>
      <trkpt lat="41.074117" lon="-3.725567">
        <ele>2322.0</ele>
        <time>2016-07-25T15:48:52Z</time>
      </trkpt>
      <trkpt lat="41.074150" lon="-3.725450">
        <ele>2321.0</ele>
        <time>2016-07-25T15:48:53Z</time>
      </trkpt>
      <trkpt lat="41.074183" lon="-3.725317">
        <ele>2318.0</ele>
        <time>2016-07-25T15:48:54Z</time>
      </trkpt>
      <trkpt lat="41.074183" lon="-3.725150">
        <ele>2315.0</ele>
        <time>2016-07-25T15:48:55Z</time>
      </trkpt>
      <trkpt lat="41.074167" lon="-3.724967">
        <ele>2313.0</ele>
        <time>2016-07-25T15:48:56Z</time>
      </trkpt>
      <trkpt lat="41.074117" lon="-3.724800">
        <ele>2311.0</ele>
        <time>2016-07-25T15:48:57Z</time>
      </trkpt>
      <trkpt lat="41.074083" lon="-3.724633">
        <ele>2311.0</ele>
        <time>2016-07-25T15:48:58Z</time>
      </trkpt>
      <trkpt lat="41.074017" lon="-3.724483">
        <ele>2311.0</ele>
        <time>2016-07-25T15:48:59Z</time>
      </trkpt>
      <trkpt lat="41.073950" lon="-3.724333">
        <ele>2311.0</ele>
        <time>2016-07-25T15:49:00Z</time>
      </trkpt>
      <trkpt lat="41.073850" lon="-3.724183">
        <ele>2310.0</ele>
        <time>2016-07-25T15:49:01Z</time>
      </trkpt>
      <trkpt lat="41.073750" lon="-3.724067">
        <ele>2309.0</ele>
        <time>2016-07-25T15:49:02Z</time>
      </trkpt>
      <trkpt lat="41.073633" lon="-3.723950">
        <ele>2308.0</ele>
        <time>2016-07-25T15:49:03Z</time>
      </trkpt>
      <trkpt lat="41.073517" lon="-3.723867">
        <ele>2308.0</ele>
        <time>2016-07-25T15:49:04Z</time>
      </trkpt>
      <trkpt lat="41.073383" lon="-3.723817">
        <ele>2308.0</ele>
        <time>2016-07-25T15:49:05Z</time>
      </trkpt>
      <trkpt lat="41.073267" lon="-3.723783">
        <ele>2307.0</ele>
        <time>2016-07-25T15:49:06Z</time>
      </trkpt>
      <trkpt lat="41.073133" lon="-3.723783">
        <ele>2307.0</ele>
        <time>2016-07-25T15:49:07Z</time>
      </trkpt>
      <trkpt lat="41.073017" lon="-3.723800">
        <ele>2307.0</ele>
        <time>2016-07-25T15:49:08Z</time>
      </trkpt>
      <trkpt lat="41.072900" lon="-3.723833">
        <ele>2308.0</ele>
        <time>2016-07-25T15:49:09Z</time>
      </trkpt>
      <trkpt lat="41.072800" lon="-3.723867">
        <ele>2309.0</ele>
        <time>2016-07-25T15:49:10Z</time>
      </trkpt>
      <trkpt lat="41.072700" lon="-3.723917">
        <ele>2309.0</ele>
        <time>2016-07-25T15:49:11Z</time>
      </trkpt>
      <trkpt lat="41.072617" lon="-3.723967">
        <ele>2310.0</ele>
        <time>2016-07-25T15:49:12Z</time>
      </trkpt>
      <trkpt lat="41.072533" lon="-3.724033">
        <ele>2310.0</ele>
        <time>2016-07-25T15:49:13Z</time>
      </trkpt>
      <trkpt lat="41.072450" lon="-3.724083">
        <ele>2311.0</ele>
        <time>2016-07-25T15:49:14Z</time>
      </trkpt>
      <trkpt lat="41.072367" lon="-3.724150">
        <ele>2311.0</ele>
        <time>2016-07-25T15:49:15Z</time>
      </trkpt>
      <trkpt lat="41.072300" lon="-3.724217">
        <ele>2312.0</ele>
        <time>2016-07-25T15:49:16Z</time>
      </trkpt>
      <trkpt lat="41.072250" lon="-3.724283">
        <ele>2312.0</ele>
        <time>2016-07-25T15:49:17Z</time>
      </trkpt>
      <trkpt lat="41.072200" lon="-3.724350">
        <ele>2312.0</ele>
        <time>2016-07-25T15:49:18Z</time>
      </trkpt>
      <trkpt lat="41.072167" lon="-3.724417">
        <ele>2313.0</ele>
        <time>2016-07-25T15:49:19Z</time>
      </trkpt>
      <trkpt lat="41.072133" lon="-3.724500">
        <ele>2313.0</ele>
        <time>2016-07-25T15:49:20Z</time>
      </trkpt>
      <trkpt lat="41.072117" lon="-3.724567">
        <ele>2314.0</ele>
        <time>2016-07-25T15:49:21Z</time>
      </trkpt>
      <trkpt lat="41.072117" lon="-3.724633">
        <ele>2314.0</ele>
        <time>2016-07-25T15:49:22Z</time>
      </trkpt>
      <trkpt lat="41.072150" lon="-3.724667">
        <ele>2314.0</ele>
        <time>2016-07-25T15:49:23Z</time>
      </trkpt>
      <trkpt lat="41.072200" lon="-3.724683">
        <ele>2313.0</ele>
        <time>2016-07-25T15:49:24Z</time>
      </trkpt>
      <trkpt lat="41.072250" lon="-3.724683">
        <ele>2313.0</ele>
        <time>2016-07-25T15:49:25Z</time>
      </trkpt>
      <trkpt lat="41.072300" lon="-3.724667">
        <ele>2313.0</ele>
        <time>2016-07-25T15:49:26Z</time>
      </trkpt>
      <trkpt lat="41.072350" lon="-3.724633">
        <ele>2314.0</ele>
        <time>2016-07-25T15:49:27Z</time>
      </trkpt>
      <trkpt lat="41.072400" lon="-3.724583">
        <ele>2314.0</ele>
        <time>2016-07-25T15:49:28Z</time>
      </trkpt>
      <trkpt lat="41.072450" lon="-3.724517">
        <ele>2314.0</ele>
        <time>2016-07-25T15:49:29Z</time>
      </trkpt>
      <trkpt lat="41.072500" lon="-3.724450">
        <ele>2314.0</ele>
        <time>2016-07-25T15:49:30Z</time>
      </trkpt>
      <trkpt lat="41.072533" lon="-3.724350">
        <ele>2314.0</ele>
        <time>2016-07-25T15:49:31Z</time>
      </trkpt>
      <trkpt lat="41.072567" lon="-3.724250">
        <ele>2313.0</ele>
        <time>2016-07-25T15:49:32Z</time>
      </trkpt>
      <trkpt lat="41.072567" lon="-3.724117">
        <ele>2312.0</ele>
        <time>2016-07-25T15:49:33Z</time>
      </trkpt>
      <trkpt lat="41.072550" lon="-3.723950">
        <ele>2311.0</ele>
        <time>2016-07-25T15:49:34Z</time>
      </trkpt>
      <trkpt lat="41.072500" lon="-3.723783">
        <ele>2310.0</ele>
        <time>2016-07-25T15:49:35Z</time>
      </trkpt>
      <trkpt lat="41.072417" lon="-3.723633">
        <ele>2309.0</ele>
        <time>2016-07-25T15:49:36Z</time>
      </trkpt>
      <trkpt lat="41.072300" lon="-3.723517">
        <ele>2308.0</ele>
        <time>2016-07-25T15:49:37Z</time>
      </trkpt>
      <trkpt lat="41.072183" lon="-3.723433">
        <ele>2308.0</ele>
        <time>2016-07-25T15:49:38Z</time>
      </trkpt>
      <trkpt lat="41.072050" lon="-3.723400">
        <ele>2307.0</ele>
        <time>2016-07-25T15:49:39Z</time>
      </trkpt>
      <trkpt lat="41.071933" lon="-3.723417">
        <ele>2306.0</ele>
        <time>2016-07-25T15:49:40Z</time>
      </trkpt>
      <trkpt lat="41.071817" lon="-3.723433">
        <ele>2306.0</ele>
        <time>2016-07-25T15:49:41Z</time>
      </trkpt>
      <trkpt lat="41.071717" lon="-3.723483">
        <ele>2305.0</ele>
        <time>2016-07-25T15:49:42Z</time>
      </trkpt>
      <trkpt lat="41.071633" lon="-3.723533">
        <ele>2305.0</ele>
        <time>2016-07-25T15:49:43Z</time>
      </trkpt>
      <trkpt lat="41.071567" lon="-3.723600">
        <ele>2305.0</ele>
        <time>2016-07-25T15:49:44Z</time>
      </trkpt>
      <trkpt lat="41.071517" lon="-3.723683">
        <ele>2304.0</ele>
        <time>2016-07-25T15:49:45Z</time>
      </trkpt>
      <trkpt lat="41.071483" lon="-3.723767">
        <ele>2303.0</ele>
        <time>2016-07-25T15:49:46Z</time>
      </trkpt>
      <trkpt lat="41.071467" lon="-3.723850">
        <ele>2303.0</ele>
        <time>2016-07-25T15:49:47Z</time>
      </trkpt>
      <trkpt lat="41.071467" lon="-3.723933">
        <ele>2303.0</ele>
        <time>2016-07-25T15:49:48Z</time>
      </trkpt>
      <trkpt lat="41.071467" lon="-3.724000">
        <ele>2304.0</ele>
        <time>2016-07-25T15:49:49Z</time>
      </trkpt>
      <trkpt lat="41.071483" lon="-3.724050">
        <ele>2303.0</ele>
        <time>2016-07-25T15:49:50Z</time>
      </trkpt>
      <trkpt lat="41.071500" lon="-3.724100">
        <ele>2302.0</ele>
        <time>2016-07-25T15:49:51Z</time>
      </trkpt>
      <trkpt lat="41.071517" lon="-3.724150">
        <ele>2301.0</ele>
        <time>2016-07-25T15:49:52Z</time>
      </trkpt>
      <trkpt lat="41.071550" lon="-3.724200">
        <ele>2301.0</ele>
        <time>2016-07-25T15:49:53Z</time>
      </trkpt>
      <trkpt lat="41.071583" lon="-3.724233">
        <ele>2300.0</ele>
        <time>2016-07-25T15:49:54Z</time>
      </trkpt>
      <trkpt lat="41.071633" lon="-3.724250">
        <ele>2299.0</ele>
        <time>2016-07-25T15:49:55Z</time>
      </trkpt>
      <trkpt lat="41.071683" lon="-3.724267">
        <ele>2299.0</ele>
        <time>2016-07-25T15:49:56Z</time>
      </trkpt>
      <trkpt lat="41.071750" lon="-3.724250">
        <ele>2298.0</ele>
        <time>2016-07-25T15:49:57Z</time>
      </trkpt>
      <trkpt lat="41.071800" lon="-3.724217">
        <ele>2299.0</ele>
        <time>2016-07-25T15:49:58Z</time>
      </trkpt>
      <trkpt lat="41.071850" lon="-3.724200">
        <ele>2300.0</ele>
        <time>2016-07-25T15:49:59Z</time>
      </trkpt>
      <trkpt lat="41.071883" lon="-3.724183">
        <ele>2301.0</ele>
        <time>2016-07-25T15:50:00Z</time>
      </trkpt>
      <trkpt lat="41.071917" lon="-3.724183">
        <ele>2303.0</ele>
        <time>2016-07-25T15:50:01Z</time>
      </trkpt>
      <trkpt lat="41.071933" lon="-3.724167">
        <ele>2304.0</ele>
        <time>2016-07-25T15:50:02Z</time>
      </trkpt>
      <trkpt lat="41.071950" lon="-3.724150">
        <ele>2304.0</ele>
        <time>2016-07-25T15:50:03Z</time>
      </trkpt>
      <trkpt lat="41.071950" lon="-3.724150">
        <ele>2304.0</ele>
        <time>2016-07-25T15:50:04Z</time>
      </trkpt>
      <trkpt lat="41.071983" lon="-3.724133">
        <ele>2302.0</ele>
        <time>2016-07-25T15:50:05Z</time>
      </trkpt>
      <trkpt lat="41.072017" lon="-3.724117">
        <ele>2301.0</ele>
        <time>2016-07-25T15:50:06Z</time>
      </trkpt>
      <trkpt lat="41.072067" lon="-3.724117">
        <ele>2302.0</ele>
        <time>2016-07-25T15:50:07Z</time>
      </trkpt>
      <trkpt lat="41.072117" lon="-3.724100">
        <ele>2306.0</ele>
        <time>2016-07-25T15:50:08Z</time>
      </trkpt>
      <trkpt lat="41.072133" lon="-3.724083">
        <ele>2310.0</ele>
        <time>2016-07-25T15:50:09Z</time>
      </trkpt>
      <trkpt lat="41.072133" lon="-3.724067">
        <ele>2312.0</ele>
        <time>2016-07-25T15:50:10Z</time>
      </trkpt>
      <trkpt lat="41.072133" lon="-3.724050">
        <ele>2313.0</ele>
        <time>2016-07-25T15:50:11Z</time>
      </trkpt>
      <trkpt lat="41.072167" lon="-3.724033">
        <ele>2313.0</ele>
        <time>2016-07-25T15:50:12Z</time>
      </trkpt>
      <trkpt lat="41.072200" lon="-3.724017">
        <ele>2312.0</ele>
        <time>2016-07-25T15:50:13Z</time>
      </trkpt>
      <trkpt lat="41.072233" lon="-3.724000">
        <ele>2314.0</ele>
        <time>2016-07-25T15:50:14Z</time>
      </trkpt>
      <trkpt lat="41.072267" lon="-3.723967">
        <ele>2316.0</ele>
        <time>2016-07-25T15:50:15Z</time>
      </trkpt>
      <trkpt lat="41.072300" lon="-3.723950">
        <ele>2319.0</ele>
        <time>2016-07-25T15:50:16Z</time>
      </trkpt>
      <trkpt lat="41.072333" lon="-3.723933">
        <ele>2321.0</ele>
        <time>2016-07-25T15:50:17Z</time>
      </trkpt>
      <trkpt lat="41.072367" lon="-3.723917">
        <ele>2322.0</ele>
        <time>2016-07-25T15:50:18Z</time>
      </trkpt>
      <trkpt lat="41.072400" lon="-3.723917">
        <ele>2324.0</ele>
        <time>2016-07-25T15:50:19Z</time>
      </trkpt>
      <trkpt lat="41.072417" lon="-3.723933">
        <ele>2327.0</ele>
        <time>2016-07-25T15:50:20Z</time>
      </trkpt>
      <trkpt lat="41.072450" lon="-3.723933">
        <ele>2331.0</ele>
        <time>2016-07-25T15:50:21Z</time>
      </trkpt>
      <trkpt lat="41.072450" lon="-3.723933">
        <ele>2335.0</ele>
        <time>2016-07-25T15:50:22Z</time>
      </trkpt>
      <trkpt lat="41.072467" lon="-3.723933">
        <ele>2338.0</ele>
        <time>2016-07-25T15:50:23Z</time>
      </trkpt>
      <trkpt lat="41.072467" lon="-3.723950">
        <ele>2341.0</ele>
        <time>2016-07-25T15:50:24Z</time>
      </trkpt>
      <trkpt lat="41.072467" lon="-3.723950">
        <ele>2343.0</ele>
        <time>2016-07-25T15:50:25Z</time>
      </trkpt>
      <trkpt lat="41.072483" lon="-3.723950">
        <ele>2344.0</ele>
        <time>2016-07-25T15:50:26Z</time>
      </trkpt>
      <trkpt lat="41.072500" lon="-3.723933">
        <ele>2345.0</ele>
        <time>2016-07-25T15:50:27Z</time>
      </trkpt>
      <trkpt lat="41.072517" lon="-3.723900">
        <ele>2346.0</ele>
        <time>2016-07-25T15:50:28Z</time>
      </trkpt>
      <trkpt lat="41.072533" lon="-3.723817">
        <ele>2348.0</ele>
        <time>2016-07-25T15:50:29Z</time>
      </trkpt>
      <trkpt lat="41.072550" lon="-3.723733">
        <ele>2349.0</ele>
        <time>2016-07-25T15:50:30Z</time>
      </trkpt>
      <trkpt lat="41.072567" lon="-3.723633">
        <ele>2350.0</ele>
        <time>2016-07-25T15:50:31Z</time>
      </trkpt>
      <trkpt lat="41.072550" lon="-3.723517">
        <ele>2350.0</ele>
        <time>2016-07-25T15:50:32Z</time>
      </trkpt>
      <trkpt lat="41.072517" lon="-3.723383">
        <ele>2350.0</ele>
        <time>2016-07-25T15:50:33Z</time>
      </trkpt>
      <trkpt lat="41.072450" lon="-3.723217">
        <ele>2350.0</ele>
        <time>2016-07-25T15:50:34Z</time>
      </trkpt>
      <trkpt lat="41.072317" lon="-3.723083">
        <ele>2350.0</ele>
        <time>2016-07-25T15:50:35Z</time>
      </trkpt>
      <trkpt lat="41.072167" lon="-3.723000">
        <ele>2352.0</ele>
        <time>2016-07-25T15:50:36Z</time>
      </trkpt>
      <trkpt lat="41.072033" lon="-3.722967">
        <ele>2354.0</ele>
        <time>2016-07-25T15:50:37Z</time>
      </trkpt>
      <trkpt lat="41.071900" lon="-3.722983">
        <ele>2355.0</ele>
        <time>2016-07-25T15:50:38Z</time>
      </trkpt>
      <trkpt lat="41.071800" lon="-3.723017">
        <ele>2356.0</ele>
        <time>2016-07-25T15:50:39Z</time>
      </trkpt>
      <trkpt lat="41.071717" lon="-3.723083">
        <ele>2357.0</ele>
        <time>2016-07-25T15:50:40Z</time>
      </trkpt>
      <trkpt lat="41.071650" lon="-3.723150">
        <ele>2359.0</ele>
        <time>2016-07-25T15:50:41Z</time>
      </trkpt>
      <trkpt lat="41.071583" lon="-3.723200">
        <ele>2361.0</ele>
        <time>2016-07-25T15:50:42Z</time>
      </trkpt>
      <trkpt lat="41.071533" lon="-3.723267">
        <ele>2362.0</ele>
        <time>2016-07-25T15:50:43Z</time>
      </trkpt>
      <trkpt lat="41.071500" lon="-3.723317">
        <ele>2363.0</ele>
        <time>2016-07-25T15:50:44Z</time>
      </trkpt>
      <trkpt lat="41.071500" lon="-3.723383">
        <ele>2364.0</ele>
        <time>2016-07-25T15:50:45Z</time>
      </trkpt>
      <trkpt lat="41.071483" lon="-3.723433">
        <ele>2366.0</ele>
        <time>2016-07-25T15:50:46Z</time>
      </trkpt>
      <trkpt lat="41.071500" lon="-3.723467">
        <ele>2369.0</ele>
        <time>2016-07-25T15:50:47Z</time>
      </trkpt>
      <trkpt lat="41.071500" lon="-3.723483">
        <ele>2371.0</ele>
        <time>2016-07-25T15:50:48Z</time>
      </trkpt>
      <trkpt lat="41.071517" lon="-3.723483">
        <ele>2372.0</ele>
        <time>2016-07-25T15:50:49Z</time>
      </trkpt>
      <trkpt lat="41.071533" lon="-3.723483">
        <ele>2374.0</ele>
        <time>2016-07-25T15:50:50Z</time>
      </trkpt>
      <trkpt lat="41.071550" lon="-3.723500">
        <ele>2375.0</ele>
        <time>2016-07-25T15:50:51Z</time>
      </trkpt>
      <trkpt lat="41.071583" lon="-3.723500">
        <ele>2376.0</ele>
        <time>2016-07-25T15:50:52Z</time>
      </trkpt>
      <trkpt lat="41.071617" lon="-3.723517">
        <ele>2377.0</ele>
        <time>2016-07-25T15:50:53Z</time>
      </trkpt>
      <trkpt lat="41.071667" lon="-3.723500">
        <ele>2379.0</ele>
        <time>2016-07-25T15:50:54Z</time>
      </trkpt>
      <trkpt lat="41.071683" lon="-3.723467">
        <ele>2381.0</ele>
        <time>2016-07-25T15:50:55Z</time>
      </trkpt>
      <trkpt lat="41.071717" lon="-3.723433">
        <ele>2383.0</ele>
        <time>2016-07-25T15:50:56Z</time>
      </trkpt>
      <trkpt lat="41.071750" lon="-3.723400">
        <ele>2385.0</ele>
        <time>2016-07-25T15:50:57Z</time>
      </trkpt>
      <trkpt lat="41.071767" lon="-3.723350">
        <ele>2387.0</ele>
        <time>2016-07-25T15:50:58Z</time>
      </trkpt>
      <trkpt lat="41.071800" lon="-3.723333">
        <ele>2389.0</ele>
        <time>2016-07-25T15:50:59Z</time>
      </trkpt>
      <trkpt lat="41.071817" lon="-3.723300">
        <ele>2391.0</ele>
        <time>2016-07-25T15:51:00Z</time>
      </trkpt>
      <trkpt lat="41.071833" lon="-3.723267">
        <ele>2393.0</ele>
        <time>2016-07-25T15:51:01Z</time>
      </trkpt>
      <trkpt lat="41.071850" lon="-3.723217">
        <ele>2395.0</ele>
        <time>2016-07-25T15:51:02Z</time>
      </trkpt>
      <trkpt lat="41.071867" lon="-3.723167">
        <ele>2396.0</ele>
        <time>2016-07-25T15:51:03Z</time>
      </trkpt>
      <trkpt lat="41.071900" lon="-3.723133">
        <ele>2398.0</ele>
        <time>2016-07-25T15:51:04Z</time>
      </trkpt>
      <trkpt lat="41.071950" lon="-3.723083">
        <ele>2400.0</ele>
        <time>2016-07-25T15:51:05Z</time>
      </trkpt>
      <trkpt lat="41.071983" lon="-3.723067">
        <ele>2403.0</ele>
        <time>2016-07-25T15:51:06Z</time>
      </trkpt>
      <trkpt lat="41.072017" lon="-3.723067">
        <ele>2407.0</ele>
        <time>2016-07-25T15:51:07Z</time>
      </trkpt>
      <trkpt lat="41.072067" lon="-3.723033">
        <ele>2411.0</ele>
        <time>2016-07-25T15:51:08Z</time>
      </trkpt>
      <trkpt lat="41.072100" lon="-3.723000">
        <ele>2416.0</ele>
        <time>2016-07-25T15:51:09Z</time>
      </trkpt>
      <trkpt lat="41.072133" lon="-3.722967">
        <ele>2420.0</ele>
        <time>2016-07-25T15:51:10Z</time>
      </trkpt>
      <trkpt lat="41.072150" lon="-3.722900">
        <ele>2424.0</ele>
        <time>2016-07-25T15:51:11Z</time>
      </trkpt>
      <trkpt lat="41.072183" lon="-3.722817">
        <ele>2427.0</ele>
        <time>2016-07-25T15:51:12Z</time>
      </trkpt>
      <trkpt lat="41.072200" lon="-3.722700">
        <ele>2428.0</ele>
        <time>2016-07-25T15:51:13Z</time>
      </trkpt>
      <trkpt lat="41.072200" lon="-3.722550">
        <ele>2429.0</ele>
        <time>2016-07-25T15:51:14Z</time>
      </trkpt>
      <trkpt lat="41.072167" lon="-3.722367">
        <ele>2429.0</ele>
        <time>2016-07-25T15:51:15Z</time>
      </trkpt>
      <trkpt lat="41.072067" lon="-3.722200">
        <ele>2428.0</ele>
        <time>2016-07-25T15:51:16Z</time>
      </trkpt>
      <trkpt lat="41.071917" lon="-3.722100">
        <ele>2428.0</ele>
        <time>2016-07-25T15:51:17Z</time>
      </trkpt>
      <trkpt lat="41.071767" lon="-3.722067">
        <ele>2428.0</ele>
        <time>2016-07-25T15:51:18Z</time>
      </trkpt>
      <trkpt lat="41.071650" lon="-3.722083">
        <ele>2430.0</ele>
        <time>2016-07-25T15:51:19Z</time>
      </trkpt>
      <trkpt lat="41.071567" lon="-3.722133">
        <ele>2432.0</ele>
        <time>2016-07-25T15:51:20Z</time>
      </trkpt>
      <trkpt lat="41.071483" lon="-3.722183">
        <ele>2436.0</ele>
        <time>2016-07-25T15:51:21Z</time>
      </trkpt>
      <trkpt lat="41.071417" lon="-3.722217">
        <ele>2439.0</ele>
        <time>2016-07-25T15:51:22Z</time>
      </trkpt>
      <trkpt lat="41.071383" lon="-3.722267">
        <ele>2442.0</ele>
        <time>2016-07-25T15:51:23Z</time>
      </trkpt>
      <trkpt lat="41.071350" lon="-3.722317">
        <ele>2445.0</ele>
        <time>2016-07-25T15:51:24Z</time>
      </trkpt>
      <trkpt lat="41.071333" lon="-3.722383">
        <ele>2448.0</ele>
        <time>2016-07-25T15:51:25Z</time>
      </trkpt>
      <trkpt lat="41.071350" lon="-3.722417">
        <ele>2452.0</ele>
        <time>2016-07-25T15:51:26Z</time>
      </trkpt>
      <trkpt lat="41.071367" lon="-3.722450">
        <ele>2455.0</ele>
        <time>2016-07-25T15:51:27Z</time>
      </trkpt>
      <trkpt lat="41.071417" lon="-3.722483">
        <ele>2459.0</ele>
        <time>2016-07-25T15:51:28Z</time>
      </trkpt>
      <trkpt lat="41.071450" lon="-3.722483">
        <ele>2463.0</ele>
        <time>2016-07-25T15:51:29Z</time>
      </trkpt>
      <trkpt lat="41.071483" lon="-3.722483">
        <ele>2467.0</ele>
        <time>2016-07-25T15:51:30Z</time>
      </trkpt>
      <trkpt lat="41.071517" lon="-3.722483">
        <ele>2471.0</ele>
        <time>2016-07-25T15:51:31Z</time>
      </trkpt>
      <trkpt lat="41.071550" lon="-3.722483">
        <ele>2474.0</ele>
        <time>2016-07-25T15:51:32Z</time>
      </trkpt>
      <trkpt lat="41.071583" lon="-3.722500">
        <ele>2477.0</ele>
        <time>2016-07-25T15:51:33Z</time>
      </trkpt>
      <trkpt lat="41.071633" lon="-3.722517">
        <ele>2481.0</ele>
        <time>2016-07-25T15:51:34Z</time>
      </trkpt>
      <trkpt lat="41.071667" lon="-3.722500">
        <ele>2485.0</ele>
        <time>2016-07-25T15:51:35Z</time>
      </trkpt>
      <trkpt lat="41.071700" lon="-3.722483">
        <ele>2489.0</ele>
        <time>2016-07-25T15:51:36Z</time>
      </trkpt>
      <trkpt lat="41.071733" lon="-3.722450">
        <ele>2492.0</ele>
        <time>2016-07-25T15:51:37Z</time>
      </trkpt>
      <trkpt lat="41.071783" lon="-3.722417">
        <ele>2495.0</ele>
        <time>2016-07-25T15:51:38Z</time>
      </trkpt>
      <trkpt lat="41.071833" lon="-3.722367">
        <ele>2498.0</ele>
        <time>2016-07-25T15:51:39Z</time>
      </trkpt>
      <trkpt lat="41.071867" lon="-3.722317">
        <ele>2500.0</ele>
        <time>2016-07-25T15:51:40Z</time>
      </trkpt>
      <trkpt lat="41.071917" lon="-3.722233">
        <ele>2502.0</ele>
        <time>2016-07-25T15:51:41Z</time>
      </trkpt>
      <trkpt lat="41.071933" lon="-3.722117">
        <ele>2503.0</ele>
        <time>2016-07-25T15:51:42Z</time>
      </trkpt>
      <trkpt lat="41.071933" lon="-3.721983">
        <ele>2503.0</ele>
        <time>2016-07-25T15:51:43Z</time>
      </trkpt>
      <trkpt lat="41.071917" lon="-3.721850">
        <ele>2504.0</ele>
        <time>2016-07-25T15:51:44Z</time>
      </trkpt>
      <trkpt lat="41.071883" lon="-3.721717">
        <ele>2504.0</ele>
        <time>2016-07-25T15:51:45Z</time>
      </trkpt>
      <trkpt lat="41.071800" lon="-3.721583">
        <ele>2502.0</ele>
        <time>2016-07-25T15:51:46Z</time>
      </trkpt>
      <trkpt lat="41.071700" lon="-3.721483">
        <ele>2500.0</ele>
        <time>2016-07-25T15:51:47Z</time>
      </trkpt>
      <trkpt lat="41.071567" lon="-3.721433">
        <ele>2498.0</ele>
        <time>2016-07-25T15:51:48Z</time>
      </trkpt>
      <trkpt lat="41.071433" lon="-3.721417">
        <ele>2497.0</ele>
        <time>2016-07-25T15:51:49Z</time>
      </trkpt>
      <trkpt lat="41.071317" lon="-3.721450">
        <ele>2498.0</ele>
        <time>2016-07-25T15:51:50Z</time>
      </trkpt>
      <trkpt lat="41.071217" lon="-3.721517">
        <ele>2500.0</ele>
        <time>2016-07-25T15:51:51Z</time>
      </trkpt>
      <trkpt lat="41.071150" lon="-3.721567">
        <ele>2502.0</ele>
        <time>2016-07-25T15:51:52Z</time>
      </trkpt>
      <trkpt lat="41.071083" lon="-3.721617">
        <ele>2504.0</ele>
        <time>2016-07-25T15:51:53Z</time>
      </trkpt>
      <trkpt lat="41.071050" lon="-3.721683">
        <ele>2506.0</ele>
        <time>2016-07-25T15:51:54Z</time>
      </trkpt>
      <trkpt lat="41.071033" lon="-3.721767">
        <ele>2507.0</ele>
        <time>2016-07-25T15:51:55Z</time>
      </trkpt>
      <trkpt lat="41.071050" lon="-3.721833">
        <ele>2510.0</ele>
        <time>2016-07-25T15:51:56Z</time>
      </trkpt>
      <trkpt lat="41.071067" lon="-3.721867">
        <ele>2514.0</ele>
        <time>2016-07-25T15:51:57Z</time>
      </trkpt>
      <trkpt lat="41.071067" lon="-3.721883">
        <ele>2516.0</ele>
        <time>2016-07-25T15:51:58Z</time>
      </trkpt>
      <trkpt lat="41.071083" lon="-3.721883">
        <ele>2517.0</ele>
        <time>2016-07-25T15:51:59Z</time>
      </trkpt>
      <trkpt lat="41.071100" lon="-3.721900">
        <ele>2516.0</ele>
        <time>2016-07-25T15:52:00Z</time>
      </trkpt>
      <trkpt lat="41.071117" lon="-3.721933">
        <ele>2515.0</ele>
        <time>2016-07-25T15:52:01Z</time>
      </trkpt>
      <trkpt lat="41.071167" lon="-3.721967">
        <ele>2514.0</ele>
        <time>2016-07-25T15:52:02Z</time>
      </trkpt>
      <trkpt lat="41.071200" lon="-3.721983">
        <ele>2513.0</ele>
        <time>2016-07-25T15:52:03Z</time>
      </trkpt>
      <trkpt lat="41.071233" lon="-3.722000">
        <ele>2513.0</ele>
        <time>2016-07-25T15:52:04Z</time>
      </trkpt>
      <trkpt lat="41.071267" lon="-3.722017">
        <ele>2512.0</ele>
        <time>2016-07-25T15:52:05Z</time>
      </trkpt>
      <trkpt lat="41.071317" lon="-3.722017">
        <ele>2511.0</ele>
        <time>2016-07-25T15:52:06Z</time>
      </trkpt>
      <trkpt lat="41.071350" lon="-3.722017">
        <ele>2509.0</ele>
        <time>2016-07-25T15:52:07Z</time>
      </trkpt>
      <trkpt lat="41.071400" lon="-3.722000">
        <ele>2508.0</ele>
        <time>2016-07-25T15:52:08Z</time>
      </trkpt>
      <trkpt lat="41.071450" lon="-3.721967">
        <ele>2506.0</ele>
        <time>2016-07-25T15:52:09Z</time>
      </trkpt>
      <trkpt lat="41.071500" lon="-3.721933">
        <ele>2505.0</ele>
        <time>2016-07-25T15:52:10Z</time>
      </trkpt>
      <trkpt lat="41.071533" lon="-3.721917">
        <ele>2505.0</ele>
        <time>2016-07-25T15:52:11Z</time>
      </trkpt>
      <trkpt lat="41.071583" lon="-3.721883">
        <ele>2504.0</ele>
        <time>2016-07-25T15:52:12Z</time>
      </trkpt>
      <trkpt lat="41.071633" lon="-3.721850">
        <ele>2502.0</ele>
        <time>2016-07-25T15:52:13Z</time>
      </trkpt>
      <trkpt lat="41.071667" lon="-3.721817">
        <ele>2501.0</ele>
        <time>2016-07-25T15:52:14Z</time>
      </trkpt>
      <trkpt lat="41.071717" lon="-3.721783">
        <ele>2501.0</ele>
        <time>2016-07-25T15:52:15Z</time>
      </trkpt>
      <trkpt lat="41.071767" lon="-3.721733">
        <ele>2501.0</ele>
        <time>2016-07-25T15:52:16Z</time>
      </trkpt>
      <trkpt lat="41.071800" lon="-3.721700">
        <ele>2502.0</ele>
        <time>2016-07-25T15:52:17Z</time>
      </trkpt>
      <trkpt lat="41.071833" lon="-3.721667">
        <ele>2503.0</ele>
        <time>2016-07-25T15:52:18Z</time>
      </trkpt>
      <trkpt lat="41.071867" lon="-3.721650">
        <ele>2504.0</ele>
        <time>2016-07-25T15:52:19Z</time>
      </trkpt>
      <trkpt lat="41.071900" lon="-3.721633">
        <ele>2504.0</ele>
        <time>2016-07-25T15:52:20Z</time>
      </trkpt>
      <trkpt lat="41.071917" lon="-3.721617">
        <ele>2504.0</ele>
        <time>2016-07-25T15:52:21Z</time>
      </trkpt>
      <trkpt lat="41.071950" lon="-3.721567">
        <ele>2503.0</ele>
        <time>2016-07-25T15:52:22Z</time>
      </trkpt>
      <trkpt lat="41.072000" lon="-3.721517">
        <ele>2502.0</ele>
        <time>2016-07-25T15:52:23Z</time>
      </trkpt>
      <trkpt lat="41.072050" lon="-3.721450">
        <ele>2502.0</ele>
        <time>2016-07-25T15:52:24Z</time>
      </trkpt>
      <trkpt lat="41.072100" lon="-3.721383">
        <ele>2502.0</ele>
        <time>2016-07-25T15:52:25Z</time>
      </trkpt>
      <trkpt lat="41.072133" lon="-3.721317">
        <ele>2504.0</ele>
        <time>2016-07-25T15:52:26Z</time>
      </trkpt>
      <trkpt lat="41.072167" lon="-3.721250">
        <ele>2506.0</ele>
        <time>2016-07-25T15:52:27Z</time>
      </trkpt>
      <trkpt lat="41.072200" lon="-3.721200">
        <ele>2508.0</ele>
        <time>2016-07-25T15:52:28Z</time>
      </trkpt>
      <trkpt lat="41.072233" lon="-3.721133">
        <ele>2510.0</ele>
        <time>2016-07-25T15:52:29Z</time>
      </trkpt>
      <trkpt lat="41.072267" lon="-3.721100">
        <ele>2511.0</ele>
        <time>2016-07-25T15:52:30Z</time>
      </trkpt>
      <trkpt lat="41.072300" lon="-3.721033">
        <ele>2512.0</ele>
        <time>2016-07-25T15:52:31Z</time>
      </trkpt>
      <trkpt lat="41.072350" lon="-3.720967">
        <ele>2514.0</ele>
        <time>2016-07-25T15:52:32Z</time>
      </trkpt>
      <trkpt lat="41.072400" lon="-3.720900">
        <ele>2515.0</ele>
        <time>2016-07-25T15:52:33Z</time>
      </trkpt>
      <trkpt lat="41.072433" lon="-3.720833">
        <ele>2517.0</ele>
        <time>2016-07-25T15:52:34Z</time>
      </trkpt>
      <trkpt lat="41.072467" lon="-3.720783">
        <ele>2518.0</ele>
        <time>2016-07-25T15:52:35Z</time>
      </trkpt>
      <trkpt lat="41.072500" lon="-3.720700">
        <ele>2519.0</ele>
        <time>2016-07-25T15:52:36Z</time>
      </trkpt>
      <trkpt lat="41.072533" lon="-3.720633">
        <ele>2520.0</ele>
        <time>2016-07-25T15:52:37Z</time>
      </trkpt>
      <trkpt lat="41.072583" lon="-3.720550">
        <ele>2523.0</ele>
        <time>2016-07-25T15:52:38Z</time>
      </trkpt>
      <trkpt lat="41.072617" lon="-3.720467">
        <ele>2526.0</ele>
        <time>2016-07-25T15:52:39Z</time>
      </trkpt>
      <trkpt lat="41.072633" lon="-3.720417">
        <ele>2528.0</ele>
        <time>2016-07-25T15:52:40Z</time>
      </trkpt>
      <trkpt lat="41.072633" lon="-3.720367">
        <ele>2529.0</ele>
        <time>2016-07-25T15:52:41Z</time>
      </trkpt>
      <trkpt lat="41.072667" lon="-3.720317">
        <ele>2528.0</ele>
        <time>2016-07-25T15:52:42Z</time>
      </trkpt>
      <trkpt lat="41.072683" lon="-3.720250">
        <ele>2525.0</ele>
        <time>2016-07-25T15:52:43Z</time>
      </trkpt>
      <trkpt lat="41.072733" lon="-3.720183">
        <ele>2522.0</ele>
        <time>2016-07-25T15:52:44Z</time>
      </trkpt>
      <trkpt lat="41.072767" lon="-3.720083">
        <ele>2520.0</ele>
        <time>2016-07-25T15:52:45Z</time>
      </trkpt>
      <trkpt lat="41.072817" lon="-3.719983">
        <ele>2518.0</ele>
        <time>2016-07-25T15:52:46Z</time>
      </trkpt>
      <trkpt lat="41.072850" lon="-3.719867">
        <ele>2518.0</ele>
        <time>2016-07-25T15:52:47Z</time>
      </trkpt>
      <trkpt lat="41.072900" lon="-3.719750">
        <ele>2518.0</ele>
        <time>2016-07-25T15:52:48Z</time>
      </trkpt>
      <trkpt lat="41.072917" lon="-3.719667">
        <ele>2517.0</ele>
        <time>2016-07-25T15:52:49Z</time>
      </trkpt>
      <trkpt lat="41.072950" lon="-3.719583">
        <ele>2515.0</ele>
        <time>2016-07-25T15:52:50Z</time>
      </trkpt>
      <trkpt lat="41.073000" lon="-3.719500">
        <ele>2512.0</ele>
        <time>2016-07-25T15:52:51Z</time>
      </trkpt>
      <trkpt lat="41.073050" lon="-3.719400">
        <ele>2510.0</ele>
        <time>2016-07-25T15:52:52Z</time>
      </trkpt>
      <trkpt lat="41.073100" lon="-3.719283">
        <ele>2509.0</ele>
        <time>2016-07-25T15:52:53Z</time>
      </trkpt>
      <trkpt lat="41.073150" lon="-3.719183">
        <ele>2509.0</ele>
        <time>2016-07-25T15:52:54Z</time>
      </trkpt>
      <trkpt lat="41.073183" lon="-3.719067">
        <ele>2507.0</ele>
        <time>2016-07-25T15:52:55Z</time>
      </trkpt>
      <trkpt lat="41.073217" lon="-3.718967">
        <ele>2505.0</ele>
        <time>2016-07-25T15:52:56Z</time>
      </trkpt>
      <trkpt lat="41.073267" lon="-3.718850">
        <ele>2503.0</ele>
        <time>2016-07-25T15:52:57Z</time>
      </trkpt>
      <trkpt lat="41.073317" lon="-3.718717">
        <ele>2502.0</ele>
        <time>2016-07-25T15:52:58Z</time>
      </trkpt>
      <trkpt lat="41.073350" lon="-3.718583">
        <ele>2501.0</ele>
        <time>2016-07-25T15:52:59Z</time>
      </trkpt>
      <trkpt lat="41.073383" lon="-3.718433">
        <ele>2500.0</ele>
        <time>2016-07-25T15:53:00Z</time>
      </trkpt>
      <trkpt lat="41.073417" lon="-3.718300">
        <ele>2499.0</ele>
        <time>2016-07-25T15:53:01Z</time>
      </trkpt>
      <trkpt lat="41.073450" lon="-3.718183">
        <ele>2498.0</ele>
        <time>2016-07-25T15:53:02Z</time>
      </trkpt>
      <trkpt lat="41.073483" lon="-3.718083">
        <ele>2497.0</ele>
        <time>2016-07-25T15:53:03Z</time>
      </trkpt>
      <trkpt lat="41.073533" lon="-3.717967">
        <ele>2496.0</ele>
        <time>2016-07-25T15:53:04Z</time>
      </trkpt>
      <trkpt lat="41.073583" lon="-3.717850">
        <ele>2495.0</ele>
        <time>2016-07-25T15:53:05Z</time>
      </trkpt>
      <trkpt lat="41.073617" lon="-3.717733">
        <ele>2495.0</ele>
        <time>2016-07-25T15:53:06Z</time>
      </trkpt>
      <trkpt lat="41.073650" lon="-3.717633">
        <ele>2495.0</ele>
        <time>2016-07-25T15:53:07Z</time>
      </trkpt>
      <trkpt lat="41.073667" lon="-3.717533">
        <ele>2495.0</ele>
        <time>2016-07-25T15:53:08Z</time>
      </trkpt>
      <trkpt lat="41.073700" lon="-3.717467">
        <ele>2494.0</ele>
        <time>2016-07-25T15:53:09Z</time>
      </trkpt>
      <trkpt lat="41.073750" lon="-3.717383">
        <ele>2491.0</ele>
        <time>2016-07-25T15:53:10Z</time>
      </trkpt>
      <trkpt lat="41.073817" lon="-3.717300">
        <ele>2490.0</ele>
        <time>2016-07-25T15:53:11Z</time>
      </trkpt>
      <trkpt lat="41.073850" lon="-3.717200">
        <ele>2490.0</ele>
        <time>2016-07-25T15:53:12Z</time>
      </trkpt>
      <trkpt lat="41.073883" lon="-3.717083">
        <ele>2491.0</ele>
        <time>2016-07-25T15:53:13Z</time>
      </trkpt>
      <trkpt lat="41.073900" lon="-3.716983">
        <ele>2491.0</ele>
        <time>2016-07-25T15:53:14Z</time>
      </trkpt>
      <trkpt lat="41.073933" lon="-3.716883">
        <ele>2489.0</ele>
        <time>2016-07-25T15:53:15Z</time>
      </trkpt>
      <trkpt lat="41.073967" lon="-3.716783">
        <ele>2487.0</ele>
        <time>2016-07-25T15:53:16Z</time>
      </trkpt>
      <trkpt lat="41.074017" lon="-3.716700">
        <ele>2485.0</ele>
        <time>2016-07-25T15:53:17Z</time>
      </trkpt>
      <trkpt lat="41.074083" lon="-3.716600">
        <ele>2483.0</ele>
        <time>2016-07-25T15:53:18Z</time>
      </trkpt>
      <trkpt lat="41.074133" lon="-3.716500">
        <ele>2483.0</ele>
        <time>2016-07-25T15:53:19Z</time>
      </trkpt>
      <trkpt lat="41.074167" lon="-3.716417">
        <ele>2484.0</ele>
        <time>2016-07-25T15:53:20Z</time>
      </trkpt>
      <trkpt lat="41.074200" lon="-3.716317">
        <ele>2484.0</ele>
        <time>2016-07-25T15:53:21Z</time>
      </trkpt>
      <trkpt lat="41.074233" lon="-3.716233">
        <ele>2483.0</ele>
        <time>2016-07-25T15:53:22Z</time>
      </trkpt>
      <trkpt lat="41.074283" lon="-3.716167">
        <ele>2481.0</ele>
        <time>2016-07-25T15:53:23Z</time>
      </trkpt>
      <trkpt lat="41.074333" lon="-3.716100">
        <ele>2480.0</ele>
        <time>2016-07-25T15:53:24Z</time>
      </trkpt>
      <trkpt lat="41.074400" lon="-3.716033">
        <ele>2479.0</ele>
        <time>2016-07-25T15:53:25Z</time>
      </trkpt>
      <trkpt lat="41.074467" lon="-3.715967">
        <ele>2480.0</ele>
        <time>2016-07-25T15:53:26Z</time>
      </trkpt>
      <trkpt lat="41.074517" lon="-3.715900">
        <ele>2481.0</ele>
        <time>2016-07-25T15:53:27Z</time>
      </trkpt>
      <trkpt lat="41.074550" lon="-3.715850">
        <ele>2483.0</ele>
        <time>2016-07-25T15:53:28Z</time>
      </trkpt>
      <trkpt lat="41.074583" lon="-3.715800">
        <ele>2484.0</ele>
        <time>2016-07-25T15:53:29Z</time>
      </trkpt>
      <trkpt lat="41.074617" lon="-3.715750">
        <ele>2484.0</ele>
        <time>2016-07-25T15:53:30Z</time>
      </trkpt>
      <trkpt lat="41.074650" lon="-3.715700">
        <ele>2483.0</ele>
        <time>2016-07-25T15:53:31Z</time>
      </trkpt>
      <trkpt lat="41.074700" lon="-3.715633">
        <ele>2482.0</ele>
        <time>2016-07-25T15:53:32Z</time>
      </trkpt>
      <trkpt lat="41.074750" lon="-3.715583">
        <ele>2480.0</ele>
        <time>2016-07-25T15:53:33Z</time>
      </trkpt>
      <trkpt lat="41.074800" lon="-3.715517">
        <ele>2479.0</ele>
        <time>2016-07-25T15:53:34Z</time>
      </trkpt>
      <trkpt lat="41.074867" lon="-3.715483">
        <ele>2479.0</ele>
        <time>2016-07-25T15:53:35Z</time>
      </trkpt>
      <trkpt lat="41.074900" lon="-3.715433">
        <ele>2479.0</ele>
        <time>2016-07-25T15:53:36Z</time>
      </trkpt>
      <trkpt lat="41.074950" lon="-3.715383">
        <ele>2478.0</ele>
        <time>2016-07-25T15:53:37Z</time>
      </trkpt>
      <trkpt lat="41.075000" lon="-3.715333">
        <ele>2477.0</ele>
        <time>2016-07-25T15:53:38Z</time>
      </trkpt>
      <trkpt lat="41.075050" lon="-3.715250">
        <ele>2476.0</ele>
        <time>2016-07-25T15:53:39Z</time>
      </trkpt>
      <trkpt lat="41.075117" lon="-3.715167">
        <ele>2475.0</ele>
        <time>2016-07-25T15:53:40Z</time>
      </trkpt>
      <trkpt lat="41.075167" lon="-3.715100">
        <ele>2474.0</ele>
        <time>2016-07-25T15:53:41Z</time>
      </trkpt>
      <trkpt lat="41.075217" lon="-3.715033">
        <ele>2474.0</ele>
        <time>2016-07-25T15:53:42Z</time>
      </trkpt>
      <trkpt lat="41.075267" lon="-3.714967">
        <ele>2473.0</ele>
        <time>2016-07-25T15:53:43Z</time>
      </trkpt>
      <trkpt lat="41.075333" lon="-3.714900">
        <ele>2473.0</ele>
        <time>2016-07-25T15:53:44Z</time>
      </trkpt>
      <trkpt lat="41.075383" lon="-3.714817">
        <ele>2472.0</ele>
        <time>2016-07-25T15:53:45Z</time>
      </trkpt>
      <trkpt lat="41.075450" lon="-3.714733">
        <ele>2471.0</ele>
        <time>2016-07-25T15:53:46Z</time>
      </trkpt>
      <trkpt lat="41.075517" lon="-3.714650">
        <ele>2471.0</ele>
        <time>2016-07-25T15:53:47Z</time>
      </trkpt>
      <trkpt lat="41.075567" lon="-3.714567">
        <ele>2470.0</ele>
        <time>2016-07-25T15:53:48Z</time>
      </trkpt>
      <trkpt lat="41.075617" lon="-3.714483">
        <ele>2471.0</ele>
        <time>2016-07-25T15:53:49Z</time>
      </trkpt>
      <trkpt lat="41.075667" lon="-3.714417">
        <ele>2471.0</ele>
        <time>2016-07-25T15:53:50Z</time>
      </trkpt>
      <trkpt lat="41.075717" lon="-3.714350">
        <ele>2470.0</ele>
        <time>2016-07-25T15:53:51Z</time>
      </trkpt>
      <trkpt lat="41.075767" lon="-3.714283">
        <ele>2468.0</ele>
        <time>2016-07-25T15:53:52Z</time>
      </trkpt>
      <trkpt lat="41.075833" lon="-3.714250">
        <ele>2466.0</ele>
        <time>2016-07-25T15:53:53Z</time>
      </trkpt>
      <trkpt lat="41.075883" lon="-3.714183">
        <ele>2463.0</ele>
        <time>2016-07-25T15:53:54Z</time>
      </trkpt>
      <trkpt lat="41.075933" lon="-3.714117">
        <ele>2460.0</ele>
        <time>2016-07-25T15:53:55Z</time>
      </trkpt>
      <trkpt lat="41.075983" lon="-3.714050">
        <ele>2457.0</ele>
        <time>2016-07-25T15:53:56Z</time>
      </trkpt>
      <trkpt lat="41.076050" lon="-3.713983">
        <ele>2453.0</ele>
        <time>2016-07-25T15:53:57Z</time>
      </trkpt>
      <trkpt lat="41.076117" lon="-3.713933">
        <ele>2450.0</ele>
        <time>2016-07-25T15:53:58Z</time>
      </trkpt>
      <trkpt lat="41.076183" lon="-3.713883">
        <ele>2449.0</ele>
        <time>2016-07-25T15:53:59Z</time>
      </trkpt>
      <trkpt lat="41.076233" lon="-3.713850">
        <ele>2449.0</ele>
        <time>2016-07-25T15:54:00Z</time>
      </trkpt>
      <trkpt lat="41.076267" lon="-3.713817">
        <ele>2448.0</ele>
        <time>2016-07-25T15:54:01Z</time>
      </trkpt>
      <trkpt lat="41.076300" lon="-3.713767">
        <ele>2445.0</ele>
        <time>2016-07-25T15:54:02Z</time>
      </trkpt>
      <trkpt lat="41.076350" lon="-3.713717">
        <ele>2441.0</ele>
        <time>2016-07-25T15:54:03Z</time>
      </trkpt>
      <trkpt lat="41.076400" lon="-3.713667">
        <ele>2436.0</ele>
        <time>2016-07-25T15:54:04Z</time>
      </trkpt>
      <trkpt lat="41.076467" lon="-3.713617">
        <ele>2432.0</ele>
        <time>2016-07-25T15:54:05Z</time>
      </trkpt>
      <trkpt lat="41.076533" lon="-3.713567">
        <ele>2430.0</ele>
        <time>2016-07-25T15:54:06Z</time>
      </trkpt>
      <trkpt lat="41.076583" lon="-3.713533">
        <ele>2429.0</ele>
        <time>2016-07-25T15:54:07Z</time>
      </trkpt>
      <trkpt lat="41.076617" lon="-3.713483">
        <ele>2428.0</ele>
        <time>2016-07-25T15:54:08Z</time>
      </trkpt>
      <trkpt lat="41.076667" lon="-3.713433">
        <ele>2426.0</ele>
        <time>2016-07-25T15:54:09Z</time>
      </trkpt>
      <trkpt lat="41.076700" lon="-3.713400">
        <ele>2423.0</ele>
        <time>2016-07-25T15:54:10Z</time>
      </trkpt>
      <trkpt lat="41.076750" lon="-3.713350">
        <ele>2419.0</ele>
        <time>2016-07-25T15:54:11Z</time>
      </trkpt>
      <trkpt lat="41.076817" lon="-3.713300">
        <ele>2415.0</ele>
        <time>2016-07-25T15:54:12Z</time>
      </trkpt>
      <trkpt lat="41.076867" lon="-3.713267">
        <ele>2412.0</ele>
        <time>2016-07-25T15:54:13Z</time>
      </trkpt>
      <trkpt lat="41.076933" lon="-3.713217">
        <ele>2409.0</ele>
        <time>2016-07-25T15:54:14Z</time>
      </trkpt>
      <trkpt lat="41.076983" lon="-3.713183">
        <ele>2407.0</ele>
        <time>2016-07-25T15:54:15Z</time>
      </trkpt>
      <trkpt lat="41.077033" lon="-3.713150">
        <ele>2405.0</ele>
        <time>2016-07-25T15:54:16Z</time>
      </trkpt>
      <trkpt lat="41.077067" lon="-3.713117">
        <ele>2401.0</ele>
        <time>2016-07-25T15:54:17Z</time>
      </trkpt>
      <trkpt lat="41.077117" lon="-3.713067">
        <ele>2397.0</ele>
        <time>2016-07-25T15:54:18Z</time>
      </trkpt>
      <trkpt lat="41.077183" lon="-3.713000">
        <ele>2392.0</ele>
        <time>2016-07-25T15:54:19Z</time>
      </trkpt>
      <trkpt lat="41.077233" lon="-3.712950">
        <ele>2390.0</ele>
        <time>2016-07-25T15:54:20Z</time>
      </trkpt>
      <trkpt lat="41.077300" lon="-3.712883">
        <ele>2388.0</ele>
        <time>2016-07-25T15:54:21Z</time>
      </trkpt>
      <trkpt lat="41.077350" lon="-3.712833">
        <ele>2387.0</ele>
        <time>2016-07-25T15:54:22Z</time>
      </trkpt>
      <trkpt lat="41.077400" lon="-3.712783">
        <ele>2385.0</ele>
        <time>2016-07-25T15:54:23Z</time>
      </trkpt>
      <trkpt lat="41.077450" lon="-3.712733">
        <ele>2382.0</ele>
        <time>2016-07-25T15:54:24Z</time>
      </trkpt>
      <trkpt lat="41.077500" lon="-3.712667">
        <ele>2379.0</ele>
        <time>2016-07-25T15:54:25Z</time>
      </trkpt>
      <trkpt lat="41.077550" lon="-3.712617">
        <ele>2378.0</ele>
        <time>2016-07-25T15:54:26Z</time>
      </trkpt>
      <trkpt lat="41.077600" lon="-3.712550">
        <ele>2378.0</ele>
        <time>2016-07-25T15:54:27Z</time>
      </trkpt>
      <trkpt lat="41.077633" lon="-3.712500">
        <ele>2377.0</ele>
        <time>2016-07-25T15:54:28Z</time>
      </trkpt>
      <trkpt lat="41.077667" lon="-3.712450">
        <ele>2375.0</ele>
        <time>2016-07-25T15:54:29Z</time>
      </trkpt>
      <trkpt lat="41.077717" lon="-3.712400">
        <ele>2373.0</ele>
        <time>2016-07-25T15:54:30Z</time>
      </trkpt>
      <trkpt lat="41.077767" lon="-3.712350">
        <ele>2372.0</ele>
        <time>2016-07-25T15:54:31Z</time>
      </trkpt>
      <trkpt lat="41.077800" lon="-3.712300">
        <ele>2371.0</ele>
        <time>2016-07-25T15:54:32Z</time>
      </trkpt>
      <trkpt lat="41.077833" lon="-3.712233">
        <ele>2370.0</ele>
        <time>2016-07-25T15:54:33Z</time>
      </trkpt>
      <trkpt lat="41.077867" lon="-3.712167">
        <ele>2368.0</ele>
        <time>2016-07-25T15:54:34Z</time>
      </trkpt>
      <trkpt lat="41.077917" lon="-3.712117">
        <ele>2366.0</ele>
        <time>2016-07-25T15:54:35Z</time>
      </trkpt>
      <trkpt lat="41.077950" lon="-3.712067">
        <ele>2364.0</ele>
        <time>2016-07-25T15:54:36Z</time>
      </trkpt>
      <trkpt lat="41.077983" lon="-3.712017">
        <ele>2362.0</ele>
        <time>2016-07-25T15:54:37Z</time>
      </trkpt>
      <trkpt lat="41.078017" lon="-3.711967">
        <ele>2360.0</ele>
        <time>2016-07-25T15:54:38Z</time>
      </trkpt>
      <trkpt lat="41.078050" lon="-3.711883">
        <ele>2358.0</ele>
        <time>2016-07-25T15:54:39Z</time>
      </trkpt>
      <trkpt lat="41.078083" lon="-3.711800">
        <ele>2355.0</ele>
        <time>2016-07-25T15:54:40Z</time>
      </trkpt>
      <trkpt lat="41.078117" lon="-3.711717">
        <ele>2353.0</ele>
        <time>2016-07-25T15:54:41Z</time>
      </trkpt>
      <trkpt lat="41.078150" lon="-3.711633">
        <ele>2351.0</ele>
        <time>2016-07-25T15:54:42Z</time>
      </trkpt>
      <trkpt lat="41.078183" lon="-3.711550">
        <ele>2349.0</ele>
        <time>2016-07-25T15:54:43Z</time>
      </trkpt>
      <trkpt lat="41.078217" lon="-3.711467">
        <ele>2347.0</ele>
        <time>2016-07-25T15:54:44Z</time>
      </trkpt>
      <trkpt lat="41.078267" lon="-3.711383">
        <ele>2345.0</ele>
        <time>2016-07-25T15:54:45Z</time>
      </trkpt>
      <trkpt lat="41.078300" lon="-3.711300">
        <ele>2344.0</ele>
        <time>2016-07-25T15:54:46Z</time>
      </trkpt>
      <trkpt lat="41.078350" lon="-3.711217">
        <ele>2342.0</ele>
        <time>2016-07-25T15:54:47Z</time>
      </trkpt>
      <trkpt lat="41.078383" lon="-3.711133">
        <ele>2339.0</ele>
        <time>2016-07-25T15:54:48Z</time>
      </trkpt>
      <trkpt lat="41.078433" lon="-3.711050">
        <ele>2337.0</ele>
        <time>2016-07-25T15:54:49Z</time>
      </trkpt>
      <trkpt lat="41.078483" lon="-3.710950">
        <ele>2335.0</ele>
        <time>2016-07-25T15:54:50Z</time>
      </trkpt>
      <trkpt lat="41.078533" lon="-3.710850">
        <ele>2332.0</ele>
        <time>2016-07-25T15:54:51Z</time>
      </trkpt>
      <trkpt lat="41.078567" lon="-3.710750">
        <ele>2330.0</ele>
        <time>2016-07-25T15:54:52Z</time>
      </trkpt>
      <trkpt lat="41.078617" lon="-3.710667">
        <ele>2327.0</ele>
        <time>2016-07-25T15:54:53Z</time>
      </trkpt>
      <trkpt lat="41.078650" lon="-3.710583">
        <ele>2324.0</ele>
        <time>2016-07-25T15:54:54Z</time>
      </trkpt>
      <trkpt lat="41.078700" lon="-3.710483">
        <ele>2320.0</ele>
        <time>2016-07-25T15:54:55Z</time>
      </trkpt>
      <trkpt lat="41.078767" lon="-3.710383">
        <ele>2318.0</ele>
        <time>2016-07-25T15:54:56Z</time>
      </trkpt>
      <trkpt lat="41.078817" lon="-3.710267">
        <ele>2316.0</ele>
        <time>2016-07-25T15:54:57Z</time>
      </trkpt>
      <trkpt lat="41.078867" lon="-3.710167">
        <ele>2315.0</ele>
        <time>2016-07-25T15:54:58Z</time>
      </trkpt>
      <trkpt lat="41.078917" lon="-3.710050">
        <ele>2315.0</ele>
        <time>2016-07-25T15:54:59Z</time>
      </trkpt>
      <trkpt lat="41.078950" lon="-3.709950">
        <ele>2315.0</ele>
        <time>2016-07-25T15:55:00Z</time>
      </trkpt>
      <trkpt lat="41.078983" lon="-3.709833">
        <ele>2314.0</ele>
        <time>2016-07-25T15:55:01Z</time>
      </trkpt>
      <trkpt lat="41.079017" lon="-3.709733">
        <ele>2311.0</ele>
        <time>2016-07-25T15:55:02Z</time>
      </trkpt>
      <trkpt lat="41.079050" lon="-3.709633">
        <ele>2308.0</ele>
        <time>2016-07-25T15:55:03Z</time>
      </trkpt>
      <trkpt lat="41.079083" lon="-3.709517">
        <ele>2304.0</ele>
        <time>2016-07-25T15:55:04Z</time>
      </trkpt>
      <trkpt lat="41.079117" lon="-3.709400">
        <ele>2301.0</ele>
        <time>2016-07-25T15:55:05Z</time>
      </trkpt>
      <trkpt lat="41.079167" lon="-3.709283">
        <ele>2298.0</ele>
        <time>2016-07-25T15:55:06Z</time>
      </trkpt>
      <trkpt lat="41.079200" lon="-3.709200">
        <ele>2296.0</ele>
        <time>2016-07-25T15:55:07Z</time>
      </trkpt>
      <trkpt lat="41.079217" lon="-3.709133">
        <ele>2295.0</ele>
        <time>2016-07-25T15:55:08Z</time>
      </trkpt>
      <trkpt lat="41.079233" lon="-3.709067">
        <ele>2294.0</ele>
        <time>2016-07-25T15:55:09Z</time>
      </trkpt>
      <trkpt lat="41.079250" lon="-3.709017">
        <ele>2292.0</ele>
        <time>2016-07-25T15:55:10Z</time>
      </trkpt>
      <trkpt lat="41.079283" lon="-3.708967">
        <ele>2289.0</ele>
        <time>2016-07-25T15:55:11Z</time>
      </trkpt>
      <trkpt lat="41.079317" lon="-3.708917">
        <ele>2287.0</ele>
        <time>2016-07-25T15:55:12Z</time>
      </trkpt>
      <trkpt lat="41.079333" lon="-3.708867">
        <ele>2286.0</ele>
        <time>2016-07-25T15:55:13Z</time>
      </trkpt>
      <trkpt lat="41.079350" lon="-3.708833">
        <ele>2285.0</ele>
        <time>2016-07-25T15:55:14Z</time>
      </trkpt>
      <trkpt lat="41.079350" lon="-3.708783">
        <ele>2284.0</ele>
        <time>2016-07-25T15:55:15Z</time>
      </trkpt>
      <trkpt lat="41.079367" lon="-3.708750">
        <ele>2281.0</ele>
        <time>2016-07-25T15:55:16Z</time>
      </trkpt>
      <trkpt lat="41.079400" lon="-3.708700">
        <ele>2277.0</ele>
        <time>2016-07-25T15:55:17Z</time>
      </trkpt>
      <trkpt lat="41.079450" lon="-3.708667">
        <ele>2275.0</ele>
        <time>2016-07-25T15:55:18Z</time>
      </trkpt>
      <trkpt lat="41.079500" lon="-3.708600">
        <ele>2275.0</ele>
        <time>2016-07-25T15:55:19Z</time>
      </trkpt>
      <trkpt lat="41.079533" lon="-3.708550">
        <ele>2276.0</ele>
        <time>2016-07-25T15:55:20Z</time>
      </trkpt>
      <trkpt lat="41.079550" lon="-3.708483">
        <ele>2277.0</ele>
        <time>2016-07-25T15:55:21Z</time>
      </trkpt>
      <trkpt lat="41.079567" lon="-3.708417">
        <ele>2276.0</ele>
        <time>2016-07-25T15:55:22Z</time>
      </trkpt>
      <trkpt lat="41.079583" lon="-3.708350">
        <ele>2275.0</ele>
        <time>2016-07-25T15:55:23Z</time>
      </trkpt>
      <trkpt lat="41.079633" lon="-3.708300">
        <ele>2273.0</ele>
        <time>2016-07-25T15:55:24Z</time>
      </trkpt>
      <trkpt lat="41.079667" lon="-3.708233">
        <ele>2272.0</ele>
        <time>2016-07-25T15:55:25Z</time>
      </trkpt>
      <trkpt lat="41.079717" lon="-3.708183">
        <ele>2272.0</ele>
        <time>2016-07-25T15:55:26Z</time>
      </trkpt>
      <trkpt lat="41.079750" lon="-3.708133">
        <ele>2273.0</ele>
        <time>2016-07-25T15:55:27Z</time>
      </trkpt>
      <trkpt lat="41.079783" lon="-3.708083">
        <ele>2274.0</ele>
        <time>2016-07-25T15:55:28Z</time>
      </trkpt>
      <trkpt lat="41.079817" lon="-3.708033">
        <ele>2275.0</ele>
        <time>2016-07-25T15:55:29Z</time>
      </trkpt>
      <trkpt lat="41.079850" lon="-3.707983">
        <ele>2274.0</ele>
        <time>2016-07-25T15:55:30Z</time>
      </trkpt>
      <trkpt lat="41.079883" lon="-3.707933">
        <ele>2274.0</ele>
        <time>2016-07-25T15:55:31Z</time>
      </trkpt>
      <trkpt lat="41.079917" lon="-3.707867">
        <ele>2274.0</ele>
        <time>2016-07-25T15:55:32Z</time>
      </trkpt>
      <trkpt lat="41.079950" lon="-3.707817">
        <ele>2274.0</ele>
        <time>2016-07-25T15:55:33Z</time>
      </trkpt>
      <trkpt lat="41.079983" lon="-3.707767">
        <ele>2275.0</ele>
        <time>2016-07-25T15:55:34Z</time>
      </trkpt>
      <trkpt lat="41.080017" lon="-3.707700">
        <ele>2274.0</ele>
        <time>2016-07-25T15:55:35Z</time>
      </trkpt>
      <trkpt lat="41.080050" lon="-3.707633">
        <ele>2274.0</ele>
        <time>2016-07-25T15:55:36Z</time>
      </trkpt>
      <trkpt lat="41.080100" lon="-3.707567">
        <ele>2275.0</ele>
        <time>2016-07-25T15:55:37Z</time>
      </trkpt>
      <trkpt lat="41.080133" lon="-3.707517">
        <ele>2276.0</ele>
        <time>2016-07-25T15:55:38Z</time>
      </trkpt>
      <trkpt lat="41.080167" lon="-3.707450">
        <ele>2275.0</ele>
        <time>2016-07-25T15:55:39Z</time>
      </trkpt>
      <trkpt lat="41.080217" lon="-3.707400">
        <ele>2274.0</ele>
        <time>2016-07-25T15:55:40Z</time>
      </trkpt>
      <trkpt lat="41.080267" lon="-3.707317">
        <ele>2273.0</ele>
        <time>2016-07-25T15:55:41Z</time>
      </trkpt>
      <trkpt lat="41.080333" lon="-3.707250">
        <ele>2274.0</ele>
        <time>2016-07-25T15:55:42Z</time>
      </trkpt>
      <trkpt lat="41.080383" lon="-3.707200">
        <ele>2276.0</ele>
        <time>2016-07-25T15:55:43Z</time>
      </trkpt>
      <trkpt lat="41.080417" lon="-3.707150">
        <ele>2279.0</ele>
        <time>2016-07-25T15:55:44Z</time>
      </trkpt>
      <trkpt lat="41.080433" lon="-3.707100">
        <ele>2281.0</ele>
        <time>2016-07-25T15:55:45Z</time>
      </trkpt>
      <trkpt lat="41.080450" lon="-3.707050">
        <ele>2281.0</ele>
        <time>2016-07-25T15:55:46Z</time>
      </trkpt>
      <trkpt lat="41.080483" lon="-3.707017">
        <ele>2280.0</ele>
        <time>2016-07-25T15:55:47Z</time>
      </trkpt>
      <trkpt lat="41.080517" lon="-3.706983">
        <ele>2279.0</ele>
        <time>2016-07-25T15:55:48Z</time>
      </trkpt>
      <trkpt lat="41.080583" lon="-3.706967">
        <ele>2279.0</ele>
        <time>2016-07-25T15:55:49Z</time>
      </trkpt>
      <trkpt lat="41.080650" lon="-3.706933">
        <ele>2279.0</ele>
        <time>2016-07-25T15:55:50Z</time>
      </trkpt>
      <trkpt lat="41.080700" lon="-3.706867">
        <ele>2280.0</ele>
        <time>2016-07-25T15:55:51Z</time>
      </trkpt>
      <trkpt lat="41.080750" lon="-3.706817">
        <ele>2282.0</ele>
        <time>2016-07-25T15:55:52Z</time>
      </trkpt>
      <trkpt lat="41.080783" lon="-3.706783">
        <ele>2282.0</ele>
        <time>2016-07-25T15:55:53Z</time>
      </trkpt>
      <trkpt lat="41.080833" lon="-3.706750">
        <ele>2282.0</ele>
        <time>2016-07-25T15:55:54Z</time>
      </trkpt>
      <trkpt lat="41.080900" lon="-3.706733">
        <ele>2282.0</ele>
        <time>2016-07-25T15:55:55Z</time>
      </trkpt>
      <trkpt lat="41.080967" lon="-3.706700">
        <ele>2284.0</ele>
        <time>2016-07-25T15:55:56Z</time>
      </trkpt>
      <trkpt lat="41.081017" lon="-3.706650">
        <ele>2287.0</ele>
        <time>2016-07-25T15:55:57Z</time>
      </trkpt>
      <trkpt lat="41.081050" lon="-3.706617">
        <ele>2290.0</ele>
        <time>2016-07-25T15:55:58Z</time>
      </trkpt>
      <trkpt lat="41.081100" lon="-3.706600">
        <ele>2292.0</ele>
        <time>2016-07-25T15:55:59Z</time>
      </trkpt>
      <trkpt lat="41.081133" lon="-3.706567">
        <ele>2293.0</ele>
        <time>2016-07-25T15:56:00Z</time>
      </trkpt>
      <trkpt lat="41.081183" lon="-3.706550">
        <ele>2295.0</ele>
        <time>2016-07-25T15:56:01Z</time>
      </trkpt>
      <trkpt lat="41.081233" lon="-3.706533">
        <ele>2296.0</ele>
        <time>2016-07-25T15:56:02Z</time>
      </trkpt>
      <trkpt lat="41.081283" lon="-3.706483">
        <ele>2297.0</ele>
        <time>2016-07-25T15:56:03Z</time>
      </trkpt>
      <trkpt lat="41.081350" lon="-3.706450">
        <ele>2299.0</ele>
        <time>2016-07-25T15:56:04Z</time>
      </trkpt>
      <trkpt lat="41.081400" lon="-3.706400">
        <ele>2300.0</ele>
        <time>2016-07-25T15:56:05Z</time>
      </trkpt>
      <trkpt lat="41.081450" lon="-3.706350">
        <ele>2302.0</ele>
        <time>2016-07-25T15:56:06Z</time>
      </trkpt>
      <trkpt lat="41.081500" lon="-3.706317">
        <ele>2304.0</ele>
        <time>2016-07-25T15:56:07Z</time>
      </trkpt>
      <trkpt lat="41.081550" lon="-3.706283">
        <ele>2306.0</ele>
        <time>2016-07-25T15:56:08Z</time>
      </trkpt>
      <trkpt lat="41.081583" lon="-3.706267">
        <ele>2307.0</ele>
        <time>2016-07-25T15:56:09Z</time>
      </trkpt>
      <trkpt lat="41.081633" lon="-3.706250">
        <ele>2309.0</ele>
        <time>2016-07-25T15:56:10Z</time>
      </trkpt>
      <trkpt lat="41.081683" lon="-3.706200">
        <ele>2310.0</ele>
        <time>2016-07-25T15:56:11Z</time>
      </trkpt>
      <trkpt lat="41.081717" lon="-3.706150">
        <ele>2312.0</ele>
        <time>2016-07-25T15:56:12Z</time>
      </trkpt>
      <trkpt lat="41.081750" lon="-3.706100">
        <ele>2314.0</ele>
        <time>2016-07-25T15:56:13Z</time>
      </trkpt>
      <trkpt lat="41.081783" lon="-3.706050">
        <ele>2315.0</ele>
        <time>2016-07-25T15:56:14Z</time>
      </trkpt>
      <trkpt lat="41.081833" lon="-3.706017">
        <ele>2317.0</ele>
        <time>2016-07-25T15:56:15Z</time>
      </trkpt>
      <trkpt lat="41.081883" lon="-3.705983">
        <ele>2319.0</ele>
        <time>2016-07-25T15:56:16Z</time>
      </trkpt>
      <trkpt lat="41.081933" lon="-3.705950">
        <ele>2322.0</ele>
        <time>2016-07-25T15:56:17Z</time>
      </trkpt>
      <trkpt lat="41.081967" lon="-3.705917">
        <ele>2324.0</ele>
        <time>2016-07-25T15:56:18Z</time>
      </trkpt>
      <trkpt lat="41.082017" lon="-3.705883">
        <ele>2326.0</ele>
        <time>2016-07-25T15:56:19Z</time>
      </trkpt>
      <trkpt lat="41.082083" lon="-3.705833">
        <ele>2328.0</ele>
        <time>2016-07-25T15:56:20Z</time>
      </trkpt>
      <trkpt lat="41.082150" lon="-3.705817">
        <ele>2331.0</ele>
        <time>2016-07-25T15:56:21Z</time>
      </trkpt>
      <trkpt lat="41.082200" lon="-3.705783">
        <ele>2335.0</ele>
        <time>2016-07-25T15:56:22Z</time>
      </trkpt>
      <trkpt lat="41.082250" lon="-3.705767">
        <ele>2339.0</ele>
        <time>2016-07-25T15:56:23Z</time>
      </trkpt>
      <trkpt lat="41.082300" lon="-3.705750">
        <ele>2343.0</ele>
        <time>2016-07-25T15:56:24Z</time>
      </trkpt>
      <trkpt lat="41.082333" lon="-3.705717">
        <ele>2347.0</ele>
        <time>2016-07-25T15:56:25Z</time>
      </trkpt>
      <trkpt lat="41.082383" lon="-3.705683">
        <ele>2350.0</ele>
        <time>2016-07-25T15:56:26Z</time>
      </trkpt>
      <trkpt lat="41.082417" lon="-3.705617">
        <ele>2353.0</ele>
        <time>2016-07-25T15:56:27Z</time>
      </trkpt>
      <trkpt lat="41.082467" lon="-3.705533">
        <ele>2356.0</ele>
        <time>2016-07-25T15:56:28Z</time>
      </trkpt>
      <trkpt lat="41.082483" lon="-3.705417">
        <ele>2358.0</ele>
        <time>2016-07-25T15:56:29Z</time>
      </trkpt>
      <trkpt lat="41.082500" lon="-3.705283">
        <ele>2361.0</ele>
        <time>2016-07-25T15:56:30Z</time>
      </trkpt>
      <trkpt lat="41.082483" lon="-3.705133">
        <ele>2363.0</ele>
        <time>2016-07-25T15:56:31Z</time>
      </trkpt>
      <trkpt lat="41.082433" lon="-3.704983">
        <ele>2365.0</ele>
        <time>2016-07-25T15:56:32Z</time>
      </trkpt>
      <trkpt lat="41.082317" lon="-3.704850">
        <ele>2367.0</ele>
        <time>2016-07-25T15:56:33Z</time>
      </trkpt>
      <trkpt lat="41.082183" lon="-3.704767">
        <ele>2370.0</ele>
        <time>2016-07-25T15:56:34Z</time>
      </trkpt>
      <trkpt lat="41.082050" lon="-3.704750">
        <ele>2372.0</ele>
        <time>2016-07-25T15:56:35Z</time>
      </trkpt>
      <trkpt lat="41.081950" lon="-3.704817">
        <ele>2374.0</ele>
        <time>2016-07-25T15:56:36Z</time>
      </trkpt>
      <trkpt lat="41.081900" lon="-3.704900">
        <ele>2376.0</ele>
        <time>2016-07-25T15:56:37Z</time>
      </trkpt>
      <trkpt lat="41.081900" lon="-3.704983">
        <ele>2379.0</ele>
        <time>2016-07-25T15:56:38Z</time>
      </trkpt>
      <trkpt lat="41.081900" lon="-3.705050">
        <ele>2384.0</ele>
        <time>2016-07-25T15:56:39Z</time>
      </trkpt>
      <trkpt lat="41.081917" lon="-3.705083">
        <ele>2388.0</ele>
        <time>2016-07-25T15:56:40Z</time>
      </trkpt>
      <trkpt lat="41.081900" lon="-3.705133">
        <ele>2392.0</ele>
        <time>2016-07-25T15:56:41Z</time>
      </trkpt>
      <trkpt lat="41.081900" lon="-3.705167">
        <ele>2395.0</ele>
        <time>2016-07-25T15:56:42Z</time>
      </trkpt>
      <trkpt lat="41.081917" lon="-3.705200">
        <ele>2396.0</ele>
        <time>2016-07-25T15:56:43Z</time>
      </trkpt>
      <trkpt lat="41.081950" lon="-3.705233">
        <ele>2398.0</ele>
        <time>2016-07-25T15:56:44Z</time>
      </trkpt>
      <trkpt lat="41.081983" lon="-3.705267">
        <ele>2401.0</ele>
        <time>2016-07-25T15:56:45Z</time>
      </trkpt>
      <trkpt lat="41.082000" lon="-3.705250">
        <ele>2405.0</ele>
        <time>2016-07-25T15:56:46Z</time>
      </trkpt>
      <trkpt lat="41.082033" lon="-3.705217">
        <ele>2408.0</ele>
        <time>2016-07-25T15:56:47Z</time>
      </trkpt>
      <trkpt lat="41.082050" lon="-3.705183">
        <ele>2411.0</ele>
        <time>2016-07-25T15:56:48Z</time>
      </trkpt>
      <trkpt lat="41.082083" lon="-3.705167">
        <ele>2413.0</ele>
        <time>2016-07-25T15:56:49Z</time>
      </trkpt>
      <trkpt lat="41.082117" lon="-3.705117">
        <ele>2414.0</ele>
        <time>2016-07-25T15:56:50Z</time>
      </trkpt>
      <trkpt lat="41.082133" lon="-3.705050">
        <ele>2416.0</ele>
        <time>2016-07-25T15:56:51Z</time>
      </trkpt>
      <trkpt lat="41.082150" lon="-3.704933">
        <ele>2417.0</ele>
        <time>2016-07-25T15:56:52Z</time>
      </trkpt>
      <trkpt lat="41.082150" lon="-3.704783">
        <ele>2418.0</ele>
        <time>2016-07-25T15:56:53Z</time>
      </trkpt>
      <trkpt lat="41.082117" lon="-3.704633">
        <ele>2419.0</ele>
        <time>2016-07-25T15:56:54Z</time>
      </trkpt>
      <trkpt lat="41.082067" lon="-3.704467">
        <ele>2421.0</ele>
        <time>2016-07-25T15:56:55Z</time>
      </trkpt>
      <trkpt lat="41.081967" lon="-3.704317">
        <ele>2422.0</ele>
        <time>2016-07-25T15:56:56Z</time>
      </trkpt>
      <trkpt lat="41.081850" lon="-3.704200">
        <ele>2423.0</ele>
        <time>2016-07-25T15:56:57Z</time>
      </trkpt>
      <trkpt lat="41.081717" lon="-3.704117">
        <ele>2423.0</ele>
        <time>2016-07-25T15:56:58Z</time>
      </trkpt>
      <trkpt lat="41.081567" lon="-3.704083">
        <ele>2424.0</ele>
        <time>2016-07-25T15:56:59Z</time>
      </trkpt>
      <trkpt lat="41.081433" lon="-3.704100">
        <ele>2425.0</ele>
        <time>2016-07-25T15:57:00Z</time>
      </trkpt>
      <trkpt lat="41.081317" lon="-3.704150">
        <ele>2426.0</ele>
        <time>2016-07-25T15:57:01Z</time>
      </trkpt>
      <trkpt lat="41.081233" lon="-3.704217">
        <ele>2427.0</ele>
        <time>2016-07-25T15:57:02Z</time>
      </trkpt>
      <trkpt lat="41.081167" lon="-3.704283">
        <ele>2429.0</ele>
        <time>2016-07-25T15:57:03Z</time>
      </trkpt>
      <trkpt lat="41.081117" lon="-3.704350">
        <ele>2431.0</ele>
        <time>2016-07-25T15:57:04Z</time>
      </trkpt>
      <trkpt lat="41.081067" lon="-3.704417">
        <ele>2432.0</ele>
        <time>2016-07-25T15:57:05Z</time>
      </trkpt>
      <trkpt lat="41.081017" lon="-3.704467">
        <ele>2434.0</ele>
        <time>2016-07-25T15:57:06Z</time>
      </trkpt>
      <trkpt lat="41.080983" lon="-3.704533">
        <ele>2435.0</ele>
        <time>2016-07-25T15:57:07Z</time>
      </trkpt>
      <trkpt lat="41.080983" lon="-3.704583">
        <ele>2436.0</ele>
        <time>2016-07-25T15:57:08Z</time>
      </trkpt>
      <trkpt lat="41.080983" lon="-3.704617">
        <ele>2437.0</ele>
        <time>2016-07-25T15:57:09Z</time>
      </trkpt>
      <trkpt lat="41.081000" lon="-3.704650">
        <ele>2437.0</ele>
        <time>2016-07-25T15:57:10Z</time>
      </trkpt>
      <trkpt lat="41.081033" lon="-3.704683">
        <ele>2437.0</ele>
        <time>2016-07-25T15:57:11Z</time>
      </trkpt>
      <trkpt lat="41.081067" lon="-3.704683">
        <ele>2439.0</ele>
        <time>2016-07-25T15:57:12Z</time>
      </trkpt>
      <trkpt lat="41.081100" lon="-3.704667">
        <ele>2441.0</ele>
        <time>2016-07-25T15:57:13Z</time>
      </trkpt>
      <trkpt lat="41.081133" lon="-3.704633">
        <ele>2443.0</ele>
        <time>2016-07-25T15:57:14Z</time>
      </trkpt>
      <trkpt lat="41.081167" lon="-3.704600">
        <ele>2445.0</ele>
        <time>2016-07-25T15:57:15Z</time>
      </trkpt>
      <trkpt lat="41.081183" lon="-3.704550">
        <ele>2446.0</ele>
        <time>2016-07-25T15:57:16Z</time>
      </trkpt>
      <trkpt lat="41.081200" lon="-3.704517">
        <ele>2447.0</ele>
        <time>2016-07-25T15:57:17Z</time>
      </trkpt>
      <trkpt lat="41.081233" lon="-3.704483">
        <ele>2448.0</ele>
        <time>2016-07-25T15:57:18Z</time>
      </trkpt>
      <trkpt lat="41.081267" lon="-3.704433">
        <ele>2449.0</ele>
        <time>2016-07-25T15:57:19Z</time>
      </trkpt>
      <trkpt lat="41.081283" lon="-3.704367">
        <ele>2450.0</ele>
        <time>2016-07-25T15:57:20Z</time>
      </trkpt>
      <trkpt lat="41.081300" lon="-3.704300">
        <ele>2452.0</ele>
        <time>2016-07-25T15:57:21Z</time>
      </trkpt>
      <trkpt lat="41.081317" lon="-3.704233">
        <ele>2453.0</ele>
        <time>2016-07-25T15:57:22Z</time>
      </trkpt>
      <trkpt lat="41.081333" lon="-3.704150">
        <ele>2453.0</ele>
        <time>2016-07-25T15:57:23Z</time>
      </trkpt>
      <trkpt lat="41.081350" lon="-3.704083">
        <ele>2453.0</ele>
        <time>2016-07-25T15:57:24Z</time>
      </trkpt>
      <trkpt lat="41.081367" lon="-3.703983">
        <ele>2453.0</ele>
        <time>2016-07-25T15:57:25Z</time>
      </trkpt>
      <trkpt lat="41.081400" lon="-3.703867">
        <ele>2454.0</ele>
        <time>2016-07-25T15:57:26Z</time>
      </trkpt>
      <trkpt lat="41.081417" lon="-3.703767">
        <ele>2454.0</ele>
        <time>2016-07-25T15:57:27Z</time>
      </trkpt>
      <trkpt lat="41.081433" lon="-3.703667">
        <ele>2454.0</ele>
        <time>2016-07-25T15:57:28Z</time>
      </trkpt>
      <trkpt lat="41.081450" lon="-3.703567">
        <ele>2453.0</ele>
        <time>2016-07-25T15:57:29Z</time>
      </trkpt>
      <trkpt lat="41.081483" lon="-3.703467">
        <ele>2452.0</ele>
        <time>2016-07-25T15:57:30Z</time>
      </trkpt>
      <trkpt lat="41.081517" lon="-3.703367">
        <ele>2452.0</ele>
        <time>2016-07-25T15:57:31Z</time>
      </trkpt>
      <trkpt lat="41.081550" lon="-3.703267">
        <ele>2451.0</ele>
        <time>2016-07-25T15:57:32Z</time>
      </trkpt>
      <trkpt lat="41.081583" lon="-3.703167">
        <ele>2451.0</ele>
        <time>2016-07-25T15:57:33Z</time>
      </trkpt>
      <trkpt lat="41.081617" lon="-3.703067">
        <ele>2451.0</ele>
        <time>2016-07-25T15:57:34Z</time>
      </trkpt>
      <trkpt lat="41.081633" lon="-3.702967">
        <ele>2451.0</ele>
        <time>2016-07-25T15:57:35Z</time>
      </trkpt>
      <trkpt lat="41.081667" lon="-3.702867">
        <ele>2452.0</ele>
        <time>2016-07-25T15:57:36Z</time>
      </trkpt>
      <trkpt lat="41.081683" lon="-3.702783">
        <ele>2452.0</ele>
        <time>2016-07-25T15:57:37Z</time>
      </trkpt>
      <trkpt lat="41.081700" lon="-3.702683">
        <ele>2452.0</ele>
        <time>2016-07-25T15:57:38Z</time>
      </trkpt>
      <trkpt lat="41.081733" lon="-3.702600">
        <ele>2451.0</ele>
        <time>2016-07-25T15:57:39Z</time>
      </trkpt>
      <trkpt lat="41.081767" lon="-3.702533">
        <ele>2450.0</ele>
        <time>2016-07-25T15:57:40Z</time>
      </trkpt>
      <trkpt lat="41.081800" lon="-3.702450">
        <ele>2449.0</ele>
        <time>2016-07-25T15:57:41Z</time>
      </trkpt>
      <trkpt lat="41.081833" lon="-3.702367">
        <ele>2448.0</ele>
        <time>2016-07-25T15:57:42Z</time>
      </trkpt>
      <trkpt lat="41.081883" lon="-3.702267">
        <ele>2447.0</ele>
        <time>2016-07-25T15:57:43Z</time>
      </trkpt>
      <trkpt lat="41.081917" lon="-3.702183">
        <ele>2447.0</ele>
        <time>2016-07-25T15:57:44Z</time>
      </trkpt>
      <trkpt lat="41.081950" lon="-3.702100">
        <ele>2446.0</ele>
        <time>2016-07-25T15:57:45Z</time>
      </trkpt>
      <trkpt lat="41.082000" lon="-3.702033">
        <ele>2444.0</ele>
        <time>2016-07-25T15:57:46Z</time>
      </trkpt>
      <trkpt lat="41.082050" lon="-3.701967">
        <ele>2442.0</ele>
        <time>2016-07-25T15:57:47Z</time>
      </trkpt>
      <trkpt lat="41.082083" lon="-3.701900">
        <ele>2440.0</ele>
        <time>2016-07-25T15:57:48Z</time>
      </trkpt>
      <trkpt lat="41.082133" lon="-3.701817">
        <ele>2438.0</ele>
        <time>2016-07-25T15:57:49Z</time>
      </trkpt>
      <trkpt lat="41.082183" lon="-3.701750">
        <ele>2437.0</ele>
        <time>2016-07-25T15:57:50Z</time>
      </trkpt>
      <trkpt lat="41.082217" lon="-3.701667">
        <ele>2435.0</ele>
        <time>2016-07-25T15:57:51Z</time>
      </trkpt>
      <trkpt lat="41.082267" lon="-3.701600">
        <ele>2433.0</ele>
        <time>2016-07-25T15:57:52Z</time>
      </trkpt>
      <trkpt lat="41.082300" lon="-3.701533">
        <ele>2431.0</ele>
        <time>2016-07-25T15:57:53Z</time>
      </trkpt>
      <trkpt lat="41.082350" lon="-3.701467">
        <ele>2430.0</ele>
        <time>2016-07-25T15:57:54Z</time>
      </trkpt>
      <trkpt lat="41.082400" lon="-3.701400">
        <ele>2428.0</ele>
        <time>2016-07-25T15:57:55Z</time>
      </trkpt>
      <trkpt lat="41.082433" lon="-3.701333">
        <ele>2426.0</ele>
        <time>2016-07-25T15:57:56Z</time>
      </trkpt>
      <trkpt lat="41.082467" lon="-3.701267">
        <ele>2423.0</ele>
        <time>2016-07-25T15:57:57Z</time>
      </trkpt>
      <trkpt lat="41.082517" lon="-3.701183">
        <ele>2421.0</ele>
        <time>2016-07-25T15:57:58Z</time>
      </trkpt>
      <trkpt lat="41.082567" lon="-3.701117">
        <ele>2419.0</ele>
        <time>2016-07-25T15:57:59Z</time>
      </trkpt>
      <trkpt lat="41.082600" lon="-3.701050">
        <ele>2418.0</ele>
        <time>2016-07-25T15:58:00Z</time>
      </trkpt>
      <trkpt lat="41.082633" lon="-3.701000">
        <ele>2417.0</ele>
        <time>2016-07-25T15:58:01Z</time>
      </trkpt>
      <trkpt lat="41.082667" lon="-3.700950">
        <ele>2416.0</ele>
        <time>2016-07-25T15:58:02Z</time>
      </trkpt>
      <trkpt lat="41.082700" lon="-3.700883">
        <ele>2414.0</ele>
        <time>2016-07-25T15:58:03Z</time>
      </trkpt>
      <trkpt lat="41.082750" lon="-3.700833">
        <ele>2412.0</ele>
        <time>2016-07-25T15:58:04Z</time>
      </trkpt>
      <trkpt lat="41.082800" lon="-3.700783">
        <ele>2410.0</ele>
        <time>2016-07-25T15:58:05Z</time>
      </trkpt>
      <trkpt lat="41.082833" lon="-3.700733">
        <ele>2409.0</ele>
        <time>2016-07-25T15:58:06Z</time>
      </trkpt>
      <trkpt lat="41.082883" lon="-3.700700">
        <ele>2408.0</ele>
        <time>2016-07-25T15:58:07Z</time>
      </trkpt>
      <trkpt lat="41.082917" lon="-3.700650">
        <ele>2408.0</ele>
        <time>2016-07-25T15:58:08Z</time>
      </trkpt>
      <trkpt lat="41.082967" lon="-3.700600">
        <ele>2408.0</ele>
        <time>2016-07-25T15:58:09Z</time>
      </trkpt>
      <trkpt lat="41.083017" lon="-3.700550">
        <ele>2408.0</ele>
        <time>2016-07-25T15:58:10Z</time>
      </trkpt>
      <trkpt lat="41.083050" lon="-3.700500">
        <ele>2407.0</ele>
        <time>2016-07-25T15:58:11Z</time>
      </trkpt>
      <trkpt lat="41.083100" lon="-3.700467">
        <ele>2407.0</ele>
        <time>2016-07-25T15:58:12Z</time>
      </trkpt>
      <trkpt lat="41.083150" lon="-3.700433">
        <ele>2406.0</ele>
        <time>2016-07-25T15:58:13Z</time>
      </trkpt>
      <trkpt lat="41.083217" lon="-3.700367">
        <ele>2404.0</ele>
        <time>2016-07-25T15:58:14Z</time>
      </trkpt>
      <trkpt lat="41.083267" lon="-3.700300">
        <ele>2403.0</ele>
        <time>2016-07-25T15:58:15Z</time>
      </trkpt>
      <trkpt lat="41.083333" lon="-3.700233">
        <ele>2402.0</ele>
        <time>2016-07-25T15:58:16Z</time>
      </trkpt>
      <trkpt lat="41.083400" lon="-3.700167">
        <ele>2402.0</ele>
        <time>2016-07-25T15:58:17Z</time>
      </trkpt>
      <trkpt lat="41.083450" lon="-3.700100">
        <ele>2403.0</ele>
        <time>2016-07-25T15:58:18Z</time>
      </trkpt>
      <trkpt lat="41.083500" lon="-3.700033">
        <ele>2404.0</ele>
        <time>2016-07-25T15:58:19Z</time>
      </trkpt>
      <trkpt lat="41.083533" lon="-3.699983">
        <ele>2403.0</ele>
        <time>2016-07-25T15:58:20Z</time>
      </trkpt>
      <trkpt lat="41.083583" lon="-3.699933">
        <ele>2402.0</ele>
        <time>2016-07-25T15:58:21Z</time>
      </trkpt>
      <trkpt lat="41.083650" lon="-3.699867">
        <ele>2401.0</ele>
        <time>2016-07-25T15:58:22Z</time>
      </trkpt>
      <trkpt lat="41.083717" lon="-3.699800">
        <ele>2401.0</ele>
        <time>2016-07-25T15:58:23Z</time>
      </trkpt>
      <trkpt lat="41.083767" lon="-3.699733">
        <ele>2403.0</ele>
        <time>2016-07-25T15:58:24Z</time>
      </trkpt>
      <trkpt lat="41.083817" lon="-3.699667">
        <ele>2405.0</ele>
        <time>2016-07-25T15:58:25Z</time>
      </trkpt>
      <trkpt lat="41.083850" lon="-3.699600">
        <ele>2405.0</ele>
        <time>2016-07-25T15:58:26Z</time>
      </trkpt>
      <trkpt lat="41.083883" lon="-3.699550">
        <ele>2405.0</ele>
        <time>2016-07-25T15:58:27Z</time>
      </trkpt>
      <trkpt lat="41.083933" lon="-3.699500">
        <ele>2404.0</ele>
        <time>2016-07-25T15:58:28Z</time>
      </trkpt>
      <trkpt lat="41.083967" lon="-3.699450">
        <ele>2405.0</ele>
        <time>2016-07-25T15:58:29Z</time>
      </trkpt>
      <trkpt lat="41.084017" lon="-3.699400">
        <ele>2406.0</ele>
        <time>2016-07-25T15:58:30Z</time>
      </trkpt>
      <trkpt lat="41.084050" lon="-3.699367">
        <ele>2407.0</ele>
        <time>2016-07-25T15:58:31Z</time>
      </trkpt>
      <trkpt lat="41.084083" lon="-3.699333">
        <ele>2407.0</ele>
        <time>2016-07-25T15:58:32Z</time>
      </trkpt>
      <trkpt lat="41.084133" lon="-3.699300">
        <ele>2407.0</ele>
        <time>2016-07-25T15:58:33Z</time>
      </trkpt>
      <trkpt lat="41.084183" lon="-3.699267">
        <ele>2407.0</ele>
        <time>2016-07-25T15:58:34Z</time>
      </trkpt>
      <trkpt lat="41.084250" lon="-3.699233">
        <ele>2407.0</ele>
        <time>2016-07-25T15:58:35Z</time>
      </trkpt>
      <trkpt lat="41.084300" lon="-3.699200">
        <ele>2408.0</ele>
        <time>2016-07-25T15:58:36Z</time>
      </trkpt>
      <trkpt lat="41.084350" lon="-3.699167">
        <ele>2408.0</ele>
        <time>2016-07-25T15:58:37Z</time>
      </trkpt>
      <trkpt lat="41.084400" lon="-3.699117">
        <ele>2408.0</ele>
        <time>2016-07-25T15:58:38Z</time>
      </trkpt>
      <trkpt lat="41.084450" lon="-3.699083">
        <ele>2407.0</ele>
        <time>2016-07-25T15:58:39Z</time>
      </trkpt>
      <trkpt lat="41.084500" lon="-3.699033">
        <ele>2406.0</ele>
        <time>2016-07-25T15:58:40Z</time>
      </trkpt>
      <trkpt lat="41.084550" lon="-3.699000">
        <ele>2405.0</ele>
        <time>2016-07-25T15:58:41Z</time>
      </trkpt>
      <trkpt lat="41.084600" lon="-3.698950">
        <ele>2404.0</ele>
        <time>2016-07-25T15:58:42Z</time>
      </trkpt>
      <trkpt lat="41.084650" lon="-3.698900">
        <ele>2403.0</ele>
        <time>2016-07-25T15:58:43Z</time>
      </trkpt>
      <trkpt lat="41.084700" lon="-3.698850">
        <ele>2402.0</ele>
        <time>2016-07-25T15:58:44Z</time>
      </trkpt>
      <trkpt lat="41.084733" lon="-3.698800">
        <ele>2401.0</ele>
        <time>2016-07-25T15:58:45Z</time>
      </trkpt>
      <trkpt lat="41.084800" lon="-3.698750">
        <ele>2399.0</ele>
        <time>2016-07-25T15:58:46Z</time>
      </trkpt>
      <trkpt lat="41.084850" lon="-3.698700">
        <ele>2399.0</ele>
        <time>2016-07-25T15:58:47Z</time>
      </trkpt>
      <trkpt lat="41.084883" lon="-3.698667">
        <ele>2398.0</ele>
        <time>2016-07-25T15:58:48Z</time>
      </trkpt>
      <trkpt lat="41.084933" lon="-3.698600">
        <ele>2397.0</ele>
        <time>2016-07-25T15:58:49Z</time>
      </trkpt>
      <trkpt lat="41.084967" lon="-3.698550">
        <ele>2396.0</ele>
        <time>2016-07-25T15:58:50Z</time>
      </trkpt>
      <trkpt lat="41.085000" lon="-3.698483">
        <ele>2394.0</ele>
        <time>2016-07-25T15:58:51Z</time>
      </trkpt>
      <trkpt lat="41.085050" lon="-3.698417">
        <ele>2393.0</ele>
        <time>2016-07-25T15:58:52Z</time>
      </trkpt>
      <trkpt lat="41.085100" lon="-3.698350">
        <ele>2393.0</ele>
        <time>2016-07-25T15:58:53Z</time>
      </trkpt>
      <trkpt lat="41.085133" lon="-3.698267">
        <ele>2392.0</ele>
        <time>2016-07-25T15:58:54Z</time>
      </trkpt>
      <trkpt lat="41.085167" lon="-3.698200">
        <ele>2392.0</ele>
        <time>2016-07-25T15:58:55Z</time>
      </trkpt>
      <trkpt lat="41.085183" lon="-3.698150">
        <ele>2391.0</ele>
        <time>2016-07-25T15:58:56Z</time>
      </trkpt>
      <trkpt lat="41.085217" lon="-3.698100">
        <ele>2389.0</ele>
        <time>2016-07-25T15:58:57Z</time>
      </trkpt>
      <trkpt lat="41.085267" lon="-3.698033">
        <ele>2387.0</ele>
        <time>2016-07-25T15:58:58Z</time>
      </trkpt>
      <trkpt lat="41.085317" lon="-3.697967">
        <ele>2385.0</ele>
        <time>2016-07-25T15:58:59Z</time>
      </trkpt>
      <trkpt lat="41.085350" lon="-3.697867">
        <ele>2385.0</ele>
        <time>2016-07-25T15:59:00Z</time>
      </trkpt>
      <trkpt lat="41.085383" lon="-3.697767">
        <ele>2385.0</ele>
        <time>2016-07-25T15:59:01Z</time>
      </trkpt>
      <trkpt lat="41.085417" lon="-3.697683">
        <ele>2386.0</ele>
        <time>2016-07-25T15:59:02Z</time>
      </trkpt>
      <trkpt lat="41.085450" lon="-3.697583">
        <ele>2386.0</ele>
        <time>2016-07-25T15:59:03Z</time>
      </trkpt>
      <trkpt lat="41.085467" lon="-3.697500">
        <ele>2385.0</ele>
        <time>2016-07-25T15:59:04Z</time>
      </trkpt>
      <trkpt lat="41.085500" lon="-3.697400">
        <ele>2383.0</ele>
        <time>2016-07-25T15:59:05Z</time>
      </trkpt>
      <trkpt lat="41.085533" lon="-3.697300">
        <ele>2382.0</ele>
        <time>2016-07-25T15:59:06Z</time>
      </trkpt>
      <trkpt lat="41.085583" lon="-3.697217">
        <ele>2381.0</ele>
        <time>2016-07-25T15:59:07Z</time>
      </trkpt>
      <trkpt lat="41.085617" lon="-3.697150">
        <ele>2381.0</ele>
        <time>2016-07-25T15:59:08Z</time>
      </trkpt>
      <trkpt lat="41.085667" lon="-3.697083">
        <ele>2381.0</ele>
        <time>2016-07-25T15:59:09Z</time>
      </trkpt>
      <trkpt lat="41.085700" lon="-3.697017">
        <ele>2381.0</ele>
        <time>2016-07-25T15:59:10Z</time>
      </trkpt>
      <trkpt lat="41.085733" lon="-3.696950">
        <ele>2380.0</ele>
        <time>2016-07-25T15:59:11Z</time>
      </trkpt>
      <trkpt lat="41.085767" lon="-3.696867">
        <ele>2380.0</ele>
        <time>2016-07-25T15:59:12Z</time>
      </trkpt>
      <trkpt lat="41.085817" lon="-3.696817">
        <ele>2380.0</ele>
        <time>2016-07-25T15:59:13Z</time>
      </trkpt>
      <trkpt lat="41.085850" lon="-3.696767">
        <ele>2380.0</ele>
        <time>2016-07-25T15:59:14Z</time>
      </trkpt>
      <trkpt lat="41.085883" lon="-3.696733">
        <ele>2381.0</ele>
        <time>2016-07-25T15:59:15Z</time>
      </trkpt>
      <trkpt lat="41.085933" lon="-3.696683">
        <ele>2380.0</ele>
        <time>2016-07-25T15:59:16Z</time>
      </trkpt>
      <trkpt lat="41.085967" lon="-3.696633">
        <ele>2380.0</ele>
        <time>2016-07-25T15:59:17Z</time>
      </trkpt>
      <trkpt lat="41.086017" lon="-3.696583">
        <ele>2380.0</ele>
        <time>2016-07-25T15:59:18Z</time>
      </trkpt>
      <trkpt lat="41.086067" lon="-3.696517">
        <ele>2380.0</ele>
        <time>2016-07-25T15:59:19Z</time>
      </trkpt>
      <trkpt lat="41.086117" lon="-3.696467">
        <ele>2379.0</ele>
        <time>2016-07-25T15:59:20Z</time>
      </trkpt>
      <trkpt lat="41.086150" lon="-3.696417">
        <ele>2378.0</ele>
        <time>2016-07-25T15:59:21Z</time>
      </trkpt>
      <trkpt lat="41.086200" lon="-3.696367">
        <ele>2376.0</ele>
        <time>2016-07-25T15:59:22Z</time>
      </trkpt>
      <trkpt lat="41.086233" lon="-3.696300">
        <ele>2375.0</ele>
        <time>2016-07-25T15:59:23Z</time>
      </trkpt>
      <trkpt lat="41.086283" lon="-3.696217">
        <ele>2375.0</ele>
        <time>2016-07-25T15:59:24Z</time>
      </trkpt>
      <trkpt lat="41.086317" lon="-3.696167">
        <ele>2374.0</ele>
        <time>2016-07-25T15:59:25Z</time>
      </trkpt>
      <trkpt lat="41.086333" lon="-3.696100">
        <ele>2374.0</ele>
        <time>2016-07-25T15:59:26Z</time>
      </trkpt>
      <trkpt lat="41.086367" lon="-3.696050">
        <ele>2372.0</ele>
        <time>2016-07-25T15:59:27Z</time>
      </trkpt>
      <trkpt lat="41.086400" lon="-3.695983">
        <ele>2371.0</ele>
        <time>2016-07-25T15:59:28Z</time>
      </trkpt>
      <trkpt lat="41.086433" lon="-3.695917">
        <ele>2371.0</ele>
        <time>2016-07-25T15:59:29Z</time>
      </trkpt>
      <trkpt lat="41.086450" lon="-3.695867">
        <ele>2370.0</ele>
        <time>2016-07-25T15:59:30Z</time>
      </trkpt>
      <trkpt lat="41.086467" lon="-3.695817">
        <ele>2368.0</ele>
        <time>2016-07-25T15:59:31Z</time>
      </trkpt>
      <trkpt lat="41.086483" lon="-3.695783">
        <ele>2366.0</ele>
        <time>2016-07-25T15:59:32Z</time>
      </trkpt>
      <trkpt lat="41.086517" lon="-3.695733">
        <ele>2364.0</ele>
        <time>2016-07-25T15:59:33Z</time>
      </trkpt>
      <trkpt lat="41.086533" lon="-3.695683">
        <ele>2361.0</ele>
        <time>2016-07-25T15:59:34Z</time>
      </trkpt>
      <trkpt lat="41.086567" lon="-3.695617">
        <ele>2358.0</ele>
        <time>2016-07-25T15:59:35Z</time>
      </trkpt>
      <trkpt lat="41.086600" lon="-3.695533">
        <ele>2357.0</ele>
        <time>2016-07-25T15:59:36Z</time>
      </trkpt>
      <trkpt lat="41.086633" lon="-3.695450">
        <ele>2355.0</ele>
        <time>2016-07-25T15:59:37Z</time>
      </trkpt>
      <trkpt lat="41.086650" lon="-3.695367">
        <ele>2353.0</ele>
        <time>2016-07-25T15:59:38Z</time>
      </trkpt>
      <trkpt lat="41.086667" lon="-3.695267">
        <ele>2351.0</ele>
        <time>2016-07-25T15:59:39Z</time>
      </trkpt>
      <trkpt lat="41.086683" lon="-3.695167">
        <ele>2349.0</ele>
        <time>2016-07-25T15:59:40Z</time>
      </trkpt>
      <trkpt lat="41.086700" lon="-3.695067">
        <ele>2347.0</ele>
        <time>2016-07-25T15:59:41Z</time>
      </trkpt>
      <trkpt lat="41.086717" lon="-3.694950">
        <ele>2345.0</ele>
        <time>2016-07-25T15:59:42Z</time>
      </trkpt>
      <trkpt lat="41.086733" lon="-3.694850">
        <ele>2344.0</ele>
        <time>2016-07-25T15:59:43Z</time>
      </trkpt>
      <trkpt lat="41.086750" lon="-3.694750">
        <ele>2343.0</ele>
        <time>2016-07-25T15:59:44Z</time>
      </trkpt>
      <trkpt lat="41.086767" lon="-3.694650">
        <ele>2342.0</ele>
        <time>2016-07-25T15:59:45Z</time>
      </trkpt>
      <trkpt lat="41.086783" lon="-3.694550">
        <ele>2340.0</ele>
        <time>2016-07-25T15:59:46Z</time>
      </trkpt>
      <trkpt lat="41.086817" lon="-3.694450">
        <ele>2337.0</ele>
        <time>2016-07-25T15:59:47Z</time>
      </trkpt>
      <trkpt lat="41.086833" lon="-3.694333">
        <ele>2335.0</ele>
        <time>2016-07-25T15:59:48Z</time>
      </trkpt>
      <trkpt lat="41.086850" lon="-3.694217">
        <ele>2333.0</ele>
        <time>2016-07-25T15:59:49Z</time>
      </trkpt>
      <trkpt lat="41.086883" lon="-3.694117">
        <ele>2331.0</ele>
        <time>2016-07-25T15:59:50Z</time>
      </trkpt>
      <trkpt lat="41.086917" lon="-3.694000">
        <ele>2329.0</ele>
        <time>2016-07-25T15:59:51Z</time>
      </trkpt>
      <trkpt lat="41.086933" lon="-3.693900">
        <ele>2328.0</ele>
        <time>2016-07-25T15:59:52Z</time>
      </trkpt>
      <trkpt lat="41.086967" lon="-3.693800">
        <ele>2326.0</ele>
        <time>2016-07-25T15:59:53Z</time>
      </trkpt>
      <trkpt lat="41.087000" lon="-3.693700">
        <ele>2324.0</ele>
        <time>2016-07-25T15:59:54Z</time>
      </trkpt>
      <trkpt lat="41.087033" lon="-3.693600">
        <ele>2322.0</ele>
        <time>2016-07-25T15:59:55Z</time>
      </trkpt>
      <trkpt lat="41.087067" lon="-3.693500">
        <ele>2320.0</ele>
        <time>2016-07-25T15:59:56Z</time>
      </trkpt>
      <trkpt lat="41.087100" lon="-3.693400">
        <ele>2318.0</ele>
        <time>2016-07-25T15:59:57Z</time>
      </trkpt>
      <trkpt lat="41.087133" lon="-3.693283">
        <ele>2316.0</ele>
        <time>2016-07-25T15:59:58Z</time>
      </trkpt>
      <trkpt lat="41.087167" lon="-3.693167">
        <ele>2314.0</ele>
        <time>2016-07-25T15:59:59Z</time>
      </trkpt>
      <trkpt lat="41.087183" lon="-3.693050">
        <ele>2313.0</ele>
        <time>2016-07-25T16:00:00Z</time>
      </trkpt>
      <trkpt lat="41.087217" lon="-3.692917">
        <ele>2312.0</ele>
        <time>2016-07-25T16:00:01Z</time>
      </trkpt>
      <trkpt lat="41.087267" lon="-3.692800">
        <ele>2311.0</ele>
        <time>2016-07-25T16:00:02Z</time>
      </trkpt>
      <trkpt lat="41.087300" lon="-3.692700">
        <ele>2312.0</ele>
        <time>2016-07-25T16:00:03Z</time>
      </trkpt>
      <trkpt lat="41.087333" lon="-3.692617">
        <ele>2312.0</ele>
        <time>2016-07-25T16:00:04Z</time>
      </trkpt>
      <trkpt lat="41.087350" lon="-3.692533">
        <ele>2312.0</ele>
        <time>2016-07-25T16:00:05Z</time>
      </trkpt>
      <trkpt lat="41.087383" lon="-3.692467">
        <ele>2311.0</ele>
        <time>2016-07-25T16:00:06Z</time>
      </trkpt>
      <trkpt lat="41.087417" lon="-3.692383">
        <ele>2310.0</ele>
        <time>2016-07-25T16:00:07Z</time>
      </trkpt>
      <trkpt lat="41.087450" lon="-3.692300">
        <ele>2308.0</ele>
        <time>2016-07-25T16:00:08Z</time>
      </trkpt>
      <trkpt lat="41.087483" lon="-3.692217">
        <ele>2307.0</ele>
        <time>2016-07-25T16:00:09Z</time>
      </trkpt>
      <trkpt lat="41.087533" lon="-3.692150">
        <ele>2306.0</ele>
        <time>2016-07-25T16:00:10Z</time>
      </trkpt>
      <trkpt lat="41.087567" lon="-3.692083">
        <ele>2306.0</ele>
        <time>2016-07-25T16:00:11Z</time>
      </trkpt>
      <trkpt lat="41.087600" lon="-3.692017">
        <ele>2305.0</ele>
        <time>2016-07-25T16:00:12Z</time>
      </trkpt>
      <trkpt lat="41.087633" lon="-3.691950">
        <ele>2304.0</ele>
        <time>2016-07-25T16:00:13Z</time>
      </trkpt>
      <trkpt lat="41.087683" lon="-3.691883">
        <ele>2303.0</ele>
        <time>2016-07-25T16:00:14Z</time>
      </trkpt>
      <trkpt lat="41.087717" lon="-3.691817">
        <ele>2303.0</ele>
        <time>2016-07-25T16:00:15Z</time>
      </trkpt>
      <trkpt lat="41.087733" lon="-3.691750">
        <ele>2303.0</ele>
        <time>2016-07-25T16:00:16Z</time>
      </trkpt>
      <trkpt lat="41.087767" lon="-3.691700">
        <ele>2302.0</ele>
        <time>2016-07-25T16:00:17Z</time>
      </trkpt>
      <trkpt lat="41.087800" lon="-3.691650">
        <ele>2300.0</ele>
        <time>2016-07-25T16:00:18Z</time>
      </trkpt>
      <trkpt lat="41.087850" lon="-3.691600">
        <ele>2298.0</ele>
        <time>2016-07-25T16:00:19Z</time>
      </trkpt>
      <trkpt lat="41.087883" lon="-3.691533">
        <ele>2296.0</ele>
        <time>2016-07-25T16:00:20Z</time>
      </trkpt>
      <trkpt lat="41.087933" lon="-3.691467">
        <ele>2295.0</ele>
        <time>2016-07-25T16:00:21Z</time>
      </trkpt>
      <trkpt lat="41.087967" lon="-3.691383">
        <ele>2294.0</ele>
        <time>2016-07-25T16:00:22Z</time>
      </trkpt>
      <trkpt lat="41.088000" lon="-3.691333">
        <ele>2293.0</ele>
        <time>2016-07-25T16:00:23Z</time>
      </trkpt>
      <trkpt lat="41.088033" lon="-3.691283">
        <ele>2292.0</ele>
        <time>2016-07-25T16:00:24Z</time>
      </trkpt>
      <trkpt lat="41.088083" lon="-3.691217">
        <ele>2290.0</ele>
        <time>2016-07-25T16:00:25Z</time>
      </trkpt>
      <trkpt lat="41.088117" lon="-3.691150">
        <ele>2288.0</ele>
        <time>2016-07-25T16:00:26Z</time>
      </trkpt>
      <trkpt lat="41.088150" lon="-3.691083">
        <ele>2287.0</ele>
        <time>2016-07-25T16:00:27Z</time>
      </trkpt>
      <trkpt lat="41.088200" lon="-3.691033">
        <ele>2285.0</ele>
        <time>2016-07-25T16:00:28Z</time>
      </trkpt>
      <trkpt lat="41.088233" lon="-3.690967">
        <ele>2283.0</ele>
        <time>2016-07-25T16:00:29Z</time>
      </trkpt>
      <trkpt lat="41.088267" lon="-3.690900">
        <ele>2281.0</ele>
        <time>2016-07-25T16:00:30Z</time>
      </trkpt>
      <trkpt lat="41.088300" lon="-3.690833">
        <ele>2279.0</ele>
        <time>2016-07-25T16:00:31Z</time>
      </trkpt>
      <trkpt lat="41.088350" lon="-3.690767">
        <ele>2276.0</ele>
        <time>2016-07-25T16:00:32Z</time>
      </trkpt>
      <trkpt lat="41.088400" lon="-3.690683">
        <ele>2274.0</ele>
        <time>2016-07-25T16:00:33Z</time>
      </trkpt>
      <trkpt lat="41.088450" lon="-3.690600">
        <ele>2272.0</ele>
        <time>2016-07-25T16:00:34Z</time>
      </trkpt>
      <trkpt lat="41.088483" lon="-3.690550">
        <ele>2272.0</ele>
        <time>2016-07-25T16:00:35Z</time>
      </trkpt>
      <trkpt lat="41.088517" lon="-3.690500">
        <ele>2273.0</ele>
        <time>2016-07-25T16:00:36Z</time>
      </trkpt>
      <trkpt lat="41.088533" lon="-3.690450">
        <ele>2273.0</ele>
        <time>2016-07-25T16:00:37Z</time>
      </trkpt>
      <trkpt lat="41.088567" lon="-3.690417">
        <ele>2272.0</ele>
        <time>2016-07-25T16:00:38Z</time>
      </trkpt>
      <trkpt lat="41.088600" lon="-3.690350">
        <ele>2269.0</ele>
        <time>2016-07-25T16:00:39Z</time>
      </trkpt>
      <trkpt lat="41.088633" lon="-3.690300">
        <ele>2267.0</ele>
        <time>2016-07-25T16:00:40Z</time>
      </trkpt>
      <trkpt lat="41.088683" lon="-3.690250">
        <ele>2266.0</ele>
        <time>2016-07-25T16:00:41Z</time>
      </trkpt>
      <trkpt lat="41.088717" lon="-3.690200">
        <ele>2266.0</ele>
        <time>2016-07-25T16:00:42Z</time>
      </trkpt>
      <trkpt lat="41.088767" lon="-3.690167">
        <ele>2265.0</ele>
        <time>2016-07-25T16:00:43Z</time>
      </trkpt>
      <trkpt lat="41.088800" lon="-3.690133">
        <ele>2264.0</ele>
        <time>2016-07-25T16:00:44Z</time>
      </trkpt>
      <trkpt lat="41.088817" lon="-3.690083">
        <ele>2262.0</ele>
        <time>2016-07-25T16:00:45Z</time>
      </trkpt>
      <trkpt lat="41.088867" lon="-3.690017">
        <ele>2260.0</ele>
        <time>2016-07-25T16:00:46Z</time>
      </trkpt>
      <trkpt lat="41.088917" lon="-3.689967">
        <ele>2258.0</ele>
        <time>2016-07-25T16:00:47Z</time>
      </trkpt>
      <trkpt lat="41.088967" lon="-3.689900">
        <ele>2257.0</ele>
        <time>2016-07-25T16:00:48Z</time>
      </trkpt>
      <trkpt lat="41.089000" lon="-3.689850">
        <ele>2257.0</ele>
        <time>2016-07-25T16:00:49Z</time>
      </trkpt>
      <trkpt lat="41.089033" lon="-3.689800">
        <ele>2257.0</ele>
        <time>2016-07-25T16:00:50Z</time>
      </trkpt>
      <trkpt lat="41.089083" lon="-3.689750">
        <ele>2256.0</ele>
        <time>2016-07-25T16:00:51Z</time>
      </trkpt>
      <trkpt lat="41.089117" lon="-3.689700">
        <ele>2255.0</ele>
        <time>2016-07-25T16:00:52Z</time>
      </trkpt>
      <trkpt lat="41.089167" lon="-3.689650">
        <ele>2254.0</ele>
        <time>2016-07-25T16:00:53Z</time>
      </trkpt>
      <trkpt lat="41.089200" lon="-3.689617">
        <ele>2254.0</ele>
        <time>2016-07-25T16:00:54Z</time>
      </trkpt>
      <trkpt lat="41.089233" lon="-3.689583">
        <ele>2253.0</ele>
        <time>2016-07-25T16:00:55Z</time>
      </trkpt>
      <trkpt lat="41.089267" lon="-3.689533">
        <ele>2252.0</ele>
        <time>2016-07-25T16:00:56Z</time>
      </trkpt>
      <trkpt lat="41.089300" lon="-3.689483">
        <ele>2251.0</ele>
        <time>2016-07-25T16:00:57Z</time>
      </trkpt>
      <trkpt lat="41.089333" lon="-3.689417">
        <ele>2249.0</ele>
        <time>2016-07-25T16:00:58Z</time>
      </trkpt>
      <trkpt lat="41.089367" lon="-3.689333">
        <ele>2247.0</ele>
        <time>2016-07-25T16:00:59Z</time>
      </trkpt>
      <trkpt lat="41.089400" lon="-3.689250">
        <ele>2246.0</ele>
        <time>2016-07-25T16:01:00Z</time>
      </trkpt>
      <trkpt lat="41.089433" lon="-3.689183">
        <ele>2245.0</ele>
        <time>2016-07-25T16:01:01Z</time>
      </trkpt>
      <trkpt lat="41.089467" lon="-3.689100">
        <ele>2244.0</ele>
        <time>2016-07-25T16:01:02Z</time>
      </trkpt>
      <trkpt lat="41.089517" lon="-3.689033">
        <ele>2242.0</ele>
        <time>2016-07-25T16:01:03Z</time>
      </trkpt>
      <trkpt lat="41.089550" lon="-3.688933">
        <ele>2241.0</ele>
        <time>2016-07-25T16:01:04Z</time>
      </trkpt>
      <trkpt lat="41.089583" lon="-3.688850">
        <ele>2241.0</ele>
        <time>2016-07-25T16:01:05Z</time>
      </trkpt>
      <trkpt lat="41.089617" lon="-3.688767">
        <ele>2240.0</ele>
        <time>2016-07-25T16:01:06Z</time>
      </trkpt>
      <trkpt lat="41.089667" lon="-3.688683">
        <ele>2240.0</ele>
        <time>2016-07-25T16:01:07Z</time>
      </trkpt>
      <trkpt lat="41.089700" lon="-3.688600">
        <ele>2239.0</ele>
        <time>2016-07-25T16:01:08Z</time>
      </trkpt>
      <trkpt lat="41.089750" lon="-3.688517">
        <ele>2237.0</ele>
        <time>2016-07-25T16:01:09Z</time>
      </trkpt>
      <trkpt lat="41.089800" lon="-3.688433">
        <ele>2236.0</ele>
        <time>2016-07-25T16:01:10Z</time>
      </trkpt>
      <trkpt lat="41.089850" lon="-3.688350">
        <ele>2235.0</ele>
        <time>2016-07-25T16:01:11Z</time>
      </trkpt>
      <trkpt lat="41.089900" lon="-3.688250">
        <ele>2234.0</ele>
        <time>2016-07-25T16:01:12Z</time>
      </trkpt>
      <trkpt lat="41.089950" lon="-3.688150">
        <ele>2234.0</ele>
        <time>2016-07-25T16:01:13Z</time>
      </trkpt>
      <trkpt lat="41.090000" lon="-3.688050">
        <ele>2234.0</ele>
        <time>2016-07-25T16:01:14Z</time>
      </trkpt>
      <trkpt lat="41.090050" lon="-3.687967">
        <ele>2235.0</ele>
        <time>2016-07-25T16:01:15Z</time>
      </trkpt>
      <trkpt lat="41.090100" lon="-3.687883">
        <ele>2235.0</ele>
        <time>2016-07-25T16:01:16Z</time>
      </trkpt>
      <trkpt lat="41.090150" lon="-3.687817">
        <ele>2236.0</ele>
        <time>2016-07-25T16:01:17Z</time>
      </trkpt>
      <trkpt lat="41.090200" lon="-3.687750">
        <ele>2237.0</ele>
        <time>2016-07-25T16:01:18Z</time>
      </trkpt>
      <trkpt lat="41.090250" lon="-3.687683">
        <ele>2238.0</ele>
        <time>2016-07-25T16:01:19Z</time>
      </trkpt>
      <trkpt lat="41.090283" lon="-3.687617">
        <ele>2238.0</ele>
        <time>2016-07-25T16:01:20Z</time>
      </trkpt>
      <trkpt lat="41.090333" lon="-3.687567">
        <ele>2238.0</ele>
        <time>2016-07-25T16:01:21Z</time>
      </trkpt>
      <trkpt lat="41.090383" lon="-3.687517">
        <ele>2239.0</ele>
        <time>2016-07-25T16:01:22Z</time>
      </trkpt>
      <trkpt lat="41.090433" lon="-3.687450">
        <ele>2242.0</ele>
        <time>2016-07-25T16:01:23Z</time>
      </trkpt>
      <trkpt lat="41.090483" lon="-3.687400">
        <ele>2246.0</ele>
        <time>2016-07-25T16:01:24Z</time>
      </trkpt>
      <trkpt lat="41.090517" lon="-3.687350">
        <ele>2249.0</ele>
        <time>2016-07-25T16:01:25Z</time>
      </trkpt>
      <trkpt lat="41.090533" lon="-3.687317">
        <ele>2251.0</ele>
        <time>2016-07-25T16:01:26Z</time>
      </trkpt>
      <trkpt lat="41.090567" lon="-3.687283">
        <ele>2252.0</ele>
        <time>2016-07-25T16:01:27Z</time>
      </trkpt>
      <trkpt lat="41.090617" lon="-3.687233">
        <ele>2254.0</ele>
        <time>2016-07-25T16:01:28Z</time>
      </trkpt>
      <trkpt lat="41.090650" lon="-3.687167">
        <ele>2256.0</ele>
        <time>2016-07-25T16:01:29Z</time>
      </trkpt>
      <trkpt lat="41.090700" lon="-3.687117">
        <ele>2259.0</ele>
        <time>2016-07-25T16:01:30Z</time>
      </trkpt>
      <trkpt lat="41.090733" lon="-3.687067">
        <ele>2262.0</ele>
        <time>2016-07-25T16:01:31Z</time>
      </trkpt>
      <trkpt lat="41.090767" lon="-3.687050">
        <ele>2264.0</ele>
        <time>2016-07-25T16:01:32Z</time>
      </trkpt>
      <trkpt lat="41.090800" lon="-3.687017">
        <ele>2266.0</ele>
        <time>2016-07-25T16:01:33Z</time>
      </trkpt>
      <trkpt lat="41.090817" lon="-3.686967">
        <ele>2268.0</ele>
        <time>2016-07-25T16:01:34Z</time>
      </trkpt>
      <trkpt lat="41.090850" lon="-3.686917">
        <ele>2268.0</ele>
        <time>2016-07-25T16:01:35Z</time>
      </trkpt>
      <trkpt lat="41.090883" lon="-3.686833">
        <ele>2268.0</ele>
        <time>2016-07-25T16:01:36Z</time>
      </trkpt>
      <trkpt lat="41.090917" lon="-3.686717">
        <ele>2267.0</ele>
        <time>2016-07-25T16:01:37Z</time>
      </trkpt>
      <trkpt lat="41.090950" lon="-3.686600">
        <ele>2267.0</ele>
        <time>2016-07-25T16:01:38Z</time>
      </trkpt>
      <trkpt lat="41.091000" lon="-3.686483">
        <ele>2267.0</ele>
        <time>2016-07-25T16:01:39Z</time>
      </trkpt>
      <trkpt lat="41.091050" lon="-3.686417">
        <ele>2267.0</ele>
        <time>2016-07-25T16:01:40Z</time>
      </trkpt>
      <trkpt lat="41.091100" lon="-3.686367">
        <ele>2268.0</ele>
        <time>2016-07-25T16:01:41Z</time>
      </trkpt>
      <trkpt lat="41.091150" lon="-3.686317">
        <ele>2269.0</ele>
        <time>2016-07-25T16:01:42Z</time>
      </trkpt>
      <trkpt lat="41.091183" lon="-3.686283">
        <ele>2271.0</ele>
        <time>2016-07-25T16:01:43Z</time>
      </trkpt>
      <trkpt lat="41.091233" lon="-3.686233">
        <ele>2272.0</ele>
        <time>2016-07-25T16:01:44Z</time>
      </trkpt>
      <trkpt lat="41.091267" lon="-3.686200">
        <ele>2273.0</ele>
        <time>2016-07-25T16:01:45Z</time>
      </trkpt>
      <trkpt lat="41.091317" lon="-3.686183">
        <ele>2275.0</ele>
        <time>2016-07-25T16:01:46Z</time>
      </trkpt>
      <trkpt lat="41.091350" lon="-3.686150">
        <ele>2277.0</ele>
        <time>2016-07-25T16:01:47Z</time>
      </trkpt>
      <trkpt lat="41.091383" lon="-3.686133">
        <ele>2279.0</ele>
        <time>2016-07-25T16:01:48Z</time>
      </trkpt>
      <trkpt lat="41.091417" lon="-3.686117">
        <ele>2281.0</ele>
        <time>2016-07-25T16:01:49Z</time>
      </trkpt>
      <trkpt lat="41.091450" lon="-3.686100">
        <ele>2284.0</ele>
        <time>2016-07-25T16:01:50Z</time>
      </trkpt>
      <trkpt lat="41.091467" lon="-3.686100">
        <ele>2285.0</ele>
        <time>2016-07-25T16:01:51Z</time>
      </trkpt>
      <trkpt lat="41.091500" lon="-3.686083">
        <ele>2287.0</ele>
        <time>2016-07-25T16:01:52Z</time>
      </trkpt>
      <trkpt lat="41.091533" lon="-3.686067">
        <ele>2289.0</ele>
        <time>2016-07-25T16:01:53Z</time>
      </trkpt>
      <trkpt lat="41.091550" lon="-3.686050">
        <ele>2291.0</ele>
        <time>2016-07-25T16:01:54Z</time>
      </trkpt>
      <trkpt lat="41.091583" lon="-3.686033">
        <ele>2291.0</ele>
        <time>2016-07-25T16:01:55Z</time>
      </trkpt>
      <trkpt lat="41.091600" lon="-3.686017">
        <ele>2291.0</ele>
        <time>2016-07-25T16:01:56Z</time>
      </trkpt>
      <trkpt lat="41.091617" lon="-3.686017">
        <ele>2290.0</ele>
        <time>2016-07-25T16:01:57Z</time>
      </trkpt>
      <trkpt lat="41.091650" lon="-3.686033">
        <ele>2291.0</ele>
        <time>2016-07-25T16:01:58Z</time>
      </trkpt>
      <trkpt lat="41.091667" lon="-3.686050">
        <ele>2291.0</ele>
        <time>2016-07-25T16:01:59Z</time>
      </trkpt>
      <trkpt lat="41.091683" lon="-3.686050">
        <ele>2293.0</ele>
        <time>2016-07-25T16:02:00Z</time>
      </trkpt>
      <trkpt lat="41.091700" lon="-3.686050">
        <ele>2293.0</ele>
        <time>2016-07-25T16:02:01Z</time>
      </trkpt>
      <trkpt lat="41.091717" lon="-3.686050">
        <ele>2294.0</ele>
        <time>2016-07-25T16:02:02Z</time>
      </trkpt>
      <trkpt lat="41.091750" lon="-3.686050">
        <ele>2294.0</ele>
        <time>2016-07-25T16:02:03Z</time>
      </trkpt>
      <trkpt lat="41.091767" lon="-3.686050">
        <ele>2294.0</ele>
        <time>2016-07-25T16:02:04Z</time>
      </trkpt>
      <trkpt lat="41.091800" lon="-3.686067">
        <ele>2294.0</ele>
        <time>2016-07-25T16:02:05Z</time>
      </trkpt>
      <trkpt lat="41.091817" lon="-3.686083">
        <ele>2295.0</ele>
        <time>2016-07-25T16:02:06Z</time>
      </trkpt>
      <trkpt lat="41.091833" lon="-3.686083">
        <ele>2295.0</ele>
        <time>2016-07-25T16:02:07Z</time>
      </trkpt>
      <trkpt lat="41.091867" lon="-3.686067">
        <ele>2295.0</ele>
        <time>2016-07-25T16:02:08Z</time>
      </trkpt>
      <trkpt lat="41.091883" lon="-3.686067">
        <ele>2295.0</ele>
        <time>2016-07-25T16:02:09Z</time>
      </trkpt>
      <trkpt lat="41.091917" lon="-3.686067">
        <ele>2295.0</ele>
        <time>2016-07-25T16:02:10Z</time>
      </trkpt>
      <trkpt lat="41.091933" lon="-3.686083">
        <ele>2295.0</ele>
        <time>2016-07-25T16:02:11Z</time>
      </trkpt>
      <trkpt lat="41.091950" lon="-3.686117">
        <ele>2295.0</ele>
        <time>2016-07-25T16:02:12Z</time>
      </trkpt>
      <trkpt lat="41.091967" lon="-3.686133">
        <ele>2295.0</ele>
        <time>2016-07-25T16:02:13Z</time>
      </trkpt>
      <trkpt lat="41.091967" lon="-3.686150">
        <ele>2295.0</ele>
        <time>2016-07-25T16:02:14Z</time>
      </trkpt>
      <trkpt lat="41.091983" lon="-3.686183">
        <ele>2297.0</ele>
        <time>2016-07-25T16:02:15Z</time>
      </trkpt>
      <trkpt lat="41.091983" lon="-3.686200">
        <ele>2300.0</ele>
        <time>2016-07-25T16:02:16Z</time>
      </trkpt>
      <trkpt lat="41.091983" lon="-3.686233">
        <ele>2302.0</ele>
        <time>2016-07-25T16:02:17Z</time>
      </trkpt>
      <trkpt lat="41.091983" lon="-3.686250">
        <ele>2303.0</ele>
        <time>2016-07-25T16:02:18Z</time>
      </trkpt>
      <trkpt lat="41.091983" lon="-3.686267">
        <ele>2304.0</ele>
        <time>2016-07-25T16:02:19Z</time>
      </trkpt>
      <trkpt lat="41.091983" lon="-3.686267">
        <ele>2303.0</ele>
        <time>2016-07-25T16:02:20Z</time>
      </trkpt>
      <trkpt lat="41.092000" lon="-3.686300">
        <ele>2302.0</ele>
        <time>2016-07-25T16:02:21Z</time>
      </trkpt>
      <trkpt lat="41.092017" lon="-3.686333">
        <ele>2302.0</ele>
        <time>2016-07-25T16:02:22Z</time>
      </trkpt>
      <trkpt lat="41.092033" lon="-3.686367">
        <ele>2303.0</ele>
        <time>2016-07-25T16:02:23Z</time>
      </trkpt>
      <trkpt lat="41.092033" lon="-3.686400">
        <ele>2306.0</ele>
        <time>2016-07-25T16:02:24Z</time>
      </trkpt>
      <trkpt lat="41.092050" lon="-3.686417">
        <ele>2309.0</ele>
        <time>2016-07-25T16:02:25Z</time>
      </trkpt>
      <trkpt lat="41.092050" lon="-3.686450">
        <ele>2311.0</ele>
        <time>2016-07-25T16:02:26Z</time>
      </trkpt>
      <trkpt lat="41.092050" lon="-3.686483">
        <ele>2312.0</ele>
        <time>2016-07-25T16:02:27Z</time>
      </trkpt>
      <trkpt lat="41.092050" lon="-3.686517">
        <ele>2313.0</ele>
        <time>2016-07-25T16:02:28Z</time>
      </trkpt>
      <trkpt lat="41.092050" lon="-3.686550">
        <ele>2315.0</ele>
        <time>2016-07-25T16:02:29Z</time>
      </trkpt>
      <trkpt lat="41.092067" lon="-3.686583">
        <ele>2316.0</ele>
        <time>2016-07-25T16:02:30Z</time>
      </trkpt>
      <trkpt lat="41.092083" lon="-3.686600">
        <ele>2318.0</ele>
        <time>2016-07-25T16:02:31Z</time>
      </trkpt>
      <trkpt lat="41.092100" lon="-3.686633">
        <ele>2319.0</ele>
        <time>2016-07-25T16:02:32Z</time>
      </trkpt>
      <trkpt lat="41.092117" lon="-3.686667">
        <ele>2319.0</ele>
        <time>2016-07-25T16:02:33Z</time>
      </trkpt>
      <trkpt lat="41.092133" lon="-3.686683">
        <ele>2320.0</ele>
        <time>2016-07-25T16:02:34Z</time>
      </trkpt>
      <trkpt lat="41.092150" lon="-3.686683">
        <ele>2321.0</ele>
        <time>2016-07-25T16:02:35Z</time>
      </trkpt>
      <trkpt lat="41.092150" lon="-3.686683">
        <ele>2322.0</ele>
        <time>2016-07-25T16:02:36Z</time>
      </trkpt>
      <trkpt lat="41.092150" lon="-3.686683">
        <ele>2321.0</ele>
        <time>2016-07-25T16:02:37Z</time>
      </trkpt>
      <trkpt lat="41.092150" lon="-3.686717">
        <ele>2319.0</ele>
        <time>2016-07-25T16:02:38Z</time>
      </trkpt>
      <trkpt lat="41.092150" lon="-3.686750">
        <ele>2318.0</ele>
        <time>2016-07-25T16:02:39Z</time>
      </trkpt>
      <trkpt lat="41.092150" lon="-3.686800">
        <ele>2316.0</ele>
        <time>2016-07-25T16:02:40Z</time>
      </trkpt>
      <trkpt lat="41.092183" lon="-3.686817">
        <ele>2314.0</ele>
        <time>2016-07-25T16:02:41Z</time>
      </trkpt>
      <trkpt lat="41.092217" lon="-3.686817">
        <ele>2313.0</ele>
        <time>2016-07-25T16:02:42Z</time>
      </trkpt>
      <trkpt lat="41.092250" lon="-3.686767">
        <ele>2312.0</ele>
        <time>2016-07-25T16:02:43Z</time>
      </trkpt>
      <trkpt lat="41.092283" lon="-3.686717">
        <ele>2311.0</ele>
        <time>2016-07-25T16:02:44Z</time>
      </trkpt>
      <trkpt lat="41.092317" lon="-3.686650">
        <ele>2309.0</ele>
        <time>2016-07-25T16:02:45Z</time>
      </trkpt>
      <trkpt lat="41.092350" lon="-3.686567">
        <ele>2307.0</ele>
        <time>2016-07-25T16:02:46Z</time>
      </trkpt>
      <trkpt lat="41.092383" lon="-3.686450">
        <ele>2305.0</ele>
        <time>2016-07-25T16:02:47Z</time>
      </trkpt>
      <trkpt lat="41.092383" lon="-3.686300">
        <ele>2303.0</ele>
        <time>2016-07-25T16:02:48Z</time>
      </trkpt>
      <trkpt lat="41.092383" lon="-3.686133">
        <ele>2301.0</ele>
        <time>2016-07-25T16:02:49Z</time>
      </trkpt>
      <trkpt lat="41.092350" lon="-3.685967">
        <ele>2300.0</ele>
        <time>2016-07-25T16:02:50Z</time>
      </trkpt>
      <trkpt lat="41.092300" lon="-3.685800">
        <ele>2299.0</ele>
        <time>2016-07-25T16:02:51Z</time>
      </trkpt>
      <trkpt lat="41.092250" lon="-3.685633">
        <ele>2298.0</ele>
        <time>2016-07-25T16:02:52Z</time>
      </trkpt>
      <trkpt lat="41.092167" lon="-3.685467">
        <ele>2298.0</ele>
        <time>2016-07-25T16:02:53Z</time>
      </trkpt>
      <trkpt lat="41.092083" lon="-3.685300">
        <ele>2297.0</ele>
        <time>2016-07-25T16:02:54Z</time>
      </trkpt>
      <trkpt lat="41.091983" lon="-3.685117">
        <ele>2296.0</ele>
        <time>2016-07-25T16:02:55Z</time>
      </trkpt>
      <trkpt lat="41.091867" lon="-3.684967">
        <ele>2296.0</ele>
        <time>2016-07-25T16:02:56Z</time>
      </trkpt>
      <trkpt lat="41.091750" lon="-3.684850">
        <ele>2297.0</ele>
        <time>2016-07-25T16:02:57Z</time>
      </trkpt>
      <trkpt lat="41.091633" lon="-3.684767">
        <ele>2299.0</ele>
        <time>2016-07-25T16:02:58Z</time>
      </trkpt>
      <trkpt lat="41.091517" lon="-3.684700">
        <ele>2299.0</ele>
        <time>2016-07-25T16:02:59Z</time>
      </trkpt>
      <trkpt lat="41.091383" lon="-3.684633">
        <ele>2299.0</ele>
        <time>2016-07-25T16:03:00Z</time>
      </trkpt>
      <trkpt lat="41.091233" lon="-3.684567">
        <ele>2297.0</ele>
        <time>2016-07-25T16:03:01Z</time>
      </trkpt>
      <trkpt lat="41.091100" lon="-3.684517">
        <ele>2296.0</ele>
        <time>2016-07-25T16:03:02Z</time>
      </trkpt>
      <trkpt lat="41.090983" lon="-3.684533">
        <ele>2296.0</ele>
        <time>2016-07-25T16:03:03Z</time>
      </trkpt>
      <trkpt lat="41.090883" lon="-3.684567">
        <ele>2297.0</ele>
        <time>2016-07-25T16:03:04Z</time>
      </trkpt>
      <trkpt lat="41.090800" lon="-3.684633">
        <ele>2296.0</ele>
        <time>2016-07-25T16:03:05Z</time>
      </trkpt>
      <trkpt lat="41.090767" lon="-3.684700">
        <ele>2296.0</ele>
        <time>2016-07-25T16:03:06Z</time>
      </trkpt>
      <trkpt lat="41.090717" lon="-3.684750">
        <ele>2297.0</ele>
        <time>2016-07-25T16:03:07Z</time>
      </trkpt>
      <trkpt lat="41.090683" lon="-3.684783">
        <ele>2299.0</ele>
        <time>2016-07-25T16:03:08Z</time>
      </trkpt>
      <trkpt lat="41.090633" lon="-3.684817">
        <ele>2300.0</ele>
        <time>2016-07-25T16:03:09Z</time>
      </trkpt>
      <trkpt lat="41.090583" lon="-3.684867">
        <ele>2300.0</ele>
        <time>2016-07-25T16:03:10Z</time>
      </trkpt>
      <trkpt lat="41.090533" lon="-3.684900">
        <ele>2300.0</ele>
        <time>2016-07-25T16:03:11Z</time>
      </trkpt>
      <trkpt lat="41.090500" lon="-3.684950">
        <ele>2301.0</ele>
        <time>2016-07-25T16:03:12Z</time>
      </trkpt>
      <trkpt lat="41.090483" lon="-3.684967">
        <ele>2303.0</ele>
        <time>2016-07-25T16:03:13Z</time>
      </trkpt>
      <trkpt lat="41.090467" lon="-3.685000">
        <ele>2305.0</ele>
        <time>2016-07-25T16:03:14Z</time>
      </trkpt>
      <trkpt lat="41.090450" lon="-3.685017">
        <ele>2306.0</ele>
        <time>2016-07-25T16:03:15Z</time>
      </trkpt>
      <trkpt lat="41.090450" lon="-3.685050">
        <ele>2306.0</ele>
        <time>2016-07-25T16:03:16Z</time>
      </trkpt>
      <trkpt lat="41.090467" lon="-3.685050">
        <ele>2306.0</ele>
        <time>2016-07-25T16:03:17Z</time>
      </trkpt>
      <trkpt lat="41.090500" lon="-3.685017">
        <ele>2305.0</ele>
        <time>2016-07-25T16:03:18Z</time>
      </trkpt>
      <trkpt lat="41.090517" lon="-3.684983">
        <ele>2305.0</ele>
        <time>2016-07-25T16:03:19Z</time>
      </trkpt>
      <trkpt lat="41.090550" lon="-3.684950">
        <ele>2305.0</ele>
        <time>2016-07-25T16:03:20Z</time>
      </trkpt>
      <trkpt lat="41.090567" lon="-3.684883">
        <ele>2305.0</ele>
        <time>2016-07-25T16:03:21Z</time>
      </trkpt>
      <trkpt lat="41.090600" lon="-3.684800">
        <ele>2304.0</ele>
        <time>2016-07-25T16:03:22Z</time>
      </trkpt>
      <trkpt lat="41.090633" lon="-3.684717">
        <ele>2302.0</ele>
        <time>2016-07-25T16:03:23Z</time>
      </trkpt>
      <trkpt lat="41.090667" lon="-3.684600">
        <ele>2301.0</ele>
        <time>2016-07-25T16:03:24Z</time>
      </trkpt>
      <trkpt lat="41.090700" lon="-3.684483">
        <ele>2301.0</ele>
        <time>2016-07-25T16:03:25Z</time>
      </trkpt>
      <trkpt lat="41.090717" lon="-3.684367">
        <ele>2302.0</ele>
        <time>2016-07-25T16:03:26Z</time>
      </trkpt>
      <trkpt lat="41.090733" lon="-3.684267">
        <ele>2304.0</ele>
        <time>2016-07-25T16:03:27Z</time>
      </trkpt>
      <trkpt lat="41.090750" lon="-3.684183">
        <ele>2306.0</ele>
        <time>2016-07-25T16:03:28Z</time>
      </trkpt>
      <trkpt lat="41.090767" lon="-3.684100">
        <ele>2307.0</ele>
        <time>2016-07-25T16:03:29Z</time>
      </trkpt>
      <trkpt lat="41.090783" lon="-3.684017">
        <ele>2307.0</ele>
        <time>2016-07-25T16:03:30Z</time>
      </trkpt>
      <trkpt lat="41.090800" lon="-3.683917">
        <ele>2307.0</ele>
        <time>2016-07-25T16:03:31Z</time>
      </trkpt>
      <trkpt lat="41.090800" lon="-3.683800">
        <ele>2308.0</ele>
        <time>2016-07-25T16:03:32Z</time>
      </trkpt>
      <trkpt lat="41.090817" lon="-3.683683">
        <ele>2308.0</ele>
        <time>2016-07-25T16:03:33Z</time>
      </trkpt>
      <trkpt lat="41.090817" lon="-3.683583">
        <ele>2309.0</ele>
        <time>2016-07-25T16:03:34Z</time>
      </trkpt>
      <trkpt lat="41.090850" lon="-3.683483">
        <ele>2310.0</ele>
        <time>2016-07-25T16:03:35Z</time>
      </trkpt>
      <trkpt lat="41.090867" lon="-3.683367">
        <ele>2310.0</ele>
        <time>2016-07-25T16:03:36Z</time>
      </trkpt>
      <trkpt lat="41.090900" lon="-3.683267">
        <ele>2311.0</ele>
        <time>2016-07-25T16:03:37Z</time>
      </trkpt>
      <trkpt lat="41.090917" lon="-3.683150">
        <ele>2310.0</ele>
        <time>2016-07-25T16:03:38Z</time>
      </trkpt>
      <trkpt lat="41.090933" lon="-3.683033">
        <ele>2310.0</ele>
        <time>2016-07-25T16:03:39Z</time>
      </trkpt>
      <trkpt lat="41.090933" lon="-3.682900">
        <ele>2310.0</ele>
        <time>2016-07-25T16:03:40Z</time>
      </trkpt>
      <trkpt lat="41.090917" lon="-3.682750">
        <ele>2309.0</ele>
        <time>2016-07-25T16:03:41Z</time>
      </trkpt>
      <trkpt lat="41.090883" lon="-3.682583">
        <ele>2307.0</ele>
        <time>2016-07-25T16:03:42Z</time>
      </trkpt>
      <trkpt lat="41.090817" lon="-3.682400">
        <ele>2305.0</ele>
        <time>2016-07-25T16:03:43Z</time>
      </trkpt>
      <trkpt lat="41.090717" lon="-3.682233">
        <ele>2305.0</ele>
        <time>2016-07-25T16:03:44Z</time>
      </trkpt>
      <trkpt lat="41.090600" lon="-3.682100">
        <ele>2305.0</ele>
        <time>2016-07-25T16:03:45Z</time>
      </trkpt>
      <trkpt lat="41.090483" lon="-3.681983">
        <ele>2307.0</ele>
        <time>2016-07-25T16:03:46Z</time>
      </trkpt>
      <trkpt lat="41.090367" lon="-3.681867">
        <ele>2308.0</ele>
        <time>2016-07-25T16:03:47Z</time>
      </trkpt>
      <trkpt lat="41.090233" lon="-3.681783">
        <ele>2310.0</ele>
        <time>2016-07-25T16:03:48Z</time>
      </trkpt>
      <trkpt lat="41.090100" lon="-3.681717">
        <ele>2312.0</ele>
        <time>2016-07-25T16:03:49Z</time>
      </trkpt>
      <trkpt lat="41.089967" lon="-3.681683">
        <ele>2313.0</ele>
        <time>2016-07-25T16:03:50Z</time>
      </trkpt>
      <trkpt lat="41.089850" lon="-3.681683">
        <ele>2313.0</ele>
        <time>2016-07-25T16:03:51Z</time>
      </trkpt>
      <trkpt lat="41.089733" lon="-3.681717">
        <ele>2313.0</ele>
        <time>2016-07-25T16:03:52Z</time>
      </trkpt>
      <trkpt lat="41.089650" lon="-3.681750">
        <ele>2315.0</ele>
        <time>2016-07-25T16:03:53Z</time>
      </trkpt>
      <trkpt lat="41.089583" lon="-3.681767">
        <ele>2317.0</ele>
        <time>2016-07-25T16:03:54Z</time>
      </trkpt>
      <trkpt lat="41.089517" lon="-3.681800">
        <ele>2319.0</ele>
        <time>2016-07-25T16:03:55Z</time>
      </trkpt>
      <trkpt lat="41.089450" lon="-3.681833">
        <ele>2320.0</ele>
        <time>2016-07-25T16:03:56Z</time>
      </trkpt>
      <trkpt lat="41.089400" lon="-3.681883">
        <ele>2320.0</ele>
        <time>2016-07-25T16:03:57Z</time>
      </trkpt>
      <trkpt lat="41.089367" lon="-3.681933">
        <ele>2321.0</ele>
        <time>2016-07-25T16:03:58Z</time>
      </trkpt>
      <trkpt lat="41.089350" lon="-3.681967">
        <ele>2322.0</ele>
        <time>2016-07-25T16:03:59Z</time>
      </trkpt>
      <trkpt lat="41.089367" lon="-3.682000">
        <ele>2322.0</ele>
        <time>2016-07-25T16:04:00Z</time>
      </trkpt>
      <trkpt lat="41.089400" lon="-3.682000">
        <ele>2323.0</ele>
        <time>2016-07-25T16:04:01Z</time>
      </trkpt>
      <trkpt lat="41.089417" lon="-3.681983">
        <ele>2325.0</ele>
        <time>2016-07-25T16:04:02Z</time>
      </trkpt>
      <trkpt lat="41.089433" lon="-3.681967">
        <ele>2327.0</ele>
        <time>2016-07-25T16:04:03Z</time>
      </trkpt>
      <trkpt lat="41.089433" lon="-3.681950">
        <ele>2328.0</ele>
        <time>2016-07-25T16:04:04Z</time>
      </trkpt>
      <trkpt lat="41.089450" lon="-3.681917">
        <ele>2329.0</ele>
        <time>2016-07-25T16:04:05Z</time>
      </trkpt>
      <trkpt lat="41.089483" lon="-3.681867">
        <ele>2329.0</ele>
        <time>2016-07-25T16:04:06Z</time>
      </trkpt>
      <trkpt lat="41.089500" lon="-3.681800">
        <ele>2329.0</ele>
        <time>2016-07-25T16:04:07Z</time>
      </trkpt>
      <trkpt lat="41.089533" lon="-3.681733">
        <ele>2329.0</ele>
        <time>2016-07-25T16:04:08Z</time>
      </trkpt>
      <trkpt lat="41.089567" lon="-3.681667">
        <ele>2329.0</ele>
        <time>2016-07-25T16:04:09Z</time>
      </trkpt>
      <trkpt lat="41.089600" lon="-3.681600">
        <ele>2330.0</ele>
        <time>2016-07-25T16:04:10Z</time>
      </trkpt>
      <trkpt lat="41.089617" lon="-3.681517">
        <ele>2331.0</ele>
        <time>2016-07-25T16:04:11Z</time>
      </trkpt>
      <trkpt lat="41.089650" lon="-3.681417">
        <ele>2331.0</ele>
        <time>2016-07-25T16:04:12Z</time>
      </trkpt>
      <trkpt lat="41.089683" lon="-3.681283">
        <ele>2332.0</ele>
        <time>2016-07-25T16:04:13Z</time>
      </trkpt>
      <trkpt lat="41.089700" lon="-3.681167">
        <ele>2333.0</ele>
        <time>2016-07-25T16:04:14Z</time>
      </trkpt>
      <trkpt lat="41.089700" lon="-3.681050">
        <ele>2334.0</ele>
        <time>2016-07-25T16:04:15Z</time>
      </trkpt>
      <trkpt lat="41.089717" lon="-3.680933">
        <ele>2335.0</ele>
        <time>2016-07-25T16:04:16Z</time>
      </trkpt>
      <trkpt lat="41.089700" lon="-3.680800">
        <ele>2335.0</ele>
        <time>2016-07-25T16:04:17Z</time>
      </trkpt>
      <trkpt lat="41.089683" lon="-3.680633">
        <ele>2334.0</ele>
        <time>2016-07-25T16:04:18Z</time>
      </trkpt>
      <trkpt lat="41.089650" lon="-3.680450">
        <ele>2333.0</ele>
        <time>2016-07-25T16:04:19Z</time>
      </trkpt>
      <trkpt lat="41.089583" lon="-3.680267">
        <ele>2333.0</ele>
        <time>2016-07-25T16:04:20Z</time>
      </trkpt>
      <trkpt lat="41.089517" lon="-3.680100">
        <ele>2334.0</ele>
        <time>2016-07-25T16:04:21Z</time>
      </trkpt>
      <trkpt lat="41.089433" lon="-3.679950">
        <ele>2336.0</ele>
        <time>2016-07-25T16:04:22Z</time>
      </trkpt>
      <trkpt lat="41.089317" lon="-3.679800">
        <ele>2337.0</ele>
        <time>2016-07-25T16:04:23Z</time>
      </trkpt>
      <trkpt lat="41.089200" lon="-3.679667">
        <ele>2337.0</ele>
        <time>2016-07-25T16:04:24Z</time>
      </trkpt>
      <trkpt lat="41.089067" lon="-3.679550">
        <ele>2338.0</ele>
        <time>2016-07-25T16:04:25Z</time>
      </trkpt>
      <trkpt lat="41.088933" lon="-3.679450">
        <ele>2339.0</ele>
        <time>2016-07-25T16:04:26Z</time>
      </trkpt>
      <trkpt lat="41.088800" lon="-3.679400">
        <ele>2340.0</ele>
        <time>2016-07-25T16:04:27Z</time>
      </trkpt>
      <trkpt lat="41.088667" lon="-3.679367">
        <ele>2341.0</ele>
        <time>2016-07-25T16:04:28Z</time>
      </trkpt>
      <trkpt lat="41.088550" lon="-3.679350">
        <ele>2341.0</ele>
        <time>2016-07-25T16:04:29Z</time>
      </trkpt>
      <trkpt lat="41.088433" lon="-3.679350">
        <ele>2342.0</ele>
        <time>2016-07-25T16:04:30Z</time>
      </trkpt>
      <trkpt lat="41.088350" lon="-3.679383">
        <ele>2343.0</ele>
        <time>2016-07-25T16:04:31Z</time>
      </trkpt>
      <trkpt lat="41.088267" lon="-3.679417">
        <ele>2344.0</ele>
        <time>2016-07-25T16:04:32Z</time>
      </trkpt>
      <trkpt lat="41.088217" lon="-3.679450">
        <ele>2344.0</ele>
        <time>2016-07-25T16:04:33Z</time>
      </trkpt>
      <trkpt lat="41.088183" lon="-3.679500">
        <ele>2344.0</ele>
        <time>2016-07-25T16:04:34Z</time>
      </trkpt>
      <trkpt lat="41.088150" lon="-3.679533">
        <ele>2344.0</ele>
        <time>2016-07-25T16:04:35Z</time>
      </trkpt>
      <trkpt lat="41.088150" lon="-3.679550">
        <ele>2344.0</ele>
        <time>2016-07-25T16:04:36Z</time>
      </trkpt>
      <trkpt lat="41.088167" lon="-3.679567">
        <ele>2344.0</ele>
        <time>2016-07-25T16:04:37Z</time>
      </trkpt>
      <trkpt lat="41.088200" lon="-3.679550">
        <ele>2344.0</ele>
        <time>2016-07-25T16:04:38Z</time>
      </trkpt>
      <trkpt lat="41.088233" lon="-3.679517">
        <ele>2344.0</ele>
        <time>2016-07-25T16:04:39Z</time>
      </trkpt>
      <trkpt lat="41.088267" lon="-3.679483">
        <ele>2344.0</ele>
        <time>2016-07-25T16:04:40Z</time>
      </trkpt>
      <trkpt lat="41.088300" lon="-3.679450">
        <ele>2345.0</ele>
        <time>2016-07-25T16:04:41Z</time>
      </trkpt>
      <trkpt lat="41.088350" lon="-3.679400">
        <ele>2346.0</ele>
        <time>2016-07-25T16:04:42Z</time>
      </trkpt>
      <trkpt lat="41.088383" lon="-3.679367">
        <ele>2346.0</ele>
        <time>2016-07-25T16:04:43Z</time>
      </trkpt>
      <trkpt lat="41.088433" lon="-3.679333">
        <ele>2346.0</ele>
        <time>2016-07-25T16:04:44Z</time>
      </trkpt>
      <trkpt lat="41.088467" lon="-3.679267">
        <ele>2347.0</ele>
        <time>2016-07-25T16:04:45Z</time>
      </trkpt>
      <trkpt lat="41.088517" lon="-3.679200">
        <ele>2348.0</ele>
        <time>2016-07-25T16:04:46Z</time>
      </trkpt>
      <trkpt lat="41.088550" lon="-3.679133">
        <ele>2349.0</ele>
        <time>2016-07-25T16:04:47Z</time>
      </trkpt>
      <trkpt lat="41.088583" lon="-3.679083">
        <ele>2351.0</ele>
        <time>2016-07-25T16:04:48Z</time>
      </trkpt>
      <trkpt lat="41.088617" lon="-3.679017">
        <ele>2352.0</ele>
        <time>2016-07-25T16:04:49Z</time>
      </trkpt>
      <trkpt lat="41.088667" lon="-3.678967">
        <ele>2353.0</ele>
        <time>2016-07-25T16:04:50Z</time>
      </trkpt>
      <trkpt lat="41.088700" lon="-3.678917">
        <ele>2355.0</ele>
        <time>2016-07-25T16:04:51Z</time>
      </trkpt>
      <trkpt lat="41.088733" lon="-3.678867">
        <ele>2356.0</ele>
        <time>2016-07-25T16:04:52Z</time>
      </trkpt>
      <trkpt lat="41.088767" lon="-3.678833">
        <ele>2358.0</ele>
        <time>2016-07-25T16:04:53Z</time>
      </trkpt>
      <trkpt lat="41.088800" lon="-3.678800">
        <ele>2360.0</ele>
        <time>2016-07-25T16:04:54Z</time>
      </trkpt>
      <trkpt lat="41.088817" lon="-3.678750">
        <ele>2363.0</ele>
        <time>2016-07-25T16:04:55Z</time>
      </trkpt>
      <trkpt lat="41.088850" lon="-3.678717">
        <ele>2365.0</ele>
        <time>2016-07-25T16:04:56Z</time>
      </trkpt>
      <trkpt lat="41.088883" lon="-3.678650">
        <ele>2367.0</ele>
        <time>2016-07-25T16:04:57Z</time>
      </trkpt>
      <trkpt lat="41.088900" lon="-3.678567">
        <ele>2368.0</ele>
        <time>2016-07-25T16:04:58Z</time>
      </trkpt>
      <trkpt lat="41.088933" lon="-3.678450">
        <ele>2369.0</ele>
        <time>2016-07-25T16:04:59Z</time>
      </trkpt>
      <trkpt lat="41.088950" lon="-3.678317">
        <ele>2370.0</ele>
        <time>2016-07-25T16:05:00Z</time>
      </trkpt>
      <trkpt lat="41.088967" lon="-3.678183">
        <ele>2372.0</ele>
        <time>2016-07-25T16:05:01Z</time>
      </trkpt>
      <trkpt lat="41.088967" lon="-3.678017">
        <ele>2374.0</ele>
        <time>2016-07-25T16:05:02Z</time>
      </trkpt>
      <trkpt lat="41.088917" lon="-3.677867">
        <ele>2377.0</ele>
        <time>2016-07-25T16:05:03Z</time>
      </trkpt>
      <trkpt lat="41.088850" lon="-3.677700">
        <ele>2379.0</ele>
        <time>2016-07-25T16:05:04Z</time>
      </trkpt>
      <trkpt lat="41.088750" lon="-3.677550">
        <ele>2381.0</ele>
        <time>2016-07-25T16:05:05Z</time>
      </trkpt>
      <trkpt lat="41.088633" lon="-3.677417">
        <ele>2382.0</ele>
        <time>2016-07-25T16:05:06Z</time>
      </trkpt>
      <trkpt lat="41.088483" lon="-3.677333">
        <ele>2383.0</ele>
        <time>2016-07-25T16:05:07Z</time>
      </trkpt>
      <trkpt lat="41.088333" lon="-3.677300">
        <ele>2384.0</ele>
        <time>2016-07-25T16:05:08Z</time>
      </trkpt>
      <trkpt lat="41.088200" lon="-3.677317">
        <ele>2384.0</ele>
        <time>2016-07-25T16:05:09Z</time>
      </trkpt>
      <trkpt lat="41.088100" lon="-3.677367">
        <ele>2386.0</ele>
        <time>2016-07-25T16:05:10Z</time>
      </trkpt>
      <trkpt lat="41.088033" lon="-3.677433">
        <ele>2390.0</ele>
        <time>2016-07-25T16:05:11Z</time>
      </trkpt>
      <trkpt lat="41.088017" lon="-3.677483">
        <ele>2393.0</ele>
        <time>2016-07-25T16:05:12Z</time>
      </trkpt>
      <trkpt lat="41.088033" lon="-3.677483">
        <ele>2395.0</ele>
        <time>2016-07-25T16:05:13Z</time>
      </trkpt>
      <trkpt lat="41.088033" lon="-3.677483">
        <ele>2398.0</ele>
        <time>2016-07-25T16:05:14Z</time>
      </trkpt>
      <trkpt lat="41.088033" lon="-3.677467">
        <ele>2399.0</ele>
        <time>2016-07-25T16:05:15Z</time>
      </trkpt>
      <trkpt lat="41.088033" lon="-3.677467">
        <ele>2400.0</ele>
        <time>2016-07-25T16:05:16Z</time>
      </trkpt>
      <trkpt lat="41.088067" lon="-3.677467">
        <ele>2400.0</ele>
        <time>2016-07-25T16:05:17Z</time>
      </trkpt>
      <trkpt lat="41.088083" lon="-3.677450">
        <ele>2400.0</ele>
        <time>2016-07-25T16:05:18Z</time>
      </trkpt>
      <trkpt lat="41.088117" lon="-3.677400">
        <ele>2401.0</ele>
        <time>2016-07-25T16:05:19Z</time>
      </trkpt>
      <trkpt lat="41.088150" lon="-3.677350">
        <ele>2402.0</ele>
        <time>2016-07-25T16:05:20Z</time>
      </trkpt>
      <trkpt lat="41.088183" lon="-3.677317">
        <ele>2403.0</ele>
        <time>2016-07-25T16:05:21Z</time>
      </trkpt>
      <trkpt lat="41.088217" lon="-3.677283">
        <ele>2404.0</ele>
        <time>2016-07-25T16:05:22Z</time>
      </trkpt>
      <trkpt lat="41.088250" lon="-3.677250">
        <ele>2405.0</ele>
        <time>2016-07-25T16:05:23Z</time>
      </trkpt>
      <trkpt lat="41.088300" lon="-3.677233">
        <ele>2406.0</ele>
        <time>2016-07-25T16:05:24Z</time>
      </trkpt>
      <trkpt lat="41.088333" lon="-3.677200">
        <ele>2407.0</ele>
        <time>2016-07-25T16:05:25Z</time>
      </trkpt>
      <trkpt lat="41.088367" lon="-3.677167">
        <ele>2409.0</ele>
        <time>2016-07-25T16:05:26Z</time>
      </trkpt>
      <trkpt lat="41.088417" lon="-3.677150">
        <ele>2410.0</ele>
        <time>2016-07-25T16:05:27Z</time>
      </trkpt>
      <trkpt lat="41.088450" lon="-3.677100">
        <ele>2412.0</ele>
        <time>2016-07-25T16:05:28Z</time>
      </trkpt>
      <trkpt lat="41.088467" lon="-3.677067">
        <ele>2415.0</ele>
        <time>2016-07-25T16:05:29Z</time>
      </trkpt>
      <trkpt lat="41.088483" lon="-3.677017">
        <ele>2418.0</ele>
        <time>2016-07-25T16:05:30Z</time>
      </trkpt>
      <trkpt lat="41.088500" lon="-3.676983">
        <ele>2419.0</ele>
        <time>2016-07-25T16:05:31Z</time>
      </trkpt>
      <trkpt lat="41.088517" lon="-3.676933">
        <ele>2421.0</ele>
        <time>2016-07-25T16:05:32Z</time>
      </trkpt>
      <trkpt lat="41.088550" lon="-3.676883">
        <ele>2422.0</ele>
        <time>2016-07-25T16:05:33Z</time>
      </trkpt>
      <trkpt lat="41.088567" lon="-3.676800">
        <ele>2422.0</ele>
        <time>2016-07-25T16:05:34Z</time>
      </trkpt>
      <trkpt lat="41.088600" lon="-3.676683">
        <ele>2422.0</ele>
        <time>2016-07-25T16:05:35Z</time>
      </trkpt>
      <trkpt lat="41.088600" lon="-3.676550">
        <ele>2421.0</ele>
        <time>2016-07-25T16:05:36Z</time>
      </trkpt>
      <trkpt lat="41.088583" lon="-3.676383">
        <ele>2421.0</ele>
        <time>2016-07-25T16:05:37Z</time>
      </trkpt>
      <trkpt lat="41.088533" lon="-3.676233">
        <ele>2422.0</ele>
        <time>2016-07-25T16:05:38Z</time>
      </trkpt>
      <trkpt lat="41.088467" lon="-3.676067">
        <ele>2421.0</ele>
        <time>2016-07-25T16:05:39Z</time>
      </trkpt>
      <trkpt lat="41.088367" lon="-3.675917">
        <ele>2419.0</ele>
        <time>2016-07-25T16:05:40Z</time>
      </trkpt>
      <trkpt lat="41.088233" lon="-3.675817">
        <ele>2417.0</ele>
        <time>2016-07-25T16:05:41Z</time>
      </trkpt>
      <trkpt lat="41.088083" lon="-3.675750">
        <ele>2414.0</ele>
        <time>2016-07-25T16:05:42Z</time>
      </trkpt>
      <trkpt lat="41.087933" lon="-3.675767">
        <ele>2411.0</ele>
        <time>2016-07-25T16:05:43Z</time>
      </trkpt>
      <trkpt lat="41.087817" lon="-3.675817">
        <ele>2409.0</ele>
        <time>2016-07-25T16:05:44Z</time>
      </trkpt>
      <trkpt lat="41.087733" lon="-3.675883">
        <ele>2409.0</ele>
        <time>2016-07-25T16:05:45Z</time>
      </trkpt>
      <trkpt lat="41.087683" lon="-3.675950">
        <ele>2409.0</ele>
        <time>2016-07-25T16:05:46Z</time>
      </trkpt>
      <trkpt lat="41.087650" lon="-3.676000">
        <ele>2409.0</ele>
        <time>2016-07-25T16:05:47Z</time>
      </trkpt>
      <trkpt lat="41.087617" lon="-3.676067">
        <ele>2409.0</ele>
        <time>2016-07-25T16:05:48Z</time>
      </trkpt>
      <trkpt lat="41.087600" lon="-3.676150">
        <ele>2408.0</ele>
        <time>2016-07-25T16:05:49Z</time>
      </trkpt>
      <trkpt lat="41.087583" lon="-3.676233">
        <ele>2408.0</ele>
        <time>2016-07-25T16:05:50Z</time>
      </trkpt>
      <trkpt lat="41.087583" lon="-3.676267">
        <ele>2411.0</ele>
        <time>2016-07-25T16:05:51Z</time>
      </trkpt>
      <trkpt lat="41.087567" lon="-3.676283">
        <ele>2416.0</ele>
        <time>2016-07-25T16:05:52Z</time>
      </trkpt>
      <trkpt lat="41.087583" lon="-3.676283">
        <ele>2418.0</ele>
        <time>2016-07-25T16:05:53Z</time>
      </trkpt>
      <trkpt lat="41.087583" lon="-3.676283">
        <ele>2419.0</ele>
        <time>2016-07-25T16:05:54Z</time>
      </trkpt>
      <trkpt lat="41.087600" lon="-3.676300">
        <ele>2419.0</ele>
        <time>2016-07-25T16:05:55Z</time>
      </trkpt>
      <trkpt lat="41.087633" lon="-3.676317">
        <ele>2419.0</ele>
        <time>2016-07-25T16:05:56Z</time>
      </trkpt>
      <trkpt lat="41.087683" lon="-3.676317">
        <ele>2420.0</ele>
        <time>2016-07-25T16:05:57Z</time>
      </trkpt>
      <trkpt lat="41.087717" lon="-3.676300">
        <ele>2422.0</ele>
        <time>2016-07-25T16:05:58Z</time>
      </trkpt>
      <trkpt lat="41.087750" lon="-3.676283">
        <ele>2423.0</ele>
        <time>2016-07-25T16:05:59Z</time>
      </trkpt>
      <trkpt lat="41.087767" lon="-3.676283">
        <ele>2423.0</ele>
        <time>2016-07-25T16:06:00Z</time>
      </trkpt>
      <trkpt lat="41.087800" lon="-3.676267">
        <ele>2422.0</ele>
        <time>2016-07-25T16:06:01Z</time>
      </trkpt>
      <trkpt lat="41.087850" lon="-3.676250">
        <ele>2421.0</ele>
        <time>2016-07-25T16:06:02Z</time>
      </trkpt>
      <trkpt lat="41.087900" lon="-3.676233">
        <ele>2422.0</ele>
        <time>2016-07-25T16:06:03Z</time>
      </trkpt>
      <trkpt lat="41.087933" lon="-3.676217">
        <ele>2424.0</ele>
        <time>2016-07-25T16:06:04Z</time>
      </trkpt>
      <trkpt lat="41.087967" lon="-3.676200">
        <ele>2424.0</ele>
        <time>2016-07-25T16:06:05Z</time>
      </trkpt>
      <trkpt lat="41.088000" lon="-3.676167">
        <ele>2423.0</ele>
        <time>2016-07-25T16:06:06Z</time>
      </trkpt>
      <trkpt lat="41.088050" lon="-3.676150">
        <ele>2421.0</ele>
        <time>2016-07-25T16:06:07Z</time>
      </trkpt>
      <trkpt lat="41.088117" lon="-3.676133">
        <ele>2418.0</ele>
        <time>2016-07-25T16:06:08Z</time>
      </trkpt>
      <trkpt lat="41.088167" lon="-3.676117">
        <ele>2417.0</ele>
        <time>2016-07-25T16:06:09Z</time>
      </trkpt>
      <trkpt lat="41.088217" lon="-3.676100">
        <ele>2415.0</ele>
        <time>2016-07-25T16:06:10Z</time>
      </trkpt>
      <trkpt lat="41.088250" lon="-3.676100">
        <ele>2413.0</ele>
        <time>2016-07-25T16:06:11Z</time>
      </trkpt>
      <trkpt lat="41.088300" lon="-3.676083">
        <ele>2411.0</ele>
        <time>2016-07-25T16:06:12Z</time>
      </trkpt>
      <trkpt lat="41.088350" lon="-3.676067">
        <ele>2408.0</ele>
        <time>2016-07-25T16:06:13Z</time>
      </trkpt>
      <trkpt lat="41.088400" lon="-3.676050">
        <ele>2405.0</ele>
        <time>2016-07-25T16:06:14Z</time>
      </trkpt>
      <trkpt lat="41.088467" lon="-3.676033">
        <ele>2402.0</ele>
        <time>2016-07-25T16:06:15Z</time>
      </trkpt>
      <trkpt lat="41.088517" lon="-3.676017">
        <ele>2401.0</ele>
        <time>2016-07-25T16:06:16Z</time>
      </trkpt>
      <trkpt lat="41.088583" lon="-3.676000">
        <ele>2401.0</ele>
        <time>2016-07-25T16:06:17Z</time>
      </trkpt>
      <trkpt lat="41.088617" lon="-3.676000">
        <ele>2402.0</ele>
        <time>2016-07-25T16:06:18Z</time>
      </trkpt>
      <trkpt lat="41.088650" lon="-3.675983">
        <ele>2401.0</ele>
        <time>2016-07-25T16:06:19Z</time>
      </trkpt>
      <trkpt lat="41.088683" lon="-3.675967">
        <ele>2398.0</ele>
        <time>2016-07-25T16:06:20Z</time>
      </trkpt>
      <trkpt lat="41.088733" lon="-3.675967">
        <ele>2395.0</ele>
        <time>2016-07-25T16:06:21Z</time>
      </trkpt>
      <trkpt lat="41.088800" lon="-3.675967">
        <ele>2392.0</ele>
        <time>2016-07-25T16:06:22Z</time>
      </trkpt>
      <trkpt lat="41.088867" lon="-3.675950">
        <ele>2392.0</ele>
        <time>2016-07-25T16:06:23Z</time>
      </trkpt>
      <trkpt lat="41.088917" lon="-3.675917">
        <ele>2393.0</ele>
        <time>2016-07-25T16:06:24Z</time>
      </trkpt>
      <trkpt lat="41.088967" lon="-3.675883">
        <ele>2393.0</ele>
        <time>2016-07-25T16:06:25Z</time>
      </trkpt>
      <trkpt lat="41.089017" lon="-3.675867">
        <ele>2391.0</ele>
        <time>2016-07-25T16:06:26Z</time>
      </trkpt>
      <trkpt lat="41.089067" lon="-3.675833">
        <ele>2388.0</ele>
        <time>2016-07-25T16:06:27Z</time>
      </trkpt>
      <trkpt lat="41.089133" lon="-3.675817">
        <ele>2385.0</ele>
        <time>2016-07-25T16:06:28Z</time>
      </trkpt>
      <trkpt lat="41.089217" lon="-3.675800">
        <ele>2383.0</ele>
        <time>2016-07-25T16:06:29Z</time>
      </trkpt>
      <trkpt lat="41.089267" lon="-3.675767">
        <ele>2383.0</ele>
        <time>2016-07-25T16:06:30Z</time>
      </trkpt>
      <trkpt lat="41.089317" lon="-3.675717">
        <ele>2383.0</ele>
        <time>2016-07-25T16:06:31Z</time>
      </trkpt>
      <trkpt lat="41.089350" lon="-3.675667">
        <ele>2382.0</ele>
        <time>2016-07-25T16:06:32Z</time>
      </trkpt>
      <trkpt lat="41.089383" lon="-3.675617">
        <ele>2380.0</ele>
        <time>2016-07-25T16:06:33Z</time>
      </trkpt>
      <trkpt lat="41.089417" lon="-3.675567">
        <ele>2376.0</ele>
        <time>2016-07-25T16:06:34Z</time>
      </trkpt>
      <trkpt lat="41.089467" lon="-3.675517">
        <ele>2372.0</ele>
        <time>2016-07-25T16:06:35Z</time>
      </trkpt>
      <trkpt lat="41.089533" lon="-3.675483">
        <ele>2367.0</ele>
        <time>2016-07-25T16:06:36Z</time>
      </trkpt>
      <trkpt lat="41.089583" lon="-3.675433">
        <ele>2365.0</ele>
        <time>2016-07-25T16:06:37Z</time>
      </trkpt>
      <trkpt lat="41.089633" lon="-3.675400">
        <ele>2365.0</ele>
        <time>2016-07-25T16:06:38Z</time>
      </trkpt>
      <trkpt lat="41.089667" lon="-3.675367">
        <ele>2364.0</ele>
        <time>2016-07-25T16:06:39Z</time>
      </trkpt>
      <trkpt lat="41.089700" lon="-3.675333">
        <ele>2361.0</ele>
        <time>2016-07-25T16:06:40Z</time>
      </trkpt>
      <trkpt lat="41.089733" lon="-3.675300">
        <ele>2357.0</ele>
        <time>2016-07-25T16:06:41Z</time>
      </trkpt>
      <trkpt lat="41.089783" lon="-3.675267">
        <ele>2353.0</ele>
        <time>2016-07-25T16:06:42Z</time>
      </trkpt>
      <trkpt lat="41.089850" lon="-3.675217">
        <ele>2350.0</ele>
        <time>2016-07-25T16:06:43Z</time>
      </trkpt>
      <trkpt lat="41.089900" lon="-3.675167">
        <ele>2348.0</ele>
        <time>2016-07-25T16:06:44Z</time>
      </trkpt>
      <trkpt lat="41.089933" lon="-3.675133">
        <ele>2346.0</ele>
        <time>2016-07-25T16:06:45Z</time>
      </trkpt>
      <trkpt lat="41.089967" lon="-3.675100">
        <ele>2344.0</ele>
        <time>2016-07-25T16:06:46Z</time>
      </trkpt>
      <trkpt lat="41.090017" lon="-3.675067">
        <ele>2340.0</ele>
        <time>2016-07-25T16:06:47Z</time>
      </trkpt>
      <trkpt lat="41.090067" lon="-3.675033">
        <ele>2336.0</ele>
        <time>2016-07-25T16:06:48Z</time>
      </trkpt>
      <trkpt lat="41.090117" lon="-3.674983">
        <ele>2332.0</ele>
        <time>2016-07-25T16:06:49Z</time>
      </trkpt>
      <trkpt lat="41.090183" lon="-3.674917">
        <ele>2328.0</ele>
        <time>2016-07-25T16:06:50Z</time>
      </trkpt>
      <trkpt lat="41.090250" lon="-3.674850">
        <ele>2325.0</ele>
        <time>2016-07-25T16:06:51Z</time>
      </trkpt>
      <trkpt lat="41.090317" lon="-3.674783">
        <ele>2323.0</ele>
        <time>2016-07-25T16:06:52Z</time>
      </trkpt>
      <trkpt lat="41.090367" lon="-3.674733">
        <ele>2321.0</ele>
        <time>2016-07-25T16:06:53Z</time>
      </trkpt>
      <trkpt lat="41.090417" lon="-3.674700">
        <ele>2319.0</ele>
        <time>2016-07-25T16:06:54Z</time>
      </trkpt>
      <trkpt lat="41.090467" lon="-3.674667">
        <ele>2317.0</ele>
        <time>2016-07-25T16:06:55Z</time>
      </trkpt>
      <trkpt lat="41.090517" lon="-3.674617">
        <ele>2315.0</ele>
        <time>2016-07-25T16:06:56Z</time>
      </trkpt>
      <trkpt lat="41.090567" lon="-3.674567">
        <ele>2313.0</ele>
        <time>2016-07-25T16:06:57Z</time>
      </trkpt>
      <trkpt lat="41.090617" lon="-3.674517">
        <ele>2310.0</ele>
        <time>2016-07-25T16:06:58Z</time>
      </trkpt>
      <trkpt lat="41.090683" lon="-3.674450">
        <ele>2308.0</ele>
        <time>2016-07-25T16:06:59Z</time>
      </trkpt>
      <trkpt lat="41.090750" lon="-3.674400">
        <ele>2307.0</ele>
        <time>2016-07-25T16:07:00Z</time>
      </trkpt>
      <trkpt lat="41.090800" lon="-3.674350">
        <ele>2306.0</ele>
        <time>2016-07-25T16:07:01Z</time>
      </trkpt>
      <trkpt lat="41.090850" lon="-3.674300">
        <ele>2304.0</ele>
        <time>2016-07-25T16:07:02Z</time>
      </trkpt>
      <trkpt lat="41.090900" lon="-3.674250">
        <ele>2301.0</ele>
        <time>2016-07-25T16:07:03Z</time>
      </trkpt>
      <trkpt lat="41.090950" lon="-3.674183">
        <ele>2298.0</ele>
        <time>2016-07-25T16:07:04Z</time>
      </trkpt>
      <trkpt lat="41.091017" lon="-3.674133">
        <ele>2294.0</ele>
        <time>2016-07-25T16:07:05Z</time>
      </trkpt>
      <trkpt lat="41.091083" lon="-3.674100">
        <ele>2291.0</ele>
        <time>2016-07-25T16:07:06Z</time>
      </trkpt>
      <trkpt lat="41.091167" lon="-3.674067">
        <ele>2289.0</ele>
        <time>2016-07-25T16:07:07Z</time>
      </trkpt>
      <trkpt lat="41.091233" lon="-3.674017">
        <ele>2288.0</ele>
        <time>2016-07-25T16:07:08Z</time>
      </trkpt>
      <trkpt lat="41.091300" lon="-3.673967">
        <ele>2287.0</ele>
        <time>2016-07-25T16:07:09Z</time>
      </trkpt>
      <trkpt lat="41.091350" lon="-3.673900">
        <ele>2286.0</ele>
        <time>2016-07-25T16:07:10Z</time>
      </trkpt>
      <trkpt lat="41.091417" lon="-3.673850">
        <ele>2285.0</ele>
        <time>2016-07-25T16:07:11Z</time>
      </trkpt>
      <trkpt lat="41.091467" lon="-3.673817">
        <ele>2283.0</ele>
        <time>2016-07-25T16:07:12Z</time>
      </trkpt>
      <trkpt lat="41.091533" lon="-3.673800">
        <ele>2282.0</ele>
        <time>2016-07-25T16:07:13Z</time>
      </trkpt>
      <trkpt lat="41.091600" lon="-3.673767">
        <ele>2282.0</ele>
        <time>2016-07-25T16:07:14Z</time>
      </trkpt>
      <trkpt lat="41.091667" lon="-3.673717">
        <ele>2281.0</ele>
        <time>2016-07-25T16:07:15Z</time>
      </trkpt>
      <trkpt lat="41.091717" lon="-3.673667">
        <ele>2281.0</ele>
        <time>2016-07-25T16:07:16Z</time>
      </trkpt>
      <trkpt lat="41.091767" lon="-3.673633">
        <ele>2281.0</ele>
        <time>2016-07-25T16:07:17Z</time>
      </trkpt>
      <trkpt lat="41.091833" lon="-3.673600">
        <ele>2280.0</ele>
        <time>2016-07-25T16:07:18Z</time>
      </trkpt>
      <trkpt lat="41.091900" lon="-3.673567">
        <ele>2279.0</ele>
        <time>2016-07-25T16:07:19Z</time>
      </trkpt>
      <trkpt lat="41.091983" lon="-3.673533">
        <ele>2279.0</ele>
        <time>2016-07-25T16:07:20Z</time>
      </trkpt>
      <trkpt lat="41.092033" lon="-3.673483">
        <ele>2280.0</ele>
        <time>2016-07-25T16:07:21Z</time>
      </trkpt>
      <trkpt lat="41.092083" lon="-3.673417">
        <ele>2282.0</ele>
        <time>2016-07-25T16:07:22Z</time>
      </trkpt>
      <trkpt lat="41.092133" lon="-3.673350">
        <ele>2284.0</ele>
        <time>2016-07-25T16:07:23Z</time>
      </trkpt>
      <trkpt lat="41.092167" lon="-3.673300">
        <ele>2284.0</ele>
        <time>2016-07-25T16:07:24Z</time>
      </trkpt>
      <trkpt lat="41.092217" lon="-3.673267">
        <ele>2284.0</ele>
        <time>2016-07-25T16:07:25Z</time>
      </trkpt>
      <trkpt lat="41.092250" lon="-3.673250">
        <ele>2284.0</ele>
        <time>2016-07-25T16:07:26Z</time>
      </trkpt>
      <trkpt lat="41.092300" lon="-3.673217">
        <ele>2283.0</ele>
        <time>2016-07-25T16:07:27Z</time>
      </trkpt>
      <trkpt lat="41.092350" lon="-3.673200">
        <ele>2283.0</ele>
        <time>2016-07-25T16:07:28Z</time>
      </trkpt>
      <trkpt lat="41.092400" lon="-3.673167">
        <ele>2282.0</ele>
        <time>2016-07-25T16:07:29Z</time>
      </trkpt>
      <trkpt lat="41.092450" lon="-3.673133">
        <ele>2282.0</ele>
        <time>2016-07-25T16:07:30Z</time>
      </trkpt>
      <trkpt lat="41.092483" lon="-3.673100">
        <ele>2282.0</ele>
        <time>2016-07-25T16:07:31Z</time>
      </trkpt>
      <trkpt lat="41.092517" lon="-3.673067">
        <ele>2281.0</ele>
        <time>2016-07-25T16:07:32Z</time>
      </trkpt>
      <trkpt lat="41.092567" lon="-3.673033">
        <ele>2281.0</ele>
        <time>2016-07-25T16:07:33Z</time>
      </trkpt>
      <trkpt lat="41.092600" lon="-3.673000">
        <ele>2281.0</ele>
        <time>2016-07-25T16:07:34Z</time>
      </trkpt>
      <trkpt lat="41.092650" lon="-3.672967">
        <ele>2281.0</ele>
        <time>2016-07-25T16:07:35Z</time>
      </trkpt>
      <trkpt lat="41.092667" lon="-3.672933">
        <ele>2282.0</ele>
        <time>2016-07-25T16:07:36Z</time>
      </trkpt>
      <trkpt lat="41.092717" lon="-3.672900">
        <ele>2281.0</ele>
        <time>2016-07-25T16:07:37Z</time>
      </trkpt>
      <trkpt lat="41.092750" lon="-3.672883">
        <ele>2281.0</ele>
        <time>2016-07-25T16:07:38Z</time>
      </trkpt>
      <trkpt lat="41.092783" lon="-3.672867">
        <ele>2281.0</ele>
        <time>2016-07-25T16:07:39Z</time>
      </trkpt>
      <trkpt lat="41.092817" lon="-3.672850">
        <ele>2282.0</ele>
        <time>2016-07-25T16:07:40Z</time>
      </trkpt>
      <trkpt lat="41.092850" lon="-3.672817">
        <ele>2281.0</ele>
        <time>2016-07-25T16:07:41Z</time>
      </trkpt>
      <trkpt lat="41.092900" lon="-3.672800">
        <ele>2281.0</ele>
        <time>2016-07-25T16:07:42Z</time>
      </trkpt>
      <trkpt lat="41.092933" lon="-3.672767">
        <ele>2280.0</ele>
        <time>2016-07-25T16:07:43Z</time>
      </trkpt>
      <trkpt lat="41.092983" lon="-3.672750">
        <ele>2280.0</ele>
        <time>2016-07-25T16:07:44Z</time>
      </trkpt>
      <trkpt lat="41.093017" lon="-3.672717">
        <ele>2280.0</ele>
        <time>2016-07-25T16:07:45Z</time>
      </trkpt>
      <trkpt lat="41.093050" lon="-3.672700">
        <ele>2280.0</ele>
        <time>2016-07-25T16:07:46Z</time>
      </trkpt>
      <trkpt lat="41.093100" lon="-3.672667">
        <ele>2281.0</ele>
        <time>2016-07-25T16:07:47Z</time>
      </trkpt>
      <trkpt lat="41.093133" lon="-3.672633">
        <ele>2281.0</ele>
        <time>2016-07-25T16:07:48Z</time>
      </trkpt>
      <trkpt lat="41.093167" lon="-3.672617">
        <ele>2280.0</ele>
        <time>2016-07-25T16:07:49Z</time>
      </trkpt>
      <trkpt lat="41.093217" lon="-3.672583">
        <ele>2280.0</ele>
        <time>2016-07-25T16:07:50Z</time>
      </trkpt>
      <trkpt lat="41.093267" lon="-3.672567">
        <ele>2281.0</ele>
        <time>2016-07-25T16:07:51Z</time>
      </trkpt>
      <trkpt lat="41.093317" lon="-3.672533">
        <ele>2282.0</ele>
        <time>2016-07-25T16:07:52Z</time>
      </trkpt>
      <trkpt lat="41.093350" lon="-3.672517">
        <ele>2283.0</ele>
        <time>2016-07-25T16:07:53Z</time>
      </trkpt>
      <trkpt lat="41.093400" lon="-3.672500">
        <ele>2285.0</ele>
        <time>2016-07-25T16:07:54Z</time>
      </trkpt>
      <trkpt lat="41.093450" lon="-3.672467">
        <ele>2287.0</ele>
        <time>2016-07-25T16:07:55Z</time>
      </trkpt>
      <trkpt lat="41.093483" lon="-3.672417">
        <ele>2289.0</ele>
        <time>2016-07-25T16:07:56Z</time>
      </trkpt>
      <trkpt lat="41.093500" lon="-3.672400">
        <ele>2292.0</ele>
        <time>2016-07-25T16:07:57Z</time>
      </trkpt>
      <trkpt lat="41.093500" lon="-3.672383">
        <ele>2294.0</ele>
        <time>2016-07-25T16:07:58Z</time>
      </trkpt>
      <trkpt lat="41.093517" lon="-3.672383">
        <ele>2294.0</ele>
        <time>2016-07-25T16:07:59Z</time>
      </trkpt>
      <trkpt lat="41.093533" lon="-3.672367">
        <ele>2293.0</ele>
        <time>2016-07-25T16:08:00Z</time>
      </trkpt>
      <trkpt lat="41.093567" lon="-3.672383">
        <ele>2293.0</ele>
        <time>2016-07-25T16:08:01Z</time>
      </trkpt>
      <trkpt lat="41.093583" lon="-3.672400">
        <ele>2294.0</ele>
        <time>2016-07-25T16:08:02Z</time>
      </trkpt>
      <trkpt lat="41.093617" lon="-3.672450">
        <ele>2296.0</ele>
        <time>2016-07-25T16:08:03Z</time>
      </trkpt>
      <trkpt lat="41.093617" lon="-3.672483">
        <ele>2297.0</ele>
        <time>2016-07-25T16:08:04Z</time>
      </trkpt>
      <trkpt lat="41.093633" lon="-3.672533">
        <ele>2298.0</ele>
        <time>2016-07-25T16:08:05Z</time>
      </trkpt>
      <trkpt lat="41.093633" lon="-3.672583">
        <ele>2299.0</ele>
        <time>2016-07-25T16:08:06Z</time>
      </trkpt>
      <trkpt lat="41.093650" lon="-3.672617">
        <ele>2300.0</ele>
        <time>2016-07-25T16:08:07Z</time>
      </trkpt>
      <trkpt lat="41.093667" lon="-3.672667">
        <ele>2300.0</ele>
        <time>2016-07-25T16:08:08Z</time>
      </trkpt>
      <trkpt lat="41.093700" lon="-3.672717">
        <ele>2300.0</ele>
        <time>2016-07-25T16:08:09Z</time>
      </trkpt>
      <trkpt lat="41.093717" lon="-3.672767">
        <ele>2300.0</ele>
        <time>2016-07-25T16:08:10Z</time>
      </trkpt>
      <trkpt lat="41.093717" lon="-3.672833">
        <ele>2301.0</ele>
        <time>2016-07-25T16:08:11Z</time>
      </trkpt>
      <trkpt lat="41.093733" lon="-3.672867">
        <ele>2301.0</ele>
        <time>2016-07-25T16:08:12Z</time>
      </trkpt>
      <trkpt lat="41.093733" lon="-3.672917">
        <ele>2300.0</ele>
        <time>2016-07-25T16:08:13Z</time>
      </trkpt>
      <trkpt lat="41.093767" lon="-3.672950">
        <ele>2298.0</ele>
        <time>2016-07-25T16:08:14Z</time>
      </trkpt>
      <trkpt lat="41.093800" lon="-3.673000">
        <ele>2296.0</ele>
        <time>2016-07-25T16:08:15Z</time>
      </trkpt>
      <trkpt lat="41.093833" lon="-3.673033">
        <ele>2296.0</ele>
        <time>2016-07-25T16:08:16Z</time>
      </trkpt>
      <trkpt lat="41.093867" lon="-3.673067">
        <ele>2295.0</ele>
        <time>2016-07-25T16:08:17Z</time>
      </trkpt>
      <trkpt lat="41.093883" lon="-3.673083">
        <ele>2295.0</ele>
        <time>2016-07-25T16:08:18Z</time>
      </trkpt>
      <trkpt lat="41.093900" lon="-3.673100">
        <ele>2295.0</ele>
        <time>2016-07-25T16:08:19Z</time>
      </trkpt>
      <trkpt lat="41.093933" lon="-3.673100">
        <ele>2294.0</ele>
        <time>2016-07-25T16:08:20Z</time>
      </trkpt>
      <trkpt lat="41.093967" lon="-3.673117">
        <ele>2293.0</ele>
        <time>2016-07-25T16:08:21Z</time>
      </trkpt>
      <trkpt lat="41.094000" lon="-3.673150">
        <ele>2291.0</ele>
        <time>2016-07-25T16:08:22Z</time>
      </trkpt>
      <trkpt lat="41.094033" lon="-3.673167">
        <ele>2289.0</ele>
        <time>2016-07-25T16:08:23Z</time>
      </trkpt>
      <trkpt lat="41.094083" lon="-3.673183">
        <ele>2288.0</ele>
        <time>2016-07-25T16:08:24Z</time>
      </trkpt>
      <trkpt lat="41.094133" lon="-3.673183">
        <ele>2287.0</ele>
        <time>2016-07-25T16:08:25Z</time>
      </trkpt>
      <trkpt lat="41.094200" lon="-3.673150">
        <ele>2287.0</ele>
        <time>2016-07-25T16:08:26Z</time>
      </trkpt>
      <trkpt lat="41.094250" lon="-3.673117">
        <ele>2286.0</ele>
        <time>2016-07-25T16:08:27Z</time>
      </trkpt>
      <trkpt lat="41.094300" lon="-3.673083">
        <ele>2285.0</ele>
        <time>2016-07-25T16:08:28Z</time>
      </trkpt>
      <trkpt lat="41.094367" lon="-3.673033">
        <ele>2284.0</ele>
        <time>2016-07-25T16:08:29Z</time>
      </trkpt>
      <trkpt lat="41.094417" lon="-3.672983">
        <ele>2284.0</ele>
        <time>2016-07-25T16:08:30Z</time>
      </trkpt>
      <trkpt lat="41.094467" lon="-3.672950">
        <ele>2283.0</ele>
        <time>2016-07-25T16:08:31Z</time>
      </trkpt>
      <trkpt lat="41.094517" lon="-3.672900">
        <ele>2282.0</ele>
        <time>2016-07-25T16:08:32Z</time>
      </trkpt>
      <trkpt lat="41.094583" lon="-3.672850">
        <ele>2281.0</ele>
        <time>2016-07-25T16:08:33Z</time>
      </trkpt>
      <trkpt lat="41.094633" lon="-3.672817">
        <ele>2280.0</ele>
        <time>2016-07-25T16:08:34Z</time>
      </trkpt>
      <trkpt lat="41.094700" lon="-3.672767">
        <ele>2279.0</ele>
        <time>2016-07-25T16:08:35Z</time>
      </trkpt>
      <trkpt lat="41.094750" lon="-3.672717">
        <ele>2278.0</ele>
        <time>2016-07-25T16:08:36Z</time>
      </trkpt>
      <trkpt lat="41.094800" lon="-3.672683">
        <ele>2278.0</ele>
        <time>2016-07-25T16:08:37Z</time>
      </trkpt>
      <trkpt lat="41.094867" lon="-3.672650">
        <ele>2277.0</ele>
        <time>2016-07-25T16:08:38Z</time>
      </trkpt>
      <trkpt lat="41.094917" lon="-3.672617">
        <ele>2276.0</ele>
        <time>2016-07-25T16:08:39Z</time>
      </trkpt>
      <trkpt lat="41.094983" lon="-3.672583">
        <ele>2276.0</ele>
        <time>2016-07-25T16:08:40Z</time>
      </trkpt>
      <trkpt lat="41.095050" lon="-3.672550">
        <ele>2277.0</ele>
        <time>2016-07-25T16:08:41Z</time>
      </trkpt>
      <trkpt lat="41.095117" lon="-3.672500">
        <ele>2278.0</ele>
        <time>2016-07-25T16:08:42Z</time>
      </trkpt>
      <trkpt lat="41.095183" lon="-3.672467">
        <ele>2279.0</ele>
        <time>2016-07-25T16:08:43Z</time>
      </trkpt>
      <trkpt lat="41.095233" lon="-3.672417">
        <ele>2281.0</ele>
        <time>2016-07-25T16:08:44Z</time>
      </trkpt>
      <trkpt lat="41.095283" lon="-3.672367">
        <ele>2282.0</ele>
        <time>2016-07-25T16:08:45Z</time>
      </trkpt>
      <trkpt lat="41.095350" lon="-3.672317">
        <ele>2283.0</ele>
        <time>2016-07-25T16:08:46Z</time>
      </trkpt>
      <trkpt lat="41.095400" lon="-3.672283">
        <ele>2284.0</ele>
        <time>2016-07-25T16:08:47Z</time>
      </trkpt>
      <trkpt lat="41.095450" lon="-3.672250">
        <ele>2286.0</ele>
        <time>2016-07-25T16:08:48Z</time>
      </trkpt>
      <trkpt lat="41.095500" lon="-3.672217">
        <ele>2288.0</ele>
        <time>2016-07-25T16:08:49Z</time>
      </trkpt>
      <trkpt lat="41.095550" lon="-3.672200">
        <ele>2290.0</ele>
        <time>2016-07-25T16:08:50Z</time>
      </trkpt>
      <trkpt lat="41.095583" lon="-3.672167">
        <ele>2291.0</ele>
        <time>2016-07-25T16:08:51Z</time>
      </trkpt>
      <trkpt lat="41.095617" lon="-3.672150">
        <ele>2292.0</ele>
        <time>2016-07-25T16:08:52Z</time>
      </trkpt>
      <trkpt lat="41.095667" lon="-3.672133">
        <ele>2293.0</ele>
        <time>2016-07-25T16:08:53Z</time>
      </trkpt>
      <trkpt lat="41.095717" lon="-3.672117">
        <ele>2295.0</ele>
        <time>2016-07-25T16:08:54Z</time>
      </trkpt>
      <trkpt lat="41.095767" lon="-3.672117">
        <ele>2297.0</ele>
        <time>2016-07-25T16:08:55Z</time>
      </trkpt>
      <trkpt lat="41.095800" lon="-3.672100">
        <ele>2300.0</ele>
        <time>2016-07-25T16:08:56Z</time>
      </trkpt>
      <trkpt lat="41.095817" lon="-3.672100">
        <ele>2302.0</ele>
        <time>2016-07-25T16:08:57Z</time>
      </trkpt>
      <trkpt lat="41.095850" lon="-3.672100">
        <ele>2304.0</ele>
        <time>2016-07-25T16:08:58Z</time>
      </trkpt>
      <trkpt lat="41.095900" lon="-3.672083">
        <ele>2306.0</ele>
        <time>2016-07-25T16:08:59Z</time>
      </trkpt>
      <trkpt lat="41.095933" lon="-3.672083">
        <ele>2309.0</ele>
        <time>2016-07-25T16:09:00Z</time>
      </trkpt>
      <trkpt lat="41.095950" lon="-3.672067">
        <ele>2311.0</ele>
        <time>2016-07-25T16:09:01Z</time>
      </trkpt>
      <trkpt lat="41.095983" lon="-3.672050">
        <ele>2313.0</ele>
        <time>2016-07-25T16:09:02Z</time>
      </trkpt>
      <trkpt lat="41.096000" lon="-3.672033">
        <ele>2315.0</ele>
        <time>2016-07-25T16:09:03Z</time>
      </trkpt>
      <trkpt lat="41.096017" lon="-3.672017">
        <ele>2315.0</ele>
        <time>2016-07-25T16:09:04Z</time>
      </trkpt>
      <trkpt lat="41.096050" lon="-3.672017">
        <ele>2316.0</ele>
        <time>2016-07-25T16:09:05Z</time>
      </trkpt>
      <trkpt lat="41.096067" lon="-3.672017">
        <ele>2316.0</ele>
        <time>2016-07-25T16:09:06Z</time>
      </trkpt>
      <trkpt lat="41.096100" lon="-3.672017">
        <ele>2317.0</ele>
        <time>2016-07-25T16:09:07Z</time>
      </trkpt>
      <trkpt lat="41.096117" lon="-3.671983">
        <ele>2318.0</ele>
        <time>2016-07-25T16:09:08Z</time>
      </trkpt>
      <trkpt lat="41.096150" lon="-3.671950">
        <ele>2318.0</ele>
        <time>2016-07-25T16:09:09Z</time>
      </trkpt>
      <trkpt lat="41.096183" lon="-3.671900">
        <ele>2318.0</ele>
        <time>2016-07-25T16:09:10Z</time>
      </trkpt>
      <trkpt lat="41.096217" lon="-3.671833">
        <ele>2318.0</ele>
        <time>2016-07-25T16:09:11Z</time>
      </trkpt>
      <trkpt lat="41.096250" lon="-3.671767">
        <ele>2318.0</ele>
        <time>2016-07-25T16:09:12Z</time>
      </trkpt>
      <trkpt lat="41.096283" lon="-3.671717">
        <ele>2318.0</ele>
        <time>2016-07-25T16:09:13Z</time>
      </trkpt>
      <trkpt lat="41.096317" lon="-3.671700">
        <ele>2318.0</ele>
        <time>2016-07-25T16:09:14Z</time>
      </trkpt>
      <trkpt lat="41.096333" lon="-3.671717">
        <ele>2317.0</ele>
        <time>2016-07-25T16:09:15Z</time>
      </trkpt>
      <trkpt lat="41.096350" lon="-3.671750">
        <ele>2317.0</ele>
        <time>2016-07-25T16:09:16Z</time>
      </trkpt>
      <trkpt lat="41.096367" lon="-3.671767">
        <ele>2317.0</ele>
        <time>2016-07-25T16:09:17Z</time>
      </trkpt>
      <trkpt lat="41.096400" lon="-3.671767">
        <ele>2318.0</ele>
        <time>2016-07-25T16:09:18Z</time>
      </trkpt>
      <trkpt lat="41.096417" lon="-3.671750">
        <ele>2319.0</ele>
        <time>2016-07-25T16:09:19Z</time>
      </trkpt>
      <trkpt lat="41.096433" lon="-3.671733">
        <ele>2320.0</ele>
        <time>2016-07-25T16:09:20Z</time>
      </trkpt>
      <trkpt lat="41.096450" lon="-3.671733">
        <ele>2319.0</ele>
        <time>2016-07-25T16:09:21Z</time>
      </trkpt>
      <trkpt lat="41.096483" lon="-3.671750">
        <ele>2318.0</ele>
        <time>2016-07-25T16:09:22Z</time>
      </trkpt>
      <trkpt lat="41.096517" lon="-3.671767">
        <ele>2317.0</ele>
        <time>2016-07-25T16:09:23Z</time>
      </trkpt>
      <trkpt lat="41.096550" lon="-3.671783">
        <ele>2319.0</ele>
        <time>2016-07-25T16:09:24Z</time>
      </trkpt>
      <trkpt lat="41.096567" lon="-3.671800">
        <ele>2320.0</ele>
        <time>2016-07-25T16:09:25Z</time>
      </trkpt>
      <trkpt lat="41.096567" lon="-3.671800">
        <ele>2321.0</ele>
        <time>2016-07-25T16:09:26Z</time>
      </trkpt>
      <trkpt lat="41.096567" lon="-3.671800">
        <ele>2320.0</ele>
        <time>2016-07-25T16:09:27Z</time>
      </trkpt>
      <trkpt lat="41.096567" lon="-3.671817">
        <ele>2319.0</ele>
        <time>2016-07-25T16:09:28Z</time>
      </trkpt>
      <trkpt lat="41.096583" lon="-3.671833">
        <ele>2319.0</ele>
        <time>2016-07-25T16:09:29Z</time>
      </trkpt>
      <trkpt lat="41.096617" lon="-3.671850">
        <ele>2317.0</ele>
        <time>2016-07-25T16:09:30Z</time>
      </trkpt>
      <trkpt lat="41.096667" lon="-3.671867">
        <ele>2317.0</ele>
        <time>2016-07-25T16:09:31Z</time>
      </trkpt>
      <trkpt lat="41.096700" lon="-3.671850">
        <ele>2319.0</ele>
        <time>2016-07-25T16:09:32Z</time>
      </trkpt>
      <trkpt lat="41.096733" lon="-3.671817">
        <ele>2321.0</ele>
        <time>2016-07-25T16:09:33Z</time>
      </trkpt>
      <trkpt lat="41.096767" lon="-3.671783">
        <ele>2322.0</ele>
        <time>2016-07-25T16:09:34Z</time>
      </trkpt>
      <trkpt lat="41.096783" lon="-3.671750">
        <ele>2321.0</ele>
        <time>2016-07-25T16:09:35Z</time>
      </trkpt>
      <trkpt lat="41.096817" lon="-3.671717">
        <ele>2320.0</ele>
        <time>2016-07-25T16:09:36Z</time>
      </trkpt>
      <trkpt lat="41.096867" lon="-3.671717">
        <ele>2319.0</ele>
        <time>2016-07-25T16:09:37Z</time>
      </trkpt>
      <trkpt lat="41.096900" lon="-3.671733">
        <ele>2319.0</ele>
        <time>2016-07-25T16:09:38Z</time>
      </trkpt>
      <trkpt lat="41.096950" lon="-3.671750">
        <ele>2319.0</ele>
        <time>2016-07-25T16:09:39Z</time>
      </trkpt>
      <trkpt lat="41.096967" lon="-3.671750">
        <ele>2321.0</ele>
        <time>2016-07-25T16:09:40Z</time>
      </trkpt>
      <trkpt lat="41.097000" lon="-3.671733">
        <ele>2322.0</ele>
        <time>2016-07-25T16:09:41Z</time>
      </trkpt>
      <trkpt lat="41.097017" lon="-3.671733">
        <ele>2322.0</ele>
        <time>2016-07-25T16:09:42Z</time>
      </trkpt>
      <trkpt lat="41.097050" lon="-3.671717">
        <ele>2322.0</ele>
        <time>2016-07-25T16:09:43Z</time>
      </trkpt>
      <trkpt lat="41.097083" lon="-3.671733">
        <ele>2322.0</ele>
        <time>2016-07-25T16:09:44Z</time>
      </trkpt>
      <trkpt lat="41.097133" lon="-3.671733">
        <ele>2322.0</ele>
        <time>2016-07-25T16:09:45Z</time>
      </trkpt>
      <trkpt lat="41.097183" lon="-3.671750">
        <ele>2325.0</ele>
        <time>2016-07-25T16:09:46Z</time>
      </trkpt>
      <trkpt lat="41.097217" lon="-3.671750">
        <ele>2328.0</ele>
        <time>2016-07-25T16:09:47Z</time>
      </trkpt>
      <trkpt lat="41.097250" lon="-3.671750">
        <ele>2331.0</ele>
        <time>2016-07-25T16:09:48Z</time>
      </trkpt>
      <trkpt lat="41.097267" lon="-3.671750">
        <ele>2334.0</ele>
        <time>2016-07-25T16:09:49Z</time>
      </trkpt>
      <trkpt lat="41.097283" lon="-3.671767">
        <ele>2336.0</ele>
        <time>2016-07-25T16:09:50Z</time>
      </trkpt>
      <trkpt lat="41.097317" lon="-3.671783">
        <ele>2337.0</ele>
        <time>2016-07-25T16:09:51Z</time>
      </trkpt>
      <trkpt lat="41.097367" lon="-3.671800">
        <ele>2339.0</ele>
        <time>2016-07-25T16:09:52Z</time>
      </trkpt>
      <trkpt lat="41.097417" lon="-3.671833">
        <ele>2341.0</ele>
        <time>2016-07-25T16:09:53Z</time>
      </trkpt>
      <trkpt lat="41.097467" lon="-3.671850">
        <ele>2343.0</ele>
        <time>2016-07-25T16:09:54Z</time>
      </trkpt>
      <trkpt lat="41.097517" lon="-3.671833">
        <ele>2346.0</ele>
        <time>2016-07-25T16:09:55Z</time>
      </trkpt>
      <trkpt lat="41.097567" lon="-3.671800">
        <ele>2348.0</ele>
        <time>2016-07-25T16:09:56Z</time>
      </trkpt>
      <trkpt lat="41.097617" lon="-3.671750">
        <ele>2349.0</ele>
        <time>2016-07-25T16:09:57Z</time>
      </trkpt>
      <trkpt lat="41.097683" lon="-3.671700">
        <ele>2349.0</ele>
        <time>2016-07-25T16:09:58Z</time>
      </trkpt>
      <trkpt lat="41.097733" lon="-3.671617">
        <ele>2350.0</ele>
        <time>2016-07-25T16:09:59Z</time>
      </trkpt>
      <trkpt lat="41.097800" lon="-3.671500">
        <ele>2351.0</ele>
        <time>2016-07-25T16:10:00Z</time>
      </trkpt>
      <trkpt lat="41.097833" lon="-3.671350">
        <ele>2352.0</ele>
        <time>2016-07-25T16:10:01Z</time>
      </trkpt>
      <trkpt lat="41.097850" lon="-3.671183">
        <ele>2353.0</ele>
        <time>2016-07-25T16:10:02Z</time>
      </trkpt>
      <trkpt lat="41.097817" lon="-3.671000">
        <ele>2355.0</ele>
        <time>2016-07-25T16:10:03Z</time>
      </trkpt>
      <trkpt lat="41.097750" lon="-3.670833">
        <ele>2356.0</ele>
        <time>2016-07-25T16:10:04Z</time>
      </trkpt>
      <trkpt lat="41.097667" lon="-3.670700">
        <ele>2357.0</ele>
        <time>2016-07-25T16:10:05Z</time>
      </trkpt>
      <trkpt lat="41.097550" lon="-3.670583">
        <ele>2358.0</ele>
        <time>2016-07-25T16:10:06Z</time>
      </trkpt>
      <trkpt lat="41.097417" lon="-3.670517">
        <ele>2359.0</ele>
        <time>2016-07-25T16:10:07Z</time>
      </trkpt>
      <trkpt lat="41.097300" lon="-3.670483">
        <ele>2360.0</ele>
        <time>2016-07-25T16:10:08Z</time>
      </trkpt>
      <trkpt lat="41.097200" lon="-3.670483">
        <ele>2361.0</ele>
        <time>2016-07-25T16:10:09Z</time>
      </trkpt>
      <trkpt lat="41.097117" lon="-3.670517">
        <ele>2361.0</ele>
        <time>2016-07-25T16:10:10Z</time>
      </trkpt>
      <trkpt lat="41.097033" lon="-3.670567">
        <ele>2362.0</ele>
        <time>2016-07-25T16:10:11Z</time>
      </trkpt>
      <trkpt lat="41.096983" lon="-3.670617">
        <ele>2364.0</ele>
        <time>2016-07-25T16:10:12Z</time>
      </trkpt>
      <trkpt lat="41.096933" lon="-3.670650">
        <ele>2366.0</ele>
        <time>2016-07-25T16:10:13Z</time>
      </trkpt>
      <trkpt lat="41.096900" lon="-3.670683">
        <ele>2367.0</ele>
        <time>2016-07-25T16:10:14Z</time>
      </trkpt>
      <trkpt lat="41.096883" lon="-3.670733">
        <ele>2368.0</ele>
        <time>2016-07-25T16:10:15Z</time>
      </trkpt>
      <trkpt lat="41.096867" lon="-3.670767">
        <ele>2370.0</ele>
        <time>2016-07-25T16:10:16Z</time>
      </trkpt>
      <trkpt lat="41.096867" lon="-3.670800">
        <ele>2371.0</ele>
        <time>2016-07-25T16:10:17Z</time>
      </trkpt>
      <trkpt lat="41.096883" lon="-3.670833">
        <ele>2372.0</ele>
        <time>2016-07-25T16:10:18Z</time>
      </trkpt>
      <trkpt lat="41.096900" lon="-3.670867">
        <ele>2373.0</ele>
        <time>2016-07-25T16:10:19Z</time>
      </trkpt>
      <trkpt lat="41.096933" lon="-3.670883">
        <ele>2375.0</ele>
        <time>2016-07-25T16:10:20Z</time>
      </trkpt>
      <trkpt lat="41.096950" lon="-3.670917">
        <ele>2377.0</ele>
        <time>2016-07-25T16:10:21Z</time>
      </trkpt>
      <trkpt lat="41.096983" lon="-3.670917">
        <ele>2379.0</ele>
        <time>2016-07-25T16:10:22Z</time>
      </trkpt>
      <trkpt lat="41.097017" lon="-3.670933">
        <ele>2380.0</ele>
        <time>2016-07-25T16:10:23Z</time>
      </trkpt>
      <trkpt lat="41.097067" lon="-3.670950">
        <ele>2382.0</ele>
        <time>2016-07-25T16:10:24Z</time>
      </trkpt>
      <trkpt lat="41.097100" lon="-3.670967">
        <ele>2384.0</ele>
        <time>2016-07-25T16:10:25Z</time>
      </trkpt>
      <trkpt lat="41.097150" lon="-3.670967">
        <ele>2387.0</ele>
        <time>2016-07-25T16:10:26Z</time>
      </trkpt>
      <trkpt lat="41.097200" lon="-3.670950">
        <ele>2389.0</ele>
        <time>2016-07-25T16:10:27Z</time>
      </trkpt>
      <trkpt lat="41.097250" lon="-3.670933">
        <ele>2391.0</ele>
        <time>2016-07-25T16:10:28Z</time>
      </trkpt>
      <trkpt lat="41.097300" lon="-3.670900">
        <ele>2394.0</ele>
        <time>2016-07-25T16:10:29Z</time>
      </trkpt>
      <trkpt lat="41.097350" lon="-3.670867">
        <ele>2395.0</ele>
        <time>2016-07-25T16:10:30Z</time>
      </trkpt>
      <trkpt lat="41.097400" lon="-3.670800">
        <ele>2397.0</ele>
        <time>2016-07-25T16:10:31Z</time>
      </trkpt>
      <trkpt lat="41.097450" lon="-3.670717">
        <ele>2398.0</ele>
        <time>2016-07-25T16:10:32Z</time>
      </trkpt>
      <trkpt lat="41.097483" lon="-3.670617">
        <ele>2398.0</ele>
        <time>2016-07-25T16:10:33Z</time>
      </trkpt>
      <trkpt lat="41.097517" lon="-3.670467">
        <ele>2398.0</ele>
        <time>2016-07-25T16:10:34Z</time>
      </trkpt>
      <trkpt lat="41.097500" lon="-3.670283">
        <ele>2398.0</ele>
        <time>2016-07-25T16:10:35Z</time>
      </trkpt>
      <trkpt lat="41.097467" lon="-3.670100">
        <ele>2399.0</ele>
        <time>2016-07-25T16:10:36Z</time>
      </trkpt>
      <trkpt lat="41.097383" lon="-3.669917">
        <ele>2399.0</ele>
        <time>2016-07-25T16:10:37Z</time>
      </trkpt>
      <trkpt lat="41.097283" lon="-3.669783">
        <ele>2401.0</ele>
        <time>2016-07-25T16:10:38Z</time>
      </trkpt>
      <trkpt lat="41.097167" lon="-3.669683">
        <ele>2403.0</ele>
        <time>2016-07-25T16:10:39Z</time>
      </trkpt>
      <trkpt lat="41.097050" lon="-3.669633">
        <ele>2404.0</ele>
        <time>2016-07-25T16:10:40Z</time>
      </trkpt>
      <trkpt lat="41.096950" lon="-3.669617">
        <ele>2404.0</ele>
        <time>2016-07-25T16:10:41Z</time>
      </trkpt>
      <trkpt lat="41.096850" lon="-3.669633">
        <ele>2404.0</ele>
        <time>2016-07-25T16:10:42Z</time>
      </trkpt>
      <trkpt lat="41.096767" lon="-3.669667">
        <ele>2404.0</ele>
        <time>2016-07-25T16:10:43Z</time>
      </trkpt>
      <trkpt lat="41.096717" lon="-3.669733">
        <ele>2405.0</ele>
        <time>2016-07-25T16:10:44Z</time>
      </trkpt>
      <trkpt lat="41.096683" lon="-3.669783">
        <ele>2407.0</ele>
        <time>2016-07-25T16:10:45Z</time>
      </trkpt>
      <trkpt lat="41.096667" lon="-3.669833">
        <ele>2409.0</ele>
        <time>2016-07-25T16:10:46Z</time>
      </trkpt>
      <trkpt lat="41.096667" lon="-3.669867">
        <ele>2411.0</ele>
        <time>2016-07-25T16:10:47Z</time>
      </trkpt>
      <trkpt lat="41.096683" lon="-3.669900">
        <ele>2413.0</ele>
        <time>2016-07-25T16:10:48Z</time>
      </trkpt>
      <trkpt lat="41.096683" lon="-3.669933">
        <ele>2414.0</ele>
        <time>2016-07-25T16:10:49Z</time>
      </trkpt>
      <trkpt lat="41.096700" lon="-3.669983">
        <ele>2415.0</ele>
        <time>2016-07-25T16:10:50Z</time>
      </trkpt>
      <trkpt lat="41.096717" lon="-3.670017">
        <ele>2417.0</ele>
        <time>2016-07-25T16:10:51Z</time>
      </trkpt>
      <trkpt lat="41.096750" lon="-3.670033">
        <ele>2419.0</ele>
        <time>2016-07-25T16:10:52Z</time>
      </trkpt>
      <trkpt lat="41.096783" lon="-3.670033">
        <ele>2421.0</ele>
        <time>2016-07-25T16:10:53Z</time>
      </trkpt>
      <trkpt lat="41.096817" lon="-3.670033">
        <ele>2423.0</ele>
        <time>2016-07-25T16:10:54Z</time>
      </trkpt>
      <trkpt lat="41.096850" lon="-3.670033">
        <ele>2424.0</ele>
        <time>2016-07-25T16:10:55Z</time>
      </trkpt>
      <trkpt lat="41.096900" lon="-3.670033">
        <ele>2424.0</ele>
        <time>2016-07-25T16:10:56Z</time>
      </trkpt>
      <trkpt lat="41.096933" lon="-3.670017">
        <ele>2424.0</ele>
        <time>2016-07-25T16:10:57Z</time>
      </trkpt>
      <trkpt lat="41.097000" lon="-3.669983">
        <ele>2423.0</ele>
        <time>2016-07-25T16:10:58Z</time>
      </trkpt>
      <trkpt lat="41.097050" lon="-3.669917">
        <ele>2423.0</ele>
        <time>2016-07-25T16:10:59Z</time>
      </trkpt>
      <trkpt lat="41.097117" lon="-3.669833">
        <ele>2423.0</ele>
        <time>2016-07-25T16:11:00Z</time>
      </trkpt>
      <trkpt lat="41.097167" lon="-3.669733">
        <ele>2423.0</ele>
        <time>2016-07-25T16:11:01Z</time>
      </trkpt>
      <trkpt lat="41.097200" lon="-3.669633">
        <ele>2424.0</ele>
        <time>2016-07-25T16:11:02Z</time>
      </trkpt>
      <trkpt lat="41.097250" lon="-3.669533">
        <ele>2423.0</ele>
        <time>2016-07-25T16:11:03Z</time>
      </trkpt>
      <trkpt lat="41.097300" lon="-3.669417">
        <ele>2422.0</ele>
        <time>2016-07-25T16:11:04Z</time>
      </trkpt>
      <trkpt lat="41.097333" lon="-3.669300">
        <ele>2421.0</ele>
        <time>2016-07-25T16:11:05Z</time>
      </trkpt>
      <trkpt lat="41.097383" lon="-3.669150">
        <ele>2419.0</ele>
        <time>2016-07-25T16:11:06Z</time>
      </trkpt>
      <trkpt lat="41.097450" lon="-3.669017">
        <ele>2420.0</ele>
        <time>2016-07-25T16:11:07Z</time>
      </trkpt>
      <trkpt lat="41.097500" lon="-3.668917">
        <ele>2421.0</ele>
        <time>2016-07-25T16:11:08Z</time>
      </trkpt>
      <trkpt lat="41.097567" lon="-3.668833">
        <ele>2422.0</ele>
        <time>2016-07-25T16:11:09Z</time>
      </trkpt>
      <trkpt lat="41.097617" lon="-3.668783">
        <ele>2423.0</ele>
        <time>2016-07-25T16:11:10Z</time>
      </trkpt>
      <trkpt lat="41.097667" lon="-3.668717">
        <ele>2423.0</ele>
        <time>2016-07-25T16:11:11Z</time>
      </trkpt>
      <trkpt lat="41.097733" lon="-3.668650">
        <ele>2422.0</ele>
        <time>2016-07-25T16:11:12Z</time>
      </trkpt>
      <trkpt lat="41.097783" lon="-3.668600">
        <ele>2422.0</ele>
        <time>2016-07-25T16:11:13Z</time>
      </trkpt>
      <trkpt lat="41.097850" lon="-3.668533">
        <ele>2421.0</ele>
        <time>2016-07-25T16:11:14Z</time>
      </trkpt>
      <trkpt lat="41.097917" lon="-3.668500">
        <ele>2422.0</ele>
        <time>2016-07-25T16:11:15Z</time>
      </trkpt>
      <trkpt lat="41.097983" lon="-3.668450">
        <ele>2423.0</ele>
        <time>2016-07-25T16:11:16Z</time>
      </trkpt>
      <trkpt lat="41.098050" lon="-3.668400">
        <ele>2424.0</ele>
        <time>2016-07-25T16:11:17Z</time>
      </trkpt>
      <trkpt lat="41.098100" lon="-3.668333">
        <ele>2425.0</ele>
        <time>2016-07-25T16:11:18Z</time>
      </trkpt>
      <trkpt lat="41.098167" lon="-3.668267">
        <ele>2427.0</ele>
        <time>2016-07-25T16:11:19Z</time>
      </trkpt>
      <trkpt lat="41.098217" lon="-3.668200">
        <ele>2429.0</ele>
        <time>2016-07-25T16:11:20Z</time>
      </trkpt>
      <trkpt lat="41.098267" lon="-3.668150">
        <ele>2431.0</ele>
        <time>2016-07-25T16:11:21Z</time>
      </trkpt>
      <trkpt lat="41.098300" lon="-3.668133">
        <ele>2432.0</ele>
        <time>2016-07-25T16:11:22Z</time>
      </trkpt>
      <trkpt lat="41.098350" lon="-3.668117">
        <ele>2433.0</ele>
        <time>2016-07-25T16:11:23Z</time>
      </trkpt>
      <trkpt lat="41.098400" lon="-3.668083">
        <ele>2433.0</ele>
        <time>2016-07-25T16:11:24Z</time>
      </trkpt>
      <trkpt lat="41.098450" lon="-3.668033">
        <ele>2433.0</ele>
        <time>2016-07-25T16:11:25Z</time>
      </trkpt>
      <trkpt lat="41.098500" lon="-3.667983">
        <ele>2433.0</ele>
        <time>2016-07-25T16:11:26Z</time>
      </trkpt>
      <trkpt lat="41.098550" lon="-3.667950">
        <ele>2433.0</ele>
        <time>2016-07-25T16:11:27Z</time>
      </trkpt>
      <trkpt lat="41.098600" lon="-3.667933">
        <ele>2432.0</ele>
        <time>2016-07-25T16:11:28Z</time>
      </trkpt>
      <trkpt lat="41.098650" lon="-3.667900">
        <ele>2431.0</ele>
        <time>2016-07-25T16:11:29Z</time>
      </trkpt>
      <trkpt lat="41.098700" lon="-3.667883">
        <ele>2430.0</ele>
        <time>2016-07-25T16:11:30Z</time>
      </trkpt>
      <trkpt lat="41.098750" lon="-3.667850">
        <ele>2430.0</ele>
        <time>2016-07-25T16:11:31Z</time>
      </trkpt>
      <trkpt lat="41.098800" lon="-3.667833">
        <ele>2429.0</ele>
        <time>2016-07-25T16:11:32Z</time>
      </trkpt>
      <trkpt lat="41.098850" lon="-3.667850">
        <ele>2427.0</ele>
        <time>2016-07-25T16:11:33Z</time>
      </trkpt>
      <trkpt lat="41.098900" lon="-3.667867">
        <ele>2426.0</ele>
        <time>2016-07-25T16:11:34Z</time>
      </trkpt>
      <trkpt lat="41.098950" lon="-3.667867">
        <ele>2426.0</ele>
        <time>2016-07-25T16:11:35Z</time>
      </trkpt>
      <trkpt lat="41.099017" lon="-3.667850">
        <ele>2425.0</ele>
        <time>2016-07-25T16:11:36Z</time>
      </trkpt>
      <trkpt lat="41.099067" lon="-3.667833">
        <ele>2425.0</ele>
        <time>2016-07-25T16:11:37Z</time>
      </trkpt>
      <trkpt lat="41.099117" lon="-3.667817">
        <ele>2425.0</ele>
        <time>2016-07-25T16:11:38Z</time>
      </trkpt>
      <trkpt lat="41.099167" lon="-3.667800">
        <ele>2424.0</ele>
        <time>2016-07-25T16:11:39Z</time>
      </trkpt>
      <trkpt lat="41.099200" lon="-3.667783">
        <ele>2423.0</ele>
        <time>2016-07-25T16:11:40Z</time>
      </trkpt>
      <trkpt lat="41.099250" lon="-3.667783">
        <ele>2422.0</ele>
        <time>2016-07-25T16:11:41Z</time>
      </trkpt>
      <trkpt lat="41.099283" lon="-3.667783">
        <ele>2421.0</ele>
        <time>2016-07-25T16:11:42Z</time>
      </trkpt>
      <trkpt lat="41.099317" lon="-3.667800">
        <ele>2420.0</ele>
        <time>2016-07-25T16:11:43Z</time>
      </trkpt>
      <trkpt lat="41.099350" lon="-3.667817">
        <ele>2419.0</ele>
        <time>2016-07-25T16:11:44Z</time>
      </trkpt>
      <trkpt lat="41.099367" lon="-3.667833">
        <ele>2418.0</ele>
        <time>2016-07-25T16:11:45Z</time>
      </trkpt>
      <trkpt lat="41.099400" lon="-3.667850">
        <ele>2417.0</ele>
        <time>2016-07-25T16:11:46Z</time>
      </trkpt>
      <trkpt lat="41.099417" lon="-3.667867">
        <ele>2415.0</ele>
        <time>2016-07-25T16:11:47Z</time>
      </trkpt>
      <trkpt lat="41.099400" lon="-3.667917">
        <ele>2412.0</ele>
        <time>2016-07-25T16:11:48Z</time>
      </trkpt>
      <trkpt lat="41.099400" lon="-3.667983">
        <ele>2409.0</ele>
        <time>2016-07-25T16:11:49Z</time>
      </trkpt>
      <trkpt lat="41.099367" lon="-3.668067">
        <ele>2408.0</ele>
        <time>2016-07-25T16:11:50Z</time>
      </trkpt>
      <trkpt lat="41.099367" lon="-3.668100">
        <ele>2408.0</ele>
        <time>2016-07-25T16:11:51Z</time>
      </trkpt>
      <trkpt lat="41.099383" lon="-3.668117">
        <ele>2407.0</ele>
        <time>2016-07-25T16:11:52Z</time>
      </trkpt>
      <trkpt lat="41.099417" lon="-3.668100">
        <ele>2404.0</ele>
        <time>2016-07-25T16:11:53Z</time>
      </trkpt>
      <trkpt lat="41.099467" lon="-3.668083">
        <ele>2400.0</ele>
        <time>2016-07-25T16:11:54Z</time>
      </trkpt>
      <trkpt lat="41.099533" lon="-3.668067">
        <ele>2397.0</ele>
        <time>2016-07-25T16:11:55Z</time>
      </trkpt>
      <trkpt lat="41.099583" lon="-3.668083">
        <ele>2394.0</ele>
        <time>2016-07-25T16:11:56Z</time>
      </trkpt>
      <trkpt lat="41.099617" lon="-3.668083">
        <ele>2393.0</ele>
        <time>2016-07-25T16:11:57Z</time>
      </trkpt>
      <trkpt lat="41.099650" lon="-3.668083">
        <ele>2391.0</ele>
        <time>2016-07-25T16:11:58Z</time>
      </trkpt>
      <trkpt lat="41.099667" lon="-3.668083">
        <ele>2388.0</ele>
        <time>2016-07-25T16:11:59Z</time>
      </trkpt>
      <trkpt lat="41.099700" lon="-3.668117">
        <ele>2384.0</ele>
        <time>2016-07-25T16:12:00Z</time>
      </trkpt>
      <trkpt lat="41.099717" lon="-3.668150">
        <ele>2380.0</ele>
        <time>2016-07-25T16:12:01Z</time>
      </trkpt>
      <trkpt lat="41.099733" lon="-3.668200">
        <ele>2378.0</ele>
        <time>2016-07-25T16:12:02Z</time>
      </trkpt>
      <trkpt lat="41.099767" lon="-3.668233">
        <ele>2376.0</ele>
        <time>2016-07-25T16:12:03Z</time>
      </trkpt>
      <trkpt lat="41.099783" lon="-3.668233">
        <ele>2374.0</ele>
        <time>2016-07-25T16:12:04Z</time>
      </trkpt>
      <trkpt lat="41.099800" lon="-3.668233">
        <ele>2371.0</ele>
        <time>2016-07-25T16:12:05Z</time>
      </trkpt>
      <trkpt lat="41.099783" lon="-3.668267">
        <ele>2366.0</ele>
        <time>2016-07-25T16:12:06Z</time>
      </trkpt>
      <trkpt lat="41.099767" lon="-3.668333">
        <ele>2361.0</ele>
        <time>2016-07-25T16:12:07Z</time>
      </trkpt>
      <trkpt lat="41.099767" lon="-3.668400">
        <ele>2358.0</ele>
        <time>2016-07-25T16:12:08Z</time>
      </trkpt>
      <trkpt lat="41.099817" lon="-3.668417">
        <ele>2353.0</ele>
        <time>2016-07-25T16:12:09Z</time>
      </trkpt>
      <trkpt lat="41.099900" lon="-3.668383">
        <ele>2348.0</ele>
        <time>2016-07-25T16:12:10Z</time>
      </trkpt>
      <trkpt lat="41.099967" lon="-3.668317">
        <ele>2346.0</ele>
        <time>2016-07-25T16:12:11Z</time>
      </trkpt>
      <trkpt lat="41.100033" lon="-3.668233">
        <ele>2346.0</ele>
        <time>2016-07-25T16:12:12Z</time>
      </trkpt>
      <trkpt lat="41.100083" lon="-3.668183">
        <ele>2346.0</ele>
        <time>2016-07-25T16:12:13Z</time>
      </trkpt>
      <trkpt lat="41.100117" lon="-3.668150">
        <ele>2344.0</ele>
        <time>2016-07-25T16:12:14Z</time>
      </trkpt>
      <trkpt lat="41.100167" lon="-3.668117">
        <ele>2341.0</ele>
        <time>2016-07-25T16:12:15Z</time>
      </trkpt>
      <trkpt lat="41.100233" lon="-3.668050">
        <ele>2337.0</ele>
        <time>2016-07-25T16:12:16Z</time>
      </trkpt>
      <trkpt lat="41.100300" lon="-3.667983">
        <ele>2335.0</ele>
        <time>2016-07-25T16:12:17Z</time>
      </trkpt>
      <trkpt lat="41.100367" lon="-3.667917">
        <ele>2333.0</ele>
        <time>2016-07-25T16:12:18Z</time>
      </trkpt>
      <trkpt lat="41.100433" lon="-3.667850">
        <ele>2332.0</ele>
        <time>2016-07-25T16:12:19Z</time>
      </trkpt>
      <trkpt lat="41.100483" lon="-3.667800">
        <ele>2330.0</ele>
        <time>2016-07-25T16:12:20Z</time>
      </trkpt>
      <trkpt lat="41.100550" lon="-3.667750">
        <ele>2329.0</ele>
        <time>2016-07-25T16:12:21Z</time>
      </trkpt>
      <trkpt lat="41.100617" lon="-3.667717">
        <ele>2327.0</ele>
        <time>2016-07-25T16:12:22Z</time>
      </trkpt>
      <trkpt lat="41.100667" lon="-3.667667">
        <ele>2325.0</ele>
        <time>2016-07-25T16:12:23Z</time>
      </trkpt>
      <trkpt lat="41.100733" lon="-3.667633">
        <ele>2323.0</ele>
        <time>2016-07-25T16:12:24Z</time>
      </trkpt>
      <trkpt lat="41.100783" lon="-3.667617">
        <ele>2321.0</ele>
        <time>2016-07-25T16:12:25Z</time>
      </trkpt>
      <trkpt lat="41.100833" lon="-3.667600">
        <ele>2319.0</ele>
        <time>2016-07-25T16:12:26Z</time>
      </trkpt>
      <trkpt lat="41.100883" lon="-3.667600">
        <ele>2316.0</ele>
        <time>2016-07-25T16:12:27Z</time>
      </trkpt>
      <trkpt lat="41.100933" lon="-3.667600">
        <ele>2313.0</ele>
        <time>2016-07-25T16:12:28Z</time>
      </trkpt>
      <trkpt lat="41.101000" lon="-3.667600">
        <ele>2310.0</ele>
        <time>2016-07-25T16:12:29Z</time>
      </trkpt>
      <trkpt lat="41.101067" lon="-3.667600">
        <ele>2307.0</ele>
        <time>2016-07-25T16:12:30Z</time>
      </trkpt>
      <trkpt lat="41.101117" lon="-3.667617">
        <ele>2304.0</ele>
        <time>2016-07-25T16:12:31Z</time>
      </trkpt>
      <trkpt lat="41.101183" lon="-3.667600">
        <ele>2302.0</ele>
        <time>2016-07-25T16:12:32Z</time>
      </trkpt>
      <trkpt lat="41.101250" lon="-3.667583">
        <ele>2301.0</ele>
        <time>2016-07-25T16:12:33Z</time>
      </trkpt>
      <trkpt lat="41.101317" lon="-3.667567">
        <ele>2298.0</ele>
        <time>2016-07-25T16:12:34Z</time>
      </trkpt>
      <trkpt lat="41.101383" lon="-3.667550">
        <ele>2296.0</ele>
        <time>2016-07-25T16:12:35Z</time>
      </trkpt>
      <trkpt lat="41.101433" lon="-3.667517">
        <ele>2292.0</ele>
        <time>2016-07-25T16:12:36Z</time>
      </trkpt>
      <trkpt lat="41.101500" lon="-3.667483">
        <ele>2289.0</ele>
        <time>2016-07-25T16:12:37Z</time>
      </trkpt>
      <trkpt lat="41.101567" lon="-3.667433">
        <ele>2286.0</ele>
        <time>2016-07-25T16:12:38Z</time>
      </trkpt>
      <trkpt lat="41.101633" lon="-3.667383">
        <ele>2284.0</ele>
        <time>2016-07-25T16:12:39Z</time>
      </trkpt>
      <trkpt lat="41.101683" lon="-3.667317">
        <ele>2282.0</ele>
        <time>2016-07-25T16:12:40Z</time>
      </trkpt>
      <trkpt lat="41.101733" lon="-3.667267">
        <ele>2280.0</ele>
        <time>2016-07-25T16:12:41Z</time>
      </trkpt>
      <trkpt lat="41.101783" lon="-3.667233">
        <ele>2278.0</ele>
        <time>2016-07-25T16:12:42Z</time>
      </trkpt>
      <trkpt lat="41.101850" lon="-3.667200">
        <ele>2276.0</ele>
        <time>2016-07-25T16:12:43Z</time>
      </trkpt>
      <trkpt lat="41.101900" lon="-3.667183">
        <ele>2274.0</ele>
        <time>2016-07-25T16:12:44Z</time>
      </trkpt>
      <trkpt lat="41.101950" lon="-3.667167">
        <ele>2273.0</ele>
        <time>2016-07-25T16:12:45Z</time>
      </trkpt>
      <trkpt lat="41.102000" lon="-3.667150">
        <ele>2272.0</ele>
        <time>2016-07-25T16:12:46Z</time>
      </trkpt>
      <trkpt lat="41.102050" lon="-3.667117">
        <ele>2270.0</ele>
        <time>2016-07-25T16:12:47Z</time>
      </trkpt>
      <trkpt lat="41.102100" lon="-3.667100">
        <ele>2269.0</ele>
        <time>2016-07-25T16:12:48Z</time>
      </trkpt>
      <trkpt lat="41.102167" lon="-3.667083">
        <ele>2266.0</ele>
        <time>2016-07-25T16:12:49Z</time>
      </trkpt>
      <trkpt lat="41.102217" lon="-3.667067">
        <ele>2264.0</ele>
        <time>2016-07-25T16:12:50Z</time>
      </trkpt>
      <trkpt lat="41.102300" lon="-3.667050">
        <ele>2263.0</ele>
        <time>2016-07-25T16:12:51Z</time>
      </trkpt>
      <trkpt lat="41.102367" lon="-3.667017">
        <ele>2261.0</ele>
        <time>2016-07-25T16:12:52Z</time>
      </trkpt>
      <trkpt lat="41.102433" lon="-3.666983">
        <ele>2260.0</ele>
        <time>2016-07-25T16:12:53Z</time>
      </trkpt>
      <trkpt lat="41.102500" lon="-3.666933">
        <ele>2259.0</ele>
        <time>2016-07-25T16:12:54Z</time>
      </trkpt>
      <trkpt lat="41.102567" lon="-3.666900">
        <ele>2259.0</ele>
        <time>2016-07-25T16:12:55Z</time>
      </trkpt>
      <trkpt lat="41.102633" lon="-3.666850">
        <ele>2258.0</ele>
        <time>2016-07-25T16:12:56Z</time>
      </trkpt>
      <trkpt lat="41.102700" lon="-3.666817">
        <ele>2256.0</ele>
        <time>2016-07-25T16:12:57Z</time>
      </trkpt>
      <trkpt lat="41.102767" lon="-3.666750">
        <ele>2255.0</ele>
        <time>2016-07-25T16:12:58Z</time>
      </trkpt>
      <trkpt lat="41.102833" lon="-3.666700">
        <ele>2253.0</ele>
        <time>2016-07-25T16:12:59Z</time>
      </trkpt>
      <trkpt lat="41.102900" lon="-3.666633">
        <ele>2251.0</ele>
        <time>2016-07-25T16:13:00Z</time>
      </trkpt>
      <trkpt lat="41.102967" lon="-3.666567">
        <ele>2250.0</ele>
        <time>2016-07-25T16:13:01Z</time>
      </trkpt>
      <trkpt lat="41.103033" lon="-3.666500">
        <ele>2248.0</ele>
        <time>2016-07-25T16:13:02Z</time>
      </trkpt>
      <trkpt lat="41.103100" lon="-3.666417">
        <ele>2247.0</ele>
        <time>2016-07-25T16:13:03Z</time>
      </trkpt>
      <trkpt lat="41.103167" lon="-3.666333">
        <ele>2246.0</ele>
        <time>2016-07-25T16:13:04Z</time>
      </trkpt>
      <trkpt lat="41.103233" lon="-3.666267">
        <ele>2245.0</ele>
        <time>2016-07-25T16:13:05Z</time>
      </trkpt>
      <trkpt lat="41.103283" lon="-3.666200">
        <ele>2245.0</ele>
        <time>2016-07-25T16:13:06Z</time>
      </trkpt>
      <trkpt lat="41.103333" lon="-3.666133">
        <ele>2244.0</ele>
        <time>2016-07-25T16:13:07Z</time>
      </trkpt>
      <trkpt lat="41.103400" lon="-3.666083">
        <ele>2243.0</ele>
        <time>2016-07-25T16:13:08Z</time>
      </trkpt>
      <trkpt lat="41.103467" lon="-3.666017">
        <ele>2242.0</ele>
        <time>2016-07-25T16:13:09Z</time>
      </trkpt>
      <trkpt lat="41.103533" lon="-3.665950">
        <ele>2241.0</ele>
        <time>2016-07-25T16:13:10Z</time>
      </trkpt>
      <trkpt lat="41.103583" lon="-3.665883">
        <ele>2240.0</ele>
        <time>2016-07-25T16:13:11Z</time>
      </trkpt>
      <trkpt lat="41.103650" lon="-3.665833">
        <ele>2240.0</ele>
        <time>2016-07-25T16:13:12Z</time>
      </trkpt>
      <trkpt lat="41.103717" lon="-3.665783">
        <ele>2240.0</ele>
        <time>2016-07-25T16:13:13Z</time>
      </trkpt>
      <trkpt lat="41.103783" lon="-3.665733">
        <ele>2239.0</ele>
        <time>2016-07-25T16:13:14Z</time>
      </trkpt>
      <trkpt lat="41.103850" lon="-3.665683">
        <ele>2238.0</ele>
        <time>2016-07-25T16:13:15Z</time>
      </trkpt>
      <trkpt lat="41.103917" lon="-3.665633">
        <ele>2236.0</ele>
        <time>2016-07-25T16:13:16Z</time>
      </trkpt>
      <trkpt lat="41.103983" lon="-3.665583">
        <ele>2235.0</ele>
        <time>2016-07-25T16:13:17Z</time>
      </trkpt>
      <trkpt lat="41.104050" lon="-3.665533">
        <ele>2234.0</ele>
        <time>2016-07-25T16:13:18Z</time>
      </trkpt>
      <trkpt lat="41.104117" lon="-3.665467">
        <ele>2232.0</ele>
        <time>2016-07-25T16:13:19Z</time>
      </trkpt>
      <trkpt lat="41.104167" lon="-3.665417">
        <ele>2230.0</ele>
        <time>2016-07-25T16:13:20Z</time>
      </trkpt>
      <trkpt lat="41.104233" lon="-3.665367">
        <ele>2228.0</ele>
        <time>2016-07-25T16:13:21Z</time>
      </trkpt>
      <trkpt lat="41.104300" lon="-3.665300">
        <ele>2226.0</ele>
        <time>2016-07-25T16:13:22Z</time>
      </trkpt>
      <trkpt lat="41.104367" lon="-3.665233">
        <ele>2223.0</ele>
        <time>2016-07-25T16:13:23Z</time>
      </trkpt>
      <trkpt lat="41.104433" lon="-3.665167">
        <ele>2220.0</ele>
        <time>2016-07-25T16:13:24Z</time>
      </trkpt>
      <trkpt lat="41.104500" lon="-3.665100">
        <ele>2218.0</ele>
        <time>2016-07-25T16:13:25Z</time>
      </trkpt>
      <trkpt lat="41.104567" lon="-3.665033">
        <ele>2215.0</ele>
        <time>2016-07-25T16:13:26Z</time>
      </trkpt>
      <trkpt lat="41.104617" lon="-3.664950">
        <ele>2213.0</ele>
        <time>2016-07-25T16:13:27Z</time>
      </trkpt>
      <trkpt lat="41.104683" lon="-3.664883">
        <ele>2210.0</ele>
        <time>2016-07-25T16:13:28Z</time>
      </trkpt>
      <trkpt lat="41.104733" lon="-3.664817">
        <ele>2207.0</ele>
        <time>2016-07-25T16:13:29Z</time>
      </trkpt>
      <trkpt lat="41.104800" lon="-3.664750">
        <ele>2204.0</ele>
        <time>2016-07-25T16:13:30Z</time>
      </trkpt>
      <trkpt lat="41.104850" lon="-3.664667">
        <ele>2201.0</ele>
        <time>2016-07-25T16:13:31Z</time>
      </trkpt>
      <trkpt lat="41.104917" lon="-3.664567">
        <ele>2199.0</ele>
        <time>2016-07-25T16:13:32Z</time>
      </trkpt>
      <trkpt lat="41.104967" lon="-3.664483">
        <ele>2196.0</ele>
        <time>2016-07-25T16:13:33Z</time>
      </trkpt>
      <trkpt lat="41.105017" lon="-3.664400">
        <ele>2194.0</ele>
        <time>2016-07-25T16:13:34Z</time>
      </trkpt>
      <trkpt lat="41.105067" lon="-3.664317">
        <ele>2191.0</ele>
        <time>2016-07-25T16:13:35Z</time>
      </trkpt>
      <trkpt lat="41.105117" lon="-3.664233">
        <ele>2188.0</ele>
        <time>2016-07-25T16:13:36Z</time>
      </trkpt>
      <trkpt lat="41.105167" lon="-3.664133">
        <ele>2184.0</ele>
        <time>2016-07-25T16:13:37Z</time>
      </trkpt>
      <trkpt lat="41.105233" lon="-3.664033">
        <ele>2181.0</ele>
        <time>2016-07-25T16:13:38Z</time>
      </trkpt>
      <trkpt lat="41.105283" lon="-3.663933">
        <ele>2178.0</ele>
        <time>2016-07-25T16:13:39Z</time>
      </trkpt>
      <trkpt lat="41.105350" lon="-3.663833">
        <ele>2175.0</ele>
        <time>2016-07-25T16:13:40Z</time>
      </trkpt>
      <trkpt lat="41.105417" lon="-3.663733">
        <ele>2172.0</ele>
        <time>2016-07-25T16:13:41Z</time>
      </trkpt>
      <trkpt lat="41.105467" lon="-3.663633">
        <ele>2169.0</ele>
        <time>2016-07-25T16:13:42Z</time>
      </trkpt>
      <trkpt lat="41.105517" lon="-3.663533">
        <ele>2166.0</ele>
        <time>2016-07-25T16:13:43Z</time>
      </trkpt>
      <trkpt lat="41.105567" lon="-3.663433">
        <ele>2163.0</ele>
        <time>2016-07-25T16:13:44Z</time>
      </trkpt>
      <trkpt lat="41.105633" lon="-3.663333">
        <ele>2162.0</ele>
        <time>2016-07-25T16:13:45Z</time>
      </trkpt>
      <trkpt lat="41.105683" lon="-3.663250">
        <ele>2161.0</ele>
        <time>2016-07-25T16:13:46Z</time>
      </trkpt>
      <trkpt lat="41.105733" lon="-3.663183">
        <ele>2161.0</ele>
        <time>2016-07-25T16:13:47Z</time>
      </trkpt>
      <trkpt lat="41.105767" lon="-3.663133">
        <ele>2161.0</ele>
        <time>2016-07-25T16:13:48Z</time>
      </trkpt>
      <trkpt lat="41.105817" lon="-3.663083">
        <ele>2160.0</ele>
        <time>2016-07-25T16:13:49Z</time>
      </trkpt>
      <trkpt lat="41.105850" lon="-3.663033">
        <ele>2158.0</ele>
        <time>2016-07-25T16:13:50Z</time>
      </trkpt>
      <trkpt lat="41.105900" lon="-3.662983">
        <ele>2156.0</ele>
        <time>2016-07-25T16:13:51Z</time>
      </trkpt>
      <trkpt lat="41.105967" lon="-3.662933">
        <ele>2154.0</ele>
        <time>2016-07-25T16:13:52Z</time>
      </trkpt>
      <trkpt lat="41.106033" lon="-3.662883">
        <ele>2152.0</ele>
        <time>2016-07-25T16:13:53Z</time>
      </trkpt>
      <trkpt lat="41.106100" lon="-3.662850">
        <ele>2151.0</ele>
        <time>2016-07-25T16:13:54Z</time>
      </trkpt>
      <trkpt lat="41.106150" lon="-3.662833">
        <ele>2151.0</ele>
        <time>2016-07-25T16:13:55Z</time>
      </trkpt>
      <trkpt lat="41.106217" lon="-3.662800">
        <ele>2150.0</ele>
        <time>2016-07-25T16:13:56Z</time>
      </trkpt>
      <trkpt lat="41.106283" lon="-3.662750">
        <ele>2150.0</ele>
        <time>2016-07-25T16:13:57Z</time>
      </trkpt>
      <trkpt lat="41.106350" lon="-3.662683">
        <ele>2150.0</ele>
        <time>2016-07-25T16:13:58Z</time>
      </trkpt>
      <trkpt lat="41.106400" lon="-3.662617">
        <ele>2149.0</ele>
        <time>2016-07-25T16:13:59Z</time>
      </trkpt>
      <trkpt lat="41.106467" lon="-3.662567">
        <ele>2148.0</ele>
        <time>2016-07-25T16:14:00Z</time>
      </trkpt>
      <trkpt lat="41.106533" lon="-3.662533">
        <ele>2146.0</ele>
        <time>2016-07-25T16:14:01Z</time>
      </trkpt>
      <trkpt lat="41.106600" lon="-3.662500">
        <ele>2144.0</ele>
        <time>2016-07-25T16:14:02Z</time>
      </trkpt>
      <trkpt lat="41.106667" lon="-3.662450">
        <ele>2144.0</ele>
        <time>2016-07-25T16:14:03Z</time>
      </trkpt>
      <trkpt lat="41.106733" lon="-3.662383">
        <ele>2144.0</ele>
        <time>2016-07-25T16:14:04Z</time>
      </trkpt>
      <trkpt lat="41.106800" lon="-3.662333">
        <ele>2144.0</ele>
        <time>2016-07-25T16:14:05Z</time>
      </trkpt>
      <trkpt lat="41.106850" lon="-3.662267">
        <ele>2144.0</ele>
        <time>2016-07-25T16:14:06Z</time>
      </trkpt>
      <trkpt lat="41.106900" lon="-3.662217">
        <ele>2143.0</ele>
        <time>2016-07-25T16:14:07Z</time>
      </trkpt>
      <trkpt lat="41.106967" lon="-3.662150">
        <ele>2141.0</ele>
        <time>2016-07-25T16:14:08Z</time>
      </trkpt>
      <trkpt lat="41.107033" lon="-3.662083">
        <ele>2139.0</ele>
        <time>2016-07-25T16:14:09Z</time>
      </trkpt>
      <trkpt lat="41.107100" lon="-3.662017">
        <ele>2137.0</ele>
        <time>2016-07-25T16:14:10Z</time>
      </trkpt>
      <trkpt lat="41.107167" lon="-3.661950">
        <ele>2136.0</ele>
        <time>2016-07-25T16:14:11Z</time>
      </trkpt>
      <trkpt lat="41.107233" lon="-3.661883">
        <ele>2134.0</ele>
        <time>2016-07-25T16:14:12Z</time>
      </trkpt>
      <trkpt lat="41.107300" lon="-3.661817">
        <ele>2133.0</ele>
        <time>2016-07-25T16:14:13Z</time>
      </trkpt>
      <trkpt lat="41.107383" lon="-3.661750">
        <ele>2132.0</ele>
        <time>2016-07-25T16:14:14Z</time>
      </trkpt>
      <trkpt lat="41.107450" lon="-3.661683">
        <ele>2131.0</ele>
        <time>2016-07-25T16:14:15Z</time>
      </trkpt>
      <trkpt lat="41.107517" lon="-3.661617">
        <ele>2131.0</ele>
        <time>2016-07-25T16:14:16Z</time>
      </trkpt>
      <trkpt lat="41.107583" lon="-3.661550">
        <ele>2131.0</ele>
        <time>2016-07-25T16:14:17Z</time>
      </trkpt>
      <trkpt lat="41.107650" lon="-3.661483">
        <ele>2132.0</ele>
        <time>2016-07-25T16:14:18Z</time>
      </trkpt>
      <trkpt lat="41.107700" lon="-3.661433">
        <ele>2133.0</ele>
        <time>2016-07-25T16:14:19Z</time>
      </trkpt>
      <trkpt lat="41.107767" lon="-3.661383">
        <ele>2134.0</ele>
        <time>2016-07-25T16:14:20Z</time>
      </trkpt>
      <trkpt lat="41.107817" lon="-3.661350">
        <ele>2136.0</ele>
        <time>2016-07-25T16:14:21Z</time>
      </trkpt>
      <trkpt lat="41.107850" lon="-3.661317">
        <ele>2138.0</ele>
        <time>2016-07-25T16:14:22Z</time>
      </trkpt>
      <trkpt lat="41.107900" lon="-3.661283">
        <ele>2138.0</ele>
        <time>2016-07-25T16:14:23Z</time>
      </trkpt>
      <trkpt lat="41.107950" lon="-3.661250">
        <ele>2139.0</ele>
        <time>2016-07-25T16:14:24Z</time>
      </trkpt>
      <trkpt lat="41.108000" lon="-3.661233">
        <ele>2140.0</ele>
        <time>2016-07-25T16:14:25Z</time>
      </trkpt>
      <trkpt lat="41.108050" lon="-3.661217">
        <ele>2142.0</ele>
        <time>2016-07-25T16:14:26Z</time>
      </trkpt>
      <trkpt lat="41.108100" lon="-3.661233">
        <ele>2143.0</ele>
        <time>2016-07-25T16:14:27Z</time>
      </trkpt>
      <trkpt lat="41.108133" lon="-3.661250">
        <ele>2145.0</ele>
        <time>2016-07-25T16:14:28Z</time>
      </trkpt>
      <trkpt lat="41.108167" lon="-3.661267">
        <ele>2146.0</ele>
        <time>2016-07-25T16:14:29Z</time>
      </trkpt>
      <trkpt lat="41.108200" lon="-3.661267">
        <ele>2148.0</ele>
        <time>2016-07-25T16:14:30Z</time>
      </trkpt>
      <trkpt lat="41.108217" lon="-3.661283">
        <ele>2149.0</ele>
        <time>2016-07-25T16:14:31Z</time>
      </trkpt>
      <trkpt lat="41.108250" lon="-3.661300">
        <ele>2149.0</ele>
        <time>2016-07-25T16:14:32Z</time>
      </trkpt>
      <trkpt lat="41.108283" lon="-3.661333">
        <ele>2151.0</ele>
        <time>2016-07-25T16:14:33Z</time>
      </trkpt>
      <trkpt lat="41.108317" lon="-3.661350">
        <ele>2152.0</ele>
        <time>2016-07-25T16:14:34Z</time>
      </trkpt>
      <trkpt lat="41.108333" lon="-3.661367">
        <ele>2153.0</ele>
        <time>2016-07-25T16:14:35Z</time>
      </trkpt>
      <trkpt lat="41.108350" lon="-3.661367">
        <ele>2153.0</ele>
        <time>2016-07-25T16:14:36Z</time>
      </trkpt>
      <trkpt lat="41.108400" lon="-3.661367">
        <ele>2152.0</ele>
        <time>2016-07-25T16:14:37Z</time>
      </trkpt>
      <trkpt lat="41.108433" lon="-3.661400">
        <ele>2150.0</ele>
        <time>2016-07-25T16:14:38Z</time>
      </trkpt>
      <trkpt lat="41.108483" lon="-3.661433">
        <ele>2150.0</ele>
        <time>2016-07-25T16:14:39Z</time>
      </trkpt>
      <trkpt lat="41.108533" lon="-3.661450">
        <ele>2150.0</ele>
        <time>2016-07-25T16:14:40Z</time>
      </trkpt>
      <trkpt lat="41.108583" lon="-3.661450">
        <ele>2151.0</ele>
        <time>2016-07-25T16:14:41Z</time>
      </trkpt>
      <trkpt lat="41.108617" lon="-3.661450">
        <ele>2152.0</ele>
        <time>2016-07-25T16:14:42Z</time>
      </trkpt>
      <trkpt lat="41.108667" lon="-3.661467">
        <ele>2152.0</ele>
        <time>2016-07-25T16:14:43Z</time>
      </trkpt>
      <trkpt lat="41.108700" lon="-3.661483">
        <ele>2151.0</ele>
        <time>2016-07-25T16:14:44Z</time>
      </trkpt>
      <trkpt lat="41.108767" lon="-3.661517">
        <ele>2150.0</ele>
        <time>2016-07-25T16:14:45Z</time>
      </trkpt>
      <trkpt lat="41.108817" lon="-3.661533">
        <ele>2151.0</ele>
        <time>2016-07-25T16:14:46Z</time>
      </trkpt>
      <trkpt lat="41.108867" lon="-3.661550">
        <ele>2152.0</ele>
        <time>2016-07-25T16:14:47Z</time>
      </trkpt>
      <trkpt lat="41.108917" lon="-3.661550">
        <ele>2153.0</ele>
        <time>2016-07-25T16:14:48Z</time>
      </trkpt>
      <trkpt lat="41.108950" lon="-3.661550">
        <ele>2154.0</ele>
        <time>2016-07-25T16:14:49Z</time>
      </trkpt>
      <trkpt lat="41.109000" lon="-3.661550">
        <ele>2153.0</ele>
        <time>2016-07-25T16:14:50Z</time>
      </trkpt>
      <trkpt lat="41.109050" lon="-3.661567">
        <ele>2153.0</ele>
        <time>2016-07-25T16:14:51Z</time>
      </trkpt>
      <trkpt lat="41.109100" lon="-3.661583">
        <ele>2152.0</ele>
        <time>2016-07-25T16:14:52Z</time>
      </trkpt>
      <trkpt lat="41.109150" lon="-3.661617">
        <ele>2151.0</ele>
        <time>2016-07-25T16:14:53Z</time>
      </trkpt>
      <trkpt lat="41.109200" lon="-3.661633">
        <ele>2152.0</ele>
        <time>2016-07-25T16:14:54Z</time>
      </trkpt>
      <trkpt lat="41.109250" lon="-3.661650">
        <ele>2153.0</ele>
        <time>2016-07-25T16:14:55Z</time>
      </trkpt>
      <trkpt lat="41.109300" lon="-3.661650">
        <ele>2153.0</ele>
        <time>2016-07-25T16:14:56Z</time>
      </trkpt>
      <trkpt lat="41.109350" lon="-3.661667">
        <ele>2152.0</ele>
        <time>2016-07-25T16:14:57Z</time>
      </trkpt>
      <trkpt lat="41.109400" lon="-3.661683">
        <ele>2151.0</ele>
        <time>2016-07-25T16:14:58Z</time>
      </trkpt>
      <trkpt lat="41.109450" lon="-3.661700">
        <ele>2150.0</ele>
        <time>2016-07-25T16:14:59Z</time>
      </trkpt>
      <trkpt lat="41.109500" lon="-3.661717">
        <ele>2151.0</ele>
        <time>2016-07-25T16:15:00Z</time>
      </trkpt>
      <trkpt lat="41.109550" lon="-3.661717">
        <ele>2151.0</ele>
        <time>2016-07-25T16:15:01Z</time>
      </trkpt>
      <trkpt lat="41.109600" lon="-3.661717">
        <ele>2150.0</ele>
        <time>2016-07-25T16:15:02Z</time>
      </trkpt>
      <trkpt lat="41.109650" lon="-3.661733">
        <ele>2149.0</ele>
        <time>2016-07-25T16:15:03Z</time>
      </trkpt>
      <trkpt lat="41.109700" lon="-3.661733">
        <ele>2148.0</ele>
        <time>2016-07-25T16:15:04Z</time>
      </trkpt>
      <trkpt lat="41.109750" lon="-3.661750">
        <ele>2147.0</ele>
        <time>2016-07-25T16:15:05Z</time>
      </trkpt>
      <trkpt lat="41.109800" lon="-3.661767">
        <ele>2146.0</ele>
        <time>2016-07-25T16:15:06Z</time>
      </trkpt>
      <trkpt lat="41.109850" lon="-3.661783">
        <ele>2145.0</ele>
        <time>2016-07-25T16:15:07Z</time>
      </trkpt>
      <trkpt lat="41.109900" lon="-3.661817">
        <ele>2144.0</ele>
        <time>2016-07-25T16:15:08Z</time>
      </trkpt>
      <trkpt lat="41.109950" lon="-3.661833">
        <ele>2143.0</ele>
        <time>2016-07-25T16:15:09Z</time>
      </trkpt>
      <trkpt lat="41.110017" lon="-3.661850">
        <ele>2142.0</ele>
        <time>2016-07-25T16:15:10Z</time>
      </trkpt>
      <trkpt lat="41.110067" lon="-3.661867">
        <ele>2141.0</ele>
        <time>2016-07-25T16:15:11Z</time>
      </trkpt>
      <trkpt lat="41.110117" lon="-3.661883">
        <ele>2141.0</ele>
        <time>2016-07-25T16:15:12Z</time>
      </trkpt>
      <trkpt lat="41.110167" lon="-3.661900">
        <ele>2140.0</ele>
        <time>2016-07-25T16:15:13Z</time>
      </trkpt>
      <trkpt lat="41.110233" lon="-3.661917">
        <ele>2139.0</ele>
        <time>2016-07-25T16:15:14Z</time>
      </trkpt>
      <trkpt lat="41.110283" lon="-3.661933">
        <ele>2138.0</ele>
        <time>2016-07-25T16:15:15Z</time>
      </trkpt>
      <trkpt lat="41.110350" lon="-3.661917">
        <ele>2138.0</ele>
        <time>2016-07-25T16:15:16Z</time>
      </trkpt>
      <trkpt lat="41.110400" lon="-3.661917">
        <ele>2138.0</ele>
        <time>2016-07-25T16:15:17Z</time>
      </trkpt>
      <trkpt lat="41.110450" lon="-3.661900">
        <ele>2138.0</ele>
        <time>2016-07-25T16:15:18Z</time>
      </trkpt>
      <trkpt lat="41.110500" lon="-3.661900">
        <ele>2137.0</ele>
        <time>2016-07-25T16:15:19Z</time>
      </trkpt>
      <trkpt lat="41.110567" lon="-3.661883">
        <ele>2137.0</ele>
        <time>2016-07-25T16:15:20Z</time>
      </trkpt>
      <trkpt lat="41.110617" lon="-3.661850">
        <ele>2136.0</ele>
        <time>2016-07-25T16:15:21Z</time>
      </trkpt>
      <trkpt lat="41.110667" lon="-3.661833">
        <ele>2135.0</ele>
        <time>2016-07-25T16:15:22Z</time>
      </trkpt>
      <trkpt lat="41.110733" lon="-3.661800">
        <ele>2135.0</ele>
        <time>2016-07-25T16:15:23Z</time>
      </trkpt>
      <trkpt lat="41.110783" lon="-3.661783">
        <ele>2135.0</ele>
        <time>2016-07-25T16:15:24Z</time>
      </trkpt>
      <trkpt lat="41.110850" lon="-3.661750">
        <ele>2135.0</ele>
        <time>2016-07-25T16:15:25Z</time>
      </trkpt>
      <trkpt lat="41.110900" lon="-3.661700">
        <ele>2134.0</ele>
        <time>2016-07-25T16:15:26Z</time>
      </trkpt>
      <trkpt lat="41.110950" lon="-3.661650">
        <ele>2134.0</ele>
        <time>2016-07-25T16:15:27Z</time>
      </trkpt>
      <trkpt lat="41.111000" lon="-3.661583">
        <ele>2133.0</ele>
        <time>2016-07-25T16:15:28Z</time>
      </trkpt>
      <trkpt lat="41.111067" lon="-3.661533">
        <ele>2131.0</ele>
        <time>2016-07-25T16:15:29Z</time>
      </trkpt>
      <trkpt lat="41.111133" lon="-3.661500">
        <ele>2129.0</ele>
        <time>2016-07-25T16:15:30Z</time>
      </trkpt>
      <trkpt lat="41.111200" lon="-3.661483">
        <ele>2129.0</ele>
        <time>2016-07-25T16:15:31Z</time>
      </trkpt>
      <trkpt lat="41.111250" lon="-3.661483">
        <ele>2130.0</ele>
        <time>2016-07-25T16:15:32Z</time>
      </trkpt>
      <trkpt lat="41.111283" lon="-3.661483">
        <ele>2130.0</ele>
        <time>2016-07-25T16:15:33Z</time>
      </trkpt>
      <trkpt lat="41.111333" lon="-3.661483">
        <ele>2130.0</ele>
        <time>2016-07-25T16:15:34Z</time>
      </trkpt>
      <trkpt lat="41.111367" lon="-3.661467">
        <ele>2129.0</ele>
        <time>2016-07-25T16:15:35Z</time>
      </trkpt>
      <trkpt lat="41.111417" lon="-3.661467">
        <ele>2128.0</ele>
        <time>2016-07-25T16:15:36Z</time>
      </trkpt>
      <trkpt lat="41.111483" lon="-3.661467">
        <ele>2127.0</ele>
        <time>2016-07-25T16:15:37Z</time>
      </trkpt>
      <trkpt lat="41.111533" lon="-3.661483">
        <ele>2126.0</ele>
        <time>2016-07-25T16:15:38Z</time>
      </trkpt>
      <trkpt lat="41.111583" lon="-3.661483">
        <ele>2125.0</ele>
        <time>2016-07-25T16:15:39Z</time>
      </trkpt>
      <trkpt lat="41.111633" lon="-3.661483">
        <ele>2124.0</ele>
        <time>2016-07-25T16:15:40Z</time>
      </trkpt>
      <trkpt lat="41.111683" lon="-3.661483">
        <ele>2123.0</ele>
        <time>2016-07-25T16:15:41Z</time>
      </trkpt>
      <trkpt lat="41.111733" lon="-3.661483">
        <ele>2121.0</ele>
        <time>2016-07-25T16:15:42Z</time>
      </trkpt>
      <trkpt lat="41.111783" lon="-3.661483">
        <ele>2119.0</ele>
        <time>2016-07-25T16:15:43Z</time>
      </trkpt>
      <trkpt lat="41.111850" lon="-3.661467">
        <ele>2118.0</ele>
        <time>2016-07-25T16:15:44Z</time>
      </trkpt>
      <trkpt lat="41.111900" lon="-3.661450">
        <ele>2117.0</ele>
        <time>2016-07-25T16:15:45Z</time>
      </trkpt>
      <trkpt lat="41.111967" lon="-3.661433">
        <ele>2116.0</ele>
        <time>2016-07-25T16:15:46Z</time>
      </trkpt>
      <trkpt lat="41.112017" lon="-3.661433">
        <ele>2115.0</ele>
        <time>2016-07-25T16:15:47Z</time>
      </trkpt>
      <trkpt lat="41.112067" lon="-3.661433">
        <ele>2113.0</ele>
        <time>2016-07-25T16:15:48Z</time>
      </trkpt>
      <trkpt lat="41.112117" lon="-3.661417">
        <ele>2110.0</ele>
        <time>2016-07-25T16:15:49Z</time>
      </trkpt>
      <trkpt lat="41.112183" lon="-3.661417">
        <ele>2108.0</ele>
        <time>2016-07-25T16:15:50Z</time>
      </trkpt>
      <trkpt lat="41.112250" lon="-3.661383">
        <ele>2107.0</ele>
        <time>2016-07-25T16:15:51Z</time>
      </trkpt>
      <trkpt lat="41.112317" lon="-3.661367">
        <ele>2106.0</ele>
        <time>2016-07-25T16:15:52Z</time>
      </trkpt>
      <trkpt lat="41.112367" lon="-3.661333">
        <ele>2105.0</ele>
        <time>2016-07-25T16:15:53Z</time>
      </trkpt>
      <trkpt lat="41.112417" lon="-3.661283">
        <ele>2104.0</ele>
        <time>2016-07-25T16:15:54Z</time>
      </trkpt>
      <trkpt lat="41.112467" lon="-3.661250">
        <ele>2102.0</ele>
        <time>2016-07-25T16:15:55Z</time>
      </trkpt>
      <trkpt lat="41.112517" lon="-3.661200">
        <ele>2099.0</ele>
        <time>2016-07-25T16:15:56Z</time>
      </trkpt>
      <trkpt lat="41.112567" lon="-3.661167">
        <ele>2096.0</ele>
        <time>2016-07-25T16:15:57Z</time>
      </trkpt>
      <trkpt lat="41.112633" lon="-3.661117">
        <ele>2094.0</ele>
        <time>2016-07-25T16:15:58Z</time>
      </trkpt>
      <trkpt lat="41.112700" lon="-3.661083">
        <ele>2091.0</ele>
        <time>2016-07-25T16:15:59Z</time>
      </trkpt>
      <trkpt lat="41.112750" lon="-3.661067">
        <ele>2089.0</ele>
        <time>2016-07-25T16:16:00Z</time>
      </trkpt>
      <trkpt lat="41.112800" lon="-3.661033">
        <ele>2087.0</ele>
        <time>2016-07-25T16:16:01Z</time>
      </trkpt>
      <trkpt lat="41.112867" lon="-3.661000">
        <ele>2085.0</ele>
        <time>2016-07-25T16:16:02Z</time>
      </trkpt>
      <trkpt lat="41.112917" lon="-3.660950">
        <ele>2083.0</ele>
        <time>2016-07-25T16:16:03Z</time>
      </trkpt>
      <trkpt lat="41.112967" lon="-3.660900">
        <ele>2081.0</ele>
        <time>2016-07-25T16:16:04Z</time>
      </trkpt>
      <trkpt lat="41.113033" lon="-3.660850">
        <ele>2079.0</ele>
        <time>2016-07-25T16:16:05Z</time>
      </trkpt>
      <trkpt lat="41.113083" lon="-3.660783">
        <ele>2077.0</ele>
        <time>2016-07-25T16:16:06Z</time>
      </trkpt>
      <trkpt lat="41.113150" lon="-3.660750">
        <ele>2074.0</ele>
        <time>2016-07-25T16:16:07Z</time>
      </trkpt>
      <trkpt lat="41.113200" lon="-3.660700">
        <ele>2073.0</ele>
        <time>2016-07-25T16:16:08Z</time>
      </trkpt>
      <trkpt lat="41.113267" lon="-3.660633">
        <ele>2072.0</ele>
        <time>2016-07-25T16:16:09Z</time>
      </trkpt>
      <trkpt lat="41.113317" lon="-3.660583">
        <ele>2070.0</ele>
        <time>2016-07-25T16:16:10Z</time>
      </trkpt>
      <trkpt lat="41.113367" lon="-3.660517">
        <ele>2067.0</ele>
        <time>2016-07-25T16:16:11Z</time>
      </trkpt>
      <trkpt lat="41.113433" lon="-3.660450">
        <ele>2065.0</ele>
        <time>2016-07-25T16:16:12Z</time>
      </trkpt>
      <trkpt lat="41.113483" lon="-3.660400">
        <ele>2063.0</ele>
        <time>2016-07-25T16:16:13Z</time>
      </trkpt>
      <trkpt lat="41.113550" lon="-3.660350">
        <ele>2062.0</ele>
        <time>2016-07-25T16:16:14Z</time>
      </trkpt>
      <trkpt lat="41.113617" lon="-3.660317">
        <ele>2061.0</ele>
        <time>2016-07-25T16:16:15Z</time>
      </trkpt>
      <trkpt lat="41.113683" lon="-3.660283">
        <ele>2061.0</ele>
        <time>2016-07-25T16:16:16Z</time>
      </trkpt>
      <trkpt lat="41.113733" lon="-3.660250">
        <ele>2060.0</ele>
        <time>2016-07-25T16:16:17Z</time>
      </trkpt>
      <trkpt lat="41.113800" lon="-3.660200">
        <ele>2059.0</ele>
        <time>2016-07-25T16:16:18Z</time>
      </trkpt>
      <trkpt lat="41.113850" lon="-3.660167">
        <ele>2057.0</ele>
        <time>2016-07-25T16:16:19Z</time>
      </trkpt>
      <trkpt lat="41.113933" lon="-3.660133">
        <ele>2055.0</ele>
        <time>2016-07-25T16:16:20Z</time>
      </trkpt>
      <trkpt lat="41.114000" lon="-3.660117">
        <ele>2053.0</ele>
        <time>2016-07-25T16:16:21Z</time>
      </trkpt>
      <trkpt lat="41.114067" lon="-3.660100">
        <ele>2052.0</ele>
        <time>2016-07-25T16:16:22Z</time>
      </trkpt>
      <trkpt lat="41.114133" lon="-3.660067">
        <ele>2050.0</ele>
        <time>2016-07-25T16:16:23Z</time>
      </trkpt>
      <trkpt lat="41.114217" lon="-3.660017">
        <ele>2048.0</ele>
        <time>2016-07-25T16:16:24Z</time>
      </trkpt>
      <trkpt lat="41.114283" lon="-3.659933">
        <ele>2046.0</ele>
        <time>2016-07-25T16:16:25Z</time>
      </trkpt>
      <trkpt lat="41.114350" lon="-3.659850">
        <ele>2044.0</ele>
        <time>2016-07-25T16:16:26Z</time>
      </trkpt>
      <trkpt lat="41.114400" lon="-3.659767">
        <ele>2042.0</ele>
        <time>2016-07-25T16:16:27Z</time>
      </trkpt>
      <trkpt lat="41.114467" lon="-3.659683">
        <ele>2040.0</ele>
        <time>2016-07-25T16:16:28Z</time>
      </trkpt>
      <trkpt lat="41.114517" lon="-3.659600">
        <ele>2038.0</ele>
        <time>2016-07-25T16:16:29Z</time>
      </trkpt>
      <trkpt lat="41.114567" lon="-3.659500">
        <ele>2037.0</ele>
        <time>2016-07-25T16:16:30Z</time>
      </trkpt>
      <trkpt lat="41.114600" lon="-3.659417">
        <ele>2035.0</ele>
        <time>2016-07-25T16:16:31Z</time>
      </trkpt>
      <trkpt lat="41.114650" lon="-3.659317">
        <ele>2033.0</ele>
        <time>2016-07-25T16:16:32Z</time>
      </trkpt>
      <trkpt lat="41.114700" lon="-3.659217">
        <ele>2031.0</ele>
        <time>2016-07-25T16:16:33Z</time>
      </trkpt>
      <trkpt lat="41.114767" lon="-3.659117">
        <ele>2029.0</ele>
        <time>2016-07-25T16:16:34Z</time>
      </trkpt>
      <trkpt lat="41.114817" lon="-3.659017">
        <ele>2028.0</ele>
        <time>2016-07-25T16:16:35Z</time>
      </trkpt>
      <trkpt lat="41.114867" lon="-3.658917">
        <ele>2026.0</ele>
        <time>2016-07-25T16:16:36Z</time>
      </trkpt>
      <trkpt lat="41.114917" lon="-3.658800">
        <ele>2025.0</ele>
        <time>2016-07-25T16:16:37Z</time>
      </trkpt>
      <trkpt lat="41.114967" lon="-3.658700">
        <ele>2023.0</ele>
        <time>2016-07-25T16:16:38Z</time>
      </trkpt>
      <trkpt lat="41.115017" lon="-3.658600">
        <ele>2020.0</ele>
        <time>2016-07-25T16:16:39Z</time>
      </trkpt>
      <trkpt lat="41.115083" lon="-3.658500">
        <ele>2018.0</ele>
        <time>2016-07-25T16:16:40Z</time>
      </trkpt>
      <trkpt lat="41.115150" lon="-3.658400">
        <ele>2015.0</ele>
        <time>2016-07-25T16:16:41Z</time>
      </trkpt>
      <trkpt lat="41.115200" lon="-3.658283">
        <ele>2014.0</ele>
        <time>2016-07-25T16:16:42Z</time>
      </trkpt>
      <trkpt lat="41.115267" lon="-3.658167">
        <ele>2012.0</ele>
        <time>2016-07-25T16:16:43Z</time>
      </trkpt>
      <trkpt lat="41.115317" lon="-3.658067">
        <ele>2010.0</ele>
        <time>2016-07-25T16:16:44Z</time>
      </trkpt>
      <trkpt lat="41.115367" lon="-3.657967">
        <ele>2007.0</ele>
        <time>2016-07-25T16:16:45Z</time>
      </trkpt>
      <trkpt lat="41.115417" lon="-3.657867">
        <ele>2004.0</ele>
        <time>2016-07-25T16:16:46Z</time>
      </trkpt>
      <trkpt lat="41.115483" lon="-3.657750">
        <ele>2001.0</ele>
        <time>2016-07-25T16:16:47Z</time>
      </trkpt>
      <trkpt lat="41.115550" lon="-3.657633">
        <ele>1999.0</ele>
        <time>2016-07-25T16:16:48Z</time>
      </trkpt>
      <trkpt lat="41.115600" lon="-3.657500">
        <ele>1997.0</ele>
        <time>2016-07-25T16:16:49Z</time>
      </trkpt>
      <trkpt lat="41.115667" lon="-3.657383">
        <ele>1995.0</ele>
        <time>2016-07-25T16:16:50Z</time>
      </trkpt>
      <trkpt lat="41.115717" lon="-3.657250">
        <ele>1993.0</ele>
        <time>2016-07-25T16:16:51Z</time>
      </trkpt>
      <trkpt lat="41.115767" lon="-3.657133">
        <ele>1992.0</ele>
        <time>2016-07-25T16:16:52Z</time>
      </trkpt>
      <trkpt lat="41.115817" lon="-3.657000">
        <ele>1989.0</ele>
        <time>2016-07-25T16:16:53Z</time>
      </trkpt>
      <trkpt lat="41.115867" lon="-3.656883">
        <ele>1987.0</ele>
        <time>2016-07-25T16:16:54Z</time>
      </trkpt>
      <trkpt lat="41.115917" lon="-3.656750">
        <ele>1985.0</ele>
        <time>2016-07-25T16:16:55Z</time>
      </trkpt>
      <trkpt lat="41.115967" lon="-3.656617">
        <ele>1984.0</ele>
        <time>2016-07-25T16:16:56Z</time>
      </trkpt>
      <trkpt lat="41.116017" lon="-3.656483">
        <ele>1983.0</ele>
        <time>2016-07-25T16:16:57Z</time>
      </trkpt>
      <trkpt lat="41.116067" lon="-3.656350">
        <ele>1982.0</ele>
        <time>2016-07-25T16:16:58Z</time>
      </trkpt>
      <trkpt lat="41.116117" lon="-3.656233">
        <ele>1980.0</ele>
        <time>2016-07-25T16:16:59Z</time>
      </trkpt>
      <trkpt lat="41.116167" lon="-3.656100">
        <ele>1978.0</ele>
        <time>2016-07-25T16:17:00Z</time>
      </trkpt>
      <trkpt lat="41.116217" lon="-3.655983">
        <ele>1976.0</ele>
        <time>2016-07-25T16:17:01Z</time>
      </trkpt>
      <trkpt lat="41.116267" lon="-3.655850">
        <ele>1975.0</ele>
        <time>2016-07-25T16:17:02Z</time>
      </trkpt>
      <trkpt lat="41.116317" lon="-3.655717">
        <ele>1973.0</ele>
        <time>2016-07-25T16:17:03Z</time>
      </trkpt>
      <trkpt lat="41.116367" lon="-3.655583">
        <ele>1973.0</ele>
        <time>2016-07-25T16:17:04Z</time>
      </trkpt>
      <trkpt lat="41.116400" lon="-3.655467">
        <ele>1971.0</ele>
        <time>2016-07-25T16:17:05Z</time>
      </trkpt>
      <trkpt lat="41.116467" lon="-3.655350">
        <ele>1969.0</ele>
        <time>2016-07-25T16:17:06Z</time>
      </trkpt>
      <trkpt lat="41.116517" lon="-3.655233">
        <ele>1966.0</ele>
        <time>2016-07-25T16:17:07Z</time>
      </trkpt>
      <trkpt lat="41.116583" lon="-3.655100">
        <ele>1964.0</ele>
        <time>2016-07-25T16:17:08Z</time>
      </trkpt>
      <trkpt lat="41.116633" lon="-3.654983">
        <ele>1963.0</ele>
        <time>2016-07-25T16:17:09Z</time>
      </trkpt>
      <trkpt lat="41.116683" lon="-3.654867">
        <ele>1961.0</ele>
        <time>2016-07-25T16:17:10Z</time>
      </trkpt>
      <trkpt lat="41.116733" lon="-3.654750">
        <ele>1958.0</ele>
        <time>2016-07-25T16:17:11Z</time>
      </trkpt>
      <trkpt lat="41.116800" lon="-3.654617">
        <ele>1955.0</ele>
        <time>2016-07-25T16:17:12Z</time>
      </trkpt>
      <trkpt lat="41.116867" lon="-3.654483">
        <ele>1953.0</ele>
        <time>2016-07-25T16:17:13Z</time>
      </trkpt>
      <trkpt lat="41.116917" lon="-3.654350">
        <ele>1951.0</ele>
        <time>2016-07-25T16:17:14Z</time>
      </trkpt>
      <trkpt lat="41.116967" lon="-3.654217">
        <ele>1951.0</ele>
        <time>2016-07-25T16:17:15Z</time>
      </trkpt>
      <trkpt lat="41.117017" lon="-3.654083">
        <ele>1950.0</ele>
        <time>2016-07-25T16:17:16Z</time>
      </trkpt>
      <trkpt lat="41.117067" lon="-3.653967">
        <ele>1949.0</ele>
        <time>2016-07-25T16:17:17Z</time>
      </trkpt>
      <trkpt lat="41.117117" lon="-3.653850">
        <ele>1947.0</ele>
        <time>2016-07-25T16:17:18Z</time>
      </trkpt>
      <trkpt lat="41.117183" lon="-3.653717">
        <ele>1944.0</ele>
        <time>2016-07-25T16:17:19Z</time>
      </trkpt>
      <trkpt lat="41.117250" lon="-3.653583">
        <ele>1942.0</ele>
        <time>2016-07-25T16:17:20Z</time>
      </trkpt>
      <trkpt lat="41.117300" lon="-3.653450">
        <ele>1941.0</ele>
        <time>2016-07-25T16:17:21Z</time>
      </trkpt>
      <trkpt lat="41.117367" lon="-3.653333">
        <ele>1940.0</ele>
        <time>2016-07-25T16:17:22Z</time>
      </trkpt>
      <trkpt lat="41.117417" lon="-3.653217">
        <ele>1939.0</ele>
        <time>2016-07-25T16:17:23Z</time>
      </trkpt>
      <trkpt lat="41.117483" lon="-3.653100">
        <ele>1937.0</ele>
        <time>2016-07-25T16:17:24Z</time>
      </trkpt>
      <trkpt lat="41.117533" lon="-3.652983">
        <ele>1935.0</ele>
        <time>2016-07-25T16:17:25Z</time>
      </trkpt>
      <trkpt lat="41.117617" lon="-3.652883">
        <ele>1933.0</ele>
        <time>2016-07-25T16:17:26Z</time>
      </trkpt>
      <trkpt lat="41.117683" lon="-3.652767">
        <ele>1931.0</ele>
        <time>2016-07-25T16:17:27Z</time>
      </trkpt>
      <trkpt lat="41.117750" lon="-3.652667">
        <ele>1931.0</ele>
        <time>2016-07-25T16:17:28Z</time>
      </trkpt>
      <trkpt lat="41.117833" lon="-3.652567">
        <ele>1931.0</ele>
        <time>2016-07-25T16:17:29Z</time>
      </trkpt>
      <trkpt lat="41.117900" lon="-3.652483">
        <ele>1932.0</ele>
        <time>2016-07-25T16:17:30Z</time>
      </trkpt>
      <trkpt lat="41.117967" lon="-3.652417">
        <ele>1933.0</ele>
        <time>2016-07-25T16:17:31Z</time>
      </trkpt>
      <trkpt lat="41.118017" lon="-3.652333">
        <ele>1933.0</ele>
        <time>2016-07-25T16:17:32Z</time>
      </trkpt>
      <trkpt lat="41.118083" lon="-3.652267">
        <ele>1931.0</ele>
        <time>2016-07-25T16:17:33Z</time>
      </trkpt>
      <trkpt lat="41.118150" lon="-3.652200">
        <ele>1930.0</ele>
        <time>2016-07-25T16:17:34Z</time>
      </trkpt>
      <trkpt lat="41.118233" lon="-3.652133">
        <ele>1929.0</ele>
        <time>2016-07-25T16:17:35Z</time>
      </trkpt>
      <trkpt lat="41.118317" lon="-3.652100">
        <ele>1929.0</ele>
        <time>2016-07-25T16:17:36Z</time>
      </trkpt>
      <trkpt lat="41.118400" lon="-3.652050">
        <ele>1929.0</ele>
        <time>2016-07-25T16:17:37Z</time>
      </trkpt>
      <trkpt lat="41.118467" lon="-3.652000">
        <ele>1930.0</ele>
        <time>2016-07-25T16:17:38Z</time>
      </trkpt>
      <trkpt lat="41.118550" lon="-3.651950">
        <ele>1930.0</ele>
        <time>2016-07-25T16:17:39Z</time>
      </trkpt>
      <trkpt lat="41.118617" lon="-3.651883">
        <ele>1929.0</ele>
        <time>2016-07-25T16:17:40Z</time>
      </trkpt>
      <trkpt lat="41.118700" lon="-3.651817">
        <ele>1929.0</ele>
        <time>2016-07-25T16:17:41Z</time>
      </trkpt>
      <trkpt lat="41.118783" lon="-3.651750">
        <ele>1929.0</ele>
        <time>2016-07-25T16:17:42Z</time>
      </trkpt>
      <trkpt lat="41.118867" lon="-3.651700">
        <ele>1929.0</ele>
        <time>2016-07-25T16:17:43Z</time>
      </trkpt>
      <trkpt lat="41.118950" lon="-3.651633">
        <ele>1931.0</ele>
        <time>2016-07-25T16:17:44Z</time>
      </trkpt>
      <trkpt lat="41.119017" lon="-3.651550">
        <ele>1931.0</ele>
        <time>2016-07-25T16:17:45Z</time>
      </trkpt>
      <trkpt lat="41.119083" lon="-3.651483">
        <ele>1932.0</ele>
        <time>2016-07-25T16:17:46Z</time>
      </trkpt>
      <trkpt lat="41.119167" lon="-3.651417">
        <ele>1932.0</ele>
        <time>2016-07-25T16:17:47Z</time>
      </trkpt>
      <trkpt lat="41.119233" lon="-3.651350">
        <ele>1933.0</ele>
        <time>2016-07-25T16:17:48Z</time>
      </trkpt>
      <trkpt lat="41.119300" lon="-3.651300">
        <ele>1933.0</ele>
        <time>2016-07-25T16:17:49Z</time>
      </trkpt>
      <trkpt lat="41.119367" lon="-3.651250">
        <ele>1933.0</ele>
        <time>2016-07-25T16:17:50Z</time>
      </trkpt>
      <trkpt lat="41.119433" lon="-3.651183">
        <ele>1933.0</ele>
        <time>2016-07-25T16:17:51Z</time>
      </trkpt>
      <trkpt lat="41.119500" lon="-3.651100">
        <ele>1932.0</ele>
        <time>2016-07-25T16:17:52Z</time>
      </trkpt>
      <trkpt lat="41.119567" lon="-3.651017">
        <ele>1931.0</ele>
        <time>2016-07-25T16:17:53Z</time>
      </trkpt>
      <trkpt lat="41.119650" lon="-3.650917">
        <ele>1932.0</ele>
        <time>2016-07-25T16:17:54Z</time>
      </trkpt>
      <trkpt lat="41.119717" lon="-3.650850">
        <ele>1933.0</ele>
        <time>2016-07-25T16:17:55Z</time>
      </trkpt>
      <trkpt lat="41.119767" lon="-3.650767">
        <ele>1935.0</ele>
        <time>2016-07-25T16:17:56Z</time>
      </trkpt>
      <trkpt lat="41.119833" lon="-3.650700">
        <ele>1936.0</ele>
        <time>2016-07-25T16:17:57Z</time>
      </trkpt>
      <trkpt lat="41.119900" lon="-3.650633">
        <ele>1937.0</ele>
        <time>2016-07-25T16:17:58Z</time>
      </trkpt>
      <trkpt lat="41.119967" lon="-3.650583">
        <ele>1938.0</ele>
        <time>2016-07-25T16:17:59Z</time>
      </trkpt>
      <trkpt lat="41.120033" lon="-3.650517">
        <ele>1939.0</ele>
        <time>2016-07-25T16:18:00Z</time>
      </trkpt>
      <trkpt lat="41.120100" lon="-3.650467">
        <ele>1941.0</ele>
        <time>2016-07-25T16:18:01Z</time>
      </trkpt>
      <trkpt lat="41.120167" lon="-3.650417">
        <ele>1943.0</ele>
        <time>2016-07-25T16:18:02Z</time>
      </trkpt>
      <trkpt lat="41.120217" lon="-3.650383">
        <ele>1944.0</ele>
        <time>2016-07-25T16:18:03Z</time>
      </trkpt>
      <trkpt lat="41.120283" lon="-3.650333">
        <ele>1945.0</ele>
        <time>2016-07-25T16:18:04Z</time>
      </trkpt>
      <trkpt lat="41.120333" lon="-3.650300">
        <ele>1946.0</ele>
        <time>2016-07-25T16:18:05Z</time>
      </trkpt>
      <trkpt lat="41.120383" lon="-3.650250">
        <ele>1946.0</ele>
        <time>2016-07-25T16:18:06Z</time>
      </trkpt>
      <trkpt lat="41.120450" lon="-3.650183">
        <ele>1946.0</ele>
        <time>2016-07-25T16:18:07Z</time>
      </trkpt>
      <trkpt lat="41.120500" lon="-3.650133">
        <ele>1947.0</ele>
        <time>2016-07-25T16:18:08Z</time>
      </trkpt>
      <trkpt lat="41.120567" lon="-3.650083">
        <ele>1947.0</ele>
        <time>2016-07-25T16:18:09Z</time>
      </trkpt>
      <trkpt lat="41.120617" lon="-3.650050">
        <ele>1947.0</ele>
        <time>2016-07-25T16:18:10Z</time>
      </trkpt>
      <trkpt lat="41.120683" lon="-3.650000">
        <ele>1948.0</ele>
        <time>2016-07-25T16:18:11Z</time>
      </trkpt>
      <trkpt lat="41.120750" lon="-3.649967">
        <ele>1948.0</ele>
        <time>2016-07-25T16:18:12Z</time>
      </trkpt>
      <trkpt lat="41.120817" lon="-3.649917">
        <ele>1949.0</ele>
        <time>2016-07-25T16:18:13Z</time>
      </trkpt>
      <trkpt lat="41.120867" lon="-3.649850">
        <ele>1951.0</ele>
        <time>2016-07-25T16:18:14Z</time>
      </trkpt>
      <trkpt lat="41.120917" lon="-3.649817">
        <ele>1956.0</ele>
        <time>2016-07-25T16:18:15Z</time>
      </trkpt>
      <trkpt lat="41.120933" lon="-3.649783">
        <ele>1959.0</ele>
        <time>2016-07-25T16:18:16Z</time>
      </trkpt>
      <trkpt lat="41.120950" lon="-3.649783">
        <ele>1961.0</ele>
        <time>2016-07-25T16:18:17Z</time>
      </trkpt>
      <trkpt lat="41.120967" lon="-3.649800">
        <ele>1962.0</ele>
        <time>2016-07-25T16:18:18Z</time>
      </trkpt>
      <trkpt lat="41.120983" lon="-3.649800">
        <ele>1965.0</ele>
        <time>2016-07-25T16:18:19Z</time>
      </trkpt>
      <trkpt lat="41.121017" lon="-3.649800">
        <ele>1968.0</ele>
        <time>2016-07-25T16:18:20Z</time>
      </trkpt>
      <trkpt lat="41.121033" lon="-3.649783">
        <ele>1970.0</ele>
        <time>2016-07-25T16:18:21Z</time>
      </trkpt>
      <trkpt lat="41.121067" lon="-3.649783">
        <ele>1972.0</ele>
        <time>2016-07-25T16:18:22Z</time>
      </trkpt>
      <trkpt lat="41.121083" lon="-3.649800">
        <ele>1974.0</ele>
        <time>2016-07-25T16:18:23Z</time>
      </trkpt>
      <trkpt lat="41.121117" lon="-3.649817">
        <ele>1977.0</ele>
        <time>2016-07-25T16:18:24Z</time>
      </trkpt>
      <trkpt lat="41.121167" lon="-3.649800">
        <ele>1979.0</ele>
        <time>2016-07-25T16:18:25Z</time>
      </trkpt>
      <trkpt lat="41.121217" lon="-3.649767">
        <ele>1981.0</ele>
        <time>2016-07-25T16:18:26Z</time>
      </trkpt>
      <trkpt lat="41.121267" lon="-3.649717">
        <ele>1982.0</ele>
        <time>2016-07-25T16:18:27Z</time>
      </trkpt>
      <trkpt lat="41.121317" lon="-3.649633">
        <ele>1984.0</ele>
        <time>2016-07-25T16:18:28Z</time>
      </trkpt>
      <trkpt lat="41.121350" lon="-3.649533">
        <ele>1987.0</ele>
        <time>2016-07-25T16:18:29Z</time>
      </trkpt>
      <trkpt lat="41.121350" lon="-3.649417">
        <ele>1991.0</ele>
        <time>2016-07-25T16:18:30Z</time>
      </trkpt>
      <trkpt lat="41.121283" lon="-3.649300">
        <ele>1993.0</ele>
        <time>2016-07-25T16:18:31Z</time>
      </trkpt>
      <trkpt lat="41.121200" lon="-3.649200">
        <ele>1995.0</ele>
        <time>2016-07-25T16:18:32Z</time>
      </trkpt>
      <trkpt lat="41.121067" lon="-3.649133">
        <ele>1997.0</ele>
        <time>2016-07-25T16:18:33Z</time>
      </trkpt>
      <trkpt lat="41.120933" lon="-3.649100">
        <ele>1998.0</ele>
        <time>2016-07-25T16:18:34Z</time>
      </trkpt>
      <trkpt lat="41.120817" lon="-3.649133">
        <ele>2000.0</ele>
        <time>2016-07-25T16:18:35Z</time>
      </trkpt>
      <trkpt lat="41.120717" lon="-3.649183">
        <ele>2003.0</ele>
        <time>2016-07-25T16:18:36Z</time>
      </trkpt>
      <trkpt lat="41.120667" lon="-3.649250">
        <ele>2007.0</ele>
        <time>2016-07-25T16:18:37Z</time>
      </trkpt>
      <trkpt lat="41.120650" lon="-3.649317">
        <ele>2010.0</ele>
        <time>2016-07-25T16:18:38Z</time>
      </trkpt>
      <trkpt lat="41.120650" lon="-3.649350">
        <ele>2012.0</ele>
        <time>2016-07-25T16:18:39Z</time>
      </trkpt>
      <trkpt lat="41.120650" lon="-3.649400">
        <ele>2014.0</ele>
        <time>2016-07-25T16:18:40Z</time>
      </trkpt>
      <trkpt lat="41.120667" lon="-3.649450">
        <ele>2015.0</ele>
        <time>2016-07-25T16:18:41Z</time>
      </trkpt>
      <trkpt lat="41.120700" lon="-3.649483">
        <ele>2018.0</ele>
        <time>2016-07-25T16:18:42Z</time>
      </trkpt>
      <trkpt lat="41.120733" lon="-3.649500">
        <ele>2021.0</ele>
        <time>2016-07-25T16:18:43Z</time>
      </trkpt>
      <trkpt lat="41.120767" lon="-3.649500">
        <ele>2024.0</ele>
        <time>2016-07-25T16:18:44Z</time>
      </trkpt>
      <trkpt lat="41.120817" lon="-3.649483">
        <ele>2027.0</ele>
        <time>2016-07-25T16:18:45Z</time>
      </trkpt>
      <trkpt lat="41.120850" lon="-3.649483">
        <ele>2030.0</ele>
        <time>2016-07-25T16:18:46Z</time>
      </trkpt>
      <trkpt lat="41.120900" lon="-3.649500">
        <ele>2032.0</ele>
        <time>2016-07-25T16:18:47Z</time>
      </trkpt>
      <trkpt lat="41.120950" lon="-3.649533">
        <ele>2034.0</ele>
        <time>2016-07-25T16:18:48Z</time>
      </trkpt>
      <trkpt lat="41.121017" lon="-3.649533">
        <ele>2038.0</ele>
        <time>2016-07-25T16:18:49Z</time>
      </trkpt>
      <trkpt lat="41.121067" lon="-3.649517">
        <ele>2041.0</ele>
        <time>2016-07-25T16:18:50Z</time>
      </trkpt>
      <trkpt lat="41.121133" lon="-3.649483">
        <ele>2044.0</ele>
        <time>2016-07-25T16:18:51Z</time>
      </trkpt>
      <trkpt lat="41.121183" lon="-3.649433">
        <ele>2047.0</ele>
        <time>2016-07-25T16:18:52Z</time>
      </trkpt>
      <trkpt lat="41.121233" lon="-3.649367">
        <ele>2050.0</ele>
        <time>2016-07-25T16:18:53Z</time>
      </trkpt>
      <trkpt lat="41.121267" lon="-3.649267">
        <ele>2053.0</ele>
        <time>2016-07-25T16:18:54Z</time>
      </trkpt>
      <trkpt lat="41.121267" lon="-3.649150">
        <ele>2056.0</ele>
        <time>2016-07-25T16:18:55Z</time>
      </trkpt>
      <trkpt lat="41.121233" lon="-3.649000">
        <ele>2058.0</ele>
        <time>2016-07-25T16:18:56Z</time>
      </trkpt>
      <trkpt lat="41.121150" lon="-3.648883">
        <ele>2061.0</ele>
        <time>2016-07-25T16:18:57Z</time>
      </trkpt>
      <trkpt lat="41.121017" lon="-3.648833">
        <ele>2063.0</ele>
        <time>2016-07-25T16:18:58Z</time>
      </trkpt>
      <trkpt lat="41.120883" lon="-3.648850">
        <ele>2066.0</ele>
        <time>2016-07-25T16:18:59Z</time>
      </trkpt>
      <trkpt lat="41.120783" lon="-3.648900">
        <ele>2072.0</ele>
        <time>2016-07-25T16:19:00Z</time>
      </trkpt>
      <trkpt lat="41.120717" lon="-3.648983">
        <ele>2078.0</ele>
        <time>2016-07-25T16:19:01Z</time>
      </trkpt>
      <trkpt lat="41.120683" lon="-3.649033">
        <ele>2083.0</ele>
        <time>2016-07-25T16:19:02Z</time>
      </trkpt>
      <trkpt lat="41.120683" lon="-3.649100">
        <ele>2087.0</ele>
        <time>2016-07-25T16:19:03Z</time>
      </trkpt>
      <trkpt lat="41.120667" lon="-3.649183">
        <ele>2089.0</ele>
        <time>2016-07-25T16:19:04Z</time>
      </trkpt>
      <trkpt lat="41.120633" lon="-3.649267">
        <ele>2092.0</ele>
        <time>2016-07-25T16:19:05Z</time>
      </trkpt>
      <trkpt lat="41.120633" lon="-3.649367">
        <ele>2095.0</ele>
        <time>2016-07-25T16:19:06Z</time>
      </trkpt>
      <trkpt lat="41.120633" lon="-3.649433">
        <ele>2100.0</ele>
        <time>2016-07-25T16:19:07Z</time>
      </trkpt>
      <trkpt lat="41.120650" lon="-3.649500">
        <ele>2105.0</ele>
        <time>2016-07-25T16:19:08Z</time>
      </trkpt>
      <trkpt lat="41.120683" lon="-3.649533">
        <ele>2110.0</ele>
        <time>2016-07-25T16:19:09Z</time>
      </trkpt>
      <trkpt lat="41.120700" lon="-3.649567">
        <ele>2116.0</ele>
        <time>2016-07-25T16:19:10Z</time>
      </trkpt>
      <trkpt lat="41.120733" lon="-3.649600">
        <ele>2121.0</ele>
        <time>2016-07-25T16:19:11Z</time>
      </trkpt>
      <trkpt lat="41.120767" lon="-3.649600">
        <ele>2126.0</ele>
        <time>2016-07-25T16:19:12Z</time>
      </trkpt>
      <trkpt lat="41.120817" lon="-3.649600">
        <ele>2130.0</ele>
        <time>2016-07-25T16:19:13Z</time>
      </trkpt>
      <trkpt lat="41.120867" lon="-3.649567">
        <ele>2134.0</ele>
        <time>2016-07-25T16:19:14Z</time>
      </trkpt>
      <trkpt lat="41.120900" lon="-3.649533">
        <ele>2138.0</ele>
        <time>2016-07-25T16:19:15Z</time>
      </trkpt>
      <trkpt lat="41.120933" lon="-3.649467">
        <ele>2143.0</ele>
        <time>2016-07-25T16:19:16Z</time>
      </trkpt>
      <trkpt lat="41.120950" lon="-3.649383">
        <ele>2146.0</ele>
        <time>2016-07-25T16:19:17Z</time>
      </trkpt>
      <trkpt lat="41.120950" lon="-3.649250">
        <ele>2149.0</ele>
        <time>2016-07-25T16:19:18Z</time>
      </trkpt>
      <trkpt lat="41.120917" lon="-3.649133">
        <ele>2153.0</ele>
        <time>2016-07-25T16:19:19Z</time>
      </trkpt>
      <trkpt lat="41.120867" lon="-3.649017">
        <ele>2158.0</ele>
        <time>2016-07-25T16:19:20Z</time>
      </trkpt>
      <trkpt lat="41.120800" lon="-3.648933">
        <ele>2163.0</ele>
        <time>2016-07-25T16:19:21Z</time>
      </trkpt>
      <trkpt lat="41.120717" lon="-3.648867">
        <ele>2166.0</ele>
        <time>2016-07-25T16:19:22Z</time>
      </trkpt>
      <trkpt lat="41.120617" lon="-3.648833">
        <ele>2168.0</ele>
        <time>2016-07-25T16:19:23Z</time>
      </trkpt>
      <trkpt lat="41.120500" lon="-3.648833">
        <ele>2170.0</ele>
        <time>2016-07-25T16:19:24Z</time>
      </trkpt>
      <trkpt lat="41.120400" lon="-3.648867">
        <ele>2174.0</ele>
        <time>2016-07-25T16:19:25Z</time>
      </trkpt>
      <trkpt lat="41.120333" lon="-3.648933">
        <ele>2177.0</ele>
        <time>2016-07-25T16:19:26Z</time>
      </trkpt>
      <trkpt lat="41.120283" lon="-3.649017">
        <ele>2180.0</ele>
        <time>2016-07-25T16:19:27Z</time>
      </trkpt>
      <trkpt lat="41.120250" lon="-3.649117">
        <ele>2184.0</ele>
        <time>2016-07-25T16:19:28Z</time>
      </trkpt>
      <trkpt lat="41.120233" lon="-3.649217">
        <ele>2190.0</ele>
        <time>2016-07-25T16:19:29Z</time>
      </trkpt>
      <trkpt lat="41.120217" lon="-3.649300">
        <ele>2196.0</ele>
        <time>2016-07-25T16:19:30Z</time>
      </trkpt>
      <trkpt lat="41.120200" lon="-3.649367">
        <ele>2202.0</ele>
        <time>2016-07-25T16:19:31Z</time>
      </trkpt>
      <trkpt lat="41.120200" lon="-3.649417">
        <ele>2206.0</ele>
        <time>2016-07-25T16:19:32Z</time>
      </trkpt>
      <trkpt lat="41.120200" lon="-3.649467">
        <ele>2210.0</ele>
        <time>2016-07-25T16:19:33Z</time>
      </trkpt>
      <trkpt lat="41.120217" lon="-3.649533">
        <ele>2213.0</ele>
        <time>2016-07-25T16:19:34Z</time>
      </trkpt>
      <trkpt lat="41.120233" lon="-3.649583">
        <ele>2217.0</ele>
        <time>2016-07-25T16:19:35Z</time>
      </trkpt>
      <trkpt lat="41.120283" lon="-3.649633">
        <ele>2222.0</ele>
        <time>2016-07-25T16:19:36Z</time>
      </trkpt>
      <trkpt lat="41.120317" lon="-3.649667">
        <ele>2229.0</ele>
        <time>2016-07-25T16:19:37Z</time>
      </trkpt>
      <trkpt lat="41.120350" lon="-3.649683">
        <ele>2236.0</ele>
        <time>2016-07-25T16:19:38Z</time>
      </trkpt>
      <trkpt lat="41.120400" lon="-3.649683">
        <ele>2242.0</ele>
        <time>2016-07-25T16:19:39Z</time>
      </trkpt>
      <trkpt lat="41.120433" lon="-3.649650">
        <ele>2247.0</ele>
        <time>2016-07-25T16:19:40Z</time>
      </trkpt>
      <trkpt lat="41.120483" lon="-3.649617">
        <ele>2252.0</ele>
        <time>2016-07-25T16:19:41Z</time>
      </trkpt>
      <trkpt lat="41.120517" lon="-3.649550">
        <ele>2257.0</ele>
        <time>2016-07-25T16:19:42Z</time>
      </trkpt>
      <trkpt lat="41.120550" lon="-3.649433">
        <ele>2262.0</ele>
        <time>2016-07-25T16:19:43Z</time>
      </trkpt>
      <trkpt lat="41.120533" lon="-3.649317">
        <ele>2266.0</ele>
        <time>2016-07-25T16:19:44Z</time>
      </trkpt>
      <trkpt lat="41.120517" lon="-3.649167">
        <ele>2271.0</ele>
        <time>2016-07-25T16:19:45Z</time>
      </trkpt>
      <trkpt lat="41.120483" lon="-3.649033">
        <ele>2276.0</ele>
        <time>2016-07-25T16:19:46Z</time>
      </trkpt>
      <trkpt lat="41.120433" lon="-3.648917">
        <ele>2281.0</ele>
        <time>2016-07-25T16:19:47Z</time>
      </trkpt>
      <trkpt lat="41.120333" lon="-3.648817">
        <ele>2285.0</ele>
        <time>2016-07-25T16:19:48Z</time>
      </trkpt>
      <trkpt lat="41.120200" lon="-3.648767">
        <ele>2289.0</ele>
        <time>2016-07-25T16:19:49Z</time>
      </trkpt>
      <trkpt lat="41.120067" lon="-3.648750">
        <ele>2293.0</ele>
        <time>2016-07-25T16:19:50Z</time>
      </trkpt>
      <trkpt lat="41.119950" lon="-3.648783">
        <ele>2298.0</ele>
        <time>2016-07-25T16:19:51Z</time>
      </trkpt>
      <trkpt lat="41.119867" lon="-3.648850">
        <ele>2301.0</ele>
        <time>2016-07-25T16:19:52Z</time>
      </trkpt>
      <trkpt lat="41.119800" lon="-3.648950">
        <ele>2305.0</ele>
        <time>2016-07-25T16:19:53Z</time>
      </trkpt>
      <trkpt lat="41.119767" lon="-3.649050">
        <ele>2311.0</ele>
        <time>2016-07-25T16:19:54Z</time>
      </trkpt>
      <trkpt lat="41.119733" lon="-3.649133">
        <ele>2318.0</ele>
        <time>2016-07-25T16:19:55Z</time>
      </trkpt>
      <trkpt lat="41.119733" lon="-3.649183">
        <ele>2325.0</ele>
        <time>2016-07-25T16:19:56Z</time>
      </trkpt>
      <trkpt lat="41.119717" lon="-3.649233">
        <ele>2330.0</ele>
        <time>2016-07-25T16:19:57Z</time>
      </trkpt>
      <trkpt lat="41.119717" lon="-3.649283">
        <ele>2334.0</ele>
        <time>2016-07-25T16:19:58Z</time>
      </trkpt>
      <trkpt lat="41.119733" lon="-3.649333">
        <ele>2338.0</ele>
        <time>2016-07-25T16:19:59Z</time>
      </trkpt>
      <trkpt lat="41.119750" lon="-3.649367">
        <ele>2343.0</ele>
        <time>2016-07-25T16:20:00Z</time>
      </trkpt>
      <trkpt lat="41.119800" lon="-3.649367">
        <ele>2348.0</ele>
        <time>2016-07-25T16:20:01Z</time>
      </trkpt>
      <trkpt lat="41.119817" lon="-3.649333">
        <ele>2353.0</ele>
        <time>2016-07-25T16:20:02Z</time>
      </trkpt>
      <trkpt lat="41.119850" lon="-3.649283">
        <ele>2357.0</ele>
        <time>2016-07-25T16:20:03Z</time>
      </trkpt>
      <trkpt lat="41.119867" lon="-3.649233">
        <ele>2361.0</ele>
        <time>2016-07-25T16:20:04Z</time>
      </trkpt>
      <trkpt lat="41.119900" lon="-3.649167">
        <ele>2364.0</ele>
        <time>2016-07-25T16:20:05Z</time>
      </trkpt>
      <trkpt lat="41.119933" lon="-3.649067">
        <ele>2368.0</ele>
        <time>2016-07-25T16:20:06Z</time>
      </trkpt>
      <trkpt lat="41.119950" lon="-3.648950">
        <ele>2373.0</ele>
        <time>2016-07-25T16:20:07Z</time>
      </trkpt>
      <trkpt lat="41.119917" lon="-3.648817">
        <ele>2378.0</ele>
        <time>2016-07-25T16:20:08Z</time>
      </trkpt>
      <trkpt lat="41.119867" lon="-3.648683">
        <ele>2382.0</ele>
        <time>2016-07-25T16:20:09Z</time>
      </trkpt>
      <trkpt lat="41.119783" lon="-3.648567">
        <ele>2387.0</ele>
        <time>2016-07-25T16:20:10Z</time>
      </trkpt>
      <trkpt lat="41.119667" lon="-3.648500">
        <ele>2391.0</ele>
        <time>2016-07-25T16:20:11Z</time>
      </trkpt>
      <trkpt lat="41.119550" lon="-3.648483">
        <ele>2396.0</ele>
        <time>2016-07-25T16:20:12Z</time>
      </trkpt>
      <trkpt lat="41.119450" lon="-3.648533">
        <ele>2402.0</ele>
        <time>2016-07-25T16:20:13Z</time>
      </trkpt>
      <trkpt lat="41.119367" lon="-3.648583">
        <ele>2408.0</ele>
        <time>2016-07-25T16:20:14Z</time>
      </trkpt>
      <trkpt lat="41.119300" lon="-3.648633">
        <ele>2415.0</ele>
        <time>2016-07-25T16:20:15Z</time>
      </trkpt>
      <trkpt lat="41.119233" lon="-3.648683">
        <ele>2421.0</ele>
        <time>2016-07-25T16:20:16Z</time>
      </trkpt>
      <trkpt lat="41.119183" lon="-3.648733">
        <ele>2425.0</ele>
        <time>2016-07-25T16:20:17Z</time>
      </trkpt>
      <trkpt lat="41.119150" lon="-3.648800">
        <ele>2427.0</ele>
        <time>2016-07-25T16:20:18Z</time>
      </trkpt>
      <trkpt lat="41.119117" lon="-3.648867">
        <ele>2430.0</ele>
        <time>2016-07-25T16:20:19Z</time>
      </trkpt>
      <trkpt lat="41.119117" lon="-3.648950">
        <ele>2433.0</ele>
        <time>2016-07-25T16:20:20Z</time>
      </trkpt>
      <trkpt lat="41.119150" lon="-3.649000">
        <ele>2437.0</ele>
        <time>2016-07-25T16:20:21Z</time>
      </trkpt>
      <trkpt lat="41.119183" lon="-3.649017">
        <ele>2443.0</ele>
        <time>2016-07-25T16:20:22Z</time>
      </trkpt>
      <trkpt lat="41.119217" lon="-3.649033">
        <ele>2450.0</ele>
        <time>2016-07-25T16:20:23Z</time>
      </trkpt>
      <trkpt lat="41.119217" lon="-3.649033">
        <ele>2456.0</ele>
        <time>2016-07-25T16:20:24Z</time>
      </trkpt>
      <trkpt lat="41.119233" lon="-3.649050">
        <ele>2460.0</ele>
        <time>2016-07-25T16:20:25Z</time>
      </trkpt>
      <trkpt lat="41.119250" lon="-3.649050">
        <ele>2463.0</ele>
        <time>2016-07-25T16:20:26Z</time>
      </trkpt>
      <trkpt lat="41.119300" lon="-3.649017">
        <ele>2466.0</ele>
        <time>2016-07-25T16:20:27Z</time>
      </trkpt>
      <trkpt lat="41.119333" lon="-3.648933">
        <ele>2470.0</ele>
        <time>2016-07-25T16:20:28Z</time>
      </trkpt>
      <trkpt lat="41.119350" lon="-3.648817">
        <ele>2474.0</ele>
        <time>2016-07-25T16:20:29Z</time>
      </trkpt>
      <trkpt lat="41.119350" lon="-3.648717">
        <ele>2479.0</ele>
        <time>2016-07-25T16:20:30Z</time>
      </trkpt>
      <trkpt lat="41.119350" lon="-3.648617">
        <ele>2484.0</ele>
        <time>2016-07-25T16:20:31Z</time>
      </trkpt>
      <trkpt lat="41.119317" lon="-3.648517">
        <ele>2488.0</ele>
        <time>2016-07-25T16:20:32Z</time>
      </trkpt>
      <trkpt lat="41.119283" lon="-3.648400">
        <ele>2492.0</ele>
        <time>2016-07-25T16:20:33Z</time>
      </trkpt>
      <trkpt lat="41.119217" lon="-3.648267">
        <ele>2495.0</ele>
        <time>2016-07-25T16:20:34Z</time>
      </trkpt>
      <trkpt lat="41.119133" lon="-3.648133">
        <ele>2499.0</ele>
        <time>2016-07-25T16:20:35Z</time>
      </trkpt>
      <trkpt lat="41.119017" lon="-3.648050">
        <ele>2504.0</ele>
        <time>2016-07-25T16:20:36Z</time>
      </trkpt>
      <trkpt lat="41.118900" lon="-3.647983">
        <ele>2509.0</ele>
        <time>2016-07-25T16:20:37Z</time>
      </trkpt>
      <trkpt lat="41.118783" lon="-3.647983">
        <ele>2515.0</ele>
        <time>2016-07-25T16:20:38Z</time>
      </trkpt>
      <trkpt lat="41.118683" lon="-3.648000">
        <ele>2521.0</ele>
        <time>2016-07-25T16:20:39Z</time>
      </trkpt>
      <trkpt lat="41.118600" lon="-3.648033">
        <ele>2525.0</ele>
        <time>2016-07-25T16:20:40Z</time>
      </trkpt>
      <trkpt lat="41.118533" lon="-3.648083">
        <ele>2530.0</ele>
        <time>2016-07-25T16:20:41Z</time>
      </trkpt>
      <trkpt lat="41.118467" lon="-3.648150">
        <ele>2535.0</ele>
        <time>2016-07-25T16:20:42Z</time>
      </trkpt>
      <trkpt lat="41.118417" lon="-3.648217">
        <ele>2540.0</ele>
        <time>2016-07-25T16:20:43Z</time>
      </trkpt>
      <trkpt lat="41.118383" lon="-3.648300">
        <ele>2544.0</ele>
        <time>2016-07-25T16:20:44Z</time>
      </trkpt>
      <trkpt lat="41.118367" lon="-3.648383">
        <ele>2550.0</ele>
        <time>2016-07-25T16:20:45Z</time>
      </trkpt>
      <trkpt lat="41.118350" lon="-3.648450">
        <ele>2556.0</ele>
        <time>2016-07-25T16:20:46Z</time>
      </trkpt>
      <trkpt lat="41.118350" lon="-3.648500">
        <ele>2561.0</ele>
        <time>2016-07-25T16:20:47Z</time>
      </trkpt>
      <trkpt lat="41.118350" lon="-3.648533">
        <ele>2566.0</ele>
        <time>2016-07-25T16:20:48Z</time>
      </trkpt>
      <trkpt lat="41.118350" lon="-3.648567">
        <ele>2569.0</ele>
        <time>2016-07-25T16:20:49Z</time>
      </trkpt>
      <trkpt lat="41.118367" lon="-3.648583">
        <ele>2573.0</ele>
        <time>2016-07-25T16:20:50Z</time>
      </trkpt>
      <trkpt lat="41.118400" lon="-3.648567">
        <ele>2575.0</ele>
        <time>2016-07-25T16:20:51Z</time>
      </trkpt>
      <trkpt lat="41.118433" lon="-3.648517">
        <ele>2578.0</ele>
        <time>2016-07-25T16:20:52Z</time>
      </trkpt>
      <trkpt lat="41.118467" lon="-3.648417">
        <ele>2582.0</ele>
        <time>2016-07-25T16:20:53Z</time>
      </trkpt>
      <trkpt lat="41.118467" lon="-3.648300">
        <ele>2585.0</ele>
        <time>2016-07-25T16:20:54Z</time>
      </trkpt>
      <trkpt lat="41.118433" lon="-3.648167">
        <ele>2589.0</ele>
        <time>2016-07-25T16:20:55Z</time>
      </trkpt>
      <trkpt lat="41.118383" lon="-3.648033">
        <ele>2592.0</ele>
        <time>2016-07-25T16:20:56Z</time>
      </trkpt>
      <trkpt lat="41.118300" lon="-3.647900">
        <ele>2595.0</ele>
        <time>2016-07-25T16:20:57Z</time>
      </trkpt>
      <trkpt lat="41.118183" lon="-3.647800">
        <ele>2599.0</ele>
        <time>2016-07-25T16:20:58Z</time>
      </trkpt>
      <trkpt lat="41.118050" lon="-3.647750">
        <ele>2604.0</ele>
        <time>2016-07-25T16:20:59Z</time>
      </trkpt>
      <trkpt lat="41.117933" lon="-3.647767">
        <ele>2608.0</ele>
        <time>2016-07-25T16:21:00Z</time>
      </trkpt>
      <trkpt lat="41.117833" lon="-3.647817">
        <ele>2612.0</ele>
        <time>2016-07-25T16:21:01Z</time>
      </trkpt>
      <trkpt lat="41.117750" lon="-3.647883">
        <ele>2617.0</ele>
        <time>2016-07-25T16:21:02Z</time>
      </trkpt>
      <trkpt lat="41.117700" lon="-3.647950">
        <ele>2622.0</ele>
        <time>2016-07-25T16:21:03Z</time>
      </trkpt>
      <trkpt lat="41.117650" lon="-3.648017">
        <ele>2627.0</ele>
        <time>2016-07-25T16:21:04Z</time>
      </trkpt>
      <trkpt lat="41.117617" lon="-3.648083">
        <ele>2630.0</ele>
        <time>2016-07-25T16:21:05Z</time>
      </trkpt>
      <trkpt lat="41.117617" lon="-3.648150">
        <ele>2632.0</ele>
        <time>2016-07-25T16:21:06Z</time>
      </trkpt>
      <trkpt lat="41.117617" lon="-3.648217">
        <ele>2634.0</ele>
        <time>2016-07-25T16:21:07Z</time>
      </trkpt>
      <trkpt lat="41.117650" lon="-3.648250">
        <ele>2636.0</ele>
        <time>2016-07-25T16:21:08Z</time>
      </trkpt>
      <trkpt lat="41.117700" lon="-3.648283">
        <ele>2640.0</ele>
        <time>2016-07-25T16:21:09Z</time>
      </trkpt>
      <trkpt lat="41.117750" lon="-3.648300">
        <ele>2645.0</ele>
        <time>2016-07-25T16:21:10Z</time>
      </trkpt>
      <trkpt lat="41.117783" lon="-3.648300">
        <ele>2651.0</ele>
        <time>2016-07-25T16:21:11Z</time>
      </trkpt>
      <trkpt lat="41.117800" lon="-3.648317">
        <ele>2656.0</ele>
        <time>2016-07-25T16:21:12Z</time>
      </trkpt>
      <trkpt lat="41.117817" lon="-3.648317">
        <ele>2659.0</ele>
        <time>2016-07-25T16:21:13Z</time>
      </trkpt>
      <trkpt lat="41.117833" lon="-3.648350">
        <ele>2660.0</ele>
        <time>2016-07-25T16:21:14Z</time>
      </trkpt>
      <trkpt lat="41.117883" lon="-3.648367">
        <ele>2660.0</ele>
        <time>2016-07-25T16:21:15Z</time>
      </trkpt>
      <trkpt lat="41.117933" lon="-3.648383">
        <ele>2663.0</ele>
        <time>2016-07-25T16:21:16Z</time>
      </trkpt>
      <trkpt lat="41.118000" lon="-3.648367">
        <ele>2667.0</ele>
        <time>2016-07-25T16:21:17Z</time>
      </trkpt>
      <trkpt lat="41.118050" lon="-3.648350">
        <ele>2672.0</ele>
        <time>2016-07-25T16:21:18Z</time>
      </trkpt>
      <trkpt lat="41.118083" lon="-3.648350">
        <ele>2677.0</ele>
        <time>2016-07-25T16:21:19Z</time>
      </trkpt>
      <trkpt lat="41.118133" lon="-3.648333">
        <ele>2680.0</ele>
        <time>2016-07-25T16:21:20Z</time>
      </trkpt>
      <trkpt lat="41.118183" lon="-3.648317">
        <ele>2683.0</ele>
        <time>2016-07-25T16:21:21Z</time>
      </trkpt>
      <trkpt lat="41.118233" lon="-3.648300">
        <ele>2686.0</ele>
        <time>2016-07-25T16:21:22Z</time>
      </trkpt>
      <trkpt lat="41.118300" lon="-3.648267">
        <ele>2690.0</ele>
        <time>2016-07-25T16:21:23Z</time>
      </trkpt>
      <trkpt lat="41.118367" lon="-3.648250">
        <ele>2693.0</ele>
        <time>2016-07-25T16:21:24Z</time>
      </trkpt>
      <trkpt lat="41.118417" lon="-3.648233">
        <ele>2697.0</ele>
        <time>2016-07-25T16:21:25Z</time>
      </trkpt>
      <trkpt lat="41.118483" lon="-3.648217">
        <ele>2701.0</ele>
        <time>2016-07-25T16:21:26Z</time>
      </trkpt>
      <trkpt lat="41.118533" lon="-3.648183">
        <ele>2705.0</ele>
        <time>2016-07-25T16:21:27Z</time>
      </trkpt>
      <trkpt lat="41.118600" lon="-3.648150">
        <ele>2710.0</ele>
        <time>2016-07-25T16:21:28Z</time>
      </trkpt>
      <trkpt lat="41.118633" lon="-3.648100">
        <ele>2714.0</ele>
        <time>2016-07-25T16:21:29Z</time>
      </trkpt>
      <trkpt lat="41.118683" lon="-3.648067">
        <ele>2717.0</ele>
        <time>2016-07-25T16:21:30Z</time>
      </trkpt>
      <trkpt lat="41.118733" lon="-3.648033">
        <ele>2720.0</ele>
        <time>2016-07-25T16:21:31Z</time>
      </trkpt>
      <trkpt lat="41.118783" lon="-3.648000">
        <ele>2723.0</ele>
        <time>2016-07-25T16:21:32Z</time>
      </trkpt>
      <trkpt lat="41.118850" lon="-3.647967">
        <ele>2726.0</ele>
        <time>2016-07-25T16:21:33Z</time>
      </trkpt>
      <trkpt lat="41.118900" lon="-3.647933">
        <ele>2731.0</ele>
        <time>2016-07-25T16:21:34Z</time>
      </trkpt>
      <trkpt lat="41.118950" lon="-3.647900">
        <ele>2736.0</ele>
        <time>2016-07-25T16:21:35Z</time>
      </trkpt>
      <trkpt lat="41.118983" lon="-3.647883">
        <ele>2740.0</ele>
        <time>2016-07-25T16:21:36Z</time>
      </trkpt>
      <trkpt lat="41.119000" lon="-3.647850">
        <ele>2744.0</ele>
        <time>2016-07-25T16:21:37Z</time>
      </trkpt>
      <trkpt lat="41.119050" lon="-3.647817">
        <ele>2747.0</ele>
        <time>2016-07-25T16:21:38Z</time>
      </trkpt>
      <trkpt lat="41.119100" lon="-3.647783">
        <ele>2750.0</ele>
        <time>2016-07-25T16:21:39Z</time>
      </trkpt>
      <trkpt lat="41.119150" lon="-3.647733">
        <ele>2753.0</ele>
        <time>2016-07-25T16:21:40Z</time>
      </trkpt>
      <trkpt lat="41.119200" lon="-3.647683">
        <ele>2757.0</ele>
        <time>2016-07-25T16:21:41Z</time>
      </trkpt>
      <trkpt lat="41.119250" lon="-3.647650">
        <ele>2761.0</ele>
        <time>2016-07-25T16:21:42Z</time>
      </trkpt>
      <trkpt lat="41.119300" lon="-3.647617">
        <ele>2766.0</ele>
        <time>2016-07-25T16:21:43Z</time>
      </trkpt>
      <trkpt lat="41.119350" lon="-3.647600">
        <ele>2770.0</ele>
        <time>2016-07-25T16:21:44Z</time>
      </trkpt>
      <trkpt lat="41.119400" lon="-3.647567">
        <ele>2775.0</ele>
        <time>2016-07-25T16:21:45Z</time>
      </trkpt>
      <trkpt lat="41.119450" lon="-3.647533">
        <ele>2779.0</ele>
        <time>2016-07-25T16:21:46Z</time>
      </trkpt>
      <trkpt lat="41.119483" lon="-3.647500">
        <ele>2783.0</ele>
        <time>2016-07-25T16:21:47Z</time>
      </trkpt>
      <trkpt lat="41.119533" lon="-3.647483">
        <ele>2787.0</ele>
        <time>2016-07-25T16:21:48Z</time>
      </trkpt>
      <trkpt lat="41.119583" lon="-3.647450">
        <ele>2790.0</ele>
        <time>2016-07-25T16:21:49Z</time>
      </trkpt>
      <trkpt lat="41.119633" lon="-3.647417">
        <ele>2793.0</ele>
        <time>2016-07-25T16:21:50Z</time>
      </trkpt>
      <trkpt lat="41.119683" lon="-3.647383">
        <ele>2795.0</ele>
        <time>2016-07-25T16:21:51Z</time>
      </trkpt>
      <trkpt lat="41.119717" lon="-3.647350">
        <ele>2796.0</ele>
        <time>2016-07-25T16:21:52Z</time>
      </trkpt>
      <trkpt lat="41.119767" lon="-3.647317">
        <ele>2797.0</ele>
        <time>2016-07-25T16:21:53Z</time>
      </trkpt>
      <trkpt lat="41.119800" lon="-3.647300">
        <ele>2799.0</ele>
        <time>2016-07-25T16:21:54Z</time>
      </trkpt>
      <trkpt lat="41.119850" lon="-3.647300">
        <ele>2801.0</ele>
        <time>2016-07-25T16:21:55Z</time>
      </trkpt>
      <trkpt lat="41.119883" lon="-3.647283">
        <ele>2802.0</ele>
        <time>2016-07-25T16:21:56Z</time>
      </trkpt>
      <trkpt lat="41.119917" lon="-3.647283">
        <ele>2803.0</ele>
        <time>2016-07-25T16:21:57Z</time>
      </trkpt>
      <trkpt lat="41.119967" lon="-3.647267">
        <ele>2805.0</ele>
        <time>2016-07-25T16:21:58Z</time>
      </trkpt>
      <trkpt lat="41.120017" lon="-3.647250">
        <ele>2808.0</ele>
        <time>2016-07-25T16:21:59Z</time>
      </trkpt>
      <trkpt lat="41.120050" lon="-3.647233">
        <ele>2811.0</ele>
        <time>2016-07-25T16:22:00Z</time>
      </trkpt>
      <trkpt lat="41.120067" lon="-3.647217">
        <ele>2815.0</ele>
        <time>2016-07-25T16:22:01Z</time>
      </trkpt>
      <trkpt lat="41.120083" lon="-3.647183">
        <ele>2817.0</ele>
        <time>2016-07-25T16:22:02Z</time>
      </trkpt>
      <trkpt lat="41.120100" lon="-3.647150">
        <ele>2818.0</ele>
        <time>2016-07-25T16:22:03Z</time>
      </trkpt>
      <trkpt lat="41.120133" lon="-3.647100">
        <ele>2818.0</ele>
        <time>2016-07-25T16:22:04Z</time>
      </trkpt>
      <trkpt lat="41.120167" lon="-3.647083">
        <ele>2818.0</ele>
        <time>2016-07-25T16:22:05Z</time>
      </trkpt>
      <trkpt lat="41.120200" lon="-3.647067">
        <ele>2819.0</ele>
        <time>2016-07-25T16:22:06Z</time>
      </trkpt>
      <trkpt lat="41.120233" lon="-3.647050">
        <ele>2820.0</ele>
        <time>2016-07-25T16:22:07Z</time>
      </trkpt>
      <trkpt lat="41.120267" lon="-3.647050">
        <ele>2822.0</ele>
        <time>2016-07-25T16:22:08Z</time>
      </trkpt>
      <trkpt lat="41.120283" lon="-3.647050">
        <ele>2822.0</ele>
        <time>2016-07-25T16:22:09Z</time>
      </trkpt>
      <trkpt lat="41.120317" lon="-3.647033">
        <ele>2822.0</ele>
        <time>2016-07-25T16:22:10Z</time>
      </trkpt>
      <trkpt lat="41.120350" lon="-3.647033">
        <ele>2821.0</ele>
        <time>2016-07-25T16:22:11Z</time>
      </trkpt>
      <trkpt lat="41.120400" lon="-3.647000">
        <ele>2820.0</ele>
        <time>2016-07-25T16:22:12Z</time>
      </trkpt>
      <trkpt lat="41.120467" lon="-3.646967">
        <ele>2820.0</ele>
        <time>2016-07-25T16:22:13Z</time>
      </trkpt>
      <trkpt lat="41.120517" lon="-3.646933">
        <ele>2820.0</ele>
        <time>2016-07-25T16:22:14Z</time>
      </trkpt>
      <trkpt lat="41.120550" lon="-3.646883">
        <ele>2821.0</ele>
        <time>2016-07-25T16:22:15Z</time>
      </trkpt>
      <trkpt lat="41.120583" lon="-3.646833">
        <ele>2821.0</ele>
        <time>2016-07-25T16:22:16Z</time>
      </trkpt>
      <trkpt lat="41.120617" lon="-3.646783">
        <ele>2820.0</ele>
        <time>2016-07-25T16:22:17Z</time>
      </trkpt>
      <trkpt lat="41.120667" lon="-3.646750">
        <ele>2817.0</ele>
        <time>2016-07-25T16:22:18Z</time>
      </trkpt>
      <trkpt lat="41.120717" lon="-3.646717">
        <ele>2814.0</ele>
        <time>2016-07-25T16:22:19Z</time>
      </trkpt>
      <trkpt lat="41.120767" lon="-3.646700">
        <ele>2812.0</ele>
        <time>2016-07-25T16:22:20Z</time>
      </trkpt>
      <trkpt lat="41.120833" lon="-3.646667">
        <ele>2811.0</ele>
        <time>2016-07-25T16:22:21Z</time>
      </trkpt>
      <trkpt lat="41.120867" lon="-3.646617">
        <ele>2811.0</ele>
        <time>2016-07-25T16:22:22Z</time>
      </trkpt>
      <trkpt lat="41.120900" lon="-3.646583">
        <ele>2809.0</ele>
        <time>2016-07-25T16:22:23Z</time>
      </trkpt>
      <trkpt lat="41.120933" lon="-3.646533">
        <ele>2806.0</ele>
        <time>2016-07-25T16:22:24Z</time>
      </trkpt>
      <trkpt lat="41.120983" lon="-3.646500">
        <ele>2803.0</ele>
        <time>2016-07-25T16:22:25Z</time>
      </trkpt>
      <trkpt lat="41.121050" lon="-3.646467">
        <ele>2799.0</ele>
        <time>2016-07-25T16:22:26Z</time>
      </trkpt>
      <trkpt lat="41.121133" lon="-3.646450">
        <ele>2796.0</ele>
        <time>2016-07-25T16:22:27Z</time>
      </trkpt>
      <trkpt lat="41.121183" lon="-3.646433">
        <ele>2795.0</ele>
        <time>2016-07-25T16:22:28Z</time>
      </trkpt>
      <trkpt lat="41.121233" lon="-3.646417">
        <ele>2794.0</ele>
        <time>2016-07-25T16:22:29Z</time>
      </trkpt>
      <trkpt lat="41.121283" lon="-3.646383">
        <ele>2792.0</ele>
        <time>2016-07-25T16:22:30Z</time>
      </trkpt>
      <trkpt lat="41.121350" lon="-3.646367">
        <ele>2789.0</ele>
        <time>2016-07-25T16:22:31Z</time>
      </trkpt>
      <trkpt lat="41.121400" lon="-3.646350">
        <ele>2786.0</ele>
        <time>2016-07-25T16:22:32Z</time>
      </trkpt>
      <trkpt lat="41.121483" lon="-3.646317">
        <ele>2783.0</ele>
        <time>2016-07-25T16:22:33Z</time>
      </trkpt>
      <trkpt lat="41.121550" lon="-3.646283">
        <ele>2781.0</ele>
        <time>2016-07-25T16:22:34Z</time>
      </trkpt>
      <trkpt lat="41.121617" lon="-3.646233">
        <ele>2779.0</ele>
        <time>2016-07-25T16:22:35Z</time>
      </trkpt>
      <trkpt lat="41.121683" lon="-3.646183">
        <ele>2778.0</ele>
        <time>2016-07-25T16:22:36Z</time>
      </trkpt>
      <trkpt lat="41.121750" lon="-3.646150">
        <ele>2776.0</ele>
        <time>2016-07-25T16:22:37Z</time>
      </trkpt>
      <trkpt lat="41.121817" lon="-3.646133">
        <ele>2774.0</ele>
        <time>2016-07-25T16:22:38Z</time>
      </trkpt>
      <trkpt lat="41.121900" lon="-3.646100">
        <ele>2772.0</ele>
        <time>2016-07-25T16:22:39Z</time>
      </trkpt>
      <trkpt lat="41.121967" lon="-3.646033">
        <ele>2771.0</ele>
        <time>2016-07-25T16:22:40Z</time>
      </trkpt>
      <trkpt lat="41.122050" lon="-3.645983">
        <ele>2770.0</ele>
        <time>2016-07-25T16:22:41Z</time>
      </trkpt>
      <trkpt lat="41.122117" lon="-3.645933">
        <ele>2768.0</ele>
        <time>2016-07-25T16:22:42Z</time>
      </trkpt>
      <trkpt lat="41.122183" lon="-3.645900">
        <ele>2766.0</ele>
        <time>2016-07-25T16:22:43Z</time>
      </trkpt>
      <trkpt lat="41.122250" lon="-3.645867">
        <ele>2764.0</ele>
        <time>2016-07-25T16:22:44Z</time>
      </trkpt>
      <trkpt lat="41.122333" lon="-3.645833">
        <ele>2762.0</ele>
        <time>2016-07-25T16:22:45Z</time>
      </trkpt>
      <trkpt lat="41.122417" lon="-3.645783">
        <ele>2760.0</ele>
        <time>2016-07-25T16:22:46Z</time>
      </trkpt>
      <trkpt lat="41.122500" lon="-3.645733">
        <ele>2758.0</ele>
        <time>2016-07-25T16:22:47Z</time>
      </trkpt>
      <trkpt lat="41.122567" lon="-3.645683">
        <ele>2757.0</ele>
        <time>2016-07-25T16:22:48Z</time>
      </trkpt>
      <trkpt lat="41.122650" lon="-3.645650">
        <ele>2755.0</ele>
        <time>2016-07-25T16:22:49Z</time>
      </trkpt>
      <trkpt lat="41.122717" lon="-3.645617">
        <ele>2752.0</ele>
        <time>2016-07-25T16:22:50Z</time>
      </trkpt>
      <trkpt lat="41.122800" lon="-3.645583">
        <ele>2749.0</ele>
        <time>2016-07-25T16:22:51Z</time>
      </trkpt>
      <trkpt lat="41.122867" lon="-3.645567">
        <ele>2745.0</ele>
        <time>2016-07-25T16:22:52Z</time>
      </trkpt>
      <trkpt lat="41.122967" lon="-3.645550">
        <ele>2742.0</ele>
        <time>2016-07-25T16:22:53Z</time>
      </trkpt>
      <trkpt lat="41.123050" lon="-3.645500">
        <ele>2740.0</ele>
        <time>2016-07-25T16:22:54Z</time>
      </trkpt>
      <trkpt lat="41.123133" lon="-3.645433">
        <ele>2739.0</ele>
        <time>2016-07-25T16:22:55Z</time>
      </trkpt>
      <trkpt lat="41.123200" lon="-3.645367">
        <ele>2738.0</ele>
        <time>2016-07-25T16:22:56Z</time>
      </trkpt>
      <trkpt lat="41.123267" lon="-3.645333">
        <ele>2736.0</ele>
        <time>2016-07-25T16:22:57Z</time>
      </trkpt>
      <trkpt lat="41.123333" lon="-3.645300">
        <ele>2734.0</ele>
        <time>2016-07-25T16:22:58Z</time>
      </trkpt>
      <trkpt lat="41.123417" lon="-3.645267">
        <ele>2731.0</ele>
        <time>2016-07-25T16:22:59Z</time>
      </trkpt>
      <trkpt lat="41.123500" lon="-3.645217">
        <ele>2728.0</ele>
        <time>2016-07-25T16:23:00Z</time>
      </trkpt>
      <trkpt lat="41.123583" lon="-3.645150">
        <ele>2725.0</ele>
        <time>2016-07-25T16:23:01Z</time>
      </trkpt>
      <trkpt lat="41.123667" lon="-3.645083">
        <ele>2724.0</ele>
        <time>2016-07-25T16:23:02Z</time>
      </trkpt>
      <trkpt lat="41.123733" lon="-3.645033">
        <ele>2723.0</ele>
        <time>2016-07-25T16:23:03Z</time>
      </trkpt>
      <trkpt lat="41.123800" lon="-3.644983">
        <ele>2722.0</ele>
        <time>2016-07-25T16:23:04Z</time>
      </trkpt>
      <trkpt lat="41.123850" lon="-3.644950">
        <ele>2719.0</ele>
        <time>2016-07-25T16:23:05Z</time>
      </trkpt>
      <trkpt lat="41.123917" lon="-3.644900">
        <ele>2716.0</ele>
        <time>2016-07-25T16:23:06Z</time>
      </trkpt>
      <trkpt lat="41.123983" lon="-3.644867">
        <ele>2712.0</ele>
        <time>2016-07-25T16:23:07Z</time>
      </trkpt>
      <trkpt lat="41.124050" lon="-3.644817">
        <ele>2708.0</ele>
        <time>2016-07-25T16:23:08Z</time>
      </trkpt>
      <trkpt lat="41.124117" lon="-3.644800">
        <ele>2706.0</ele>
        <time>2016-07-25T16:23:09Z</time>
      </trkpt>
      <trkpt lat="41.124167" lon="-3.644800">
        <ele>2705.0</ele>
        <time>2016-07-25T16:23:10Z</time>
      </trkpt>
      <trkpt lat="41.124217" lon="-3.644800">
        <ele>2703.0</ele>
        <time>2016-07-25T16:23:11Z</time>
      </trkpt>
      <trkpt lat="41.124267" lon="-3.644800">
        <ele>2700.0</ele>
        <time>2016-07-25T16:23:12Z</time>
      </trkpt>
      <trkpt lat="41.124317" lon="-3.644800">
        <ele>2697.0</ele>
        <time>2016-07-25T16:23:13Z</time>
      </trkpt>
      <trkpt lat="41.124400" lon="-3.644783">
        <ele>2693.0</ele>
        <time>2016-07-25T16:23:14Z</time>
      </trkpt>
      <trkpt lat="41.124483" lon="-3.644767">
        <ele>2690.0</ele>
        <time>2016-07-25T16:23:15Z</time>
      </trkpt>
      <trkpt lat="41.124567" lon="-3.644750">
        <ele>2688.0</ele>
        <time>2016-07-25T16:23:16Z</time>
      </trkpt>
      <trkpt lat="41.124633" lon="-3.644750">
        <ele>2688.0</ele>
        <time>2016-07-25T16:23:17Z</time>
      </trkpt>
      <trkpt lat="41.124700" lon="-3.644717">
        <ele>2687.0</ele>
        <time>2016-07-25T16:23:18Z</time>
      </trkpt>
      <trkpt lat="41.124750" lon="-3.644700">
        <ele>2684.0</ele>
        <time>2016-07-25T16:23:19Z</time>
      </trkpt>
      <trkpt lat="41.124817" lon="-3.644667">
        <ele>2680.0</ele>
        <time>2016-07-25T16:23:20Z</time>
      </trkpt>
      <trkpt lat="41.124883" lon="-3.644633">
        <ele>2676.0</ele>
        <time>2016-07-25T16:23:21Z</time>
      </trkpt>
      <trkpt lat="41.124967" lon="-3.644617">
        <ele>2672.0</ele>
        <time>2016-07-25T16:23:22Z</time>
      </trkpt>
      <trkpt lat="41.125050" lon="-3.644600">
        <ele>2669.0</ele>
        <time>2016-07-25T16:23:23Z</time>
      </trkpt>
      <trkpt lat="41.125117" lon="-3.644583">
        <ele>2667.0</ele>
        <time>2016-07-25T16:23:24Z</time>
      </trkpt>
      <trkpt lat="41.125200" lon="-3.644567">
        <ele>2664.0</ele>
        <time>2016-07-25T16:23:25Z</time>
      </trkpt>
      <trkpt lat="41.125267" lon="-3.644533">
        <ele>2662.0</ele>
        <time>2016-07-25T16:23:26Z</time>
      </trkpt>
      <trkpt lat="41.125333" lon="-3.644533">
        <ele>2660.0</ele>
        <time>2016-07-25T16:23:27Z</time>
      </trkpt>
      <trkpt lat="41.125400" lon="-3.644517">
        <ele>2658.0</ele>
        <time>2016-07-25T16:23:28Z</time>
      </trkpt>
      <trkpt lat="41.125467" lon="-3.644517">
        <ele>2656.0</ele>
        <time>2016-07-25T16:23:29Z</time>
      </trkpt>
      <trkpt lat="41.125533" lon="-3.644517">
        <ele>2654.0</ele>
        <time>2016-07-25T16:23:30Z</time>
      </trkpt>
      <trkpt lat="41.125617" lon="-3.644500">
        <ele>2652.0</ele>
        <time>2016-07-25T16:23:31Z</time>
      </trkpt>
      <trkpt lat="41.125700" lon="-3.644500">
        <ele>2651.0</ele>
        <time>2016-07-25T16:23:32Z</time>
      </trkpt>
      <trkpt lat="41.125767" lon="-3.644500">
        <ele>2650.0</ele>
        <time>2016-07-25T16:23:33Z</time>
      </trkpt>
      <trkpt lat="41.125833" lon="-3.644517">
        <ele>2649.0</ele>
        <time>2016-07-25T16:23:34Z</time>
      </trkpt>
      <trkpt lat="41.125883" lon="-3.644517">
        <ele>2648.0</ele>
        <time>2016-07-25T16:23:35Z</time>
      </trkpt>
      <trkpt lat="41.125950" lon="-3.644517">
        <ele>2647.0</ele>
        <time>2016-07-25T16:23:36Z</time>
      </trkpt>
      <trkpt lat="41.126000" lon="-3.644500">
        <ele>2644.0</ele>
        <time>2016-07-25T16:23:37Z</time>
      </trkpt>
      <trkpt lat="41.126067" lon="-3.644483">
        <ele>2641.0</ele>
        <time>2016-07-25T16:23:38Z</time>
      </trkpt>
      <trkpt lat="41.126150" lon="-3.644467">
        <ele>2638.0</ele>
        <time>2016-07-25T16:23:39Z</time>
      </trkpt>
      <trkpt lat="41.126233" lon="-3.644450">
        <ele>2634.0</ele>
        <time>2016-07-25T16:23:40Z</time>
      </trkpt>
      <trkpt lat="41.126300" lon="-3.644450">
        <ele>2632.0</ele>
        <time>2016-07-25T16:23:41Z</time>
      </trkpt>
      <trkpt lat="41.126383" lon="-3.644433">
        <ele>2630.0</ele>
        <time>2016-07-25T16:23:42Z</time>
      </trkpt>
      <trkpt lat="41.126450" lon="-3.644417">
        <ele>2629.0</ele>
        <time>2016-07-25T16:23:43Z</time>
      </trkpt>
      <trkpt lat="41.126533" lon="-3.644400">
        <ele>2627.0</ele>
        <time>2016-07-25T16:23:44Z</time>
      </trkpt>
      <trkpt lat="41.126600" lon="-3.644383">
        <ele>2626.0</ele>
        <time>2016-07-25T16:23:45Z</time>
      </trkpt>
      <trkpt lat="41.126683" lon="-3.644367">
        <ele>2624.0</ele>
        <time>2016-07-25T16:23:46Z</time>
      </trkpt>
      <trkpt lat="41.126750" lon="-3.644350">
        <ele>2623.0</ele>
        <time>2016-07-25T16:23:47Z</time>
      </trkpt>
      <trkpt lat="41.126833" lon="-3.644333">
        <ele>2621.0</ele>
        <time>2016-07-25T16:23:48Z</time>
      </trkpt>
      <trkpt lat="41.126917" lon="-3.644300">
        <ele>2619.0</ele>
        <time>2016-07-25T16:23:49Z</time>
      </trkpt>
      <trkpt lat="41.127000" lon="-3.644283">
        <ele>2617.0</ele>
        <time>2016-07-25T16:23:50Z</time>
      </trkpt>
      <trkpt lat="41.127083" lon="-3.644250">
        <ele>2616.0</ele>
        <time>2016-07-25T16:23:51Z</time>
      </trkpt>
      <trkpt lat="41.127167" lon="-3.644217">
        <ele>2615.0</ele>
        <time>2016-07-25T16:23:52Z</time>
      </trkpt>
      <trkpt lat="41.127250" lon="-3.644200">
        <ele>2614.0</ele>
        <time>2016-07-25T16:23:53Z</time>
      </trkpt>
      <trkpt lat="41.127350" lon="-3.644183">
        <ele>2612.0</ele>
        <time>2016-07-25T16:23:54Z</time>
      </trkpt>
      <trkpt lat="41.127433" lon="-3.644150">
        <ele>2612.0</ele>
        <time>2016-07-25T16:23:55Z</time>
      </trkpt>
      <trkpt lat="41.127517" lon="-3.644133">
        <ele>2613.0</ele>
        <time>2016-07-25T16:23:56Z</time>
      </trkpt>
      <trkpt lat="41.127600" lon="-3.644100">
        <ele>2614.0</ele>
        <time>2016-07-25T16:23:57Z</time>
      </trkpt>
      <trkpt lat="41.127667" lon="-3.644067">
        <ele>2614.0</ele>
        <time>2016-07-25T16:23:58Z</time>
      </trkpt>
      <trkpt lat="41.127717" lon="-3.644050">
        <ele>2613.0</ele>
        <time>2016-07-25T16:23:59Z</time>
      </trkpt>
      <trkpt lat="41.127800" lon="-3.644033">
        <ele>2611.0</ele>
        <time>2016-07-25T16:24:00Z</time>
      </trkpt>
      <trkpt lat="41.127867" lon="-3.644000">
        <ele>2609.0</ele>
        <time>2016-07-25T16:24:01Z</time>
      </trkpt>
      <trkpt lat="41.127967" lon="-3.643983">
        <ele>2608.0</ele>
        <time>2016-07-25T16:24:02Z</time>
      </trkpt>
      <trkpt lat="41.128033" lon="-3.643983">
        <ele>2608.0</ele>
        <time>2016-07-25T16:24:03Z</time>
      </trkpt>
      <trkpt lat="41.128117" lon="-3.643983">
        <ele>2609.0</ele>
        <time>2016-07-25T16:24:04Z</time>
      </trkpt>
      <trkpt lat="41.128183" lon="-3.643983">
        <ele>2609.0</ele>
        <time>2016-07-25T16:24:05Z</time>
      </trkpt>
      <trkpt lat="41.128250" lon="-3.643983">
        <ele>2609.0</ele>
        <time>2016-07-25T16:24:06Z</time>
      </trkpt>
      <trkpt lat="41.128317" lon="-3.643983">
        <ele>2608.0</ele>
        <time>2016-07-25T16:24:07Z</time>
      </trkpt>
      <trkpt lat="41.128383" lon="-3.643967">
        <ele>2607.0</ele>
        <time>2016-07-25T16:24:08Z</time>
      </trkpt>
      <trkpt lat="41.128467" lon="-3.643967">
        <ele>2607.0</ele>
        <time>2016-07-25T16:24:09Z</time>
      </trkpt>
      <trkpt lat="41.128533" lon="-3.643967">
        <ele>2607.0</ele>
        <time>2016-07-25T16:24:10Z</time>
      </trkpt>
      <trkpt lat="41.128600" lon="-3.643950">
        <ele>2606.0</ele>
        <time>2016-07-25T16:24:11Z</time>
      </trkpt>
      <trkpt lat="41.128667" lon="-3.643933">
        <ele>2605.0</ele>
        <time>2016-07-25T16:24:12Z</time>
      </trkpt>
      <trkpt lat="41.128733" lon="-3.643917">
        <ele>2603.0</ele>
        <time>2016-07-25T16:24:13Z</time>
      </trkpt>
      <trkpt lat="41.128817" lon="-3.643900">
        <ele>2601.0</ele>
        <time>2016-07-25T16:24:14Z</time>
      </trkpt>
      <trkpt lat="41.128883" lon="-3.643883">
        <ele>2600.0</ele>
        <time>2016-07-25T16:24:15Z</time>
      </trkpt>
      <trkpt lat="41.128967" lon="-3.643867">
        <ele>2598.0</ele>
        <time>2016-07-25T16:24:16Z</time>
      </trkpt>
      <trkpt lat="41.129033" lon="-3.643833">
        <ele>2597.0</ele>
        <time>2016-07-25T16:24:17Z</time>
      </trkpt>
      <trkpt lat="41.129117" lon="-3.643817">
        <ele>2596.0</ele>
        <time>2016-07-25T16:24:18Z</time>
      </trkpt>
      <trkpt lat="41.129200" lon="-3.643800">
        <ele>2595.0</ele>
        <time>2016-07-25T16:24:19Z</time>
      </trkpt>
      <trkpt lat="41.129267" lon="-3.643783">
        <ele>2593.0</ele>
        <time>2016-07-25T16:24:20Z</time>
      </trkpt>
      <trkpt lat="41.129350" lon="-3.643783">
        <ele>2592.0</ele>
        <time>2016-07-25T16:24:21Z</time>
      </trkpt>
      <trkpt lat="41.129417" lon="-3.643767">
        <ele>2590.0</ele>
        <time>2016-07-25T16:24:22Z</time>
      </trkpt>
      <trkpt lat="41.129500" lon="-3.643733">
        <ele>2588.0</ele>
        <time>2016-07-25T16:24:23Z</time>
      </trkpt>
      <trkpt lat="41.129567" lon="-3.643717">
        <ele>2585.0</ele>
        <time>2016-07-25T16:24:24Z</time>
      </trkpt>
      <trkpt lat="41.129650" lon="-3.643683">
        <ele>2584.0</ele>
        <time>2016-07-25T16:24:25Z</time>
      </trkpt>
      <trkpt lat="41.129733" lon="-3.643667">
        <ele>2583.0</ele>
        <time>2016-07-25T16:24:26Z</time>
      </trkpt>
      <trkpt lat="41.129800" lon="-3.643633">
        <ele>2582.0</ele>
        <time>2016-07-25T16:24:27Z</time>
      </trkpt>
      <trkpt lat="41.129867" lon="-3.643600">
        <ele>2581.0</ele>
        <time>2016-07-25T16:24:28Z</time>
      </trkpt>
      <trkpt lat="41.129933" lon="-3.643583">
        <ele>2580.0</ele>
        <time>2016-07-25T16:24:29Z</time>
      </trkpt>
      <trkpt lat="41.130000" lon="-3.643550">
        <ele>2578.0</ele>
        <time>2016-07-25T16:24:30Z</time>
      </trkpt>
      <trkpt lat="41.130083" lon="-3.643533">
        <ele>2576.0</ele>
        <time>2016-07-25T16:24:31Z</time>
      </trkpt>
      <trkpt lat="41.130150" lon="-3.643500">
        <ele>2574.0</ele>
        <time>2016-07-25T16:24:32Z</time>
      </trkpt>
      <trkpt lat="41.130217" lon="-3.643467">
        <ele>2573.0</ele>
        <time>2016-07-25T16:24:33Z</time>
      </trkpt>
      <trkpt lat="41.130300" lon="-3.643450">
        <ele>2571.0</ele>
        <time>2016-07-25T16:24:34Z</time>
      </trkpt>
      <trkpt lat="41.130367" lon="-3.643417">
        <ele>2569.0</ele>
        <time>2016-07-25T16:24:35Z</time>
      </trkpt>
      <trkpt lat="41.130417" lon="-3.643400">
        <ele>2568.0</ele>
        <time>2016-07-25T16:24:36Z</time>
      </trkpt>
      <trkpt lat="41.130483" lon="-3.643383">
        <ele>2566.0</ele>
        <time>2016-07-25T16:24:37Z</time>
      </trkpt>
      <trkpt lat="41.130533" lon="-3.643367">
        <ele>2564.0</ele>
        <time>2016-07-25T16:24:38Z</time>
      </trkpt>
      <trkpt lat="41.130600" lon="-3.643350">
        <ele>2561.0</ele>
        <time>2016-07-25T16:24:39Z</time>
      </trkpt>
      <trkpt lat="41.130633" lon="-3.643350">
        <ele>2558.0</ele>
        <time>2016-07-25T16:24:40Z</time>
      </trkpt>
      <trkpt lat="41.130683" lon="-3.643350">
        <ele>2555.0</ele>
        <time>2016-07-25T16:24:41Z</time>
      </trkpt>
      <trkpt lat="41.130733" lon="-3.643350">
        <ele>2551.0</ele>
        <time>2016-07-25T16:24:42Z</time>
      </trkpt>
      <trkpt lat="41.130767" lon="-3.643350">
        <ele>2548.0</ele>
        <time>2016-07-25T16:24:43Z</time>
      </trkpt>
      <trkpt lat="41.130817" lon="-3.643383">
        <ele>2544.0</ele>
        <time>2016-07-25T16:24:44Z</time>
      </trkpt>
      <trkpt lat="41.130867" lon="-3.643400">
        <ele>2540.0</ele>
        <time>2016-07-25T16:24:45Z</time>
      </trkpt>
      <trkpt lat="41.130900" lon="-3.643433">
        <ele>2537.0</ele>
        <time>2016-07-25T16:24:46Z</time>
      </trkpt>
      <trkpt lat="41.130950" lon="-3.643467">
        <ele>2534.0</ele>
        <time>2016-07-25T16:24:47Z</time>
      </trkpt>
      <trkpt lat="41.130983" lon="-3.643500">
        <ele>2532.0</ele>
        <time>2016-07-25T16:24:48Z</time>
      </trkpt>
      <trkpt lat="41.131033" lon="-3.643533">
        <ele>2528.0</ele>
        <time>2016-07-25T16:24:49Z</time>
      </trkpt>
      <trkpt lat="41.131083" lon="-3.643567">
        <ele>2523.0</ele>
        <time>2016-07-25T16:24:50Z</time>
      </trkpt>
      <trkpt lat="41.131133" lon="-3.643600">
        <ele>2519.0</ele>
        <time>2016-07-25T16:24:51Z</time>
      </trkpt>
      <trkpt lat="41.131183" lon="-3.643650">
        <ele>2516.0</ele>
        <time>2016-07-25T16:24:52Z</time>
      </trkpt>
      <trkpt lat="41.131233" lon="-3.643683">
        <ele>2513.0</ele>
        <time>2016-07-25T16:24:53Z</time>
      </trkpt>
      <trkpt lat="41.131267" lon="-3.643733">
        <ele>2510.0</ele>
        <time>2016-07-25T16:24:54Z</time>
      </trkpt>
      <trkpt lat="41.131300" lon="-3.643767">
        <ele>2507.0</ele>
        <time>2016-07-25T16:24:55Z</time>
      </trkpt>
      <trkpt lat="41.131333" lon="-3.643817">
        <ele>2504.0</ele>
        <time>2016-07-25T16:24:56Z</time>
      </trkpt>
      <trkpt lat="41.131367" lon="-3.643867">
        <ele>2500.0</ele>
        <time>2016-07-25T16:24:57Z</time>
      </trkpt>
      <trkpt lat="41.131400" lon="-3.643917">
        <ele>2496.0</ele>
        <time>2016-07-25T16:24:58Z</time>
      </trkpt>
      <trkpt lat="41.131433" lon="-3.643967">
        <ele>2493.0</ele>
        <time>2016-07-25T16:24:59Z</time>
      </trkpt>
      <trkpt lat="41.131467" lon="-3.644033">
        <ele>2490.0</ele>
        <time>2016-07-25T16:25:00Z</time>
      </trkpt>
      <trkpt lat="41.131500" lon="-3.644083">
        <ele>2487.0</ele>
        <time>2016-07-25T16:25:01Z</time>
      </trkpt>
      <trkpt lat="41.131500" lon="-3.644150">
        <ele>2483.0</ele>
        <time>2016-07-25T16:25:02Z</time>
      </trkpt>
      <trkpt lat="41.131517" lon="-3.644200">
        <ele>2478.0</ele>
        <time>2016-07-25T16:25:03Z</time>
      </trkpt>
      <trkpt lat="41.131533" lon="-3.644267">
        <ele>2473.0</ele>
        <time>2016-07-25T16:25:04Z</time>
      </trkpt>
      <trkpt lat="41.131583" lon="-3.644333">
        <ele>2468.0</ele>
        <time>2016-07-25T16:25:05Z</time>
      </trkpt>
      <trkpt lat="41.131633" lon="-3.644367">
        <ele>2463.0</ele>
        <time>2016-07-25T16:25:06Z</time>
      </trkpt>
      <trkpt lat="41.131700" lon="-3.644400">
        <ele>2459.0</ele>
        <time>2016-07-25T16:25:07Z</time>
      </trkpt>
      <trkpt lat="41.131750" lon="-3.644400">
        <ele>2457.0</ele>
        <time>2016-07-25T16:25:08Z</time>
      </trkpt>
      <trkpt lat="41.131783" lon="-3.644400">
        <ele>2456.0</ele>
        <time>2016-07-25T16:25:09Z</time>
      </trkpt>
      <trkpt lat="41.131783" lon="-3.644417">
        <ele>2452.0</ele>
        <time>2016-07-25T16:25:10Z</time>
      </trkpt>
      <trkpt lat="41.131800" lon="-3.644433">
        <ele>2448.0</ele>
        <time>2016-07-25T16:25:11Z</time>
      </trkpt>
      <trkpt lat="41.131833" lon="-3.644450">
        <ele>2442.0</ele>
        <time>2016-07-25T16:25:12Z</time>
      </trkpt>
      <trkpt lat="41.131883" lon="-3.644483">
        <ele>2437.0</ele>
        <time>2016-07-25T16:25:13Z</time>
      </trkpt>
      <trkpt lat="41.131950" lon="-3.644483">
        <ele>2432.0</ele>
        <time>2016-07-25T16:25:14Z</time>
      </trkpt>
      <trkpt lat="41.132017" lon="-3.644483">
        <ele>2429.0</ele>
        <time>2016-07-25T16:25:15Z</time>
      </trkpt>
      <trkpt lat="41.132067" lon="-3.644467">
        <ele>2426.0</ele>
        <time>2016-07-25T16:25:16Z</time>
      </trkpt>
      <trkpt lat="41.132117" lon="-3.644450">
        <ele>2423.0</ele>
        <time>2016-07-25T16:25:17Z</time>
      </trkpt>
      <trkpt lat="41.132167" lon="-3.644450">
        <ele>2419.0</ele>
        <time>2016-07-25T16:25:18Z</time>
      </trkpt>
      <trkpt lat="41.132217" lon="-3.644450">
        <ele>2415.0</ele>
        <time>2016-07-25T16:25:19Z</time>
      </trkpt>
      <trkpt lat="41.132283" lon="-3.644450">
        <ele>2412.0</ele>
        <time>2016-07-25T16:25:20Z</time>
      </trkpt>
      <trkpt lat="41.132333" lon="-3.644433">
        <ele>2410.0</ele>
        <time>2016-07-25T16:25:21Z</time>
      </trkpt>
      <trkpt lat="41.132367" lon="-3.644417">
        <ele>2409.0</ele>
        <time>2016-07-25T16:25:22Z</time>
      </trkpt>
      <trkpt lat="41.132417" lon="-3.644400">
        <ele>2405.0</ele>
        <time>2016-07-25T16:25:23Z</time>
      </trkpt>
      <trkpt lat="41.132467" lon="-3.644400">
        <ele>2401.0</ele>
        <time>2016-07-25T16:25:24Z</time>
      </trkpt>
      <trkpt lat="41.132517" lon="-3.644400">
        <ele>2398.0</ele>
        <time>2016-07-25T16:25:25Z</time>
      </trkpt>
      <trkpt lat="41.132583" lon="-3.644417">
        <ele>2396.0</ele>
        <time>2016-07-25T16:25:26Z</time>
      </trkpt>
      <trkpt lat="41.132633" lon="-3.644433">
        <ele>2395.0</ele>
        <time>2016-07-25T16:25:27Z</time>
      </trkpt>
      <trkpt lat="41.132667" lon="-3.644433">
        <ele>2394.0</ele>
        <time>2016-07-25T16:25:28Z</time>
      </trkpt>
      <trkpt lat="41.132700" lon="-3.644450">
        <ele>2393.0</ele>
        <time>2016-07-25T16:25:29Z</time>
      </trkpt>
      <trkpt lat="41.132717" lon="-3.644450">
        <ele>2391.0</ele>
        <time>2016-07-25T16:25:30Z</time>
      </trkpt>
      <trkpt lat="41.132750" lon="-3.644467">
        <ele>2387.0</ele>
        <time>2016-07-25T16:25:31Z</time>
      </trkpt>
      <trkpt lat="41.132800" lon="-3.644483">
        <ele>2384.0</ele>
        <time>2016-07-25T16:25:32Z</time>
      </trkpt>
      <trkpt lat="41.132833" lon="-3.644500">
        <ele>2381.0</ele>
        <time>2016-07-25T16:25:33Z</time>
      </trkpt>
      <trkpt lat="41.132867" lon="-3.644533">
        <ele>2380.0</ele>
        <time>2016-07-25T16:25:34Z</time>
      </trkpt>
      <trkpt lat="41.132883" lon="-3.644583">
        <ele>2379.0</ele>
        <time>2016-07-25T16:25:35Z</time>
      </trkpt>
      <trkpt lat="41.132900" lon="-3.644617">
        <ele>2377.0</ele>
        <time>2016-07-25T16:25:36Z</time>
      </trkpt>
      <trkpt lat="41.132900" lon="-3.644667">
        <ele>2375.0</ele>
        <time>2016-07-25T16:25:37Z</time>
      </trkpt>
      <trkpt lat="41.132917" lon="-3.644733">
        <ele>2372.0</ele>
        <time>2016-07-25T16:25:38Z</time>
      </trkpt>
      <trkpt lat="41.132933" lon="-3.644783">
        <ele>2369.0</ele>
        <time>2016-07-25T16:25:39Z</time>
      </trkpt>
      <trkpt lat="41.132950" lon="-3.644850">
        <ele>2368.0</ele>
        <time>2016-07-25T16:25:40Z</time>
      </trkpt>
      <trkpt lat="41.132950" lon="-3.644917">
        <ele>2367.0</ele>
        <time>2016-07-25T16:25:41Z</time>
      </trkpt>
      <trkpt lat="41.132950" lon="-3.644967">
        <ele>2365.0</ele>
        <time>2016-07-25T16:25:42Z</time>
      </trkpt>
      <trkpt lat="41.132950" lon="-3.645017">
        <ele>2362.0</ele>
        <time>2016-07-25T16:25:43Z</time>
      </trkpt>
      <trkpt lat="41.132967" lon="-3.645083">
        <ele>2359.0</ele>
        <time>2016-07-25T16:25:44Z</time>
      </trkpt>
      <trkpt lat="41.132983" lon="-3.645150">
        <ele>2355.0</ele>
        <time>2016-07-25T16:25:45Z</time>
      </trkpt>
      <trkpt lat="41.133000" lon="-3.645217">
        <ele>2352.0</ele>
        <time>2016-07-25T16:25:46Z</time>
      </trkpt>
      <trkpt lat="41.133000" lon="-3.645283">
        <ele>2350.0</ele>
        <time>2016-07-25T16:25:47Z</time>
      </trkpt>
      <trkpt lat="41.133017" lon="-3.645350">
        <ele>2348.0</ele>
        <time>2016-07-25T16:25:48Z</time>
      </trkpt>
      <trkpt lat="41.133017" lon="-3.645400">
        <ele>2346.0</ele>
        <time>2016-07-25T16:25:49Z</time>
      </trkpt>
      <trkpt lat="41.133033" lon="-3.645450">
        <ele>2344.0</ele>
        <time>2016-07-25T16:25:50Z</time>
      </trkpt>
      <trkpt lat="41.133067" lon="-3.645500">
        <ele>2341.0</ele>
        <time>2016-07-25T16:25:51Z</time>
      </trkpt>
      <trkpt lat="41.133083" lon="-3.645550">
        <ele>2339.0</ele>
        <time>2016-07-25T16:25:52Z</time>
      </trkpt>
      <trkpt lat="41.133100" lon="-3.645600">
        <ele>2336.0</ele>
        <time>2016-07-25T16:25:53Z</time>
      </trkpt>
      <trkpt lat="41.133100" lon="-3.645667">
        <ele>2335.0</ele>
        <time>2016-07-25T16:25:54Z</time>
      </trkpt>
      <trkpt lat="41.133117" lon="-3.645717">
        <ele>2333.0</ele>
        <time>2016-07-25T16:25:55Z</time>
      </trkpt>
      <trkpt lat="41.133117" lon="-3.645750">
        <ele>2331.0</ele>
        <time>2016-07-25T16:25:56Z</time>
      </trkpt>
      <trkpt lat="41.133133" lon="-3.645800">
        <ele>2328.0</ele>
        <time>2016-07-25T16:25:57Z</time>
      </trkpt>
      <trkpt lat="41.133150" lon="-3.645833">
        <ele>2324.0</ele>
        <time>2016-07-25T16:25:58Z</time>
      </trkpt>
      <trkpt lat="41.133167" lon="-3.645883">
        <ele>2320.0</ele>
        <time>2016-07-25T16:25:59Z</time>
      </trkpt>
      <trkpt lat="41.133183" lon="-3.645933">
        <ele>2317.0</ele>
        <time>2016-07-25T16:26:00Z</time>
      </trkpt>
      <trkpt lat="41.133200" lon="-3.646000">
        <ele>2315.0</ele>
        <time>2016-07-25T16:26:01Z</time>
      </trkpt>
      <trkpt lat="41.133200" lon="-3.646067">
        <ele>2313.0</ele>
        <time>2016-07-25T16:26:02Z</time>
      </trkpt>
      <trkpt lat="41.133200" lon="-3.646133">
        <ele>2311.0</ele>
        <time>2016-07-25T16:26:03Z</time>
      </trkpt>
      <trkpt lat="41.133200" lon="-3.646200">
        <ele>2308.0</ele>
        <time>2016-07-25T16:26:04Z</time>
      </trkpt>
      <trkpt lat="41.133200" lon="-3.646267">
        <ele>2306.0</ele>
        <time>2016-07-25T16:26:05Z</time>
      </trkpt>
      <trkpt lat="41.133217" lon="-3.646333">
        <ele>2303.0</ele>
        <time>2016-07-25T16:26:06Z</time>
      </trkpt>
      <trkpt lat="41.133217" lon="-3.646400">
        <ele>2299.0</ele>
        <time>2016-07-25T16:26:07Z</time>
      </trkpt>
      <trkpt lat="41.133233" lon="-3.646467">
        <ele>2296.0</ele>
        <time>2016-07-25T16:26:08Z</time>
      </trkpt>
      <trkpt lat="41.133233" lon="-3.646533">
        <ele>2293.0</ele>
        <time>2016-07-25T16:26:09Z</time>
      </trkpt>
      <trkpt lat="41.133233" lon="-3.646600">
        <ele>2291.0</ele>
        <time>2016-07-25T16:26:10Z</time>
      </trkpt>
      <trkpt lat="41.133217" lon="-3.646667">
        <ele>2289.0</ele>
        <time>2016-07-25T16:26:11Z</time>
      </trkpt>
      <trkpt lat="41.133217" lon="-3.646717">
        <ele>2287.0</ele>
        <time>2016-07-25T16:26:12Z</time>
      </trkpt>
      <trkpt lat="41.133217" lon="-3.646783">
        <ele>2284.0</ele>
        <time>2016-07-25T16:26:13Z</time>
      </trkpt>
      <trkpt lat="41.133200" lon="-3.646833">
        <ele>2280.0</ele>
        <time>2016-07-25T16:26:14Z</time>
      </trkpt>
      <trkpt lat="41.133200" lon="-3.646900">
        <ele>2277.0</ele>
        <time>2016-07-25T16:26:15Z</time>
      </trkpt>
      <trkpt lat="41.133217" lon="-3.646933">
        <ele>2274.0</ele>
        <time>2016-07-25T16:26:16Z</time>
      </trkpt>
      <trkpt lat="41.133233" lon="-3.646967">
        <ele>2273.0</ele>
        <time>2016-07-25T16:26:17Z</time>
      </trkpt>
      <trkpt lat="41.133233" lon="-3.647000">
        <ele>2271.0</ele>
        <time>2016-07-25T16:26:18Z</time>
      </trkpt>
      <trkpt lat="41.133217" lon="-3.647017">
        <ele>2267.0</ele>
        <time>2016-07-25T16:26:19Z</time>
      </trkpt>
      <trkpt lat="41.133183" lon="-3.647067">
        <ele>2264.0</ele>
        <time>2016-07-25T16:26:20Z</time>
      </trkpt>
      <trkpt lat="41.133167" lon="-3.647117">
        <ele>2260.0</ele>
        <time>2016-07-25T16:26:21Z</time>
      </trkpt>
      <trkpt lat="41.133150" lon="-3.647183">
        <ele>2257.0</ele>
        <time>2016-07-25T16:26:22Z</time>
      </trkpt>
      <trkpt lat="41.133133" lon="-3.647233">
        <ele>2255.0</ele>
        <time>2016-07-25T16:26:23Z</time>
      </trkpt>
      <trkpt lat="41.133100" lon="-3.647283">
        <ele>2252.0</ele>
        <time>2016-07-25T16:26:24Z</time>
      </trkpt>
      <trkpt lat="41.133083" lon="-3.647333">
        <ele>2249.0</ele>
        <time>2016-07-25T16:26:25Z</time>
      </trkpt>
      <trkpt lat="41.133050" lon="-3.647383">
        <ele>2246.0</ele>
        <time>2016-07-25T16:26:26Z</time>
      </trkpt>
      <trkpt lat="41.133033" lon="-3.647450">
        <ele>2242.0</ele>
        <time>2016-07-25T16:26:27Z</time>
      </trkpt>
      <trkpt lat="41.133017" lon="-3.647517">
        <ele>2238.0</ele>
        <time>2016-07-25T16:26:28Z</time>
      </trkpt>
      <trkpt lat="41.133000" lon="-3.647583">
        <ele>2236.0</ele>
        <time>2016-07-25T16:26:29Z</time>
      </trkpt>
      <trkpt lat="41.132983" lon="-3.647633">
        <ele>2234.0</ele>
        <time>2016-07-25T16:26:30Z</time>
      </trkpt>
      <trkpt lat="41.132950" lon="-3.647700">
        <ele>2231.0</ele>
        <time>2016-07-25T16:26:31Z</time>
      </trkpt>
      <trkpt lat="41.132917" lon="-3.647750">
        <ele>2229.0</ele>
        <time>2016-07-25T16:26:32Z</time>
      </trkpt>
      <trkpt lat="41.132883" lon="-3.647817">
        <ele>2226.0</ele>
        <time>2016-07-25T16:26:33Z</time>
      </trkpt>
      <trkpt lat="41.132867" lon="-3.647883">
        <ele>2223.0</ele>
        <time>2016-07-25T16:26:34Z</time>
      </trkpt>
      <trkpt lat="41.132850" lon="-3.647950">
        <ele>2221.0</ele>
        <time>2016-07-25T16:26:35Z</time>
      </trkpt>
      <trkpt lat="41.132833" lon="-3.648017">
        <ele>2218.0</ele>
        <time>2016-07-25T16:26:36Z</time>
      </trkpt>
      <trkpt lat="41.132817" lon="-3.648083">
        <ele>2216.0</ele>
        <time>2016-07-25T16:26:37Z</time>
      </trkpt>
      <trkpt lat="41.132800" lon="-3.648133">
        <ele>2214.0</ele>
        <time>2016-07-25T16:26:38Z</time>
      </trkpt>
      <trkpt lat="41.132783" lon="-3.648183">
        <ele>2212.0</ele>
        <time>2016-07-25T16:26:39Z</time>
      </trkpt>
      <trkpt lat="41.132767" lon="-3.648233">
        <ele>2209.0</ele>
        <time>2016-07-25T16:26:40Z</time>
      </trkpt>
      <trkpt lat="41.132750" lon="-3.648283">
        <ele>2206.0</ele>
        <time>2016-07-25T16:26:41Z</time>
      </trkpt>
      <trkpt lat="41.132733" lon="-3.648350">
        <ele>2204.0</ele>
        <time>2016-07-25T16:26:42Z</time>
      </trkpt>
      <trkpt lat="41.132700" lon="-3.648417">
        <ele>2202.0</ele>
        <time>2016-07-25T16:26:43Z</time>
      </trkpt>
      <trkpt lat="41.132650" lon="-3.648483">
        <ele>2201.0</ele>
        <time>2016-07-25T16:26:44Z</time>
      </trkpt>
      <trkpt lat="41.132583" lon="-3.648517">
        <ele>2200.0</ele>
        <time>2016-07-25T16:26:45Z</time>
      </trkpt>
      <trkpt lat="41.132533" lon="-3.648550">
        <ele>2197.0</ele>
        <time>2016-07-25T16:26:46Z</time>
      </trkpt>
      <trkpt lat="41.132467" lon="-3.648583">
        <ele>2194.0</ele>
        <time>2016-07-25T16:26:47Z</time>
      </trkpt>
      <trkpt lat="41.132417" lon="-3.648617">
        <ele>2189.0</ele>
        <time>2016-07-25T16:26:48Z</time>
      </trkpt>
      <trkpt lat="41.132367" lon="-3.648683">
        <ele>2184.0</ele>
        <time>2016-07-25T16:26:49Z</time>
      </trkpt>
      <trkpt lat="41.132317" lon="-3.648767">
        <ele>2179.0</ele>
        <time>2016-07-25T16:26:50Z</time>
      </trkpt>
      <trkpt lat="41.132283" lon="-3.648850">
        <ele>2176.0</ele>
        <time>2016-07-25T16:26:51Z</time>
      </trkpt>
      <trkpt lat="41.132233" lon="-3.648917">
        <ele>2174.0</ele>
        <time>2016-07-25T16:26:52Z</time>
      </trkpt>
      <trkpt lat="41.132183" lon="-3.648967">
        <ele>2172.0</ele>
        <time>2016-07-25T16:26:53Z</time>
      </trkpt>
      <trkpt lat="41.132133" lon="-3.649017">
        <ele>2168.0</ele>
        <time>2016-07-25T16:26:54Z</time>
      </trkpt>
      <trkpt lat="41.132083" lon="-3.649083">
        <ele>2164.0</ele>
        <time>2016-07-25T16:26:55Z</time>
      </trkpt>
      <trkpt lat="41.132033" lon="-3.649150">
        <ele>2159.0</ele>
        <time>2016-07-25T16:26:56Z</time>
      </trkpt>
      <trkpt lat="41.132000" lon="-3.649250">
        <ele>2154.0</ele>
        <time>2016-07-25T16:26:57Z</time>
      </trkpt>
      <trkpt lat="41.131983" lon="-3.649333">
        <ele>2152.0</ele>
        <time>2016-07-25T16:26:58Z</time>
      </trkpt>
      <trkpt lat="41.131950" lon="-3.649400">
        <ele>2150.0</ele>
        <time>2016-07-25T16:26:59Z</time>
      </trkpt>
      <trkpt lat="41.131917" lon="-3.649467">
        <ele>2148.0</ele>
        <time>2016-07-25T16:27:00Z</time>
      </trkpt>
      <trkpt lat="41.131883" lon="-3.649517">
        <ele>2147.0</ele>
        <time>2016-07-25T16:27:01Z</time>
      </trkpt>
      <trkpt lat="41.131850" lon="-3.649550">
        <ele>2144.0</ele>
        <time>2016-07-25T16:27:02Z</time>
      </trkpt>
      <trkpt lat="41.131800" lon="-3.649600">
        <ele>2142.0</ele>
        <time>2016-07-25T16:27:03Z</time>
      </trkpt>
      <trkpt lat="41.131750" lon="-3.649650">
        <ele>2140.0</ele>
        <time>2016-07-25T16:27:04Z</time>
      </trkpt>
      <trkpt lat="41.131717" lon="-3.649700">
        <ele>2140.0</ele>
        <time>2016-07-25T16:27:05Z</time>
      </trkpt>
      <trkpt lat="41.131683" lon="-3.649733">
        <ele>2139.0</ele>
        <time>2016-07-25T16:27:06Z</time>
      </trkpt>
      <trkpt lat="41.131650" lon="-3.649767">
        <ele>2137.0</ele>
        <time>2016-07-25T16:27:07Z</time>
      </trkpt>
      <trkpt lat="41.131600" lon="-3.649817">
        <ele>2135.0</ele>
        <time>2016-07-25T16:27:08Z</time>
      </trkpt>
      <trkpt lat="41.131567" lon="-3.649883">
        <ele>2132.0</ele>
        <time>2016-07-25T16:27:09Z</time>
      </trkpt>
      <trkpt lat="41.131533" lon="-3.649967">
        <ele>2131.0</ele>
        <time>2016-07-25T16:27:10Z</time>
      </trkpt>
      <trkpt lat="41.131483" lon="-3.650033">
        <ele>2131.0</ele>
        <time>2016-07-25T16:27:11Z</time>
      </trkpt>
      <trkpt lat="41.131433" lon="-3.650100">
        <ele>2132.0</ele>
        <time>2016-07-25T16:27:12Z</time>
      </trkpt>
      <trkpt lat="41.131367" lon="-3.650150">
        <ele>2132.0</ele>
        <time>2016-07-25T16:27:13Z</time>
      </trkpt>
      <trkpt lat="41.131300" lon="-3.650183">
        <ele>2132.0</ele>
        <time>2016-07-25T16:27:14Z</time>
      </trkpt>
      <trkpt lat="41.131250" lon="-3.650250">
        <ele>2131.0</ele>
        <time>2016-07-25T16:27:15Z</time>
      </trkpt>
      <trkpt lat="41.131183" lon="-3.650317">
        <ele>2130.0</ele>
        <time>2016-07-25T16:27:16Z</time>
      </trkpt>
      <trkpt lat="41.131150" lon="-3.650400">
        <ele>2130.0</ele>
        <time>2016-07-25T16:27:17Z</time>
      </trkpt>
      <trkpt lat="41.131117" lon="-3.650483">
        <ele>2130.0</ele>
        <time>2016-07-25T16:27:18Z</time>
      </trkpt>
      <trkpt lat="41.131083" lon="-3.650550">
        <ele>2131.0</ele>
        <time>2016-07-25T16:27:19Z</time>
      </trkpt>
      <trkpt lat="41.131033" lon="-3.650617">
        <ele>2132.0</ele>
        <time>2016-07-25T16:27:20Z</time>
      </trkpt>
      <trkpt lat="41.131000" lon="-3.650700">
        <ele>2132.0</ele>
        <time>2016-07-25T16:27:21Z</time>
      </trkpt>
      <trkpt lat="41.130950" lon="-3.650783">
        <ele>2132.0</ele>
        <time>2016-07-25T16:27:22Z</time>
      </trkpt>
      <trkpt lat="41.130900" lon="-3.650850">
        <ele>2133.0</ele>
        <time>2016-07-25T16:27:23Z</time>
      </trkpt>
      <trkpt lat="41.130867" lon="-3.650933">
        <ele>2134.0</ele>
        <time>2016-07-25T16:27:24Z</time>
      </trkpt>
      <trkpt lat="41.130833" lon="-3.651000">
        <ele>2135.0</ele>
        <time>2016-07-25T16:27:25Z</time>
      </trkpt>
      <trkpt lat="41.130800" lon="-3.651050">
        <ele>2136.0</ele>
        <time>2016-07-25T16:27:26Z</time>
      </trkpt>
      <trkpt lat="41.130767" lon="-3.651117">
        <ele>2137.0</ele>
        <time>2016-07-25T16:27:27Z</time>
      </trkpt>
      <trkpt lat="41.130717" lon="-3.651167">
        <ele>2138.0</ele>
        <time>2016-07-25T16:27:28Z</time>
      </trkpt>
      <trkpt lat="41.130683" lon="-3.651233">
        <ele>2138.0</ele>
        <time>2016-07-25T16:27:29Z</time>
      </trkpt>
      <trkpt lat="41.130650" lon="-3.651300">
        <ele>2140.0</ele>
        <time>2016-07-25T16:27:30Z</time>
      </trkpt>
      <trkpt lat="41.130617" lon="-3.651367">
        <ele>2141.0</ele>
        <time>2016-07-25T16:27:31Z</time>
      </trkpt>
      <trkpt lat="41.130583" lon="-3.651433">
        <ele>2142.0</ele>
        <time>2016-07-25T16:27:32Z</time>
      </trkpt>
      <trkpt lat="41.130550" lon="-3.651483">
        <ele>2142.0</ele>
        <time>2016-07-25T16:27:33Z</time>
      </trkpt>
      <trkpt lat="41.130517" lon="-3.651550">
        <ele>2142.0</ele>
        <time>2016-07-25T16:27:34Z</time>
      </trkpt>
      <trkpt lat="41.130500" lon="-3.651600">
        <ele>2141.0</ele>
        <time>2016-07-25T16:27:35Z</time>
      </trkpt>
      <trkpt lat="41.130467" lon="-3.651667">
        <ele>2139.0</ele>
        <time>2016-07-25T16:27:36Z</time>
      </trkpt>
      <trkpt lat="41.130417" lon="-3.651717">
        <ele>2138.0</ele>
        <time>2016-07-25T16:27:37Z</time>
      </trkpt>
      <trkpt lat="41.130367" lon="-3.651783">
        <ele>2135.0</ele>
        <time>2016-07-25T16:27:38Z</time>
      </trkpt>
      <trkpt lat="41.130317" lon="-3.651850">
        <ele>2132.0</ele>
        <time>2016-07-25T16:27:39Z</time>
      </trkpt>
      <trkpt lat="41.130283" lon="-3.651950">
        <ele>2129.0</ele>
        <time>2016-07-25T16:27:40Z</time>
      </trkpt>
      <trkpt lat="41.130250" lon="-3.652050">
        <ele>2127.0</ele>
        <time>2016-07-25T16:27:41Z</time>
      </trkpt>
      <trkpt lat="41.130200" lon="-3.652133">
        <ele>2127.0</ele>
        <time>2016-07-25T16:27:42Z</time>
      </trkpt>
      <trkpt lat="41.130167" lon="-3.652217">
        <ele>2128.0</ele>
        <time>2016-07-25T16:27:43Z</time>
      </trkpt>
      <trkpt lat="41.130133" lon="-3.652267">
        <ele>2129.0</ele>
        <time>2016-07-25T16:27:44Z</time>
      </trkpt>
      <trkpt lat="41.130083" lon="-3.652317">
        <ele>2129.0</ele>
        <time>2016-07-25T16:27:45Z</time>
      </trkpt>
      <trkpt lat="41.130050" lon="-3.652367">
        <ele>2127.0</ele>
        <time>2016-07-25T16:27:46Z</time>
      </trkpt>
      <trkpt lat="41.130017" lon="-3.652450">
        <ele>2124.0</ele>
        <time>2016-07-25T16:27:47Z</time>
      </trkpt>
      <trkpt lat="41.129983" lon="-3.652533">
        <ele>2121.0</ele>
        <time>2016-07-25T16:27:48Z</time>
      </trkpt>
      <trkpt lat="41.129950" lon="-3.652633">
        <ele>2119.0</ele>
        <time>2016-07-25T16:27:49Z</time>
      </trkpt>
      <trkpt lat="41.129917" lon="-3.652700">
        <ele>2118.0</ele>
        <time>2016-07-25T16:27:50Z</time>
      </trkpt>
      <trkpt lat="41.129883" lon="-3.652750">
        <ele>2117.0</ele>
        <time>2016-07-25T16:27:51Z</time>
      </trkpt>
      <trkpt lat="41.129850" lon="-3.652800">
        <ele>2114.0</ele>
        <time>2016-07-25T16:27:52Z</time>
      </trkpt>
      <trkpt lat="41.129817" lon="-3.652867">
        <ele>2111.0</ele>
        <time>2016-07-25T16:27:53Z</time>
      </trkpt>
      <trkpt lat="41.129800" lon="-3.652950">
        <ele>2107.0</ele>
        <time>2016-07-25T16:27:54Z</time>
      </trkpt>
      <trkpt lat="41.129767" lon="-3.653050">
        <ele>2105.0</ele>
        <time>2016-07-25T16:27:55Z</time>
      </trkpt>
      <trkpt lat="41.129733" lon="-3.653133">
        <ele>2104.0</ele>
        <time>2016-07-25T16:27:56Z</time>
      </trkpt>
      <trkpt lat="41.129700" lon="-3.653217">
        <ele>2104.0</ele>
        <time>2016-07-25T16:27:57Z</time>
      </trkpt>
      <trkpt lat="41.129667" lon="-3.653283">
        <ele>2103.0</ele>
        <time>2016-07-25T16:27:58Z</time>
      </trkpt>
      <trkpt lat="41.129650" lon="-3.653367">
        <ele>2101.0</ele>
        <time>2016-07-25T16:27:59Z</time>
      </trkpt>
      <trkpt lat="41.129633" lon="-3.653450">
        <ele>2099.0</ele>
        <time>2016-07-25T16:28:00Z</time>
      </trkpt>
      <trkpt lat="41.129600" lon="-3.653550">
        <ele>2098.0</ele>
        <time>2016-07-25T16:28:01Z</time>
      </trkpt>
      <trkpt lat="41.129567" lon="-3.653633">
        <ele>2098.0</ele>
        <time>2016-07-25T16:28:02Z</time>
      </trkpt>
      <trkpt lat="41.129533" lon="-3.653717">
        <ele>2099.0</ele>
        <time>2016-07-25T16:28:03Z</time>
      </trkpt>
      <trkpt lat="41.129483" lon="-3.653817">
        <ele>2100.0</ele>
        <time>2016-07-25T16:28:04Z</time>
      </trkpt>
      <trkpt lat="41.129450" lon="-3.653900">
        <ele>2101.0</ele>
        <time>2016-07-25T16:28:05Z</time>
      </trkpt>
      <trkpt lat="41.129417" lon="-3.654000">
        <ele>2103.0</ele>
        <time>2016-07-25T16:28:06Z</time>
      </trkpt>
      <trkpt lat="41.129383" lon="-3.654100">
        <ele>2106.0</ele>
        <time>2016-07-25T16:28:07Z</time>
      </trkpt>
      <trkpt lat="41.129367" lon="-3.654200">
        <ele>2108.0</ele>
        <time>2016-07-25T16:28:08Z</time>
      </trkpt>
      <trkpt lat="41.129333" lon="-3.654283">
        <ele>2111.0</ele>
        <time>2016-07-25T16:28:09Z</time>
      </trkpt>
      <trkpt lat="41.129300" lon="-3.654383">
        <ele>2112.0</ele>
        <time>2016-07-25T16:28:10Z</time>
      </trkpt>
      <trkpt lat="41.129283" lon="-3.654467">
        <ele>2113.0</ele>
        <time>2016-07-25T16:28:11Z</time>
      </trkpt>
      <trkpt lat="41.129267" lon="-3.654567">
        <ele>2114.0</ele>
        <time>2016-07-25T16:28:12Z</time>
      </trkpt>
      <trkpt lat="41.129267" lon="-3.654667">
        <ele>2115.0</ele>
        <time>2016-07-25T16:28:13Z</time>
      </trkpt>
      <trkpt lat="41.129283" lon="-3.654750">
        <ele>2116.0</ele>
        <time>2016-07-25T16:28:14Z</time>
      </trkpt>
      <trkpt lat="41.129300" lon="-3.654817">
        <ele>2117.0</ele>
        <time>2016-07-25T16:28:15Z</time>
      </trkpt>
      <trkpt lat="41.129317" lon="-3.654900">
        <ele>2118.0</ele>
        <time>2016-07-25T16:28:16Z</time>
      </trkpt>
      <trkpt lat="41.129350" lon="-3.654967">
        <ele>2119.0</ele>
        <time>2016-07-25T16:28:17Z</time>
      </trkpt>
      <trkpt lat="41.129367" lon="-3.655050">
        <ele>2120.0</ele>
        <time>2016-07-25T16:28:18Z</time>
      </trkpt>
      <trkpt lat="41.129367" lon="-3.655133">
        <ele>2122.0</ele>
        <time>2016-07-25T16:28:19Z</time>
      </trkpt>
      <trkpt lat="41.129383" lon="-3.655233">
        <ele>2123.0</ele>
        <time>2016-07-25T16:28:20Z</time>
      </trkpt>
      <trkpt lat="41.129383" lon="-3.655333">
        <ele>2125.0</ele>
        <time>2016-07-25T16:28:21Z</time>
      </trkpt>
      <trkpt lat="41.129400" lon="-3.655417">
        <ele>2126.0</ele>
        <time>2016-07-25T16:28:22Z</time>
      </trkpt>
      <trkpt lat="41.129417" lon="-3.655483">
        <ele>2127.0</ele>
        <time>2016-07-25T16:28:23Z</time>
      </trkpt>
      <trkpt lat="41.129433" lon="-3.655550">
        <ele>2128.0</ele>
        <time>2016-07-25T16:28:24Z</time>
      </trkpt>
      <trkpt lat="41.129450" lon="-3.655633">
        <ele>2129.0</ele>
        <time>2016-07-25T16:28:25Z</time>
      </trkpt>
      <trkpt lat="41.129467" lon="-3.655717">
        <ele>2129.0</ele>
        <time>2016-07-25T16:28:26Z</time>
      </trkpt>
      <trkpt lat="41.129517" lon="-3.655783">
        <ele>2130.0</ele>
        <time>2016-07-25T16:28:27Z</time>
      </trkpt>
      <trkpt lat="41.129550" lon="-3.655817">
        <ele>2131.0</ele>
        <time>2016-07-25T16:28:28Z</time>
      </trkpt>
      <trkpt lat="41.129600" lon="-3.655833">
        <ele>2132.0</ele>
        <time>2016-07-25T16:28:29Z</time>
      </trkpt>
      <trkpt lat="41.129667" lon="-3.655850">
        <ele>2133.0</ele>
        <time>2016-07-25T16:28:30Z</time>
      </trkpt>
      <trkpt lat="41.129717" lon="-3.655850">
        <ele>2134.0</ele>
        <time>2016-07-25T16:28:31Z</time>
      </trkpt>
      <trkpt lat="41.129750" lon="-3.655867">
        <ele>2135.0</ele>
        <time>2016-07-25T16:28:32Z</time>
      </trkpt>
      <trkpt lat="41.129783" lon="-3.655867">
        <ele>2136.0</ele>
        <time>2016-07-25T16:28:33Z</time>
      </trkpt>
      <trkpt lat="41.129817" lon="-3.655850">
        <ele>2136.0</ele>
        <time>2016-07-25T16:28:34Z</time>
      </trkpt>
      <trkpt lat="41.129867" lon="-3.655800">
        <ele>2135.0</ele>
        <time>2016-07-25T16:28:35Z</time>
      </trkpt>
      <trkpt lat="41.129900" lon="-3.655717">
        <ele>2135.0</ele>
        <time>2016-07-25T16:28:36Z</time>
      </trkpt>
      <trkpt lat="41.129933" lon="-3.655617">
        <ele>2135.0</ele>
        <time>2016-07-25T16:28:37Z</time>
      </trkpt>
      <trkpt lat="41.129933" lon="-3.655483">
        <ele>2136.0</ele>
        <time>2016-07-25T16:28:38Z</time>
      </trkpt>
      <trkpt lat="41.129900" lon="-3.655350">
        <ele>2137.0</ele>
        <time>2016-07-25T16:28:39Z</time>
      </trkpt>
      <trkpt lat="41.129850" lon="-3.655250">
        <ele>2137.0</ele>
        <time>2016-07-25T16:28:40Z</time>
      </trkpt>
      <trkpt lat="41.129767" lon="-3.655133">
        <ele>2137.0</ele>
        <time>2016-07-25T16:28:41Z</time>
      </trkpt>
      <trkpt lat="41.129683" lon="-3.655033">
        <ele>2136.0</ele>
        <time>2016-07-25T16:28:42Z</time>
      </trkpt>
      <trkpt lat="41.129567" lon="-3.654983">
        <ele>2136.0</ele>
        <time>2016-07-25T16:28:43Z</time>
      </trkpt>
      <trkpt lat="41.129467" lon="-3.654967">
        <ele>2136.0</ele>
        <time>2016-07-25T16:28:44Z</time>
      </trkpt>
      <trkpt lat="41.129350" lon="-3.655000">
        <ele>2135.0</ele>
        <time>2016-07-25T16:28:45Z</time>
      </trkpt>
      <trkpt lat="41.129250" lon="-3.655067">
        <ele>2134.0</ele>
        <time>2016-07-25T16:28:46Z</time>
      </trkpt>
      <trkpt lat="41.129167" lon="-3.655133">
        <ele>2134.0</ele>
        <time>2016-07-25T16:28:47Z</time>
      </trkpt>
      <trkpt lat="41.129083" lon="-3.655217">
        <ele>2134.0</ele>
        <time>2016-07-25T16:28:48Z</time>
      </trkpt>
      <trkpt lat="41.129000" lon="-3.655283">
        <ele>2135.0</ele>
        <time>2016-07-25T16:28:49Z</time>
      </trkpt>
      <trkpt lat="41.128933" lon="-3.655367">
        <ele>2135.0</ele>
        <time>2016-07-25T16:28:50Z</time>
      </trkpt>
      <trkpt lat="41.128883" lon="-3.655450">
        <ele>2135.0</ele>
        <time>2016-07-25T16:28:51Z</time>
      </trkpt>
      <trkpt lat="41.128833" lon="-3.655533">
        <ele>2135.0</ele>
        <time>2016-07-25T16:28:52Z</time>
      </trkpt>
      <trkpt lat="41.128767" lon="-3.655617">
        <ele>2134.0</ele>
        <time>2016-07-25T16:28:53Z</time>
      </trkpt>
      <trkpt lat="41.128717" lon="-3.655700">
        <ele>2134.0</ele>
        <time>2016-07-25T16:28:54Z</time>
      </trkpt>
      <trkpt lat="41.128667" lon="-3.655800">
        <ele>2133.0</ele>
        <time>2016-07-25T16:28:55Z</time>
      </trkpt>
      <trkpt lat="41.128633" lon="-3.655900">
        <ele>2132.0</ele>
        <time>2016-07-25T16:28:56Z</time>
      </trkpt>
      <trkpt lat="41.128617" lon="-3.656000">
        <ele>2131.0</ele>
        <time>2016-07-25T16:28:57Z</time>
      </trkpt>
      <trkpt lat="41.128600" lon="-3.656100">
        <ele>2131.0</ele>
        <time>2016-07-25T16:28:58Z</time>
      </trkpt>
      <trkpt lat="41.128583" lon="-3.656217">
        <ele>2131.0</ele>
        <time>2016-07-25T16:28:59Z</time>
      </trkpt>
      <trkpt lat="41.128567" lon="-3.656300">
        <ele>2131.0</ele>
        <time>2016-07-25T16:29:00Z</time>
      </trkpt>
      <trkpt lat="41.128550" lon="-3.656400">
        <ele>2131.0</ele>
        <time>2016-07-25T16:29:01Z</time>
      </trkpt>
      <trkpt lat="41.128517" lon="-3.656500">
        <ele>2131.0</ele>
        <time>2016-07-25T16:29:02Z</time>
      </trkpt>
      <trkpt lat="41.128517" lon="-3.656583">
        <ele>2131.0</ele>
        <time>2016-07-25T16:29:03Z</time>
      </trkpt>
      <trkpt lat="41.128500" lon="-3.656667">
        <ele>2130.0</ele>
        <time>2016-07-25T16:29:04Z</time>
      </trkpt>
      <trkpt lat="41.128500" lon="-3.656750">
        <ele>2131.0</ele>
        <time>2016-07-25T16:29:05Z</time>
      </trkpt>
      <trkpt lat="41.128500" lon="-3.656817">
        <ele>2131.0</ele>
        <time>2016-07-25T16:29:06Z</time>
      </trkpt>
      <trkpt lat="41.128483" lon="-3.656883">
        <ele>2131.0</ele>
        <time>2016-07-25T16:29:07Z</time>
      </trkpt>
      <trkpt lat="41.128467" lon="-3.656967">
        <ele>2130.0</ele>
        <time>2016-07-25T16:29:08Z</time>
      </trkpt>
      <trkpt lat="41.128450" lon="-3.657050">
        <ele>2131.0</ele>
        <time>2016-07-25T16:29:09Z</time>
      </trkpt>
      <trkpt lat="41.128450" lon="-3.657133">
        <ele>2132.0</ele>
        <time>2016-07-25T16:29:10Z</time>
      </trkpt>
      <trkpt lat="41.128433" lon="-3.657200">
        <ele>2133.0</ele>
        <time>2016-07-25T16:29:11Z</time>
      </trkpt>
      <trkpt lat="41.128433" lon="-3.657267">
        <ele>2134.0</ele>
        <time>2016-07-25T16:29:12Z</time>
      </trkpt>
      <trkpt lat="41.128433" lon="-3.657350">
        <ele>2135.0</ele>
        <time>2016-07-25T16:29:13Z</time>
      </trkpt>
      <trkpt lat="41.128417" lon="-3.657417">
        <ele>2138.0</ele>
        <time>2016-07-25T16:29:14Z</time>
      </trkpt>
      <trkpt lat="41.128417" lon="-3.657500">
        <ele>2141.0</ele>
        <time>2016-07-25T16:29:15Z</time>
      </trkpt>
      <trkpt lat="41.128400" lon="-3.657567">
        <ele>2143.0</ele>
        <time>2016-07-25T16:29:16Z</time>
      </trkpt>
      <trkpt lat="41.128383" lon="-3.657633">
        <ele>2146.0</ele>
        <time>2016-07-25T16:29:17Z</time>
      </trkpt>
      <trkpt lat="41.128383" lon="-3.657700">
        <ele>2148.0</ele>
        <time>2016-07-25T16:29:18Z</time>
      </trkpt>
      <trkpt lat="41.128367" lon="-3.657783">
        <ele>2150.0</ele>
        <time>2016-07-25T16:29:19Z</time>
      </trkpt>
      <trkpt lat="41.128350" lon="-3.657867">
        <ele>2153.0</ele>
        <time>2016-07-25T16:29:20Z</time>
      </trkpt>
      <trkpt lat="41.128333" lon="-3.657950">
        <ele>2157.0</ele>
        <time>2016-07-25T16:29:21Z</time>
      </trkpt>
      <trkpt lat="41.128333" lon="-3.658017">
        <ele>2160.0</ele>
        <time>2016-07-25T16:29:22Z</time>
      </trkpt>
      <trkpt lat="41.128317" lon="-3.658100">
        <ele>2163.0</ele>
        <time>2016-07-25T16:29:23Z</time>
      </trkpt>
      <trkpt lat="41.128333" lon="-3.658150">
        <ele>2166.0</ele>
        <time>2016-07-25T16:29:24Z</time>
      </trkpt>
      <trkpt lat="41.128350" lon="-3.658200">
        <ele>2168.0</ele>
        <time>2016-07-25T16:29:25Z</time>
      </trkpt>
      <trkpt lat="41.128400" lon="-3.658217">
        <ele>2170.0</ele>
        <time>2016-07-25T16:29:26Z</time>
      </trkpt>
      <trkpt lat="41.128433" lon="-3.658183">
        <ele>2172.0</ele>
        <time>2016-07-25T16:29:27Z</time>
      </trkpt>
      <trkpt lat="41.128450" lon="-3.658100">
        <ele>2174.0</ele>
        <time>2016-07-25T16:29:28Z</time>
      </trkpt>
      <trkpt lat="41.128450" lon="-3.657967">
        <ele>2175.0</ele>
        <time>2016-07-25T16:29:29Z</time>
      </trkpt>
      <trkpt lat="41.128400" lon="-3.657817">
        <ele>2178.0</ele>
        <time>2016-07-25T16:29:30Z</time>
      </trkpt>
      <trkpt lat="41.128300" lon="-3.657700">
        <ele>2181.0</ele>
        <time>2016-07-25T16:29:31Z</time>
      </trkpt>
      <trkpt lat="41.128167" lon="-3.657617">
        <ele>2184.0</ele>
        <time>2016-07-25T16:29:32Z</time>
      </trkpt>
      <trkpt lat="41.128033" lon="-3.657600">
        <ele>2186.0</ele>
        <time>2016-07-25T16:29:33Z</time>
      </trkpt>
      <trkpt lat="41.127900" lon="-3.657600">
        <ele>2189.0</ele>
        <time>2016-07-25T16:29:34Z</time>
      </trkpt>
      <trkpt lat="41.127783" lon="-3.657617">
        <ele>2192.0</ele>
        <time>2016-07-25T16:29:35Z</time>
      </trkpt>
      <trkpt lat="41.127667" lon="-3.657650">
        <ele>2195.0</ele>
        <time>2016-07-25T16:29:36Z</time>
      </trkpt>
      <trkpt lat="41.127567" lon="-3.657700">
        <ele>2198.0</ele>
        <time>2016-07-25T16:29:37Z</time>
      </trkpt>
      <trkpt lat="41.127467" lon="-3.657767">
        <ele>2200.0</ele>
        <time>2016-07-25T16:29:38Z</time>
      </trkpt>
      <trkpt lat="41.127383" lon="-3.657850">
        <ele>2202.0</ele>
        <time>2016-07-25T16:29:39Z</time>
      </trkpt>
      <trkpt lat="41.127317" lon="-3.657950">
        <ele>2205.0</ele>
        <time>2016-07-25T16:29:40Z</time>
      </trkpt>
      <trkpt lat="41.127267" lon="-3.658050">
        <ele>2209.0</ele>
        <time>2016-07-25T16:29:41Z</time>
      </trkpt>
      <trkpt lat="41.127217" lon="-3.658133">
        <ele>2213.0</ele>
        <time>2016-07-25T16:29:42Z</time>
      </trkpt>
      <trkpt lat="41.127167" lon="-3.658200">
        <ele>2217.0</ele>
        <time>2016-07-25T16:29:43Z</time>
      </trkpt>
      <trkpt lat="41.127133" lon="-3.658267">
        <ele>2220.0</ele>
        <time>2016-07-25T16:29:44Z</time>
      </trkpt>
      <trkpt lat="41.127083" lon="-3.658350">
        <ele>2224.0</ele>
        <time>2016-07-25T16:29:45Z</time>
      </trkpt>
      <trkpt lat="41.127067" lon="-3.658417">
        <ele>2226.0</ele>
        <time>2016-07-25T16:29:46Z</time>
      </trkpt>
      <trkpt lat="41.127050" lon="-3.658483">
        <ele>2229.0</ele>
        <time>2016-07-25T16:29:47Z</time>
      </trkpt>
      <trkpt lat="41.127050" lon="-3.658550">
        <ele>2232.0</ele>
        <time>2016-07-25T16:29:48Z</time>
      </trkpt>
      <trkpt lat="41.127050" lon="-3.658600">
        <ele>2234.0</ele>
        <time>2016-07-25T16:29:49Z</time>
      </trkpt>
      <trkpt lat="41.127067" lon="-3.658650">
        <ele>2237.0</ele>
        <time>2016-07-25T16:29:50Z</time>
      </trkpt>
      <trkpt lat="41.127067" lon="-3.658700">
        <ele>2240.0</ele>
        <time>2016-07-25T16:29:51Z</time>
      </trkpt>
      <trkpt lat="41.127083" lon="-3.658733">
        <ele>2243.0</ele>
        <time>2016-07-25T16:29:52Z</time>
      </trkpt>
      <trkpt lat="41.127117" lon="-3.658750">
        <ele>2246.0</ele>
        <time>2016-07-25T16:29:53Z</time>
      </trkpt>
      <trkpt lat="41.127150" lon="-3.658750">
        <ele>2250.0</ele>
        <time>2016-07-25T16:29:54Z</time>
      </trkpt>
      <trkpt lat="41.127167" lon="-3.658717">
        <ele>2254.0</ele>
        <time>2016-07-25T16:29:55Z</time>
      </trkpt>
      <trkpt lat="41.127183" lon="-3.658667">
        <ele>2258.0</ele>
        <time>2016-07-25T16:29:56Z</time>
      </trkpt>
      <trkpt lat="41.127200" lon="-3.658600">
        <ele>2261.0</ele>
        <time>2016-07-25T16:29:57Z</time>
      </trkpt>
      <trkpt lat="41.127183" lon="-3.658500">
        <ele>2263.0</ele>
        <time>2016-07-25T16:29:58Z</time>
      </trkpt>
      <trkpt lat="41.127150" lon="-3.658383">
        <ele>2265.0</ele>
        <time>2016-07-25T16:29:59Z</time>
      </trkpt>
      <trkpt lat="41.127067" lon="-3.658250">
        <ele>2267.0</ele>
        <time>2016-07-25T16:30:00Z</time>
      </trkpt>
      <trkpt lat="41.126933" lon="-3.658133">
        <ele>2270.0</ele>
        <time>2016-07-25T16:30:01Z</time>
      </trkpt>
      <trkpt lat="41.126800" lon="-3.658083">
        <ele>2273.0</ele>
        <time>2016-07-25T16:30:02Z</time>
      </trkpt>
      <trkpt lat="41.126650" lon="-3.658083">
        <ele>2277.0</ele>
        <time>2016-07-25T16:30:03Z</time>
      </trkpt>
      <trkpt lat="41.126533" lon="-3.658117">
        <ele>2282.0</ele>
        <time>2016-07-25T16:30:04Z</time>
      </trkpt>
      <trkpt lat="41.126433" lon="-3.658183">
        <ele>2286.0</ele>
        <time>2016-07-25T16:30:05Z</time>
      </trkpt>
      <trkpt lat="41.126317" lon="-3.658233">
        <ele>2290.0</ele>
        <time>2016-07-25T16:30:06Z</time>
      </trkpt>
      <trkpt lat="41.126233" lon="-3.658300">
        <ele>2293.0</ele>
        <time>2016-07-25T16:30:07Z</time>
      </trkpt>
      <trkpt lat="41.126133" lon="-3.658383">
        <ele>2296.0</ele>
        <time>2016-07-25T16:30:08Z</time>
      </trkpt>
      <trkpt lat="41.126067" lon="-3.658467">
        <ele>2299.0</ele>
        <time>2016-07-25T16:30:09Z</time>
      </trkpt>
      <trkpt lat="41.126000" lon="-3.658550">
        <ele>2303.0</ele>
        <time>2016-07-25T16:30:10Z</time>
      </trkpt>
      <trkpt lat="41.125950" lon="-3.658650">
        <ele>2306.0</ele>
        <time>2016-07-25T16:30:11Z</time>
      </trkpt>
      <trkpt lat="41.125883" lon="-3.658733">
        <ele>2309.0</ele>
        <time>2016-07-25T16:30:12Z</time>
      </trkpt>
      <trkpt lat="41.125833" lon="-3.658817">
        <ele>2313.0</ele>
        <time>2016-07-25T16:30:13Z</time>
      </trkpt>
      <trkpt lat="41.125783" lon="-3.658883">
        <ele>2316.0</ele>
        <time>2016-07-25T16:30:14Z</time>
      </trkpt>
      <trkpt lat="41.125767" lon="-3.658933">
        <ele>2318.0</ele>
        <time>2016-07-25T16:30:15Z</time>
      </trkpt>
      <trkpt lat="41.125750" lon="-3.658967">
        <ele>2319.0</ele>
        <time>2016-07-25T16:30:16Z</time>
      </trkpt>
      <trkpt lat="41.125767" lon="-3.658983">
        <ele>2320.0</ele>
        <time>2016-07-25T16:30:17Z</time>
      </trkpt>
      <trkpt lat="41.125800" lon="-3.658983">
        <ele>2322.0</ele>
        <time>2016-07-25T16:30:18Z</time>
      </trkpt>
      <trkpt lat="41.125833" lon="-3.658950">
        <ele>2324.0</ele>
        <time>2016-07-25T16:30:19Z</time>
      </trkpt>
      <trkpt lat="41.125867" lon="-3.658917">
        <ele>2328.0</ele>
        <time>2016-07-25T16:30:20Z</time>
      </trkpt>
      <trkpt lat="41.125883" lon="-3.658900">
        <ele>2330.0</ele>
        <time>2016-07-25T16:30:21Z</time>
      </trkpt>
      <trkpt lat="41.125900" lon="-3.658867">
        <ele>2333.0</ele>
        <time>2016-07-25T16:30:22Z</time>
      </trkpt>
      <trkpt lat="41.125917" lon="-3.658833">
        <ele>2334.0</ele>
        <time>2016-07-25T16:30:23Z</time>
      </trkpt>
      <trkpt lat="41.125933" lon="-3.658767">
        <ele>2335.0</ele>
        <time>2016-07-25T16:30:24Z</time>
      </trkpt>
      <trkpt lat="41.125950" lon="-3.658667">
        <ele>2337.0</ele>
        <time>2016-07-25T16:30:25Z</time>
      </trkpt>
      <trkpt lat="41.125950" lon="-3.658533">
        <ele>2339.0</ele>
        <time>2016-07-25T16:30:26Z</time>
      </trkpt>
      <trkpt lat="41.125933" lon="-3.658400">
        <ele>2342.0</ele>
        <time>2016-07-25T16:30:27Z</time>
      </trkpt>
      <trkpt lat="41.125883" lon="-3.658267">
        <ele>2344.0</ele>
        <time>2016-07-25T16:30:28Z</time>
      </trkpt>
      <trkpt lat="41.125800" lon="-3.658117">
        <ele>2346.0</ele>
        <time>2016-07-25T16:30:29Z</time>
      </trkpt>
      <trkpt lat="41.125700" lon="-3.658000">
        <ele>2348.0</ele>
        <time>2016-07-25T16:30:30Z</time>
      </trkpt>
      <trkpt lat="41.125567" lon="-3.657900">
        <ele>2349.0</ele>
        <time>2016-07-25T16:30:31Z</time>
      </trkpt>
      <trkpt lat="41.125417" lon="-3.657833">
        <ele>2351.0</ele>
        <time>2016-07-25T16:30:32Z</time>
      </trkpt>
      <trkpt lat="41.125267" lon="-3.657800">
        <ele>2353.0</ele>
        <time>2016-07-25T16:30:33Z</time>
      </trkpt>
      <trkpt lat="41.125133" lon="-3.657800">
        <ele>2355.0</ele>
        <time>2016-07-25T16:30:34Z</time>
      </trkpt>
      <trkpt lat="41.125000" lon="-3.657833">
        <ele>2357.0</ele>
        <time>2016-07-25T16:30:35Z</time>
      </trkpt>
      <trkpt lat="41.124883" lon="-3.657867">
        <ele>2359.0</ele>
        <time>2016-07-25T16:30:36Z</time>
      </trkpt>
      <trkpt lat="41.124767" lon="-3.657900">
        <ele>2362.0</ele>
        <time>2016-07-25T16:30:37Z</time>
      </trkpt>
      <trkpt lat="41.124650" lon="-3.657933">
        <ele>2365.0</ele>
        <time>2016-07-25T16:30:38Z</time>
      </trkpt>
      <trkpt lat="41.124550" lon="-3.657983">
        <ele>2367.0</ele>
        <time>2016-07-25T16:30:39Z</time>
      </trkpt>
      <trkpt lat="41.124467" lon="-3.658033">
        <ele>2369.0</ele>
        <time>2016-07-25T16:30:40Z</time>
      </trkpt>
      <trkpt lat="41.124383" lon="-3.658100">
        <ele>2371.0</ele>
        <time>2016-07-25T16:30:41Z</time>
      </trkpt>
      <trkpt lat="41.124317" lon="-3.658167">
        <ele>2374.0</ele>
        <time>2016-07-25T16:30:42Z</time>
      </trkpt>
      <trkpt lat="41.124250" lon="-3.658233">
        <ele>2377.0</ele>
        <time>2016-07-25T16:30:43Z</time>
      </trkpt>
      <trkpt lat="41.124200" lon="-3.658283">
        <ele>2379.0</ele>
        <time>2016-07-25T16:30:44Z</time>
      </trkpt>
      <trkpt lat="41.124167" lon="-3.658350">
        <ele>2382.0</ele>
        <time>2016-07-25T16:30:45Z</time>
      </trkpt>
      <trkpt lat="41.124133" lon="-3.658417">
        <ele>2384.0</ele>
        <time>2016-07-25T16:30:46Z</time>
      </trkpt>
      <trkpt lat="41.124100" lon="-3.658483">
        <ele>2387.0</ele>
        <time>2016-07-25T16:30:47Z</time>
      </trkpt>
      <trkpt lat="41.124083" lon="-3.658533">
        <ele>2389.0</ele>
        <time>2016-07-25T16:30:48Z</time>
      </trkpt>
      <trkpt lat="41.124050" lon="-3.658583">
        <ele>2392.0</ele>
        <time>2016-07-25T16:30:49Z</time>
      </trkpt>
      <trkpt lat="41.124050" lon="-3.658633">
        <ele>2394.0</ele>
        <time>2016-07-25T16:30:50Z</time>
      </trkpt>
      <trkpt lat="41.124033" lon="-3.658700">
        <ele>2397.0</ele>
        <time>2016-07-25T16:30:51Z</time>
      </trkpt>
      <trkpt lat="41.124033" lon="-3.658733">
        <ele>2399.0</ele>
        <time>2016-07-25T16:30:52Z</time>
      </trkpt>
      <trkpt lat="41.124033" lon="-3.658783">
        <ele>2402.0</ele>
        <time>2016-07-25T16:30:53Z</time>
      </trkpt>
      <trkpt lat="41.124050" lon="-3.658800">
        <ele>2405.0</ele>
        <time>2016-07-25T16:30:54Z</time>
      </trkpt>
      <trkpt lat="41.124067" lon="-3.658817">
        <ele>2408.0</ele>
        <time>2016-07-25T16:30:55Z</time>
      </trkpt>
      <trkpt lat="41.124083" lon="-3.658833">
        <ele>2411.0</ele>
        <time>2016-07-25T16:30:56Z</time>
      </trkpt>
      <trkpt lat="41.124100" lon="-3.658833">
        <ele>2413.0</ele>
        <time>2016-07-25T16:30:57Z</time>
      </trkpt>
      <trkpt lat="41.124117" lon="-3.658817">
        <ele>2415.0</ele>
        <time>2016-07-25T16:30:58Z</time>
      </trkpt>
      <trkpt lat="41.124150" lon="-3.658783">
        <ele>2417.0</ele>
        <time>2016-07-25T16:30:59Z</time>
      </trkpt>
      <trkpt lat="41.124183" lon="-3.658750">
        <ele>2419.0</ele>
        <time>2016-07-25T16:31:00Z</time>
      </trkpt>
      <trkpt lat="41.124217" lon="-3.658683">
        <ele>2423.0</ele>
        <time>2016-07-25T16:31:01Z</time>
      </trkpt>
      <trkpt lat="41.124250" lon="-3.658600">
        <ele>2426.0</ele>
        <time>2016-07-25T16:31:02Z</time>
      </trkpt>
      <trkpt lat="41.124267" lon="-3.658500">
        <ele>2429.0</ele>
        <time>2016-07-25T16:31:03Z</time>
      </trkpt>
      <trkpt lat="41.124250" lon="-3.658367">
        <ele>2431.0</ele>
        <time>2016-07-25T16:31:04Z</time>
      </trkpt>
      <trkpt lat="41.124200" lon="-3.658217">
        <ele>2433.0</ele>
        <time>2016-07-25T16:31:05Z</time>
      </trkpt>
      <trkpt lat="41.124100" lon="-3.658067">
        <ele>2434.0</ele>
        <time>2016-07-25T16:31:06Z</time>
      </trkpt>
      <trkpt lat="41.123983" lon="-3.657967">
        <ele>2436.0</ele>
        <time>2016-07-25T16:31:07Z</time>
      </trkpt>
      <trkpt lat="41.123833" lon="-3.657900">
        <ele>2439.0</ele>
        <time>2016-07-25T16:31:08Z</time>
      </trkpt>
      <trkpt lat="41.123700" lon="-3.657883">
        <ele>2442.0</ele>
        <time>2016-07-25T16:31:09Z</time>
      </trkpt>
      <trkpt lat="41.123583" lon="-3.657900">
        <ele>2445.0</ele>
        <time>2016-07-25T16:31:10Z</time>
      </trkpt>
      <trkpt lat="41.123467" lon="-3.657933">
        <ele>2447.0</ele>
        <time>2016-07-25T16:31:11Z</time>
      </trkpt>
      <trkpt lat="41.123367" lon="-3.658000">
        <ele>2449.0</ele>
        <time>2016-07-25T16:31:12Z</time>
      </trkpt>
      <trkpt lat="41.123250" lon="-3.658067">
        <ele>2452.0</ele>
        <time>2016-07-25T16:31:13Z</time>
      </trkpt>
      <trkpt lat="41.123167" lon="-3.658133">
        <ele>2455.0</ele>
        <time>2016-07-25T16:31:14Z</time>
      </trkpt>
      <trkpt lat="41.123100" lon="-3.658183">
        <ele>2458.0</ele>
        <time>2016-07-25T16:31:15Z</time>
      </trkpt>
      <trkpt lat="41.123033" lon="-3.658250">
        <ele>2460.0</ele>
        <time>2016-07-25T16:31:16Z</time>
      </trkpt>
      <trkpt lat="41.122967" lon="-3.658333">
        <ele>2462.0</ele>
        <time>2016-07-25T16:31:17Z</time>
      </trkpt>
      <trkpt lat="41.122933" lon="-3.658400">
        <ele>2463.0</ele>
        <time>2016-07-25T16:31:18Z</time>
      </trkpt>
      <trkpt lat="41.122900" lon="-3.658483">
        <ele>2465.0</ele>
        <time>2016-07-25T16:31:19Z</time>
      </trkpt>
      <trkpt lat="41.122883" lon="-3.658550">
        <ele>2465.0</ele>
        <time>2016-07-25T16:31:20Z</time>
      </trkpt>
      <trkpt lat="41.122883" lon="-3.658633">
        <ele>2467.0</ele>
        <time>2016-07-25T16:31:21Z</time>
      </trkpt>
      <trkpt lat="41.122900" lon="-3.658717">
        <ele>2469.0</ele>
        <time>2016-07-25T16:31:22Z</time>
      </trkpt>
      <trkpt lat="41.122900" lon="-3.658800">
        <ele>2472.0</ele>
        <time>2016-07-25T16:31:23Z</time>
      </trkpt>
      <trkpt lat="41.122917" lon="-3.658867">
        <ele>2475.0</ele>
        <time>2016-07-25T16:31:24Z</time>
      </trkpt>
      <trkpt lat="41.122933" lon="-3.658917">
        <ele>2478.0</ele>
        <time>2016-07-25T16:31:25Z</time>
      </trkpt>
      <trkpt lat="41.122967" lon="-3.658967">
        <ele>2481.0</ele>
        <time>2016-07-25T16:31:26Z</time>
      </trkpt>
      <trkpt lat="41.122983" lon="-3.658983">
        <ele>2483.0</ele>
        <time>2016-07-25T16:31:27Z</time>
      </trkpt>
      <trkpt lat="41.123017" lon="-3.659017">
        <ele>2485.0</ele>
        <time>2016-07-25T16:31:28Z</time>
      </trkpt>
      <trkpt lat="41.123050" lon="-3.659033">
        <ele>2487.0</ele>
        <time>2016-07-25T16:31:29Z</time>
      </trkpt>
      <trkpt lat="41.123067" lon="-3.659050">
        <ele>2489.0</ele>
        <time>2016-07-25T16:31:30Z</time>
      </trkpt>
      <trkpt lat="41.123100" lon="-3.659050">
        <ele>2491.0</ele>
        <time>2016-07-25T16:31:31Z</time>
      </trkpt>
      <trkpt lat="41.123117" lon="-3.659050">
        <ele>2492.0</ele>
        <time>2016-07-25T16:31:32Z</time>
      </trkpt>
      <trkpt lat="41.123150" lon="-3.659033">
        <ele>2493.0</ele>
        <time>2016-07-25T16:31:33Z</time>
      </trkpt>
      <trkpt lat="41.123183" lon="-3.659000">
        <ele>2493.0</ele>
        <time>2016-07-25T16:31:34Z</time>
      </trkpt>
      <trkpt lat="41.123233" lon="-3.658950">
        <ele>2495.0</ele>
        <time>2016-07-25T16:31:35Z</time>
      </trkpt>
      <trkpt lat="41.123267" lon="-3.658867">
        <ele>2497.0</ele>
        <time>2016-07-25T16:31:36Z</time>
      </trkpt>
      <trkpt lat="41.123300" lon="-3.658800">
        <ele>2499.0</ele>
        <time>2016-07-25T16:31:37Z</time>
      </trkpt>
      <trkpt lat="41.123350" lon="-3.658733">
        <ele>2501.0</ele>
        <time>2016-07-25T16:31:38Z</time>
      </trkpt>
      <trkpt lat="41.123383" lon="-3.658683">
        <ele>2504.0</ele>
        <time>2016-07-25T16:31:39Z</time>
      </trkpt>
      <trkpt lat="41.123417" lon="-3.658600">
        <ele>2507.0</ele>
        <time>2016-07-25T16:31:40Z</time>
      </trkpt>
      <trkpt lat="41.123433" lon="-3.658517">
        <ele>2510.0</ele>
        <time>2016-07-25T16:31:41Z</time>
      </trkpt>
      <trkpt lat="41.123450" lon="-3.658400">
        <ele>2513.0</ele>
        <time>2016-07-25T16:31:42Z</time>
      </trkpt>
      <trkpt lat="41.123450" lon="-3.658267">
        <ele>2516.0</ele>
        <time>2016-07-25T16:31:43Z</time>
      </trkpt>
      <trkpt lat="41.123450" lon="-3.658133">
        <ele>2519.0</ele>
        <time>2016-07-25T16:31:44Z</time>
      </trkpt>
      <trkpt lat="41.123417" lon="-3.657983">
        <ele>2521.0</ele>
        <time>2016-07-25T16:31:45Z</time>
      </trkpt>
      <trkpt lat="41.123350" lon="-3.657833">
        <ele>2524.0</ele>
        <time>2016-07-25T16:31:46Z</time>
      </trkpt>
      <trkpt lat="41.123267" lon="-3.657683">
        <ele>2527.0</ele>
        <time>2016-07-25T16:31:47Z</time>
      </trkpt>
      <trkpt lat="41.123150" lon="-3.657550">
        <ele>2530.0</ele>
        <time>2016-07-25T16:31:48Z</time>
      </trkpt>
      <trkpt lat="41.123017" lon="-3.657467">
        <ele>2533.0</ele>
        <time>2016-07-25T16:31:49Z</time>
      </trkpt>
      <trkpt lat="41.122883" lon="-3.657450">
        <ele>2536.0</ele>
        <time>2016-07-25T16:31:50Z</time>
      </trkpt>
      <trkpt lat="41.122767" lon="-3.657467">
        <ele>2539.0</ele>
        <time>2016-07-25T16:31:51Z</time>
      </trkpt>
      <trkpt lat="41.122667" lon="-3.657500">
        <ele>2543.0</ele>
        <time>2016-07-25T16:31:52Z</time>
      </trkpt>
      <trkpt lat="41.122567" lon="-3.657533">
        <ele>2546.0</ele>
        <time>2016-07-25T16:31:53Z</time>
      </trkpt>
      <trkpt lat="41.122483" lon="-3.657583">
        <ele>2550.0</ele>
        <time>2016-07-25T16:31:54Z</time>
      </trkpt>
      <trkpt lat="41.122400" lon="-3.657650">
        <ele>2552.0</ele>
        <time>2016-07-25T16:31:55Z</time>
      </trkpt>
      <trkpt lat="41.122333" lon="-3.657700">
        <ele>2554.0</ele>
        <time>2016-07-25T16:31:56Z</time>
      </trkpt>
      <trkpt lat="41.122283" lon="-3.657767">
        <ele>2557.0</ele>
        <time>2016-07-25T16:31:57Z</time>
      </trkpt>
      <trkpt lat="41.122233" lon="-3.657833">
        <ele>2559.0</ele>
        <time>2016-07-25T16:31:58Z</time>
      </trkpt>
      <trkpt lat="41.122200" lon="-3.657900">
        <ele>2561.0</ele>
        <time>2016-07-25T16:31:59Z</time>
      </trkpt>
      <trkpt lat="41.122183" lon="-3.657933">
        <ele>2563.0</ele>
        <time>2016-07-25T16:32:00Z</time>
      </trkpt>
      <trkpt lat="41.122183" lon="-3.657983">
        <ele>2564.0</ele>
        <time>2016-07-25T16:32:01Z</time>
      </trkpt>
      <trkpt lat="41.122167" lon="-3.658017">
        <ele>2565.0</ele>
        <time>2016-07-25T16:32:02Z</time>
      </trkpt>
      <trkpt lat="41.122183" lon="-3.658050">
        <ele>2566.0</ele>
        <time>2016-07-25T16:32:03Z</time>
      </trkpt>
      <trkpt lat="41.122200" lon="-3.658083">
        <ele>2566.0</ele>
        <time>2016-07-25T16:32:04Z</time>
      </trkpt>
      <trkpt lat="41.122233" lon="-3.658100">
        <ele>2568.0</ele>
        <time>2016-07-25T16:32:05Z</time>
      </trkpt>
      <trkpt lat="41.122267" lon="-3.658117">
        <ele>2570.0</ele>
        <time>2016-07-25T16:32:06Z</time>
      </trkpt>
      <trkpt lat="41.122283" lon="-3.658133">
        <ele>2573.0</ele>
        <time>2016-07-25T16:32:07Z</time>
      </trkpt>
      <trkpt lat="41.122300" lon="-3.658150">
        <ele>2575.0</ele>
        <time>2016-07-25T16:32:08Z</time>
      </trkpt>
      <trkpt lat="41.122317" lon="-3.658167">
        <ele>2577.0</ele>
        <time>2016-07-25T16:32:09Z</time>
      </trkpt>
      <trkpt lat="41.122333" lon="-3.658183">
        <ele>2578.0</ele>
        <time>2016-07-25T16:32:10Z</time>
      </trkpt>
      <trkpt lat="41.122383" lon="-3.658200">
        <ele>2579.0</ele>
        <time>2016-07-25T16:32:11Z</time>
      </trkpt>
      <trkpt lat="41.122417" lon="-3.658200">
        <ele>2581.0</ele>
        <time>2016-07-25T16:32:12Z</time>
      </trkpt>
      <trkpt lat="41.122467" lon="-3.658183">
        <ele>2583.0</ele>
        <time>2016-07-25T16:32:13Z</time>
      </trkpt>
      <trkpt lat="41.122517" lon="-3.658183">
        <ele>2584.0</ele>
        <time>2016-07-25T16:32:14Z</time>
      </trkpt>
      <trkpt lat="41.122550" lon="-3.658183">
        <ele>2586.0</ele>
        <time>2016-07-25T16:32:15Z</time>
      </trkpt>
      <trkpt lat="41.122600" lon="-3.658183">
        <ele>2587.0</ele>
        <time>2016-07-25T16:32:16Z</time>
      </trkpt>
      <trkpt lat="41.122633" lon="-3.658167">
        <ele>2589.0</ele>
        <time>2016-07-25T16:32:17Z</time>
      </trkpt>
      <trkpt lat="41.122683" lon="-3.658150">
        <ele>2591.0</ele>
        <time>2016-07-25T16:32:18Z</time>
      </trkpt>
      <trkpt lat="41.122733" lon="-3.658100">
        <ele>2593.0</ele>
        <time>2016-07-25T16:32:19Z</time>
      </trkpt>
      <trkpt lat="41.122800" lon="-3.658067">
        <ele>2595.0</ele>
        <time>2016-07-25T16:32:20Z</time>
      </trkpt>
      <trkpt lat="41.122850" lon="-3.658017">
        <ele>2598.0</ele>
        <time>2016-07-25T16:32:21Z</time>
      </trkpt>
      <trkpt lat="41.122900" lon="-3.657967">
        <ele>2602.0</ele>
        <time>2016-07-25T16:32:22Z</time>
      </trkpt>
      <trkpt lat="41.122933" lon="-3.657900">
        <ele>2606.0</ele>
        <time>2016-07-25T16:32:23Z</time>
      </trkpt>
      <trkpt lat="41.122950" lon="-3.657817">
        <ele>2609.0</ele>
        <time>2016-07-25T16:32:24Z</time>
      </trkpt>
      <trkpt lat="41.122967" lon="-3.657717">
        <ele>2612.0</ele>
        <time>2016-07-25T16:32:25Z</time>
      </trkpt>
      <trkpt lat="41.122967" lon="-3.657600">
        <ele>2615.0</ele>
        <time>2016-07-25T16:32:26Z</time>
      </trkpt>
      <trkpt lat="41.122933" lon="-3.657450">
        <ele>2617.0</ele>
        <time>2016-07-25T16:32:27Z</time>
      </trkpt>
      <trkpt lat="41.122850" lon="-3.657317">
        <ele>2619.0</ele>
        <time>2016-07-25T16:32:28Z</time>
      </trkpt>
      <trkpt lat="41.122717" lon="-3.657200">
        <ele>2621.0</ele>
        <time>2016-07-25T16:32:29Z</time>
      </trkpt>
      <trkpt lat="41.122567" lon="-3.657133">
        <ele>2622.0</ele>
        <time>2016-07-25T16:32:30Z</time>
      </trkpt>
      <trkpt lat="41.122433" lon="-3.657150">
        <ele>2624.0</ele>
        <time>2016-07-25T16:32:31Z</time>
      </trkpt>
      <trkpt lat="41.122317" lon="-3.657183">
        <ele>2629.0</ele>
        <time>2016-07-25T16:32:32Z</time>
      </trkpt>
      <trkpt lat="41.122250" lon="-3.657233">
        <ele>2633.0</ele>
        <time>2016-07-25T16:32:33Z</time>
      </trkpt>
      <trkpt lat="41.122183" lon="-3.657283">
        <ele>2636.0</ele>
        <time>2016-07-25T16:32:34Z</time>
      </trkpt>
      <trkpt lat="41.122133" lon="-3.657333">
        <ele>2638.0</ele>
        <time>2016-07-25T16:32:35Z</time>
      </trkpt>
      <trkpt lat="41.122083" lon="-3.657400">
        <ele>2640.0</ele>
        <time>2016-07-25T16:32:36Z</time>
      </trkpt>
      <trkpt lat="41.122050" lon="-3.657467">
        <ele>2642.0</ele>
        <time>2016-07-25T16:32:37Z</time>
      </trkpt>
      <trkpt lat="41.122033" lon="-3.657533">
        <ele>2643.0</ele>
        <time>2016-07-25T16:32:38Z</time>
      </trkpt>
      <trkpt lat="41.122033" lon="-3.657617">
        <ele>2645.0</ele>
        <time>2016-07-25T16:32:39Z</time>
      </trkpt>
      <trkpt lat="41.122050" lon="-3.657683">
        <ele>2648.0</ele>
        <time>2016-07-25T16:32:40Z</time>
      </trkpt>
      <trkpt lat="41.122067" lon="-3.657733">
        <ele>2650.0</ele>
        <time>2016-07-25T16:32:41Z</time>
      </trkpt>
      <trkpt lat="41.122067" lon="-3.657783">
        <ele>2653.0</ele>
        <time>2016-07-25T16:32:42Z</time>
      </trkpt>
      <trkpt lat="41.122083" lon="-3.657833">
        <ele>2655.0</ele>
        <time>2016-07-25T16:32:43Z</time>
      </trkpt>
      <trkpt lat="41.122117" lon="-3.657867">
        <ele>2657.0</ele>
        <time>2016-07-25T16:32:44Z</time>
      </trkpt>
      <trkpt lat="41.122150" lon="-3.657917">
        <ele>2659.0</ele>
        <time>2016-07-25T16:32:45Z</time>
      </trkpt>
      <trkpt lat="41.122183" lon="-3.657967">
        <ele>2661.0</ele>
        <time>2016-07-25T16:32:46Z</time>
      </trkpt>
      <trkpt lat="41.122200" lon="-3.658017">
        <ele>2664.0</ele>
        <time>2016-07-25T16:32:47Z</time>
      </trkpt>
      <trkpt lat="41.122233" lon="-3.658050">
        <ele>2667.0</ele>
        <time>2016-07-25T16:32:48Z</time>
      </trkpt>
      <trkpt lat="41.122267" lon="-3.658083">
        <ele>2669.0</ele>
        <time>2016-07-25T16:32:49Z</time>
      </trkpt>
      <trkpt lat="41.122317" lon="-3.658117">
        <ele>2671.0</ele>
        <time>2016-07-25T16:32:50Z</time>
      </trkpt>
      <trkpt lat="41.122350" lon="-3.658133">
        <ele>2672.0</ele>
        <time>2016-07-25T16:32:51Z</time>
      </trkpt>
      <trkpt lat="41.122400" lon="-3.658183">
        <ele>2675.0</ele>
        <time>2016-07-25T16:32:52Z</time>
      </trkpt>
      <trkpt lat="41.122433" lon="-3.658217">
        <ele>2677.0</ele>
        <time>2016-07-25T16:32:53Z</time>
      </trkpt>
      <trkpt lat="41.122467" lon="-3.658267">
        <ele>2679.0</ele>
        <time>2016-07-25T16:32:54Z</time>
      </trkpt>
      <trkpt lat="41.122500" lon="-3.658317">
        <ele>2682.0</ele>
        <time>2016-07-25T16:32:55Z</time>
      </trkpt>
      <trkpt lat="41.122517" lon="-3.658367">
        <ele>2685.0</ele>
        <time>2016-07-25T16:32:56Z</time>
      </trkpt>
      <trkpt lat="41.122550" lon="-3.658400">
        <ele>2687.0</ele>
        <time>2016-07-25T16:32:57Z</time>
      </trkpt>
      <trkpt lat="41.122583" lon="-3.658417">
        <ele>2689.0</ele>
        <time>2016-07-25T16:32:58Z</time>
      </trkpt>
      <trkpt lat="41.122617" lon="-3.658433">
        <ele>2692.0</ele>
        <time>2016-07-25T16:32:59Z</time>
      </trkpt>
      <trkpt lat="41.122650" lon="-3.658450">
        <ele>2695.0</ele>
        <time>2016-07-25T16:33:00Z</time>
      </trkpt>
      <trkpt lat="41.122667" lon="-3.658467">
        <ele>2697.0</ele>
        <time>2016-07-25T16:33:01Z</time>
      </trkpt>
      <trkpt lat="41.122700" lon="-3.658500">
        <ele>2698.0</ele>
        <time>2016-07-25T16:33:02Z</time>
      </trkpt>
      <trkpt lat="41.122733" lon="-3.658533">
        <ele>2699.0</ele>
        <time>2016-07-25T16:33:03Z</time>
      </trkpt>
      <trkpt lat="41.122767" lon="-3.658583">
        <ele>2701.0</ele>
        <time>2016-07-25T16:33:04Z</time>
      </trkpt>
      <trkpt lat="41.122783" lon="-3.658617">
        <ele>2702.0</ele>
        <time>2016-07-25T16:33:05Z</time>
      </trkpt>
      <trkpt lat="41.122817" lon="-3.658650">
        <ele>2702.0</ele>
        <time>2016-07-25T16:33:06Z</time>
      </trkpt>
      <trkpt lat="41.122867" lon="-3.658683">
        <ele>2703.0</ele>
        <time>2016-07-25T16:33:07Z</time>
      </trkpt>
      <trkpt lat="41.122900" lon="-3.658733">
        <ele>2706.0</ele>
        <time>2016-07-25T16:33:08Z</time>
      </trkpt>
      <trkpt lat="41.122950" lon="-3.658767">
        <ele>2710.0</ele>
        <time>2016-07-25T16:33:09Z</time>
      </trkpt>
      <trkpt lat="41.122983" lon="-3.658800">
        <ele>2715.0</ele>
        <time>2016-07-25T16:33:10Z</time>
      </trkpt>
      <trkpt lat="41.123000" lon="-3.658817">
        <ele>2720.0</ele>
        <time>2016-07-25T16:33:11Z</time>
      </trkpt>
      <trkpt lat="41.123017" lon="-3.658850">
        <ele>2724.0</ele>
        <time>2016-07-25T16:33:12Z</time>
      </trkpt>
      <trkpt lat="41.123033" lon="-3.658883">
        <ele>2726.0</ele>
        <time>2016-07-25T16:33:13Z</time>
      </trkpt>
      <trkpt lat="41.123067" lon="-3.658933">
        <ele>2728.0</ele>
        <time>2016-07-25T16:33:14Z</time>
      </trkpt>
      <trkpt lat="41.123117" lon="-3.658967">
        <ele>2732.0</ele>
        <time>2016-07-25T16:33:15Z</time>
      </trkpt>
      <trkpt lat="41.123133" lon="-3.659000">
        <ele>2737.0</ele>
        <time>2016-07-25T16:33:16Z</time>
      </trkpt>
      <trkpt lat="41.123167" lon="-3.659017">
        <ele>2741.0</ele>
        <time>2016-07-25T16:33:17Z</time>
      </trkpt>
      <trkpt lat="41.123183" lon="-3.659033">
        <ele>2745.0</ele>
        <time>2016-07-25T16:33:18Z</time>
      </trkpt>
      <trkpt lat="41.123217" lon="-3.659083">
        <ele>2748.0</ele>
        <time>2016-07-25T16:33:19Z</time>
      </trkpt>
      <trkpt lat="41.123233" lon="-3.659133">
        <ele>2751.0</ele>
        <time>2016-07-25T16:33:20Z</time>
      </trkpt>
      <trkpt lat="41.123250" lon="-3.659183">
        <ele>2755.0</ele>
        <time>2016-07-25T16:33:21Z</time>
      </trkpt>
      <trkpt lat="41.123283" lon="-3.659217">
        <ele>2759.0</ele>
        <time>2016-07-25T16:33:22Z</time>
      </trkpt>
      <trkpt lat="41.123317" lon="-3.659267">
        <ele>2764.0</ele>
        <time>2016-07-25T16:33:23Z</time>
      </trkpt>
      <trkpt lat="41.123333" lon="-3.659300">
        <ele>2768.0</ele>
        <time>2016-07-25T16:33:24Z</time>
      </trkpt>
      <trkpt lat="41.123367" lon="-3.659350">
        <ele>2771.0</ele>
        <time>2016-07-25T16:33:25Z</time>
      </trkpt>
      <trkpt lat="41.123383" lon="-3.659383">
        <ele>2774.0</ele>
        <time>2016-07-25T16:33:26Z</time>
      </trkpt>
      <trkpt lat="41.123417" lon="-3.659433">
        <ele>2777.0</ele>
        <time>2016-07-25T16:33:27Z</time>
      </trkpt>
      <trkpt lat="41.123450" lon="-3.659483">
        <ele>2780.0</ele>
        <time>2016-07-25T16:33:28Z</time>
      </trkpt>
      <trkpt lat="41.123483" lon="-3.659517">
        <ele>2783.0</ele>
        <time>2016-07-25T16:33:29Z</time>
      </trkpt>
      <trkpt lat="41.123517" lon="-3.659533">
        <ele>2786.0</ele>
        <time>2016-07-25T16:33:30Z</time>
      </trkpt>
      <trkpt lat="41.123567" lon="-3.659567">
        <ele>2788.0</ele>
        <time>2016-07-25T16:33:31Z</time>
      </trkpt>
      <trkpt lat="41.123600" lon="-3.659600">
        <ele>2790.0</ele>
        <time>2016-07-25T16:33:32Z</time>
      </trkpt>
      <trkpt lat="41.123650" lon="-3.659650">
        <ele>2793.0</ele>
        <time>2016-07-25T16:33:33Z</time>
      </trkpt>
      <trkpt lat="41.123700" lon="-3.659700">
        <ele>2796.0</ele>
        <time>2016-07-25T16:33:34Z</time>
      </trkpt>
      <trkpt lat="41.123733" lon="-3.659733">
        <ele>2799.0</ele>
        <time>2016-07-25T16:33:35Z</time>
      </trkpt>
      <trkpt lat="41.123783" lon="-3.659767">
        <ele>2803.0</ele>
        <time>2016-07-25T16:33:36Z</time>
      </trkpt>
      <trkpt lat="41.123817" lon="-3.659817">
        <ele>2806.0</ele>
        <time>2016-07-25T16:33:37Z</time>
      </trkpt>
      <trkpt lat="41.123867" lon="-3.659850">
        <ele>2808.0</ele>
        <time>2016-07-25T16:33:38Z</time>
      </trkpt>
      <trkpt lat="41.123883" lon="-3.659900">
        <ele>2811.0</ele>
        <time>2016-07-25T16:33:39Z</time>
      </trkpt>
      <trkpt lat="41.123917" lon="-3.659933">
        <ele>2813.0</ele>
        <time>2016-07-25T16:33:40Z</time>
      </trkpt>
      <trkpt lat="41.123933" lon="-3.659950">
        <ele>2815.0</ele>
        <time>2016-07-25T16:33:41Z</time>
      </trkpt>
      <trkpt lat="41.123950" lon="-3.659950">
        <ele>2815.0</ele>
        <time>2016-07-25T16:33:42Z</time>
      </trkpt>
      <trkpt lat="41.123967" lon="-3.659950">
        <ele>2814.0</ele>
        <time>2016-07-25T16:33:43Z</time>
      </trkpt>
      <trkpt lat="41.123983" lon="-3.659967">
        <ele>2811.0</ele>
        <time>2016-07-25T16:33:44Z</time>
      </trkpt>
      <trkpt lat="41.124017" lon="-3.660017">
        <ele>2809.0</ele>
        <time>2016-07-25T16:33:45Z</time>
      </trkpt>
      <trkpt lat="41.124033" lon="-3.660067">
        <ele>2808.0</ele>
        <time>2016-07-25T16:33:46Z</time>
      </trkpt>
      <trkpt lat="41.124050" lon="-3.660100">
        <ele>2809.0</ele>
        <time>2016-07-25T16:33:47Z</time>
      </trkpt>
      <trkpt lat="41.124050" lon="-3.660133">
        <ele>2809.0</ele>
        <time>2016-07-25T16:33:48Z</time>
      </trkpt>
      <trkpt lat="41.124067" lon="-3.660150">
        <ele>2807.0</ele>
        <time>2016-07-25T16:33:49Z</time>
      </trkpt>
      <trkpt lat="41.124083" lon="-3.660183">
        <ele>2804.0</ele>
        <time>2016-07-25T16:33:50Z</time>
      </trkpt>
      <trkpt lat="41.124117" lon="-3.660233">
        <ele>2801.0</ele>
        <time>2016-07-25T16:33:51Z</time>
      </trkpt>
      <trkpt lat="41.124167" lon="-3.660283">
        <ele>2800.0</ele>
        <time>2016-07-25T16:33:52Z</time>
      </trkpt>
      <trkpt lat="41.124183" lon="-3.660350">
        <ele>2803.0</ele>
        <time>2016-07-25T16:33:53Z</time>
      </trkpt>
      <trkpt lat="41.124183" lon="-3.660383">
        <ele>2805.0</ele>
        <time>2016-07-25T16:33:54Z</time>
      </trkpt>
      <trkpt lat="41.124200" lon="-3.660400">
        <ele>2806.0</ele>
        <time>2016-07-25T16:33:55Z</time>
      </trkpt>
      <trkpt lat="41.124200" lon="-3.660417">
        <ele>2804.0</ele>
        <time>2016-07-25T16:33:56Z</time>
      </trkpt>
      <trkpt lat="41.124217" lon="-3.660450">
        <ele>2801.0</ele>
        <time>2016-07-25T16:33:57Z</time>
      </trkpt>
      <trkpt lat="41.124250" lon="-3.660517">
        <ele>2798.0</ele>
        <time>2016-07-25T16:33:58Z</time>
      </trkpt>
      <trkpt lat="41.124283" lon="-3.660583">
        <ele>2797.0</ele>
        <time>2016-07-25T16:33:59Z</time>
      </trkpt>
      <trkpt lat="41.124317" lon="-3.660633">
        <ele>2799.0</ele>
        <time>2016-07-25T16:34:00Z</time>
      </trkpt>
      <trkpt lat="41.124333" lon="-3.660667">
        <ele>2800.0</ele>
        <time>2016-07-25T16:34:01Z</time>
      </trkpt>
      <trkpt lat="41.124350" lon="-3.660700">
        <ele>2800.0</ele>
        <time>2016-07-25T16:34:02Z</time>
      </trkpt>
      <trkpt lat="41.124367" lon="-3.660717">
        <ele>2799.0</ele>
        <time>2016-07-25T16:34:03Z</time>
      </trkpt>
      <trkpt lat="41.124400" lon="-3.660750">
        <ele>2797.0</ele>
        <time>2016-07-25T16:34:04Z</time>
      </trkpt>
      <trkpt lat="41.124417" lon="-3.660800">
        <ele>2796.0</ele>
        <time>2016-07-25T16:34:05Z</time>
      </trkpt>
      <trkpt lat="41.124450" lon="-3.660867">
        <ele>2797.0</ele>
        <time>2016-07-25T16:34:06Z</time>
      </trkpt>
      <trkpt lat="41.124450" lon="-3.660900">
        <ele>2798.0</ele>
        <time>2016-07-25T16:34:07Z</time>
      </trkpt>
      <trkpt lat="41.124450" lon="-3.660933">
        <ele>2799.0</ele>
        <time>2016-07-25T16:34:08Z</time>
      </trkpt>
      <trkpt lat="41.124450" lon="-3.660967">
        <ele>2799.0</ele>
        <time>2016-07-25T16:34:09Z</time>
      </trkpt>
      <trkpt lat="41.124467" lon="-3.661017">
        <ele>2798.0</ele>
        <time>2016-07-25T16:34:10Z</time>
      </trkpt>
      <trkpt lat="41.124500" lon="-3.661067">
        <ele>2798.0</ele>
        <time>2016-07-25T16:34:11Z</time>
      </trkpt>
      <trkpt lat="41.124517" lon="-3.661117">
        <ele>2799.0</ele>
        <time>2016-07-25T16:34:12Z</time>
      </trkpt>
      <trkpt lat="41.124533" lon="-3.661167">
        <ele>2801.0</ele>
        <time>2016-07-25T16:34:13Z</time>
      </trkpt>
      <trkpt lat="41.124517" lon="-3.661200">
        <ele>2802.0</ele>
        <time>2016-07-25T16:34:14Z</time>
      </trkpt>
      <trkpt lat="41.124517" lon="-3.661233">
        <ele>2802.0</ele>
        <time>2016-07-25T16:34:15Z</time>
      </trkpt>
      <trkpt lat="41.124533" lon="-3.661283">
        <ele>2800.0</ele>
        <time>2016-07-25T16:34:16Z</time>
      </trkpt>
      <trkpt lat="41.124550" lon="-3.661333">
        <ele>2799.0</ele>
        <time>2016-07-25T16:34:17Z</time>
      </trkpt>
      <trkpt lat="41.124567" lon="-3.661400">
        <ele>2799.0</ele>
        <time>2016-07-25T16:34:18Z</time>
      </trkpt>
      <trkpt lat="41.124583" lon="-3.661450">
        <ele>2801.0</ele>
        <time>2016-07-25T16:34:19Z</time>
      </trkpt>
      <trkpt lat="41.124583" lon="-3.661500">
        <ele>2802.0</ele>
        <time>2016-07-25T16:34:20Z</time>
      </trkpt>
      <trkpt lat="41.124583" lon="-3.661533">
        <ele>2802.0</ele>
        <time>2016-07-25T16:34:21Z</time>
      </trkpt>
      <trkpt lat="41.124583" lon="-3.661567">
        <ele>2800.0</ele>
        <time>2016-07-25T16:34:22Z</time>
      </trkpt>
      <trkpt lat="41.124617" lon="-3.661617">
        <ele>2797.0</ele>
        <time>2016-07-25T16:34:23Z</time>
      </trkpt>
      <trkpt lat="41.124633" lon="-3.661683">
        <ele>2795.0</ele>
        <time>2016-07-25T16:34:24Z</time>
      </trkpt>
      <trkpt lat="41.124667" lon="-3.661767">
        <ele>2795.0</ele>
        <time>2016-07-25T16:34:25Z</time>
      </trkpt>
      <trkpt lat="41.124683" lon="-3.661833">
        <ele>2795.0</ele>
        <time>2016-07-25T16:34:26Z</time>
      </trkpt>
      <trkpt lat="41.124683" lon="-3.661900">
        <ele>2796.0</ele>
        <time>2016-07-25T16:34:27Z</time>
      </trkpt>
      <trkpt lat="41.124683" lon="-3.661967">
        <ele>2796.0</ele>
        <time>2016-07-25T16:34:28Z</time>
      </trkpt>
      <trkpt lat="41.124683" lon="-3.662033">
        <ele>2794.0</ele>
        <time>2016-07-25T16:34:29Z</time>
      </trkpt>
      <trkpt lat="41.124717" lon="-3.662117">
        <ele>2793.0</ele>
        <time>2016-07-25T16:34:30Z</time>
      </trkpt>
      <trkpt lat="41.124750" lon="-3.662183">
        <ele>2794.0</ele>
        <time>2016-07-25T16:34:31Z</time>
      </trkpt>
      <trkpt lat="41.124767" lon="-3.662250">
        <ele>2797.0</ele>
        <time>2016-07-25T16:34:32Z</time>
      </trkpt>
      <trkpt lat="41.124767" lon="-3.662300">
        <ele>2800.0</ele>
        <time>2016-07-25T16:34:33Z</time>
      </trkpt>
      <trkpt lat="41.124767" lon="-3.662350">
        <ele>2801.0</ele>
        <time>2016-07-25T16:34:34Z</time>
      </trkpt>
      <trkpt lat="41.124767" lon="-3.662417">
        <ele>2800.0</ele>
        <time>2016-07-25T16:34:35Z</time>
      </trkpt>
      <trkpt lat="41.124783" lon="-3.662500">
        <ele>2799.0</ele>
        <time>2016-07-25T16:34:36Z</time>
      </trkpt>
      <trkpt lat="41.124800" lon="-3.662600">
        <ele>2800.0</ele>
        <time>2016-07-25T16:34:37Z</time>
      </trkpt>
      <trkpt lat="41.124800" lon="-3.662683">
        <ele>2803.0</ele>
        <time>2016-07-25T16:34:38Z</time>
      </trkpt>
      <trkpt lat="41.124800" lon="-3.662733">
        <ele>2808.0</ele>
        <time>2016-07-25T16:34:39Z</time>
      </trkpt>
      <trkpt lat="41.124800" lon="-3.662783">
        <ele>2810.0</ele>
        <time>2016-07-25T16:34:40Z</time>
      </trkpt>
      <trkpt lat="41.124800" lon="-3.662817">
        <ele>2811.0</ele>
        <time>2016-07-25T16:34:41Z</time>
      </trkpt>
      <trkpt lat="41.124817" lon="-3.662883">
        <ele>2811.0</ele>
        <time>2016-07-25T16:34:42Z</time>
      </trkpt>
      <trkpt lat="41.124850" lon="-3.662950">
        <ele>2812.0</ele>
        <time>2016-07-25T16:34:43Z</time>
      </trkpt>
      <trkpt lat="41.124867" lon="-3.663033">
        <ele>2814.0</ele>
        <time>2016-07-25T16:34:44Z</time>
      </trkpt>
      <trkpt lat="41.124883" lon="-3.663100">
        <ele>2818.0</ele>
        <time>2016-07-25T16:34:45Z</time>
      </trkpt>
      <trkpt lat="41.124900" lon="-3.663150">
        <ele>2821.0</ele>
        <time>2016-07-25T16:34:46Z</time>
      </trkpt>
      <trkpt lat="41.124917" lon="-3.663200">
        <ele>2822.0</ele>
        <time>2016-07-25T16:34:47Z</time>
      </trkpt>
      <trkpt lat="41.124933" lon="-3.663267">
        <ele>2823.0</ele>
        <time>2016-07-25T16:34:48Z</time>
      </trkpt>
      <trkpt lat="41.124967" lon="-3.663350">
        <ele>2823.0</ele>
        <time>2016-07-25T16:34:49Z</time>
      </trkpt>
      <trkpt lat="41.124983" lon="-3.663433">
        <ele>2826.0</ele>
        <time>2016-07-25T16:34:50Z</time>
      </trkpt>
      <trkpt lat="41.125000" lon="-3.663517">
        <ele>2828.0</ele>
        <time>2016-07-25T16:34:51Z</time>
      </trkpt>
      <trkpt lat="41.125017" lon="-3.663583">
        <ele>2831.0</ele>
        <time>2016-07-25T16:34:52Z</time>
      </trkpt>
      <trkpt lat="41.125033" lon="-3.663650">
        <ele>2832.0</ele>
        <time>2016-07-25T16:34:53Z</time>
      </trkpt>
      <trkpt lat="41.125050" lon="-3.663733">
        <ele>2833.0</ele>
        <time>2016-07-25T16:34:54Z</time>
      </trkpt>
      <trkpt lat="41.125067" lon="-3.663817">
        <ele>2834.0</ele>
        <time>2016-07-25T16:34:55Z</time>
      </trkpt>
      <trkpt lat="41.125100" lon="-3.663883">
        <ele>2834.0</ele>
        <time>2016-07-25T16:34:56Z</time>
      </trkpt>
      <trkpt lat="41.125117" lon="-3.663967">
        <ele>2834.0</ele>
        <time>2016-07-25T16:34:57Z</time>
      </trkpt>
      <trkpt lat="41.125133" lon="-3.664067">
        <ele>2834.0</ele>
        <time>2016-07-25T16:34:58Z</time>
      </trkpt>
      <trkpt lat="41.125133" lon="-3.664167">
        <ele>2835.0</ele>
        <time>2016-07-25T16:34:59Z</time>
      </trkpt>
      <trkpt lat="41.125133" lon="-3.664250">
        <ele>2836.0</ele>
        <time>2016-07-25T16:35:00Z</time>
      </trkpt>
      <trkpt lat="41.125150" lon="-3.664333">
        <ele>2836.0</ele>
        <time>2016-07-25T16:35:01Z</time>
      </trkpt>
      <trkpt lat="41.125167" lon="-3.664417">
        <ele>2836.0</ele>
        <time>2016-07-25T16:35:02Z</time>
      </trkpt>
      <trkpt lat="41.125167" lon="-3.664500">
        <ele>2836.0</ele>
        <time>2016-07-25T16:35:03Z</time>
      </trkpt>
      <trkpt lat="41.125183" lon="-3.664567">
        <ele>2835.0</ele>
        <time>2016-07-25T16:35:04Z</time>
      </trkpt>
      <trkpt lat="41.125200" lon="-3.664650">
        <ele>2834.0</ele>
        <time>2016-07-25T16:35:05Z</time>
      </trkpt>
      <trkpt lat="41.125200" lon="-3.664717">
        <ele>2833.0</ele>
        <time>2016-07-25T16:35:06Z</time>
      </trkpt>
      <trkpt lat="41.125217" lon="-3.664800">
        <ele>2831.0</ele>
        <time>2016-07-25T16:35:07Z</time>
      </trkpt>
      <trkpt lat="41.125233" lon="-3.664867">
        <ele>2829.0</ele>
        <time>2016-07-25T16:35:08Z</time>
      </trkpt>
      <trkpt lat="41.125250" lon="-3.664950">
        <ele>2828.0</ele>
        <time>2016-07-25T16:35:09Z</time>
      </trkpt>
      <trkpt lat="41.125267" lon="-3.665033">
        <ele>2826.0</ele>
        <time>2016-07-25T16:35:10Z</time>
      </trkpt>
      <trkpt lat="41.125283" lon="-3.665100">
        <ele>2825.0</ele>
        <time>2016-07-25T16:35:11Z</time>
      </trkpt>
      <trkpt lat="41.125300" lon="-3.665167">
        <ele>2824.0</ele>
        <time>2016-07-25T16:35:12Z</time>
      </trkpt>
      <trkpt lat="41.125317" lon="-3.665250">
        <ele>2822.0</ele>
        <time>2016-07-25T16:35:13Z</time>
      </trkpt>
      <trkpt lat="41.125333" lon="-3.665317">
        <ele>2819.0</ele>
        <time>2016-07-25T16:35:14Z</time>
      </trkpt>
      <trkpt lat="41.125350" lon="-3.665383">
        <ele>2816.0</ele>
        <time>2016-07-25T16:35:15Z</time>
      </trkpt>
      <trkpt lat="41.125367" lon="-3.665467">
        <ele>2814.0</ele>
        <time>2016-07-25T16:35:16Z</time>
      </trkpt>
      <trkpt lat="41.125383" lon="-3.665533">
        <ele>2811.0</ele>
        <time>2016-07-25T16:35:17Z</time>
      </trkpt>
      <trkpt lat="41.125400" lon="-3.665600">
        <ele>2809.0</ele>
        <time>2016-07-25T16:35:18Z</time>
      </trkpt>
      <trkpt lat="41.125433" lon="-3.665650">
        <ele>2806.0</ele>
        <time>2016-07-25T16:35:19Z</time>
      </trkpt>
      <trkpt lat="41.125450" lon="-3.665717">
        <ele>2803.0</ele>
        <time>2016-07-25T16:35:20Z</time>
      </trkpt>
      <trkpt lat="41.125467" lon="-3.665800">
        <ele>2800.0</ele>
        <time>2016-07-25T16:35:21Z</time>
      </trkpt>
      <trkpt lat="41.125483" lon="-3.665867">
        <ele>2798.0</ele>
        <time>2016-07-25T16:35:22Z</time>
      </trkpt>
      <trkpt lat="41.125500" lon="-3.665933">
        <ele>2795.0</ele>
        <time>2016-07-25T16:35:23Z</time>
      </trkpt>
      <trkpt lat="41.125517" lon="-3.666017">
        <ele>2793.0</ele>
        <time>2016-07-25T16:35:24Z</time>
      </trkpt>
      <trkpt lat="41.125517" lon="-3.666083">
        <ele>2791.0</ele>
        <time>2016-07-25T16:35:25Z</time>
      </trkpt>
      <trkpt lat="41.125517" lon="-3.666167">
        <ele>2788.0</ele>
        <time>2016-07-25T16:35:26Z</time>
      </trkpt>
      <trkpt lat="41.125517" lon="-3.666250">
        <ele>2785.0</ele>
        <time>2016-07-25T16:35:27Z</time>
      </trkpt>
      <trkpt lat="41.125517" lon="-3.666350">
        <ele>2783.0</ele>
        <time>2016-07-25T16:35:28Z</time>
      </trkpt>
      <trkpt lat="41.125500" lon="-3.666433">
        <ele>2781.0</ele>
        <time>2016-07-25T16:35:29Z</time>
      </trkpt>
      <trkpt lat="41.125500" lon="-3.666500">
        <ele>2780.0</ele>
        <time>2016-07-25T16:35:30Z</time>
      </trkpt>
      <trkpt lat="41.125483" lon="-3.666567">
        <ele>2779.0</ele>
        <time>2016-07-25T16:35:31Z</time>
      </trkpt>
      <trkpt lat="41.125467" lon="-3.666650">
        <ele>2777.0</ele>
        <time>2016-07-25T16:35:32Z</time>
      </trkpt>
      <trkpt lat="41.125467" lon="-3.666717">
        <ele>2775.0</ele>
        <time>2016-07-25T16:35:33Z</time>
      </trkpt>
      <trkpt lat="41.125467" lon="-3.666800">
        <ele>2772.0</ele>
        <time>2016-07-25T16:35:34Z</time>
      </trkpt>
      <trkpt lat="41.125467" lon="-3.666883">
        <ele>2770.0</ele>
        <time>2016-07-25T16:35:35Z</time>
      </trkpt>
      <trkpt lat="41.125483" lon="-3.666983">
        <ele>2769.0</ele>
        <time>2016-07-25T16:35:36Z</time>
      </trkpt>
      <trkpt lat="41.125483" lon="-3.667067">
        <ele>2768.0</ele>
        <time>2016-07-25T16:35:37Z</time>
      </trkpt>
      <trkpt lat="41.125467" lon="-3.667133">
        <ele>2766.0</ele>
        <time>2016-07-25T16:35:38Z</time>
      </trkpt>
      <trkpt lat="41.125467" lon="-3.667200">
        <ele>2765.0</ele>
        <time>2016-07-25T16:35:39Z</time>
      </trkpt>
      <trkpt lat="41.125483" lon="-3.667267">
        <ele>2762.0</ele>
        <time>2016-07-25T16:35:40Z</time>
      </trkpt>
      <trkpt lat="41.125500" lon="-3.667333">
        <ele>2758.0</ele>
        <time>2016-07-25T16:35:41Z</time>
      </trkpt>
      <trkpt lat="41.125517" lon="-3.667400">
        <ele>2756.0</ele>
        <time>2016-07-25T16:35:42Z</time>
      </trkpt>
      <trkpt lat="41.125533" lon="-3.667483">
        <ele>2755.0</ele>
        <time>2016-07-25T16:35:43Z</time>
      </trkpt>
      <trkpt lat="41.125550" lon="-3.667550">
        <ele>2754.0</ele>
        <time>2016-07-25T16:35:44Z</time>
      </trkpt>
      <trkpt lat="41.125567" lon="-3.667617">
        <ele>2753.0</ele>
        <time>2016-07-25T16:35:45Z</time>
      </trkpt>
      <trkpt lat="41.125583" lon="-3.667683">
        <ele>2751.0</ele>
        <time>2016-07-25T16:35:46Z</time>
      </trkpt>
      <trkpt lat="41.125600" lon="-3.667767">
        <ele>2749.0</ele>
        <time>2016-07-25T16:35:47Z</time>
      </trkpt>
      <trkpt lat="41.125633" lon="-3.667833">
        <ele>2748.0</ele>
        <time>2016-07-25T16:35:48Z</time>
      </trkpt>
      <trkpt lat="41.125667" lon="-3.667900">
        <ele>2747.0</ele>
        <time>2016-07-25T16:35:49Z</time>
      </trkpt>
      <trkpt lat="41.125683" lon="-3.667967">
        <ele>2747.0</ele>
        <time>2016-07-25T16:35:50Z</time>
      </trkpt>
      <trkpt lat="41.125717" lon="-3.668000">
        <ele>2747.0</ele>
        <time>2016-07-25T16:35:51Z</time>
      </trkpt>
      <trkpt lat="41.125733" lon="-3.668050">
        <ele>2745.0</ele>
        <time>2016-07-25T16:35:52Z</time>
      </trkpt>
      <trkpt lat="41.125767" lon="-3.668083">
        <ele>2743.0</ele>
        <time>2016-07-25T16:35:53Z</time>
      </trkpt>
      <trkpt lat="41.125817" lon="-3.668133">
        <ele>2740.0</ele>
        <time>2016-07-25T16:35:54Z</time>
      </trkpt>
      <trkpt lat="41.125867" lon="-3.668167">
        <ele>2739.0</ele>
        <time>2016-07-25T16:35:55Z</time>
      </trkpt>
      <trkpt lat="41.125900" lon="-3.668217">
        <ele>2738.0</ele>
        <time>2016-07-25T16:35:56Z</time>
      </trkpt>
      <trkpt lat="41.125933" lon="-3.668283">
        <ele>2738.0</ele>
        <time>2016-07-25T16:35:57Z</time>
      </trkpt>
      <trkpt lat="41.125933" lon="-3.668333">
        <ele>2737.0</ele>
        <time>2016-07-25T16:35:58Z</time>
      </trkpt>
      <trkpt lat="41.125950" lon="-3.668400">
        <ele>2735.0</ele>
        <time>2016-07-25T16:35:59Z</time>
      </trkpt>
      <trkpt lat="41.125983" lon="-3.668467">
        <ele>2733.0</ele>
        <time>2016-07-25T16:36:00Z</time>
      </trkpt>
      <trkpt lat="41.126017" lon="-3.668550">
        <ele>2731.0</ele>
        <time>2016-07-25T16:36:01Z</time>
      </trkpt>
      <trkpt lat="41.126033" lon="-3.668617">
        <ele>2730.0</ele>
        <time>2016-07-25T16:36:02Z</time>
      </trkpt>
      <trkpt lat="41.126067" lon="-3.668700">
        <ele>2729.0</ele>
        <time>2016-07-25T16:36:03Z</time>
      </trkpt>
      <trkpt lat="41.126083" lon="-3.668767">
        <ele>2727.0</ele>
        <time>2016-07-25T16:36:04Z</time>
      </trkpt>
      <trkpt lat="41.126117" lon="-3.668833">
        <ele>2725.0</ele>
        <time>2016-07-25T16:36:05Z</time>
      </trkpt>
      <trkpt lat="41.126150" lon="-3.668917">
        <ele>2723.0</ele>
        <time>2016-07-25T16:36:06Z</time>
      </trkpt>
      <trkpt lat="41.126183" lon="-3.668983">
        <ele>2721.0</ele>
        <time>2016-07-25T16:36:07Z</time>
      </trkpt>
      <trkpt lat="41.126233" lon="-3.669050">
        <ele>2718.0</ele>
        <time>2016-07-25T16:36:08Z</time>
      </trkpt>
      <trkpt lat="41.126267" lon="-3.669117">
        <ele>2716.0</ele>
        <time>2016-07-25T16:36:09Z</time>
      </trkpt>
      <trkpt lat="41.126317" lon="-3.669183">
        <ele>2713.0</ele>
        <time>2016-07-25T16:36:10Z</time>
      </trkpt>
      <trkpt lat="41.126350" lon="-3.669250">
        <ele>2711.0</ele>
        <time>2016-07-25T16:36:11Z</time>
      </trkpt>
      <trkpt lat="41.126383" lon="-3.669317">
        <ele>2709.0</ele>
        <time>2016-07-25T16:36:12Z</time>
      </trkpt>
      <trkpt lat="41.126417" lon="-3.669383">
        <ele>2706.0</ele>
        <time>2016-07-25T16:36:13Z</time>
      </trkpt>
      <trkpt lat="41.126450" lon="-3.669450">
        <ele>2705.0</ele>
        <time>2016-07-25T16:36:14Z</time>
      </trkpt>
      <trkpt lat="41.126467" lon="-3.669500">
        <ele>2703.0</ele>
        <time>2016-07-25T16:36:15Z</time>
      </trkpt>
      <trkpt lat="41.126500" lon="-3.669567">
        <ele>2701.0</ele>
        <time>2016-07-25T16:36:16Z</time>
      </trkpt>
      <trkpt lat="41.126533" lon="-3.669617">
        <ele>2699.0</ele>
        <time>2016-07-25T16:36:17Z</time>
      </trkpt>
      <trkpt lat="41.126567" lon="-3.669683">
        <ele>2696.0</ele>
        <time>2016-07-25T16:36:18Z</time>
      </trkpt>
      <trkpt lat="41.126600" lon="-3.669750">
        <ele>2694.0</ele>
        <time>2016-07-25T16:36:19Z</time>
      </trkpt>
      <trkpt lat="41.126633" lon="-3.669817">
        <ele>2692.0</ele>
        <time>2016-07-25T16:36:20Z</time>
      </trkpt>
      <trkpt lat="41.126667" lon="-3.669883">
        <ele>2691.0</ele>
        <time>2016-07-25T16:36:21Z</time>
      </trkpt>
      <trkpt lat="41.126683" lon="-3.669933">
        <ele>2689.0</ele>
        <time>2016-07-25T16:36:22Z</time>
      </trkpt>
      <trkpt lat="41.126700" lon="-3.670017">
        <ele>2686.0</ele>
        <time>2016-07-25T16:36:23Z</time>
      </trkpt>
      <trkpt lat="41.126717" lon="-3.670083">
        <ele>2684.0</ele>
        <time>2016-07-25T16:36:24Z</time>
      </trkpt>
      <trkpt lat="41.126750" lon="-3.670167">
        <ele>2681.0</ele>
        <time>2016-07-25T16:36:25Z</time>
      </trkpt>
      <trkpt lat="41.126783" lon="-3.670217">
        <ele>2680.0</ele>
        <time>2016-07-25T16:36:26Z</time>
      </trkpt>
      <trkpt lat="41.126833" lon="-3.670283">
        <ele>2679.0</ele>
        <time>2016-07-25T16:36:27Z</time>
      </trkpt>
      <trkpt lat="41.126850" lon="-3.670333">
        <ele>2677.0</ele>
        <time>2016-07-25T16:36:28Z</time>
      </trkpt>
      <trkpt lat="41.126883" lon="-3.670383">
        <ele>2675.0</ele>
        <time>2016-07-25T16:36:29Z</time>
      </trkpt>
      <trkpt lat="41.126900" lon="-3.670450">
        <ele>2673.0</ele>
        <time>2016-07-25T16:36:30Z</time>
      </trkpt>
      <trkpt lat="41.126933" lon="-3.670533">
        <ele>2671.0</ele>
        <time>2016-07-25T16:36:31Z</time>
      </trkpt>
      <trkpt lat="41.126950" lon="-3.670600">
        <ele>2669.0</ele>
        <time>2016-07-25T16:36:32Z</time>
      </trkpt>
      <trkpt lat="41.126983" lon="-3.670667">
        <ele>2668.0</ele>
        <time>2016-07-25T16:36:33Z</time>
      </trkpt>
      <trkpt lat="41.127000" lon="-3.670733">
        <ele>2667.0</ele>
        <time>2016-07-25T16:36:34Z</time>
      </trkpt>
      <trkpt lat="41.127033" lon="-3.670800">
        <ele>2666.0</ele>
        <time>2016-07-25T16:36:35Z</time>
      </trkpt>
      <trkpt lat="41.127050" lon="-3.670867">
        <ele>2664.0</ele>
        <time>2016-07-25T16:36:36Z</time>
      </trkpt>
      <trkpt lat="41.127083" lon="-3.670917">
        <ele>2662.0</ele>
        <time>2016-07-25T16:36:37Z</time>
      </trkpt>
      <trkpt lat="41.127117" lon="-3.670983">
        <ele>2660.0</ele>
        <time>2016-07-25T16:36:38Z</time>
      </trkpt>
      <trkpt lat="41.127167" lon="-3.671050">
        <ele>2658.0</ele>
        <time>2016-07-25T16:36:39Z</time>
      </trkpt>
      <trkpt lat="41.127217" lon="-3.671133">
        <ele>2658.0</ele>
        <time>2016-07-25T16:36:40Z</time>
      </trkpt>
      <trkpt lat="41.127233" lon="-3.671233">
        <ele>2659.0</ele>
        <time>2016-07-25T16:36:41Z</time>
      </trkpt>
      <trkpt lat="41.127250" lon="-3.671300">
        <ele>2660.0</ele>
        <time>2016-07-25T16:36:42Z</time>
      </trkpt>
      <trkpt lat="41.127267" lon="-3.671383">
        <ele>2661.0</ele>
        <time>2016-07-25T16:36:43Z</time>
      </trkpt>
      <trkpt lat="41.127283" lon="-3.671450">
        <ele>2660.0</ele>
        <time>2016-07-25T16:36:44Z</time>
      </trkpt>
      <trkpt lat="41.127300" lon="-3.671533">
        <ele>2659.0</ele>
        <time>2016-07-25T16:36:45Z</time>
      </trkpt>
      <trkpt lat="41.127300" lon="-3.671633">
        <ele>2659.0</ele>
        <time>2016-07-25T16:36:46Z</time>
      </trkpt>
      <trkpt lat="41.127300" lon="-3.671733">
        <ele>2659.0</ele>
        <time>2016-07-25T16:36:47Z</time>
      </trkpt>
      <trkpt lat="41.127283" lon="-3.671833">
        <ele>2659.0</ele>
        <time>2016-07-25T16:36:48Z</time>
      </trkpt>
      <trkpt lat="41.127283" lon="-3.671933">
        <ele>2659.0</ele>
        <time>2016-07-25T16:36:49Z</time>
      </trkpt>
      <trkpt lat="41.127267" lon="-3.672017">
        <ele>2657.0</ele>
        <time>2016-07-25T16:36:50Z</time>
      </trkpt>
      <trkpt lat="41.127267" lon="-3.672117">
        <ele>2655.0</ele>
        <time>2016-07-25T16:36:51Z</time>
      </trkpt>
      <trkpt lat="41.127267" lon="-3.672217">
        <ele>2653.0</ele>
        <time>2016-07-25T16:36:52Z</time>
      </trkpt>
      <trkpt lat="41.127250" lon="-3.672317">
        <ele>2650.0</ele>
        <time>2016-07-25T16:36:53Z</time>
      </trkpt>
      <trkpt lat="41.127250" lon="-3.672433">
        <ele>2648.0</ele>
        <time>2016-07-25T16:36:54Z</time>
      </trkpt>
      <trkpt lat="41.127250" lon="-3.672517">
        <ele>2647.0</ele>
        <time>2016-07-25T16:36:55Z</time>
      </trkpt>
      <trkpt lat="41.127267" lon="-3.672600">
        <ele>2645.0</ele>
        <time>2016-07-25T16:36:56Z</time>
      </trkpt>
      <trkpt lat="41.127267" lon="-3.672667">
        <ele>2643.0</ele>
        <time>2016-07-25T16:36:57Z</time>
      </trkpt>
      <trkpt lat="41.127283" lon="-3.672717">
        <ele>2640.0</ele>
        <time>2016-07-25T16:36:58Z</time>
      </trkpt>
      <trkpt lat="41.127283" lon="-3.672800">
        <ele>2635.0</ele>
        <time>2016-07-25T16:36:59Z</time>
      </trkpt>
      <trkpt lat="41.127300" lon="-3.672883">
        <ele>2630.0</ele>
        <time>2016-07-25T16:37:00Z</time>
      </trkpt>
      <trkpt lat="41.127300" lon="-3.673000">
        <ele>2626.0</ele>
        <time>2016-07-25T16:37:01Z</time>
      </trkpt>
      <trkpt lat="41.127317" lon="-3.673100">
        <ele>2624.0</ele>
        <time>2016-07-25T16:37:02Z</time>
      </trkpt>
      <trkpt lat="41.127317" lon="-3.673183">
        <ele>2623.0</ele>
        <time>2016-07-25T16:37:03Z</time>
      </trkpt>
      <trkpt lat="41.127317" lon="-3.673267">
        <ele>2620.0</ele>
        <time>2016-07-25T16:37:04Z</time>
      </trkpt>
      <trkpt lat="41.127317" lon="-3.673350">
        <ele>2618.0</ele>
        <time>2016-07-25T16:37:05Z</time>
      </trkpt>
      <trkpt lat="41.127317" lon="-3.673450">
        <ele>2614.0</ele>
        <time>2016-07-25T16:37:06Z</time>
      </trkpt>
      <trkpt lat="41.127333" lon="-3.673550">
        <ele>2612.0</ele>
        <time>2016-07-25T16:37:07Z</time>
      </trkpt>
      <trkpt lat="41.127333" lon="-3.673650">
        <ele>2610.0</ele>
        <time>2016-07-25T16:37:08Z</time>
      </trkpt>
      <trkpt lat="41.127317" lon="-3.673733">
        <ele>2609.0</ele>
        <time>2016-07-25T16:37:09Z</time>
      </trkpt>
      <trkpt lat="41.127317" lon="-3.673817">
        <ele>2608.0</ele>
        <time>2016-07-25T16:37:10Z</time>
      </trkpt>
      <trkpt lat="41.127300" lon="-3.673900">
        <ele>2605.0</ele>
        <time>2016-07-25T16:37:11Z</time>
      </trkpt>
      <trkpt lat="41.127317" lon="-3.673983">
        <ele>2602.0</ele>
        <time>2016-07-25T16:37:12Z</time>
      </trkpt>
      <trkpt lat="41.127333" lon="-3.674067">
        <ele>2598.0</ele>
        <time>2016-07-25T16:37:13Z</time>
      </trkpt>
      <trkpt lat="41.127350" lon="-3.674183">
        <ele>2595.0</ele>
        <time>2016-07-25T16:37:14Z</time>
      </trkpt>
      <trkpt lat="41.127350" lon="-3.674283">
        <ele>2594.0</ele>
        <time>2016-07-25T16:37:15Z</time>
      </trkpt>
      <trkpt lat="41.127333" lon="-3.674383">
        <ele>2594.0</ele>
        <time>2016-07-25T16:37:16Z</time>
      </trkpt>
      <trkpt lat="41.127333" lon="-3.674467">
        <ele>2594.0</ele>
        <time>2016-07-25T16:37:17Z</time>
      </trkpt>
      <trkpt lat="41.127333" lon="-3.674533">
        <ele>2593.0</ele>
        <time>2016-07-25T16:37:18Z</time>
      </trkpt>
      <trkpt lat="41.127350" lon="-3.674600">
        <ele>2590.0</ele>
        <time>2016-07-25T16:37:19Z</time>
      </trkpt>
      <trkpt lat="41.127367" lon="-3.674667">
        <ele>2587.0</ele>
        <time>2016-07-25T16:37:20Z</time>
      </trkpt>
      <trkpt lat="41.127383" lon="-3.674750">
        <ele>2584.0</ele>
        <time>2016-07-25T16:37:21Z</time>
      </trkpt>
      <trkpt lat="41.127400" lon="-3.674833">
        <ele>2582.0</ele>
        <time>2016-07-25T16:37:22Z</time>
      </trkpt>
      <trkpt lat="41.127400" lon="-3.674900">
        <ele>2580.0</ele>
        <time>2016-07-25T16:37:23Z</time>
      </trkpt>
      <trkpt lat="41.127417" lon="-3.674967">
        <ele>2579.0</ele>
        <time>2016-07-25T16:37:24Z</time>
      </trkpt>
      <trkpt lat="41.127417" lon="-3.675033">
        <ele>2577.0</ele>
        <time>2016-07-25T16:37:25Z</time>
      </trkpt>
      <trkpt lat="41.127433" lon="-3.675083">
        <ele>2575.0</ele>
        <time>2016-07-25T16:37:26Z</time>
      </trkpt>
      <trkpt lat="41.127467" lon="-3.675167">
        <ele>2572.0</ele>
        <time>2016-07-25T16:37:27Z</time>
      </trkpt>
      <trkpt lat="41.127483" lon="-3.675250">
        <ele>2569.0</ele>
        <time>2016-07-25T16:37:28Z</time>
      </trkpt>
      <trkpt lat="41.127500" lon="-3.675350">
        <ele>2569.0</ele>
        <time>2016-07-25T16:37:29Z</time>
      </trkpt>
      <trkpt lat="41.127517" lon="-3.675433">
        <ele>2569.0</ele>
        <time>2016-07-25T16:37:30Z</time>
      </trkpt>
      <trkpt lat="41.127517" lon="-3.675500">
        <ele>2570.0</ele>
        <time>2016-07-25T16:37:31Z</time>
      </trkpt>
      <trkpt lat="41.127533" lon="-3.675550">
        <ele>2571.0</ele>
        <time>2016-07-25T16:37:32Z</time>
      </trkpt>
      <trkpt lat="41.127550" lon="-3.675567">
        <ele>2571.0</ele>
        <time>2016-07-25T16:37:33Z</time>
      </trkpt>
      <trkpt lat="41.127550" lon="-3.675600">
        <ele>2571.0</ele>
        <time>2016-07-25T16:37:34Z</time>
      </trkpt>
      <trkpt lat="41.127550" lon="-3.675650">
        <ele>2569.0</ele>
        <time>2016-07-25T16:37:35Z</time>
      </trkpt>
      <trkpt lat="41.127567" lon="-3.675717">
        <ele>2567.0</ele>
        <time>2016-07-25T16:37:36Z</time>
      </trkpt>
      <trkpt lat="41.127567" lon="-3.675783">
        <ele>2566.0</ele>
        <time>2016-07-25T16:37:37Z</time>
      </trkpt>
      <trkpt lat="41.127583" lon="-3.675833">
        <ele>2566.0</ele>
        <time>2016-07-25T16:37:38Z</time>
      </trkpt>
      <trkpt lat="41.127583" lon="-3.675867">
        <ele>2567.0</ele>
        <time>2016-07-25T16:37:39Z</time>
      </trkpt>
      <trkpt lat="41.127583" lon="-3.675900">
        <ele>2566.0</ele>
        <time>2016-07-25T16:37:40Z</time>
      </trkpt>
      <trkpt lat="41.127583" lon="-3.675950">
        <ele>2564.0</ele>
        <time>2016-07-25T16:37:41Z</time>
      </trkpt>
      <trkpt lat="41.127600" lon="-3.676000">
        <ele>2561.0</ele>
        <time>2016-07-25T16:37:42Z</time>
      </trkpt>
      <trkpt lat="41.127617" lon="-3.676067">
        <ele>2558.0</ele>
        <time>2016-07-25T16:37:43Z</time>
      </trkpt>
      <trkpt lat="41.127617" lon="-3.676133">
        <ele>2557.0</ele>
        <time>2016-07-25T16:37:44Z</time>
      </trkpt>
      <trkpt lat="41.127633" lon="-3.676183">
        <ele>2557.0</ele>
        <time>2016-07-25T16:37:45Z</time>
      </trkpt>
      <trkpt lat="41.127650" lon="-3.676217">
        <ele>2557.0</ele>
        <time>2016-07-25T16:37:46Z</time>
      </trkpt>
      <trkpt lat="41.127667" lon="-3.676250">
        <ele>2557.0</ele>
        <time>2016-07-25T16:37:47Z</time>
      </trkpt>
      <trkpt lat="41.127683" lon="-3.676300">
        <ele>2556.0</ele>
        <time>2016-07-25T16:37:48Z</time>
      </trkpt>
      <trkpt lat="41.127700" lon="-3.676367">
        <ele>2555.0</ele>
        <time>2016-07-25T16:37:49Z</time>
      </trkpt>
      <trkpt lat="41.127717" lon="-3.676433">
        <ele>2555.0</ele>
        <time>2016-07-25T16:37:50Z</time>
      </trkpt>
      <trkpt lat="41.127717" lon="-3.676500">
        <ele>2557.0</ele>
        <time>2016-07-25T16:37:51Z</time>
      </trkpt>
      <trkpt lat="41.127733" lon="-3.676533">
        <ele>2558.0</ele>
        <time>2016-07-25T16:37:52Z</time>
      </trkpt>
      <trkpt lat="41.127733" lon="-3.676550">
        <ele>2559.0</ele>
        <time>2016-07-25T16:37:53Z</time>
      </trkpt>
      <trkpt lat="41.127733" lon="-3.676583">
        <ele>2557.0</ele>
        <time>2016-07-25T16:37:54Z</time>
      </trkpt>
      <trkpt lat="41.127750" lon="-3.676617">
        <ele>2554.0</ele>
        <time>2016-07-25T16:37:55Z</time>
      </trkpt>
      <trkpt lat="41.127767" lon="-3.676683">
        <ele>2551.0</ele>
        <time>2016-07-25T16:37:56Z</time>
      </trkpt>
      <trkpt lat="41.127800" lon="-3.676767">
        <ele>2549.0</ele>
        <time>2016-07-25T16:37:57Z</time>
      </trkpt>
      <trkpt lat="41.127817" lon="-3.676833">
        <ele>2549.0</ele>
        <time>2016-07-25T16:37:58Z</time>
      </trkpt>
      <trkpt lat="41.127817" lon="-3.676883">
        <ele>2550.0</ele>
        <time>2016-07-25T16:37:59Z</time>
      </trkpt>
      <trkpt lat="41.127817" lon="-3.676900">
        <ele>2549.0</ele>
        <time>2016-07-25T16:38:00Z</time>
      </trkpt>
      <trkpt lat="41.127817" lon="-3.676933">
        <ele>2547.0</ele>
        <time>2016-07-25T16:38:01Z</time>
      </trkpt>
      <trkpt lat="41.127817" lon="-3.676983">
        <ele>2543.0</ele>
        <time>2016-07-25T16:38:02Z</time>
      </trkpt>
      <trkpt lat="41.127833" lon="-3.677050">
        <ele>2538.0</ele>
        <time>2016-07-25T16:38:03Z</time>
      </trkpt>
      <trkpt lat="41.127850" lon="-3.677133">
        <ele>2534.0</ele>
        <time>2016-07-25T16:38:04Z</time>
      </trkpt>
      <trkpt lat="41.127867" lon="-3.677217">
        <ele>2532.0</ele>
        <time>2016-07-25T16:38:05Z</time>
      </trkpt>
      <trkpt lat="41.127883" lon="-3.677267">
        <ele>2532.0</ele>
        <time>2016-07-25T16:38:06Z</time>
      </trkpt>
      <trkpt lat="41.127867" lon="-3.677317">
        <ele>2531.0</ele>
        <time>2016-07-25T16:38:07Z</time>
      </trkpt>
      <trkpt lat="41.127867" lon="-3.677367">
        <ele>2528.0</ele>
        <time>2016-07-25T16:38:08Z</time>
      </trkpt>
      <trkpt lat="41.127867" lon="-3.677433">
        <ele>2523.0</ele>
        <time>2016-07-25T16:38:09Z</time>
      </trkpt>
      <trkpt lat="41.127883" lon="-3.677517">
        <ele>2519.0</ele>
        <time>2016-07-25T16:38:10Z</time>
      </trkpt>
      <trkpt lat="41.127900" lon="-3.677600">
        <ele>2516.0</ele>
        <time>2016-07-25T16:38:11Z</time>
      </trkpt>
      <trkpt lat="41.127917" lon="-3.677667">
        <ele>2515.0</ele>
        <time>2016-07-25T16:38:12Z</time>
      </trkpt>
      <trkpt lat="41.127933" lon="-3.677717">
        <ele>2513.0</ele>
        <time>2016-07-25T16:38:13Z</time>
      </trkpt>
      <trkpt lat="41.127950" lon="-3.677767">
        <ele>2511.0</ele>
        <time>2016-07-25T16:38:14Z</time>
      </trkpt>
      <trkpt lat="41.127983" lon="-3.677833">
        <ele>2507.0</ele>
        <time>2016-07-25T16:38:15Z</time>
      </trkpt>
      <trkpt lat="41.128000" lon="-3.677883">
        <ele>2503.0</ele>
        <time>2016-07-25T16:38:16Z</time>
      </trkpt>
      <trkpt lat="41.128033" lon="-3.677967">
        <ele>2500.0</ele>
        <time>2016-07-25T16:38:17Z</time>
      </trkpt>
      <trkpt lat="41.128067" lon="-3.678033">
        <ele>2498.0</ele>
        <time>2016-07-25T16:38:18Z</time>
      </trkpt>
      <trkpt lat="41.128083" lon="-3.678100">
        <ele>2497.0</ele>
        <time>2016-07-25T16:38:19Z</time>
      </trkpt>
      <trkpt lat="41.128117" lon="-3.678167">
        <ele>2494.0</ele>
        <time>2016-07-25T16:38:20Z</time>
      </trkpt>
      <trkpt lat="41.128133" lon="-3.678233">
        <ele>2490.0</ele>
        <time>2016-07-25T16:38:21Z</time>
      </trkpt>
      <trkpt lat="41.128167" lon="-3.678300">
        <ele>2486.0</ele>
        <time>2016-07-25T16:38:22Z</time>
      </trkpt>
      <trkpt lat="41.128217" lon="-3.678383">
        <ele>2482.0</ele>
        <time>2016-07-25T16:38:23Z</time>
      </trkpt>
      <trkpt lat="41.128233" lon="-3.678483">
        <ele>2480.0</ele>
        <time>2016-07-25T16:38:24Z</time>
      </trkpt>
      <trkpt lat="41.128267" lon="-3.678567">
        <ele>2478.0</ele>
        <time>2016-07-25T16:38:25Z</time>
      </trkpt>
      <trkpt lat="41.128267" lon="-3.678650">
        <ele>2477.0</ele>
        <time>2016-07-25T16:38:26Z</time>
      </trkpt>
      <trkpt lat="41.128283" lon="-3.678717">
        <ele>2474.0</ele>
        <time>2016-07-25T16:38:27Z</time>
      </trkpt>
      <trkpt lat="41.128317" lon="-3.678800">
        <ele>2470.0</ele>
        <time>2016-07-25T16:38:28Z</time>
      </trkpt>
      <trkpt lat="41.128333" lon="-3.678900">
        <ele>2467.0</ele>
        <time>2016-07-25T16:38:29Z</time>
      </trkpt>
      <trkpt lat="41.128350" lon="-3.679000">
        <ele>2463.0</ele>
        <time>2016-07-25T16:38:30Z</time>
      </trkpt>
      <trkpt lat="41.128367" lon="-3.679117">
        <ele>2461.0</ele>
        <time>2016-07-25T16:38:31Z</time>
      </trkpt>
      <trkpt lat="41.128383" lon="-3.679200">
        <ele>2460.0</ele>
        <time>2016-07-25T16:38:32Z</time>
      </trkpt>
      <trkpt lat="41.128383" lon="-3.679300">
        <ele>2458.0</ele>
        <time>2016-07-25T16:38:33Z</time>
      </trkpt>
      <trkpt lat="41.128367" lon="-3.679383">
        <ele>2455.0</ele>
        <time>2016-07-25T16:38:34Z</time>
      </trkpt>
      <trkpt lat="41.128367" lon="-3.679467">
        <ele>2451.0</ele>
        <time>2016-07-25T16:38:35Z</time>
      </trkpt>
      <trkpt lat="41.128367" lon="-3.679567">
        <ele>2447.0</ele>
        <time>2016-07-25T16:38:36Z</time>
      </trkpt>
      <trkpt lat="41.128367" lon="-3.679667">
        <ele>2444.0</ele>
        <time>2016-07-25T16:38:37Z</time>
      </trkpt>
      <trkpt lat="41.128367" lon="-3.679750">
        <ele>2441.0</ele>
        <time>2016-07-25T16:38:38Z</time>
      </trkpt>
      <trkpt lat="41.128367" lon="-3.679850">
        <ele>2438.0</ele>
        <time>2016-07-25T16:38:39Z</time>
      </trkpt>
      <trkpt lat="41.128350" lon="-3.679933">
        <ele>2435.0</ele>
        <time>2016-07-25T16:38:40Z</time>
      </trkpt>
      <trkpt lat="41.128350" lon="-3.680017">
        <ele>2430.0</ele>
        <time>2016-07-25T16:38:41Z</time>
      </trkpt>
      <trkpt lat="41.128350" lon="-3.680117">
        <ele>2426.0</ele>
        <time>2016-07-25T16:38:42Z</time>
      </trkpt>
      <trkpt lat="41.128367" lon="-3.680183">
        <ele>2421.0</ele>
        <time>2016-07-25T16:38:43Z</time>
      </trkpt>
      <trkpt lat="41.128400" lon="-3.680267">
        <ele>2417.0</ele>
        <time>2016-07-25T16:38:44Z</time>
      </trkpt>
      <trkpt lat="41.128433" lon="-3.680333">
        <ele>2412.0</ele>
        <time>2016-07-25T16:38:45Z</time>
      </trkpt>
      <trkpt lat="41.128467" lon="-3.680400">
        <ele>2408.0</ele>
        <time>2016-07-25T16:38:46Z</time>
      </trkpt>
      <trkpt lat="41.128483" lon="-3.680467">
        <ele>2404.0</ele>
        <time>2016-07-25T16:38:47Z</time>
      </trkpt>
      <trkpt lat="41.128483" lon="-3.680550">
        <ele>2399.0</ele>
        <time>2016-07-25T16:38:48Z</time>
      </trkpt>
      <trkpt lat="41.128483" lon="-3.680633">
        <ele>2395.0</ele>
        <time>2016-07-25T16:38:49Z</time>
      </trkpt>
      <trkpt lat="41.128500" lon="-3.680717">
        <ele>2390.0</ele>
        <time>2016-07-25T16:38:50Z</time>
      </trkpt>
      <trkpt lat="41.128500" lon="-3.680783">
        <ele>2385.0</ele>
        <time>2016-07-25T16:38:51Z</time>
      </trkpt>
      <trkpt lat="41.128500" lon="-3.680867">
        <ele>2380.0</ele>
        <time>2016-07-25T16:38:52Z</time>
      </trkpt>
      <trkpt lat="41.128483" lon="-3.680967">
        <ele>2374.0</ele>
        <time>2016-07-25T16:38:53Z</time>
      </trkpt>
      <trkpt lat="41.128467" lon="-3.681067">
        <ele>2369.0</ele>
        <time>2016-07-25T16:38:54Z</time>
      </trkpt>
      <trkpt lat="41.128433" lon="-3.681167">
        <ele>2364.0</ele>
        <time>2016-07-25T16:38:55Z</time>
      </trkpt>
      <trkpt lat="41.128400" lon="-3.681250">
        <ele>2361.0</ele>
        <time>2016-07-25T16:38:56Z</time>
      </trkpt>
      <trkpt lat="41.128367" lon="-3.681333">
        <ele>2358.0</ele>
        <time>2016-07-25T16:38:57Z</time>
      </trkpt>
      <trkpt lat="41.128350" lon="-3.681417">
        <ele>2354.0</ele>
        <time>2016-07-25T16:38:58Z</time>
      </trkpt>
      <trkpt lat="41.128317" lon="-3.681500">
        <ele>2349.0</ele>
        <time>2016-07-25T16:38:59Z</time>
      </trkpt>
      <trkpt lat="41.128300" lon="-3.681600">
        <ele>2346.0</ele>
        <time>2016-07-25T16:39:00Z</time>
      </trkpt>
      <trkpt lat="41.128267" lon="-3.681683">
        <ele>2344.0</ele>
        <time>2016-07-25T16:39:01Z</time>
      </trkpt>
      <trkpt lat="41.128233" lon="-3.681750">
        <ele>2342.0</ele>
        <time>2016-07-25T16:39:02Z</time>
      </trkpt>
      <trkpt lat="41.128217" lon="-3.681817">
        <ele>2339.0</ele>
        <time>2016-07-25T16:39:03Z</time>
      </trkpt>
      <trkpt lat="41.128183" lon="-3.681883">
        <ele>2336.0</ele>
        <time>2016-07-25T16:39:04Z</time>
      </trkpt>
      <trkpt lat="41.128167" lon="-3.681950">
        <ele>2332.0</ele>
        <time>2016-07-25T16:39:05Z</time>
      </trkpt>
      <trkpt lat="41.128133" lon="-3.682050">
        <ele>2330.0</ele>
        <time>2016-07-25T16:39:06Z</time>
      </trkpt>
      <trkpt lat="41.128100" lon="-3.682133">
        <ele>2328.0</ele>
        <time>2016-07-25T16:39:07Z</time>
      </trkpt>
      <trkpt lat="41.128067" lon="-3.682233">
        <ele>2327.0</ele>
        <time>2016-07-25T16:39:08Z</time>
      </trkpt>
      <trkpt lat="41.128017" lon="-3.682283">
        <ele>2328.0</ele>
        <time>2016-07-25T16:39:09Z</time>
      </trkpt>
      <trkpt lat="41.127983" lon="-3.682333">
        <ele>2327.0</ele>
        <time>2016-07-25T16:39:10Z</time>
      </trkpt>
      <trkpt lat="41.127950" lon="-3.682383">
        <ele>2325.0</ele>
        <time>2016-07-25T16:39:11Z</time>
      </trkpt>
      <trkpt lat="41.127933" lon="-3.682433">
        <ele>2321.0</ele>
        <time>2016-07-25T16:39:12Z</time>
      </trkpt>
      <trkpt lat="41.127917" lon="-3.682533">
        <ele>2316.0</ele>
        <time>2016-07-25T16:39:13Z</time>
      </trkpt>
      <trkpt lat="41.127867" lon="-3.682650">
        <ele>2313.0</ele>
        <time>2016-07-25T16:39:14Z</time>
      </trkpt>
      <trkpt lat="41.127833" lon="-3.682733">
        <ele>2313.0</ele>
        <time>2016-07-25T16:39:15Z</time>
      </trkpt>
      <trkpt lat="41.127817" lon="-3.682817">
        <ele>2312.0</ele>
        <time>2016-07-25T16:39:16Z</time>
      </trkpt>
      <trkpt lat="41.127800" lon="-3.682900">
        <ele>2311.0</ele>
        <time>2016-07-25T16:39:17Z</time>
      </trkpt>
      <trkpt lat="41.127817" lon="-3.682983">
        <ele>2309.0</ele>
        <time>2016-07-25T16:39:18Z</time>
      </trkpt>
      <trkpt lat="41.127800" lon="-3.683083">
        <ele>2306.0</ele>
        <time>2016-07-25T16:39:19Z</time>
      </trkpt>
      <trkpt lat="41.127800" lon="-3.683183">
        <ele>2304.0</ele>
        <time>2016-07-25T16:39:20Z</time>
      </trkpt>
      <trkpt lat="41.127783" lon="-3.683317">
        <ele>2301.0</ele>
        <time>2016-07-25T16:39:21Z</time>
      </trkpt>
      <trkpt lat="41.127767" lon="-3.683450">
        <ele>2300.0</ele>
        <time>2016-07-25T16:39:22Z</time>
      </trkpt>
      <trkpt lat="41.127750" lon="-3.683567">
        <ele>2300.0</ele>
        <time>2016-07-25T16:39:23Z</time>
      </trkpt>
      <trkpt lat="41.127750" lon="-3.683700">
        <ele>2300.0</ele>
        <time>2016-07-25T16:39:24Z</time>
      </trkpt>
      <trkpt lat="41.127750" lon="-3.683817">
        <ele>2301.0</ele>
        <time>2016-07-25T16:39:25Z</time>
      </trkpt>
      <trkpt lat="41.127783" lon="-3.683917">
        <ele>2303.0</ele>
        <time>2016-07-25T16:39:26Z</time>
      </trkpt>
      <trkpt lat="41.127783" lon="-3.683983">
        <ele>2305.0</ele>
        <time>2016-07-25T16:39:27Z</time>
      </trkpt>
      <trkpt lat="41.127783" lon="-3.684050">
        <ele>2307.0</ele>
        <time>2016-07-25T16:39:28Z</time>
      </trkpt>
      <trkpt lat="41.127767" lon="-3.684133">
        <ele>2307.0</ele>
        <time>2016-07-25T16:39:29Z</time>
      </trkpt>
      <trkpt lat="41.127767" lon="-3.684233">
        <ele>2306.0</ele>
        <time>2016-07-25T16:39:30Z</time>
      </trkpt>
      <trkpt lat="41.127750" lon="-3.684350">
        <ele>2307.0</ele>
        <time>2016-07-25T16:39:31Z</time>
      </trkpt>
      <trkpt lat="41.127733" lon="-3.684450">
        <ele>2309.0</ele>
        <time>2016-07-25T16:39:32Z</time>
      </trkpt>
      <trkpt lat="41.127717" lon="-3.684550">
        <ele>2311.0</ele>
        <time>2016-07-25T16:39:33Z</time>
      </trkpt>
      <trkpt lat="41.127683" lon="-3.684650">
        <ele>2312.0</ele>
        <time>2016-07-25T16:39:34Z</time>
      </trkpt>
      <trkpt lat="41.127650" lon="-3.684750">
        <ele>2313.0</ele>
        <time>2016-07-25T16:39:35Z</time>
      </trkpt>
      <trkpt lat="41.127617" lon="-3.684867">
        <ele>2313.0</ele>
        <time>2016-07-25T16:39:36Z</time>
      </trkpt>
      <trkpt lat="41.127583" lon="-3.684967">
        <ele>2314.0</ele>
        <time>2016-07-25T16:39:37Z</time>
      </trkpt>
      <trkpt lat="41.127533" lon="-3.685067">
        <ele>2315.0</ele>
        <time>2016-07-25T16:39:38Z</time>
      </trkpt>
      <trkpt lat="41.127500" lon="-3.685150">
        <ele>2317.0</ele>
        <time>2016-07-25T16:39:39Z</time>
      </trkpt>
      <trkpt lat="41.127467" lon="-3.685250">
        <ele>2318.0</ele>
        <time>2016-07-25T16:39:40Z</time>
      </trkpt>
      <trkpt lat="41.127433" lon="-3.685333">
        <ele>2320.0</ele>
        <time>2016-07-25T16:39:41Z</time>
      </trkpt>
      <trkpt lat="41.127400" lon="-3.685417">
        <ele>2321.0</ele>
        <time>2016-07-25T16:39:42Z</time>
      </trkpt>
      <trkpt lat="41.127367" lon="-3.685500">
        <ele>2322.0</ele>
        <time>2016-07-25T16:39:43Z</time>
      </trkpt>
      <trkpt lat="41.127333" lon="-3.685583">
        <ele>2323.0</ele>
        <time>2016-07-25T16:39:44Z</time>
      </trkpt>
      <trkpt lat="41.127283" lon="-3.685650">
        <ele>2324.0</ele>
        <time>2016-07-25T16:39:45Z</time>
      </trkpt>
      <trkpt lat="41.127233" lon="-3.685750">
        <ele>2325.0</ele>
        <time>2016-07-25T16:39:46Z</time>
      </trkpt>
      <trkpt lat="41.127183" lon="-3.685833">
        <ele>2326.0</ele>
        <time>2016-07-25T16:39:47Z</time>
      </trkpt>
      <trkpt lat="41.127167" lon="-3.685917">
        <ele>2328.0</ele>
        <time>2016-07-25T16:39:48Z</time>
      </trkpt>
      <trkpt lat="41.127133" lon="-3.686000">
        <ele>2329.0</ele>
        <time>2016-07-25T16:39:49Z</time>
      </trkpt>
      <trkpt lat="41.127117" lon="-3.686083">
        <ele>2330.0</ele>
        <time>2016-07-25T16:39:50Z</time>
      </trkpt>
      <trkpt lat="41.127100" lon="-3.686167">
        <ele>2331.0</ele>
        <time>2016-07-25T16:39:51Z</time>
      </trkpt>
      <trkpt lat="41.127100" lon="-3.686250">
        <ele>2332.0</ele>
        <time>2016-07-25T16:39:52Z</time>
      </trkpt>
      <trkpt lat="41.127100" lon="-3.686333">
        <ele>2333.0</ele>
        <time>2016-07-25T16:39:53Z</time>
      </trkpt>
      <trkpt lat="41.127100" lon="-3.686417">
        <ele>2335.0</ele>
        <time>2016-07-25T16:39:54Z</time>
      </trkpt>
      <trkpt lat="41.127117" lon="-3.686483">
        <ele>2337.0</ele>
        <time>2016-07-25T16:39:55Z</time>
      </trkpt>
      <trkpt lat="41.127117" lon="-3.686567">
        <ele>2340.0</ele>
        <time>2016-07-25T16:39:56Z</time>
      </trkpt>
      <trkpt lat="41.127117" lon="-3.686633">
        <ele>2343.0</ele>
        <time>2016-07-25T16:39:57Z</time>
      </trkpt>
      <trkpt lat="41.127117" lon="-3.686700">
        <ele>2345.0</ele>
        <time>2016-07-25T16:39:58Z</time>
      </trkpt>
      <trkpt lat="41.127117" lon="-3.686767">
        <ele>2347.0</ele>
        <time>2016-07-25T16:39:59Z</time>
      </trkpt>
      <trkpt lat="41.127133" lon="-3.686833">
        <ele>2349.0</ele>
        <time>2016-07-25T16:40:00Z</time>
      </trkpt>
      <trkpt lat="41.127133" lon="-3.686883">
        <ele>2351.0</ele>
        <time>2016-07-25T16:40:01Z</time>
      </trkpt>
      <trkpt lat="41.127150" lon="-3.686933">
        <ele>2353.0</ele>
        <time>2016-07-25T16:40:02Z</time>
      </trkpt>
      <trkpt lat="41.127183" lon="-3.686983">
        <ele>2355.0</ele>
        <time>2016-07-25T16:40:03Z</time>
      </trkpt>
      <trkpt lat="41.127200" lon="-3.687017">
        <ele>2357.0</ele>
        <time>2016-07-25T16:40:04Z</time>
      </trkpt>
      <trkpt lat="41.127233" lon="-3.687050">
        <ele>2359.0</ele>
        <time>2016-07-25T16:40:05Z</time>
      </trkpt>
      <trkpt lat="41.127250" lon="-3.687083">
        <ele>2361.0</ele>
        <time>2016-07-25T16:40:06Z</time>
      </trkpt>
      <trkpt lat="41.127283" lon="-3.687100">
        <ele>2363.0</ele>
        <time>2016-07-25T16:40:07Z</time>
      </trkpt>
      <trkpt lat="41.127333" lon="-3.687100">
        <ele>2364.0</ele>
        <time>2016-07-25T16:40:08Z</time>
      </trkpt>
      <trkpt lat="41.127367" lon="-3.687100">
        <ele>2365.0</ele>
        <time>2016-07-25T16:40:09Z</time>
      </trkpt>
      <trkpt lat="41.127417" lon="-3.687050">
        <ele>2366.0</ele>
        <time>2016-07-25T16:40:10Z</time>
      </trkpt>
      <trkpt lat="41.127450" lon="-3.686967">
        <ele>2366.0</ele>
        <time>2016-07-25T16:40:11Z</time>
      </trkpt>
      <trkpt lat="41.127433" lon="-3.686850">
        <ele>2366.0</ele>
        <time>2016-07-25T16:40:12Z</time>
      </trkpt>
      <trkpt lat="41.127383" lon="-3.686700">
        <ele>2365.0</ele>
        <time>2016-07-25T16:40:13Z</time>
      </trkpt>
      <trkpt lat="41.127300" lon="-3.686583">
        <ele>2365.0</ele>
        <time>2016-07-25T16:40:14Z</time>
      </trkpt>
      <trkpt lat="41.127167" lon="-3.686483">
        <ele>2366.0</ele>
        <time>2016-07-25T16:40:15Z</time>
      </trkpt>
      <trkpt lat="41.127050" lon="-3.686433">
        <ele>2369.0</ele>
        <time>2016-07-25T16:40:16Z</time>
      </trkpt>
      <trkpt lat="41.126933" lon="-3.686400">
        <ele>2371.0</ele>
        <time>2016-07-25T16:40:17Z</time>
      </trkpt>
      <trkpt lat="41.126817" lon="-3.686367">
        <ele>2373.0</ele>
        <time>2016-07-25T16:40:18Z</time>
      </trkpt>
      <trkpt lat="41.126700" lon="-3.686350">
        <ele>2374.0</ele>
        <time>2016-07-25T16:40:19Z</time>
      </trkpt>
      <trkpt lat="41.126567" lon="-3.686350">
        <ele>2376.0</ele>
        <time>2016-07-25T16:40:20Z</time>
      </trkpt>
      <trkpt lat="41.126433" lon="-3.686383">
        <ele>2378.0</ele>
        <time>2016-07-25T16:40:21Z</time>
      </trkpt>
      <trkpt lat="41.126317" lon="-3.686433">
        <ele>2381.0</ele>
        <time>2016-07-25T16:40:22Z</time>
      </trkpt>
      <trkpt lat="41.126200" lon="-3.686483">
        <ele>2383.0</ele>
        <time>2016-07-25T16:40:23Z</time>
      </trkpt>
      <trkpt lat="41.126100" lon="-3.686533">
        <ele>2385.0</ele>
        <time>2016-07-25T16:40:24Z</time>
      </trkpt>
      <trkpt lat="41.126000" lon="-3.686567">
        <ele>2387.0</ele>
        <time>2016-07-25T16:40:25Z</time>
      </trkpt>
      <trkpt lat="41.125900" lon="-3.686633">
        <ele>2388.0</ele>
        <time>2016-07-25T16:40:26Z</time>
      </trkpt>
      <trkpt lat="41.125800" lon="-3.686700">
        <ele>2389.0</ele>
        <time>2016-07-25T16:40:27Z</time>
      </trkpt>
      <trkpt lat="41.125733" lon="-3.686783">
        <ele>2391.0</ele>
        <time>2016-07-25T16:40:28Z</time>
      </trkpt>
      <trkpt lat="41.125683" lon="-3.686867">
        <ele>2393.0</ele>
        <time>2016-07-25T16:40:29Z</time>
      </trkpt>
      <trkpt lat="41.125650" lon="-3.686950">
        <ele>2396.0</ele>
        <time>2016-07-25T16:40:30Z</time>
      </trkpt>
      <trkpt lat="41.125617" lon="-3.687017">
        <ele>2399.0</ele>
        <time>2016-07-25T16:40:31Z</time>
      </trkpt>
      <trkpt lat="41.125600" lon="-3.687083">
        <ele>2400.0</ele>
        <time>2016-07-25T16:40:32Z</time>
      </trkpt>
      <trkpt lat="41.125583" lon="-3.687150">
        <ele>2401.0</ele>
        <time>2016-07-25T16:40:33Z</time>
      </trkpt>
      <trkpt lat="41.125583" lon="-3.687217">
        <ele>2403.0</ele>
        <time>2016-07-25T16:40:34Z</time>
      </trkpt>
      <trkpt lat="41.125600" lon="-3.687267">
        <ele>2404.0</ele>
        <time>2016-07-25T16:40:35Z</time>
      </trkpt>
      <trkpt lat="41.125617" lon="-3.687300">
        <ele>2405.0</ele>
        <time>2016-07-25T16:40:36Z</time>
      </trkpt>
      <trkpt lat="41.125650" lon="-3.687300">
        <ele>2406.0</ele>
        <time>2016-07-25T16:40:37Z</time>
      </trkpt>
      <trkpt lat="41.125700" lon="-3.687250">
        <ele>2408.0</ele>
        <time>2016-07-25T16:40:38Z</time>
      </trkpt>
      <trkpt lat="41.125717" lon="-3.687167">
        <ele>2409.0</ele>
        <time>2016-07-25T16:40:39Z</time>
      </trkpt>
      <trkpt lat="41.125733" lon="-3.687033">
        <ele>2409.0</ele>
        <time>2016-07-25T16:40:40Z</time>
      </trkpt>
      <trkpt lat="41.125700" lon="-3.686900">
        <ele>2411.0</ele>
        <time>2016-07-25T16:40:41Z</time>
      </trkpt>
      <trkpt lat="41.125633" lon="-3.686750">
        <ele>2413.0</ele>
        <time>2016-07-25T16:40:42Z</time>
      </trkpt>
      <trkpt lat="41.125550" lon="-3.686633">
        <ele>2415.0</ele>
        <time>2016-07-25T16:40:43Z</time>
      </trkpt>
      <trkpt lat="41.125433" lon="-3.686550">
        <ele>2416.0</ele>
        <time>2016-07-25T16:40:44Z</time>
      </trkpt>
      <trkpt lat="41.125300" lon="-3.686483">
        <ele>2418.0</ele>
        <time>2016-07-25T16:40:45Z</time>
      </trkpt>
      <trkpt lat="41.125167" lon="-3.686450">
        <ele>2419.0</ele>
        <time>2016-07-25T16:40:46Z</time>
      </trkpt>
      <trkpt lat="41.125033" lon="-3.686467">
        <ele>2421.0</ele>
        <time>2016-07-25T16:40:47Z</time>
      </trkpt>
      <trkpt lat="41.124933" lon="-3.686500">
        <ele>2423.0</ele>
        <time>2016-07-25T16:40:48Z</time>
      </trkpt>
      <trkpt lat="41.124850" lon="-3.686583">
        <ele>2424.0</ele>
        <time>2016-07-25T16:40:49Z</time>
      </trkpt>
      <trkpt lat="41.124783" lon="-3.686650">
        <ele>2425.0</ele>
        <time>2016-07-25T16:40:50Z</time>
      </trkpt>
      <trkpt lat="41.124733" lon="-3.686733">
        <ele>2427.0</ele>
        <time>2016-07-25T16:40:51Z</time>
      </trkpt>
      <trkpt lat="41.124733" lon="-3.686800">
        <ele>2428.0</ele>
        <time>2016-07-25T16:40:52Z</time>
      </trkpt>
      <trkpt lat="41.124733" lon="-3.686833">
        <ele>2429.0</ele>
        <time>2016-07-25T16:40:53Z</time>
      </trkpt>
      <trkpt lat="41.124767" lon="-3.686833">
        <ele>2429.0</ele>
        <time>2016-07-25T16:40:54Z</time>
      </trkpt>
      <trkpt lat="41.124800" lon="-3.686817">
        <ele>2430.0</ele>
        <time>2016-07-25T16:40:55Z</time>
      </trkpt>
      <trkpt lat="41.124817" lon="-3.686750">
        <ele>2430.0</ele>
        <time>2016-07-25T16:40:56Z</time>
      </trkpt>
      <trkpt lat="41.124833" lon="-3.686633">
        <ele>2430.0</ele>
        <time>2016-07-25T16:40:57Z</time>
      </trkpt>
      <trkpt lat="41.124817" lon="-3.686483">
        <ele>2431.0</ele>
        <time>2016-07-25T16:40:58Z</time>
      </trkpt>
      <trkpt lat="41.124767" lon="-3.686333">
        <ele>2432.0</ele>
        <time>2016-07-25T16:40:59Z</time>
      </trkpt>
      <trkpt lat="41.124667" lon="-3.686200">
        <ele>2434.0</ele>
        <time>2016-07-25T16:41:00Z</time>
      </trkpt>
      <trkpt lat="41.124550" lon="-3.686083">
        <ele>2436.0</ele>
        <time>2016-07-25T16:41:01Z</time>
      </trkpt>
      <trkpt lat="41.124450" lon="-3.686017">
        <ele>2439.0</ele>
        <time>2016-07-25T16:41:02Z</time>
      </trkpt>
      <trkpt lat="41.124333" lon="-3.685950">
        <ele>2442.0</ele>
        <time>2016-07-25T16:41:03Z</time>
      </trkpt>
      <trkpt lat="41.124217" lon="-3.685933">
        <ele>2443.0</ele>
        <time>2016-07-25T16:41:04Z</time>
      </trkpt>
      <trkpt lat="41.124083" lon="-3.685917">
        <ele>2444.0</ele>
        <time>2016-07-25T16:41:05Z</time>
      </trkpt>
      <trkpt lat="41.123950" lon="-3.685917">
        <ele>2444.0</ele>
        <time>2016-07-25T16:41:06Z</time>
      </trkpt>
      <trkpt lat="41.123833" lon="-3.685950">
        <ele>2445.0</ele>
        <time>2016-07-25T16:41:07Z</time>
      </trkpt>
      <trkpt lat="41.123733" lon="-3.686000">
        <ele>2446.0</ele>
        <time>2016-07-25T16:41:08Z</time>
      </trkpt>
      <trkpt lat="41.123650" lon="-3.686067">
        <ele>2447.0</ele>
        <time>2016-07-25T16:41:09Z</time>
      </trkpt>
      <trkpt lat="41.123600" lon="-3.686150">
        <ele>2448.0</ele>
        <time>2016-07-25T16:41:10Z</time>
      </trkpt>
      <trkpt lat="41.123533" lon="-3.686217">
        <ele>2449.0</ele>
        <time>2016-07-25T16:41:11Z</time>
      </trkpt>
      <trkpt lat="41.123500" lon="-3.686267">
        <ele>2450.0</ele>
        <time>2016-07-25T16:41:12Z</time>
      </trkpt>
      <trkpt lat="41.123450" lon="-3.686333">
        <ele>2450.0</ele>
        <time>2016-07-25T16:41:13Z</time>
      </trkpt>
      <trkpt lat="41.123417" lon="-3.686383">
        <ele>2451.0</ele>
        <time>2016-07-25T16:41:14Z</time>
      </trkpt>
      <trkpt lat="41.123383" lon="-3.686433">
        <ele>2452.0</ele>
        <time>2016-07-25T16:41:15Z</time>
      </trkpt>
      <trkpt lat="41.123367" lon="-3.686483">
        <ele>2453.0</ele>
        <time>2016-07-25T16:41:16Z</time>
      </trkpt>
      <trkpt lat="41.123383" lon="-3.686533">
        <ele>2453.0</ele>
        <time>2016-07-25T16:41:17Z</time>
      </trkpt>
      <trkpt lat="41.123400" lon="-3.686550">
        <ele>2454.0</ele>
        <time>2016-07-25T16:41:18Z</time>
      </trkpt>
      <trkpt lat="41.123433" lon="-3.686550">
        <ele>2455.0</ele>
        <time>2016-07-25T16:41:19Z</time>
      </trkpt>
      <trkpt lat="41.123467" lon="-3.686533">
        <ele>2457.0</ele>
        <time>2016-07-25T16:41:20Z</time>
      </trkpt>
      <trkpt lat="41.123483" lon="-3.686500">
        <ele>2459.0</ele>
        <time>2016-07-25T16:41:21Z</time>
      </trkpt>
      <trkpt lat="41.123500" lon="-3.686433">
        <ele>2460.0</ele>
        <time>2016-07-25T16:41:22Z</time>
      </trkpt>
      <trkpt lat="41.123517" lon="-3.686367">
        <ele>2461.0</ele>
        <time>2016-07-25T16:41:23Z</time>
      </trkpt>
      <trkpt lat="41.123533" lon="-3.686267">
        <ele>2462.0</ele>
        <time>2016-07-25T16:41:24Z</time>
      </trkpt>
      <trkpt lat="41.123517" lon="-3.686150">
        <ele>2463.0</ele>
        <time>2016-07-25T16:41:25Z</time>
      </trkpt>
      <trkpt lat="41.123500" lon="-3.686017">
        <ele>2464.0</ele>
        <time>2016-07-25T16:41:26Z</time>
      </trkpt>
      <trkpt lat="41.123450" lon="-3.685867">
        <ele>2465.0</ele>
        <time>2016-07-25T16:41:27Z</time>
      </trkpt>
      <trkpt lat="41.123383" lon="-3.685733">
        <ele>2466.0</ele>
        <time>2016-07-25T16:41:28Z</time>
      </trkpt>
      <trkpt lat="41.123300" lon="-3.685600">
        <ele>2467.0</ele>
        <time>2016-07-25T16:41:29Z</time>
      </trkpt>
      <trkpt lat="41.123183" lon="-3.685483">
        <ele>2468.0</ele>
        <time>2016-07-25T16:41:30Z</time>
      </trkpt>
      <trkpt lat="41.123067" lon="-3.685400">
        <ele>2470.0</ele>
        <time>2016-07-25T16:41:31Z</time>
      </trkpt>
      <trkpt lat="41.122933" lon="-3.685333">
        <ele>2471.0</ele>
        <time>2016-07-25T16:41:32Z</time>
      </trkpt>
      <trkpt lat="41.122800" lon="-3.685283">
        <ele>2472.0</ele>
        <time>2016-07-25T16:41:33Z</time>
      </trkpt>
      <trkpt lat="41.122667" lon="-3.685250">
        <ele>2473.0</ele>
        <time>2016-07-25T16:41:34Z</time>
      </trkpt>
      <trkpt lat="41.122533" lon="-3.685233">
        <ele>2474.0</ele>
        <time>2016-07-25T16:41:35Z</time>
      </trkpt>
      <trkpt lat="41.122417" lon="-3.685233">
        <ele>2475.0</ele>
        <time>2016-07-25T16:41:36Z</time>
      </trkpt>
      <trkpt lat="41.122283" lon="-3.685267">
        <ele>2476.0</ele>
        <time>2016-07-25T16:41:37Z</time>
      </trkpt>
      <trkpt lat="41.122183" lon="-3.685317">
        <ele>2477.0</ele>
        <time>2016-07-25T16:41:38Z</time>
      </trkpt>
      <trkpt lat="41.122083" lon="-3.685383">
        <ele>2477.0</ele>
        <time>2016-07-25T16:41:39Z</time>
      </trkpt>
      <trkpt lat="41.122000" lon="-3.685467">
        <ele>2478.0</ele>
        <time>2016-07-25T16:41:40Z</time>
      </trkpt>
      <trkpt lat="41.121933" lon="-3.685533">
        <ele>2479.0</ele>
        <time>2016-07-25T16:41:41Z</time>
      </trkpt>
      <trkpt lat="41.121883" lon="-3.685617">
        <ele>2481.0</ele>
        <time>2016-07-25T16:41:42Z</time>
      </trkpt>
      <trkpt lat="41.121850" lon="-3.685683">
        <ele>2483.0</ele>
        <time>2016-07-25T16:41:43Z</time>
      </trkpt>
      <trkpt lat="41.121817" lon="-3.685733">
        <ele>2484.0</ele>
        <time>2016-07-25T16:41:44Z</time>
      </trkpt>
      <trkpt lat="41.121783" lon="-3.685783">
        <ele>2485.0</ele>
        <time>2016-07-25T16:41:45Z</time>
      </trkpt>
      <trkpt lat="41.121733" lon="-3.685833">
        <ele>2486.0</ele>
        <time>2016-07-25T16:41:46Z</time>
      </trkpt>
      <trkpt lat="41.121717" lon="-3.685867">
        <ele>2485.0</ele>
        <time>2016-07-25T16:41:47Z</time>
      </trkpt>
      <trkpt lat="41.121733" lon="-3.685900">
        <ele>2484.0</ele>
        <time>2016-07-25T16:41:48Z</time>
      </trkpt>
      <trkpt lat="41.121767" lon="-3.685883">
        <ele>2482.0</ele>
        <time>2016-07-25T16:41:49Z</time>
      </trkpt>
      <trkpt lat="41.121800" lon="-3.685833">
        <ele>2481.0</ele>
        <time>2016-07-25T16:41:50Z</time>
      </trkpt>
      <trkpt lat="41.121833" lon="-3.685783">
        <ele>2481.0</ele>
        <time>2016-07-25T16:41:51Z</time>
      </trkpt>
      <trkpt lat="41.121867" lon="-3.685717">
        <ele>2481.0</ele>
        <time>2016-07-25T16:41:52Z</time>
      </trkpt>
      <trkpt lat="41.121883" lon="-3.685633">
        <ele>2481.0</ele>
        <time>2016-07-25T16:41:53Z</time>
      </trkpt>
      <trkpt lat="41.121917" lon="-3.685517">
        <ele>2481.0</ele>
        <time>2016-07-25T16:41:54Z</time>
      </trkpt>
      <trkpt lat="41.121917" lon="-3.685383">
        <ele>2480.0</ele>
        <time>2016-07-25T16:41:55Z</time>
      </trkpt>
      <trkpt lat="41.121900" lon="-3.685233">
        <ele>2481.0</ele>
        <time>2016-07-25T16:41:56Z</time>
      </trkpt>
      <trkpt lat="41.121850" lon="-3.685083">
        <ele>2481.0</ele>
        <time>2016-07-25T16:41:57Z</time>
      </trkpt>
      <trkpt lat="41.121800" lon="-3.684933">
        <ele>2482.0</ele>
        <time>2016-07-25T16:41:58Z</time>
      </trkpt>
      <trkpt lat="41.121750" lon="-3.684783">
        <ele>2483.0</ele>
        <time>2016-07-25T16:41:59Z</time>
      </trkpt>
      <trkpt lat="41.121683" lon="-3.684633">
        <ele>2484.0</ele>
        <time>2016-07-25T16:42:00Z</time>
      </trkpt>
      <trkpt lat="41.121617" lon="-3.684483">
        <ele>2485.0</ele>
        <time>2016-07-25T16:42:01Z</time>
      </trkpt>
      <trkpt lat="41.121533" lon="-3.684350">
        <ele>2486.0</ele>
        <time>2016-07-25T16:42:02Z</time>
      </trkpt>
      <trkpt lat="41.121417" lon="-3.684217">
        <ele>2487.0</ele>
        <time>2016-07-25T16:42:03Z</time>
      </trkpt>
      <trkpt lat="41.121300" lon="-3.684117">
        <ele>2488.0</ele>
        <time>2016-07-25T16:42:04Z</time>
      </trkpt>
      <trkpt lat="41.121183" lon="-3.684000">
        <ele>2489.0</ele>
        <time>2016-07-25T16:42:05Z</time>
      </trkpt>
      <trkpt lat="41.121067" lon="-3.683917">
        <ele>2490.0</ele>
        <time>2016-07-25T16:42:06Z</time>
      </trkpt>
      <trkpt lat="41.120933" lon="-3.683833">
        <ele>2491.0</ele>
        <time>2016-07-25T16:42:07Z</time>
      </trkpt>
      <trkpt lat="41.120783" lon="-3.683783">
        <ele>2492.0</ele>
        <time>2016-07-25T16:42:08Z</time>
      </trkpt>
      <trkpt lat="41.120650" lon="-3.683750">
        <ele>2493.0</ele>
        <time>2016-07-25T16:42:09Z</time>
      </trkpt>
      <trkpt lat="41.120517" lon="-3.683750">
        <ele>2494.0</ele>
        <time>2016-07-25T16:42:10Z</time>
      </trkpt>
      <trkpt lat="41.120400" lon="-3.683767">
        <ele>2496.0</ele>
        <time>2016-07-25T16:42:11Z</time>
      </trkpt>
      <trkpt lat="41.120283" lon="-3.683817">
        <ele>2497.0</ele>
        <time>2016-07-25T16:42:12Z</time>
      </trkpt>
      <trkpt lat="41.120200" lon="-3.683867">
        <ele>2498.0</ele>
        <time>2016-07-25T16:42:13Z</time>
      </trkpt>
      <trkpt lat="41.120117" lon="-3.683933">
        <ele>2499.0</ele>
        <time>2016-07-25T16:42:14Z</time>
      </trkpt>
      <trkpt lat="41.120033" lon="-3.683983">
        <ele>2500.0</ele>
        <time>2016-07-25T16:42:15Z</time>
      </trkpt>
      <trkpt lat="41.119950" lon="-3.684033">
        <ele>2501.0</ele>
        <time>2016-07-25T16:42:16Z</time>
      </trkpt>
      <trkpt lat="41.119883" lon="-3.684100">
        <ele>2502.0</ele>
        <time>2016-07-25T16:42:17Z</time>
      </trkpt>
      <trkpt lat="41.119833" lon="-3.684150">
        <ele>2503.0</ele>
        <time>2016-07-25T16:42:18Z</time>
      </trkpt>
      <trkpt lat="41.119800" lon="-3.684200">
        <ele>2502.0</ele>
        <time>2016-07-25T16:42:19Z</time>
      </trkpt>
      <trkpt lat="41.119767" lon="-3.684250">
        <ele>2502.0</ele>
        <time>2016-07-25T16:42:20Z</time>
      </trkpt>
      <trkpt lat="41.119767" lon="-3.684300">
        <ele>2501.0</ele>
        <time>2016-07-25T16:42:21Z</time>
      </trkpt>
      <trkpt lat="41.119767" lon="-3.684350">
        <ele>2500.0</ele>
        <time>2016-07-25T16:42:22Z</time>
      </trkpt>
      <trkpt lat="41.119783" lon="-3.684383">
        <ele>2498.0</ele>
        <time>2016-07-25T16:42:23Z</time>
      </trkpt>
      <trkpt lat="41.119800" lon="-3.684417">
        <ele>2497.0</ele>
        <time>2016-07-25T16:42:24Z</time>
      </trkpt>
      <trkpt lat="41.119817" lon="-3.684450">
        <ele>2496.0</ele>
        <time>2016-07-25T16:42:25Z</time>
      </trkpt>
      <trkpt lat="41.119850" lon="-3.684450">
        <ele>2495.0</ele>
        <time>2016-07-25T16:42:26Z</time>
      </trkpt>
      <trkpt lat="41.119883" lon="-3.684433">
        <ele>2493.0</ele>
        <time>2016-07-25T16:42:27Z</time>
      </trkpt>
      <trkpt lat="41.119933" lon="-3.684433">
        <ele>2492.0</ele>
        <time>2016-07-25T16:42:28Z</time>
      </trkpt>
      <trkpt lat="41.119983" lon="-3.684417">
        <ele>2490.0</ele>
        <time>2016-07-25T16:42:29Z</time>
      </trkpt>
      <trkpt lat="41.120033" lon="-3.684417">
        <ele>2490.0</ele>
        <time>2016-07-25T16:42:30Z</time>
      </trkpt>
      <trkpt lat="41.120050" lon="-3.684417">
        <ele>2489.0</ele>
        <time>2016-07-25T16:42:31Z</time>
      </trkpt>
      <trkpt lat="41.120083" lon="-3.684417">
        <ele>2488.0</ele>
        <time>2016-07-25T16:42:32Z</time>
      </trkpt>
      <trkpt lat="41.120117" lon="-3.684417">
        <ele>2487.0</ele>
        <time>2016-07-25T16:42:33Z</time>
      </trkpt>
      <trkpt lat="41.120150" lon="-3.684417">
        <ele>2486.0</ele>
        <time>2016-07-25T16:42:34Z</time>
      </trkpt>
      <trkpt lat="41.120183" lon="-3.684400">
        <ele>2486.0</ele>
        <time>2016-07-25T16:42:35Z</time>
      </trkpt>
      <trkpt lat="41.120200" lon="-3.684383">
        <ele>2486.0</ele>
        <time>2016-07-25T16:42:36Z</time>
      </trkpt>
      <trkpt lat="41.120233" lon="-3.684367">
        <ele>2485.0</ele>
        <time>2016-07-25T16:42:37Z</time>
      </trkpt>
      <trkpt lat="41.120267" lon="-3.684367">
        <ele>2484.0</ele>
        <time>2016-07-25T16:42:38Z</time>
      </trkpt>
      <trkpt lat="41.120300" lon="-3.684367">
        <ele>2483.0</ele>
        <time>2016-07-25T16:42:39Z</time>
      </trkpt>
      <trkpt lat="41.120333" lon="-3.684383">
        <ele>2482.0</ele>
        <time>2016-07-25T16:42:40Z</time>
      </trkpt>
      <trkpt lat="41.120350" lon="-3.684383">
        <ele>2483.0</ele>
        <time>2016-07-25T16:42:41Z</time>
      </trkpt>
      <trkpt lat="41.120367" lon="-3.684367">
        <ele>2483.0</ele>
        <time>2016-07-25T16:42:42Z</time>
      </trkpt>
      <trkpt lat="41.120383" lon="-3.684367">
        <ele>2482.0</ele>
        <time>2016-07-25T16:42:43Z</time>
      </trkpt>
      <trkpt lat="41.120400" lon="-3.684383">
        <ele>2480.0</ele>
        <time>2016-07-25T16:42:44Z</time>
      </trkpt>
      <trkpt lat="41.120433" lon="-3.684400">
        <ele>2478.0</ele>
        <time>2016-07-25T16:42:45Z</time>
      </trkpt>
      <trkpt lat="41.120467" lon="-3.684417">
        <ele>2477.0</ele>
        <time>2016-07-25T16:42:46Z</time>
      </trkpt>
      <trkpt lat="41.120483" lon="-3.684433">
        <ele>2476.0</ele>
        <time>2016-07-25T16:42:47Z</time>
      </trkpt>
      <trkpt lat="41.120500" lon="-3.684467">
        <ele>2474.0</ele>
        <time>2016-07-25T16:42:48Z</time>
      </trkpt>
      <trkpt lat="41.120517" lon="-3.684517">
        <ele>2473.0</ele>
        <time>2016-07-25T16:42:49Z</time>
      </trkpt>
      <trkpt lat="41.120533" lon="-3.684550">
        <ele>2472.0</ele>
        <time>2016-07-25T16:42:50Z</time>
      </trkpt>
      <trkpt lat="41.120567" lon="-3.684600">
        <ele>2470.0</ele>
        <time>2016-07-25T16:42:51Z</time>
      </trkpt>
      <trkpt lat="41.120600" lon="-3.684650">
        <ele>2469.0</ele>
        <time>2016-07-25T16:42:52Z</time>
      </trkpt>
      <trkpt lat="41.120633" lon="-3.684700">
        <ele>2469.0</ele>
        <time>2016-07-25T16:42:53Z</time>
      </trkpt>
      <trkpt lat="41.120650" lon="-3.684750">
        <ele>2467.0</ele>
        <time>2016-07-25T16:42:54Z</time>
      </trkpt>
      <trkpt lat="41.120667" lon="-3.684833">
        <ele>2467.0</ele>
        <time>2016-07-25T16:42:55Z</time>
      </trkpt>
      <trkpt lat="41.120700" lon="-3.684900">
        <ele>2465.0</ele>
        <time>2016-07-25T16:42:56Z</time>
      </trkpt>
      <trkpt lat="41.120733" lon="-3.684983">
        <ele>2465.0</ele>
        <time>2016-07-25T16:42:57Z</time>
      </trkpt>
      <trkpt lat="41.120767" lon="-3.685067">
        <ele>2466.0</ele>
        <time>2016-07-25T16:42:58Z</time>
      </trkpt>
      <trkpt lat="41.120783" lon="-3.685150">
        <ele>2468.0</ele>
        <time>2016-07-25T16:42:59Z</time>
      </trkpt>
      <trkpt lat="41.120783" lon="-3.685217">
        <ele>2471.0</ele>
        <time>2016-07-25T16:43:00Z</time>
      </trkpt>
      <trkpt lat="41.120783" lon="-3.685267">
        <ele>2473.0</ele>
        <time>2016-07-25T16:43:01Z</time>
      </trkpt>
      <trkpt lat="41.120767" lon="-3.685317">
        <ele>2475.0</ele>
        <time>2016-07-25T16:43:02Z</time>
      </trkpt>
      <trkpt lat="41.120767" lon="-3.685367">
        <ele>2475.0</ele>
        <time>2016-07-25T16:43:03Z</time>
      </trkpt>
      <trkpt lat="41.120767" lon="-3.685417">
        <ele>2475.0</ele>
        <time>2016-07-25T16:43:04Z</time>
      </trkpt>
      <trkpt lat="41.120767" lon="-3.685500">
        <ele>2474.0</ele>
        <time>2016-07-25T16:43:05Z</time>
      </trkpt>
      <trkpt lat="41.120750" lon="-3.685583">
        <ele>2473.0</ele>
        <time>2016-07-25T16:43:06Z</time>
      </trkpt>
      <trkpt lat="41.120750" lon="-3.685667">
        <ele>2473.0</ele>
        <time>2016-07-25T16:43:07Z</time>
      </trkpt>
      <trkpt lat="41.120750" lon="-3.685750">
        <ele>2474.0</ele>
        <time>2016-07-25T16:43:08Z</time>
      </trkpt>
      <trkpt lat="41.120750" lon="-3.685833">
        <ele>2475.0</ele>
        <time>2016-07-25T16:43:09Z</time>
      </trkpt>
      <trkpt lat="41.120733" lon="-3.685917">
        <ele>2476.0</ele>
        <time>2016-07-25T16:43:10Z</time>
      </trkpt>
      <trkpt lat="41.120733" lon="-3.686000">
        <ele>2476.0</ele>
        <time>2016-07-25T16:43:11Z</time>
      </trkpt>
      <trkpt lat="41.120733" lon="-3.686083">
        <ele>2477.0</ele>
        <time>2016-07-25T16:43:12Z</time>
      </trkpt>
      <trkpt lat="41.120733" lon="-3.686167">
        <ele>2477.0</ele>
        <time>2016-07-25T16:43:13Z</time>
      </trkpt>
      <trkpt lat="41.120733" lon="-3.686217">
        <ele>2478.0</ele>
        <time>2016-07-25T16:43:14Z</time>
      </trkpt>
      <trkpt lat="41.120733" lon="-3.686267">
        <ele>2480.0</ele>
        <time>2016-07-25T16:43:15Z</time>
      </trkpt>
      <trkpt lat="41.120750" lon="-3.686317">
        <ele>2480.0</ele>
        <time>2016-07-25T16:43:16Z</time>
      </trkpt>
      <trkpt lat="41.120750" lon="-3.686350">
        <ele>2480.0</ele>
        <time>2016-07-25T16:43:17Z</time>
      </trkpt>
      <trkpt lat="41.120750" lon="-3.686400">
        <ele>2480.0</ele>
        <time>2016-07-25T16:43:18Z</time>
      </trkpt>
      <trkpt lat="41.120750" lon="-3.686467">
        <ele>2478.0</ele>
        <time>2016-07-25T16:43:19Z</time>
      </trkpt>
      <trkpt lat="41.120767" lon="-3.686533">
        <ele>2478.0</ele>
        <time>2016-07-25T16:43:20Z</time>
      </trkpt>
      <trkpt lat="41.120783" lon="-3.686583">
        <ele>2478.0</ele>
        <time>2016-07-25T16:43:21Z</time>
      </trkpt>
      <trkpt lat="41.120817" lon="-3.686633">
        <ele>2478.0</ele>
        <time>2016-07-25T16:43:22Z</time>
      </trkpt>
      <trkpt lat="41.120833" lon="-3.686683">
        <ele>2478.0</ele>
        <time>2016-07-25T16:43:23Z</time>
      </trkpt>
      <trkpt lat="41.120867" lon="-3.686717">
        <ele>2478.0</ele>
        <time>2016-07-25T16:43:24Z</time>
      </trkpt>
      <trkpt lat="41.120883" lon="-3.686767">
        <ele>2476.0</ele>
        <time>2016-07-25T16:43:25Z</time>
      </trkpt>
      <trkpt lat="41.120900" lon="-3.686817">
        <ele>2475.0</ele>
        <time>2016-07-25T16:43:26Z</time>
      </trkpt>
      <trkpt lat="41.120917" lon="-3.686883">
        <ele>2474.0</ele>
        <time>2016-07-25T16:43:27Z</time>
      </trkpt>
      <trkpt lat="41.120917" lon="-3.686933">
        <ele>2472.0</ele>
        <time>2016-07-25T16:43:28Z</time>
      </trkpt>
      <trkpt lat="41.120933" lon="-3.687000">
        <ele>2469.0</ele>
        <time>2016-07-25T16:43:29Z</time>
      </trkpt>
      <trkpt lat="41.120950" lon="-3.687067">
        <ele>2467.0</ele>
        <time>2016-07-25T16:43:30Z</time>
      </trkpt>
      <trkpt lat="41.120983" lon="-3.687133">
        <ele>2465.0</ele>
        <time>2016-07-25T16:43:31Z</time>
      </trkpt>
      <trkpt lat="41.121017" lon="-3.687217">
        <ele>2465.0</ele>
        <time>2016-07-25T16:43:32Z</time>
      </trkpt>
      <trkpt lat="41.121017" lon="-3.687300">
        <ele>2466.0</ele>
        <time>2016-07-25T16:43:33Z</time>
      </trkpt>
      <trkpt lat="41.121033" lon="-3.687367">
        <ele>2467.0</ele>
        <time>2016-07-25T16:43:34Z</time>
      </trkpt>
      <trkpt lat="41.121033" lon="-3.687450">
        <ele>2467.0</ele>
        <time>2016-07-25T16:43:35Z</time>
      </trkpt>
      <trkpt lat="41.121050" lon="-3.687517">
        <ele>2468.0</ele>
        <time>2016-07-25T16:43:36Z</time>
      </trkpt>
      <trkpt lat="41.121067" lon="-3.687583">
        <ele>2467.0</ele>
        <time>2016-07-25T16:43:37Z</time>
      </trkpt>
      <trkpt lat="41.121100" lon="-3.687650">
        <ele>2467.0</ele>
        <time>2016-07-25T16:43:38Z</time>
      </trkpt>
      <trkpt lat="41.121117" lon="-3.687717">
        <ele>2467.0</ele>
        <time>2016-07-25T16:43:39Z</time>
      </trkpt>
      <trkpt lat="41.121133" lon="-3.687800">
        <ele>2469.0</ele>
        <time>2016-07-25T16:43:40Z</time>
      </trkpt>
      <trkpt lat="41.121150" lon="-3.687883">
        <ele>2470.0</ele>
        <time>2016-07-25T16:43:41Z</time>
      </trkpt>
      <trkpt lat="41.121167" lon="-3.687950">
        <ele>2471.0</ele>
        <time>2016-07-25T16:43:42Z</time>
      </trkpt>
      <trkpt lat="41.121183" lon="-3.688017">
        <ele>2471.0</ele>
        <time>2016-07-25T16:43:43Z</time>
      </trkpt>
      <trkpt lat="41.121200" lon="-3.688100">
        <ele>2471.0</ele>
        <time>2016-07-25T16:43:44Z</time>
      </trkpt>
      <trkpt lat="41.121217" lon="-3.688167">
        <ele>2470.0</ele>
        <time>2016-07-25T16:43:45Z</time>
      </trkpt>
      <trkpt lat="41.121233" lon="-3.688233">
        <ele>2472.0</ele>
        <time>2016-07-25T16:43:46Z</time>
      </trkpt>
      <trkpt lat="41.121250" lon="-3.688283">
        <ele>2473.0</ele>
        <time>2016-07-25T16:43:47Z</time>
      </trkpt>
      <trkpt lat="41.121250" lon="-3.688317">
        <ele>2473.0</ele>
        <time>2016-07-25T16:43:48Z</time>
      </trkpt>
      <trkpt lat="41.121267" lon="-3.688367">
        <ele>2472.0</ele>
        <time>2016-07-25T16:43:49Z</time>
      </trkpt>
      <trkpt lat="41.121283" lon="-3.688417">
        <ele>2470.0</ele>
        <time>2016-07-25T16:43:50Z</time>
      </trkpt>
      <trkpt lat="41.121300" lon="-3.688517">
        <ele>2468.0</ele>
        <time>2016-07-25T16:43:51Z</time>
      </trkpt>
      <trkpt lat="41.121300" lon="-3.688617">
        <ele>2468.0</ele>
        <time>2016-07-25T16:43:52Z</time>
      </trkpt>
      <trkpt lat="41.121300" lon="-3.688683">
        <ele>2469.0</ele>
        <time>2016-07-25T16:43:53Z</time>
      </trkpt>
      <trkpt lat="41.121300" lon="-3.688750">
        <ele>2470.0</ele>
        <time>2016-07-25T16:43:54Z</time>
      </trkpt>
      <trkpt lat="41.121300" lon="-3.688817">
        <ele>2470.0</ele>
        <time>2016-07-25T16:43:55Z</time>
      </trkpt>
      <trkpt lat="41.121317" lon="-3.688867">
        <ele>2468.0</ele>
        <time>2016-07-25T16:43:56Z</time>
      </trkpt>
      <trkpt lat="41.121333" lon="-3.688967">
        <ele>2467.0</ele>
        <time>2016-07-25T16:43:57Z</time>
      </trkpt>
      <trkpt lat="41.121350" lon="-3.689067">
        <ele>2466.0</ele>
        <time>2016-07-25T16:43:58Z</time>
      </trkpt>
      <trkpt lat="41.121350" lon="-3.689150">
        <ele>2468.0</ele>
        <time>2016-07-25T16:43:59Z</time>
      </trkpt>
      <trkpt lat="41.121350" lon="-3.689233">
        <ele>2469.0</ele>
        <time>2016-07-25T16:44:00Z</time>
      </trkpt>
      <trkpt lat="41.121350" lon="-3.689300">
        <ele>2469.0</ele>
        <time>2016-07-25T16:44:01Z</time>
      </trkpt>
      <trkpt lat="41.121350" lon="-3.689367">
        <ele>2467.0</ele>
        <time>2016-07-25T16:44:02Z</time>
      </trkpt>
      <trkpt lat="41.121350" lon="-3.689467">
        <ele>2465.0</ele>
        <time>2016-07-25T16:44:03Z</time>
      </trkpt>
      <trkpt lat="41.121367" lon="-3.689567">
        <ele>2463.0</ele>
        <time>2016-07-25T16:44:04Z</time>
      </trkpt>
      <trkpt lat="41.121383" lon="-3.689667">
        <ele>2463.0</ele>
        <time>2016-07-25T16:44:05Z</time>
      </trkpt>
      <trkpt lat="41.121383" lon="-3.689767">
        <ele>2464.0</ele>
        <time>2016-07-25T16:44:06Z</time>
      </trkpt>
      <trkpt lat="41.121383" lon="-3.689833">
        <ele>2464.0</ele>
        <time>2016-07-25T16:44:07Z</time>
      </trkpt>
      <trkpt lat="41.121400" lon="-3.689917">
        <ele>2463.0</ele>
        <time>2016-07-25T16:44:08Z</time>
      </trkpt>
      <trkpt lat="41.121417" lon="-3.690000">
        <ele>2463.0</ele>
        <time>2016-07-25T16:44:09Z</time>
      </trkpt>
      <trkpt lat="41.121433" lon="-3.690067">
        <ele>2462.0</ele>
        <time>2016-07-25T16:44:10Z</time>
      </trkpt>
      <trkpt lat="41.121450" lon="-3.690133">
        <ele>2462.0</ele>
        <time>2016-07-25T16:44:11Z</time>
      </trkpt>
      <trkpt lat="41.121467" lon="-3.690200">
        <ele>2462.0</ele>
        <time>2016-07-25T16:44:12Z</time>
      </trkpt>
      <trkpt lat="41.121483" lon="-3.690267">
        <ele>2460.0</ele>
        <time>2016-07-25T16:44:13Z</time>
      </trkpt>
      <trkpt lat="41.121517" lon="-3.690317">
        <ele>2458.0</ele>
        <time>2016-07-25T16:44:14Z</time>
      </trkpt>
      <trkpt lat="41.121533" lon="-3.690400">
        <ele>2456.0</ele>
        <time>2016-07-25T16:44:15Z</time>
      </trkpt>
      <trkpt lat="41.121567" lon="-3.690483">
        <ele>2455.0</ele>
        <time>2016-07-25T16:44:16Z</time>
      </trkpt>
      <trkpt lat="41.121600" lon="-3.690567">
        <ele>2455.0</ele>
        <time>2016-07-25T16:44:17Z</time>
      </trkpt>
      <trkpt lat="41.121617" lon="-3.690650">
        <ele>2455.0</ele>
        <time>2016-07-25T16:44:18Z</time>
      </trkpt>
      <trkpt lat="41.121633" lon="-3.690717">
        <ele>2455.0</ele>
        <time>2016-07-25T16:44:19Z</time>
      </trkpt>
      <trkpt lat="41.121633" lon="-3.690767">
        <ele>2455.0</ele>
        <time>2016-07-25T16:44:20Z</time>
      </trkpt>
      <trkpt lat="41.121667" lon="-3.690833">
        <ele>2452.0</ele>
        <time>2016-07-25T16:44:21Z</time>
      </trkpt>
      <trkpt lat="41.121700" lon="-3.690917">
        <ele>2451.0</ele>
        <time>2016-07-25T16:44:22Z</time>
      </trkpt>
      <trkpt lat="41.121717" lon="-3.690983">
        <ele>2450.0</ele>
        <time>2016-07-25T16:44:23Z</time>
      </trkpt>
      <trkpt lat="41.121733" lon="-3.691067">
        <ele>2451.0</ele>
        <time>2016-07-25T16:44:24Z</time>
      </trkpt>
      <trkpt lat="41.121733" lon="-3.691117">
        <ele>2451.0</ele>
        <time>2016-07-25T16:44:25Z</time>
      </trkpt>
      <trkpt lat="41.121733" lon="-3.691167">
        <ele>2449.0</ele>
        <time>2016-07-25T16:44:26Z</time>
      </trkpt>
      <trkpt lat="41.121733" lon="-3.691233">
        <ele>2446.0</ele>
        <time>2016-07-25T16:44:27Z</time>
      </trkpt>
      <trkpt lat="41.121767" lon="-3.691300">
        <ele>2441.0</ele>
        <time>2016-07-25T16:44:28Z</time>
      </trkpt>
      <trkpt lat="41.121783" lon="-3.691400">
        <ele>2438.0</ele>
        <time>2016-07-25T16:44:29Z</time>
      </trkpt>
      <trkpt lat="41.121817" lon="-3.691483">
        <ele>2436.0</ele>
        <time>2016-07-25T16:44:30Z</time>
      </trkpt>
      <trkpt lat="41.121833" lon="-3.691567">
        <ele>2435.0</ele>
        <time>2016-07-25T16:44:31Z</time>
      </trkpt>
      <trkpt lat="41.121833" lon="-3.691633">
        <ele>2435.0</ele>
        <time>2016-07-25T16:44:32Z</time>
      </trkpt>
      <trkpt lat="41.121833" lon="-3.691700">
        <ele>2433.0</ele>
        <time>2016-07-25T16:44:33Z</time>
      </trkpt>
      <trkpt lat="41.121833" lon="-3.691783">
        <ele>2432.0</ele>
        <time>2016-07-25T16:44:34Z</time>
      </trkpt>
      <trkpt lat="41.121850" lon="-3.691850">
        <ele>2430.0</ele>
        <time>2016-07-25T16:44:35Z</time>
      </trkpt>
      <trkpt lat="41.121867" lon="-3.691933">
        <ele>2428.0</ele>
        <time>2016-07-25T16:44:36Z</time>
      </trkpt>
      <trkpt lat="41.121867" lon="-3.692000">
        <ele>2427.0</ele>
        <time>2016-07-25T16:44:37Z</time>
      </trkpt>
      <trkpt lat="41.121867" lon="-3.692083">
        <ele>2426.0</ele>
        <time>2016-07-25T16:44:38Z</time>
      </trkpt>
      <trkpt lat="41.121867" lon="-3.692150">
        <ele>2425.0</ele>
        <time>2016-07-25T16:44:39Z</time>
      </trkpt>
      <trkpt lat="41.121867" lon="-3.692233">
        <ele>2423.0</ele>
        <time>2016-07-25T16:44:40Z</time>
      </trkpt>
      <trkpt lat="41.121867" lon="-3.692300">
        <ele>2421.0</ele>
        <time>2016-07-25T16:44:41Z</time>
      </trkpt>
      <trkpt lat="41.121867" lon="-3.692383">
        <ele>2419.0</ele>
        <time>2016-07-25T16:44:42Z</time>
      </trkpt>
      <trkpt lat="41.121867" lon="-3.692450">
        <ele>2417.0</ele>
        <time>2016-07-25T16:44:43Z</time>
      </trkpt>
      <trkpt lat="41.121850" lon="-3.692517">
        <ele>2414.0</ele>
        <time>2016-07-25T16:44:44Z</time>
      </trkpt>
      <trkpt lat="41.121833" lon="-3.692567">
        <ele>2410.0</ele>
        <time>2016-07-25T16:44:45Z</time>
      </trkpt>
      <trkpt lat="41.121850" lon="-3.692650">
        <ele>2404.0</ele>
        <time>2016-07-25T16:44:46Z</time>
      </trkpt>
      <trkpt lat="41.121867" lon="-3.692750">
        <ele>2399.0</ele>
        <time>2016-07-25T16:44:47Z</time>
      </trkpt>
      <trkpt lat="41.121867" lon="-3.692850">
        <ele>2395.0</ele>
        <time>2016-07-25T16:44:48Z</time>
      </trkpt>
      <trkpt lat="41.121867" lon="-3.692950">
        <ele>2391.0</ele>
        <time>2016-07-25T16:44:49Z</time>
      </trkpt>
      <trkpt lat="41.121850" lon="-3.693067">
        <ele>2388.0</ele>
        <time>2016-07-25T16:44:50Z</time>
      </trkpt>
      <trkpt lat="41.121850" lon="-3.693167">
        <ele>2385.0</ele>
        <time>2016-07-25T16:44:51Z</time>
      </trkpt>
      <trkpt lat="41.121850" lon="-3.693267">
        <ele>2382.0</ele>
        <time>2016-07-25T16:44:52Z</time>
      </trkpt>
      <trkpt lat="41.121867" lon="-3.693367">
        <ele>2379.0</ele>
        <time>2016-07-25T16:44:53Z</time>
      </trkpt>
      <trkpt lat="41.121867" lon="-3.693450">
        <ele>2377.0</ele>
        <time>2016-07-25T16:44:54Z</time>
      </trkpt>
      <trkpt lat="41.121867" lon="-3.693550">
        <ele>2374.0</ele>
        <time>2016-07-25T16:44:55Z</time>
      </trkpt>
      <trkpt lat="41.121867" lon="-3.693650">
        <ele>2372.0</ele>
        <time>2016-07-25T16:44:56Z</time>
      </trkpt>
      <trkpt lat="41.121867" lon="-3.693733">
        <ele>2369.0</ele>
        <time>2016-07-25T16:44:57Z</time>
      </trkpt>
      <trkpt lat="41.121867" lon="-3.693833">
        <ele>2365.0</ele>
        <time>2016-07-25T16:44:58Z</time>
      </trkpt>
      <trkpt lat="41.121883" lon="-3.693933">
        <ele>2361.0</ele>
        <time>2016-07-25T16:44:59Z</time>
      </trkpt>
      <trkpt lat="41.121883" lon="-3.694033">
        <ele>2358.0</ele>
        <time>2016-07-25T16:45:00Z</time>
      </trkpt>
      <trkpt lat="41.121900" lon="-3.694150">
        <ele>2355.0</ele>
        <time>2016-07-25T16:45:01Z</time>
      </trkpt>
      <trkpt lat="41.121900" lon="-3.694267">
        <ele>2354.0</ele>
        <time>2016-07-25T16:45:02Z</time>
      </trkpt>
      <trkpt lat="41.121900" lon="-3.694367">
        <ele>2353.0</ele>
        <time>2016-07-25T16:45:03Z</time>
      </trkpt>
      <trkpt lat="41.121900" lon="-3.694450">
        <ele>2351.0</ele>
        <time>2016-07-25T16:45:04Z</time>
      </trkpt>
      <trkpt lat="41.121900" lon="-3.694533">
        <ele>2348.0</ele>
        <time>2016-07-25T16:45:05Z</time>
      </trkpt>
      <trkpt lat="41.121900" lon="-3.694617">
        <ele>2345.0</ele>
        <time>2016-07-25T16:45:06Z</time>
      </trkpt>
      <trkpt lat="41.121917" lon="-3.694717">
        <ele>2342.0</ele>
        <time>2016-07-25T16:45:07Z</time>
      </trkpt>
      <trkpt lat="41.121933" lon="-3.694833">
        <ele>2339.0</ele>
        <time>2016-07-25T16:45:08Z</time>
      </trkpt>
      <trkpt lat="41.121950" lon="-3.694950">
        <ele>2338.0</ele>
        <time>2016-07-25T16:45:09Z</time>
      </trkpt>
      <trkpt lat="41.121950" lon="-3.695083">
        <ele>2338.0</ele>
        <time>2016-07-25T16:45:10Z</time>
      </trkpt>
      <trkpt lat="41.121967" lon="-3.695183">
        <ele>2339.0</ele>
        <time>2016-07-25T16:45:11Z</time>
      </trkpt>
      <trkpt lat="41.121967" lon="-3.695283">
        <ele>2341.0</ele>
        <time>2016-07-25T16:45:12Z</time>
      </trkpt>
      <trkpt lat="41.121950" lon="-3.695367">
        <ele>2343.0</ele>
        <time>2016-07-25T16:45:13Z</time>
      </trkpt>
      <trkpt lat="41.121933" lon="-3.695450">
        <ele>2344.0</ele>
        <time>2016-07-25T16:45:14Z</time>
      </trkpt>
      <trkpt lat="41.121917" lon="-3.695517">
        <ele>2344.0</ele>
        <time>2016-07-25T16:45:15Z</time>
      </trkpt>
      <trkpt lat="41.121883" lon="-3.695600">
        <ele>2343.0</ele>
        <time>2016-07-25T16:45:16Z</time>
      </trkpt>
      <trkpt lat="41.121867" lon="-3.695683">
        <ele>2342.0</ele>
        <time>2016-07-25T16:45:17Z</time>
      </trkpt>
      <trkpt lat="41.121850" lon="-3.695767">
        <ele>2343.0</ele>
        <time>2016-07-25T16:45:18Z</time>
      </trkpt>
      <trkpt lat="41.121817" lon="-3.695833">
        <ele>2344.0</ele>
        <time>2016-07-25T16:45:19Z</time>
      </trkpt>
      <trkpt lat="41.121800" lon="-3.695883">
        <ele>2344.0</ele>
        <time>2016-07-25T16:45:20Z</time>
      </trkpt>
      <trkpt lat="41.121783" lon="-3.695950">
        <ele>2345.0</ele>
        <time>2016-07-25T16:45:21Z</time>
      </trkpt>
      <trkpt lat="41.121767" lon="-3.696033">
        <ele>2345.0</ele>
        <time>2016-07-25T16:45:22Z</time>
      </trkpt>
      <trkpt lat="41.121733" lon="-3.696117">
        <ele>2347.0</ele>
        <time>2016-07-25T16:45:23Z</time>
      </trkpt>
      <trkpt lat="41.121717" lon="-3.696200">
        <ele>2351.0</ele>
        <time>2016-07-25T16:45:24Z</time>
      </trkpt>
      <trkpt lat="41.121683" lon="-3.696267">
        <ele>2354.0</ele>
        <time>2016-07-25T16:45:25Z</time>
      </trkpt>
      <trkpt lat="41.121683" lon="-3.696317">
        <ele>2356.0</ele>
        <time>2016-07-25T16:45:26Z</time>
      </trkpt>
      <trkpt lat="41.121667" lon="-3.696367">
        <ele>2358.0</ele>
        <time>2016-07-25T16:45:27Z</time>
      </trkpt>
      <trkpt lat="41.121650" lon="-3.696417">
        <ele>2359.0</ele>
        <time>2016-07-25T16:45:28Z</time>
      </trkpt>
      <trkpt lat="41.121633" lon="-3.696467">
        <ele>2359.0</ele>
        <time>2016-07-25T16:45:29Z</time>
      </trkpt>
      <trkpt lat="41.121633" lon="-3.696533">
        <ele>2359.0</ele>
        <time>2016-07-25T16:45:30Z</time>
      </trkpt>
      <trkpt lat="41.121600" lon="-3.696617">
        <ele>2359.0</ele>
        <time>2016-07-25T16:45:31Z</time>
      </trkpt>
      <trkpt lat="41.121583" lon="-3.696717">
        <ele>2360.0</ele>
        <time>2016-07-25T16:45:32Z</time>
      </trkpt>
      <trkpt lat="41.121550" lon="-3.696800">
        <ele>2363.0</ele>
        <time>2016-07-25T16:45:33Z</time>
      </trkpt>
      <trkpt lat="41.121533" lon="-3.696867">
        <ele>2366.0</ele>
        <time>2016-07-25T16:45:34Z</time>
      </trkpt>
      <trkpt lat="41.121517" lon="-3.696933">
        <ele>2368.0</ele>
        <time>2016-07-25T16:45:35Z</time>
      </trkpt>
      <trkpt lat="41.121500" lon="-3.697000">
        <ele>2370.0</ele>
        <time>2016-07-25T16:45:36Z</time>
      </trkpt>
      <trkpt lat="41.121483" lon="-3.697083">
        <ele>2372.0</ele>
        <time>2016-07-25T16:45:37Z</time>
      </trkpt>
      <trkpt lat="41.121483" lon="-3.697167">
        <ele>2375.0</ele>
        <time>2016-07-25T16:45:38Z</time>
      </trkpt>
      <trkpt lat="41.121467" lon="-3.697233">
        <ele>2379.0</ele>
        <time>2016-07-25T16:45:39Z</time>
      </trkpt>
      <trkpt lat="41.121483" lon="-3.697267">
        <ele>2382.0</ele>
        <time>2016-07-25T16:45:40Z</time>
      </trkpt>
      <trkpt lat="41.121500" lon="-3.697317">
        <ele>2385.0</ele>
        <time>2016-07-25T16:45:41Z</time>
      </trkpt>
      <trkpt lat="41.121517" lon="-3.697350">
        <ele>2388.0</ele>
        <time>2016-07-25T16:45:42Z</time>
      </trkpt>
      <trkpt lat="41.121550" lon="-3.697383">
        <ele>2391.0</ele>
        <time>2016-07-25T16:45:43Z</time>
      </trkpt>
      <trkpt lat="41.121583" lon="-3.697417">
        <ele>2394.0</ele>
        <time>2016-07-25T16:45:44Z</time>
      </trkpt>
      <trkpt lat="41.121617" lon="-3.697433">
        <ele>2397.0</ele>
        <time>2016-07-25T16:45:45Z</time>
      </trkpt>
      <trkpt lat="41.121633" lon="-3.697433">
        <ele>2400.0</ele>
        <time>2016-07-25T16:45:46Z</time>
      </trkpt>
      <trkpt lat="41.121667" lon="-3.697400">
        <ele>2402.0</ele>
        <time>2016-07-25T16:45:47Z</time>
      </trkpt>
      <trkpt lat="41.121717" lon="-3.697367">
        <ele>2404.0</ele>
        <time>2016-07-25T16:45:48Z</time>
      </trkpt>
      <trkpt lat="41.121767" lon="-3.697300">
        <ele>2406.0</ele>
        <time>2016-07-25T16:45:49Z</time>
      </trkpt>
      <trkpt lat="41.121800" lon="-3.697233">
        <ele>2409.0</ele>
        <time>2016-07-25T16:45:50Z</time>
      </trkpt>
      <trkpt lat="41.121817" lon="-3.697133">
        <ele>2411.0</ele>
        <time>2016-07-25T16:45:51Z</time>
      </trkpt>
      <trkpt lat="41.121817" lon="-3.697017">
        <ele>2412.0</ele>
        <time>2016-07-25T16:45:52Z</time>
      </trkpt>
      <trkpt lat="41.121800" lon="-3.696883">
        <ele>2412.0</ele>
        <time>2016-07-25T16:45:53Z</time>
      </trkpt>
      <trkpt lat="41.121750" lon="-3.696750">
        <ele>2412.0</ele>
        <time>2016-07-25T16:45:54Z</time>
      </trkpt>
      <trkpt lat="41.121667" lon="-3.696617">
        <ele>2412.0</ele>
        <time>2016-07-25T16:45:55Z</time>
      </trkpt>
      <trkpt lat="41.121550" lon="-3.696500">
        <ele>2413.0</ele>
        <time>2016-07-25T16:45:56Z</time>
      </trkpt>
      <trkpt lat="41.121433" lon="-3.696450">
        <ele>2414.0</ele>
        <time>2016-07-25T16:45:57Z</time>
      </trkpt>
      <trkpt lat="41.121300" lon="-3.696433">
        <ele>2416.0</ele>
        <time>2016-07-25T16:45:58Z</time>
      </trkpt>
      <trkpt lat="41.121200" lon="-3.696433">
        <ele>2417.0</ele>
        <time>2016-07-25T16:45:59Z</time>
      </trkpt>
      <trkpt lat="41.121083" lon="-3.696433">
        <ele>2418.0</ele>
        <time>2016-07-25T16:46:00Z</time>
      </trkpt>
      <trkpt lat="41.120967" lon="-3.696450">
        <ele>2420.0</ele>
        <time>2016-07-25T16:46:01Z</time>
      </trkpt>
      <trkpt lat="41.120850" lon="-3.696467">
        <ele>2422.0</ele>
        <time>2016-07-25T16:46:02Z</time>
      </trkpt>
      <trkpt lat="41.120750" lon="-3.696517">
        <ele>2424.0</ele>
        <time>2016-07-25T16:46:03Z</time>
      </trkpt>
      <trkpt lat="41.120650" lon="-3.696600">
        <ele>2427.0</ele>
        <time>2016-07-25T16:46:04Z</time>
      </trkpt>
      <trkpt lat="41.120567" lon="-3.696683">
        <ele>2430.0</ele>
        <time>2016-07-25T16:46:05Z</time>
      </trkpt>
      <trkpt lat="41.120483" lon="-3.696750">
        <ele>2433.0</ele>
        <time>2016-07-25T16:46:06Z</time>
      </trkpt>
      <trkpt lat="41.120417" lon="-3.696817">
        <ele>2436.0</ele>
        <time>2016-07-25T16:46:07Z</time>
      </trkpt>
      <trkpt lat="41.120333" lon="-3.696900">
        <ele>2439.0</ele>
        <time>2016-07-25T16:46:08Z</time>
      </trkpt>
      <trkpt lat="41.120267" lon="-3.696983">
        <ele>2442.0</ele>
        <time>2016-07-25T16:46:09Z</time>
      </trkpt>
      <trkpt lat="41.120233" lon="-3.697067">
        <ele>2444.0</ele>
        <time>2016-07-25T16:46:10Z</time>
      </trkpt>
      <trkpt lat="41.120217" lon="-3.697150">
        <ele>2447.0</ele>
        <time>2016-07-25T16:46:11Z</time>
      </trkpt>
      <trkpt lat="41.120217" lon="-3.697200">
        <ele>2449.0</ele>
        <time>2016-07-25T16:46:12Z</time>
      </trkpt>
      <trkpt lat="41.120233" lon="-3.697250">
        <ele>2452.0</ele>
        <time>2016-07-25T16:46:13Z</time>
      </trkpt>
      <trkpt lat="41.120233" lon="-3.697283">
        <ele>2455.0</ele>
        <time>2016-07-25T16:46:14Z</time>
      </trkpt>
      <trkpt lat="41.120267" lon="-3.697317">
        <ele>2458.0</ele>
        <time>2016-07-25T16:46:15Z</time>
      </trkpt>
      <trkpt lat="41.120300" lon="-3.697317">
        <ele>2460.0</ele>
        <time>2016-07-25T16:46:16Z</time>
      </trkpt>
      <trkpt lat="41.120350" lon="-3.697283">
        <ele>2463.0</ele>
        <time>2016-07-25T16:46:17Z</time>
      </trkpt>
      <trkpt lat="41.120383" lon="-3.697217">
        <ele>2466.0</ele>
        <time>2016-07-25T16:46:18Z</time>
      </trkpt>
      <trkpt lat="41.120400" lon="-3.697117">
        <ele>2470.0</ele>
        <time>2016-07-25T16:46:19Z</time>
      </trkpt>
      <trkpt lat="41.120400" lon="-3.697000">
        <ele>2473.0</ele>
        <time>2016-07-25T16:46:20Z</time>
      </trkpt>
      <trkpt lat="41.120367" lon="-3.696867">
        <ele>2475.0</ele>
        <time>2016-07-25T16:46:21Z</time>
      </trkpt>
      <trkpt lat="41.120283" lon="-3.696733">
        <ele>2476.0</ele>
        <time>2016-07-25T16:46:22Z</time>
      </trkpt>
      <trkpt lat="41.120183" lon="-3.696617">
        <ele>2479.0</ele>
        <time>2016-07-25T16:46:23Z</time>
      </trkpt>
      <trkpt lat="41.120067" lon="-3.696533">
        <ele>2483.0</ele>
        <time>2016-07-25T16:46:24Z</time>
      </trkpt>
      <trkpt lat="41.119967" lon="-3.696483">
        <ele>2487.0</ele>
        <time>2016-07-25T16:46:25Z</time>
      </trkpt>
      <trkpt lat="41.119850" lon="-3.696467">
        <ele>2491.0</ele>
        <time>2016-07-25T16:46:26Z</time>
      </trkpt>
      <trkpt lat="41.119750" lon="-3.696483">
        <ele>2493.0</ele>
        <time>2016-07-25T16:46:27Z</time>
      </trkpt>
      <trkpt lat="41.119633" lon="-3.696500">
        <ele>2494.0</ele>
        <time>2016-07-25T16:46:28Z</time>
      </trkpt>
      <trkpt lat="41.119533" lon="-3.696550">
        <ele>2496.0</ele>
        <time>2016-07-25T16:46:29Z</time>
      </trkpt>
      <trkpt lat="41.119450" lon="-3.696617">
        <ele>2497.0</ele>
        <time>2016-07-25T16:46:30Z</time>
      </trkpt>
      <trkpt lat="41.119367" lon="-3.696700">
        <ele>2499.0</ele>
        <time>2016-07-25T16:46:31Z</time>
      </trkpt>
      <trkpt lat="41.119333" lon="-3.696783">
        <ele>2500.0</ele>
        <time>2016-07-25T16:46:32Z</time>
      </trkpt>
      <trkpt lat="41.119317" lon="-3.696883">
        <ele>2502.0</ele>
        <time>2016-07-25T16:46:33Z</time>
      </trkpt>
      <trkpt lat="41.119300" lon="-3.696950">
        <ele>2505.0</ele>
        <time>2016-07-25T16:46:34Z</time>
      </trkpt>
      <trkpt lat="41.119300" lon="-3.697017">
        <ele>2507.0</ele>
        <time>2016-07-25T16:46:35Z</time>
      </trkpt>
      <trkpt lat="41.119300" lon="-3.697083">
        <ele>2510.0</ele>
        <time>2016-07-25T16:46:36Z</time>
      </trkpt>
      <trkpt lat="41.119317" lon="-3.697150">
        <ele>2512.0</ele>
        <time>2016-07-25T16:46:37Z</time>
      </trkpt>
      <trkpt lat="41.119333" lon="-3.697200">
        <ele>2514.0</ele>
        <time>2016-07-25T16:46:38Z</time>
      </trkpt>
      <trkpt lat="41.119367" lon="-3.697217">
        <ele>2515.0</ele>
        <time>2016-07-25T16:46:39Z</time>
      </trkpt>
      <trkpt lat="41.119417" lon="-3.697183">
        <ele>2517.0</ele>
        <time>2016-07-25T16:46:40Z</time>
      </trkpt>
      <trkpt lat="41.119450" lon="-3.697133">
        <ele>2518.0</ele>
        <time>2016-07-25T16:46:41Z</time>
      </trkpt>
      <trkpt lat="41.119483" lon="-3.697033">
        <ele>2520.0</ele>
        <time>2016-07-25T16:46:42Z</time>
      </trkpt>
      <trkpt lat="41.119483" lon="-3.696917">
        <ele>2521.0</ele>
        <time>2016-07-25T16:46:43Z</time>
      </trkpt>
      <trkpt lat="41.119450" lon="-3.696767">
        <ele>2521.0</ele>
        <time>2016-07-25T16:46:44Z</time>
      </trkpt>
      <trkpt lat="41.119400" lon="-3.696617">
        <ele>2521.0</ele>
        <time>2016-07-25T16:46:45Z</time>
      </trkpt>
      <trkpt lat="41.119300" lon="-3.696467">
        <ele>2523.0</ele>
        <time>2016-07-25T16:46:46Z</time>
      </trkpt>
      <trkpt lat="41.119183" lon="-3.696383">
        <ele>2526.0</ele>
        <time>2016-07-25T16:46:47Z</time>
      </trkpt>
      <trkpt lat="41.119050" lon="-3.696317">
        <ele>2531.0</ele>
        <time>2016-07-25T16:46:48Z</time>
      </trkpt>
      <trkpt lat="41.118933" lon="-3.696300">
        <ele>2534.0</ele>
        <time>2016-07-25T16:46:49Z</time>
      </trkpt>
      <trkpt lat="41.118817" lon="-3.696283">
        <ele>2538.0</ele>
        <time>2016-07-25T16:46:50Z</time>
      </trkpt>
      <trkpt lat="41.118700" lon="-3.696283">
        <ele>2540.0</ele>
        <time>2016-07-25T16:46:51Z</time>
      </trkpt>
      <trkpt lat="41.118583" lon="-3.696283">
        <ele>2542.0</ele>
        <time>2016-07-25T16:46:52Z</time>
      </trkpt>
      <trkpt lat="41.118467" lon="-3.696300">
        <ele>2544.0</ele>
        <time>2016-07-25T16:46:53Z</time>
      </trkpt>
      <trkpt lat="41.118350" lon="-3.696350">
        <ele>2545.0</ele>
        <time>2016-07-25T16:46:54Z</time>
      </trkpt>
      <trkpt lat="41.118250" lon="-3.696417">
        <ele>2545.0</ele>
        <time>2016-07-25T16:46:55Z</time>
      </trkpt>
      <trkpt lat="41.118167" lon="-3.696517">
        <ele>2544.0</ele>
        <time>2016-07-25T16:46:56Z</time>
      </trkpt>
      <trkpt lat="41.118133" lon="-3.696650">
        <ele>2544.0</ele>
        <time>2016-07-25T16:46:57Z</time>
      </trkpt>
      <trkpt lat="41.118117" lon="-3.696767">
        <ele>2545.0</ele>
        <time>2016-07-25T16:46:58Z</time>
      </trkpt>
      <trkpt lat="41.118117" lon="-3.696883">
        <ele>2549.0</ele>
        <time>2016-07-25T16:46:59Z</time>
      </trkpt>
      <trkpt lat="41.118117" lon="-3.696950">
        <ele>2552.0</ele>
        <time>2016-07-25T16:47:00Z</time>
      </trkpt>
      <trkpt lat="41.118100" lon="-3.697033">
        <ele>2553.0</ele>
        <time>2016-07-25T16:47:01Z</time>
      </trkpt>
      <trkpt lat="41.118100" lon="-3.697117">
        <ele>2554.0</ele>
        <time>2016-07-25T16:47:02Z</time>
      </trkpt>
      <trkpt lat="41.118100" lon="-3.697200">
        <ele>2554.0</ele>
        <time>2016-07-25T16:47:03Z</time>
      </trkpt>
      <trkpt lat="41.118117" lon="-3.697283">
        <ele>2554.0</ele>
        <time>2016-07-25T16:47:04Z</time>
      </trkpt>
      <trkpt lat="41.118133" lon="-3.697367">
        <ele>2556.0</ele>
        <time>2016-07-25T16:47:05Z</time>
      </trkpt>
      <trkpt lat="41.118167" lon="-3.697433">
        <ele>2558.0</ele>
        <time>2016-07-25T16:47:06Z</time>
      </trkpt>
      <trkpt lat="41.118167" lon="-3.697483">
        <ele>2560.0</ele>
        <time>2016-07-25T16:47:07Z</time>
      </trkpt>
      <trkpt lat="41.118150" lon="-3.697533">
        <ele>2561.0</ele>
        <time>2016-07-25T16:47:08Z</time>
      </trkpt>
      <trkpt lat="41.118150" lon="-3.697567">
        <ele>2561.0</ele>
        <time>2016-07-25T16:47:09Z</time>
      </trkpt>
      <trkpt lat="41.118167" lon="-3.697617">
        <ele>2561.0</ele>
        <time>2016-07-25T16:47:10Z</time>
      </trkpt>
      <trkpt lat="41.118183" lon="-3.697650">
        <ele>2559.0</ele>
        <time>2016-07-25T16:47:11Z</time>
      </trkpt>
      <trkpt lat="41.118217" lon="-3.697700">
        <ele>2560.0</ele>
        <time>2016-07-25T16:47:12Z</time>
      </trkpt>
      <trkpt lat="41.118250" lon="-3.697733">
        <ele>2561.0</ele>
        <time>2016-07-25T16:47:13Z</time>
      </trkpt>
      <trkpt lat="41.118283" lon="-3.697733">
        <ele>2563.0</ele>
        <time>2016-07-25T16:47:14Z</time>
      </trkpt>
      <trkpt lat="41.118317" lon="-3.697733">
        <ele>2564.0</ele>
        <time>2016-07-25T16:47:15Z</time>
      </trkpt>
      <trkpt lat="41.118350" lon="-3.697733">
        <ele>2565.0</ele>
        <time>2016-07-25T16:47:16Z</time>
      </trkpt>
      <trkpt lat="41.118383" lon="-3.697717">
        <ele>2565.0</ele>
        <time>2016-07-25T16:47:17Z</time>
      </trkpt>
      <trkpt lat="41.118433" lon="-3.697667">
        <ele>2566.0</ele>
        <time>2016-07-25T16:47:18Z</time>
      </trkpt>
      <trkpt lat="41.118483" lon="-3.697617">
        <ele>2567.0</ele>
        <time>2016-07-25T16:47:19Z</time>
      </trkpt>
      <trkpt lat="41.118517" lon="-3.697533">
        <ele>2569.0</ele>
        <time>2016-07-25T16:47:20Z</time>
      </trkpt>
      <trkpt lat="41.118550" lon="-3.697433">
        <ele>2572.0</ele>
        <time>2016-07-25T16:47:21Z</time>
      </trkpt>
      <trkpt lat="41.118567" lon="-3.697350">
        <ele>2575.0</ele>
        <time>2016-07-25T16:47:22Z</time>
      </trkpt>
      <trkpt lat="41.118600" lon="-3.697267">
        <ele>2578.0</ele>
        <time>2016-07-25T16:47:23Z</time>
      </trkpt>
      <trkpt lat="41.118617" lon="-3.697183">
        <ele>2580.0</ele>
        <time>2016-07-25T16:47:24Z</time>
      </trkpt>
      <trkpt lat="41.118617" lon="-3.697083">
        <ele>2582.0</ele>
        <time>2016-07-25T16:47:25Z</time>
      </trkpt>
      <trkpt lat="41.118600" lon="-3.696967">
        <ele>2584.0</ele>
        <time>2016-07-25T16:47:26Z</time>
      </trkpt>
      <trkpt lat="41.118567" lon="-3.696833">
        <ele>2585.0</ele>
        <time>2016-07-25T16:47:27Z</time>
      </trkpt>
      <trkpt lat="41.118483" lon="-3.696700">
        <ele>2587.0</ele>
        <time>2016-07-25T16:47:28Z</time>
      </trkpt>
      <trkpt lat="41.118367" lon="-3.696600">
        <ele>2590.0</ele>
        <time>2016-07-25T16:47:29Z</time>
      </trkpt>
      <trkpt lat="41.118250" lon="-3.696517">
        <ele>2594.0</ele>
        <time>2016-07-25T16:47:30Z</time>
      </trkpt>
      <trkpt lat="41.118133" lon="-3.696483">
        <ele>2597.0</ele>
        <time>2016-07-25T16:47:31Z</time>
      </trkpt>
      <trkpt lat="41.118017" lon="-3.696467">
        <ele>2599.0</ele>
        <time>2016-07-25T16:47:32Z</time>
      </trkpt>
      <trkpt lat="41.117917" lon="-3.696450">
        <ele>2600.0</ele>
        <time>2016-07-25T16:47:33Z</time>
      </trkpt>
      <trkpt lat="41.117817" lon="-3.696467">
        <ele>2601.0</ele>
        <time>2016-07-25T16:47:34Z</time>
      </trkpt>
      <trkpt lat="41.117700" lon="-3.696517">
        <ele>2601.0</ele>
        <time>2016-07-25T16:47:35Z</time>
      </trkpt>
      <trkpt lat="41.117617" lon="-3.696567">
        <ele>2602.0</ele>
        <time>2016-07-25T16:47:36Z</time>
      </trkpt>
      <trkpt lat="41.117533" lon="-3.696650">
        <ele>2603.0</ele>
        <time>2016-07-25T16:47:37Z</time>
      </trkpt>
      <trkpt lat="41.117483" lon="-3.696733">
        <ele>2604.0</ele>
        <time>2016-07-25T16:47:38Z</time>
      </trkpt>
      <trkpt lat="41.117433" lon="-3.696800">
        <ele>2605.0</ele>
        <time>2016-07-25T16:47:39Z</time>
      </trkpt>
      <trkpt lat="41.117400" lon="-3.696883">
        <ele>2607.0</ele>
        <time>2016-07-25T16:47:40Z</time>
      </trkpt>
      <trkpt lat="41.117367" lon="-3.696967">
        <ele>2609.0</ele>
        <time>2016-07-25T16:47:41Z</time>
      </trkpt>
      <trkpt lat="41.117317" lon="-3.697050">
        <ele>2610.0</ele>
        <time>2016-07-25T16:47:42Z</time>
      </trkpt>
      <trkpt lat="41.117300" lon="-3.697117">
        <ele>2611.0</ele>
        <time>2016-07-25T16:47:43Z</time>
      </trkpt>
      <trkpt lat="41.117283" lon="-3.697183">
        <ele>2612.0</ele>
        <time>2016-07-25T16:47:44Z</time>
      </trkpt>
      <trkpt lat="41.117283" lon="-3.697250">
        <ele>2613.0</ele>
        <time>2016-07-25T16:47:45Z</time>
      </trkpt>
      <trkpt lat="41.117300" lon="-3.697317">
        <ele>2613.0</ele>
        <time>2016-07-25T16:47:46Z</time>
      </trkpt>
      <trkpt lat="41.117317" lon="-3.697350">
        <ele>2614.0</ele>
        <time>2016-07-25T16:47:47Z</time>
      </trkpt>
      <trkpt lat="41.117350" lon="-3.697400">
        <ele>2614.0</ele>
        <time>2016-07-25T16:47:48Z</time>
      </trkpt>
      <trkpt lat="41.117367" lon="-3.697450">
        <ele>2615.0</ele>
        <time>2016-07-25T16:47:49Z</time>
      </trkpt>
      <trkpt lat="41.117383" lon="-3.697467">
        <ele>2616.0</ele>
        <time>2016-07-25T16:47:50Z</time>
      </trkpt>
      <trkpt lat="41.117400" lon="-3.697500">
        <ele>2615.0</ele>
        <time>2016-07-25T16:47:51Z</time>
      </trkpt>
      <trkpt lat="41.117433" lon="-3.697517">
        <ele>2614.0</ele>
        <time>2016-07-25T16:47:52Z</time>
      </trkpt>
      <trkpt lat="41.117467" lon="-3.697517">
        <ele>2612.0</ele>
        <time>2016-07-25T16:47:53Z</time>
      </trkpt>
      <trkpt lat="41.117517" lon="-3.697517">
        <ele>2611.0</ele>
        <time>2016-07-25T16:47:54Z</time>
      </trkpt>
      <trkpt lat="41.117567" lon="-3.697517">
        <ele>2611.0</ele>
        <time>2016-07-25T16:47:55Z</time>
      </trkpt>
      <trkpt lat="41.117617" lon="-3.697483">
        <ele>2612.0</ele>
        <time>2016-07-25T16:47:56Z</time>
      </trkpt>
      <trkpt lat="41.117650" lon="-3.697450">
        <ele>2614.0</ele>
        <time>2016-07-25T16:47:57Z</time>
      </trkpt>
      <trkpt lat="41.117683" lon="-3.697417">
        <ele>2616.0</ele>
        <time>2016-07-25T16:47:58Z</time>
      </trkpt>
      <trkpt lat="41.117717" lon="-3.697400">
        <ele>2616.0</ele>
        <time>2016-07-25T16:47:59Z</time>
      </trkpt>
      <trkpt lat="41.117750" lon="-3.697367">
        <ele>2617.0</ele>
        <time>2016-07-25T16:48:00Z</time>
      </trkpt>
      <trkpt lat="41.117783" lon="-3.697333">
        <ele>2617.0</ele>
        <time>2016-07-25T16:48:01Z</time>
      </trkpt>
      <trkpt lat="41.117817" lon="-3.697283">
        <ele>2617.0</ele>
        <time>2016-07-25T16:48:02Z</time>
      </trkpt>
      <trkpt lat="41.117833" lon="-3.697200">
        <ele>2617.0</ele>
        <time>2016-07-25T16:48:03Z</time>
      </trkpt>
      <trkpt lat="41.117850" lon="-3.697083">
        <ele>2617.0</ele>
        <time>2016-07-25T16:48:04Z</time>
      </trkpt>
      <trkpt lat="41.117850" lon="-3.696950">
        <ele>2618.0</ele>
        <time>2016-07-25T16:48:05Z</time>
      </trkpt>
      <trkpt lat="41.117850" lon="-3.696817">
        <ele>2620.0</ele>
        <time>2016-07-25T16:48:06Z</time>
      </trkpt>
      <trkpt lat="41.117850" lon="-3.696683">
        <ele>2623.0</ele>
        <time>2016-07-25T16:48:07Z</time>
      </trkpt>
      <trkpt lat="41.117833" lon="-3.696550">
        <ele>2626.0</ele>
        <time>2016-07-25T16:48:08Z</time>
      </trkpt>
      <trkpt lat="41.117800" lon="-3.696433">
        <ele>2629.0</ele>
        <time>2016-07-25T16:48:09Z</time>
      </trkpt>
      <trkpt lat="41.117750" lon="-3.696300">
        <ele>2631.0</ele>
        <time>2016-07-25T16:48:10Z</time>
      </trkpt>
      <trkpt lat="41.117700" lon="-3.696167">
        <ele>2632.0</ele>
        <time>2016-07-25T16:48:11Z</time>
      </trkpt>
      <trkpt lat="41.117617" lon="-3.696050">
        <ele>2634.0</ele>
        <time>2016-07-25T16:48:12Z</time>
      </trkpt>
      <trkpt lat="41.117500" lon="-3.695967">
        <ele>2636.0</ele>
        <time>2016-07-25T16:48:13Z</time>
      </trkpt>
      <trkpt lat="41.117383" lon="-3.695917">
        <ele>2637.0</ele>
        <time>2016-07-25T16:48:14Z</time>
      </trkpt>
      <trkpt lat="41.117250" lon="-3.695917">
        <ele>2639.0</ele>
        <time>2016-07-25T16:48:15Z</time>
      </trkpt>
      <trkpt lat="41.117133" lon="-3.695917">
        <ele>2643.0</ele>
        <time>2016-07-25T16:48:16Z</time>
      </trkpt>
      <trkpt lat="41.117017" lon="-3.695900">
        <ele>2646.0</ele>
        <time>2016-07-25T16:48:17Z</time>
      </trkpt>
      <trkpt lat="41.116933" lon="-3.695900">
        <ele>2648.0</ele>
        <time>2016-07-25T16:48:18Z</time>
      </trkpt>
      <trkpt lat="41.116833" lon="-3.695933">
        <ele>2648.0</ele>
        <time>2016-07-25T16:48:19Z</time>
      </trkpt>
      <trkpt lat="41.116733" lon="-3.695983">
        <ele>2648.0</ele>
        <time>2016-07-25T16:48:20Z</time>
      </trkpt>
      <trkpt lat="41.116633" lon="-3.696067">
        <ele>2648.0</ele>
        <time>2016-07-25T16:48:21Z</time>
      </trkpt>
      <trkpt lat="41.116567" lon="-3.696150">
        <ele>2649.0</ele>
        <time>2016-07-25T16:48:22Z</time>
      </trkpt>
      <trkpt lat="41.116533" lon="-3.696233">
        <ele>2652.0</ele>
        <time>2016-07-25T16:48:23Z</time>
      </trkpt>
      <trkpt lat="41.116500" lon="-3.696300">
        <ele>2653.0</ele>
        <time>2016-07-25T16:48:24Z</time>
      </trkpt>
      <trkpt lat="41.116467" lon="-3.696383">
        <ele>2655.0</ele>
        <time>2016-07-25T16:48:25Z</time>
      </trkpt>
      <trkpt lat="41.116417" lon="-3.696450">
        <ele>2656.0</ele>
        <time>2016-07-25T16:48:26Z</time>
      </trkpt>
      <trkpt lat="41.116383" lon="-3.696533">
        <ele>2656.0</ele>
        <time>2016-07-25T16:48:27Z</time>
      </trkpt>
      <trkpt lat="41.116350" lon="-3.696617">
        <ele>2657.0</ele>
        <time>2016-07-25T16:48:28Z</time>
      </trkpt>
      <trkpt lat="41.116333" lon="-3.696700">
        <ele>2656.0</ele>
        <time>2016-07-25T16:48:29Z</time>
      </trkpt>
      <trkpt lat="41.116350" lon="-3.696767">
        <ele>2655.0</ele>
        <time>2016-07-25T16:48:30Z</time>
      </trkpt>
      <trkpt lat="41.116383" lon="-3.696833">
        <ele>2655.0</ele>
        <time>2016-07-25T16:48:31Z</time>
      </trkpt>
      <trkpt lat="41.116433" lon="-3.696867">
        <ele>2655.0</ele>
        <time>2016-07-25T16:48:32Z</time>
      </trkpt>
      <trkpt lat="41.116467" lon="-3.696900">
        <ele>2656.0</ele>
        <time>2016-07-25T16:48:33Z</time>
      </trkpt>
      <trkpt lat="41.116500" lon="-3.696933">
        <ele>2658.0</ele>
        <time>2016-07-25T16:48:34Z</time>
      </trkpt>
      <trkpt lat="41.116550" lon="-3.696950">
        <ele>2658.0</ele>
        <time>2016-07-25T16:48:35Z</time>
      </trkpt>
      <trkpt lat="41.116583" lon="-3.696950">
        <ele>2659.0</ele>
        <time>2016-07-25T16:48:36Z</time>
      </trkpt>
      <trkpt lat="41.116617" lon="-3.696967">
        <ele>2659.0</ele>
        <time>2016-07-25T16:48:37Z</time>
      </trkpt>
      <trkpt lat="41.116667" lon="-3.696983">
        <ele>2659.0</ele>
        <time>2016-07-25T16:48:38Z</time>
      </trkpt>
      <trkpt lat="41.116717" lon="-3.697000">
        <ele>2660.0</ele>
        <time>2016-07-25T16:48:39Z</time>
      </trkpt>
      <trkpt lat="41.116767" lon="-3.697033">
        <ele>2661.0</ele>
        <time>2016-07-25T16:48:40Z</time>
      </trkpt>
      <trkpt lat="41.116817" lon="-3.697050">
        <ele>2662.0</ele>
        <time>2016-07-25T16:48:41Z</time>
      </trkpt>
      <trkpt lat="41.116850" lon="-3.697083">
        <ele>2663.0</ele>
        <time>2016-07-25T16:48:42Z</time>
      </trkpt>
      <trkpt lat="41.116883" lon="-3.697083">
        <ele>2665.0</ele>
        <time>2016-07-25T16:48:43Z</time>
      </trkpt>
      <trkpt lat="41.116933" lon="-3.697100">
        <ele>2666.0</ele>
        <time>2016-07-25T16:48:44Z</time>
      </trkpt>
      <trkpt lat="41.116983" lon="-3.697100">
        <ele>2667.0</ele>
        <time>2016-07-25T16:48:45Z</time>
      </trkpt>
      <trkpt lat="41.117033" lon="-3.697117">
        <ele>2670.0</ele>
        <time>2016-07-25T16:48:46Z</time>
      </trkpt>
      <trkpt lat="41.117067" lon="-3.697117">
        <ele>2673.0</ele>
        <time>2016-07-25T16:48:47Z</time>
      </trkpt>
      <trkpt lat="41.117117" lon="-3.697133">
        <ele>2676.0</ele>
        <time>2016-07-25T16:48:48Z</time>
      </trkpt>
      <trkpt lat="41.117150" lon="-3.697150">
        <ele>2679.0</ele>
        <time>2016-07-25T16:48:49Z</time>
      </trkpt>
      <trkpt lat="41.117183" lon="-3.697183">
        <ele>2682.0</ele>
        <time>2016-07-25T16:48:50Z</time>
      </trkpt>
      <trkpt lat="41.117217" lon="-3.697200">
        <ele>2685.0</ele>
        <time>2016-07-25T16:48:51Z</time>
      </trkpt>
      <trkpt lat="41.117250" lon="-3.697183">
        <ele>2687.0</ele>
        <time>2016-07-25T16:48:52Z</time>
      </trkpt>
      <trkpt lat="41.117317" lon="-3.697150">
        <ele>2688.0</ele>
        <time>2016-07-25T16:48:53Z</time>
      </trkpt>
      <trkpt lat="41.117367" lon="-3.697100">
        <ele>2689.0</ele>
        <time>2016-07-25T16:48:54Z</time>
      </trkpt>
      <trkpt lat="41.117400" lon="-3.696983">
        <ele>2691.0</ele>
        <time>2016-07-25T16:48:55Z</time>
      </trkpt>
      <trkpt lat="41.117417" lon="-3.696867">
        <ele>2693.0</ele>
        <time>2016-07-25T16:48:56Z</time>
      </trkpt>
      <trkpt lat="41.117383" lon="-3.696717">
        <ele>2696.0</ele>
        <time>2016-07-25T16:48:57Z</time>
      </trkpt>
      <trkpt lat="41.117317" lon="-3.696567">
        <ele>2698.0</ele>
        <time>2016-07-25T16:48:58Z</time>
      </trkpt>
      <trkpt lat="41.117233" lon="-3.696450">
        <ele>2702.0</ele>
        <time>2016-07-25T16:48:59Z</time>
      </trkpt>
      <trkpt lat="41.117133" lon="-3.696350">
        <ele>2707.0</ele>
        <time>2016-07-25T16:49:00Z</time>
      </trkpt>
      <trkpt lat="41.117033" lon="-3.696283">
        <ele>2710.0</ele>
        <time>2016-07-25T16:49:01Z</time>
      </trkpt>
      <trkpt lat="41.116917" lon="-3.696233">
        <ele>2714.0</ele>
        <time>2016-07-25T16:49:02Z</time>
      </trkpt>
      <trkpt lat="41.116800" lon="-3.696200">
        <ele>2717.0</ele>
        <time>2016-07-25T16:49:03Z</time>
      </trkpt>
      <trkpt lat="41.116700" lon="-3.696200">
        <ele>2720.0</ele>
        <time>2016-07-25T16:49:04Z</time>
      </trkpt>
      <trkpt lat="41.116600" lon="-3.696200">
        <ele>2722.0</ele>
        <time>2016-07-25T16:49:05Z</time>
      </trkpt>
      <trkpt lat="41.116483" lon="-3.696233">
        <ele>2723.0</ele>
        <time>2016-07-25T16:49:06Z</time>
      </trkpt>
      <trkpt lat="41.116383" lon="-3.696283">
        <ele>2725.0</ele>
        <time>2016-07-25T16:49:07Z</time>
      </trkpt>
      <trkpt lat="41.116283" lon="-3.696333">
        <ele>2727.0</ele>
        <time>2016-07-25T16:49:08Z</time>
      </trkpt>
      <trkpt lat="41.116200" lon="-3.696400">
        <ele>2729.0</ele>
        <time>2016-07-25T16:49:09Z</time>
      </trkpt>
      <trkpt lat="41.116133" lon="-3.696483">
        <ele>2731.0</ele>
        <time>2016-07-25T16:49:10Z</time>
      </trkpt>
      <trkpt lat="41.116083" lon="-3.696583">
        <ele>2733.0</ele>
        <time>2016-07-25T16:49:11Z</time>
      </trkpt>
      <trkpt lat="41.116050" lon="-3.696683">
        <ele>2736.0</ele>
        <time>2016-07-25T16:49:12Z</time>
      </trkpt>
      <trkpt lat="41.116000" lon="-3.696767">
        <ele>2740.0</ele>
        <time>2016-07-25T16:49:13Z</time>
      </trkpt>
      <trkpt lat="41.115967" lon="-3.696850">
        <ele>2743.0</ele>
        <time>2016-07-25T16:49:14Z</time>
      </trkpt>
      <trkpt lat="41.115917" lon="-3.696900">
        <ele>2745.0</ele>
        <time>2016-07-25T16:49:15Z</time>
      </trkpt>
      <trkpt lat="41.115883" lon="-3.696967">
        <ele>2746.0</ele>
        <time>2016-07-25T16:49:16Z</time>
      </trkpt>
      <trkpt lat="41.115867" lon="-3.697050">
        <ele>2745.0</ele>
        <time>2016-07-25T16:49:17Z</time>
      </trkpt>
      <trkpt lat="41.115850" lon="-3.697133">
        <ele>2745.0</ele>
        <time>2016-07-25T16:49:18Z</time>
      </trkpt>
      <trkpt lat="41.115833" lon="-3.697250">
        <ele>2745.0</ele>
        <time>2016-07-25T16:49:19Z</time>
      </trkpt>
      <trkpt lat="41.115817" lon="-3.697350">
        <ele>2746.0</ele>
        <time>2016-07-25T16:49:20Z</time>
      </trkpt>
      <trkpt lat="41.115800" lon="-3.697450">
        <ele>2748.0</ele>
        <time>2016-07-25T16:49:21Z</time>
      </trkpt>
      <trkpt lat="41.115783" lon="-3.697550">
        <ele>2748.0</ele>
        <time>2016-07-25T16:49:22Z</time>
      </trkpt>
      <trkpt lat="41.115800" lon="-3.697633">
        <ele>2749.0</ele>
        <time>2016-07-25T16:49:23Z</time>
      </trkpt>
      <trkpt lat="41.115800" lon="-3.697717">
        <ele>2749.0</ele>
        <time>2016-07-25T16:49:24Z</time>
      </trkpt>
      <trkpt lat="41.115817" lon="-3.697800">
        <ele>2750.0</ele>
        <time>2016-07-25T16:49:25Z</time>
      </trkpt>
      <trkpt lat="41.115817" lon="-3.697867">
        <ele>2751.0</ele>
        <time>2016-07-25T16:49:26Z</time>
      </trkpt>
      <trkpt lat="41.115817" lon="-3.697933">
        <ele>2751.0</ele>
        <time>2016-07-25T16:49:27Z</time>
      </trkpt>
      <trkpt lat="41.115817" lon="-3.698000">
        <ele>2751.0</ele>
        <time>2016-07-25T16:49:28Z</time>
      </trkpt>
      <trkpt lat="41.115817" lon="-3.698083">
        <ele>2749.0</ele>
        <time>2016-07-25T16:49:29Z</time>
      </trkpt>
      <trkpt lat="41.115817" lon="-3.698167">
        <ele>2748.0</ele>
        <time>2016-07-25T16:49:30Z</time>
      </trkpt>
      <trkpt lat="41.115817" lon="-3.698267">
        <ele>2746.0</ele>
        <time>2016-07-25T16:49:31Z</time>
      </trkpt>
      <trkpt lat="41.115817" lon="-3.698383">
        <ele>2745.0</ele>
        <time>2016-07-25T16:49:32Z</time>
      </trkpt>
      <trkpt lat="41.115800" lon="-3.698500">
        <ele>2746.0</ele>
        <time>2016-07-25T16:49:33Z</time>
      </trkpt>
      <trkpt lat="41.115783" lon="-3.698617">
        <ele>2747.0</ele>
        <time>2016-07-25T16:49:34Z</time>
      </trkpt>
      <trkpt lat="41.115783" lon="-3.698700">
        <ele>2747.0</ele>
        <time>2016-07-25T16:49:35Z</time>
      </trkpt>
      <trkpt lat="41.115767" lon="-3.698783">
        <ele>2747.0</ele>
        <time>2016-07-25T16:49:36Z</time>
      </trkpt>
      <trkpt lat="41.115767" lon="-3.698883">
        <ele>2746.0</ele>
        <time>2016-07-25T16:49:37Z</time>
      </trkpt>
      <trkpt lat="41.115767" lon="-3.698983">
        <ele>2745.0</ele>
        <time>2016-07-25T16:49:38Z</time>
      </trkpt>
      <trkpt lat="41.115767" lon="-3.699100">
        <ele>2745.0</ele>
        <time>2016-07-25T16:49:39Z</time>
      </trkpt>
      <trkpt lat="41.115750" lon="-3.699200">
        <ele>2745.0</ele>
        <time>2016-07-25T16:49:40Z</time>
      </trkpt>
      <trkpt lat="41.115750" lon="-3.699283">
        <ele>2747.0</ele>
        <time>2016-07-25T16:49:41Z</time>
      </trkpt>
      <trkpt lat="41.115733" lon="-3.699333">
        <ele>2747.0</ele>
        <time>2016-07-25T16:49:42Z</time>
      </trkpt>
      <trkpt lat="41.115750" lon="-3.699400">
        <ele>2744.0</ele>
        <time>2016-07-25T16:49:43Z</time>
      </trkpt>
      <trkpt lat="41.115750" lon="-3.699467">
        <ele>2742.0</ele>
        <time>2016-07-25T16:49:44Z</time>
      </trkpt>
      <trkpt lat="41.115750" lon="-3.699567">
        <ele>2738.0</ele>
        <time>2016-07-25T16:49:45Z</time>
      </trkpt>
      <trkpt lat="41.115750" lon="-3.699667">
        <ele>2735.0</ele>
        <time>2016-07-25T16:49:46Z</time>
      </trkpt>
      <trkpt lat="41.115750" lon="-3.699783">
        <ele>2734.0</ele>
        <time>2016-07-25T16:49:47Z</time>
      </trkpt>
      <trkpt lat="41.115733" lon="-3.699900">
        <ele>2734.0</ele>
        <time>2016-07-25T16:49:48Z</time>
      </trkpt>
      <trkpt lat="41.115733" lon="-3.699983">
        <ele>2735.0</ele>
        <time>2016-07-25T16:49:49Z</time>
      </trkpt>
      <trkpt lat="41.115733" lon="-3.700050">
        <ele>2735.0</ele>
        <time>2016-07-25T16:49:50Z</time>
      </trkpt>
      <trkpt lat="41.115733" lon="-3.700133">
        <ele>2733.0</ele>
        <time>2016-07-25T16:49:51Z</time>
      </trkpt>
      <trkpt lat="41.115733" lon="-3.700217">
        <ele>2730.0</ele>
        <time>2016-07-25T16:49:52Z</time>
      </trkpt>
      <trkpt lat="41.115750" lon="-3.700333">
        <ele>2728.0</ele>
        <time>2016-07-25T16:49:53Z</time>
      </trkpt>
      <trkpt lat="41.115750" lon="-3.700467">
        <ele>2727.0</ele>
        <time>2016-07-25T16:49:54Z</time>
      </trkpt>
      <trkpt lat="41.115750" lon="-3.700567">
        <ele>2727.0</ele>
        <time>2016-07-25T16:49:55Z</time>
      </trkpt>
      <trkpt lat="41.115750" lon="-3.700667">
        <ele>2727.0</ele>
        <time>2016-07-25T16:49:56Z</time>
      </trkpt>
      <trkpt lat="41.115733" lon="-3.700767">
        <ele>2726.0</ele>
        <time>2016-07-25T16:49:57Z</time>
      </trkpt>
      <trkpt lat="41.115733" lon="-3.700867">
        <ele>2724.0</ele>
        <time>2016-07-25T16:49:58Z</time>
      </trkpt>
      <trkpt lat="41.115733" lon="-3.700983">
        <ele>2723.0</ele>
        <time>2016-07-25T16:49:59Z</time>
      </trkpt>
      <trkpt lat="41.115750" lon="-3.701083">
        <ele>2722.0</ele>
        <time>2016-07-25T16:50:00Z</time>
      </trkpt>
      <trkpt lat="41.115767" lon="-3.701167">
        <ele>2721.0</ele>
        <time>2016-07-25T16:50:01Z</time>
      </trkpt>
      <trkpt lat="41.115783" lon="-3.701267">
        <ele>2721.0</ele>
        <time>2016-07-25T16:50:02Z</time>
      </trkpt>
      <trkpt lat="41.115767" lon="-3.701367">
        <ele>2721.0</ele>
        <time>2016-07-25T16:50:03Z</time>
      </trkpt>
      <trkpt lat="41.115750" lon="-3.701483">
        <ele>2721.0</ele>
        <time>2016-07-25T16:50:04Z</time>
      </trkpt>
      <trkpt lat="41.115717" lon="-3.701583">
        <ele>2721.0</ele>
        <time>2016-07-25T16:50:05Z</time>
      </trkpt>
      <trkpt lat="41.115700" lon="-3.701667">
        <ele>2720.0</ele>
        <time>2016-07-25T16:50:06Z</time>
      </trkpt>
      <trkpt lat="41.115700" lon="-3.701767">
        <ele>2719.0</ele>
        <time>2016-07-25T16:50:07Z</time>
      </trkpt>
      <trkpt lat="41.115700" lon="-3.701867">
        <ele>2718.0</ele>
        <time>2016-07-25T16:50:08Z</time>
      </trkpt>
      <trkpt lat="41.115683" lon="-3.701967">
        <ele>2716.0</ele>
        <time>2016-07-25T16:50:09Z</time>
      </trkpt>
      <trkpt lat="41.115667" lon="-3.702067">
        <ele>2715.0</ele>
        <time>2016-07-25T16:50:10Z</time>
      </trkpt>
      <trkpt lat="41.115650" lon="-3.702183">
        <ele>2715.0</ele>
        <time>2016-07-25T16:50:11Z</time>
      </trkpt>
      <trkpt lat="41.115633" lon="-3.702283">
        <ele>2714.0</ele>
        <time>2016-07-25T16:50:12Z</time>
      </trkpt>
      <trkpt lat="41.115617" lon="-3.702383">
        <ele>2714.0</ele>
        <time>2016-07-25T16:50:13Z</time>
      </trkpt>
      <trkpt lat="41.115617" lon="-3.702483">
        <ele>2713.0</ele>
        <time>2016-07-25T16:50:14Z</time>
      </trkpt>
      <trkpt lat="41.115600" lon="-3.702567">
        <ele>2713.0</ele>
        <time>2016-07-25T16:50:15Z</time>
      </trkpt>
      <trkpt lat="41.115567" lon="-3.702667">
        <ele>2712.0</ele>
        <time>2016-07-25T16:50:16Z</time>
      </trkpt>
      <trkpt lat="41.115550" lon="-3.702783">
        <ele>2711.0</ele>
        <time>2016-07-25T16:50:17Z</time>
      </trkpt>
      <trkpt lat="41.115517" lon="-3.702900">
        <ele>2710.0</ele>
        <time>2016-07-25T16:50:18Z</time>
      </trkpt>
      <trkpt lat="41.115483" lon="-3.703000">
        <ele>2710.0</ele>
        <time>2016-07-25T16:50:19Z</time>
      </trkpt>
      <trkpt lat="41.115467" lon="-3.703117">
        <ele>2709.0</ele>
        <time>2016-07-25T16:50:20Z</time>
      </trkpt>
      <trkpt lat="41.115433" lon="-3.703217">
        <ele>2708.0</ele>
        <time>2016-07-25T16:50:21Z</time>
      </trkpt>
      <trkpt lat="41.115417" lon="-3.703333">
        <ele>2706.0</ele>
        <time>2016-07-25T16:50:22Z</time>
      </trkpt>
      <trkpt lat="41.115400" lon="-3.703450">
        <ele>2704.0</ele>
        <time>2016-07-25T16:50:23Z</time>
      </trkpt>
      <trkpt lat="41.115383" lon="-3.703583">
        <ele>2703.0</ele>
        <time>2016-07-25T16:50:24Z</time>
      </trkpt>
      <trkpt lat="41.115367" lon="-3.703700">
        <ele>2701.0</ele>
        <time>2016-07-25T16:50:25Z</time>
      </trkpt>
      <trkpt lat="41.115350" lon="-3.703817">
        <ele>2699.0</ele>
        <time>2016-07-25T16:50:26Z</time>
      </trkpt>
      <trkpt lat="41.115317" lon="-3.703933">
        <ele>2696.0</ele>
        <time>2016-07-25T16:50:27Z</time>
      </trkpt>
      <trkpt lat="41.115283" lon="-3.704050">
        <ele>2693.0</ele>
        <time>2016-07-25T16:50:28Z</time>
      </trkpt>
      <trkpt lat="41.115267" lon="-3.704183">
        <ele>2691.0</ele>
        <time>2016-07-25T16:50:29Z</time>
      </trkpt>
      <trkpt lat="41.115250" lon="-3.704317">
        <ele>2689.0</ele>
        <time>2016-07-25T16:50:30Z</time>
      </trkpt>
      <trkpt lat="41.115233" lon="-3.704433">
        <ele>2688.0</ele>
        <time>2016-07-25T16:50:31Z</time>
      </trkpt>
      <trkpt lat="41.115217" lon="-3.704550">
        <ele>2687.0</ele>
        <time>2016-07-25T16:50:32Z</time>
      </trkpt>
      <trkpt lat="41.115200" lon="-3.704667">
        <ele>2686.0</ele>
        <time>2016-07-25T16:50:33Z</time>
      </trkpt>
      <trkpt lat="41.115200" lon="-3.704783">
        <ele>2683.0</ele>
        <time>2016-07-25T16:50:34Z</time>
      </trkpt>
      <trkpt lat="41.115183" lon="-3.704900">
        <ele>2681.0</ele>
        <time>2016-07-25T16:50:35Z</time>
      </trkpt>
      <trkpt lat="41.115183" lon="-3.705017">
        <ele>2679.0</ele>
        <time>2016-07-25T16:50:36Z</time>
      </trkpt>
      <trkpt lat="41.115167" lon="-3.705133">
        <ele>2678.0</ele>
        <time>2016-07-25T16:50:37Z</time>
      </trkpt>
      <trkpt lat="41.115150" lon="-3.705233">
        <ele>2675.0</ele>
        <time>2016-07-25T16:50:38Z</time>
      </trkpt>
      <trkpt lat="41.115117" lon="-3.705333">
        <ele>2673.0</ele>
        <time>2016-07-25T16:50:39Z</time>
      </trkpt>
      <trkpt lat="41.115100" lon="-3.705433">
        <ele>2670.0</ele>
        <time>2016-07-25T16:50:40Z</time>
      </trkpt>
      <trkpt lat="41.115083" lon="-3.705550">
        <ele>2667.0</ele>
        <time>2016-07-25T16:50:41Z</time>
      </trkpt>
      <trkpt lat="41.115050" lon="-3.705650">
        <ele>2663.0</ele>
        <time>2016-07-25T16:50:42Z</time>
      </trkpt>
      <trkpt lat="41.115033" lon="-3.705767">
        <ele>2659.0</ele>
        <time>2016-07-25T16:50:43Z</time>
      </trkpt>
      <trkpt lat="41.115000" lon="-3.705883">
        <ele>2656.0</ele>
        <time>2016-07-25T16:50:44Z</time>
      </trkpt>
      <trkpt lat="41.114983" lon="-3.706000">
        <ele>2653.0</ele>
        <time>2016-07-25T16:50:45Z</time>
      </trkpt>
      <trkpt lat="41.114950" lon="-3.706100">
        <ele>2650.0</ele>
        <time>2016-07-25T16:50:46Z</time>
      </trkpt>
      <trkpt lat="41.114917" lon="-3.706217">
        <ele>2647.0</ele>
        <time>2016-07-25T16:50:47Z</time>
      </trkpt>
      <trkpt lat="41.114900" lon="-3.706333">
        <ele>2643.0</ele>
        <time>2016-07-25T16:50:48Z</time>
      </trkpt>
      <trkpt lat="41.114883" lon="-3.706450">
        <ele>2641.0</ele>
        <time>2016-07-25T16:50:49Z</time>
      </trkpt>
      <trkpt lat="41.114883" lon="-3.706583">
        <ele>2638.0</ele>
        <time>2016-07-25T16:50:50Z</time>
      </trkpt>
      <trkpt lat="41.114883" lon="-3.706700">
        <ele>2637.0</ele>
        <time>2016-07-25T16:50:51Z</time>
      </trkpt>
      <trkpt lat="41.114867" lon="-3.706800">
        <ele>2635.0</ele>
        <time>2016-07-25T16:50:52Z</time>
      </trkpt>
      <trkpt lat="41.114867" lon="-3.706917">
        <ele>2633.0</ele>
        <time>2016-07-25T16:50:53Z</time>
      </trkpt>
      <trkpt lat="41.114867" lon="-3.707033">
        <ele>2630.0</ele>
        <time>2016-07-25T16:50:54Z</time>
      </trkpt>
      <trkpt lat="41.114850" lon="-3.707150">
        <ele>2626.0</ele>
        <time>2016-07-25T16:50:55Z</time>
      </trkpt>
      <trkpt lat="41.114850" lon="-3.707283">
        <ele>2624.0</ele>
        <time>2016-07-25T16:50:56Z</time>
      </trkpt>
      <trkpt lat="41.114833" lon="-3.707417">
        <ele>2621.0</ele>
        <time>2016-07-25T16:50:57Z</time>
      </trkpt>
      <trkpt lat="41.114833" lon="-3.707550">
        <ele>2618.0</ele>
        <time>2016-07-25T16:50:58Z</time>
      </trkpt>
      <trkpt lat="41.114817" lon="-3.707700">
        <ele>2616.0</ele>
        <time>2016-07-25T16:50:59Z</time>
      </trkpt>
      <trkpt lat="41.114817" lon="-3.707833">
        <ele>2614.0</ele>
        <time>2016-07-25T16:51:00Z</time>
      </trkpt>
      <trkpt lat="41.114800" lon="-3.707983">
        <ele>2613.0</ele>
        <time>2016-07-25T16:51:01Z</time>
      </trkpt>
      <trkpt lat="41.114783" lon="-3.708117">
        <ele>2612.0</ele>
        <time>2016-07-25T16:51:02Z</time>
      </trkpt>
      <trkpt lat="41.114750" lon="-3.708250">
        <ele>2612.0</ele>
        <time>2016-07-25T16:51:03Z</time>
      </trkpt>
      <trkpt lat="41.114733" lon="-3.708367">
        <ele>2613.0</ele>
        <time>2016-07-25T16:51:04Z</time>
      </trkpt>
      <trkpt lat="41.114717" lon="-3.708483">
        <ele>2613.0</ele>
        <time>2016-07-25T16:51:05Z</time>
      </trkpt>
      <trkpt lat="41.114683" lon="-3.708583">
        <ele>2613.0</ele>
        <time>2016-07-25T16:51:06Z</time>
      </trkpt>
      <trkpt lat="41.114667" lon="-3.708667">
        <ele>2613.0</ele>
        <time>2016-07-25T16:51:07Z</time>
      </trkpt>
      <trkpt lat="41.114633" lon="-3.708750">
        <ele>2613.0</ele>
        <time>2016-07-25T16:51:08Z</time>
      </trkpt>
      <trkpt lat="41.114600" lon="-3.708833">
        <ele>2613.0</ele>
        <time>2016-07-25T16:51:09Z</time>
      </trkpt>
      <trkpt lat="41.114583" lon="-3.708933">
        <ele>2612.0</ele>
        <time>2016-07-25T16:51:10Z</time>
      </trkpt>
      <trkpt lat="41.114567" lon="-3.709033">
        <ele>2610.0</ele>
        <time>2016-07-25T16:51:11Z</time>
      </trkpt>
      <trkpt lat="41.114550" lon="-3.709117">
        <ele>2609.0</ele>
        <time>2016-07-25T16:51:12Z</time>
      </trkpt>
      <trkpt lat="41.114550" lon="-3.709217">
        <ele>2610.0</ele>
        <time>2016-07-25T16:51:13Z</time>
      </trkpt>
      <trkpt lat="41.114517" lon="-3.709317">
        <ele>2610.0</ele>
        <time>2016-07-25T16:51:14Z</time>
      </trkpt>
      <trkpt lat="41.114500" lon="-3.709400">
        <ele>2612.0</ele>
        <time>2016-07-25T16:51:15Z</time>
      </trkpt>
      <trkpt lat="41.114483" lon="-3.709467">
        <ele>2612.0</ele>
        <time>2016-07-25T16:51:16Z</time>
      </trkpt>
      <trkpt lat="41.114483" lon="-3.709533">
        <ele>2613.0</ele>
        <time>2016-07-25T16:51:17Z</time>
      </trkpt>
      <trkpt lat="41.114483" lon="-3.709600">
        <ele>2613.0</ele>
        <time>2016-07-25T16:51:18Z</time>
      </trkpt>
      <trkpt lat="41.114467" lon="-3.709667">
        <ele>2613.0</ele>
        <time>2016-07-25T16:51:19Z</time>
      </trkpt>
      <trkpt lat="41.114467" lon="-3.709733">
        <ele>2613.0</ele>
        <time>2016-07-25T16:51:20Z</time>
      </trkpt>
      <trkpt lat="41.114450" lon="-3.709783">
        <ele>2614.0</ele>
        <time>2016-07-25T16:51:21Z</time>
      </trkpt>
      <trkpt lat="41.114433" lon="-3.709850">
        <ele>2614.0</ele>
        <time>2016-07-25T16:51:22Z</time>
      </trkpt>
      <trkpt lat="41.114417" lon="-3.709917">
        <ele>2614.0</ele>
        <time>2016-07-25T16:51:23Z</time>
      </trkpt>
      <trkpt lat="41.114400" lon="-3.709983">
        <ele>2615.0</ele>
        <time>2016-07-25T16:51:24Z</time>
      </trkpt>
      <trkpt lat="41.114367" lon="-3.710067">
        <ele>2616.0</ele>
        <time>2016-07-25T16:51:25Z</time>
      </trkpt>
      <trkpt lat="41.114333" lon="-3.710133">
        <ele>2618.0</ele>
        <time>2016-07-25T16:51:26Z</time>
      </trkpt>
      <trkpt lat="41.114283" lon="-3.710217">
        <ele>2620.0</ele>
        <time>2016-07-25T16:51:27Z</time>
      </trkpt>
      <trkpt lat="41.114250" lon="-3.710283">
        <ele>2621.0</ele>
        <time>2016-07-25T16:51:28Z</time>
      </trkpt>
      <trkpt lat="41.114233" lon="-3.710367">
        <ele>2623.0</ele>
        <time>2016-07-25T16:51:29Z</time>
      </trkpt>
      <trkpt lat="41.114200" lon="-3.710433">
        <ele>2625.0</ele>
        <time>2016-07-25T16:51:30Z</time>
      </trkpt>
      <trkpt lat="41.114167" lon="-3.710500">
        <ele>2627.0</ele>
        <time>2016-07-25T16:51:31Z</time>
      </trkpt>
      <trkpt lat="41.114133" lon="-3.710583">
        <ele>2628.0</ele>
        <time>2016-07-25T16:51:32Z</time>
      </trkpt>
      <trkpt lat="41.114083" lon="-3.710667">
        <ele>2629.0</ele>
        <time>2016-07-25T16:51:33Z</time>
      </trkpt>
      <trkpt lat="41.114050" lon="-3.710750">
        <ele>2630.0</ele>
        <time>2016-07-25T16:51:34Z</time>
      </trkpt>
      <trkpt lat="41.114000" lon="-3.710850">
        <ele>2632.0</ele>
        <time>2016-07-25T16:51:35Z</time>
      </trkpt>
      <trkpt lat="41.113967" lon="-3.710933">
        <ele>2634.0</ele>
        <time>2016-07-25T16:51:36Z</time>
      </trkpt>
      <trkpt lat="41.113950" lon="-3.711000">
        <ele>2635.0</ele>
        <time>2016-07-25T16:51:37Z</time>
      </trkpt>
      <trkpt lat="41.113950" lon="-3.711083">
        <ele>2637.0</ele>
        <time>2016-07-25T16:51:38Z</time>
      </trkpt>
      <trkpt lat="41.113933" lon="-3.711150">
        <ele>2638.0</ele>
        <time>2016-07-25T16:51:39Z</time>
      </trkpt>
      <trkpt lat="41.113933" lon="-3.711233">
        <ele>2640.0</ele>
        <time>2016-07-25T16:51:40Z</time>
      </trkpt>
      <trkpt lat="41.113933" lon="-3.711300">
        <ele>2641.0</ele>
        <time>2016-07-25T16:51:41Z</time>
      </trkpt>
      <trkpt lat="41.113950" lon="-3.711367">
        <ele>2642.0</ele>
        <time>2016-07-25T16:51:42Z</time>
      </trkpt>
      <trkpt lat="41.113967" lon="-3.711417">
        <ele>2643.0</ele>
        <time>2016-07-25T16:51:43Z</time>
      </trkpt>
      <trkpt lat="41.114000" lon="-3.711483">
        <ele>2644.0</ele>
        <time>2016-07-25T16:51:44Z</time>
      </trkpt>
      <trkpt lat="41.114017" lon="-3.711533">
        <ele>2645.0</ele>
        <time>2016-07-25T16:51:45Z</time>
      </trkpt>
      <trkpt lat="41.114050" lon="-3.711583">
        <ele>2647.0</ele>
        <time>2016-07-25T16:51:46Z</time>
      </trkpt>
      <trkpt lat="41.114067" lon="-3.711633">
        <ele>2648.0</ele>
        <time>2016-07-25T16:51:47Z</time>
      </trkpt>
      <trkpt lat="41.114083" lon="-3.711650">
        <ele>2647.0</ele>
        <time>2016-07-25T16:51:48Z</time>
      </trkpt>
      <trkpt lat="41.114100" lon="-3.711650">
        <ele>2645.0</ele>
        <time>2016-07-25T16:51:49Z</time>
      </trkpt>
      <trkpt lat="41.114133" lon="-3.711617">
        <ele>2642.0</ele>
        <time>2016-07-25T16:51:50Z</time>
      </trkpt>
      <trkpt lat="41.114183" lon="-3.711583">
        <ele>2639.0</ele>
        <time>2016-07-25T16:51:51Z</time>
      </trkpt>
      <trkpt lat="41.114233" lon="-3.711500">
        <ele>2636.0</ele>
        <time>2016-07-25T16:51:52Z</time>
      </trkpt>
      <trkpt lat="41.114283" lon="-3.711400">
        <ele>2633.0</ele>
        <time>2016-07-25T16:51:53Z</time>
      </trkpt>
      <trkpt lat="41.114317" lon="-3.711267">
        <ele>2632.0</ele>
        <time>2016-07-25T16:51:54Z</time>
      </trkpt>
      <trkpt lat="41.114317" lon="-3.711133">
        <ele>2631.0</ele>
        <time>2016-07-25T16:51:55Z</time>
      </trkpt>
      <trkpt lat="41.114300" lon="-3.711000">
        <ele>2631.0</ele>
        <time>2016-07-25T16:51:56Z</time>
      </trkpt>
      <trkpt lat="41.114233" lon="-3.710867">
        <ele>2629.0</ele>
        <time>2016-07-25T16:51:57Z</time>
      </trkpt>
      <trkpt lat="41.114150" lon="-3.710733">
        <ele>2628.0</ele>
        <time>2016-07-25T16:51:58Z</time>
      </trkpt>
      <trkpt lat="41.114050" lon="-3.710633">
        <ele>2628.0</ele>
        <time>2016-07-25T16:51:59Z</time>
      </trkpt>
      <trkpt lat="41.113933" lon="-3.710567">
        <ele>2629.0</ele>
        <time>2016-07-25T16:52:00Z</time>
      </trkpt>
      <trkpt lat="41.113833" lon="-3.710533">
        <ele>2629.0</ele>
        <time>2016-07-25T16:52:01Z</time>
      </trkpt>
      <trkpt lat="41.113717" lon="-3.710500">
        <ele>2628.0</ele>
        <time>2016-07-25T16:52:02Z</time>
      </trkpt>
      <trkpt lat="41.113583" lon="-3.710483">
        <ele>2629.0</ele>
        <time>2016-07-25T16:52:03Z</time>
      </trkpt>
      <trkpt lat="41.113467" lon="-3.710483">
        <ele>2630.0</ele>
        <time>2016-07-25T16:52:04Z</time>
      </trkpt>
      <trkpt lat="41.113367" lon="-3.710500">
        <ele>2632.0</ele>
        <time>2016-07-25T16:52:05Z</time>
      </trkpt>
      <trkpt lat="41.113250" lon="-3.710533">
        <ele>2633.0</ele>
        <time>2016-07-25T16:52:06Z</time>
      </trkpt>
      <trkpt lat="41.113167" lon="-3.710583">
        <ele>2635.0</ele>
        <time>2016-07-25T16:52:07Z</time>
      </trkpt>
      <trkpt lat="41.113067" lon="-3.710617">
        <ele>2637.0</ele>
        <time>2016-07-25T16:52:08Z</time>
      </trkpt>
      <trkpt lat="41.112983" lon="-3.710667">
        <ele>2638.0</ele>
        <time>2016-07-25T16:52:09Z</time>
      </trkpt>
      <trkpt lat="41.112900" lon="-3.710717">
        <ele>2639.0</ele>
        <time>2016-07-25T16:52:10Z</time>
      </trkpt>
      <trkpt lat="41.112817" lon="-3.710783">
        <ele>2640.0</ele>
        <time>2016-07-25T16:52:11Z</time>
      </trkpt>
      <trkpt lat="41.112733" lon="-3.710867">
        <ele>2642.0</ele>
        <time>2016-07-25T16:52:12Z</time>
      </trkpt>
      <trkpt lat="41.112683" lon="-3.710950">
        <ele>2644.0</ele>
        <time>2016-07-25T16:52:13Z</time>
      </trkpt>
      <trkpt lat="41.112633" lon="-3.711017">
        <ele>2646.0</ele>
        <time>2016-07-25T16:52:14Z</time>
      </trkpt>
      <trkpt lat="41.112567" lon="-3.711100">
        <ele>2648.0</ele>
        <time>2016-07-25T16:52:15Z</time>
      </trkpt>
      <trkpt lat="41.112500" lon="-3.711167">
        <ele>2649.0</ele>
        <time>2016-07-25T16:52:16Z</time>
      </trkpt>
      <trkpt lat="41.112450" lon="-3.711250">
        <ele>2650.0</ele>
        <time>2016-07-25T16:52:17Z</time>
      </trkpt>
      <trkpt lat="41.112400" lon="-3.711333">
        <ele>2650.0</ele>
        <time>2016-07-25T16:52:18Z</time>
      </trkpt>
      <trkpt lat="41.112383" lon="-3.711417">
        <ele>2651.0</ele>
        <time>2016-07-25T16:52:19Z</time>
      </trkpt>
      <trkpt lat="41.112350" lon="-3.711517">
        <ele>2653.0</ele>
        <time>2016-07-25T16:52:20Z</time>
      </trkpt>
      <trkpt lat="41.112333" lon="-3.711600">
        <ele>2655.0</ele>
        <time>2016-07-25T16:52:21Z</time>
      </trkpt>
      <trkpt lat="41.112333" lon="-3.711683">
        <ele>2657.0</ele>
        <time>2016-07-25T16:52:22Z</time>
      </trkpt>
      <trkpt lat="41.112317" lon="-3.711750">
        <ele>2659.0</ele>
        <time>2016-07-25T16:52:23Z</time>
      </trkpt>
      <trkpt lat="41.112317" lon="-3.711817">
        <ele>2660.0</ele>
        <time>2016-07-25T16:52:24Z</time>
      </trkpt>
      <trkpt lat="41.112300" lon="-3.711883">
        <ele>2660.0</ele>
        <time>2016-07-25T16:52:25Z</time>
      </trkpt>
      <trkpt lat="41.112283" lon="-3.711950">
        <ele>2659.0</ele>
        <time>2016-07-25T16:52:26Z</time>
      </trkpt>
      <trkpt lat="41.112300" lon="-3.712017">
        <ele>2659.0</ele>
        <time>2016-07-25T16:52:27Z</time>
      </trkpt>
      <trkpt lat="41.112333" lon="-3.712050">
        <ele>2658.0</ele>
        <time>2016-07-25T16:52:28Z</time>
      </trkpt>
      <trkpt lat="41.112367" lon="-3.712067">
        <ele>2656.0</ele>
        <time>2016-07-25T16:52:29Z</time>
      </trkpt>
      <trkpt lat="41.112417" lon="-3.712067">
        <ele>2654.0</ele>
        <time>2016-07-25T16:52:30Z</time>
      </trkpt>
      <trkpt lat="41.112483" lon="-3.712017">
        <ele>2652.0</ele>
        <time>2016-07-25T16:52:31Z</time>
      </trkpt>
      <trkpt lat="41.112533" lon="-3.711933">
        <ele>2651.0</ele>
        <time>2016-07-25T16:52:32Z</time>
      </trkpt>
      <trkpt lat="41.112550" lon="-3.711817">
        <ele>2650.0</ele>
        <time>2016-07-25T16:52:33Z</time>
      </trkpt>
      <trkpt lat="41.112550" lon="-3.711700">
        <ele>2649.0</ele>
        <time>2016-07-25T16:52:34Z</time>
      </trkpt>
      <trkpt lat="41.112517" lon="-3.711550">
        <ele>2648.0</ele>
        <time>2016-07-25T16:52:35Z</time>
      </trkpt>
      <trkpt lat="41.112433" lon="-3.711433">
        <ele>2647.0</ele>
        <time>2016-07-25T16:52:36Z</time>
      </trkpt>
      <trkpt lat="41.112333" lon="-3.711333">
        <ele>2646.0</ele>
        <time>2016-07-25T16:52:37Z</time>
      </trkpt>
      <trkpt lat="41.112200" lon="-3.711267">
        <ele>2645.0</ele>
        <time>2016-07-25T16:52:38Z</time>
      </trkpt>
      <trkpt lat="41.112083" lon="-3.711250">
        <ele>2644.0</ele>
        <time>2016-07-25T16:52:39Z</time>
      </trkpt>
      <trkpt lat="41.111967" lon="-3.711250">
        <ele>2644.0</ele>
        <time>2016-07-25T16:52:40Z</time>
      </trkpt>
      <trkpt lat="41.111850" lon="-3.711267">
        <ele>2645.0</ele>
        <time>2016-07-25T16:52:41Z</time>
      </trkpt>
      <trkpt lat="41.111750" lon="-3.711317">
        <ele>2645.0</ele>
        <time>2016-07-25T16:52:42Z</time>
      </trkpt>
      <trkpt lat="41.111650" lon="-3.711383">
        <ele>2643.0</ele>
        <time>2016-07-25T16:52:43Z</time>
      </trkpt>
      <trkpt lat="41.111567" lon="-3.711450">
        <ele>2642.0</ele>
        <time>2016-07-25T16:52:44Z</time>
      </trkpt>
      <trkpt lat="41.111467" lon="-3.711550">
        <ele>2642.0</ele>
        <time>2016-07-25T16:52:45Z</time>
      </trkpt>
      <trkpt lat="41.111367" lon="-3.711633">
        <ele>2644.0</ele>
        <time>2016-07-25T16:52:46Z</time>
      </trkpt>
      <trkpt lat="41.111283" lon="-3.711700">
        <ele>2647.0</ele>
        <time>2016-07-25T16:52:47Z</time>
      </trkpt>
      <trkpt lat="41.111217" lon="-3.711750">
        <ele>2649.0</ele>
        <time>2016-07-25T16:52:48Z</time>
      </trkpt>
      <trkpt lat="41.111133" lon="-3.711800">
        <ele>2651.0</ele>
        <time>2016-07-25T16:52:49Z</time>
      </trkpt>
      <trkpt lat="41.111050" lon="-3.711867">
        <ele>2651.0</ele>
        <time>2016-07-25T16:52:50Z</time>
      </trkpt>
      <trkpt lat="41.110967" lon="-3.711933">
        <ele>2652.0</ele>
        <time>2016-07-25T16:52:51Z</time>
      </trkpt>
      <trkpt lat="41.110883" lon="-3.712017">
        <ele>2653.0</ele>
        <time>2016-07-25T16:52:52Z</time>
      </trkpt>
      <trkpt lat="41.110800" lon="-3.712083">
        <ele>2653.0</ele>
        <time>2016-07-25T16:52:53Z</time>
      </trkpt>
      <trkpt lat="41.110733" lon="-3.712167">
        <ele>2653.0</ele>
        <time>2016-07-25T16:52:54Z</time>
      </trkpt>
      <trkpt lat="41.110650" lon="-3.712267">
        <ele>2653.0</ele>
        <time>2016-07-25T16:52:55Z</time>
      </trkpt>
      <trkpt lat="41.110600" lon="-3.712383">
        <ele>2654.0</ele>
        <time>2016-07-25T16:52:56Z</time>
      </trkpt>
      <trkpt lat="41.110533" lon="-3.712500">
        <ele>2654.0</ele>
        <time>2016-07-25T16:52:57Z</time>
      </trkpt>
      <trkpt lat="41.110500" lon="-3.712600">
        <ele>2655.0</ele>
        <time>2016-07-25T16:52:58Z</time>
      </trkpt>
      <trkpt lat="41.110483" lon="-3.712700">
        <ele>2656.0</ele>
        <time>2016-07-25T16:52:59Z</time>
      </trkpt>
      <trkpt lat="41.110450" lon="-3.712800">
        <ele>2656.0</ele>
        <time>2016-07-25T16:53:00Z</time>
      </trkpt>
      <trkpt lat="41.110433" lon="-3.712900">
        <ele>2656.0</ele>
        <time>2016-07-25T16:53:01Z</time>
      </trkpt>
      <trkpt lat="41.110417" lon="-3.713000">
        <ele>2657.0</ele>
        <time>2016-07-25T16:53:02Z</time>
      </trkpt>
      <trkpt lat="41.110383" lon="-3.713100">
        <ele>2656.0</ele>
        <time>2016-07-25T16:53:03Z</time>
      </trkpt>
      <trkpt lat="41.110367" lon="-3.713200">
        <ele>2654.0</ele>
        <time>2016-07-25T16:53:04Z</time>
      </trkpt>
      <trkpt lat="41.110350" lon="-3.713300">
        <ele>2652.0</ele>
        <time>2016-07-25T16:53:05Z</time>
      </trkpt>
      <trkpt lat="41.110350" lon="-3.713400">
        <ele>2650.0</ele>
        <time>2016-07-25T16:53:06Z</time>
      </trkpt>
      <trkpt lat="41.110333" lon="-3.713500">
        <ele>2649.0</ele>
        <time>2016-07-25T16:53:07Z</time>
      </trkpt>
      <trkpt lat="41.110317" lon="-3.713583">
        <ele>2649.0</ele>
        <time>2016-07-25T16:53:08Z</time>
      </trkpt>
      <trkpt lat="41.110283" lon="-3.713667">
        <ele>2648.0</ele>
        <time>2016-07-25T16:53:09Z</time>
      </trkpt>
      <trkpt lat="41.110233" lon="-3.713767">
        <ele>2646.0</ele>
        <time>2016-07-25T16:53:10Z</time>
      </trkpt>
      <trkpt lat="41.110200" lon="-3.713883">
        <ele>2643.0</ele>
        <time>2016-07-25T16:53:11Z</time>
      </trkpt>
      <trkpt lat="41.110167" lon="-3.714017">
        <ele>2642.0</ele>
        <time>2016-07-25T16:53:12Z</time>
      </trkpt>
      <trkpt lat="41.110133" lon="-3.714133">
        <ele>2641.0</ele>
        <time>2016-07-25T16:53:13Z</time>
      </trkpt>
      <trkpt lat="41.110117" lon="-3.714250">
        <ele>2642.0</ele>
        <time>2016-07-25T16:53:14Z</time>
      </trkpt>
      <trkpt lat="41.110067" lon="-3.714350">
        <ele>2642.0</ele>
        <time>2016-07-25T16:53:15Z</time>
      </trkpt>
      <trkpt lat="41.110033" lon="-3.714450">
        <ele>2641.0</ele>
        <time>2016-07-25T16:53:16Z</time>
      </trkpt>
      <trkpt lat="41.110000" lon="-3.714550">
        <ele>2639.0</ele>
        <time>2016-07-25T16:53:17Z</time>
      </trkpt>
      <trkpt lat="41.109983" lon="-3.714667">
        <ele>2636.0</ele>
        <time>2016-07-25T16:53:18Z</time>
      </trkpt>
      <trkpt lat="41.109967" lon="-3.714800">
        <ele>2635.0</ele>
        <time>2016-07-25T16:53:19Z</time>
      </trkpt>
      <trkpt lat="41.109950" lon="-3.714917">
        <ele>2634.0</ele>
        <time>2016-07-25T16:53:20Z</time>
      </trkpt>
      <trkpt lat="41.109933" lon="-3.715033">
        <ele>2634.0</ele>
        <time>2016-07-25T16:53:21Z</time>
      </trkpt>
      <trkpt lat="41.109917" lon="-3.715133">
        <ele>2633.0</ele>
        <time>2016-07-25T16:53:22Z</time>
      </trkpt>
      <trkpt lat="41.109883" lon="-3.715233">
        <ele>2631.0</ele>
        <time>2016-07-25T16:53:23Z</time>
      </trkpt>
      <trkpt lat="41.109867" lon="-3.715333">
        <ele>2629.0</ele>
        <time>2016-07-25T16:53:24Z</time>
      </trkpt>
      <trkpt lat="41.109850" lon="-3.715467">
        <ele>2627.0</ele>
        <time>2016-07-25T16:53:25Z</time>
      </trkpt>
      <trkpt lat="41.109817" lon="-3.715600">
        <ele>2626.0</ele>
        <time>2016-07-25T16:53:26Z</time>
      </trkpt>
      <trkpt lat="41.109800" lon="-3.715717">
        <ele>2626.0</ele>
        <time>2016-07-25T16:53:27Z</time>
      </trkpt>
      <trkpt lat="41.109783" lon="-3.715817">
        <ele>2626.0</ele>
        <time>2016-07-25T16:53:28Z</time>
      </trkpt>
      <trkpt lat="41.109783" lon="-3.715900">
        <ele>2625.0</ele>
        <time>2016-07-25T16:53:29Z</time>
      </trkpt>
      <trkpt lat="41.109783" lon="-3.716000">
        <ele>2623.0</ele>
        <time>2016-07-25T16:53:30Z</time>
      </trkpt>
      <trkpt lat="41.109783" lon="-3.716117">
        <ele>2622.0</ele>
        <time>2016-07-25T16:53:31Z</time>
      </trkpt>
      <trkpt lat="41.109783" lon="-3.716250">
        <ele>2622.0</ele>
        <time>2016-07-25T16:53:32Z</time>
      </trkpt>
      <trkpt lat="41.109767" lon="-3.716367">
        <ele>2623.0</ele>
        <time>2016-07-25T16:53:33Z</time>
      </trkpt>
      <trkpt lat="41.109733" lon="-3.716483">
        <ele>2624.0</ele>
        <time>2016-07-25T16:53:34Z</time>
      </trkpt>
      <trkpt lat="41.109717" lon="-3.716600">
        <ele>2625.0</ele>
        <time>2016-07-25T16:53:35Z</time>
      </trkpt>
      <trkpt lat="41.109700" lon="-3.716717">
        <ele>2626.0</ele>
        <time>2016-07-25T16:53:36Z</time>
      </trkpt>
      <trkpt lat="41.109700" lon="-3.716817">
        <ele>2627.0</ele>
        <time>2016-07-25T16:53:37Z</time>
      </trkpt>
      <trkpt lat="41.109700" lon="-3.716917">
        <ele>2628.0</ele>
        <time>2016-07-25T16:53:38Z</time>
      </trkpt>
      <trkpt lat="41.109683" lon="-3.717033">
        <ele>2628.0</ele>
        <time>2016-07-25T16:53:39Z</time>
      </trkpt>
      <trkpt lat="41.109667" lon="-3.717133">
        <ele>2629.0</ele>
        <time>2016-07-25T16:53:40Z</time>
      </trkpt>
      <trkpt lat="41.109650" lon="-3.717217">
        <ele>2631.0</ele>
        <time>2016-07-25T16:53:41Z</time>
      </trkpt>
      <trkpt lat="41.109633" lon="-3.717317">
        <ele>2633.0</ele>
        <time>2016-07-25T16:53:42Z</time>
      </trkpt>
      <trkpt lat="41.109617" lon="-3.717417">
        <ele>2636.0</ele>
        <time>2016-07-25T16:53:43Z</time>
      </trkpt>
      <trkpt lat="41.109583" lon="-3.717500">
        <ele>2638.0</ele>
        <time>2016-07-25T16:53:44Z</time>
      </trkpt>
      <trkpt lat="41.109533" lon="-3.717600">
        <ele>2641.0</ele>
        <time>2016-07-25T16:53:45Z</time>
      </trkpt>
      <trkpt lat="41.109500" lon="-3.717683">
        <ele>2643.0</ele>
        <time>2016-07-25T16:53:46Z</time>
      </trkpt>
      <trkpt lat="41.109500" lon="-3.717750">
        <ele>2645.0</ele>
        <time>2016-07-25T16:53:47Z</time>
      </trkpt>
      <trkpt lat="41.109517" lon="-3.717800">
        <ele>2646.0</ele>
        <time>2016-07-25T16:53:48Z</time>
      </trkpt>
      <trkpt lat="41.109550" lon="-3.717817">
        <ele>2646.0</ele>
        <time>2016-07-25T16:53:49Z</time>
      </trkpt>
      <trkpt lat="41.109583" lon="-3.717800">
        <ele>2647.0</ele>
        <time>2016-07-25T16:53:50Z</time>
      </trkpt>
      <trkpt lat="41.109617" lon="-3.717750">
        <ele>2646.0</ele>
        <time>2016-07-25T16:53:51Z</time>
      </trkpt>
      <trkpt lat="41.109650" lon="-3.717683">
        <ele>2646.0</ele>
        <time>2016-07-25T16:53:52Z</time>
      </trkpt>
      <trkpt lat="41.109683" lon="-3.717583">
        <ele>2646.0</ele>
        <time>2016-07-25T16:53:53Z</time>
      </trkpt>
      <trkpt lat="41.109683" lon="-3.717467">
        <ele>2647.0</ele>
        <time>2016-07-25T16:53:54Z</time>
      </trkpt>
      <trkpt lat="41.109650" lon="-3.717317">
        <ele>2647.0</ele>
        <time>2016-07-25T16:53:55Z</time>
      </trkpt>
      <trkpt lat="41.109567" lon="-3.717183">
        <ele>2648.0</ele>
        <time>2016-07-25T16:53:56Z</time>
      </trkpt>
      <trkpt lat="41.109450" lon="-3.717083">
        <ele>2651.0</ele>
        <time>2016-07-25T16:53:57Z</time>
      </trkpt>
      <trkpt lat="41.109333" lon="-3.717033">
        <ele>2655.0</ele>
        <time>2016-07-25T16:53:58Z</time>
      </trkpt>
      <trkpt lat="41.109217" lon="-3.717017">
        <ele>2658.0</ele>
        <time>2016-07-25T16:53:59Z</time>
      </trkpt>
      <trkpt lat="41.109117" lon="-3.717017">
        <ele>2661.0</ele>
        <time>2016-07-25T16:54:00Z</time>
      </trkpt>
      <trkpt lat="41.109000" lon="-3.717017">
        <ele>2663.0</ele>
        <time>2016-07-25T16:54:01Z</time>
      </trkpt>
      <trkpt lat="41.108883" lon="-3.717017">
        <ele>2665.0</ele>
        <time>2016-07-25T16:54:02Z</time>
      </trkpt>
      <trkpt lat="41.108767" lon="-3.717017">
        <ele>2666.0</ele>
        <time>2016-07-25T16:54:03Z</time>
      </trkpt>
      <trkpt lat="41.108650" lon="-3.717050">
        <ele>2668.0</ele>
        <time>2016-07-25T16:54:04Z</time>
      </trkpt>
      <trkpt lat="41.108550" lon="-3.717117">
        <ele>2669.0</ele>
        <time>2016-07-25T16:54:05Z</time>
      </trkpt>
      <trkpt lat="41.108467" lon="-3.717217">
        <ele>2669.0</ele>
        <time>2016-07-25T16:54:06Z</time>
      </trkpt>
      <trkpt lat="41.108433" lon="-3.717317">
        <ele>2671.0</ele>
        <time>2016-07-25T16:54:07Z</time>
      </trkpt>
      <trkpt lat="41.108400" lon="-3.717400">
        <ele>2672.0</ele>
        <time>2016-07-25T16:54:08Z</time>
      </trkpt>
      <trkpt lat="41.108383" lon="-3.717467">
        <ele>2673.0</ele>
        <time>2016-07-25T16:54:09Z</time>
      </trkpt>
      <trkpt lat="41.108383" lon="-3.717533">
        <ele>2674.0</ele>
        <time>2016-07-25T16:54:10Z</time>
      </trkpt>
      <trkpt lat="41.108367" lon="-3.717600">
        <ele>2675.0</ele>
        <time>2016-07-25T16:54:11Z</time>
      </trkpt>
      <trkpt lat="41.108383" lon="-3.717650">
        <ele>2675.0</ele>
        <time>2016-07-25T16:54:12Z</time>
      </trkpt>
      <trkpt lat="41.108417" lon="-3.717650">
        <ele>2676.0</ele>
        <time>2016-07-25T16:54:13Z</time>
      </trkpt>
      <trkpt lat="41.108450" lon="-3.717633">
        <ele>2675.0</ele>
        <time>2016-07-25T16:54:14Z</time>
      </trkpt>
      <trkpt lat="41.108500" lon="-3.717583">
        <ele>2676.0</ele>
        <time>2016-07-25T16:54:15Z</time>
      </trkpt>
      <trkpt lat="41.108517" lon="-3.717517">
        <ele>2676.0</ele>
        <time>2016-07-25T16:54:16Z</time>
      </trkpt>
      <trkpt lat="41.108533" lon="-3.717400">
        <ele>2676.0</ele>
        <time>2016-07-25T16:54:17Z</time>
      </trkpt>
      <trkpt lat="41.108517" lon="-3.717250">
        <ele>2676.0</ele>
        <time>2016-07-25T16:54:18Z</time>
      </trkpt>
      <trkpt lat="41.108467" lon="-3.717100">
        <ele>2675.0</ele>
        <time>2016-07-25T16:54:19Z</time>
      </trkpt>
      <trkpt lat="41.108383" lon="-3.716950">
        <ele>2675.0</ele>
        <time>2016-07-25T16:54:20Z</time>
      </trkpt>
      <trkpt lat="41.108283" lon="-3.716833">
        <ele>2676.0</ele>
        <time>2016-07-25T16:54:21Z</time>
      </trkpt>
      <trkpt lat="41.108167" lon="-3.716750">
        <ele>2677.0</ele>
        <time>2016-07-25T16:54:22Z</time>
      </trkpt>
      <trkpt lat="41.108033" lon="-3.716683">
        <ele>2678.0</ele>
        <time>2016-07-25T16:54:23Z</time>
      </trkpt>
      <trkpt lat="41.107917" lon="-3.716650">
        <ele>2679.0</ele>
        <time>2016-07-25T16:54:24Z</time>
      </trkpt>
      <trkpt lat="41.107783" lon="-3.716633">
        <ele>2680.0</ele>
        <time>2016-07-25T16:54:25Z</time>
      </trkpt>
      <trkpt lat="41.107650" lon="-3.716633">
        <ele>2681.0</ele>
        <time>2016-07-25T16:54:26Z</time>
      </trkpt>
      <trkpt lat="41.107533" lon="-3.716667">
        <ele>2682.0</ele>
        <time>2016-07-25T16:54:27Z</time>
      </trkpt>
      <trkpt lat="41.107417" lon="-3.716700">
        <ele>2683.0</ele>
        <time>2016-07-25T16:54:28Z</time>
      </trkpt>
      <trkpt lat="41.107317" lon="-3.716767">
        <ele>2684.0</ele>
        <time>2016-07-25T16:54:29Z</time>
      </trkpt>
      <trkpt lat="41.107217" lon="-3.716833">
        <ele>2684.0</ele>
        <time>2016-07-25T16:54:30Z</time>
      </trkpt>
      <trkpt lat="41.107133" lon="-3.716900">
        <ele>2685.0</ele>
        <time>2016-07-25T16:54:31Z</time>
      </trkpt>
      <trkpt lat="41.107050" lon="-3.716967">
        <ele>2686.0</ele>
        <time>2016-07-25T16:54:32Z</time>
      </trkpt>
      <trkpt lat="41.106983" lon="-3.717033">
        <ele>2686.0</ele>
        <time>2016-07-25T16:54:33Z</time>
      </trkpt>
      <trkpt lat="41.106917" lon="-3.717133">
        <ele>2685.0</ele>
        <time>2016-07-25T16:54:34Z</time>
      </trkpt>
      <trkpt lat="41.106850" lon="-3.717217">
        <ele>2686.0</ele>
        <time>2016-07-25T16:54:35Z</time>
      </trkpt>
      <trkpt lat="41.106783" lon="-3.717317">
        <ele>2687.0</ele>
        <time>2016-07-25T16:54:36Z</time>
      </trkpt>
      <trkpt lat="41.106733" lon="-3.717383">
        <ele>2688.0</ele>
        <time>2016-07-25T16:54:37Z</time>
      </trkpt>
      <trkpt lat="41.106667" lon="-3.717467">
        <ele>2689.0</ele>
        <time>2016-07-25T16:54:38Z</time>
      </trkpt>
      <trkpt lat="41.106617" lon="-3.717533">
        <ele>2689.0</ele>
        <time>2016-07-25T16:54:39Z</time>
      </trkpt>
      <trkpt lat="41.106583" lon="-3.717633">
        <ele>2690.0</ele>
        <time>2016-07-25T16:54:40Z</time>
      </trkpt>
      <trkpt lat="41.106550" lon="-3.717717">
        <ele>2691.0</ele>
        <time>2016-07-25T16:54:41Z</time>
      </trkpt>
      <trkpt lat="41.106517" lon="-3.717800">
        <ele>2694.0</ele>
        <time>2016-07-25T16:54:42Z</time>
      </trkpt>
      <trkpt lat="41.106500" lon="-3.717883">
        <ele>2697.0</ele>
        <time>2016-07-25T16:54:43Z</time>
      </trkpt>
      <trkpt lat="41.106467" lon="-3.717950">
        <ele>2699.0</ele>
        <time>2016-07-25T16:54:44Z</time>
      </trkpt>
      <trkpt lat="41.106433" lon="-3.718033">
        <ele>2700.0</ele>
        <time>2016-07-25T16:54:45Z</time>
      </trkpt>
      <trkpt lat="41.106400" lon="-3.718117">
        <ele>2701.0</ele>
        <time>2016-07-25T16:54:46Z</time>
      </trkpt>
      <trkpt lat="41.106367" lon="-3.718200">
        <ele>2703.0</ele>
        <time>2016-07-25T16:54:47Z</time>
      </trkpt>
      <trkpt lat="41.106350" lon="-3.718283">
        <ele>2705.0</ele>
        <time>2016-07-25T16:54:48Z</time>
      </trkpt>
      <trkpt lat="41.106350" lon="-3.718350">
        <ele>2707.0</ele>
        <time>2016-07-25T16:54:49Z</time>
      </trkpt>
      <trkpt lat="41.106333" lon="-3.718417">
        <ele>2708.0</ele>
        <time>2016-07-25T16:54:50Z</time>
      </trkpt>
      <trkpt lat="41.106317" lon="-3.718483">
        <ele>2709.0</ele>
        <time>2016-07-25T16:54:51Z</time>
      </trkpt>
      <trkpt lat="41.106300" lon="-3.718550">
        <ele>2708.0</ele>
        <time>2016-07-25T16:54:52Z</time>
      </trkpt>
      <trkpt lat="41.106283" lon="-3.718617">
        <ele>2707.0</ele>
        <time>2016-07-25T16:54:53Z</time>
      </trkpt>
      <trkpt lat="41.106300" lon="-3.718667">
        <ele>2706.0</ele>
        <time>2016-07-25T16:54:54Z</time>
      </trkpt>
      <trkpt lat="41.106333" lon="-3.718700">
        <ele>2705.0</ele>
        <time>2016-07-25T16:54:55Z</time>
      </trkpt>
      <trkpt lat="41.106367" lon="-3.718683">
        <ele>2706.0</ele>
        <time>2016-07-25T16:54:56Z</time>
      </trkpt>
      <trkpt lat="41.106400" lon="-3.718617">
        <ele>2706.0</ele>
        <time>2016-07-25T16:54:57Z</time>
      </trkpt>
      <trkpt lat="41.106417" lon="-3.718517">
        <ele>2706.0</ele>
        <time>2016-07-25T16:54:58Z</time>
      </trkpt>
      <trkpt lat="41.106400" lon="-3.718367">
        <ele>2706.0</ele>
        <time>2016-07-25T16:54:59Z</time>
      </trkpt>
      <trkpt lat="41.106333" lon="-3.718217">
        <ele>2707.0</ele>
        <time>2016-07-25T16:55:00Z</time>
      </trkpt>
      <trkpt lat="41.106233" lon="-3.718100">
        <ele>2708.0</ele>
        <time>2016-07-25T16:55:01Z</time>
      </trkpt>
      <trkpt lat="41.106117" lon="-3.718000">
        <ele>2710.0</ele>
        <time>2016-07-25T16:55:02Z</time>
      </trkpt>
      <trkpt lat="41.106000" lon="-3.717933">
        <ele>2711.0</ele>
        <time>2016-07-25T16:55:03Z</time>
      </trkpt>
      <trkpt lat="41.105883" lon="-3.717917">
        <ele>2712.0</ele>
        <time>2016-07-25T16:55:04Z</time>
      </trkpt>
      <trkpt lat="41.105767" lon="-3.717917">
        <ele>2711.0</ele>
        <time>2016-07-25T16:55:05Z</time>
      </trkpt>
      <trkpt lat="41.105650" lon="-3.717917">
        <ele>2712.0</ele>
        <time>2016-07-25T16:55:06Z</time>
      </trkpt>
      <trkpt lat="41.105517" lon="-3.717950">
        <ele>2712.0</ele>
        <time>2016-07-25T16:55:07Z</time>
      </trkpt>
      <trkpt lat="41.105400" lon="-3.717983">
        <ele>2713.0</ele>
        <time>2016-07-25T16:55:08Z</time>
      </trkpt>
      <trkpt lat="41.105300" lon="-3.718033">
        <ele>2714.0</ele>
        <time>2016-07-25T16:55:09Z</time>
      </trkpt>
      <trkpt lat="41.105217" lon="-3.718100">
        <ele>2714.0</ele>
        <time>2016-07-25T16:55:10Z</time>
      </trkpt>
      <trkpt lat="41.105117" lon="-3.718167">
        <ele>2715.0</ele>
        <time>2016-07-25T16:55:11Z</time>
      </trkpt>
      <trkpt lat="41.105033" lon="-3.718250">
        <ele>2716.0</ele>
        <time>2016-07-25T16:55:12Z</time>
      </trkpt>
      <trkpt lat="41.104950" lon="-3.718333">
        <ele>2717.0</ele>
        <time>2016-07-25T16:55:13Z</time>
      </trkpt>
      <trkpt lat="41.104883" lon="-3.718417">
        <ele>2718.0</ele>
        <time>2016-07-25T16:55:14Z</time>
      </trkpt>
      <trkpt lat="41.104817" lon="-3.718517">
        <ele>2718.0</ele>
        <time>2016-07-25T16:55:15Z</time>
      </trkpt>
      <trkpt lat="41.104750" lon="-3.718617">
        <ele>2718.0</ele>
        <time>2016-07-25T16:55:16Z</time>
      </trkpt>
      <trkpt lat="41.104700" lon="-3.718733">
        <ele>2719.0</ele>
        <time>2016-07-25T16:55:17Z</time>
      </trkpt>
      <trkpt lat="41.104650" lon="-3.718833">
        <ele>2720.0</ele>
        <time>2016-07-25T16:55:18Z</time>
      </trkpt>
      <trkpt lat="41.104600" lon="-3.718933">
        <ele>2721.0</ele>
        <time>2016-07-25T16:55:19Z</time>
      </trkpt>
      <trkpt lat="41.104567" lon="-3.719033">
        <ele>2721.0</ele>
        <time>2016-07-25T16:55:20Z</time>
      </trkpt>
      <trkpt lat="41.104550" lon="-3.719133">
        <ele>2721.0</ele>
        <time>2016-07-25T16:55:21Z</time>
      </trkpt>
      <trkpt lat="41.104533" lon="-3.719233">
        <ele>2720.0</ele>
        <time>2016-07-25T16:55:22Z</time>
      </trkpt>
      <trkpt lat="41.104517" lon="-3.719350">
        <ele>2721.0</ele>
        <time>2016-07-25T16:55:23Z</time>
      </trkpt>
      <trkpt lat="41.104500" lon="-3.719450">
        <ele>2723.0</ele>
        <time>2016-07-25T16:55:24Z</time>
      </trkpt>
      <trkpt lat="41.104500" lon="-3.719533">
        <ele>2725.0</ele>
        <time>2016-07-25T16:55:25Z</time>
      </trkpt>
      <trkpt lat="41.104483" lon="-3.719617">
        <ele>2727.0</ele>
        <time>2016-07-25T16:55:26Z</time>
      </trkpt>
      <trkpt lat="41.104483" lon="-3.719683">
        <ele>2727.0</ele>
        <time>2016-07-25T16:55:27Z</time>
      </trkpt>
      <trkpt lat="41.104483" lon="-3.719767">
        <ele>2726.0</ele>
        <time>2016-07-25T16:55:28Z</time>
      </trkpt>
      <trkpt lat="41.104500" lon="-3.719867">
        <ele>2724.0</ele>
        <time>2016-07-25T16:55:29Z</time>
      </trkpt>
      <trkpt lat="41.104500" lon="-3.719950">
        <ele>2723.0</ele>
        <time>2016-07-25T16:55:30Z</time>
      </trkpt>
      <trkpt lat="41.104483" lon="-3.720033">
        <ele>2722.0</ele>
        <time>2016-07-25T16:55:31Z</time>
      </trkpt>
      <trkpt lat="41.104467" lon="-3.720117">
        <ele>2722.0</ele>
        <time>2016-07-25T16:55:32Z</time>
      </trkpt>
      <trkpt lat="41.104467" lon="-3.720200">
        <ele>2721.0</ele>
        <time>2016-07-25T16:55:33Z</time>
      </trkpt>
      <trkpt lat="41.104450" lon="-3.720300">
        <ele>2719.0</ele>
        <time>2016-07-25T16:55:34Z</time>
      </trkpt>
      <trkpt lat="41.104450" lon="-3.720383">
        <ele>2717.0</ele>
        <time>2016-07-25T16:55:35Z</time>
      </trkpt>
      <trkpt lat="41.104433" lon="-3.720483">
        <ele>2716.0</ele>
        <time>2016-07-25T16:55:36Z</time>
      </trkpt>
      <trkpt lat="41.104433" lon="-3.720583">
        <ele>2713.0</ele>
        <time>2016-07-25T16:55:37Z</time>
      </trkpt>
      <trkpt lat="41.104417" lon="-3.720683">
        <ele>2712.0</ele>
        <time>2016-07-25T16:55:38Z</time>
      </trkpt>
      <trkpt lat="41.104400" lon="-3.720783">
        <ele>2711.0</ele>
        <time>2016-07-25T16:55:39Z</time>
      </trkpt>
      <trkpt lat="41.104383" lon="-3.720883">
        <ele>2711.0</ele>
        <time>2016-07-25T16:55:40Z</time>
      </trkpt>
      <trkpt lat="41.104367" lon="-3.720983">
        <ele>2710.0</ele>
        <time>2016-07-25T16:55:41Z</time>
      </trkpt>
      <trkpt lat="41.104350" lon="-3.721083">
        <ele>2708.0</ele>
        <time>2016-07-25T16:55:42Z</time>
      </trkpt>
      <trkpt lat="41.104333" lon="-3.721183">
        <ele>2706.0</ele>
        <time>2016-07-25T16:55:43Z</time>
      </trkpt>
      <trkpt lat="41.104317" lon="-3.721300">
        <ele>2705.0</ele>
        <time>2016-07-25T16:55:44Z</time>
      </trkpt>
      <trkpt lat="41.104300" lon="-3.721400">
        <ele>2703.0</ele>
        <time>2016-07-25T16:55:45Z</time>
      </trkpt>
      <trkpt lat="41.104283" lon="-3.721517">
        <ele>2702.0</ele>
        <time>2016-07-25T16:55:46Z</time>
      </trkpt>
      <trkpt lat="41.104250" lon="-3.721617">
        <ele>2700.0</ele>
        <time>2016-07-25T16:55:47Z</time>
      </trkpt>
      <trkpt lat="41.104217" lon="-3.721700">
        <ele>2699.0</ele>
        <time>2016-07-25T16:55:48Z</time>
      </trkpt>
      <trkpt lat="41.104183" lon="-3.721800">
        <ele>2698.0</ele>
        <time>2016-07-25T16:55:49Z</time>
      </trkpt>
      <trkpt lat="41.104150" lon="-3.721900">
        <ele>2697.0</ele>
        <time>2016-07-25T16:55:50Z</time>
      </trkpt>
      <trkpt lat="41.104117" lon="-3.721983">
        <ele>2696.0</ele>
        <time>2016-07-25T16:55:51Z</time>
      </trkpt>
      <trkpt lat="41.104083" lon="-3.722083">
        <ele>2696.0</ele>
        <time>2016-07-25T16:55:52Z</time>
      </trkpt>
      <trkpt lat="41.104050" lon="-3.722167">
        <ele>2695.0</ele>
        <time>2016-07-25T16:55:53Z</time>
      </trkpt>
      <trkpt lat="41.104017" lon="-3.722267">
        <ele>2693.0</ele>
        <time>2016-07-25T16:55:54Z</time>
      </trkpt>
      <trkpt lat="41.103967" lon="-3.722350">
        <ele>2692.0</ele>
        <time>2016-07-25T16:55:55Z</time>
      </trkpt>
      <trkpt lat="41.103917" lon="-3.722450">
        <ele>2690.0</ele>
        <time>2016-07-25T16:55:56Z</time>
      </trkpt>
      <trkpt lat="41.103867" lon="-3.722550">
        <ele>2689.0</ele>
        <time>2016-07-25T16:55:57Z</time>
      </trkpt>
      <trkpt lat="41.103817" lon="-3.722650">
        <ele>2689.0</ele>
        <time>2016-07-25T16:55:58Z</time>
      </trkpt>
      <trkpt lat="41.103767" lon="-3.722733">
        <ele>2689.0</ele>
        <time>2016-07-25T16:55:59Z</time>
      </trkpt>
      <trkpt lat="41.103733" lon="-3.722817">
        <ele>2688.0</ele>
        <time>2016-07-25T16:56:00Z</time>
      </trkpt>
      <trkpt lat="41.103683" lon="-3.722900">
        <ele>2687.0</ele>
        <time>2016-07-25T16:56:01Z</time>
      </trkpt>
      <trkpt lat="41.103633" lon="-3.722983">
        <ele>2686.0</ele>
        <time>2016-07-25T16:56:02Z</time>
      </trkpt>
      <trkpt lat="41.103600" lon="-3.723083">
        <ele>2686.0</ele>
        <time>2016-07-25T16:56:03Z</time>
      </trkpt>
      <trkpt lat="41.103550" lon="-3.723167">
        <ele>2686.0</ele>
        <time>2016-07-25T16:56:04Z</time>
      </trkpt>
      <trkpt lat="41.103500" lon="-3.723250">
        <ele>2687.0</ele>
        <time>2016-07-25T16:56:05Z</time>
      </trkpt>
      <trkpt lat="41.103450" lon="-3.723317">
        <ele>2687.0</ele>
        <time>2016-07-25T16:56:06Z</time>
      </trkpt>
      <trkpt lat="41.103383" lon="-3.723383">
        <ele>2687.0</ele>
        <time>2016-07-25T16:56:07Z</time>
      </trkpt>
      <trkpt lat="41.103333" lon="-3.723467">
        <ele>2688.0</ele>
        <time>2016-07-25T16:56:08Z</time>
      </trkpt>
      <trkpt lat="41.103300" lon="-3.723550">
        <ele>2690.0</ele>
        <time>2016-07-25T16:56:09Z</time>
      </trkpt>
      <trkpt lat="41.103267" lon="-3.723617">
        <ele>2692.0</ele>
        <time>2016-07-25T16:56:10Z</time>
      </trkpt>
      <trkpt lat="41.103217" lon="-3.723683">
        <ele>2694.0</ele>
        <time>2016-07-25T16:56:11Z</time>
      </trkpt>
      <trkpt lat="41.103183" lon="-3.723750">
        <ele>2696.0</ele>
        <time>2016-07-25T16:56:12Z</time>
      </trkpt>
      <trkpt lat="41.103150" lon="-3.723833">
        <ele>2697.0</ele>
        <time>2016-07-25T16:56:13Z</time>
      </trkpt>
      <trkpt lat="41.103100" lon="-3.723900">
        <ele>2698.0</ele>
        <time>2016-07-25T16:56:14Z</time>
      </trkpt>
      <trkpt lat="41.103050" lon="-3.723983">
        <ele>2699.0</ele>
        <time>2016-07-25T16:56:15Z</time>
      </trkpt>
      <trkpt lat="41.103000" lon="-3.724083">
        <ele>2701.0</ele>
        <time>2016-07-25T16:56:16Z</time>
      </trkpt>
      <trkpt lat="41.102933" lon="-3.724150">
        <ele>2703.0</ele>
        <time>2016-07-25T16:56:17Z</time>
      </trkpt>
      <trkpt lat="41.102867" lon="-3.724217">
        <ele>2706.0</ele>
        <time>2016-07-25T16:56:18Z</time>
      </trkpt>
      <trkpt lat="41.102800" lon="-3.724283">
        <ele>2708.0</ele>
        <time>2016-07-25T16:56:19Z</time>
      </trkpt>
      <trkpt lat="41.102767" lon="-3.724350">
        <ele>2709.0</ele>
        <time>2016-07-25T16:56:20Z</time>
      </trkpt>
      <trkpt lat="41.102733" lon="-3.724417">
        <ele>2710.0</ele>
        <time>2016-07-25T16:56:21Z</time>
      </trkpt>
      <trkpt lat="41.102733" lon="-3.724483">
        <ele>2711.0</ele>
        <time>2016-07-25T16:56:22Z</time>
      </trkpt>
      <trkpt lat="41.102717" lon="-3.724550">
        <ele>2712.0</ele>
        <time>2016-07-25T16:56:23Z</time>
      </trkpt>
      <trkpt lat="41.102733" lon="-3.724600">
        <ele>2714.0</ele>
        <time>2016-07-25T16:56:24Z</time>
      </trkpt>
      <trkpt lat="41.102767" lon="-3.724633">
        <ele>2715.0</ele>
        <time>2016-07-25T16:56:25Z</time>
      </trkpt>
      <trkpt lat="41.102817" lon="-3.724650">
        <ele>2715.0</ele>
        <time>2016-07-25T16:56:26Z</time>
      </trkpt>
      <trkpt lat="41.102867" lon="-3.724600">
        <ele>2716.0</ele>
        <time>2016-07-25T16:56:27Z</time>
      </trkpt>
      <trkpt lat="41.102933" lon="-3.724533">
        <ele>2717.0</ele>
        <time>2016-07-25T16:56:28Z</time>
      </trkpt>
      <trkpt lat="41.102967" lon="-3.724433">
        <ele>2718.0</ele>
        <time>2016-07-25T16:56:29Z</time>
      </trkpt>
      <trkpt lat="41.102983" lon="-3.724300">
        <ele>2718.0</ele>
        <time>2016-07-25T16:56:30Z</time>
      </trkpt>
      <trkpt lat="41.102983" lon="-3.724150">
        <ele>2719.0</ele>
        <time>2016-07-25T16:56:31Z</time>
      </trkpt>
      <trkpt lat="41.102950" lon="-3.724017">
        <ele>2719.0</ele>
        <time>2016-07-25T16:56:32Z</time>
      </trkpt>
      <trkpt lat="41.102900" lon="-3.723867">
        <ele>2720.0</ele>
        <time>2016-07-25T16:56:33Z</time>
      </trkpt>
      <trkpt lat="41.102833" lon="-3.723717">
        <ele>2720.0</ele>
        <time>2016-07-25T16:56:34Z</time>
      </trkpt>
      <trkpt lat="41.102733" lon="-3.723600">
        <ele>2720.0</ele>
        <time>2016-07-25T16:56:35Z</time>
      </trkpt>
      <trkpt lat="41.102600" lon="-3.723517">
        <ele>2721.0</ele>
        <time>2016-07-25T16:56:36Z</time>
      </trkpt>
      <trkpt lat="41.102483" lon="-3.723483">
        <ele>2722.0</ele>
        <time>2016-07-25T16:56:37Z</time>
      </trkpt>
      <trkpt lat="41.102367" lon="-3.723500">
        <ele>2724.0</ele>
        <time>2016-07-25T16:56:38Z</time>
      </trkpt>
      <trkpt lat="41.102267" lon="-3.723533">
        <ele>2726.0</ele>
        <time>2016-07-25T16:56:39Z</time>
      </trkpt>
      <trkpt lat="41.102167" lon="-3.723583">
        <ele>2728.0</ele>
        <time>2016-07-25T16:56:40Z</time>
      </trkpt>
      <trkpt lat="41.102083" lon="-3.723617">
        <ele>2730.0</ele>
        <time>2016-07-25T16:56:41Z</time>
      </trkpt>
      <trkpt lat="41.102000" lon="-3.723683">
        <ele>2731.0</ele>
        <time>2016-07-25T16:56:42Z</time>
      </trkpt>
      <trkpt lat="41.101917" lon="-3.723733">
        <ele>2732.0</ele>
        <time>2016-07-25T16:56:43Z</time>
      </trkpt>
      <trkpt lat="41.101850" lon="-3.723817">
        <ele>2733.0</ele>
        <time>2016-07-25T16:56:44Z</time>
      </trkpt>
      <trkpt lat="41.101783" lon="-3.723883">
        <ele>2734.0</ele>
        <time>2016-07-25T16:56:45Z</time>
      </trkpt>
      <trkpt lat="41.101717" lon="-3.723950">
        <ele>2736.0</ele>
        <time>2016-07-25T16:56:46Z</time>
      </trkpt>
      <trkpt lat="41.101667" lon="-3.724017">
        <ele>2737.0</ele>
        <time>2016-07-25T16:56:47Z</time>
      </trkpt>
      <trkpt lat="41.101633" lon="-3.724067">
        <ele>2738.0</ele>
        <time>2016-07-25T16:56:48Z</time>
      </trkpt>
      <trkpt lat="41.101617" lon="-3.724133">
        <ele>2738.0</ele>
        <time>2016-07-25T16:56:49Z</time>
      </trkpt>
      <trkpt lat="41.101583" lon="-3.724200">
        <ele>2738.0</ele>
        <time>2016-07-25T16:56:50Z</time>
      </trkpt>
      <trkpt lat="41.101567" lon="-3.724283">
        <ele>2739.0</ele>
        <time>2016-07-25T16:56:51Z</time>
      </trkpt>
      <trkpt lat="41.101550" lon="-3.724350">
        <ele>2740.0</ele>
        <time>2016-07-25T16:56:52Z</time>
      </trkpt>
      <trkpt lat="41.101533" lon="-3.724400">
        <ele>2741.0</ele>
        <time>2016-07-25T16:56:53Z</time>
      </trkpt>
      <trkpt lat="41.101533" lon="-3.724450">
        <ele>2742.0</ele>
        <time>2016-07-25T16:56:54Z</time>
      </trkpt>
      <trkpt lat="41.101517" lon="-3.724517">
        <ele>2743.0</ele>
        <time>2016-07-25T16:56:55Z</time>
      </trkpt>
      <trkpt lat="41.101500" lon="-3.724583">
        <ele>2743.0</ele>
        <time>2016-07-25T16:56:56Z</time>
      </trkpt>
      <trkpt lat="41.101500" lon="-3.724667">
        <ele>2744.0</ele>
        <time>2016-07-25T16:56:57Z</time>
      </trkpt>
      <trkpt lat="41.101500" lon="-3.724733">
        <ele>2746.0</ele>
        <time>2016-07-25T16:56:58Z</time>
      </trkpt>
      <trkpt lat="41.101500" lon="-3.724783">
        <ele>2748.0</ele>
        <time>2016-07-25T16:56:59Z</time>
      </trkpt>
      <trkpt lat="41.101500" lon="-3.724833">
        <ele>2749.0</ele>
        <time>2016-07-25T16:57:00Z</time>
      </trkpt>
      <trkpt lat="41.101500" lon="-3.724883">
        <ele>2749.0</ele>
        <time>2016-07-25T16:57:01Z</time>
      </trkpt>
      <trkpt lat="41.101500" lon="-3.724933">
        <ele>2749.0</ele>
        <time>2016-07-25T16:57:02Z</time>
      </trkpt>
      <trkpt lat="41.101517" lon="-3.724983">
        <ele>2750.0</ele>
        <time>2016-07-25T16:57:03Z</time>
      </trkpt>
      <trkpt lat="41.101533" lon="-3.725033">
        <ele>2751.0</ele>
        <time>2016-07-25T16:57:04Z</time>
      </trkpt>
      <trkpt lat="41.101550" lon="-3.725083">
        <ele>2752.0</ele>
        <time>2016-07-25T16:57:05Z</time>
      </trkpt>
      <trkpt lat="41.101567" lon="-3.725133">
        <ele>2754.0</ele>
        <time>2016-07-25T16:57:06Z</time>
      </trkpt>
      <trkpt lat="41.101583" lon="-3.725183">
        <ele>2757.0</ele>
        <time>2016-07-25T16:57:07Z</time>
      </trkpt>
      <trkpt lat="41.101583" lon="-3.725233">
        <ele>2759.0</ele>
        <time>2016-07-25T16:57:08Z</time>
      </trkpt>
      <trkpt lat="41.101600" lon="-3.725267">
        <ele>2761.0</ele>
        <time>2016-07-25T16:57:09Z</time>
      </trkpt>
      <trkpt lat="41.101617" lon="-3.725300">
        <ele>2762.0</ele>
        <time>2016-07-25T16:57:10Z</time>
      </trkpt>
      <trkpt lat="41.101633" lon="-3.725333">
        <ele>2763.0</ele>
        <time>2016-07-25T16:57:11Z</time>
      </trkpt>
      <trkpt lat="41.101650" lon="-3.725350">
        <ele>2764.0</ele>
        <time>2016-07-25T16:57:12Z</time>
      </trkpt>
      <trkpt lat="41.101683" lon="-3.725367">
        <ele>2765.0</ele>
        <time>2016-07-25T16:57:13Z</time>
      </trkpt>
      <trkpt lat="41.101717" lon="-3.725367">
        <ele>2765.0</ele>
        <time>2016-07-25T16:57:14Z</time>
      </trkpt>
      <trkpt lat="41.101750" lon="-3.725350">
        <ele>2765.0</ele>
        <time>2016-07-25T16:57:15Z</time>
      </trkpt>
      <trkpt lat="41.101783" lon="-3.725317">
        <ele>2765.0</ele>
        <time>2016-07-25T16:57:16Z</time>
      </trkpt>
      <trkpt lat="41.101817" lon="-3.725267">
        <ele>2765.0</ele>
        <time>2016-07-25T16:57:17Z</time>
      </trkpt>
      <trkpt lat="41.101850" lon="-3.725183">
        <ele>2765.0</ele>
        <time>2016-07-25T16:57:18Z</time>
      </trkpt>
      <trkpt lat="41.101867" lon="-3.725050">
        <ele>2764.0</ele>
        <time>2016-07-25T16:57:19Z</time>
      </trkpt>
      <trkpt lat="41.101867" lon="-3.724917">
        <ele>2763.0</ele>
        <time>2016-07-25T16:57:20Z</time>
      </trkpt>
      <trkpt lat="41.101817" lon="-3.724767">
        <ele>2763.0</ele>
        <time>2016-07-25T16:57:21Z</time>
      </trkpt>
      <trkpt lat="41.101717" lon="-3.724633">
        <ele>2761.0</ele>
        <time>2016-07-25T16:57:22Z</time>
      </trkpt>
      <trkpt lat="41.101600" lon="-3.724533">
        <ele>2759.0</ele>
        <time>2016-07-25T16:57:23Z</time>
      </trkpt>
      <trkpt lat="41.101450" lon="-3.724483">
        <ele>2759.0</ele>
        <time>2016-07-25T16:57:24Z</time>
      </trkpt>
      <trkpt lat="41.101317" lon="-3.724467">
        <ele>2759.0</ele>
        <time>2016-07-25T16:57:25Z</time>
      </trkpt>
      <trkpt lat="41.101200" lon="-3.724467">
        <ele>2761.0</ele>
        <time>2016-07-25T16:57:26Z</time>
      </trkpt>
      <trkpt lat="41.101083" lon="-3.724517">
        <ele>2762.0</ele>
        <time>2016-07-25T16:57:27Z</time>
      </trkpt>
      <trkpt lat="41.101000" lon="-3.724567">
        <ele>2763.0</ele>
        <time>2016-07-25T16:57:28Z</time>
      </trkpt>
      <trkpt lat="41.100900" lon="-3.724617">
        <ele>2764.0</ele>
        <time>2016-07-25T16:57:29Z</time>
      </trkpt>
      <trkpt lat="41.100833" lon="-3.724700">
        <ele>2764.0</ele>
        <time>2016-07-25T16:57:30Z</time>
      </trkpt>
      <trkpt lat="41.100750" lon="-3.724783">
        <ele>2765.0</ele>
        <time>2016-07-25T16:57:31Z</time>
      </trkpt>
      <trkpt lat="41.100700" lon="-3.724867">
        <ele>2766.0</ele>
        <time>2016-07-25T16:57:32Z</time>
      </trkpt>
      <trkpt lat="41.100650" lon="-3.724950">
        <ele>2768.0</ele>
        <time>2016-07-25T16:57:33Z</time>
      </trkpt>
      <trkpt lat="41.100600" lon="-3.725017">
        <ele>2770.0</ele>
        <time>2016-07-25T16:57:34Z</time>
      </trkpt>
      <trkpt lat="41.100567" lon="-3.725067">
        <ele>2771.0</ele>
        <time>2016-07-25T16:57:35Z</time>
      </trkpt>
      <trkpt lat="41.100533" lon="-3.725133">
        <ele>2772.0</ele>
        <time>2016-07-25T16:57:36Z</time>
      </trkpt>
      <trkpt lat="41.100500" lon="-3.725200">
        <ele>2771.0</ele>
        <time>2016-07-25T16:57:37Z</time>
      </trkpt>
      <trkpt lat="41.100467" lon="-3.725300">
        <ele>2771.0</ele>
        <time>2016-07-25T16:57:38Z</time>
      </trkpt>
      <trkpt lat="41.100417" lon="-3.725383">
        <ele>2772.0</ele>
        <time>2016-07-25T16:57:39Z</time>
      </trkpt>
      <trkpt lat="41.100367" lon="-3.725467">
        <ele>2773.0</ele>
        <time>2016-07-25T16:57:40Z</time>
      </trkpt>
      <trkpt lat="41.100317" lon="-3.725567">
        <ele>2773.0</ele>
        <time>2016-07-25T16:57:41Z</time>
      </trkpt>
      <trkpt lat="41.100283" lon="-3.725650">
        <ele>2773.0</ele>
        <time>2016-07-25T16:57:42Z</time>
      </trkpt>
      <trkpt lat="41.100233" lon="-3.725750">
        <ele>2773.0</ele>
        <time>2016-07-25T16:57:43Z</time>
      </trkpt>
      <trkpt lat="41.100200" lon="-3.725850">
        <ele>2773.0</ele>
        <time>2016-07-25T16:57:44Z</time>
      </trkpt>
      <trkpt lat="41.100167" lon="-3.725933">
        <ele>2774.0</ele>
        <time>2016-07-25T16:57:45Z</time>
      </trkpt>
      <trkpt lat="41.100133" lon="-3.726017">
        <ele>2774.0</ele>
        <time>2016-07-25T16:57:46Z</time>
      </trkpt>
      <trkpt lat="41.100117" lon="-3.726100">
        <ele>2774.0</ele>
        <time>2016-07-25T16:57:47Z</time>
      </trkpt>
      <trkpt lat="41.100100" lon="-3.726167">
        <ele>2772.0</ele>
        <time>2016-07-25T16:57:48Z</time>
      </trkpt>
      <trkpt lat="41.100100" lon="-3.726267">
        <ele>2771.0</ele>
        <time>2016-07-25T16:57:49Z</time>
      </trkpt>
      <trkpt lat="41.100100" lon="-3.726350">
        <ele>2771.0</ele>
        <time>2016-07-25T16:57:50Z</time>
      </trkpt>
      <trkpt lat="41.100083" lon="-3.726417">
        <ele>2771.0</ele>
        <time>2016-07-25T16:57:51Z</time>
      </trkpt>
      <trkpt lat="41.100067" lon="-3.726500">
        <ele>2771.0</ele>
        <time>2016-07-25T16:57:52Z</time>
      </trkpt>
      <trkpt lat="41.100050" lon="-3.726567">
        <ele>2771.0</ele>
        <time>2016-07-25T16:57:53Z</time>
      </trkpt>
      <trkpt lat="41.100033" lon="-3.726633">
        <ele>2770.0</ele>
        <time>2016-07-25T16:57:54Z</time>
      </trkpt>
      <trkpt lat="41.100033" lon="-3.726717">
        <ele>2768.0</ele>
        <time>2016-07-25T16:57:55Z</time>
      </trkpt>
      <trkpt lat="41.100033" lon="-3.726817">
        <ele>2767.0</ele>
        <time>2016-07-25T16:57:56Z</time>
      </trkpt>
      <trkpt lat="41.100033" lon="-3.726917">
        <ele>2766.0</ele>
        <time>2016-07-25T16:57:57Z</time>
      </trkpt>
      <trkpt lat="41.100017" lon="-3.727000">
        <ele>2767.0</ele>
        <time>2016-07-25T16:57:58Z</time>
      </trkpt>
      <trkpt lat="41.100017" lon="-3.727083">
        <ele>2768.0</ele>
        <time>2016-07-25T16:57:59Z</time>
      </trkpt>
      <trkpt lat="41.100000" lon="-3.727167">
        <ele>2768.0</ele>
        <time>2016-07-25T16:58:00Z</time>
      </trkpt>
      <trkpt lat="41.100000" lon="-3.727233">
        <ele>2768.0</ele>
        <time>2016-07-25T16:58:01Z</time>
      </trkpt>
      <trkpt lat="41.100000" lon="-3.727317">
        <ele>2767.0</ele>
        <time>2016-07-25T16:58:02Z</time>
      </trkpt>
      <trkpt lat="41.100000" lon="-3.727400">
        <ele>2765.0</ele>
        <time>2016-07-25T16:58:03Z</time>
      </trkpt>
      <trkpt lat="41.099983" lon="-3.727483">
        <ele>2763.0</ele>
        <time>2016-07-25T16:58:04Z</time>
      </trkpt>
      <trkpt lat="41.099983" lon="-3.727583">
        <ele>2762.0</ele>
        <time>2016-07-25T16:58:05Z</time>
      </trkpt>
      <trkpt lat="41.099967" lon="-3.727667">
        <ele>2761.0</ele>
        <time>2016-07-25T16:58:06Z</time>
      </trkpt>
      <trkpt lat="41.099967" lon="-3.727733">
        <ele>2761.0</ele>
        <time>2016-07-25T16:58:07Z</time>
      </trkpt>
      <trkpt lat="41.099950" lon="-3.727817">
        <ele>2760.0</ele>
        <time>2016-07-25T16:58:08Z</time>
      </trkpt>
      <trkpt lat="41.099950" lon="-3.727900">
        <ele>2758.0</ele>
        <time>2016-07-25T16:58:09Z</time>
      </trkpt>
      <trkpt lat="41.099933" lon="-3.727983">
        <ele>2758.0</ele>
        <time>2016-07-25T16:58:10Z</time>
      </trkpt>
      <trkpt lat="41.099900" lon="-3.728067">
        <ele>2757.0</ele>
        <time>2016-07-25T16:58:11Z</time>
      </trkpt>
      <trkpt lat="41.099867" lon="-3.728167">
        <ele>2756.0</ele>
        <time>2016-07-25T16:58:12Z</time>
      </trkpt>
      <trkpt lat="41.099817" lon="-3.728267">
        <ele>2755.0</ele>
        <time>2016-07-25T16:58:13Z</time>
      </trkpt>
      <trkpt lat="41.099800" lon="-3.728367">
        <ele>2754.0</ele>
        <time>2016-07-25T16:58:14Z</time>
      </trkpt>
      <trkpt lat="41.099783" lon="-3.728483">
        <ele>2753.0</ele>
        <time>2016-07-25T16:58:15Z</time>
      </trkpt>
      <trkpt lat="41.099767" lon="-3.728583">
        <ele>2752.0</ele>
        <time>2016-07-25T16:58:16Z</time>
      </trkpt>
      <trkpt lat="41.099733" lon="-3.728700">
        <ele>2752.0</ele>
        <time>2016-07-25T16:58:17Z</time>
      </trkpt>
      <trkpt lat="41.099700" lon="-3.728817">
        <ele>2752.0</ele>
        <time>2016-07-25T16:58:18Z</time>
      </trkpt>
      <trkpt lat="41.099650" lon="-3.728917">
        <ele>2752.0</ele>
        <time>2016-07-25T16:58:19Z</time>
      </trkpt>
      <trkpt lat="41.099600" lon="-3.729000">
        <ele>2752.0</ele>
        <time>2016-07-25T16:58:20Z</time>
      </trkpt>
      <trkpt lat="41.099550" lon="-3.729100">
        <ele>2751.0</ele>
        <time>2016-07-25T16:58:21Z</time>
      </trkpt>
      <trkpt lat="41.099483" lon="-3.729217">
        <ele>2749.0</ele>
        <time>2016-07-25T16:58:22Z</time>
      </trkpt>
      <trkpt lat="41.099433" lon="-3.729317">
        <ele>2748.0</ele>
        <time>2016-07-25T16:58:23Z</time>
      </trkpt>
      <trkpt lat="41.099383" lon="-3.729433">
        <ele>2748.0</ele>
        <time>2016-07-25T16:58:24Z</time>
      </trkpt>
      <trkpt lat="41.099333" lon="-3.729550">
        <ele>2748.0</ele>
        <time>2016-07-25T16:58:25Z</time>
      </trkpt>
      <trkpt lat="41.099283" lon="-3.729633">
        <ele>2749.0</ele>
        <time>2016-07-25T16:58:26Z</time>
      </trkpt>
      <trkpt lat="41.099233" lon="-3.729717">
        <ele>2749.0</ele>
        <time>2016-07-25T16:58:27Z</time>
      </trkpt>
      <trkpt lat="41.099167" lon="-3.729817">
        <ele>2748.0</ele>
        <time>2016-07-25T16:58:28Z</time>
      </trkpt>
      <trkpt lat="41.099117" lon="-3.729917">
        <ele>2747.0</ele>
        <time>2016-07-25T16:58:29Z</time>
      </trkpt>
      <trkpt lat="41.099067" lon="-3.730017">
        <ele>2747.0</ele>
        <time>2016-07-25T16:58:30Z</time>
      </trkpt>
      <trkpt lat="41.099033" lon="-3.730133">
        <ele>2748.0</ele>
        <time>2016-07-25T16:58:31Z</time>
      </trkpt>
      <trkpt lat="41.098983" lon="-3.730233">
        <ele>2749.0</ele>
        <time>2016-07-25T16:58:32Z</time>
      </trkpt>
      <trkpt lat="41.098950" lon="-3.730333">
        <ele>2750.0</ele>
        <time>2016-07-25T16:58:33Z</time>
      </trkpt>
      <trkpt lat="41.098900" lon="-3.730417">
        <ele>2751.0</ele>
        <time>2016-07-25T16:58:34Z</time>
      </trkpt>
      <trkpt lat="41.098850" lon="-3.730500">
        <ele>2751.0</ele>
        <time>2016-07-25T16:58:35Z</time>
      </trkpt>
      <trkpt lat="41.098800" lon="-3.730583">
        <ele>2750.0</ele>
        <time>2016-07-25T16:58:36Z</time>
      </trkpt>
      <trkpt lat="41.098750" lon="-3.730683">
        <ele>2749.0</ele>
        <time>2016-07-25T16:58:37Z</time>
      </trkpt>
      <trkpt lat="41.098700" lon="-3.730783">
        <ele>2748.0</ele>
        <time>2016-07-25T16:58:38Z</time>
      </trkpt>
      <trkpt lat="41.098667" lon="-3.730883">
        <ele>2749.0</ele>
        <time>2016-07-25T16:58:39Z</time>
      </trkpt>
      <trkpt lat="41.098650" lon="-3.730967">
        <ele>2751.0</ele>
        <time>2016-07-25T16:58:40Z</time>
      </trkpt>
      <trkpt lat="41.098600" lon="-3.731050">
        <ele>2752.0</ele>
        <time>2016-07-25T16:58:41Z</time>
      </trkpt>
      <trkpt lat="41.098550" lon="-3.731133">
        <ele>2753.0</ele>
        <time>2016-07-25T16:58:42Z</time>
      </trkpt>
      <trkpt lat="41.098500" lon="-3.731217">
        <ele>2753.0</ele>
        <time>2016-07-25T16:58:43Z</time>
      </trkpt>
      <trkpt lat="41.098450" lon="-3.731300">
        <ele>2754.0</ele>
        <time>2016-07-25T16:58:44Z</time>
      </trkpt>
      <trkpt lat="41.098400" lon="-3.731383">
        <ele>2757.0</ele>
        <time>2016-07-25T16:58:45Z</time>
      </trkpt>
      <trkpt lat="41.098367" lon="-3.731467">
        <ele>2761.0</ele>
        <time>2016-07-25T16:58:46Z</time>
      </trkpt>
      <trkpt lat="41.098300" lon="-3.731533">
        <ele>2765.0</ele>
        <time>2016-07-25T16:58:47Z</time>
      </trkpt>
      <trkpt lat="41.098250" lon="-3.731583">
        <ele>2767.0</ele>
        <time>2016-07-25T16:58:48Z</time>
      </trkpt>
      <trkpt lat="41.098183" lon="-3.731633">
        <ele>2767.0</ele>
        <time>2016-07-25T16:58:49Z</time>
      </trkpt>
      <trkpt lat="41.098133" lon="-3.731700">
        <ele>2766.0</ele>
        <time>2016-07-25T16:58:50Z</time>
      </trkpt>
      <trkpt lat="41.098100" lon="-3.731767">
        <ele>2766.0</ele>
        <time>2016-07-25T16:58:51Z</time>
      </trkpt>
      <trkpt lat="41.098067" lon="-3.731850">
        <ele>2766.0</ele>
        <time>2016-07-25T16:58:52Z</time>
      </trkpt>
      <trkpt lat="41.098033" lon="-3.731933">
        <ele>2767.0</ele>
        <time>2016-07-25T16:58:53Z</time>
      </trkpt>
      <trkpt lat="41.097983" lon="-3.732000">
        <ele>2768.0</ele>
        <time>2016-07-25T16:58:54Z</time>
      </trkpt>
      <trkpt lat="41.097933" lon="-3.732067">
        <ele>2769.0</ele>
        <time>2016-07-25T16:58:55Z</time>
      </trkpt>
      <trkpt lat="41.097900" lon="-3.732117">
        <ele>2770.0</ele>
        <time>2016-07-25T16:58:56Z</time>
      </trkpt>
      <trkpt lat="41.097867" lon="-3.732217">
        <ele>2771.0</ele>
        <time>2016-07-25T16:58:57Z</time>
      </trkpt>
      <trkpt lat="41.097833" lon="-3.732317">
        <ele>2773.0</ele>
        <time>2016-07-25T16:58:58Z</time>
      </trkpt>
      <trkpt lat="41.097783" lon="-3.732417">
        <ele>2777.0</ele>
        <time>2016-07-25T16:58:59Z</time>
      </trkpt>
      <trkpt lat="41.097750" lon="-3.732500">
        <ele>2781.0</ele>
        <time>2016-07-25T16:59:00Z</time>
      </trkpt>
      <trkpt lat="41.097700" lon="-3.732567">
        <ele>2785.0</ele>
        <time>2016-07-25T16:59:01Z</time>
      </trkpt>
      <trkpt lat="41.097650" lon="-3.732650">
        <ele>2788.0</ele>
        <time>2016-07-25T16:59:02Z</time>
      </trkpt>
      <trkpt lat="41.097617" lon="-3.732733">
        <ele>2790.0</ele>
        <time>2016-07-25T16:59:03Z</time>
      </trkpt>
      <trkpt lat="41.097617" lon="-3.732817">
        <ele>2793.0</ele>
        <time>2016-07-25T16:59:04Z</time>
      </trkpt>
      <trkpt lat="41.097617" lon="-3.732900">
        <ele>2796.0</ele>
        <time>2016-07-25T16:59:05Z</time>
      </trkpt>
      <trkpt lat="41.097667" lon="-3.732950">
        <ele>2800.0</ele>
        <time>2016-07-25T16:59:06Z</time>
      </trkpt>
      <trkpt lat="41.097717" lon="-3.732950">
        <ele>2804.0</ele>
        <time>2016-07-25T16:59:07Z</time>
      </trkpt>
      <trkpt lat="41.097750" lon="-3.732933">
        <ele>2808.0</ele>
        <time>2016-07-25T16:59:08Z</time>
      </trkpt>
      <trkpt lat="41.097783" lon="-3.732867">
        <ele>2811.0</ele>
        <time>2016-07-25T16:59:09Z</time>
      </trkpt>
      <trkpt lat="41.097817" lon="-3.732783">
        <ele>2813.0</ele>
        <time>2016-07-25T16:59:10Z</time>
      </trkpt>
      <trkpt lat="41.097833" lon="-3.732650">
        <ele>2814.0</ele>
        <time>2016-07-25T16:59:11Z</time>
      </trkpt>
      <trkpt lat="41.097800" lon="-3.732483">
        <ele>2815.0</ele>
        <time>2016-07-25T16:59:12Z</time>
      </trkpt>
      <trkpt lat="41.097700" lon="-3.732350">
        <ele>2816.0</ele>
        <time>2016-07-25T16:59:13Z</time>
      </trkpt>
      <trkpt lat="41.097583" lon="-3.732250">
        <ele>2817.0</ele>
        <time>2016-07-25T16:59:14Z</time>
      </trkpt>
      <trkpt lat="41.097433" lon="-3.732233">
        <ele>2818.0</ele>
        <time>2016-07-25T16:59:15Z</time>
      </trkpt>
      <trkpt lat="41.097317" lon="-3.732283">
        <ele>2820.0</ele>
        <time>2016-07-25T16:59:16Z</time>
      </trkpt>
      <trkpt lat="41.097217" lon="-3.732367">
        <ele>2823.0</ele>
        <time>2016-07-25T16:59:17Z</time>
      </trkpt>
      <trkpt lat="41.097150" lon="-3.732450">
        <ele>2827.0</ele>
        <time>2016-07-25T16:59:18Z</time>
      </trkpt>
      <trkpt lat="41.097067" lon="-3.732517">
        <ele>2830.0</ele>
        <time>2016-07-25T16:59:19Z</time>
      </trkpt>
      <trkpt lat="41.096983" lon="-3.732567">
        <ele>2834.0</ele>
        <time>2016-07-25T16:59:20Z</time>
      </trkpt>
      <trkpt lat="41.096917" lon="-3.732617">
        <ele>2838.0</ele>
        <time>2016-07-25T16:59:21Z</time>
      </trkpt>
      <trkpt lat="41.096833" lon="-3.732683">
        <ele>2840.0</ele>
        <time>2016-07-25T16:59:22Z</time>
      </trkpt>
      <trkpt lat="41.096783" lon="-3.732750">
        <ele>2842.0</ele>
        <time>2016-07-25T16:59:23Z</time>
      </trkpt>
      <trkpt lat="41.096717" lon="-3.732850">
        <ele>2845.0</ele>
        <time>2016-07-25T16:59:24Z</time>
      </trkpt>
      <trkpt lat="41.096650" lon="-3.732933">
        <ele>2849.0</ele>
        <time>2016-07-25T16:59:25Z</time>
      </trkpt>
      <trkpt lat="41.096583" lon="-3.733000">
        <ele>2852.0</ele>
        <time>2016-07-25T16:59:26Z</time>
      </trkpt>
      <trkpt lat="41.096533" lon="-3.733083">
        <ele>2855.0</ele>
        <time>2016-07-25T16:59:27Z</time>
      </trkpt>
      <trkpt lat="41.096483" lon="-3.733167">
        <ele>2858.0</ele>
        <time>2016-07-25T16:59:28Z</time>
      </trkpt>
      <trkpt lat="41.096450" lon="-3.733250">
        <ele>2861.0</ele>
        <time>2016-07-25T16:59:29Z</time>
      </trkpt>
      <trkpt lat="41.096400" lon="-3.733350">
        <ele>2864.0</ele>
        <time>2016-07-25T16:59:30Z</time>
      </trkpt>
      <trkpt lat="41.096367" lon="-3.733450">
        <ele>2867.0</ele>
        <time>2016-07-25T16:59:31Z</time>
      </trkpt>
      <trkpt lat="41.096333" lon="-3.733550">
        <ele>2870.0</ele>
        <time>2016-07-25T16:59:32Z</time>
      </trkpt>
      <trkpt lat="41.096317" lon="-3.733633">
        <ele>2873.0</ele>
        <time>2016-07-25T16:59:33Z</time>
      </trkpt>
      <trkpt lat="41.096300" lon="-3.733733">
        <ele>2877.0</ele>
        <time>2016-07-25T16:59:34Z</time>
      </trkpt>
      <trkpt lat="41.096283" lon="-3.733800">
        <ele>2880.0</ele>
        <time>2016-07-25T16:59:35Z</time>
      </trkpt>
      <trkpt lat="41.096283" lon="-3.733883">
        <ele>2882.0</ele>
        <time>2016-07-25T16:59:36Z</time>
      </trkpt>
      <trkpt lat="41.096267" lon="-3.733967">
        <ele>2885.0</ele>
        <time>2016-07-25T16:59:37Z</time>
      </trkpt>
      <trkpt lat="41.096250" lon="-3.734050">
        <ele>2887.0</ele>
        <time>2016-07-25T16:59:38Z</time>
      </trkpt>
      <trkpt lat="41.096233" lon="-3.734133">
        <ele>2890.0</ele>
        <time>2016-07-25T16:59:39Z</time>
      </trkpt>
      <trkpt lat="41.096233" lon="-3.734233">
        <ele>2893.0</ele>
        <time>2016-07-25T16:59:40Z</time>
      </trkpt>
      <trkpt lat="41.096217" lon="-3.734317">
        <ele>2897.0</ele>
        <time>2016-07-25T16:59:41Z</time>
      </trkpt>
      <trkpt lat="41.096200" lon="-3.734383">
        <ele>2900.0</ele>
        <time>2016-07-25T16:59:42Z</time>
      </trkpt>
      <trkpt lat="41.096200" lon="-3.734433">
        <ele>2903.0</ele>
        <time>2016-07-25T16:59:43Z</time>
      </trkpt>
      <trkpt lat="41.096200" lon="-3.734500">
        <ele>2905.0</ele>
        <time>2016-07-25T16:59:44Z</time>
      </trkpt>
      <trkpt lat="41.096200" lon="-3.734567">
        <ele>2907.0</ele>
        <time>2016-07-25T16:59:45Z</time>
      </trkpt>
      <trkpt lat="41.096183" lon="-3.734667">
        <ele>2908.0</ele>
        <time>2016-07-25T16:59:46Z</time>
      </trkpt>
      <trkpt lat="41.096167" lon="-3.734750">
        <ele>2910.0</ele>
        <time>2016-07-25T16:59:47Z</time>
      </trkpt>
      <trkpt lat="41.096167" lon="-3.734833">
        <ele>2915.0</ele>
        <time>2016-07-25T16:59:48Z</time>
      </trkpt>
      <trkpt lat="41.096150" lon="-3.734900">
        <ele>2919.0</ele>
        <time>2016-07-25T16:59:49Z</time>
      </trkpt>
      <trkpt lat="41.096150" lon="-3.734967">
        <ele>2923.0</ele>
        <time>2016-07-25T16:59:50Z</time>
      </trkpt>
      <trkpt lat="41.096167" lon="-3.735017">
        <ele>2925.0</ele>
        <time>2016-07-25T16:59:51Z</time>
      </trkpt>
      <trkpt lat="41.096167" lon="-3.735100">
        <ele>2927.0</ele>
        <time>2016-07-25T16:59:52Z</time>
      </trkpt>
      <trkpt lat="41.096167" lon="-3.735183">
        <ele>2929.0</ele>
        <time>2016-07-25T16:59:53Z</time>
      </trkpt>
      <trkpt lat="41.096150" lon="-3.735267">
        <ele>2932.0</ele>
        <time>2016-07-25T16:59:54Z</time>
      </trkpt>
      <trkpt lat="41.096150" lon="-3.735350">
        <ele>2935.0</ele>
        <time>2016-07-25T16:59:55Z</time>
      </trkpt>
      <trkpt lat="41.096150" lon="-3.735417">
        <ele>2938.0</ele>
        <time>2016-07-25T16:59:56Z</time>
      </trkpt>
      <trkpt lat="41.096167" lon="-3.735467">
        <ele>2940.0</ele>
        <time>2016-07-25T16:59:57Z</time>
      </trkpt>
      <trkpt lat="41.096183" lon="-3.735533">
        <ele>2940.0</ele>
        <time>2016-07-25T16:59:58Z</time>
      </trkpt>
      <trkpt lat="41.096200" lon="-3.735617">
        <ele>2941.0</ele>
        <time>2016-07-25T16:59:59Z</time>
      </trkpt>
      <trkpt lat="41.096200" lon="-3.735700">
        <ele>2941.0</ele>
        <time>2016-07-25T17:00:00Z</time>
      </trkpt>
      <trkpt lat="41.096183" lon="-3.735800">
        <ele>2942.0</ele>
        <time>2016-07-25T17:00:01Z</time>
      </trkpt>
      <trkpt lat="41.096183" lon="-3.735883">
        <ele>2944.0</ele>
        <time>2016-07-25T17:00:02Z</time>
      </trkpt>
      <trkpt lat="41.096167" lon="-3.735950">
        <ele>2945.0</ele>
        <time>2016-07-25T17:00:03Z</time>
      </trkpt>
      <trkpt lat="41.096167" lon="-3.736033">
        <ele>2945.0</ele>
        <time>2016-07-25T17:00:04Z</time>
      </trkpt>
      <trkpt lat="41.096150" lon="-3.736133">
        <ele>2944.0</ele>
        <time>2016-07-25T17:00:05Z</time>
      </trkpt>
      <trkpt lat="41.096133" lon="-3.736233">
        <ele>2943.0</ele>
        <time>2016-07-25T17:00:06Z</time>
      </trkpt>
      <trkpt lat="41.096117" lon="-3.736333">
        <ele>2943.0</ele>
        <time>2016-07-25T17:00:07Z</time>
      </trkpt>
      <trkpt lat="41.096100" lon="-3.736417">
        <ele>2944.0</ele>
        <time>2016-07-25T17:00:08Z</time>
      </trkpt>
      <trkpt lat="41.096100" lon="-3.736500">
        <ele>2944.0</ele>
        <time>2016-07-25T17:00:09Z</time>
      </trkpt>
      <trkpt lat="41.096083" lon="-3.736583">
        <ele>2943.0</ele>
        <time>2016-07-25T17:00:10Z</time>
      </trkpt>
      <trkpt lat="41.096067" lon="-3.736667">
        <ele>2942.0</ele>
        <time>2016-07-25T17:00:11Z</time>
      </trkpt>
      <trkpt lat="41.096050" lon="-3.736767">
        <ele>2941.0</ele>
        <time>2016-07-25T17:00:12Z</time>
      </trkpt>
      <trkpt lat="41.096000" lon="-3.736867">
        <ele>2939.0</ele>
        <time>2016-07-25T17:00:13Z</time>
      </trkpt>
      <trkpt lat="41.095950" lon="-3.736983">
        <ele>2939.0</ele>
        <time>2016-07-25T17:00:14Z</time>
      </trkpt>
      <trkpt lat="41.095883" lon="-3.737083">
        <ele>2938.0</ele>
        <time>2016-07-25T17:00:15Z</time>
      </trkpt>
      <trkpt lat="41.095833" lon="-3.737167">
        <ele>2938.0</ele>
        <time>2016-07-25T17:00:16Z</time>
      </trkpt>
      <trkpt lat="41.095800" lon="-3.737283">
        <ele>2936.0</ele>
        <time>2016-07-25T17:00:17Z</time>
      </trkpt>
      <trkpt lat="41.095767" lon="-3.737383">
        <ele>2935.0</ele>
        <time>2016-07-25T17:00:18Z</time>
      </trkpt>
      <trkpt lat="41.095733" lon="-3.737500">
        <ele>2935.0</ele>
        <time>2016-07-25T17:00:19Z</time>
      </trkpt>
      <trkpt lat="41.095683" lon="-3.737617">
        <ele>2935.0</ele>
        <time>2016-07-25T17:00:20Z</time>
      </trkpt>
      <trkpt lat="41.095633" lon="-3.737717">
        <ele>2936.0</ele>
        <time>2016-07-25T17:00:21Z</time>
      </trkpt>
      <trkpt lat="41.095567" lon="-3.737800">
        <ele>2935.0</ele>
        <time>2016-07-25T17:00:22Z</time>
      </trkpt>
      <trkpt lat="41.095500" lon="-3.737900">
        <ele>2934.0</ele>
        <time>2016-07-25T17:00:23Z</time>
      </trkpt>
      <trkpt lat="41.095433" lon="-3.738017">
        <ele>2932.0</ele>
        <time>2016-07-25T17:00:24Z</time>
      </trkpt>
      <trkpt lat="41.095367" lon="-3.738133">
        <ele>2931.0</ele>
        <time>2016-07-25T17:00:25Z</time>
      </trkpt>
      <trkpt lat="41.095333" lon="-3.738267">
        <ele>2931.0</ele>
        <time>2016-07-25T17:00:26Z</time>
      </trkpt>
      <trkpt lat="41.095283" lon="-3.738383">
        <ele>2931.0</ele>
        <time>2016-07-25T17:00:27Z</time>
      </trkpt>
      <trkpt lat="41.095250" lon="-3.738500">
        <ele>2931.0</ele>
        <time>2016-07-25T17:00:28Z</time>
      </trkpt>
      <trkpt lat="41.095200" lon="-3.738600">
        <ele>2931.0</ele>
        <time>2016-07-25T17:00:29Z</time>
      </trkpt>
      <trkpt lat="41.095133" lon="-3.738717">
        <ele>2930.0</ele>
        <time>2016-07-25T17:00:30Z</time>
      </trkpt>
      <trkpt lat="41.095100" lon="-3.738833">
        <ele>2930.0</ele>
        <time>2016-07-25T17:00:31Z</time>
      </trkpt>
      <trkpt lat="41.095067" lon="-3.738967">
        <ele>2930.0</ele>
        <time>2016-07-25T17:00:32Z</time>
      </trkpt>
      <trkpt lat="41.095033" lon="-3.739100">
        <ele>2930.0</ele>
        <time>2016-07-25T17:00:33Z</time>
      </trkpt>
      <trkpt lat="41.094983" lon="-3.739233">
        <ele>2932.0</ele>
        <time>2016-07-25T17:00:34Z</time>
      </trkpt>
      <trkpt lat="41.094933" lon="-3.739350">
        <ele>2933.0</ele>
        <time>2016-07-25T17:00:35Z</time>
      </trkpt>
      <trkpt lat="41.094883" lon="-3.739450">
        <ele>2935.0</ele>
        <time>2016-07-25T17:00:36Z</time>
      </trkpt>
      <trkpt lat="41.094833" lon="-3.739567">
        <ele>2936.0</ele>
        <time>2016-07-25T17:00:37Z</time>
      </trkpt>
      <trkpt lat="41.094767" lon="-3.739667">
        <ele>2937.0</ele>
        <time>2016-07-25T17:00:38Z</time>
      </trkpt>
      <trkpt lat="41.094717" lon="-3.739783">
        <ele>2938.0</ele>
        <time>2016-07-25T17:00:39Z</time>
      </trkpt>
      <trkpt lat="41.094667" lon="-3.739900">
        <ele>2940.0</ele>
        <time>2016-07-25T17:00:40Z</time>
      </trkpt>
      <trkpt lat="41.094617" lon="-3.740017">
        <ele>2942.0</ele>
        <time>2016-07-25T17:00:41Z</time>
      </trkpt>
      <trkpt lat="41.094583" lon="-3.740133">
        <ele>2945.0</ele>
        <time>2016-07-25T17:00:42Z</time>
      </trkpt>
      <trkpt lat="41.094533" lon="-3.740250">
        <ele>2949.0</ele>
        <time>2016-07-25T17:00:43Z</time>
      </trkpt>
      <trkpt lat="41.094483" lon="-3.740350">
        <ele>2952.0</ele>
        <time>2016-07-25T17:00:44Z</time>
      </trkpt>
      <trkpt lat="41.094450" lon="-3.740433">
        <ele>2955.0</ele>
        <time>2016-07-25T17:00:45Z</time>
      </trkpt>
      <trkpt lat="41.094417" lon="-3.740517">
        <ele>2956.0</ele>
        <time>2016-07-25T17:00:46Z</time>
      </trkpt>
      <trkpt lat="41.094383" lon="-3.740617">
        <ele>2957.0</ele>
        <time>2016-07-25T17:00:47Z</time>
      </trkpt>
      <trkpt lat="41.094333" lon="-3.740717">
        <ele>2957.0</ele>
        <time>2016-07-25T17:00:48Z</time>
      </trkpt>
      <trkpt lat="41.094300" lon="-3.740817">
        <ele>2959.0</ele>
        <time>2016-07-25T17:00:49Z</time>
      </trkpt>
      <trkpt lat="41.094267" lon="-3.740917">
        <ele>2961.0</ele>
        <time>2016-07-25T17:00:50Z</time>
      </trkpt>
      <trkpt lat="41.094250" lon="-3.741000">
        <ele>2962.0</ele>
        <time>2016-07-25T17:00:51Z</time>
      </trkpt>
      <trkpt lat="41.094233" lon="-3.741100">
        <ele>2962.0</ele>
        <time>2016-07-25T17:00:52Z</time>
      </trkpt>
      <trkpt lat="41.094200" lon="-3.741200">
        <ele>2963.0</ele>
        <time>2016-07-25T17:00:53Z</time>
      </trkpt>
      <trkpt lat="41.094167" lon="-3.741300">
        <ele>2964.0</ele>
        <time>2016-07-25T17:00:54Z</time>
      </trkpt>
      <trkpt lat="41.094150" lon="-3.741400">
        <ele>2965.0</ele>
        <time>2016-07-25T17:00:55Z</time>
      </trkpt>
      <trkpt lat="41.094117" lon="-3.741500">
        <ele>2965.0</ele>
        <time>2016-07-25T17:00:56Z</time>
      </trkpt>
      <trkpt lat="41.094100" lon="-3.741583">
        <ele>2966.0</ele>
        <time>2016-07-25T17:00:57Z</time>
      </trkpt>
      <trkpt lat="41.094067" lon="-3.741683">
        <ele>2966.0</ele>
        <time>2016-07-25T17:00:58Z</time>
      </trkpt>
      <trkpt lat="41.094033" lon="-3.741800">
        <ele>2966.0</ele>
        <time>2016-07-25T17:00:59Z</time>
      </trkpt>
      <trkpt lat="41.093983" lon="-3.741900">
        <ele>2966.0</ele>
        <time>2016-07-25T17:01:00Z</time>
      </trkpt>
      <trkpt lat="41.093967" lon="-3.742017">
        <ele>2967.0</ele>
        <time>2016-07-25T17:01:01Z</time>
      </trkpt>
      <trkpt lat="41.093933" lon="-3.742117">
        <ele>2968.0</ele>
        <time>2016-07-25T17:01:02Z</time>
      </trkpt>
      <trkpt lat="41.093917" lon="-3.742233">
        <ele>2969.0</ele>
        <time>2016-07-25T17:01:03Z</time>
      </trkpt>
      <trkpt lat="41.093900" lon="-3.742333">
        <ele>2969.0</ele>
        <time>2016-07-25T17:01:04Z</time>
      </trkpt>
      <trkpt lat="41.093867" lon="-3.742450">
        <ele>2970.0</ele>
        <time>2016-07-25T17:01:05Z</time>
      </trkpt>
      <trkpt lat="41.093850" lon="-3.742550">
        <ele>2971.0</ele>
        <time>2016-07-25T17:01:06Z</time>
      </trkpt>
      <trkpt lat="41.093833" lon="-3.742667">
        <ele>2971.0</ele>
        <time>2016-07-25T17:01:07Z</time>
      </trkpt>
      <trkpt lat="41.093817" lon="-3.742767">
        <ele>2972.0</ele>
        <time>2016-07-25T17:01:08Z</time>
      </trkpt>
      <trkpt lat="41.093800" lon="-3.742867">
        <ele>2972.0</ele>
        <time>2016-07-25T17:01:09Z</time>
      </trkpt>
      <trkpt lat="41.093767" lon="-3.742967">
        <ele>2973.0</ele>
        <time>2016-07-25T17:01:10Z</time>
      </trkpt>
      <trkpt lat="41.093733" lon="-3.743067">
        <ele>2973.0</ele>
        <time>2016-07-25T17:01:11Z</time>
      </trkpt>
      <trkpt lat="41.093717" lon="-3.743167">
        <ele>2972.0</ele>
        <time>2016-07-25T17:01:12Z</time>
      </trkpt>
      <trkpt lat="41.093683" lon="-3.743267">
        <ele>2971.0</ele>
        <time>2016-07-25T17:01:13Z</time>
      </trkpt>
      <trkpt lat="41.093667" lon="-3.743367">
        <ele>2971.0</ele>
        <time>2016-07-25T17:01:14Z</time>
      </trkpt>
      <trkpt lat="41.093633" lon="-3.743467">
        <ele>2970.0</ele>
        <time>2016-07-25T17:01:15Z</time>
      </trkpt>
      <trkpt lat="41.093617" lon="-3.743567">
        <ele>2969.0</ele>
        <time>2016-07-25T17:01:16Z</time>
      </trkpt>
      <trkpt lat="41.093583" lon="-3.743667">
        <ele>2968.0</ele>
        <time>2016-07-25T17:01:17Z</time>
      </trkpt>
      <trkpt lat="41.093567" lon="-3.743783">
        <ele>2967.0</ele>
        <time>2016-07-25T17:01:18Z</time>
      </trkpt>
      <trkpt lat="41.093533" lon="-3.743883">
        <ele>2966.0</ele>
        <time>2016-07-25T17:01:19Z</time>
      </trkpt>
      <trkpt lat="41.093500" lon="-3.743983">
        <ele>2965.0</ele>
        <time>2016-07-25T17:01:20Z</time>
      </trkpt>
      <trkpt lat="41.093483" lon="-3.744100">
        <ele>2964.0</ele>
        <time>2016-07-25T17:01:21Z</time>
      </trkpt>
      <trkpt lat="41.093450" lon="-3.744217">
        <ele>2963.0</ele>
        <time>2016-07-25T17:01:22Z</time>
      </trkpt>
      <trkpt lat="41.093417" lon="-3.744333">
        <ele>2962.0</ele>
        <time>2016-07-25T17:01:23Z</time>
      </trkpt>
      <trkpt lat="41.093383" lon="-3.744450">
        <ele>2961.0</ele>
        <time>2016-07-25T17:01:24Z</time>
      </trkpt>
      <trkpt lat="41.093350" lon="-3.744567">
        <ele>2960.0</ele>
        <time>2016-07-25T17:01:25Z</time>
      </trkpt>
      <trkpt lat="41.093333" lon="-3.744683">
        <ele>2959.0</ele>
        <time>2016-07-25T17:01:26Z</time>
      </trkpt>
      <trkpt lat="41.093317" lon="-3.744817">
        <ele>2959.0</ele>
        <time>2016-07-25T17:01:27Z</time>
      </trkpt>
      <trkpt lat="41.093317" lon="-3.744933">
        <ele>2959.0</ele>
        <time>2016-07-25T17:01:28Z</time>
      </trkpt>
      <trkpt lat="41.093300" lon="-3.745033">
        <ele>2959.0</ele>
        <time>2016-07-25T17:01:29Z</time>
      </trkpt>
      <trkpt lat="41.093283" lon="-3.745150">
        <ele>2959.0</ele>
        <time>2016-07-25T17:01:30Z</time>
      </trkpt>
      <trkpt lat="41.093250" lon="-3.745267">
        <ele>2958.0</ele>
        <time>2016-07-25T17:01:31Z</time>
      </trkpt>
      <trkpt lat="41.093233" lon="-3.745383">
        <ele>2957.0</ele>
        <time>2016-07-25T17:01:32Z</time>
      </trkpt>
      <trkpt lat="41.093233" lon="-3.745467">
        <ele>2956.0</ele>
        <time>2016-07-25T17:01:33Z</time>
      </trkpt>
      <trkpt lat="41.093233" lon="-3.745567">
        <ele>2954.0</ele>
        <time>2016-07-25T17:01:34Z</time>
      </trkpt>
      <trkpt lat="41.093233" lon="-3.745667">
        <ele>2952.0</ele>
        <time>2016-07-25T17:01:35Z</time>
      </trkpt>
      <trkpt lat="41.093200" lon="-3.745783">
        <ele>2949.0</ele>
        <time>2016-07-25T17:01:36Z</time>
      </trkpt>
      <trkpt lat="41.093167" lon="-3.745917">
        <ele>2946.0</ele>
        <time>2016-07-25T17:01:37Z</time>
      </trkpt>
      <trkpt lat="41.093133" lon="-3.746050">
        <ele>2945.0</ele>
        <time>2016-07-25T17:01:38Z</time>
      </trkpt>
      <trkpt lat="41.093083" lon="-3.746167">
        <ele>2946.0</ele>
        <time>2016-07-25T17:01:39Z</time>
      </trkpt>
      <trkpt lat="41.093067" lon="-3.746267">
        <ele>2947.0</ele>
        <time>2016-07-25T17:01:40Z</time>
      </trkpt>
      <trkpt lat="41.093017" lon="-3.746367">
        <ele>2947.0</ele>
        <time>2016-07-25T17:01:41Z</time>
      </trkpt>
      <trkpt lat="41.092983" lon="-3.746467">
        <ele>2946.0</ele>
        <time>2016-07-25T17:01:42Z</time>
      </trkpt>
      <trkpt lat="41.092933" lon="-3.746583">
        <ele>2944.0</ele>
        <time>2016-07-25T17:01:43Z</time>
      </trkpt>
      <trkpt lat="41.092900" lon="-3.746717">
        <ele>2943.0</ele>
        <time>2016-07-25T17:01:44Z</time>
      </trkpt>
      <trkpt lat="41.092850" lon="-3.746850">
        <ele>2943.0</ele>
        <time>2016-07-25T17:01:45Z</time>
      </trkpt>
      <trkpt lat="41.092817" lon="-3.746967">
        <ele>2944.0</ele>
        <time>2016-07-25T17:01:46Z</time>
      </trkpt>
      <trkpt lat="41.092783" lon="-3.747067">
        <ele>2944.0</ele>
        <time>2016-07-25T17:01:47Z</time>
      </trkpt>
      <trkpt lat="41.092750" lon="-3.747167">
        <ele>2944.0</ele>
        <time>2016-07-25T17:01:48Z</time>
      </trkpt>
      <trkpt lat="41.092733" lon="-3.747267">
        <ele>2942.0</ele>
        <time>2016-07-25T17:01:49Z</time>
      </trkpt>
      <trkpt lat="41.092700" lon="-3.747383">
        <ele>2941.0</ele>
        <time>2016-07-25T17:01:50Z</time>
      </trkpt>
      <trkpt lat="41.092667" lon="-3.747517">
        <ele>2941.0</ele>
        <time>2016-07-25T17:01:51Z</time>
      </trkpt>
      <trkpt lat="41.092633" lon="-3.747633">
        <ele>2942.0</ele>
        <time>2016-07-25T17:01:52Z</time>
      </trkpt>
      <trkpt lat="41.092600" lon="-3.747733">
        <ele>2943.0</ele>
        <time>2016-07-25T17:01:53Z</time>
      </trkpt>
      <trkpt lat="41.092567" lon="-3.747833">
        <ele>2943.0</ele>
        <time>2016-07-25T17:01:54Z</time>
      </trkpt>
      <trkpt lat="41.092533" lon="-3.747950">
        <ele>2943.0</ele>
        <time>2016-07-25T17:01:55Z</time>
      </trkpt>
      <trkpt lat="41.092500" lon="-3.748083">
        <ele>2943.0</ele>
        <time>2016-07-25T17:01:56Z</time>
      </trkpt>
      <trkpt lat="41.092467" lon="-3.748217">
        <ele>2944.0</ele>
        <time>2016-07-25T17:01:57Z</time>
      </trkpt>
      <trkpt lat="41.092433" lon="-3.748333">
        <ele>2946.0</ele>
        <time>2016-07-25T17:01:58Z</time>
      </trkpt>
      <trkpt lat="41.092400" lon="-3.748450">
        <ele>2948.0</ele>
        <time>2016-07-25T17:01:59Z</time>
      </trkpt>
      <trkpt lat="41.092383" lon="-3.748567">
        <ele>2949.0</ele>
        <time>2016-07-25T17:02:00Z</time>
      </trkpt>
      <trkpt lat="41.092350" lon="-3.748683">
        <ele>2951.0</ele>
        <time>2016-07-25T17:02:01Z</time>
      </trkpt>
      <trkpt lat="41.092333" lon="-3.748800">
        <ele>2953.0</ele>
        <time>2016-07-25T17:02:02Z</time>
      </trkpt>
      <trkpt lat="41.092300" lon="-3.748900">
        <ele>2956.0</ele>
        <time>2016-07-25T17:02:03Z</time>
      </trkpt>
      <trkpt lat="41.092267" lon="-3.749000">
        <ele>2958.0</ele>
        <time>2016-07-25T17:02:04Z</time>
      </trkpt>
      <trkpt lat="41.092233" lon="-3.749100">
        <ele>2960.0</ele>
        <time>2016-07-25T17:02:05Z</time>
      </trkpt>
      <trkpt lat="41.092200" lon="-3.749200">
        <ele>2961.0</ele>
        <time>2016-07-25T17:02:06Z</time>
      </trkpt>
      <trkpt lat="41.092183" lon="-3.749283">
        <ele>2962.0</ele>
        <time>2016-07-25T17:02:07Z</time>
      </trkpt>
      <trkpt lat="41.092133" lon="-3.749400">
        <ele>2964.0</ele>
        <time>2016-07-25T17:02:08Z</time>
      </trkpt>
      <trkpt lat="41.092100" lon="-3.749500">
        <ele>2966.0</ele>
        <time>2016-07-25T17:02:09Z</time>
      </trkpt>
      <trkpt lat="41.092067" lon="-3.749600">
        <ele>2969.0</ele>
        <time>2016-07-25T17:02:10Z</time>
      </trkpt>
      <trkpt lat="41.092017" lon="-3.749683">
        <ele>2971.0</ele>
        <time>2016-07-25T17:02:11Z</time>
      </trkpt>
      <trkpt lat="41.091983" lon="-3.749783">
        <ele>2973.0</ele>
        <time>2016-07-25T17:02:12Z</time>
      </trkpt>
      <trkpt lat="41.091950" lon="-3.749883">
        <ele>2975.0</ele>
        <time>2016-07-25T17:02:13Z</time>
      </trkpt>
      <trkpt lat="41.091900" lon="-3.749967">
        <ele>2976.0</ele>
        <time>2016-07-25T17:02:14Z</time>
      </trkpt>
      <trkpt lat="41.091850" lon="-3.750050">
        <ele>2977.0</ele>
        <time>2016-07-25T17:02:15Z</time>
      </trkpt>
      <trkpt lat="41.091817" lon="-3.750150">
        <ele>2980.0</ele>
        <time>2016-07-25T17:02:16Z</time>
      </trkpt>
      <trkpt lat="41.091783" lon="-3.750233">
        <ele>2982.0</ele>
        <time>2016-07-25T17:02:17Z</time>
      </trkpt>
      <trkpt lat="41.091767" lon="-3.750317">
        <ele>2983.0</ele>
        <time>2016-07-25T17:02:18Z</time>
      </trkpt>
      <trkpt lat="41.091767" lon="-3.750400">
        <ele>2985.0</ele>
        <time>2016-07-25T17:02:19Z</time>
      </trkpt>
      <trkpt lat="41.091750" lon="-3.750500">
        <ele>2986.0</ele>
        <time>2016-07-25T17:02:20Z</time>
      </trkpt>
      <trkpt lat="41.091733" lon="-3.750583">
        <ele>2987.0</ele>
        <time>2016-07-25T17:02:21Z</time>
      </trkpt>
      <trkpt lat="41.091717" lon="-3.750683">
        <ele>2988.0</ele>
        <time>2016-07-25T17:02:22Z</time>
      </trkpt>
      <trkpt lat="41.091683" lon="-3.750783">
        <ele>2988.0</ele>
        <time>2016-07-25T17:02:23Z</time>
      </trkpt>
      <trkpt lat="41.091650" lon="-3.750900">
        <ele>2989.0</ele>
        <time>2016-07-25T17:02:24Z</time>
      </trkpt>
      <trkpt lat="41.091617" lon="-3.751000">
        <ele>2990.0</ele>
        <time>2016-07-25T17:02:25Z</time>
      </trkpt>
      <trkpt lat="41.091600" lon="-3.751100">
        <ele>2991.0</ele>
        <time>2016-07-25T17:02:26Z</time>
      </trkpt>
      <trkpt lat="41.091583" lon="-3.751217">
        <ele>2992.0</ele>
        <time>2016-07-25T17:02:27Z</time>
      </trkpt>
      <trkpt lat="41.091550" lon="-3.751333">
        <ele>2993.0</ele>
        <time>2016-07-25T17:02:28Z</time>
      </trkpt>
      <trkpt lat="41.091533" lon="-3.751450">
        <ele>2994.0</ele>
        <time>2016-07-25T17:02:29Z</time>
      </trkpt>
      <trkpt lat="41.091533" lon="-3.751567">
        <ele>2996.0</ele>
        <time>2016-07-25T17:02:30Z</time>
      </trkpt>
      <trkpt lat="41.091500" lon="-3.751667">
        <ele>2998.0</ele>
        <time>2016-07-25T17:02:31Z</time>
      </trkpt>
      <trkpt lat="41.091483" lon="-3.751783">
        <ele>2999.0</ele>
        <time>2016-07-25T17:02:32Z</time>
      </trkpt>
      <trkpt lat="41.091433" lon="-3.751883">
        <ele>2999.0</ele>
        <time>2016-07-25T17:02:33Z</time>
      </trkpt>
      <trkpt lat="41.091417" lon="-3.752000">
        <ele>2999.0</ele>
        <time>2016-07-25T17:02:34Z</time>
      </trkpt>
      <trkpt lat="41.091400" lon="-3.752133">
        <ele>2998.0</ele>
        <time>2016-07-25T17:02:35Z</time>
      </trkpt>
      <trkpt lat="41.091383" lon="-3.752267">
        <ele>2998.0</ele>
        <time>2016-07-25T17:02:36Z</time>
      </trkpt>
      <trkpt lat="41.091367" lon="-3.752383">
        <ele>2999.0</ele>
        <time>2016-07-25T17:02:37Z</time>
      </trkpt>
      <trkpt lat="41.091350" lon="-3.752500">
        <ele>2999.0</ele>
        <time>2016-07-25T17:02:38Z</time>
      </trkpt>
      <trkpt lat="41.091333" lon="-3.752617">
        <ele>2999.0</ele>
        <time>2016-07-25T17:02:39Z</time>
      </trkpt>
      <trkpt lat="41.091317" lon="-3.752733">
        <ele>2999.0</ele>
        <time>2016-07-25T17:02:40Z</time>
      </trkpt>
      <trkpt lat="41.091300" lon="-3.752867">
        <ele>2998.0</ele>
        <time>2016-07-25T17:02:41Z</time>
      </trkpt>
      <trkpt lat="41.091300" lon="-3.753000">
        <ele>2998.0</ele>
        <time>2016-07-25T17:02:42Z</time>
      </trkpt>
      <trkpt lat="41.091283" lon="-3.753117">
        <ele>2998.0</ele>
        <time>2016-07-25T17:02:43Z</time>
      </trkpt>
      <trkpt lat="41.091267" lon="-3.753233">
        <ele>2999.0</ele>
        <time>2016-07-25T17:02:44Z</time>
      </trkpt>
      <trkpt lat="41.091250" lon="-3.753333">
        <ele>2999.0</ele>
        <time>2016-07-25T17:02:45Z</time>
      </trkpt>
      <trkpt lat="41.091233" lon="-3.753433">
        <ele>2997.0</ele>
        <time>2016-07-25T17:02:46Z</time>
      </trkpt>
      <trkpt lat="41.091217" lon="-3.753567">
        <ele>2994.0</ele>
        <time>2016-07-25T17:02:47Z</time>
      </trkpt>
      <trkpt lat="41.091200" lon="-3.753700">
        <ele>2992.0</ele>
        <time>2016-07-25T17:02:48Z</time>
      </trkpt>
      <trkpt lat="41.091183" lon="-3.753817">
        <ele>2991.0</ele>
        <time>2016-07-25T17:02:49Z</time>
      </trkpt>
      <trkpt lat="41.091167" lon="-3.753917">
        <ele>2989.0</ele>
        <time>2016-07-25T17:02:50Z</time>
      </trkpt>
      <trkpt lat="41.091167" lon="-3.754017">
        <ele>2987.0</ele>
        <time>2016-07-25T17:02:51Z</time>
      </trkpt>
      <trkpt lat="41.091150" lon="-3.754117">
        <ele>2984.0</ele>
        <time>2016-07-25T17:02:52Z</time>
      </trkpt>
      <trkpt lat="41.091133" lon="-3.754217">
        <ele>2981.0</ele>
        <time>2016-07-25T17:02:53Z</time>
      </trkpt>
      <trkpt lat="41.091117" lon="-3.754300">
        <ele>2979.0</ele>
        <time>2016-07-25T17:02:54Z</time>
      </trkpt>
      <trkpt lat="41.091117" lon="-3.754400">
        <ele>2975.0</ele>
        <time>2016-07-25T17:02:55Z</time>
      </trkpt>
      <trkpt lat="41.091100" lon="-3.754483">
        <ele>2971.0</ele>
        <time>2016-07-25T17:02:56Z</time>
      </trkpt>
      <trkpt lat="41.091083" lon="-3.754600">
        <ele>2967.0</ele>
        <time>2016-07-25T17:02:57Z</time>
      </trkpt>
      <trkpt lat="41.091050" lon="-3.754717">
        <ele>2963.0</ele>
        <time>2016-07-25T17:02:58Z</time>
      </trkpt>
      <trkpt lat="41.091017" lon="-3.754833">
        <ele>2960.0</ele>
        <time>2016-07-25T17:02:59Z</time>
      </trkpt>
      <trkpt lat="41.090983" lon="-3.754950">
        <ele>2959.0</ele>
        <time>2016-07-25T17:03:00Z</time>
      </trkpt>
      <trkpt lat="41.090967" lon="-3.755033">
        <ele>2958.0</ele>
        <time>2016-07-25T17:03:01Z</time>
      </trkpt>
      <trkpt lat="41.090950" lon="-3.755117">
        <ele>2957.0</ele>
        <time>2016-07-25T17:03:02Z</time>
      </trkpt>
      <trkpt lat="41.090933" lon="-3.755200">
        <ele>2955.0</ele>
        <time>2016-07-25T17:03:03Z</time>
      </trkpt>
      <trkpt lat="41.090917" lon="-3.755283">
        <ele>2953.0</ele>
        <time>2016-07-25T17:03:04Z</time>
      </trkpt>
      <trkpt lat="41.090900" lon="-3.755383">
        <ele>2950.0</ele>
        <time>2016-07-25T17:03:05Z</time>
      </trkpt>
      <trkpt lat="41.090867" lon="-3.755500">
        <ele>2948.0</ele>
        <time>2016-07-25T17:03:06Z</time>
      </trkpt>
      <trkpt lat="41.090833" lon="-3.755617">
        <ele>2947.0</ele>
        <time>2016-07-25T17:03:07Z</time>
      </trkpt>
      <trkpt lat="41.090800" lon="-3.755717">
        <ele>2947.0</ele>
        <time>2016-07-25T17:03:08Z</time>
      </trkpt>
      <trkpt lat="41.090750" lon="-3.755817">
        <ele>2948.0</ele>
        <time>2016-07-25T17:03:09Z</time>
      </trkpt>
      <trkpt lat="41.090717" lon="-3.755917">
        <ele>2947.0</ele>
        <time>2016-07-25T17:03:10Z</time>
      </trkpt>
      <trkpt lat="41.090700" lon="-3.756017">
        <ele>2946.0</ele>
        <time>2016-07-25T17:03:11Z</time>
      </trkpt>
      <trkpt lat="41.090650" lon="-3.756117">
        <ele>2945.0</ele>
        <time>2016-07-25T17:03:12Z</time>
      </trkpt>
      <trkpt lat="41.090617" lon="-3.756233">
        <ele>2943.0</ele>
        <time>2016-07-25T17:03:13Z</time>
      </trkpt>
      <trkpt lat="41.090583" lon="-3.756350">
        <ele>2944.0</ele>
        <time>2016-07-25T17:03:14Z</time>
      </trkpt>
      <trkpt lat="41.090533" lon="-3.756450">
        <ele>2945.0</ele>
        <time>2016-07-25T17:03:15Z</time>
      </trkpt>
      <trkpt lat="41.090517" lon="-3.756533">
        <ele>2945.0</ele>
        <time>2016-07-25T17:03:16Z</time>
      </trkpt>
      <trkpt lat="41.090483" lon="-3.756617">
        <ele>2945.0</ele>
        <time>2016-07-25T17:03:17Z</time>
      </trkpt>
      <trkpt lat="41.090467" lon="-3.756717">
        <ele>2943.0</ele>
        <time>2016-07-25T17:03:18Z</time>
      </trkpt>
      <trkpt lat="41.090433" lon="-3.756833">
        <ele>2943.0</ele>
        <time>2016-07-25T17:03:19Z</time>
      </trkpt>
      <trkpt lat="41.090400" lon="-3.756933">
        <ele>2943.0</ele>
        <time>2016-07-25T17:03:20Z</time>
      </trkpt>
      <trkpt lat="41.090367" lon="-3.757033">
        <ele>2943.0</ele>
        <time>2016-07-25T17:03:21Z</time>
      </trkpt>
      <trkpt lat="41.090333" lon="-3.757133">
        <ele>2943.0</ele>
        <time>2016-07-25T17:03:22Z</time>
      </trkpt>
      <trkpt lat="41.090317" lon="-3.757217">
        <ele>2943.0</ele>
        <time>2016-07-25T17:03:23Z</time>
      </trkpt>
      <trkpt lat="41.090300" lon="-3.757317">
        <ele>2942.0</ele>
        <time>2016-07-25T17:03:24Z</time>
      </trkpt>
      <trkpt lat="41.090283" lon="-3.757417">
        <ele>2941.0</ele>
        <time>2016-07-25T17:03:25Z</time>
      </trkpt>
      <trkpt lat="41.090250" lon="-3.757533">
        <ele>2940.0</ele>
        <time>2016-07-25T17:03:26Z</time>
      </trkpt>
      <trkpt lat="41.090233" lon="-3.757617">
        <ele>2941.0</ele>
        <time>2016-07-25T17:03:27Z</time>
      </trkpt>
      <trkpt lat="41.090217" lon="-3.757700">
        <ele>2941.0</ele>
        <time>2016-07-25T17:03:28Z</time>
      </trkpt>
      <trkpt lat="41.090200" lon="-3.757783">
        <ele>2940.0</ele>
        <time>2016-07-25T17:03:29Z</time>
      </trkpt>
      <trkpt lat="41.090183" lon="-3.757867">
        <ele>2938.0</ele>
        <time>2016-07-25T17:03:30Z</time>
      </trkpt>
      <trkpt lat="41.090150" lon="-3.757950">
        <ele>2936.0</ele>
        <time>2016-07-25T17:03:31Z</time>
      </trkpt>
      <trkpt lat="41.090133" lon="-3.758050">
        <ele>2934.0</ele>
        <time>2016-07-25T17:03:32Z</time>
      </trkpt>
      <trkpt lat="41.090117" lon="-3.758150">
        <ele>2933.0</ele>
        <time>2016-07-25T17:03:33Z</time>
      </trkpt>
      <trkpt lat="41.090100" lon="-3.758233">
        <ele>2932.0</ele>
        <time>2016-07-25T17:03:34Z</time>
      </trkpt>
      <trkpt lat="41.090083" lon="-3.758317">
        <ele>2931.0</ele>
        <time>2016-07-25T17:03:35Z</time>
      </trkpt>
      <trkpt lat="41.090067" lon="-3.758400">
        <ele>2931.0</ele>
        <time>2016-07-25T17:03:36Z</time>
      </trkpt>
      <trkpt lat="41.090050" lon="-3.758483">
        <ele>2929.0</ele>
        <time>2016-07-25T17:03:37Z</time>
      </trkpt>
      <trkpt lat="41.090033" lon="-3.758567">
        <ele>2927.0</ele>
        <time>2016-07-25T17:03:38Z</time>
      </trkpt>
      <trkpt lat="41.090000" lon="-3.758667">
        <ele>2925.0</ele>
        <time>2016-07-25T17:03:39Z</time>
      </trkpt>
      <trkpt lat="41.089983" lon="-3.758767">
        <ele>2923.0</ele>
        <time>2016-07-25T17:03:40Z</time>
      </trkpt>
      <trkpt lat="41.089967" lon="-3.758850">
        <ele>2923.0</ele>
        <time>2016-07-25T17:03:41Z</time>
      </trkpt>
      <trkpt lat="41.089950" lon="-3.758933">
        <ele>2923.0</ele>
        <time>2016-07-25T17:03:42Z</time>
      </trkpt>
      <trkpt lat="41.089933" lon="-3.759017">
        <ele>2922.0</ele>
        <time>2016-07-25T17:03:43Z</time>
      </trkpt>
      <trkpt lat="41.089917" lon="-3.759100">
        <ele>2920.0</ele>
        <time>2016-07-25T17:03:44Z</time>
      </trkpt>
      <trkpt lat="41.089917" lon="-3.759200">
        <ele>2917.0</ele>
        <time>2016-07-25T17:03:45Z</time>
      </trkpt>
      <trkpt lat="41.089917" lon="-3.759300">
        <ele>2915.0</ele>
        <time>2016-07-25T17:03:46Z</time>
      </trkpt>
      <trkpt lat="41.089917" lon="-3.759417">
        <ele>2913.0</ele>
        <time>2016-07-25T17:03:47Z</time>
      </trkpt>
      <trkpt lat="41.089900" lon="-3.759533">
        <ele>2913.0</ele>
        <time>2016-07-25T17:03:48Z</time>
      </trkpt>
      <trkpt lat="41.089883" lon="-3.759617">
        <ele>2913.0</ele>
        <time>2016-07-25T17:03:49Z</time>
      </trkpt>
      <trkpt lat="41.089883" lon="-3.759717">
        <ele>2913.0</ele>
        <time>2016-07-25T17:03:50Z</time>
      </trkpt>
      <trkpt lat="41.089867" lon="-3.759800">
        <ele>2912.0</ele>
        <time>2016-07-25T17:03:51Z</time>
      </trkpt>
      <trkpt lat="41.089867" lon="-3.759900">
        <ele>2910.0</ele>
        <time>2016-07-25T17:03:52Z</time>
      </trkpt>
      <trkpt lat="41.089850" lon="-3.760000">
        <ele>2908.0</ele>
        <time>2016-07-25T17:03:53Z</time>
      </trkpt>
      <trkpt lat="41.089833" lon="-3.760100">
        <ele>2907.0</ele>
        <time>2016-07-25T17:03:54Z</time>
      </trkpt>
      <trkpt lat="41.089817" lon="-3.760217">
        <ele>2906.0</ele>
        <time>2016-07-25T17:03:55Z</time>
      </trkpt>
      <trkpt lat="41.089800" lon="-3.760317">
        <ele>2905.0</ele>
        <time>2016-07-25T17:03:56Z</time>
      </trkpt>
      <trkpt lat="41.089800" lon="-3.760417">
        <ele>2904.0</ele>
        <time>2016-07-25T17:03:57Z</time>
      </trkpt>
      <trkpt lat="41.089800" lon="-3.760517">
        <ele>2903.0</ele>
        <time>2016-07-25T17:03:58Z</time>
      </trkpt>
      <trkpt lat="41.089783" lon="-3.760600">
        <ele>2901.0</ele>
        <time>2016-07-25T17:03:59Z</time>
      </trkpt>
      <trkpt lat="41.089767" lon="-3.760700">
        <ele>2899.0</ele>
        <time>2016-07-25T17:04:00Z</time>
      </trkpt>
      <trkpt lat="41.089750" lon="-3.760800">
        <ele>2898.0</ele>
        <time>2016-07-25T17:04:01Z</time>
      </trkpt>
      <trkpt lat="41.089733" lon="-3.760900">
        <ele>2896.0</ele>
        <time>2016-07-25T17:04:02Z</time>
      </trkpt>
      <trkpt lat="41.089717" lon="-3.761000">
        <ele>2894.0</ele>
        <time>2016-07-25T17:04:03Z</time>
      </trkpt>
      <trkpt lat="41.089700" lon="-3.761100">
        <ele>2893.0</ele>
        <time>2016-07-25T17:04:04Z</time>
      </trkpt>
      <trkpt lat="41.089667" lon="-3.761200">
        <ele>2892.0</ele>
        <time>2016-07-25T17:04:05Z</time>
      </trkpt>
      <trkpt lat="41.089650" lon="-3.761283">
        <ele>2891.0</ele>
        <time>2016-07-25T17:04:06Z</time>
      </trkpt>
      <trkpt lat="41.089650" lon="-3.761383">
        <ele>2890.0</ele>
        <time>2016-07-25T17:04:07Z</time>
      </trkpt>
      <trkpt lat="41.089633" lon="-3.761483">
        <ele>2890.0</ele>
        <time>2016-07-25T17:04:08Z</time>
      </trkpt>
      <trkpt lat="41.089617" lon="-3.761567">
        <ele>2890.0</ele>
        <time>2016-07-25T17:04:09Z</time>
      </trkpt>
      <trkpt lat="41.089583" lon="-3.761633">
        <ele>2890.0</ele>
        <time>2016-07-25T17:04:10Z</time>
      </trkpt>
      <trkpt lat="41.089550" lon="-3.761700">
        <ele>2889.0</ele>
        <time>2016-07-25T17:04:11Z</time>
      </trkpt>
      <trkpt lat="41.089517" lon="-3.761783">
        <ele>2887.0</ele>
        <time>2016-07-25T17:04:12Z</time>
      </trkpt>
      <trkpt lat="41.089483" lon="-3.761867">
        <ele>2886.0</ele>
        <time>2016-07-25T17:04:13Z</time>
      </trkpt>
      <trkpt lat="41.089450" lon="-3.761950">
        <ele>2885.0</ele>
        <time>2016-07-25T17:04:14Z</time>
      </trkpt>
      <trkpt lat="41.089417" lon="-3.762033">
        <ele>2884.0</ele>
        <time>2016-07-25T17:04:15Z</time>
      </trkpt>
      <trkpt lat="41.089383" lon="-3.762100">
        <ele>2884.0</ele>
        <time>2016-07-25T17:04:16Z</time>
      </trkpt>
      <trkpt lat="41.089333" lon="-3.762167">
        <ele>2883.0</ele>
        <time>2016-07-25T17:04:17Z</time>
      </trkpt>
      <trkpt lat="41.089283" lon="-3.762233">
        <ele>2882.0</ele>
        <time>2016-07-25T17:04:18Z</time>
      </trkpt>
      <trkpt lat="41.089250" lon="-3.762300">
        <ele>2880.0</ele>
        <time>2016-07-25T17:04:19Z</time>
      </trkpt>
      <trkpt lat="41.089217" lon="-3.762383">
        <ele>2878.0</ele>
        <time>2016-07-25T17:04:20Z</time>
      </trkpt>
      <trkpt lat="41.089167" lon="-3.762467">
        <ele>2878.0</ele>
        <time>2016-07-25T17:04:21Z</time>
      </trkpt>
      <trkpt lat="41.089133" lon="-3.762533">
        <ele>2878.0</ele>
        <time>2016-07-25T17:04:22Z</time>
      </trkpt>
      <trkpt lat="41.089083" lon="-3.762600">
        <ele>2878.0</ele>
        <time>2016-07-25T17:04:23Z</time>
      </trkpt>
      <trkpt lat="41.089033" lon="-3.762667">
        <ele>2877.0</ele>
        <time>2016-07-25T17:04:24Z</time>
      </trkpt>
      <trkpt lat="41.089017" lon="-3.762733">
        <ele>2877.0</ele>
        <time>2016-07-25T17:04:25Z</time>
      </trkpt>
      <trkpt lat="41.089000" lon="-3.762817">
        <ele>2876.0</ele>
        <time>2016-07-25T17:04:26Z</time>
      </trkpt>
      <trkpt lat="41.088983" lon="-3.762883">
        <ele>2876.0</ele>
        <time>2016-07-25T17:04:27Z</time>
      </trkpt>
      <trkpt lat="41.088950" lon="-3.762950">
        <ele>2875.0</ele>
        <time>2016-07-25T17:04:28Z</time>
      </trkpt>
      <trkpt lat="41.088883" lon="-3.763000">
        <ele>2875.0</ele>
        <time>2016-07-25T17:04:29Z</time>
      </trkpt>
      <trkpt lat="41.088833" lon="-3.763050">
        <ele>2874.0</ele>
        <time>2016-07-25T17:04:30Z</time>
      </trkpt>
      <trkpt lat="41.088783" lon="-3.763117">
        <ele>2873.0</ele>
        <time>2016-07-25T17:04:31Z</time>
      </trkpt>
      <trkpt lat="41.088733" lon="-3.763183">
        <ele>2872.0</ele>
        <time>2016-07-25T17:04:32Z</time>
      </trkpt>
      <trkpt lat="41.088700" lon="-3.763250">
        <ele>2871.0</ele>
        <time>2016-07-25T17:04:33Z</time>
      </trkpt>
      <trkpt lat="41.088667" lon="-3.763333">
        <ele>2870.0</ele>
        <time>2016-07-25T17:04:34Z</time>
      </trkpt>
      <trkpt lat="41.088617" lon="-3.763400">
        <ele>2869.0</ele>
        <time>2016-07-25T17:04:35Z</time>
      </trkpt>
      <trkpt lat="41.088567" lon="-3.763483">
        <ele>2869.0</ele>
        <time>2016-07-25T17:04:36Z</time>
      </trkpt>
      <trkpt lat="41.088533" lon="-3.763550">
        <ele>2869.0</ele>
        <time>2016-07-25T17:04:37Z</time>
      </trkpt>
      <trkpt lat="41.088483" lon="-3.763600">
        <ele>2869.0</ele>
        <time>2016-07-25T17:04:38Z</time>
      </trkpt>
      <trkpt lat="41.088450" lon="-3.763667">
        <ele>2868.0</ele>
        <time>2016-07-25T17:04:39Z</time>
      </trkpt>
      <trkpt lat="41.088400" lon="-3.763717">
        <ele>2866.0</ele>
        <time>2016-07-25T17:04:40Z</time>
      </trkpt>
      <trkpt lat="41.088367" lon="-3.763783">
        <ele>2864.0</ele>
        <time>2016-07-25T17:04:41Z</time>
      </trkpt>
      <trkpt lat="41.088317" lon="-3.763867">
        <ele>2863.0</ele>
        <time>2016-07-25T17:04:42Z</time>
      </trkpt>
      <trkpt lat="41.088283" lon="-3.763950">
        <ele>2862.0</ele>
        <time>2016-07-25T17:04:43Z</time>
      </trkpt>
      <trkpt lat="41.088250" lon="-3.764000">
        <ele>2863.0</ele>
        <time>2016-07-25T17:04:44Z</time>
      </trkpt>
      <trkpt lat="41.088217" lon="-3.764067">
        <ele>2863.0</ele>
        <time>2016-07-25T17:04:45Z</time>
      </trkpt>
      <trkpt lat="41.088167" lon="-3.764117">
        <ele>2862.0</ele>
        <time>2016-07-25T17:04:46Z</time>
      </trkpt>
      <trkpt lat="41.088100" lon="-3.764167">
        <ele>2860.0</ele>
        <time>2016-07-25T17:04:47Z</time>
      </trkpt>
      <trkpt lat="41.088033" lon="-3.764217">
        <ele>2858.0</ele>
        <time>2016-07-25T17:04:48Z</time>
      </trkpt>
      <trkpt lat="41.087983" lon="-3.764283">
        <ele>2857.0</ele>
        <time>2016-07-25T17:04:49Z</time>
      </trkpt>
      <trkpt lat="41.087917" lon="-3.764333">
        <ele>2857.0</ele>
        <time>2016-07-25T17:04:50Z</time>
      </trkpt>
      <trkpt lat="41.087850" lon="-3.764383">
        <ele>2857.0</ele>
        <time>2016-07-25T17:04:51Z</time>
      </trkpt>
      <trkpt lat="41.087800" lon="-3.764433">
        <ele>2856.0</ele>
        <time>2016-07-25T17:04:52Z</time>
      </trkpt>
      <trkpt lat="41.087750" lon="-3.764483">
        <ele>2855.0</ele>
        <time>2016-07-25T17:04:53Z</time>
      </trkpt>
      <trkpt lat="41.087700" lon="-3.764550">
        <ele>2854.0</ele>
        <time>2016-07-25T17:04:54Z</time>
      </trkpt>
      <trkpt lat="41.087650" lon="-3.764617">
        <ele>2853.0</ele>
        <time>2016-07-25T17:04:55Z</time>
      </trkpt>
      <trkpt lat="41.087583" lon="-3.764667">
        <ele>2852.0</ele>
        <time>2016-07-25T17:04:56Z</time>
      </trkpt>
      <trkpt lat="41.087517" lon="-3.764733">
        <ele>2851.0</ele>
        <time>2016-07-25T17:04:57Z</time>
      </trkpt>
      <trkpt lat="41.087467" lon="-3.764783">
        <ele>2850.0</ele>
        <time>2016-07-25T17:04:58Z</time>
      </trkpt>
      <trkpt lat="41.087417" lon="-3.764833">
        <ele>2849.0</ele>
        <time>2016-07-25T17:04:59Z</time>
      </trkpt>
      <trkpt lat="41.087350" lon="-3.764900">
        <ele>2848.0</ele>
        <time>2016-07-25T17:05:00Z</time>
      </trkpt>
      <trkpt lat="41.087300" lon="-3.764983">
        <ele>2847.0</ele>
        <time>2016-07-25T17:05:01Z</time>
      </trkpt>
      <trkpt lat="41.087250" lon="-3.765050">
        <ele>2846.0</ele>
        <time>2016-07-25T17:05:02Z</time>
      </trkpt>
      <trkpt lat="41.087200" lon="-3.765117">
        <ele>2845.0</ele>
        <time>2016-07-25T17:05:03Z</time>
      </trkpt>
      <trkpt lat="41.087150" lon="-3.765183">
        <ele>2845.0</ele>
        <time>2016-07-25T17:05:04Z</time>
      </trkpt>
      <trkpt lat="41.087100" lon="-3.765233">
        <ele>2844.0</ele>
        <time>2016-07-25T17:05:05Z</time>
      </trkpt>
      <trkpt lat="41.087050" lon="-3.765300">
        <ele>2843.0</ele>
        <time>2016-07-25T17:05:06Z</time>
      </trkpt>
      <trkpt lat="41.087000" lon="-3.765350">
        <ele>2842.0</ele>
        <time>2016-07-25T17:05:07Z</time>
      </trkpt>
      <trkpt lat="41.086933" lon="-3.765417">
        <ele>2840.0</ele>
        <time>2016-07-25T17:05:08Z</time>
      </trkpt>
      <trkpt lat="41.086867" lon="-3.765483">
        <ele>2838.0</ele>
        <time>2016-07-25T17:05:09Z</time>
      </trkpt>
      <trkpt lat="41.086800" lon="-3.765567">
        <ele>2837.0</ele>
        <time>2016-07-25T17:05:10Z</time>
      </trkpt>
      <trkpt lat="41.086750" lon="-3.765633">
        <ele>2837.0</ele>
        <time>2016-07-25T17:05:11Z</time>
      </trkpt>
      <trkpt lat="41.086700" lon="-3.765700">
        <ele>2837.0</ele>
        <time>2016-07-25T17:05:12Z</time>
      </trkpt>
      <trkpt lat="41.086650" lon="-3.765750">
        <ele>2836.0</ele>
        <time>2016-07-25T17:05:13Z</time>
      </trkpt>
      <trkpt lat="41.086600" lon="-3.765817">
        <ele>2834.0</ele>
        <time>2016-07-25T17:05:14Z</time>
      </trkpt>
      <trkpt lat="41.086533" lon="-3.765883">
        <ele>2833.0</ele>
        <time>2016-07-25T17:05:15Z</time>
      </trkpt>
      <trkpt lat="41.086500" lon="-3.765967">
        <ele>2832.0</ele>
        <time>2016-07-25T17:05:16Z</time>
      </trkpt>
      <trkpt lat="41.086450" lon="-3.766033">
        <ele>2832.0</ele>
        <time>2016-07-25T17:05:17Z</time>
      </trkpt>
      <trkpt lat="41.086433" lon="-3.766100">
        <ele>2831.0</ele>
        <time>2016-07-25T17:05:18Z</time>
      </trkpt>
      <trkpt lat="41.086417" lon="-3.766167">
        <ele>2830.0</ele>
        <time>2016-07-25T17:05:19Z</time>
      </trkpt>
      <trkpt lat="41.086383" lon="-3.766217">
        <ele>2829.0</ele>
        <time>2016-07-25T17:05:20Z</time>
      </trkpt>
      <trkpt lat="41.086333" lon="-3.766283">
        <ele>2826.0</ele>
        <time>2016-07-25T17:05:21Z</time>
      </trkpt>
      <trkpt lat="41.086300" lon="-3.766350">
        <ele>2824.0</ele>
        <time>2016-07-25T17:05:22Z</time>
      </trkpt>
      <trkpt lat="41.086250" lon="-3.766417">
        <ele>2823.0</ele>
        <time>2016-07-25T17:05:23Z</time>
      </trkpt>
      <trkpt lat="41.086200" lon="-3.766483">
        <ele>2822.0</ele>
        <time>2016-07-25T17:05:24Z</time>
      </trkpt>
      <trkpt lat="41.086150" lon="-3.766533">
        <ele>2821.0</ele>
        <time>2016-07-25T17:05:25Z</time>
      </trkpt>
      <trkpt lat="41.086083" lon="-3.766600">
        <ele>2819.0</ele>
        <time>2016-07-25T17:05:26Z</time>
      </trkpt>
      <trkpt lat="41.086033" lon="-3.766667">
        <ele>2816.0</ele>
        <time>2016-07-25T17:05:27Z</time>
      </trkpt>
      <trkpt lat="41.085983" lon="-3.766733">
        <ele>2814.0</ele>
        <time>2016-07-25T17:05:28Z</time>
      </trkpt>
      <trkpt lat="41.085933" lon="-3.766817">
        <ele>2812.0</ele>
        <time>2016-07-25T17:05:29Z</time>
      </trkpt>
      <trkpt lat="41.085883" lon="-3.766883">
        <ele>2811.0</ele>
        <time>2016-07-25T17:05:30Z</time>
      </trkpt>
      <trkpt lat="41.085833" lon="-3.766950">
        <ele>2810.0</ele>
        <time>2016-07-25T17:05:31Z</time>
      </trkpt>
      <trkpt lat="41.085783" lon="-3.767017">
        <ele>2808.0</ele>
        <time>2016-07-25T17:05:32Z</time>
      </trkpt>
      <trkpt lat="41.085750" lon="-3.767083">
        <ele>2806.0</ele>
        <time>2016-07-25T17:05:33Z</time>
      </trkpt>
      <trkpt lat="41.085700" lon="-3.767167">
        <ele>2804.0</ele>
        <time>2016-07-25T17:05:34Z</time>
      </trkpt>
      <trkpt lat="41.085650" lon="-3.767250">
        <ele>2802.0</ele>
        <time>2016-07-25T17:05:35Z</time>
      </trkpt>
      <trkpt lat="41.085600" lon="-3.767317">
        <ele>2801.0</ele>
        <time>2016-07-25T17:05:36Z</time>
      </trkpt>
      <trkpt lat="41.085550" lon="-3.767383">
        <ele>2800.0</ele>
        <time>2016-07-25T17:05:37Z</time>
      </trkpt>
      <trkpt lat="41.085500" lon="-3.767450">
        <ele>2798.0</ele>
        <time>2016-07-25T17:05:38Z</time>
      </trkpt>
      <trkpt lat="41.085450" lon="-3.767517">
        <ele>2796.0</ele>
        <time>2016-07-25T17:05:39Z</time>
      </trkpt>
      <trkpt lat="41.085400" lon="-3.767583">
        <ele>2794.0</ele>
        <time>2016-07-25T17:05:40Z</time>
      </trkpt>
      <trkpt lat="41.085350" lon="-3.767650">
        <ele>2792.0</ele>
        <time>2016-07-25T17:05:41Z</time>
      </trkpt>
      <trkpt lat="41.085300" lon="-3.767733">
        <ele>2789.0</ele>
        <time>2016-07-25T17:05:42Z</time>
      </trkpt>
      <trkpt lat="41.085250" lon="-3.767817">
        <ele>2786.0</ele>
        <time>2016-07-25T17:05:43Z</time>
      </trkpt>
      <trkpt lat="41.085200" lon="-3.767917">
        <ele>2784.0</ele>
        <time>2016-07-25T17:05:44Z</time>
      </trkpt>
      <trkpt lat="41.085167" lon="-3.768000">
        <ele>2783.0</ele>
        <time>2016-07-25T17:05:45Z</time>
      </trkpt>
      <trkpt lat="41.085117" lon="-3.768083">
        <ele>2782.0</ele>
        <time>2016-07-25T17:05:46Z</time>
      </trkpt>
      <trkpt lat="41.085083" lon="-3.768150">
        <ele>2779.0</ele>
        <time>2016-07-25T17:05:47Z</time>
      </trkpt>
      <trkpt lat="41.085033" lon="-3.768250">
        <ele>2777.0</ele>
        <time>2016-07-25T17:05:48Z</time>
      </trkpt>
      <trkpt lat="41.084983" lon="-3.768333">
        <ele>2774.0</ele>
        <time>2016-07-25T17:05:49Z</time>
      </trkpt>
      <trkpt lat="41.084933" lon="-3.768417">
        <ele>2771.0</ele>
        <time>2016-07-25T17:05:50Z</time>
      </trkpt>
      <trkpt lat="41.084883" lon="-3.768517">
        <ele>2769.0</ele>
        <time>2016-07-25T17:05:51Z</time>
      </trkpt>
      <trkpt lat="41.084833" lon="-3.768600">
        <ele>2768.0</ele>
        <time>2016-07-25T17:05:52Z</time>
      </trkpt>
      <trkpt lat="41.084783" lon="-3.768683">
        <ele>2766.0</ele>
        <time>2016-07-25T17:05:53Z</time>
      </trkpt>
      <trkpt lat="41.084733" lon="-3.768767">
        <ele>2765.0</ele>
        <time>2016-07-25T17:05:54Z</time>
      </trkpt>
      <trkpt lat="41.084683" lon="-3.768833">
        <ele>2763.0</ele>
        <time>2016-07-25T17:05:55Z</time>
      </trkpt>
      <trkpt lat="41.084617" lon="-3.768900">
        <ele>2762.0</ele>
        <time>2016-07-25T17:05:56Z</time>
      </trkpt>
      <trkpt lat="41.084550" lon="-3.768983">
        <ele>2760.0</ele>
        <time>2016-07-25T17:05:57Z</time>
      </trkpt>
      <trkpt lat="41.084483" lon="-3.769050">
        <ele>2758.0</ele>
        <time>2016-07-25T17:05:58Z</time>
      </trkpt>
      <trkpt lat="41.084433" lon="-3.769117">
        <ele>2756.0</ele>
        <time>2016-07-25T17:05:59Z</time>
      </trkpt>
      <trkpt lat="41.084367" lon="-3.769183">
        <ele>2754.0</ele>
        <time>2016-07-25T17:06:00Z</time>
      </trkpt>
      <trkpt lat="41.084317" lon="-3.769250">
        <ele>2752.0</ele>
        <time>2016-07-25T17:06:01Z</time>
      </trkpt>
      <trkpt lat="41.084267" lon="-3.769333">
        <ele>2750.0</ele>
        <time>2016-07-25T17:06:02Z</time>
      </trkpt>
      <trkpt lat="41.084200" lon="-3.769400">
        <ele>2748.0</ele>
        <time>2016-07-25T17:06:03Z</time>
      </trkpt>
      <trkpt lat="41.084133" lon="-3.769467">
        <ele>2746.0</ele>
        <time>2016-07-25T17:06:04Z</time>
      </trkpt>
      <trkpt lat="41.084083" lon="-3.769550">
        <ele>2745.0</ele>
        <time>2016-07-25T17:06:05Z</time>
      </trkpt>
      <trkpt lat="41.084017" lon="-3.769617">
        <ele>2743.0</ele>
        <time>2016-07-25T17:06:06Z</time>
      </trkpt>
      <trkpt lat="41.083967" lon="-3.769700">
        <ele>2741.0</ele>
        <time>2016-07-25T17:06:07Z</time>
      </trkpt>
      <trkpt lat="41.083900" lon="-3.769783">
        <ele>2738.0</ele>
        <time>2016-07-25T17:06:08Z</time>
      </trkpt>
      <trkpt lat="41.083850" lon="-3.769850">
        <ele>2737.0</ele>
        <time>2016-07-25T17:06:09Z</time>
      </trkpt>
      <trkpt lat="41.083817" lon="-3.769933">
        <ele>2735.0</ele>
        <time>2016-07-25T17:06:10Z</time>
      </trkpt>
      <trkpt lat="41.083783" lon="-3.770033">
        <ele>2732.0</ele>
        <time>2016-07-25T17:06:11Z</time>
      </trkpt>
      <trkpt lat="41.083767" lon="-3.770117">
        <ele>2730.0</ele>
        <time>2016-07-25T17:06:12Z</time>
      </trkpt>
      <trkpt lat="41.083750" lon="-3.770200">
        <ele>2728.0</ele>
        <time>2016-07-25T17:06:13Z</time>
      </trkpt>
      <trkpt lat="41.083733" lon="-3.770283">
        <ele>2725.0</ele>
        <time>2016-07-25T17:06:14Z</time>
      </trkpt>
      <trkpt lat="41.083733" lon="-3.770383">
        <ele>2722.0</ele>
        <time>2016-07-25T17:06:15Z</time>
      </trkpt>
      <trkpt lat="41.083767" lon="-3.770467">
        <ele>2719.0</ele>
        <time>2016-07-25T17:06:16Z</time>
      </trkpt>
      <trkpt lat="41.083800" lon="-3.770567">
        <ele>2716.0</ele>
        <time>2016-07-25T17:06:17Z</time>
      </trkpt>
      <trkpt lat="41.083833" lon="-3.770650">
        <ele>2714.0</ele>
        <time>2016-07-25T17:06:18Z</time>
      </trkpt>
      <trkpt lat="41.083850" lon="-3.770733">
        <ele>2713.0</ele>
        <time>2016-07-25T17:06:19Z</time>
      </trkpt>
      <trkpt lat="41.083850" lon="-3.770817">
        <ele>2713.0</ele>
        <time>2016-07-25T17:06:20Z</time>
      </trkpt>
      <trkpt lat="41.083850" lon="-3.770900">
        <ele>2712.0</ele>
        <time>2016-07-25T17:06:21Z</time>
      </trkpt>
      <trkpt lat="41.083833" lon="-3.770967">
        <ele>2710.0</ele>
        <time>2016-07-25T17:06:22Z</time>
      </trkpt>
      <trkpt lat="41.083833" lon="-3.771067">
        <ele>2707.0</ele>
        <time>2016-07-25T17:06:23Z</time>
      </trkpt>
      <trkpt lat="41.083817" lon="-3.771150">
        <ele>2704.0</ele>
        <time>2016-07-25T17:06:24Z</time>
      </trkpt>
      <trkpt lat="41.083817" lon="-3.771250">
        <ele>2701.0</ele>
        <time>2016-07-25T17:06:25Z</time>
      </trkpt>
      <trkpt lat="41.083783" lon="-3.771350">
        <ele>2699.0</ele>
        <time>2016-07-25T17:06:26Z</time>
      </trkpt>
      <trkpt lat="41.083767" lon="-3.771433">
        <ele>2698.0</ele>
        <time>2016-07-25T17:06:27Z</time>
      </trkpt>
      <trkpt lat="41.083733" lon="-3.771500">
        <ele>2696.0</ele>
        <time>2016-07-25T17:06:28Z</time>
      </trkpt>
      <trkpt lat="41.083700" lon="-3.771583">
        <ele>2693.0</ele>
        <time>2016-07-25T17:06:29Z</time>
      </trkpt>
      <trkpt lat="41.083650" lon="-3.771667">
        <ele>2690.0</ele>
        <time>2016-07-25T17:06:30Z</time>
      </trkpt>
      <trkpt lat="41.083600" lon="-3.771750">
        <ele>2686.0</ele>
        <time>2016-07-25T17:06:31Z</time>
      </trkpt>
      <trkpt lat="41.083550" lon="-3.771850">
        <ele>2683.0</ele>
        <time>2016-07-25T17:06:32Z</time>
      </trkpt>
      <trkpt lat="41.083500" lon="-3.771933">
        <ele>2681.0</ele>
        <time>2016-07-25T17:06:33Z</time>
      </trkpt>
      <trkpt lat="41.083450" lon="-3.772000">
        <ele>2679.0</ele>
        <time>2016-07-25T17:06:34Z</time>
      </trkpt>
      <trkpt lat="41.083383" lon="-3.772083">
        <ele>2677.0</ele>
        <time>2016-07-25T17:06:35Z</time>
      </trkpt>
      <trkpt lat="41.083333" lon="-3.772150">
        <ele>2674.0</ele>
        <time>2016-07-25T17:06:36Z</time>
      </trkpt>
      <trkpt lat="41.083267" lon="-3.772217">
        <ele>2671.0</ele>
        <time>2016-07-25T17:06:37Z</time>
      </trkpt>
      <trkpt lat="41.083217" lon="-3.772300">
        <ele>2669.0</ele>
        <time>2016-07-25T17:06:38Z</time>
      </trkpt>
      <trkpt lat="41.083150" lon="-3.772400">
        <ele>2666.0</ele>
        <time>2016-07-25T17:06:39Z</time>
      </trkpt>
      <trkpt lat="41.083083" lon="-3.772483">
        <ele>2665.0</ele>
        <time>2016-07-25T17:06:40Z</time>
      </trkpt>
      <trkpt lat="41.083017" lon="-3.772567">
        <ele>2665.0</ele>
        <time>2016-07-25T17:06:41Z</time>
      </trkpt>
      <trkpt lat="41.082950" lon="-3.772617">
        <ele>2665.0</ele>
        <time>2016-07-25T17:06:42Z</time>
      </trkpt>
      <trkpt lat="41.082867" lon="-3.772667">
        <ele>2664.0</ele>
        <time>2016-07-25T17:06:43Z</time>
      </trkpt>
      <trkpt lat="41.082800" lon="-3.772717">
        <ele>2662.0</ele>
        <time>2016-07-25T17:06:44Z</time>
      </trkpt>
      <trkpt lat="41.082717" lon="-3.772783">
        <ele>2660.0</ele>
        <time>2016-07-25T17:06:45Z</time>
      </trkpt>
      <trkpt lat="41.082633" lon="-3.772850">
        <ele>2658.0</ele>
        <time>2016-07-25T17:06:46Z</time>
      </trkpt>
      <trkpt lat="41.082567" lon="-3.772917">
        <ele>2656.0</ele>
        <time>2016-07-25T17:06:47Z</time>
      </trkpt>
      <trkpt lat="41.082483" lon="-3.772983">
        <ele>2656.0</ele>
        <time>2016-07-25T17:06:48Z</time>
      </trkpt>
      <trkpt lat="41.082400" lon="-3.773050">
        <ele>2655.0</ele>
        <time>2016-07-25T17:06:49Z</time>
      </trkpt>
      <trkpt lat="41.082333" lon="-3.773100">
        <ele>2654.0</ele>
        <time>2016-07-25T17:06:50Z</time>
      </trkpt>
      <trkpt lat="41.082267" lon="-3.773150">
        <ele>2652.0</ele>
        <time>2016-07-25T17:06:51Z</time>
      </trkpt>
      <trkpt lat="41.082200" lon="-3.773217">
        <ele>2651.0</ele>
        <time>2016-07-25T17:06:52Z</time>
      </trkpt>
      <trkpt lat="41.082133" lon="-3.773283">
        <ele>2650.0</ele>
        <time>2016-07-25T17:06:53Z</time>
      </trkpt>
      <trkpt lat="41.082067" lon="-3.773333">
        <ele>2650.0</ele>
        <time>2016-07-25T17:06:54Z</time>
      </trkpt>
      <trkpt lat="41.082000" lon="-3.773383">
        <ele>2649.0</ele>
        <time>2016-07-25T17:06:55Z</time>
      </trkpt>
      <trkpt lat="41.081933" lon="-3.773433">
        <ele>2647.0</ele>
        <time>2016-07-25T17:06:56Z</time>
      </trkpt>
      <trkpt lat="41.081867" lon="-3.773500">
        <ele>2645.0</ele>
        <time>2016-07-25T17:06:57Z</time>
      </trkpt>
      <trkpt lat="41.081817" lon="-3.773567">
        <ele>2643.0</ele>
        <time>2016-07-25T17:06:58Z</time>
      </trkpt>
      <trkpt lat="41.081767" lon="-3.773650">
        <ele>2641.0</ele>
        <time>2016-07-25T17:06:59Z</time>
      </trkpt>
      <trkpt lat="41.081717" lon="-3.773717">
        <ele>2639.0</ele>
        <time>2016-07-25T17:07:00Z</time>
      </trkpt>
      <trkpt lat="41.081667" lon="-3.773767">
        <ele>2638.0</ele>
        <time>2016-07-25T17:07:01Z</time>
      </trkpt>
      <trkpt lat="41.081617" lon="-3.773833">
        <ele>2636.0</ele>
        <time>2016-07-25T17:07:02Z</time>
      </trkpt>
      <trkpt lat="41.081583" lon="-3.773900">
        <ele>2634.0</ele>
        <time>2016-07-25T17:07:03Z</time>
      </trkpt>
      <trkpt lat="41.081533" lon="-3.773967">
        <ele>2631.0</ele>
        <time>2016-07-25T17:07:04Z</time>
      </trkpt>
      <trkpt lat="41.081500" lon="-3.774050">
        <ele>2630.0</ele>
        <time>2016-07-25T17:07:05Z</time>
      </trkpt>
      <trkpt lat="41.081450" lon="-3.774117">
        <ele>2628.0</ele>
        <time>2016-07-25T17:07:06Z</time>
      </trkpt>
      <trkpt lat="41.081383" lon="-3.774167">
        <ele>2627.0</ele>
        <time>2016-07-25T17:07:07Z</time>
      </trkpt>
      <trkpt lat="41.081333" lon="-3.774233">
        <ele>2626.0</ele>
        <time>2016-07-25T17:07:08Z</time>
      </trkpt>
      <trkpt lat="41.081283" lon="-3.774300">
        <ele>2624.0</ele>
        <time>2016-07-25T17:07:09Z</time>
      </trkpt>
      <trkpt lat="41.081233" lon="-3.774350">
        <ele>2622.0</ele>
        <time>2016-07-25T17:07:10Z</time>
      </trkpt>
      <trkpt lat="41.081167" lon="-3.774433">
        <ele>2620.0</ele>
        <time>2016-07-25T17:07:11Z</time>
      </trkpt>
      <trkpt lat="41.081100" lon="-3.774500">
        <ele>2618.0</ele>
        <time>2016-07-25T17:07:12Z</time>
      </trkpt>
      <trkpt lat="41.081050" lon="-3.774550">
        <ele>2616.0</ele>
        <time>2016-07-25T17:07:13Z</time>
      </trkpt>
      <trkpt lat="41.080983" lon="-3.774617">
        <ele>2615.0</ele>
        <time>2016-07-25T17:07:14Z</time>
      </trkpt>
      <trkpt lat="41.080933" lon="-3.774683">
        <ele>2613.0</ele>
        <time>2016-07-25T17:07:15Z</time>
      </trkpt>
      <trkpt lat="41.080900" lon="-3.774750">
        <ele>2612.0</ele>
        <time>2016-07-25T17:07:16Z</time>
      </trkpt>
      <trkpt lat="41.080867" lon="-3.774817">
        <ele>2611.0</ele>
        <time>2016-07-25T17:07:17Z</time>
      </trkpt>
      <trkpt lat="41.080800" lon="-3.774867">
        <ele>2609.0</ele>
        <time>2016-07-25T17:07:18Z</time>
      </trkpt>
      <trkpt lat="41.080750" lon="-3.774917">
        <ele>2607.0</ele>
        <time>2016-07-25T17:07:19Z</time>
      </trkpt>
      <trkpt lat="41.080683" lon="-3.774983">
        <ele>2604.0</ele>
        <time>2016-07-25T17:07:20Z</time>
      </trkpt>
      <trkpt lat="41.080617" lon="-3.775050">
        <ele>2601.0</ele>
        <time>2016-07-25T17:07:21Z</time>
      </trkpt>
      <trkpt lat="41.080567" lon="-3.775133">
        <ele>2600.0</ele>
        <time>2016-07-25T17:07:22Z</time>
      </trkpt>
      <trkpt lat="41.080500" lon="-3.775200">
        <ele>2599.0</ele>
        <time>2016-07-25T17:07:23Z</time>
      </trkpt>
      <trkpt lat="41.080450" lon="-3.775267">
        <ele>2598.0</ele>
        <time>2016-07-25T17:07:24Z</time>
      </trkpt>
      <trkpt lat="41.080400" lon="-3.775317">
        <ele>2596.0</ele>
        <time>2016-07-25T17:07:25Z</time>
      </trkpt>
      <trkpt lat="41.080333" lon="-3.775400">
        <ele>2594.0</ele>
        <time>2016-07-25T17:07:26Z</time>
      </trkpt>
      <trkpt lat="41.080283" lon="-3.775467">
        <ele>2592.0</ele>
        <time>2016-07-25T17:07:27Z</time>
      </trkpt>
      <trkpt lat="41.080233" lon="-3.775550">
        <ele>2590.0</ele>
        <time>2016-07-25T17:07:28Z</time>
      </trkpt>
      <trkpt lat="41.080183" lon="-3.775633">
        <ele>2590.0</ele>
        <time>2016-07-25T17:07:29Z</time>
      </trkpt>
      <trkpt lat="41.080117" lon="-3.775700">
        <ele>2589.0</ele>
        <time>2016-07-25T17:07:30Z</time>
      </trkpt>
      <trkpt lat="41.080067" lon="-3.775767">
        <ele>2587.0</ele>
        <time>2016-07-25T17:07:31Z</time>
      </trkpt>
      <trkpt lat="41.080017" lon="-3.775833">
        <ele>2586.0</ele>
        <time>2016-07-25T17:07:32Z</time>
      </trkpt>
      <trkpt lat="41.079983" lon="-3.775917">
        <ele>2584.0</ele>
        <time>2016-07-25T17:07:33Z</time>
      </trkpt>
      <trkpt lat="41.079933" lon="-3.775983">
        <ele>2582.0</ele>
        <time>2016-07-25T17:07:34Z</time>
      </trkpt>
      <trkpt lat="41.079900" lon="-3.776067">
        <ele>2581.0</ele>
        <time>2016-07-25T17:07:35Z</time>
      </trkpt>
      <trkpt lat="41.079850" lon="-3.776133">
        <ele>2580.0</ele>
        <time>2016-07-25T17:07:36Z</time>
      </trkpt>
      <trkpt lat="41.079817" lon="-3.776200">
        <ele>2578.0</ele>
        <time>2016-07-25T17:07:37Z</time>
      </trkpt>
      <trkpt lat="41.079783" lon="-3.776267">
        <ele>2576.0</ele>
        <time>2016-07-25T17:07:38Z</time>
      </trkpt>
      <trkpt lat="41.079733" lon="-3.776350">
        <ele>2574.0</ele>
        <time>2016-07-25T17:07:39Z</time>
      </trkpt>
      <trkpt lat="41.079700" lon="-3.776433">
        <ele>2572.0</ele>
        <time>2016-07-25T17:07:40Z</time>
      </trkpt>
      <trkpt lat="41.079650" lon="-3.776517">
        <ele>2570.0</ele>
        <time>2016-07-25T17:07:41Z</time>
      </trkpt>
      <trkpt lat="41.079617" lon="-3.776600">
        <ele>2569.0</ele>
        <time>2016-07-25T17:07:42Z</time>
      </trkpt>
      <trkpt lat="41.079567" lon="-3.776700">
        <ele>2567.0</ele>
        <time>2016-07-25T17:07:43Z</time>
      </trkpt>
      <trkpt lat="41.079517" lon="-3.776767">
        <ele>2566.0</ele>
        <time>2016-07-25T17:07:44Z</time>
      </trkpt>
      <trkpt lat="41.079467" lon="-3.776850">
        <ele>2563.0</ele>
        <time>2016-07-25T17:07:45Z</time>
      </trkpt>
      <trkpt lat="41.079400" lon="-3.776950">
        <ele>2561.0</ele>
        <time>2016-07-25T17:07:46Z</time>
      </trkpt>
      <trkpt lat="41.079333" lon="-3.777033">
        <ele>2558.0</ele>
        <time>2016-07-25T17:07:47Z</time>
      </trkpt>
      <trkpt lat="41.079283" lon="-3.777133">
        <ele>2557.0</ele>
        <time>2016-07-25T17:07:48Z</time>
      </trkpt>
      <trkpt lat="41.079217" lon="-3.777233">
        <ele>2556.0</ele>
        <time>2016-07-25T17:07:49Z</time>
      </trkpt>
      <trkpt lat="41.079167" lon="-3.777317">
        <ele>2556.0</ele>
        <time>2016-07-25T17:07:50Z</time>
      </trkpt>
      <trkpt lat="41.079100" lon="-3.777383">
        <ele>2554.0</ele>
        <time>2016-07-25T17:07:51Z</time>
      </trkpt>
      <trkpt lat="41.079033" lon="-3.777467">
        <ele>2552.0</ele>
        <time>2016-07-25T17:07:52Z</time>
      </trkpt>
      <trkpt lat="41.078967" lon="-3.777550">
        <ele>2550.0</ele>
        <time>2016-07-25T17:07:53Z</time>
      </trkpt>
      <trkpt lat="41.078883" lon="-3.777633">
        <ele>2548.0</ele>
        <time>2016-07-25T17:07:54Z</time>
      </trkpt>
      <trkpt lat="41.078800" lon="-3.777700">
        <ele>2547.0</ele>
        <time>2016-07-25T17:07:55Z</time>
      </trkpt>
      <trkpt lat="41.078700" lon="-3.777767">
        <ele>2546.0</ele>
        <time>2016-07-25T17:07:56Z</time>
      </trkpt>
      <trkpt lat="41.078617" lon="-3.777817">
        <ele>2545.0</ele>
        <time>2016-07-25T17:07:57Z</time>
      </trkpt>
      <trkpt lat="41.078533" lon="-3.777850">
        <ele>2543.0</ele>
        <time>2016-07-25T17:07:58Z</time>
      </trkpt>
      <trkpt lat="41.078450" lon="-3.777883">
        <ele>2541.0</ele>
        <time>2016-07-25T17:07:59Z</time>
      </trkpt>
      <trkpt lat="41.078350" lon="-3.777950">
        <ele>2538.0</ele>
        <time>2016-07-25T17:08:00Z</time>
      </trkpt>
      <trkpt lat="41.078267" lon="-3.778017">
        <ele>2535.0</ele>
        <time>2016-07-25T17:08:01Z</time>
      </trkpt>
      <trkpt lat="41.078167" lon="-3.778083">
        <ele>2532.0</ele>
        <time>2016-07-25T17:08:02Z</time>
      </trkpt>
      <trkpt lat="41.078067" lon="-3.778150">
        <ele>2530.0</ele>
        <time>2016-07-25T17:08:03Z</time>
      </trkpt>
      <trkpt lat="41.077967" lon="-3.778217">
        <ele>2528.0</ele>
        <time>2016-07-25T17:08:04Z</time>
      </trkpt>
      <trkpt lat="41.077867" lon="-3.778267">
        <ele>2527.0</ele>
        <time>2016-07-25T17:08:05Z</time>
      </trkpt>
      <trkpt lat="41.077767" lon="-3.778300">
        <ele>2525.0</ele>
        <time>2016-07-25T17:08:06Z</time>
      </trkpt>
      <trkpt lat="41.077667" lon="-3.778367">
        <ele>2523.0</ele>
        <time>2016-07-25T17:08:07Z</time>
      </trkpt>
      <trkpt lat="41.077567" lon="-3.778417">
        <ele>2520.0</ele>
        <time>2016-07-25T17:08:08Z</time>
      </trkpt>
      <trkpt lat="41.077450" lon="-3.778483">
        <ele>2517.0</ele>
        <time>2016-07-25T17:08:09Z</time>
      </trkpt>
      <trkpt lat="41.077350" lon="-3.778533">
        <ele>2515.0</ele>
        <time>2016-07-25T17:08:10Z</time>
      </trkpt>
      <trkpt lat="41.077233" lon="-3.778583">
        <ele>2513.0</ele>
        <time>2016-07-25T17:08:11Z</time>
      </trkpt>
      <trkpt lat="41.077117" lon="-3.778617">
        <ele>2510.0</ele>
        <time>2016-07-25T17:08:12Z</time>
      </trkpt>
      <trkpt lat="41.077017" lon="-3.778667">
        <ele>2508.0</ele>
        <time>2016-07-25T17:08:13Z</time>
      </trkpt>
      <trkpt lat="41.076900" lon="-3.778717">
        <ele>2506.0</ele>
        <time>2016-07-25T17:08:14Z</time>
      </trkpt>
      <trkpt lat="41.076800" lon="-3.778767">
        <ele>2503.0</ele>
        <time>2016-07-25T17:08:15Z</time>
      </trkpt>
      <trkpt lat="41.076683" lon="-3.778817">
        <ele>2501.0</ele>
        <time>2016-07-25T17:08:16Z</time>
      </trkpt>
      <trkpt lat="41.076583" lon="-3.778850">
        <ele>2500.0</ele>
        <time>2016-07-25T17:08:17Z</time>
      </trkpt>
      <trkpt lat="41.076483" lon="-3.778900">
        <ele>2499.0</ele>
        <time>2016-07-25T17:08:18Z</time>
      </trkpt>
      <trkpt lat="41.076400" lon="-3.778950">
        <ele>2497.0</ele>
        <time>2016-07-25T17:08:19Z</time>
      </trkpt>
      <trkpt lat="41.076300" lon="-3.779017">
        <ele>2494.0</ele>
        <time>2016-07-25T17:08:20Z</time>
      </trkpt>
      <trkpt lat="41.076217" lon="-3.779083">
        <ele>2491.0</ele>
        <time>2016-07-25T17:08:21Z</time>
      </trkpt>
      <trkpt lat="41.076117" lon="-3.779150">
        <ele>2488.0</ele>
        <time>2016-07-25T17:08:22Z</time>
      </trkpt>
      <trkpt lat="41.076033" lon="-3.779233">
        <ele>2486.0</ele>
        <time>2016-07-25T17:08:23Z</time>
      </trkpt>
      <trkpt lat="41.075933" lon="-3.779300">
        <ele>2483.0</ele>
        <time>2016-07-25T17:08:24Z</time>
      </trkpt>
      <trkpt lat="41.075833" lon="-3.779383">
        <ele>2481.0</ele>
        <time>2016-07-25T17:08:25Z</time>
      </trkpt>
      <trkpt lat="41.075733" lon="-3.779467">
        <ele>2478.0</ele>
        <time>2016-07-25T17:08:26Z</time>
      </trkpt>
      <trkpt lat="41.075633" lon="-3.779550">
        <ele>2477.0</ele>
        <time>2016-07-25T17:08:27Z</time>
      </trkpt>
      <trkpt lat="41.075550" lon="-3.779633">
        <ele>2476.0</ele>
        <time>2016-07-25T17:08:28Z</time>
      </trkpt>
      <trkpt lat="41.075450" lon="-3.779700">
        <ele>2475.0</ele>
        <time>2016-07-25T17:08:29Z</time>
      </trkpt>
      <trkpt lat="41.075367" lon="-3.779767">
        <ele>2474.0</ele>
        <time>2016-07-25T17:08:30Z</time>
      </trkpt>
      <trkpt lat="41.075283" lon="-3.779833">
        <ele>2472.0</ele>
        <time>2016-07-25T17:08:31Z</time>
      </trkpt>
      <trkpt lat="41.075200" lon="-3.779900">
        <ele>2470.0</ele>
        <time>2016-07-25T17:08:32Z</time>
      </trkpt>
      <trkpt lat="41.075100" lon="-3.779967">
        <ele>2467.0</ele>
        <time>2016-07-25T17:08:33Z</time>
      </trkpt>
      <trkpt lat="41.075017" lon="-3.780017">
        <ele>2466.0</ele>
        <time>2016-07-25T17:08:34Z</time>
      </trkpt>
      <trkpt lat="41.074933" lon="-3.780083">
        <ele>2464.0</ele>
        <time>2016-07-25T17:08:35Z</time>
      </trkpt>
      <trkpt lat="41.074850" lon="-3.780150">
        <ele>2463.0</ele>
        <time>2016-07-25T17:08:36Z</time>
      </trkpt>
      <trkpt lat="41.074783" lon="-3.780200">
        <ele>2460.0</ele>
        <time>2016-07-25T17:08:37Z</time>
      </trkpt>
      <trkpt lat="41.074717" lon="-3.780283">
        <ele>2457.0</ele>
        <time>2016-07-25T17:08:38Z</time>
      </trkpt>
      <trkpt lat="41.074633" lon="-3.780367">
        <ele>2454.0</ele>
        <time>2016-07-25T17:08:39Z</time>
      </trkpt>
      <trkpt lat="41.074567" lon="-3.780450">
        <ele>2453.0</ele>
        <time>2016-07-25T17:08:40Z</time>
      </trkpt>
      <trkpt lat="41.074500" lon="-3.780533">
        <ele>2452.0</ele>
        <time>2016-07-25T17:08:41Z</time>
      </trkpt>
      <trkpt lat="41.074433" lon="-3.780600">
        <ele>2450.0</ele>
        <time>2016-07-25T17:08:42Z</time>
      </trkpt>
      <trkpt lat="41.074383" lon="-3.780667">
        <ele>2448.0</ele>
        <time>2016-07-25T17:08:43Z</time>
      </trkpt>
      <trkpt lat="41.074333" lon="-3.780750">
        <ele>2445.0</ele>
        <time>2016-07-25T17:08:44Z</time>
      </trkpt>
      <trkpt lat="41.074267" lon="-3.780817">
        <ele>2443.0</ele>
        <time>2016-07-25T17:08:45Z</time>
      </trkpt>
      <trkpt lat="41.074200" lon="-3.780883">
        <ele>2440.0</ele>
        <time>2016-07-25T17:08:46Z</time>
      </trkpt>
      <trkpt lat="41.074133" lon="-3.780967">
        <ele>2437.0</ele>
        <time>2016-07-25T17:08:47Z</time>
      </trkpt>
      <trkpt lat="41.074067" lon="-3.781050">
        <ele>2435.0</ele>
        <time>2016-07-25T17:08:48Z</time>
      </trkpt>
      <trkpt lat="41.074017" lon="-3.781117">
        <ele>2433.0</ele>
        <time>2016-07-25T17:08:49Z</time>
      </trkpt>
      <trkpt lat="41.073967" lon="-3.781183">
        <ele>2431.0</ele>
        <time>2016-07-25T17:08:50Z</time>
      </trkpt>
      <trkpt lat="41.073900" lon="-3.781250">
        <ele>2429.0</ele>
        <time>2016-07-25T17:08:51Z</time>
      </trkpt>
      <trkpt lat="41.073833" lon="-3.781317">
        <ele>2426.0</ele>
        <time>2016-07-25T17:08:52Z</time>
      </trkpt>
      <trkpt lat="41.073767" lon="-3.781383">
        <ele>2423.0</ele>
        <time>2016-07-25T17:08:53Z</time>
      </trkpt>
      <trkpt lat="41.073700" lon="-3.781467">
        <ele>2421.0</ele>
        <time>2016-07-25T17:08:54Z</time>
      </trkpt>
      <trkpt lat="41.073633" lon="-3.781533">
        <ele>2419.0</ele>
        <time>2016-07-25T17:08:55Z</time>
      </trkpt>
      <trkpt lat="41.073567" lon="-3.781600">
        <ele>2418.0</ele>
        <time>2016-07-25T17:08:56Z</time>
      </trkpt>
      <trkpt lat="41.073500" lon="-3.781667">
        <ele>2416.0</ele>
        <time>2016-07-25T17:08:57Z</time>
      </trkpt>
      <trkpt lat="41.073433" lon="-3.781733">
        <ele>2414.0</ele>
        <time>2016-07-25T17:08:58Z</time>
      </trkpt>
      <trkpt lat="41.073367" lon="-3.781800">
        <ele>2411.0</ele>
        <time>2016-07-25T17:08:59Z</time>
      </trkpt>
      <trkpt lat="41.073300" lon="-3.781850">
        <ele>2408.0</ele>
        <time>2016-07-25T17:09:00Z</time>
      </trkpt>
      <trkpt lat="41.073250" lon="-3.781917">
        <ele>2405.0</ele>
        <time>2016-07-25T17:09:01Z</time>
      </trkpt>
      <trkpt lat="41.073183" lon="-3.782000">
        <ele>2401.0</ele>
        <time>2016-07-25T17:09:02Z</time>
      </trkpt>
      <trkpt lat="41.073133" lon="-3.782067">
        <ele>2398.0</ele>
        <time>2016-07-25T17:09:03Z</time>
      </trkpt>
      <trkpt lat="41.073083" lon="-3.782150">
        <ele>2396.0</ele>
        <time>2016-07-25T17:09:04Z</time>
      </trkpt>
      <trkpt lat="41.073017" lon="-3.782233">
        <ele>2393.0</ele>
        <time>2016-07-25T17:09:05Z</time>
      </trkpt>
      <trkpt lat="41.072967" lon="-3.782300">
        <ele>2391.0</ele>
        <time>2016-07-25T17:09:06Z</time>
      </trkpt>
      <trkpt lat="41.072900" lon="-3.782350">
        <ele>2388.0</ele>
        <time>2016-07-25T17:09:07Z</time>
      </trkpt>
      <trkpt lat="41.072850" lon="-3.782417">
        <ele>2384.0</ele>
        <time>2016-07-25T17:09:08Z</time>
      </trkpt>
      <trkpt lat="41.072783" lon="-3.782467">
        <ele>2381.0</ele>
        <time>2016-07-25T17:09:09Z</time>
      </trkpt>
      <trkpt lat="41.072700" lon="-3.782483">
        <ele>2379.0</ele>
        <time>2016-07-25T17:09:10Z</time>
      </trkpt>
      <trkpt lat="41.072617" lon="-3.782483">
        <ele>2376.0</ele>
        <time>2016-07-25T17:09:11Z</time>
      </trkpt>
      <trkpt lat="41.072517" lon="-3.782467">
        <ele>2373.0</ele>
        <time>2016-07-25T17:09:12Z</time>
      </trkpt>
      <trkpt lat="41.072417" lon="-3.782450">
        <ele>2370.0</ele>
        <time>2016-07-25T17:09:13Z</time>
      </trkpt>
      <trkpt lat="41.072317" lon="-3.782450">
        <ele>2367.0</ele>
        <time>2016-07-25T17:09:14Z</time>
      </trkpt>
      <trkpt lat="41.072217" lon="-3.782450">
        <ele>2364.0</ele>
        <time>2016-07-25T17:09:15Z</time>
      </trkpt>
      <trkpt lat="41.072117" lon="-3.782433">
        <ele>2362.0</ele>
        <time>2016-07-25T17:09:16Z</time>
      </trkpt>
      <trkpt lat="41.072017" lon="-3.782417">
        <ele>2359.0</ele>
        <time>2016-07-25T17:09:17Z</time>
      </trkpt>
      <trkpt lat="41.071917" lon="-3.782383">
        <ele>2357.0</ele>
        <time>2016-07-25T17:09:18Z</time>
      </trkpt>
      <trkpt lat="41.071817" lon="-3.782367">
        <ele>2354.0</ele>
        <time>2016-07-25T17:09:19Z</time>
      </trkpt>
      <trkpt lat="41.071717" lon="-3.782350">
        <ele>2352.0</ele>
        <time>2016-07-25T17:09:20Z</time>
      </trkpt>
      <trkpt lat="41.071617" lon="-3.782333">
        <ele>2350.0</ele>
        <time>2016-07-25T17:09:21Z</time>
      </trkpt>
      <trkpt lat="41.071517" lon="-3.782333">
        <ele>2347.0</ele>
        <time>2016-07-25T17:09:22Z</time>
      </trkpt>
      <trkpt lat="41.071417" lon="-3.782300">
        <ele>2345.0</ele>
        <time>2016-07-25T17:09:23Z</time>
      </trkpt>
      <trkpt lat="41.071317" lon="-3.782283">
        <ele>2343.0</ele>
        <time>2016-07-25T17:09:24Z</time>
      </trkpt>
      <trkpt lat="41.071233" lon="-3.782267">
        <ele>2340.0</ele>
        <time>2016-07-25T17:09:25Z</time>
      </trkpt>
      <trkpt lat="41.071133" lon="-3.782250">
        <ele>2337.0</ele>
        <time>2016-07-25T17:09:26Z</time>
      </trkpt>
      <trkpt lat="41.071033" lon="-3.782233">
        <ele>2335.0</ele>
        <time>2016-07-25T17:09:27Z</time>
      </trkpt>
      <trkpt lat="41.070933" lon="-3.782233">
        <ele>2332.0</ele>
        <time>2016-07-25T17:09:28Z</time>
      </trkpt>
      <trkpt lat="41.070817" lon="-3.782233">
        <ele>2329.0</ele>
        <time>2016-07-25T17:09:29Z</time>
      </trkpt>
      <trkpt lat="41.070717" lon="-3.782217">
        <ele>2326.0</ele>
        <time>2016-07-25T17:09:30Z</time>
      </trkpt>
      <trkpt lat="41.070617" lon="-3.782217">
        <ele>2323.0</ele>
        <time>2016-07-25T17:09:31Z</time>
      </trkpt>
      <trkpt lat="41.070500" lon="-3.782217">
        <ele>2321.0</ele>
        <time>2016-07-25T17:09:32Z</time>
      </trkpt>
      <trkpt lat="41.070400" lon="-3.782217">
        <ele>2320.0</ele>
        <time>2016-07-25T17:09:33Z</time>
      </trkpt>
      <trkpt lat="41.070317" lon="-3.782217">
        <ele>2318.0</ele>
        <time>2016-07-25T17:09:34Z</time>
      </trkpt>
      <trkpt lat="41.070217" lon="-3.782200">
        <ele>2315.0</ele>
        <time>2016-07-25T17:09:35Z</time>
      </trkpt>
      <trkpt lat="41.070100" lon="-3.782183">
        <ele>2312.0</ele>
        <time>2016-07-25T17:09:36Z</time>
      </trkpt>
      <trkpt lat="41.069983" lon="-3.782150">
        <ele>2309.0</ele>
        <time>2016-07-25T17:09:37Z</time>
      </trkpt>
      <trkpt lat="41.069867" lon="-3.782133">
        <ele>2306.0</ele>
        <time>2016-07-25T17:09:38Z</time>
      </trkpt>
      <trkpt lat="41.069750" lon="-3.782100">
        <ele>2303.0</ele>
        <time>2016-07-25T17:09:39Z</time>
      </trkpt>
      <trkpt lat="41.069633" lon="-3.782067">
        <ele>2301.0</ele>
        <time>2016-07-25T17:09:40Z</time>
      </trkpt>
      <trkpt lat="41.069517" lon="-3.782017">
        <ele>2299.0</ele>
        <time>2016-07-25T17:09:41Z</time>
      </trkpt>
      <trkpt lat="41.069417" lon="-3.781950">
        <ele>2296.0</ele>
        <time>2016-07-25T17:09:42Z</time>
      </trkpt>
      <trkpt lat="41.069300" lon="-3.781900">
        <ele>2292.0</ele>
        <time>2016-07-25T17:09:43Z</time>
      </trkpt>
      <trkpt lat="41.069167" lon="-3.781833">
        <ele>2289.0</ele>
        <time>2016-07-25T17:09:44Z</time>
      </trkpt>
      <trkpt lat="41.069050" lon="-3.781767">
        <ele>2285.0</ele>
        <time>2016-07-25T17:09:45Z</time>
      </trkpt>
      <trkpt lat="41.068933" lon="-3.781700">
        <ele>2282.0</ele>
        <time>2016-07-25T17:09:46Z</time>
      </trkpt>
      <trkpt lat="41.068817" lon="-3.781617">
        <ele>2280.0</ele>
        <time>2016-07-25T17:09:47Z</time>
      </trkpt>
      <trkpt lat="41.068700" lon="-3.781550">
        <ele>2277.0</ele>
        <time>2016-07-25T17:09:48Z</time>
      </trkpt>
      <trkpt lat="41.068583" lon="-3.781483">
        <ele>2275.0</ele>
        <time>2016-07-25T17:09:49Z</time>
      </trkpt>
      <trkpt lat="41.068467" lon="-3.781433">
        <ele>2273.0</ele>
        <time>2016-07-25T17:09:50Z</time>
      </trkpt>
      <trkpt lat="41.068350" lon="-3.781367">
        <ele>2270.0</ele>
        <time>2016-07-25T17:09:51Z</time>
      </trkpt>
      <trkpt lat="41.068233" lon="-3.781317">
        <ele>2267.0</ele>
        <time>2016-07-25T17:09:52Z</time>
      </trkpt>
      <trkpt lat="41.068117" lon="-3.781233">
        <ele>2263.0</ele>
        <time>2016-07-25T17:09:53Z</time>
      </trkpt>
      <trkpt lat="41.068000" lon="-3.781167">
        <ele>2259.0</ele>
        <time>2016-07-25T17:09:54Z</time>
      </trkpt>
      <trkpt lat="41.067883" lon="-3.781083">
        <ele>2255.0</ele>
        <time>2016-07-25T17:09:55Z</time>
      </trkpt>
      <trkpt lat="41.067767" lon="-3.781017">
        <ele>2252.0</ele>
        <time>2016-07-25T17:09:56Z</time>
      </trkpt>
      <trkpt lat="41.067633" lon="-3.780917">
        <ele>2248.0</ele>
        <time>2016-07-25T17:09:57Z</time>
      </trkpt>
      <trkpt lat="41.067517" lon="-3.780833">
        <ele>2245.0</ele>
        <time>2016-07-25T17:09:58Z</time>
      </trkpt>
      <trkpt lat="41.067417" lon="-3.780733">
        <ele>2243.0</ele>
        <time>2016-07-25T17:09:59Z</time>
      </trkpt>
      <trkpt lat="41.067300" lon="-3.780633">
        <ele>2240.0</ele>
        <time>2016-07-25T17:10:00Z</time>
      </trkpt>
      <trkpt lat="41.067183" lon="-3.780550">
        <ele>2238.0</ele>
        <time>2016-07-25T17:10:01Z</time>
      </trkpt>
      <trkpt lat="41.067067" lon="-3.780467">
        <ele>2235.0</ele>
        <time>2016-07-25T17:10:02Z</time>
      </trkpt>
      <trkpt lat="41.066950" lon="-3.780367">
        <ele>2233.0</ele>
        <time>2016-07-25T17:10:03Z</time>
      </trkpt>
      <trkpt lat="41.066833" lon="-3.780300">
        <ele>2231.0</ele>
        <time>2016-07-25T17:10:04Z</time>
      </trkpt>
      <trkpt lat="41.066700" lon="-3.780217">
        <ele>2229.0</ele>
        <time>2016-07-25T17:10:05Z</time>
      </trkpt>
      <trkpt lat="41.066583" lon="-3.780167">
        <ele>2227.0</ele>
        <time>2016-07-25T17:10:06Z</time>
      </trkpt>
      <trkpt lat="41.066467" lon="-3.780100">
        <ele>2226.0</ele>
        <time>2016-07-25T17:10:07Z</time>
      </trkpt>
      <trkpt lat="41.066350" lon="-3.780017">
        <ele>2224.0</ele>
        <time>2016-07-25T17:10:08Z</time>
      </trkpt>
      <trkpt lat="41.066217" lon="-3.779933">
        <ele>2222.0</ele>
        <time>2016-07-25T17:10:09Z</time>
      </trkpt>
      <trkpt lat="41.066100" lon="-3.779850">
        <ele>2220.0</ele>
        <time>2016-07-25T17:10:10Z</time>
      </trkpt>
      <trkpt lat="41.065967" lon="-3.779783">
        <ele>2218.0</ele>
        <time>2016-07-25T17:10:11Z</time>
      </trkpt>
      <trkpt lat="41.065833" lon="-3.779700">
        <ele>2217.0</ele>
        <time>2016-07-25T17:10:12Z</time>
      </trkpt>
      <trkpt lat="41.065700" lon="-3.779633">
        <ele>2217.0</ele>
        <time>2016-07-25T17:10:13Z</time>
      </trkpt>
      <trkpt lat="41.065567" lon="-3.779567">
        <ele>2216.0</ele>
        <time>2016-07-25T17:10:14Z</time>
      </trkpt>
      <trkpt lat="41.065450" lon="-3.779483">
        <ele>2216.0</ele>
        <time>2016-07-25T17:10:15Z</time>
      </trkpt>
      <trkpt lat="41.065333" lon="-3.779400">
        <ele>2215.0</ele>
        <time>2016-07-25T17:10:16Z</time>
      </trkpt>
      <trkpt lat="41.065200" lon="-3.779317">
        <ele>2214.0</ele>
        <time>2016-07-25T17:10:17Z</time>
      </trkpt>
      <trkpt lat="41.065083" lon="-3.779233">
        <ele>2213.0</ele>
        <time>2016-07-25T17:10:18Z</time>
      </trkpt>
      <trkpt lat="41.064950" lon="-3.779167">
        <ele>2212.0</ele>
        <time>2016-07-25T17:10:19Z</time>
      </trkpt>
      <trkpt lat="41.064817" lon="-3.779100">
        <ele>2212.0</ele>
        <time>2016-07-25T17:10:20Z</time>
      </trkpt>
      <trkpt lat="41.064700" lon="-3.779017">
        <ele>2211.0</ele>
        <time>2016-07-25T17:10:21Z</time>
      </trkpt>
      <trkpt lat="41.064567" lon="-3.778950">
        <ele>2210.0</ele>
        <time>2016-07-25T17:10:22Z</time>
      </trkpt>
      <trkpt lat="41.064450" lon="-3.778883">
        <ele>2209.0</ele>
        <time>2016-07-25T17:10:23Z</time>
      </trkpt>
      <trkpt lat="41.064317" lon="-3.778800">
        <ele>2208.0</ele>
        <time>2016-07-25T17:10:24Z</time>
      </trkpt>
      <trkpt lat="41.064183" lon="-3.778750">
        <ele>2207.0</ele>
        <time>2016-07-25T17:10:25Z</time>
      </trkpt>
      <trkpt lat="41.064033" lon="-3.778700">
        <ele>2206.0</ele>
        <time>2016-07-25T17:10:26Z</time>
      </trkpt>
      <trkpt lat="41.063917" lon="-3.778650">
        <ele>2205.0</ele>
        <time>2016-07-25T17:10:27Z</time>
      </trkpt>
      <trkpt lat="41.063783" lon="-3.778583">
        <ele>2205.0</ele>
        <time>2016-07-25T17:10:28Z</time>
      </trkpt>
      <trkpt lat="41.063667" lon="-3.778517">
        <ele>2203.0</ele>
        <time>2016-07-25T17:10:29Z</time>
      </trkpt>
      <trkpt lat="41.063533" lon="-3.778433">
        <ele>2202.0</ele>
        <time>2016-07-25T17:10:30Z</time>
      </trkpt>
      <trkpt lat="41.063400" lon="-3.778367">
        <ele>2200.0</ele>
        <time>2016-07-25T17:10:31Z</time>
      </trkpt>
      <trkpt lat="41.063267" lon="-3.778300">
        <ele>2197.0</ele>
        <time>2016-07-25T17:10:32Z</time>
      </trkpt>
      <trkpt lat="41.063117" lon="-3.778267">
        <ele>2196.0</ele>
        <time>2016-07-25T17:10:33Z</time>
      </trkpt>
      <trkpt lat="41.062983" lon="-3.778233">
        <ele>2195.0</ele>
        <time>2016-07-25T17:10:34Z</time>
      </trkpt>
      <trkpt lat="41.062833" lon="-3.778200">
        <ele>2195.0</ele>
        <time>2016-07-25T17:10:35Z</time>
      </trkpt>
      <trkpt lat="41.062717" lon="-3.778167">
        <ele>2194.0</ele>
        <time>2016-07-25T17:10:36Z</time>
      </trkpt>
      <trkpt lat="41.062583" lon="-3.778133">
        <ele>2194.0</ele>
        <time>2016-07-25T17:10:37Z</time>
      </trkpt>
      <trkpt lat="41.062450" lon="-3.778100">
        <ele>2192.0</ele>
        <time>2016-07-25T17:10:38Z</time>
      </trkpt>
      <trkpt lat="41.062317" lon="-3.778067">
        <ele>2190.0</ele>
        <time>2016-07-25T17:10:39Z</time>
      </trkpt>
      <trkpt lat="41.062183" lon="-3.778050">
        <ele>2188.0</ele>
        <time>2016-07-25T17:10:40Z</time>
      </trkpt>
      <trkpt lat="41.062033" lon="-3.778033">
        <ele>2187.0</ele>
        <time>2016-07-25T17:10:41Z</time>
      </trkpt>
      <trkpt lat="41.061900" lon="-3.778017">
        <ele>2186.0</ele>
        <time>2016-07-25T17:10:42Z</time>
      </trkpt>
      <trkpt lat="41.061767" lon="-3.778000">
        <ele>2186.0</ele>
        <time>2016-07-25T17:10:43Z</time>
      </trkpt>
      <trkpt lat="41.061633" lon="-3.777983">
        <ele>2186.0</ele>
        <time>2016-07-25T17:10:44Z</time>
      </trkpt>
      <trkpt lat="41.061500" lon="-3.777967">
        <ele>2185.0</ele>
        <time>2016-07-25T17:10:45Z</time>
      </trkpt>
      <trkpt lat="41.061367" lon="-3.777950">
        <ele>2183.0</ele>
        <time>2016-07-25T17:10:46Z</time>
      </trkpt>
      <trkpt lat="41.061233" lon="-3.777933">
        <ele>2182.0</ele>
        <time>2016-07-25T17:10:47Z</time>
      </trkpt>
      <trkpt lat="41.061083" lon="-3.777917">
        <ele>2181.0</ele>
        <time>2016-07-25T17:10:48Z</time>
      </trkpt>
      <trkpt lat="41.060950" lon="-3.777917">
        <ele>2180.0</ele>
        <time>2016-07-25T17:10:49Z</time>
      </trkpt>
      <trkpt lat="41.060817" lon="-3.777917">
        <ele>2179.0</ele>
        <time>2016-07-25T17:10:50Z</time>
      </trkpt>
      <trkpt lat="41.060683" lon="-3.777917">
        <ele>2178.0</ele>
        <time>2016-07-25T17:10:51Z</time>
      </trkpt>
      <trkpt lat="41.060550" lon="-3.777933">
        <ele>2178.0</ele>
        <time>2016-07-25T17:10:52Z</time>
      </trkpt>
      <trkpt lat="41.060417" lon="-3.777950">
        <ele>2177.0</ele>
        <time>2016-07-25T17:10:53Z</time>
      </trkpt>
      <trkpt lat="41.060267" lon="-3.777967">
        <ele>2176.0</ele>
        <time>2016-07-25T17:10:54Z</time>
      </trkpt>
      <trkpt lat="41.060133" lon="-3.777983">
        <ele>2174.0</ele>
        <time>2016-07-25T17:10:55Z</time>
      </trkpt>
      <trkpt lat="41.060000" lon="-3.778017">
        <ele>2173.0</ele>
        <time>2016-07-25T17:10:56Z</time>
      </trkpt>
      <trkpt lat="41.059883" lon="-3.778067">
        <ele>2173.0</ele>
        <time>2016-07-25T17:10:57Z</time>
      </trkpt>
      <trkpt lat="41.059750" lon="-3.778117">
        <ele>2173.0</ele>
        <time>2016-07-25T17:10:58Z</time>
      </trkpt>
      <trkpt lat="41.059633" lon="-3.778150">
        <ele>2172.0</ele>
        <time>2016-07-25T17:10:59Z</time>
      </trkpt>
      <trkpt lat="41.059517" lon="-3.778183">
        <ele>2172.0</ele>
        <time>2016-07-25T17:11:00Z</time>
      </trkpt>
      <trkpt lat="41.059400" lon="-3.778217">
        <ele>2171.0</ele>
        <time>2016-07-25T17:11:01Z</time>
      </trkpt>
      <trkpt lat="41.059283" lon="-3.778250">
        <ele>2169.0</ele>
        <time>2016-07-25T17:11:02Z</time>
      </trkpt>
      <trkpt lat="41.059167" lon="-3.778300">
        <ele>2167.0</ele>
        <time>2016-07-25T17:11:03Z</time>
      </trkpt>
      <trkpt lat="41.059050" lon="-3.778333">
        <ele>2166.0</ele>
        <time>2016-07-25T17:11:04Z</time>
      </trkpt>
      <trkpt lat="41.058933" lon="-3.778367">
        <ele>2165.0</ele>
        <time>2016-07-25T17:11:05Z</time>
      </trkpt>
      <trkpt lat="41.058817" lon="-3.778383">
        <ele>2164.0</ele>
        <time>2016-07-25T17:11:06Z</time>
      </trkpt>
      <trkpt lat="41.058700" lon="-3.778367">
        <ele>2164.0</ele>
        <time>2016-07-25T17:11:07Z</time>
      </trkpt>
      <trkpt lat="41.058583" lon="-3.778333">
        <ele>2162.0</ele>
        <time>2016-07-25T17:11:08Z</time>
      </trkpt>
      <trkpt lat="41.058467" lon="-3.778283">
        <ele>2161.0</ele>
        <time>2016-07-25T17:11:09Z</time>
      </trkpt>
      <trkpt lat="41.058333" lon="-3.778217">
        <ele>2159.0</ele>
        <time>2016-07-25T17:11:10Z</time>
      </trkpt>
      <trkpt lat="41.058217" lon="-3.778150">
        <ele>2157.0</ele>
        <time>2016-07-25T17:11:11Z</time>
      </trkpt>
      <trkpt lat="41.058083" lon="-3.778083">
        <ele>2155.0</ele>
        <time>2016-07-25T17:11:12Z</time>
      </trkpt>
      <trkpt lat="41.057967" lon="-3.777983">
        <ele>2154.0</ele>
        <time>2016-07-25T17:11:13Z</time>
      </trkpt>
      <trkpt lat="41.057850" lon="-3.777867">
        <ele>2153.0</ele>
        <time>2016-07-25T17:11:14Z</time>
      </trkpt>
      <trkpt lat="41.057767" lon="-3.777733">
        <ele>2151.0</ele>
        <time>2016-07-25T17:11:15Z</time>
      </trkpt>
      <trkpt lat="41.057667" lon="-3.777600">
        <ele>2150.0</ele>
        <time>2016-07-25T17:11:16Z</time>
      </trkpt>
      <trkpt lat="41.057583" lon="-3.777467">
        <ele>2149.0</ele>
        <time>2016-07-25T17:11:17Z</time>
      </trkpt>
      <trkpt lat="41.057483" lon="-3.777333">
        <ele>2148.0</ele>
        <time>2016-07-25T17:11:18Z</time>
      </trkpt>
      <trkpt lat="41.057383" lon="-3.777217">
        <ele>2147.0</ele>
        <time>2016-07-25T17:11:19Z</time>
      </trkpt>
      <trkpt lat="41.057283" lon="-3.777083">
        <ele>2146.0</ele>
        <time>2016-07-25T17:11:20Z</time>
      </trkpt>
      <trkpt lat="41.057183" lon="-3.776950">
        <ele>2146.0</ele>
        <time>2016-07-25T17:11:21Z</time>
      </trkpt>
      <trkpt lat="41.057100" lon="-3.776817">
        <ele>2144.0</ele>
        <time>2016-07-25T17:11:22Z</time>
      </trkpt>
      <trkpt lat="41.057000" lon="-3.776667">
        <ele>2142.0</ele>
        <time>2016-07-25T17:11:23Z</time>
      </trkpt>
      <trkpt lat="41.056900" lon="-3.776517">
        <ele>2139.0</ele>
        <time>2016-07-25T17:11:24Z</time>
      </trkpt>
      <trkpt lat="41.056767" lon="-3.776367">
        <ele>2137.0</ele>
        <time>2016-07-25T17:11:25Z</time>
      </trkpt>
      <trkpt lat="41.056650" lon="-3.776233">
        <ele>2137.0</ele>
        <time>2016-07-25T17:11:26Z</time>
      </trkpt>
      <trkpt lat="41.056533" lon="-3.776117">
        <ele>2138.0</ele>
        <time>2016-07-25T17:11:27Z</time>
      </trkpt>
      <trkpt lat="41.056450" lon="-3.776017">
        <ele>2139.0</ele>
        <time>2016-07-25T17:11:28Z</time>
      </trkpt>
      <trkpt lat="41.056350" lon="-3.775900">
        <ele>2139.0</ele>
        <time>2016-07-25T17:11:29Z</time>
      </trkpt>
      <trkpt lat="41.056267" lon="-3.775800">
        <ele>2137.0</ele>
        <time>2016-07-25T17:11:30Z</time>
      </trkpt>
      <trkpt lat="41.056150" lon="-3.775667">
        <ele>2135.0</ele>
        <time>2016-07-25T17:11:31Z</time>
      </trkpt>
      <trkpt lat="41.056050" lon="-3.775550">
        <ele>2134.0</ele>
        <time>2016-07-25T17:11:32Z</time>
      </trkpt>
      <trkpt lat="41.055950" lon="-3.775433">
        <ele>2133.0</ele>
        <time>2016-07-25T17:11:33Z</time>
      </trkpt>
      <trkpt lat="41.055850" lon="-3.775333">
        <ele>2134.0</ele>
        <time>2016-07-25T17:11:34Z</time>
      </trkpt>
      <trkpt lat="41.055750" lon="-3.775217">
        <ele>2133.0</ele>
        <time>2016-07-25T17:11:35Z</time>
      </trkpt>
      <trkpt lat="41.055650" lon="-3.775117">
        <ele>2132.0</ele>
        <time>2016-07-25T17:11:36Z</time>
      </trkpt>
      <trkpt lat="41.055550" lon="-3.775000">
        <ele>2131.0</ele>
        <time>2016-07-25T17:11:37Z</time>
      </trkpt>
      <trkpt lat="41.055433" lon="-3.774900">
        <ele>2129.0</ele>
        <time>2016-07-25T17:11:38Z</time>
      </trkpt>
      <trkpt lat="41.055317" lon="-3.774783">
        <ele>2129.0</ele>
        <time>2016-07-25T17:11:39Z</time>
      </trkpt>
      <trkpt lat="41.055200" lon="-3.774667">
        <ele>2129.0</ele>
        <time>2016-07-25T17:11:40Z</time>
      </trkpt>
      <trkpt lat="41.055100" lon="-3.774533">
        <ele>2129.0</ele>
        <time>2016-07-25T17:11:41Z</time>
      </trkpt>
      <trkpt lat="41.055000" lon="-3.774417">
        <ele>2129.0</ele>
        <time>2016-07-25T17:11:42Z</time>
      </trkpt>
      <trkpt lat="41.054900" lon="-3.774317">
        <ele>2129.0</ele>
        <time>2016-07-25T17:11:43Z</time>
      </trkpt>
      <trkpt lat="41.054800" lon="-3.774217">
        <ele>2127.0</ele>
        <time>2016-07-25T17:11:44Z</time>
      </trkpt>
      <trkpt lat="41.054700" lon="-3.774117">
        <ele>2126.0</ele>
        <time>2016-07-25T17:11:45Z</time>
      </trkpt>
      <trkpt lat="41.054600" lon="-3.774000">
        <ele>2125.0</ele>
        <time>2016-07-25T17:11:46Z</time>
      </trkpt>
      <trkpt lat="41.054500" lon="-3.773900">
        <ele>2124.0</ele>
        <time>2016-07-25T17:11:47Z</time>
      </trkpt>
      <trkpt lat="41.054400" lon="-3.773783">
        <ele>2122.0</ele>
        <time>2016-07-25T17:11:48Z</time>
      </trkpt>
      <trkpt lat="41.054300" lon="-3.773667">
        <ele>2121.0</ele>
        <time>2016-07-25T17:11:49Z</time>
      </trkpt>
      <trkpt lat="41.054200" lon="-3.773550">
        <ele>2120.0</ele>
        <time>2016-07-25T17:11:50Z</time>
      </trkpt>
      <trkpt lat="41.054083" lon="-3.773433">
        <ele>2119.0</ele>
        <time>2016-07-25T17:11:51Z</time>
      </trkpt>
      <trkpt lat="41.053967" lon="-3.773317">
        <ele>2118.0</ele>
        <time>2016-07-25T17:11:52Z</time>
      </trkpt>
      <trkpt lat="41.053850" lon="-3.773200">
        <ele>2117.0</ele>
        <time>2016-07-25T17:11:53Z</time>
      </trkpt>
      <trkpt lat="41.053750" lon="-3.773100">
        <ele>2117.0</ele>
        <time>2016-07-25T17:11:54Z</time>
      </trkpt>
      <trkpt lat="41.053633" lon="-3.772983">
        <ele>2117.0</ele>
        <time>2016-07-25T17:11:55Z</time>
      </trkpt>
      <trkpt lat="41.053517" lon="-3.772867">
        <ele>2116.0</ele>
        <time>2016-07-25T17:11:56Z</time>
      </trkpt>
      <trkpt lat="41.053400" lon="-3.772767">
        <ele>2114.0</ele>
        <time>2016-07-25T17:11:57Z</time>
      </trkpt>
      <trkpt lat="41.053283" lon="-3.772650">
        <ele>2113.0</ele>
        <time>2016-07-25T17:11:58Z</time>
      </trkpt>
      <trkpt lat="41.053167" lon="-3.772533">
        <ele>2112.0</ele>
        <time>2016-07-25T17:11:59Z</time>
      </trkpt>
      <trkpt lat="41.053050" lon="-3.772433">
        <ele>2112.0</ele>
        <time>2016-07-25T17:12:00Z</time>
      </trkpt>
      <trkpt lat="41.052917" lon="-3.772350">
        <ele>2111.0</ele>
        <time>2016-07-25T17:12:01Z</time>
      </trkpt>
      <trkpt lat="41.052800" lon="-3.772250">
        <ele>2111.0</ele>
        <time>2016-07-25T17:12:02Z</time>
      </trkpt>
      <trkpt lat="41.052683" lon="-3.772150">
        <ele>2110.0</ele>
        <time>2016-07-25T17:12:03Z</time>
      </trkpt>
      <trkpt lat="41.052567" lon="-3.772050">
        <ele>2110.0</ele>
        <time>2016-07-25T17:12:04Z</time>
      </trkpt>
      <trkpt lat="41.052467" lon="-3.771950">
        <ele>2108.0</ele>
        <time>2016-07-25T17:12:05Z</time>
      </trkpt>
      <trkpt lat="41.052350" lon="-3.771850">
        <ele>2106.0</ele>
        <time>2016-07-25T17:12:06Z</time>
      </trkpt>
      <trkpt lat="41.052233" lon="-3.771767">
        <ele>2103.0</ele>
        <time>2016-07-25T17:12:07Z</time>
      </trkpt>
      <trkpt lat="41.052117" lon="-3.771683">
        <ele>2100.0</ele>
        <time>2016-07-25T17:12:08Z</time>
      </trkpt>
      <trkpt lat="41.052000" lon="-3.771567">
        <ele>2098.0</ele>
        <time>2016-07-25T17:12:09Z</time>
      </trkpt>
      <trkpt lat="41.051883" lon="-3.771450">
        <ele>2095.0</ele>
        <time>2016-07-25T17:12:10Z</time>
      </trkpt>
      <trkpt lat="41.051783" lon="-3.771350">
        <ele>2093.0</ele>
        <time>2016-07-25T17:12:11Z</time>
      </trkpt>
      <trkpt lat="41.051683" lon="-3.771233">
        <ele>2092.0</ele>
        <time>2016-07-25T17:12:12Z</time>
      </trkpt>
      <trkpt lat="41.051583" lon="-3.771150">
        <ele>2090.0</ele>
        <time>2016-07-25T17:12:13Z</time>
      </trkpt>
      <trkpt lat="41.051483" lon="-3.771050">
        <ele>2087.0</ele>
        <time>2016-07-25T17:12:14Z</time>
      </trkpt>
      <trkpt lat="41.051383" lon="-3.770967">
        <ele>2084.0</ele>
        <time>2016-07-25T17:12:15Z</time>
      </trkpt>
      <trkpt lat="41.051283" lon="-3.770867">
        <ele>2081.0</ele>
        <time>2016-07-25T17:12:16Z</time>
      </trkpt>
      <trkpt lat="41.051183" lon="-3.770750">
        <ele>2077.0</ele>
        <time>2016-07-25T17:12:17Z</time>
      </trkpt>
      <trkpt lat="41.051083" lon="-3.770633">
        <ele>2074.0</ele>
        <time>2016-07-25T17:12:18Z</time>
      </trkpt>
      <trkpt lat="41.050967" lon="-3.770517">
        <ele>2074.0</ele>
        <time>2016-07-25T17:12:19Z</time>
      </trkpt>
      <trkpt lat="41.050883" lon="-3.770417">
        <ele>2074.0</ele>
        <time>2016-07-25T17:12:20Z</time>
      </trkpt>
      <trkpt lat="41.050800" lon="-3.770317">
        <ele>2072.0</ele>
        <time>2016-07-25T17:12:21Z</time>
      </trkpt>
      <trkpt lat="41.050717" lon="-3.770217">
        <ele>2070.0</ele>
        <time>2016-07-25T17:12:22Z</time>
      </trkpt>
      <trkpt lat="41.050633" lon="-3.770100">
        <ele>2067.0</ele>
        <time>2016-07-25T17:12:23Z</time>
      </trkpt>
      <trkpt lat="41.050533" lon="-3.770000">
        <ele>2063.0</ele>
        <time>2016-07-25T17:12:24Z</time>
      </trkpt>
      <trkpt lat="41.050417" lon="-3.769883">
        <ele>2060.0</ele>
        <time>2016-07-25T17:12:25Z</time>
      </trkpt>
      <trkpt lat="41.050317" lon="-3.769767">
        <ele>2058.0</ele>
        <time>2016-07-25T17:12:26Z</time>
      </trkpt>
      <trkpt lat="41.050217" lon="-3.769650">
        <ele>2056.0</ele>
        <time>2016-07-25T17:12:27Z</time>
      </trkpt>
      <trkpt lat="41.050133" lon="-3.769533">
        <ele>2055.0</ele>
        <time>2016-07-25T17:12:28Z</time>
      </trkpt>
      <trkpt lat="41.050050" lon="-3.769433">
        <ele>2052.0</ele>
        <time>2016-07-25T17:12:29Z</time>
      </trkpt>
      <trkpt lat="41.049967" lon="-3.769333">
        <ele>2048.0</ele>
        <time>2016-07-25T17:12:30Z</time>
      </trkpt>
      <trkpt lat="41.049850" lon="-3.769233">
        <ele>2044.0</ele>
        <time>2016-07-25T17:12:31Z</time>
      </trkpt>
      <trkpt lat="41.049750" lon="-3.769117">
        <ele>2041.0</ele>
        <time>2016-07-25T17:12:32Z</time>
      </trkpt>
      <trkpt lat="41.049650" lon="-3.769000">
        <ele>2039.0</ele>
        <time>2016-07-25T17:12:33Z</time>
      </trkpt>
      <trkpt lat="41.049550" lon="-3.768900">
        <ele>2037.0</ele>
        <time>2016-07-25T17:12:34Z</time>
      </trkpt>
      <trkpt lat="41.049450" lon="-3.768783">
        <ele>2035.0</ele>
        <time>2016-07-25T17:12:35Z</time>
      </trkpt>
      <trkpt lat="41.049350" lon="-3.768683">
        <ele>2033.0</ele>
        <time>2016-07-25T17:12:36Z</time>
      </trkpt>
      <trkpt lat="41.049233" lon="-3.768583">
        <ele>2030.0</ele>
        <time>2016-07-25T17:12:37Z</time>
      </trkpt>
      <trkpt lat="41.049133" lon="-3.768467">
        <ele>2027.0</ele>
        <time>2016-07-25T17:12:38Z</time>
      </trkpt>
      <trkpt lat="41.049017" lon="-3.768350">
        <ele>2024.0</ele>
        <time>2016-07-25T17:12:39Z</time>
      </trkpt>
      <trkpt lat="41.048917" lon="-3.768217">
        <ele>2022.0</ele>
        <time>2016-07-25T17:12:40Z</time>
      </trkpt>
      <trkpt lat="41.048817" lon="-3.768083">
        <ele>2020.0</ele>
        <time>2016-07-25T17:12:41Z</time>
      </trkpt>
      <trkpt lat="41.048733" lon="-3.767933">
        <ele>2017.0</ele>
        <time>2016-07-25T17:12:42Z</time>
      </trkpt>
      <trkpt lat="41.048633" lon="-3.767800">
        <ele>2014.0</ele>
        <time>2016-07-25T17:12:43Z</time>
      </trkpt>
      <trkpt lat="41.048533" lon="-3.767667">
        <ele>2011.0</ele>
        <time>2016-07-25T17:12:44Z</time>
      </trkpt>
      <trkpt lat="41.048417" lon="-3.767533">
        <ele>2007.0</ele>
        <time>2016-07-25T17:12:45Z</time>
      </trkpt>
      <trkpt lat="41.048317" lon="-3.767417">
        <ele>2004.0</ele>
        <time>2016-07-25T17:12:46Z</time>
      </trkpt>
      <trkpt lat="41.048183" lon="-3.767317">
        <ele>2001.0</ele>
        <time>2016-07-25T17:12:47Z</time>
      </trkpt>
      <trkpt lat="41.048067" lon="-3.767217">
        <ele>2000.0</ele>
        <time>2016-07-25T17:12:48Z</time>
      </trkpt>
      <trkpt lat="41.047950" lon="-3.767133">
        <ele>1999.0</ele>
        <time>2016-07-25T17:12:49Z</time>
      </trkpt>
      <trkpt lat="41.047850" lon="-3.767050">
        <ele>1998.0</ele>
        <time>2016-07-25T17:12:50Z</time>
      </trkpt>
      <trkpt lat="41.047750" lon="-3.766967">
        <ele>1997.0</ele>
        <time>2016-07-25T17:12:51Z</time>
      </trkpt>
      <trkpt lat="41.047633" lon="-3.766883">
        <ele>1995.0</ele>
        <time>2016-07-25T17:12:52Z</time>
      </trkpt>
      <trkpt lat="41.047517" lon="-3.766800">
        <ele>1991.0</ele>
        <time>2016-07-25T17:12:53Z</time>
      </trkpt>
      <trkpt lat="41.047383" lon="-3.766717">
        <ele>1988.0</ele>
        <time>2016-07-25T17:12:54Z</time>
      </trkpt>
      <trkpt lat="41.047250" lon="-3.766633">
        <ele>1986.0</ele>
        <time>2016-07-25T17:12:55Z</time>
      </trkpt>
      <trkpt lat="41.047133" lon="-3.766533">
        <ele>1985.0</ele>
        <time>2016-07-25T17:12:56Z</time>
      </trkpt>
      <trkpt lat="41.047017" lon="-3.766450">
        <ele>1984.0</ele>
        <time>2016-07-25T17:12:57Z</time>
      </trkpt>
      <trkpt lat="41.046900" lon="-3.766367">
        <ele>1982.0</ele>
        <time>2016-07-25T17:12:58Z</time>
      </trkpt>
      <trkpt lat="41.046767" lon="-3.766283">
        <ele>1980.0</ele>
        <time>2016-07-25T17:12:59Z</time>
      </trkpt>
      <trkpt lat="41.046650" lon="-3.766217">
        <ele>1977.0</ele>
        <time>2016-07-25T17:13:00Z</time>
      </trkpt>
      <trkpt lat="41.046517" lon="-3.766150">
        <ele>1975.0</ele>
        <time>2016-07-25T17:13:01Z</time>
      </trkpt>
      <trkpt lat="41.046383" lon="-3.766117">
        <ele>1972.0</ele>
        <time>2016-07-25T17:13:02Z</time>
      </trkpt>
      <trkpt lat="41.046250" lon="-3.766067">
        <ele>1970.0</ele>
        <time>2016-07-25T17:13:03Z</time>
      </trkpt>
      <trkpt lat="41.046100" lon="-3.766033">
        <ele>1967.0</ele>
        <time>2016-07-25T17:13:04Z</time>
      </trkpt>
      <trkpt lat="41.045967" lon="-3.766017">
        <ele>1964.0</ele>
        <time>2016-07-25T17:13:05Z</time>
      </trkpt>
      <trkpt lat="41.045817" lon="-3.765983">
        <ele>1960.0</ele>
        <time>2016-07-25T17:13:06Z</time>
      </trkpt>
      <trkpt lat="41.045667" lon="-3.765950">
        <ele>1957.0</ele>
        <time>2016-07-25T17:13:07Z</time>
      </trkpt>
      <trkpt lat="41.045500" lon="-3.765917">
        <ele>1955.0</ele>
        <time>2016-07-25T17:13:08Z</time>
      </trkpt>
      <trkpt lat="41.045367" lon="-3.765850">
        <ele>1954.0</ele>
        <time>2016-07-25T17:13:09Z</time>
      </trkpt>
      <trkpt lat="41.045233" lon="-3.765800">
        <ele>1952.0</ele>
        <time>2016-07-25T17:13:10Z</time>
      </trkpt>
      <trkpt lat="41.045100" lon="-3.765750">
        <ele>1950.0</ele>
        <time>2016-07-25T17:13:11Z</time>
      </trkpt>
      <trkpt lat="41.044967" lon="-3.765700">
        <ele>1947.0</ele>
        <time>2016-07-25T17:13:12Z</time>
      </trkpt>
      <trkpt lat="41.044833" lon="-3.765633">
        <ele>1944.0</ele>
        <time>2016-07-25T17:13:13Z</time>
      </trkpt>
      <trkpt lat="41.044700" lon="-3.765550">
        <ele>1941.0</ele>
        <time>2016-07-25T17:13:14Z</time>
      </trkpt>
      <trkpt lat="41.044567" lon="-3.765450">
        <ele>1938.0</ele>
        <time>2016-07-25T17:13:15Z</time>
      </trkpt>
      <trkpt lat="41.044450" lon="-3.765333">
        <ele>1935.0</ele>
        <time>2016-07-25T17:13:16Z</time>
      </trkpt>
      <trkpt lat="41.044317" lon="-3.765233">
        <ele>1932.0</ele>
        <time>2016-07-25T17:13:17Z</time>
      </trkpt>
      <trkpt lat="41.044183" lon="-3.765133">
        <ele>1930.0</ele>
        <time>2016-07-25T17:13:18Z</time>
      </trkpt>
      <trkpt lat="41.044067" lon="-3.765033">
        <ele>1928.0</ele>
        <time>2016-07-25T17:13:19Z</time>
      </trkpt>
      <trkpt lat="41.043933" lon="-3.764933">
        <ele>1926.0</ele>
        <time>2016-07-25T17:13:20Z</time>
      </trkpt>
      <trkpt lat="41.043800" lon="-3.764817">
        <ele>1923.0</ele>
        <time>2016-07-25T17:13:21Z</time>
      </trkpt>
      <trkpt lat="41.043667" lon="-3.764700">
        <ele>1921.0</ele>
        <time>2016-07-25T17:13:22Z</time>
      </trkpt>
      <trkpt lat="41.043533" lon="-3.764583">
        <ele>1920.0</ele>
        <time>2016-07-25T17:13:23Z</time>
      </trkpt>
      <trkpt lat="41.043400" lon="-3.764450">
        <ele>1920.0</ele>
        <time>2016-07-25T17:13:24Z</time>
      </trkpt>
      <trkpt lat="41.043267" lon="-3.764333">
        <ele>1919.0</ele>
        <time>2016-07-25T17:13:25Z</time>
      </trkpt>
      <trkpt lat="41.043150" lon="-3.764217">
        <ele>1919.0</ele>
        <time>2016-07-25T17:13:26Z</time>
      </trkpt>
      <trkpt lat="41.043017" lon="-3.764100">
        <ele>1918.0</ele>
        <time>2016-07-25T17:13:27Z</time>
      </trkpt>
      <trkpt lat="41.042900" lon="-3.763983">
        <ele>1916.0</ele>
        <time>2016-07-25T17:13:28Z</time>
      </trkpt>
      <trkpt lat="41.042767" lon="-3.763867">
        <ele>1915.0</ele>
        <time>2016-07-25T17:13:29Z</time>
      </trkpt>
      <trkpt lat="41.042617" lon="-3.763750">
        <ele>1914.0</ele>
        <time>2016-07-25T17:13:30Z</time>
      </trkpt>
      <trkpt lat="41.042467" lon="-3.763633">
        <ele>1914.0</ele>
        <time>2016-07-25T17:13:31Z</time>
      </trkpt>
      <trkpt lat="41.042333" lon="-3.763517">
        <ele>1914.0</ele>
        <time>2016-07-25T17:13:32Z</time>
      </trkpt>
      <trkpt lat="41.042200" lon="-3.763400">
        <ele>1914.0</ele>
        <time>2016-07-25T17:13:33Z</time>
      </trkpt>
      <trkpt lat="41.042067" lon="-3.763267">
        <ele>1914.0</ele>
        <time>2016-07-25T17:13:34Z</time>
      </trkpt>
      <trkpt lat="41.041933" lon="-3.763150">
        <ele>1915.0</ele>
        <time>2016-07-25T17:13:35Z</time>
      </trkpt>
      <trkpt lat="41.041800" lon="-3.763033">
        <ele>1917.0</ele>
        <time>2016-07-25T17:13:36Z</time>
      </trkpt>
      <trkpt lat="41.041667" lon="-3.762917">
        <ele>1919.0</ele>
        <time>2016-07-25T17:13:37Z</time>
      </trkpt>
      <trkpt lat="41.041567" lon="-3.762817">
        <ele>1921.0</ele>
        <time>2016-07-25T17:13:38Z</time>
      </trkpt>
      <trkpt lat="41.041450" lon="-3.762717">
        <ele>1923.0</ele>
        <time>2016-07-25T17:13:39Z</time>
      </trkpt>
      <trkpt lat="41.041333" lon="-3.762617">
        <ele>1924.0</ele>
        <time>2016-07-25T17:13:40Z</time>
      </trkpt>
      <trkpt lat="41.041233" lon="-3.762533">
        <ele>1925.0</ele>
        <time>2016-07-25T17:13:41Z</time>
      </trkpt>
      <trkpt lat="41.041117" lon="-3.762467">
        <ele>1927.0</ele>
        <time>2016-07-25T17:13:42Z</time>
      </trkpt>
      <trkpt lat="41.041000" lon="-3.762417">
        <ele>1928.0</ele>
        <time>2016-07-25T17:13:43Z</time>
      </trkpt>
      <trkpt lat="41.040900" lon="-3.762350">
        <ele>1929.0</ele>
        <time>2016-07-25T17:13:44Z</time>
      </trkpt>
      <trkpt lat="41.040783" lon="-3.762300">
        <ele>1930.0</ele>
        <time>2016-07-25T17:13:45Z</time>
      </trkpt>
      <trkpt lat="41.040667" lon="-3.762217">
        <ele>1930.0</ele>
        <time>2016-07-25T17:13:46Z</time>
      </trkpt>
      <trkpt lat="41.040533" lon="-3.762133">
        <ele>1930.0</ele>
        <time>2016-07-25T17:13:47Z</time>
      </trkpt>
      <trkpt lat="41.040417" lon="-3.762050">
        <ele>1932.0</ele>
        <time>2016-07-25T17:13:48Z</time>
      </trkpt>
      <trkpt lat="41.040300" lon="-3.761967">
        <ele>1933.0</ele>
        <time>2016-07-25T17:13:49Z</time>
      </trkpt>
      <trkpt lat="41.040183" lon="-3.761883">
        <ele>1933.0</ele>
        <time>2016-07-25T17:13:50Z</time>
      </trkpt>
      <trkpt lat="41.040067" lon="-3.761800">
        <ele>1932.0</ele>
        <time>2016-07-25T17:13:51Z</time>
      </trkpt>
      <trkpt lat="41.039933" lon="-3.761700">
        <ele>1931.0</ele>
        <time>2016-07-25T17:13:52Z</time>
      </trkpt>
      <trkpt lat="41.039800" lon="-3.761583">
        <ele>1931.0</ele>
        <time>2016-07-25T17:13:53Z</time>
      </trkpt>
      <trkpt lat="41.039683" lon="-3.761467">
        <ele>1932.0</ele>
        <time>2016-07-25T17:13:54Z</time>
      </trkpt>
      <trkpt lat="41.039567" lon="-3.761367">
        <ele>1934.0</ele>
        <time>2016-07-25T17:13:55Z</time>
      </trkpt>
      <trkpt lat="41.039450" lon="-3.761267">
        <ele>1934.0</ele>
        <time>2016-07-25T17:13:56Z</time>
      </trkpt>
      <trkpt lat="41.039317" lon="-3.761167">
        <ele>1935.0</ele>
        <time>2016-07-25T17:13:57Z</time>
      </trkpt>
      <trkpt lat="41.039183" lon="-3.761067">
        <ele>1936.0</ele>
        <time>2016-07-25T17:13:58Z</time>
      </trkpt>
      <trkpt lat="41.039050" lon="-3.761000">
        <ele>1937.0</ele>
        <time>2016-07-25T17:13:59Z</time>
      </trkpt>
      <trkpt lat="41.038917" lon="-3.760950">
        <ele>1937.0</ele>
        <time>2016-07-25T17:14:00Z</time>
      </trkpt>
      <trkpt lat="41.038783" lon="-3.760883">
        <ele>1937.0</ele>
        <time>2016-07-25T17:14:01Z</time>
      </trkpt>
      <trkpt lat="41.038650" lon="-3.760800">
        <ele>1937.0</ele>
        <time>2016-07-25T17:14:02Z</time>
      </trkpt>
      <trkpt lat="41.038517" lon="-3.760700">
        <ele>1936.0</ele>
        <time>2016-07-25T17:14:03Z</time>
      </trkpt>
      <trkpt lat="41.038383" lon="-3.760600">
        <ele>1936.0</ele>
        <time>2016-07-25T17:14:04Z</time>
      </trkpt>
      <trkpt lat="41.038233" lon="-3.760500">
        <ele>1937.0</ele>
        <time>2016-07-25T17:14:05Z</time>
      </trkpt>
      <trkpt lat="41.038117" lon="-3.760400">
        <ele>1939.0</ele>
        <time>2016-07-25T17:14:06Z</time>
      </trkpt>
      <trkpt lat="41.038000" lon="-3.760283">
        <ele>1940.0</ele>
        <time>2016-07-25T17:14:07Z</time>
      </trkpt>
      <trkpt lat="41.037883" lon="-3.760183">
        <ele>1940.0</ele>
        <time>2016-07-25T17:14:08Z</time>
      </trkpt>
      <trkpt lat="41.037750" lon="-3.760100">
        <ele>1940.0</ele>
        <time>2016-07-25T17:14:09Z</time>
      </trkpt>
      <trkpt lat="41.037617" lon="-3.760000">
        <ele>1940.0</ele>
        <time>2016-07-25T17:14:10Z</time>
      </trkpt>
      <trkpt lat="41.037483" lon="-3.759917">
        <ele>1940.0</ele>
        <time>2016-07-25T17:14:11Z</time>
      </trkpt>
      <trkpt lat="41.037333" lon="-3.759800">
        <ele>1939.0</ele>
        <time>2016-07-25T17:14:12Z</time>
      </trkpt>
      <trkpt lat="41.037200" lon="-3.759683">
        <ele>1939.0</ele>
        <time>2016-07-25T17:14:13Z</time>
      </trkpt>
      <trkpt lat="41.037083" lon="-3.759567">
        <ele>1940.0</ele>
        <time>2016-07-25T17:14:14Z</time>
      </trkpt>
      <trkpt lat="41.036967" lon="-3.759450">
        <ele>1939.0</ele>
        <time>2016-07-25T17:14:15Z</time>
      </trkpt>
      <trkpt lat="41.036850" lon="-3.759317">
        <ele>1938.0</ele>
        <time>2016-07-25T17:14:16Z</time>
      </trkpt>
      <trkpt lat="41.036717" lon="-3.759183">
        <ele>1937.0</ele>
        <time>2016-07-25T17:14:17Z</time>
      </trkpt>
      <trkpt lat="41.036583" lon="-3.759050">
        <ele>1937.0</ele>
        <time>2016-07-25T17:14:18Z</time>
      </trkpt>
      <trkpt lat="41.036450" lon="-3.758933">
        <ele>1937.0</ele>
        <time>2016-07-25T17:14:19Z</time>
      </trkpt>
      <trkpt lat="41.036317" lon="-3.758800">
        <ele>1938.0</ele>
        <time>2016-07-25T17:14:20Z</time>
      </trkpt>
      <trkpt lat="41.036183" lon="-3.758683">
        <ele>1939.0</ele>
        <time>2016-07-25T17:14:21Z</time>
      </trkpt>
      <trkpt lat="41.036067" lon="-3.758550">
        <ele>1938.0</ele>
        <time>2016-07-25T17:14:22Z</time>
      </trkpt>
      <trkpt lat="41.035933" lon="-3.758417">
        <ele>1938.0</ele>
        <time>2016-07-25T17:14:23Z</time>
      </trkpt>
      <trkpt lat="41.035800" lon="-3.758283">
        <ele>1938.0</ele>
        <time>2016-07-25T17:14:24Z</time>
      </trkpt>
      <trkpt lat="41.035667" lon="-3.758150">
        <ele>1939.0</ele>
        <time>2016-07-25T17:14:25Z</time>
      </trkpt>
      <trkpt lat="41.035533" lon="-3.758033">
        <ele>1940.0</ele>
        <time>2016-07-25T17:14:26Z</time>
      </trkpt>
      <trkpt lat="41.035417" lon="-3.757933">
        <ele>1941.0</ele>
        <time>2016-07-25T17:14:27Z</time>
      </trkpt>
      <trkpt lat="41.035283" lon="-3.757817">
        <ele>1942.0</ele>
        <time>2016-07-25T17:14:28Z</time>
      </trkpt>
      <trkpt lat="41.035167" lon="-3.757700">
        <ele>1944.0</ele>
        <time>2016-07-25T17:14:29Z</time>
      </trkpt>
      <trkpt lat="41.035033" lon="-3.757600">
        <ele>1946.0</ele>
        <time>2016-07-25T17:14:30Z</time>
      </trkpt>
      <trkpt lat="41.034917" lon="-3.757483">
        <ele>1948.0</ele>
        <time>2016-07-25T17:14:31Z</time>
      </trkpt>
      <trkpt lat="41.034800" lon="-3.757383">
        <ele>1951.0</ele>
        <time>2016-07-25T17:14:32Z</time>
      </trkpt>
      <trkpt lat="41.034683" lon="-3.757300">
        <ele>1953.0</ele>
        <time>2016-07-25T17:14:33Z</time>
      </trkpt>
      <trkpt lat="41.034567" lon="-3.757233">
        <ele>1954.0</ele>
        <time>2016-07-25T17:14:34Z</time>
      </trkpt>
      <trkpt lat="41.034417" lon="-3.757217">
        <ele>1955.0</ele>
        <time>2016-07-25T17:14:35Z</time>
      </trkpt>
      <trkpt lat="41.034283" lon="-3.757217">
        <ele>1956.0</ele>
        <time>2016-07-25T17:14:36Z</time>
      </trkpt>
      <trkpt lat="41.034167" lon="-3.757267">
        <ele>1958.0</ele>
        <time>2016-07-25T17:14:37Z</time>
      </trkpt>
      <trkpt lat="41.034067" lon="-3.757333">
        <ele>1961.0</ele>
        <time>2016-07-25T17:14:38Z</time>
      </trkpt>
      <trkpt lat="41.033983" lon="-3.757400">
        <ele>1964.0</ele>
        <time>2016-07-25T17:14:39Z</time>
      </trkpt>
      <trkpt lat="41.033933" lon="-3.757467">
        <ele>1967.0</ele>
        <time>2016-07-25T17:14:40Z</time>
      </trkpt>
      <trkpt lat="41.033900" lon="-3.757517">
        <ele>1968.0</ele>
        <time>2016-07-25T17:14:41Z</time>
      </trkpt>
      <trkpt lat="41.033900" lon="-3.757583">
        <ele>1970.0</ele>
        <time>2016-07-25T17:14:42Z</time>
      </trkpt>
      <trkpt lat="41.033900" lon="-3.757633">
        <ele>1972.0</ele>
        <time>2016-07-25T17:14:43Z</time>
      </trkpt>
      <trkpt lat="41.033917" lon="-3.757683">
        <ele>1974.0</ele>
        <time>2016-07-25T17:14:44Z</time>
      </trkpt>
      <trkpt lat="41.033933" lon="-3.757717">
        <ele>1977.0</ele>
        <time>2016-07-25T17:14:45Z</time>
      </trkpt>
      <trkpt lat="41.033933" lon="-3.757717">
        <ele>1979.0</ele>
        <time>2016-07-25T17:14:46Z</time>
      </trkpt>
      <trkpt lat="41.033950" lon="-3.757683">
        <ele>1982.0</ele>
        <time>2016-07-25T17:14:47Z</time>
      </trkpt>
      <trkpt lat="41.033967" lon="-3.757633">
        <ele>1983.0</ele>
        <time>2016-07-25T17:14:48Z</time>
      </trkpt>
      <trkpt lat="41.033983" lon="-3.757583">
        <ele>1984.0</ele>
        <time>2016-07-25T17:14:49Z</time>
      </trkpt>
      <trkpt lat="41.034000" lon="-3.757533">
        <ele>1986.0</ele>
        <time>2016-07-25T17:14:50Z</time>
      </trkpt>
      <trkpt lat="41.034017" lon="-3.757483">
        <ele>1987.0</ele>
        <time>2016-07-25T17:14:51Z</time>
      </trkpt>
      <trkpt lat="41.034033" lon="-3.757400">
        <ele>1988.0</ele>
        <time>2016-07-25T17:14:52Z</time>
      </trkpt>
      <trkpt lat="41.034033" lon="-3.757283">
        <ele>1988.0</ele>
        <time>2016-07-25T17:14:53Z</time>
      </trkpt>
      <trkpt lat="41.034017" lon="-3.757150">
        <ele>1989.0</ele>
        <time>2016-07-25T17:14:54Z</time>
      </trkpt>
      <trkpt lat="41.033950" lon="-3.756983">
        <ele>1989.0</ele>
        <time>2016-07-25T17:14:55Z</time>
      </trkpt>
      <trkpt lat="41.033867" lon="-3.756833">
        <ele>1989.0</ele>
        <time>2016-07-25T17:14:56Z</time>
      </trkpt>
      <trkpt lat="41.033733" lon="-3.756717">
        <ele>1990.0</ele>
        <time>2016-07-25T17:14:57Z</time>
      </trkpt>
      <trkpt lat="41.033600" lon="-3.756617">
        <ele>1992.0</ele>
        <time>2016-07-25T17:14:58Z</time>
      </trkpt>
      <trkpt lat="41.033467" lon="-3.756550">
        <ele>1994.0</ele>
        <time>2016-07-25T17:14:59Z</time>
      </trkpt>
      <trkpt lat="41.033350" lon="-3.756517">
        <ele>1998.0</ele>
        <time>2016-07-25T17:15:00Z</time>
      </trkpt>
      <trkpt lat="41.033233" lon="-3.756483">
        <ele>2000.0</ele>
        <time>2016-07-25T17:15:01Z</time>
      </trkpt>
      <trkpt lat="41.033100" lon="-3.756483">
        <ele>2002.0</ele>
        <time>2016-07-25T17:15:02Z</time>
      </trkpt>
      <trkpt lat="41.032983" lon="-3.756483">
        <ele>2004.0</ele>
        <time>2016-07-25T17:15:03Z</time>
      </trkpt>
      <trkpt lat="41.032867" lon="-3.756517">
        <ele>2006.0</ele>
        <time>2016-07-25T17:15:04Z</time>
      </trkpt>
      <trkpt lat="41.032767" lon="-3.756550">
        <ele>2008.0</ele>
        <time>2016-07-25T17:15:05Z</time>
      </trkpt>
      <trkpt lat="41.032667" lon="-3.756583">
        <ele>2010.0</ele>
        <time>2016-07-25T17:15:06Z</time>
      </trkpt>
      <trkpt lat="41.032567" lon="-3.756650">
        <ele>2012.0</ele>
        <time>2016-07-25T17:15:07Z</time>
      </trkpt>
      <trkpt lat="41.032483" lon="-3.756700">
        <ele>2015.0</ele>
        <time>2016-07-25T17:15:08Z</time>
      </trkpt>
      <trkpt lat="41.032400" lon="-3.756767">
        <ele>2018.0</ele>
        <time>2016-07-25T17:15:09Z</time>
      </trkpt>
      <trkpt lat="41.032350" lon="-3.756833">
        <ele>2020.0</ele>
        <time>2016-07-25T17:15:10Z</time>
      </trkpt>
      <trkpt lat="41.032300" lon="-3.756883">
        <ele>2023.0</ele>
        <time>2016-07-25T17:15:11Z</time>
      </trkpt>
      <trkpt lat="41.032267" lon="-3.756950">
        <ele>2025.0</ele>
        <time>2016-07-25T17:15:12Z</time>
      </trkpt>
      <trkpt lat="41.032217" lon="-3.757000">
        <ele>2028.0</ele>
        <time>2016-07-25T17:15:13Z</time>
      </trkpt>
      <trkpt lat="41.032200" lon="-3.757033">
        <ele>2030.0</ele>
        <time>2016-07-25T17:15:14Z</time>
      </trkpt>
      <trkpt lat="41.032183" lon="-3.757083">
        <ele>2031.0</ele>
        <time>2016-07-25T17:15:15Z</time>
      </trkpt>
      <trkpt lat="41.032200" lon="-3.757100">
        <ele>2032.0</ele>
        <time>2016-07-25T17:15:16Z</time>
      </trkpt>
      <trkpt lat="41.032217" lon="-3.757117">
        <ele>2033.0</ele>
        <time>2016-07-25T17:15:17Z</time>
      </trkpt>
      <trkpt lat="41.032233" lon="-3.757133">
        <ele>2036.0</ele>
        <time>2016-07-25T17:15:18Z</time>
      </trkpt>
      <trkpt lat="41.032233" lon="-3.757150">
        <ele>2039.0</ele>
        <time>2016-07-25T17:15:19Z</time>
      </trkpt>
      <trkpt lat="41.032250" lon="-3.757133">
        <ele>2041.0</ele>
        <time>2016-07-25T17:15:20Z</time>
      </trkpt>
      <trkpt lat="41.032267" lon="-3.757133">
        <ele>2043.0</ele>
        <time>2016-07-25T17:15:21Z</time>
      </trkpt>
      <trkpt lat="41.032283" lon="-3.757117">
        <ele>2045.0</ele>
        <time>2016-07-25T17:15:22Z</time>
      </trkpt>
      <trkpt lat="41.032300" lon="-3.757100">
        <ele>2047.0</ele>
        <time>2016-07-25T17:15:23Z</time>
      </trkpt>
      <trkpt lat="41.032317" lon="-3.757083">
        <ele>2050.0</ele>
        <time>2016-07-25T17:15:24Z</time>
      </trkpt>
      <trkpt lat="41.032350" lon="-3.757083">
        <ele>2051.0</ele>
        <time>2016-07-25T17:15:25Z</time>
      </trkpt>
      <trkpt lat="41.032367" lon="-3.757083">
        <ele>2053.0</ele>
        <time>2016-07-25T17:15:26Z</time>
      </trkpt>
      <trkpt lat="41.032367" lon="-3.757100">
        <ele>2055.0</ele>
        <time>2016-07-25T17:15:27Z</time>
      </trkpt>
      <trkpt lat="41.032367" lon="-3.757117">
        <ele>2056.0</ele>
        <time>2016-07-25T17:15:28Z</time>
      </trkpt>
      <trkpt lat="41.032383" lon="-3.757117">
        <ele>2058.0</ele>
        <time>2016-07-25T17:15:29Z</time>
      </trkpt>
      <trkpt lat="41.032400" lon="-3.757100">
        <ele>2059.0</ele>
        <time>2016-07-25T17:15:30Z</time>
      </trkpt>
      <trkpt lat="41.032417" lon="-3.757067">
        <ele>2060.0</ele>
        <time>2016-07-25T17:15:31Z</time>
      </trkpt>
      <trkpt lat="41.032450" lon="-3.757017">
        <ele>2062.0</ele>
        <time>2016-07-25T17:15:32Z</time>
      </trkpt>
      <trkpt lat="41.032483" lon="-3.756967">
        <ele>2063.0</ele>
        <time>2016-07-25T17:15:33Z</time>
      </trkpt>
      <trkpt lat="41.032500" lon="-3.756883">
        <ele>2066.0</ele>
        <time>2016-07-25T17:15:34Z</time>
      </trkpt>
      <trkpt lat="41.032517" lon="-3.756783">
        <ele>2068.0</ele>
        <time>2016-07-25T17:15:35Z</time>
      </trkpt>
      <trkpt lat="41.032500" lon="-3.756667">
        <ele>2069.0</ele>
        <time>2016-07-25T17:15:36Z</time>
      </trkpt>
      <trkpt lat="41.032467" lon="-3.756517">
        <ele>2069.0</ele>
        <time>2016-07-25T17:15:37Z</time>
      </trkpt>
      <trkpt lat="41.032383" lon="-3.756367">
        <ele>2069.0</ele>
        <time>2016-07-25T17:15:38Z</time>
      </trkpt>
      <trkpt lat="41.032267" lon="-3.756217">
        <ele>2068.0</ele>
        <time>2016-07-25T17:15:39Z</time>
      </trkpt>
      <trkpt lat="41.032133" lon="-3.756083">
        <ele>2068.0</ele>
        <time>2016-07-25T17:15:40Z</time>
      </trkpt>
      <trkpt lat="41.031983" lon="-3.756000">
        <ele>2069.0</ele>
        <time>2016-07-25T17:15:41Z</time>
      </trkpt>
      <trkpt lat="41.031833" lon="-3.755967">
        <ele>2069.0</ele>
        <time>2016-07-25T17:15:42Z</time>
      </trkpt>
      <trkpt lat="41.031700" lon="-3.756000">
        <ele>2070.0</ele>
        <time>2016-07-25T17:15:43Z</time>
      </trkpt>
      <trkpt lat="41.031600" lon="-3.756050">
        <ele>2071.0</ele>
        <time>2016-07-25T17:15:44Z</time>
      </trkpt>
      <trkpt lat="41.031533" lon="-3.756117">
        <ele>2072.0</ele>
        <time>2016-07-25T17:15:45Z</time>
      </trkpt>
      <trkpt lat="41.031483" lon="-3.756167">
        <ele>2073.0</ele>
        <time>2016-07-25T17:15:46Z</time>
      </trkpt>
      <trkpt lat="41.031450" lon="-3.756217">
        <ele>2075.0</ele>
        <time>2016-07-25T17:15:47Z</time>
      </trkpt>
      <trkpt lat="41.031433" lon="-3.756283">
        <ele>2077.0</ele>
        <time>2016-07-25T17:15:48Z</time>
      </trkpt>
      <trkpt lat="41.031433" lon="-3.756333">
        <ele>2078.0</ele>
        <time>2016-07-25T17:15:49Z</time>
      </trkpt>
      <trkpt lat="41.031433" lon="-3.756383">
        <ele>2080.0</ele>
        <time>2016-07-25T17:15:50Z</time>
      </trkpt>
      <trkpt lat="41.031433" lon="-3.756433">
        <ele>2082.0</ele>
        <time>2016-07-25T17:15:51Z</time>
      </trkpt>
      <trkpt lat="41.031433" lon="-3.756483">
        <ele>2084.0</ele>
        <time>2016-07-25T17:15:52Z</time>
      </trkpt>
      <trkpt lat="41.031433" lon="-3.756550">
        <ele>2086.0</ele>
        <time>2016-07-25T17:15:53Z</time>
      </trkpt>
      <trkpt lat="41.031433" lon="-3.756600">
        <ele>2088.0</ele>
        <time>2016-07-25T17:15:54Z</time>
      </trkpt>
      <trkpt lat="41.031450" lon="-3.756633">
        <ele>2090.0</ele>
        <time>2016-07-25T17:15:55Z</time>
      </trkpt>
      <trkpt lat="41.031450" lon="-3.756667">
        <ele>2092.0</ele>
        <time>2016-07-25T17:15:56Z</time>
      </trkpt>
      <trkpt lat="41.031467" lon="-3.756700">
        <ele>2095.0</ele>
        <time>2016-07-25T17:15:57Z</time>
      </trkpt>
      <trkpt lat="41.031467" lon="-3.756750">
        <ele>2098.0</ele>
        <time>2016-07-25T17:15:58Z</time>
      </trkpt>
      <trkpt lat="41.031450" lon="-3.756783">
        <ele>2100.0</ele>
        <time>2016-07-25T17:15:59Z</time>
      </trkpt>
      <trkpt lat="41.031450" lon="-3.756833">
        <ele>2102.0</ele>
        <time>2016-07-25T17:16:00Z</time>
      </trkpt>
      <trkpt lat="41.031450" lon="-3.756867">
        <ele>2104.0</ele>
        <time>2016-07-25T17:16:01Z</time>
      </trkpt>
      <trkpt lat="41.031450" lon="-3.756900">
        <ele>2107.0</ele>
        <time>2016-07-25T17:16:02Z</time>
      </trkpt>
      <trkpt lat="41.031467" lon="-3.756917">
        <ele>2110.0</ele>
        <time>2016-07-25T17:16:03Z</time>
      </trkpt>
      <trkpt lat="41.031467" lon="-3.756950">
        <ele>2113.0</ele>
        <time>2016-07-25T17:16:04Z</time>
      </trkpt>
      <trkpt lat="41.031467" lon="-3.756967">
        <ele>2117.0</ele>
        <time>2016-07-25T17:16:05Z</time>
      </trkpt>
      <trkpt lat="41.031483" lon="-3.756983">
        <ele>2121.0</ele>
        <time>2016-07-25T17:16:06Z</time>
      </trkpt>
      <trkpt lat="41.031483" lon="-3.757000">
        <ele>2124.0</ele>
        <time>2016-07-25T17:16:07Z</time>
      </trkpt>
      <trkpt lat="41.031483" lon="-3.757017">
        <ele>2127.0</ele>
        <time>2016-07-25T17:16:08Z</time>
      </trkpt>
      <trkpt lat="41.031500" lon="-3.757050">
        <ele>2131.0</ele>
        <time>2016-07-25T17:16:09Z</time>
      </trkpt>
      <trkpt lat="41.031500" lon="-3.757067">
        <ele>2134.0</ele>
        <time>2016-07-25T17:16:10Z</time>
      </trkpt>
      <trkpt lat="41.031517" lon="-3.757083">
        <ele>2138.0</ele>
        <time>2016-07-25T17:16:11Z</time>
      </trkpt>
      <trkpt lat="41.031517" lon="-3.757083">
        <ele>2141.0</ele>
        <time>2016-07-25T17:16:12Z</time>
      </trkpt>
      <trkpt lat="41.031517" lon="-3.757067">
        <ele>2144.0</ele>
        <time>2016-07-25T17:16:13Z</time>
      </trkpt>
      <trkpt lat="41.031533" lon="-3.757083">
        <ele>2147.0</ele>
        <time>2016-07-25T17:16:14Z</time>
      </trkpt>
      <trkpt lat="41.031533" lon="-3.757083">
        <ele>2150.0</ele>
        <time>2016-07-25T17:16:15Z</time>
      </trkpt>
      <trkpt lat="41.031550" lon="-3.757100">
        <ele>2153.0</ele>
        <time>2016-07-25T17:16:16Z</time>
      </trkpt>
      <trkpt lat="41.031550" lon="-3.757117">
        <ele>2157.0</ele>
        <time>2016-07-25T17:16:17Z</time>
      </trkpt>
      <trkpt lat="41.031550" lon="-3.757117">
        <ele>2161.0</ele>
        <time>2016-07-25T17:16:18Z</time>
      </trkpt>
      <trkpt lat="41.031550" lon="-3.757133">
        <ele>2165.0</ele>
        <time>2016-07-25T17:16:19Z</time>
      </trkpt>
      <trkpt lat="41.031550" lon="-3.757150">
        <ele>2169.0</ele>
        <time>2016-07-25T17:16:20Z</time>
      </trkpt>
      <trkpt lat="41.031567" lon="-3.757167">
        <ele>2173.0</ele>
        <time>2016-07-25T17:16:21Z</time>
      </trkpt>
      <trkpt lat="41.031567" lon="-3.757183">
        <ele>2176.0</ele>
        <time>2016-07-25T17:16:22Z</time>
      </trkpt>
      <trkpt lat="41.031583" lon="-3.757183">
        <ele>2179.0</ele>
        <time>2016-07-25T17:16:23Z</time>
      </trkpt>
      <trkpt lat="41.031583" lon="-3.757167">
        <ele>2183.0</ele>
        <time>2016-07-25T17:16:24Z</time>
      </trkpt>
      <trkpt lat="41.031583" lon="-3.757167">
        <ele>2186.0</ele>
        <time>2016-07-25T17:16:25Z</time>
      </trkpt>
      <trkpt lat="41.031583" lon="-3.757167">
        <ele>2189.0</ele>
        <time>2016-07-25T17:16:26Z</time>
      </trkpt>
      <trkpt lat="41.031583" lon="-3.757167">
        <ele>2192.0</ele>
        <time>2016-07-25T17:16:27Z</time>
      </trkpt>
      <trkpt lat="41.031600" lon="-3.757167">
        <ele>2194.0</ele>
        <time>2016-07-25T17:16:28Z</time>
      </trkpt>
      <trkpt lat="41.031600" lon="-3.757183">
        <ele>2196.0</ele>
        <time>2016-07-25T17:16:29Z</time>
      </trkpt>
      <trkpt lat="41.031600" lon="-3.757200">
        <ele>2199.0</ele>
        <time>2016-07-25T17:16:30Z</time>
      </trkpt>
      <trkpt lat="41.031600" lon="-3.757217">
        <ele>2203.0</ele>
        <time>2016-07-25T17:16:31Z</time>
      </trkpt>
      <trkpt lat="41.031600" lon="-3.757233">
        <ele>2206.0</ele>
        <time>2016-07-25T17:16:32Z</time>
      </trkpt>
      <trkpt lat="41.031617" lon="-3.757233">
        <ele>2213.0</ele>
        <time>2016-07-25T17:16:33Z</time>
      </trkpt>
      <trkpt lat="41.031617" lon="-3.757233">
        <ele>2216.0</ele>
        <time>2016-07-25T17:16:34Z</time>
      </trkpt>
      <trkpt lat="41.031633" lon="-3.757233">
        <ele>2219.0</ele>
        <time>2016-07-25T17:16:35Z</time>
      </trkpt>
      <trkpt lat="41.031667" lon="-3.757233">
        <ele>2222.0</ele>
        <time>2016-07-25T17:16:36Z</time>
      </trkpt>
      <trkpt lat="41.031683" lon="-3.757250">
        <ele>2227.0</ele>
        <time>2016-07-25T17:16:37Z</time>
      </trkpt>
      <trkpt lat="41.031683" lon="-3.757267">
        <ele>2231.0</ele>
        <time>2016-07-25T17:16:38Z</time>
      </trkpt>
      <trkpt lat="41.031700" lon="-3.757267">
        <ele>2234.0</ele>
        <time>2016-07-25T17:16:39Z</time>
      </trkpt>
      <trkpt lat="41.031717" lon="-3.757267">
        <ele>2238.0</ele>
        <time>2016-07-25T17:16:40Z</time>
      </trkpt>
      <trkpt lat="41.031750" lon="-3.757233">
        <ele>2240.0</ele>
        <time>2016-07-25T17:16:41Z</time>
      </trkpt>
      <trkpt lat="41.031783" lon="-3.757200">
        <ele>2241.0</ele>
        <time>2016-07-25T17:16:42Z</time>
      </trkpt>
      <trkpt lat="41.031817" lon="-3.757133">
        <ele>2242.0</ele>
        <time>2016-07-25T17:16:43Z</time>
      </trkpt>
      <trkpt lat="41.031867" lon="-3.757000">
        <ele>2243.0</ele>
        <time>2016-07-25T17:16:44Z</time>
      </trkpt>
      <trkpt lat="41.031867" lon="-3.756850">
        <ele>2244.0</ele>
        <time>2016-07-25T17:16:45Z</time>
      </trkpt>
      <trkpt lat="41.031833" lon="-3.756650">
        <ele>2246.0</ele>
        <time>2016-07-25T17:16:46Z</time>
      </trkpt>
      <trkpt lat="41.031767" lon="-3.756483">
        <ele>2248.0</ele>
        <time>2016-07-25T17:16:47Z</time>
      </trkpt>
      <trkpt lat="41.031683" lon="-3.756317">
        <ele>2251.0</ele>
        <time>2016-07-25T17:16:48Z</time>
      </trkpt>
      <trkpt lat="41.031567" lon="-3.756200">
        <ele>2254.0</ele>
        <time>2016-07-25T17:16:49Z</time>
      </trkpt>
      <trkpt lat="41.031433" lon="-3.756100">
        <ele>2257.0</ele>
        <time>2016-07-25T17:16:50Z</time>
      </trkpt>
      <trkpt lat="41.031300" lon="-3.756033">
        <ele>2261.0</ele>
        <time>2016-07-25T17:16:51Z</time>
      </trkpt>
      <trkpt lat="41.031183" lon="-3.756017">
        <ele>2266.0</ele>
        <time>2016-07-25T17:16:52Z</time>
      </trkpt>
      <trkpt lat="41.031083" lon="-3.756033">
        <ele>2271.0</ele>
        <time>2016-07-25T17:16:53Z</time>
      </trkpt>
      <trkpt lat="41.030983" lon="-3.756050">
        <ele>2275.0</ele>
        <time>2016-07-25T17:16:54Z</time>
      </trkpt>
      <trkpt lat="41.030917" lon="-3.756083">
        <ele>2279.0</ele>
        <time>2016-07-25T17:16:55Z</time>
      </trkpt>
      <trkpt lat="41.030833" lon="-3.756133">
        <ele>2283.0</ele>
        <time>2016-07-25T17:16:56Z</time>
      </trkpt>
      <trkpt lat="41.030750" lon="-3.756183">
        <ele>2286.0</ele>
        <time>2016-07-25T17:16:57Z</time>
      </trkpt>
      <trkpt lat="41.030683" lon="-3.756233">
        <ele>2291.0</ele>
        <time>2016-07-25T17:16:58Z</time>
      </trkpt>
      <trkpt lat="41.030633" lon="-3.756267">
        <ele>2296.0</ele>
        <time>2016-07-25T17:16:59Z</time>
      </trkpt>
      <trkpt lat="41.030600" lon="-3.756300">
        <ele>2300.0</ele>
        <time>2016-07-25T17:17:00Z</time>
      </trkpt>
      <trkpt lat="41.030567" lon="-3.756317">
        <ele>2304.0</ele>
        <time>2016-07-25T17:17:01Z</time>
      </trkpt>
      <trkpt lat="41.030533" lon="-3.756333">
        <ele>2306.0</ele>
        <time>2016-07-25T17:17:02Z</time>
      </trkpt>
      <trkpt lat="41.030483" lon="-3.756350">
        <ele>2308.0</ele>
        <time>2016-07-25T17:17:03Z</time>
      </trkpt>
      <trkpt lat="41.030450" lon="-3.756383">
        <ele>2309.0</ele>
        <time>2016-07-25T17:17:04Z</time>
      </trkpt>
      <trkpt lat="41.030433" lon="-3.756417">
        <ele>2309.0</ele>
        <time>2016-07-25T17:17:05Z</time>
      </trkpt>
      <trkpt lat="41.030417" lon="-3.756450">
        <ele>2310.0</ele>
        <time>2016-07-25T17:17:06Z</time>
      </trkpt>
      <trkpt lat="41.030417" lon="-3.756467">
        <ele>2312.0</ele>
        <time>2016-07-25T17:17:07Z</time>
      </trkpt>
      <trkpt lat="41.030417" lon="-3.756483">
        <ele>2313.0</ele>
        <time>2016-07-25T17:17:08Z</time>
      </trkpt>
      <trkpt lat="41.030417" lon="-3.756483">
        <ele>2314.0</ele>
        <time>2016-07-25T17:17:09Z</time>
      </trkpt>
      <trkpt lat="41.030417" lon="-3.756483">
        <ele>2315.0</ele>
        <time>2016-07-25T17:17:10Z</time>
      </trkpt>
      <trkpt lat="41.030433" lon="-3.756483">
        <ele>2315.0</ele>
        <time>2016-07-25T17:17:11Z</time>
      </trkpt>
      <trkpt lat="41.030450" lon="-3.756467">
        <ele>2315.0</ele>
        <time>2016-07-25T17:17:12Z</time>
      </trkpt>
      <trkpt lat="41.030467" lon="-3.756467">
        <ele>2315.0</ele>
        <time>2016-07-25T17:17:13Z</time>
      </trkpt>
      <trkpt lat="41.030500" lon="-3.756450">
        <ele>2315.0</ele>
        <time>2016-07-25T17:17:14Z</time>
      </trkpt>
      <trkpt lat="41.030517" lon="-3.756467">
        <ele>2317.0</ele>
        <time>2016-07-25T17:17:15Z</time>
      </trkpt>
      <trkpt lat="41.030533" lon="-3.756467">
        <ele>2317.0</ele>
        <time>2016-07-25T17:17:16Z</time>
      </trkpt>
      <trkpt lat="41.030533" lon="-3.756483">
        <ele>2317.0</ele>
        <time>2016-07-25T17:17:17Z</time>
      </trkpt>
      <trkpt lat="41.030550" lon="-3.756500">
        <ele>2317.0</ele>
        <time>2016-07-25T17:17:18Z</time>
      </trkpt>
      <trkpt lat="41.030567" lon="-3.756517">
        <ele>2317.0</ele>
        <time>2016-07-25T17:17:19Z</time>
      </trkpt>
      <trkpt lat="41.030583" lon="-3.756517">
        <ele>2317.0</ele>
        <time>2016-07-25T17:17:20Z</time>
      </trkpt>
      <trkpt lat="41.030600" lon="-3.756517">
        <ele>2316.0</ele>
        <time>2016-07-25T17:17:21Z</time>
      </trkpt>
      <trkpt lat="41.030633" lon="-3.756500">
        <ele>2316.0</ele>
        <time>2016-07-25T17:17:22Z</time>
      </trkpt>
      <trkpt lat="41.030667" lon="-3.756467">
        <ele>2316.0</ele>
        <time>2016-07-25T17:17:23Z</time>
      </trkpt>
      <trkpt lat="41.030717" lon="-3.756433">
        <ele>2316.0</ele>
        <time>2016-07-25T17:17:24Z</time>
      </trkpt>
      <trkpt lat="41.030750" lon="-3.756400">
        <ele>2317.0</ele>
        <time>2016-07-25T17:17:25Z</time>
      </trkpt>
      <trkpt lat="41.030783" lon="-3.756383">
        <ele>2317.0</ele>
        <time>2016-07-25T17:17:26Z</time>
      </trkpt>
      <trkpt lat="41.030817" lon="-3.756350">
        <ele>2318.0</ele>
        <time>2016-07-25T17:17:27Z</time>
      </trkpt>
      <trkpt lat="41.030850" lon="-3.756317">
        <ele>2318.0</ele>
        <time>2016-07-25T17:17:28Z</time>
      </trkpt>
      <trkpt lat="41.030883" lon="-3.756267">
        <ele>2317.0</ele>
        <time>2016-07-25T17:17:29Z</time>
      </trkpt>
      <trkpt lat="41.030917" lon="-3.756217">
        <ele>2317.0</ele>
        <time>2016-07-25T17:17:30Z</time>
      </trkpt>
      <trkpt lat="41.030967" lon="-3.756150">
        <ele>2317.0</ele>
        <time>2016-07-25T17:17:31Z</time>
      </trkpt>
      <trkpt lat="41.030983" lon="-3.756050">
        <ele>2316.0</ele>
        <time>2016-07-25T17:17:32Z</time>
      </trkpt>
      <trkpt lat="41.031000" lon="-3.755933">
        <ele>2315.0</ele>
        <time>2016-07-25T17:17:33Z</time>
      </trkpt>
      <trkpt lat="41.031017" lon="-3.755783">
        <ele>2314.0</ele>
        <time>2016-07-25T17:17:34Z</time>
      </trkpt>
      <trkpt lat="41.031000" lon="-3.755633">
        <ele>2314.0</ele>
        <time>2016-07-25T17:17:35Z</time>
      </trkpt>
      <trkpt lat="41.030950" lon="-3.755467">
        <ele>2313.0</ele>
        <time>2016-07-25T17:17:36Z</time>
      </trkpt>
      <trkpt lat="41.030850" lon="-3.755317">
        <ele>2310.0</ele>
        <time>2016-07-25T17:17:37Z</time>
      </trkpt>
      <trkpt lat="41.030733" lon="-3.755183">
        <ele>2308.0</ele>
        <time>2016-07-25T17:17:38Z</time>
      </trkpt>
      <trkpt lat="41.030583" lon="-3.755117">
        <ele>2307.0</ele>
        <time>2016-07-25T17:17:39Z</time>
      </trkpt>
      <trkpt lat="41.030467" lon="-3.755100">
        <ele>2306.0</ele>
        <time>2016-07-25T17:17:40Z</time>
      </trkpt>
      <trkpt lat="41.030367" lon="-3.755133">
        <ele>2305.0</ele>
        <time>2016-07-25T17:17:41Z</time>
      </trkpt>
      <trkpt lat="41.030283" lon="-3.755183">
        <ele>2304.0</ele>
        <time>2016-07-25T17:17:42Z</time>
      </trkpt>
      <trkpt lat="41.030233" lon="-3.755250">
        <ele>2303.0</ele>
        <time>2016-07-25T17:17:43Z</time>
      </trkpt>
      <trkpt lat="41.030200" lon="-3.755300">
        <ele>2303.0</ele>
        <time>2016-07-25T17:17:44Z</time>
      </trkpt>
      <trkpt lat="41.030150" lon="-3.755333">
        <ele>2302.0</ele>
        <time>2016-07-25T17:17:45Z</time>
      </trkpt>
      <trkpt lat="41.030133" lon="-3.755400">
        <ele>2301.0</ele>
        <time>2016-07-25T17:17:46Z</time>
      </trkpt>
      <trkpt lat="41.030117" lon="-3.755450">
        <ele>2300.0</ele>
        <time>2016-07-25T17:17:47Z</time>
      </trkpt>
      <trkpt lat="41.030100" lon="-3.755500">
        <ele>2299.0</ele>
        <time>2016-07-25T17:17:48Z</time>
      </trkpt>
      <trkpt lat="41.030100" lon="-3.755550">
        <ele>2297.0</ele>
        <time>2016-07-25T17:17:49Z</time>
      </trkpt>
      <trkpt lat="41.030117" lon="-3.755600">
        <ele>2296.0</ele>
        <time>2016-07-25T17:17:50Z</time>
      </trkpt>
      <trkpt lat="41.030150" lon="-3.755617">
        <ele>2294.0</ele>
        <time>2016-07-25T17:17:51Z</time>
      </trkpt>
      <trkpt lat="41.030183" lon="-3.755650">
        <ele>2292.0</ele>
        <time>2016-07-25T17:17:52Z</time>
      </trkpt>
      <trkpt lat="41.030217" lon="-3.755650">
        <ele>2291.0</ele>
        <time>2016-07-25T17:17:53Z</time>
      </trkpt>
      <trkpt lat="41.030250" lon="-3.755633">
        <ele>2290.0</ele>
        <time>2016-07-25T17:17:54Z</time>
      </trkpt>
      <trkpt lat="41.030283" lon="-3.755617">
        <ele>2290.0</ele>
        <time>2016-07-25T17:17:55Z</time>
      </trkpt>
      <trkpt lat="41.030300" lon="-3.755600">
        <ele>2290.0</ele>
        <time>2016-07-25T17:17:56Z</time>
      </trkpt>
      <trkpt lat="41.030317" lon="-3.755583">
        <ele>2288.0</ele>
        <time>2016-07-25T17:17:57Z</time>
      </trkpt>
      <trkpt lat="41.030333" lon="-3.755567">
        <ele>2287.0</ele>
        <time>2016-07-25T17:17:58Z</time>
      </trkpt>
      <trkpt lat="41.030367" lon="-3.755533">
        <ele>2285.0</ele>
        <time>2016-07-25T17:17:59Z</time>
      </trkpt>
      <trkpt lat="41.030400" lon="-3.755517">
        <ele>2283.0</ele>
        <time>2016-07-25T17:18:00Z</time>
      </trkpt>
      <trkpt lat="41.030433" lon="-3.755500">
        <ele>2282.0</ele>
        <time>2016-07-25T17:18:01Z</time>
      </trkpt>
      <trkpt lat="41.030450" lon="-3.755500">
        <ele>2281.0</ele>
        <time>2016-07-25T17:18:02Z</time>
      </trkpt>
      <trkpt lat="41.030467" lon="-3.755500">
        <ele>2281.0</ele>
        <time>2016-07-25T17:18:03Z</time>
      </trkpt>
      <trkpt lat="41.030483" lon="-3.755483">
        <ele>2279.0</ele>
        <time>2016-07-25T17:18:04Z</time>
      </trkpt>
      <trkpt lat="41.030517" lon="-3.755467">
        <ele>2277.0</ele>
        <time>2016-07-25T17:18:05Z</time>
      </trkpt>
      <trkpt lat="41.030550" lon="-3.755467">
        <ele>2275.0</ele>
        <time>2016-07-25T17:18:06Z</time>
      </trkpt>
      <trkpt lat="41.030583" lon="-3.755450">
        <ele>2274.0</ele>
        <time>2016-07-25T17:18:07Z</time>
      </trkpt>
      <trkpt lat="41.030617" lon="-3.755433">
        <ele>2273.0</ele>
        <time>2016-07-25T17:18:08Z</time>
      </trkpt>
      <trkpt lat="41.030650" lon="-3.755417">
        <ele>2273.0</ele>
        <time>2016-07-25T17:18:09Z</time>
      </trkpt>
      <trkpt lat="41.030700" lon="-3.755400">
        <ele>2272.0</ele>
        <time>2016-07-25T17:18:10Z</time>
      </trkpt>
      <trkpt lat="41.030733" lon="-3.755367">
        <ele>2271.0</ele>
        <time>2016-07-25T17:18:11Z</time>
      </trkpt>
      <trkpt lat="41.030767" lon="-3.755350">
        <ele>2270.0</ele>
        <time>2016-07-25T17:18:12Z</time>
      </trkpt>
      <trkpt lat="41.030800" lon="-3.755317">
        <ele>2268.0</ele>
        <time>2016-07-25T17:18:13Z</time>
      </trkpt>
      <trkpt lat="41.030850" lon="-3.755283">
        <ele>2266.0</ele>
        <time>2016-07-25T17:18:14Z</time>
      </trkpt>
      <trkpt lat="41.030900" lon="-3.755267">
        <ele>2264.0</ele>
        <time>2016-07-25T17:18:15Z</time>
      </trkpt>
      <trkpt lat="41.030950" lon="-3.755233">
        <ele>2262.0</ele>
        <time>2016-07-25T17:18:16Z</time>
      </trkpt>
      <trkpt lat="41.031017" lon="-3.755200">
        <ele>2261.0</ele>
        <time>2016-07-25T17:18:17Z</time>
      </trkpt>
      <trkpt lat="41.031067" lon="-3.755150">
        <ele>2260.0</ele>
        <time>2016-07-25T17:18:18Z</time>
      </trkpt>
      <trkpt lat="41.031100" lon="-3.755117">
        <ele>2259.0</ele>
        <time>2016-07-25T17:18:19Z</time>
      </trkpt>
      <trkpt lat="41.031133" lon="-3.755100">
        <ele>2258.0</ele>
        <time>2016-07-25T17:18:20Z</time>
      </trkpt>
      <trkpt lat="41.031183" lon="-3.755067">
        <ele>2256.0</ele>
        <time>2016-07-25T17:18:21Z</time>
      </trkpt>
      <trkpt lat="41.031233" lon="-3.755017">
        <ele>2254.0</ele>
        <time>2016-07-25T17:18:22Z</time>
      </trkpt>
      <trkpt lat="41.031300" lon="-3.754983">
        <ele>2253.0</ele>
        <time>2016-07-25T17:18:23Z</time>
      </trkpt>
      <trkpt lat="41.031367" lon="-3.754933">
        <ele>2252.0</ele>
        <time>2016-07-25T17:18:24Z</time>
      </trkpt>
      <trkpt lat="41.031417" lon="-3.754900">
        <ele>2251.0</ele>
        <time>2016-07-25T17:18:25Z</time>
      </trkpt>
      <trkpt lat="41.031467" lon="-3.754867">
        <ele>2250.0</ele>
        <time>2016-07-25T17:18:26Z</time>
      </trkpt>
      <trkpt lat="41.031517" lon="-3.754817">
        <ele>2250.0</ele>
        <time>2016-07-25T17:18:27Z</time>
      </trkpt>
      <trkpt lat="41.031583" lon="-3.754783">
        <ele>2248.0</ele>
        <time>2016-07-25T17:18:28Z</time>
      </trkpt>
      <trkpt lat="41.031633" lon="-3.754717">
        <ele>2247.0</ele>
        <time>2016-07-25T17:18:29Z</time>
      </trkpt>
      <trkpt lat="41.031700" lon="-3.754667">
        <ele>2245.0</ele>
        <time>2016-07-25T17:18:30Z</time>
      </trkpt>
      <trkpt lat="41.031750" lon="-3.754617">
        <ele>2244.0</ele>
        <time>2016-07-25T17:18:31Z</time>
      </trkpt>
      <trkpt lat="41.031817" lon="-3.754567">
        <ele>2243.0</ele>
        <time>2016-07-25T17:18:32Z</time>
      </trkpt>
      <trkpt lat="41.031867" lon="-3.754500">
        <ele>2243.0</ele>
        <time>2016-07-25T17:18:33Z</time>
      </trkpt>
      <trkpt lat="41.031917" lon="-3.754450">
        <ele>2242.0</ele>
        <time>2016-07-25T17:18:34Z</time>
      </trkpt>
      <trkpt lat="41.031967" lon="-3.754383">
        <ele>2242.0</ele>
        <time>2016-07-25T17:18:35Z</time>
      </trkpt>
      <trkpt lat="41.032017" lon="-3.754333">
        <ele>2241.0</ele>
        <time>2016-07-25T17:18:36Z</time>
      </trkpt>
      <trkpt lat="41.032083" lon="-3.754283">
        <ele>2240.0</ele>
        <time>2016-07-25T17:18:37Z</time>
      </trkpt>
      <trkpt lat="41.032133" lon="-3.754217">
        <ele>2238.0</ele>
        <time>2016-07-25T17:18:38Z</time>
      </trkpt>
      <trkpt lat="41.032200" lon="-3.754167">
        <ele>2238.0</ele>
        <time>2016-07-25T17:18:39Z</time>
      </trkpt>
      <trkpt lat="41.032250" lon="-3.754117">
        <ele>2237.0</ele>
        <time>2016-07-25T17:18:40Z</time>
      </trkpt>
      <trkpt lat="41.032300" lon="-3.754050">
        <ele>2236.0</ele>
        <time>2016-07-25T17:18:41Z</time>
      </trkpt>
      <trkpt lat="41.032350" lon="-3.753983">
        <ele>2235.0</ele>
        <time>2016-07-25T17:18:42Z</time>
      </trkpt>
      <trkpt lat="41.032400" lon="-3.753933">
        <ele>2233.0</ele>
        <time>2016-07-25T17:18:43Z</time>
      </trkpt>
      <trkpt lat="41.032467" lon="-3.753867">
        <ele>2231.0</ele>
        <time>2016-07-25T17:18:44Z</time>
      </trkpt>
      <trkpt lat="41.032517" lon="-3.753833">
        <ele>2230.0</ele>
        <time>2016-07-25T17:18:45Z</time>
      </trkpt>
      <trkpt lat="41.032567" lon="-3.753783">
        <ele>2229.0</ele>
        <time>2016-07-25T17:18:46Z</time>
      </trkpt>
      <trkpt lat="41.032617" lon="-3.753750">
        <ele>2228.0</ele>
        <time>2016-07-25T17:18:47Z</time>
      </trkpt>
      <trkpt lat="41.032650" lon="-3.753717">
        <ele>2226.0</ele>
        <time>2016-07-25T17:18:48Z</time>
      </trkpt>
      <trkpt lat="41.032700" lon="-3.753683">
        <ele>2224.0</ele>
        <time>2016-07-25T17:18:49Z</time>
      </trkpt>
      <trkpt lat="41.032750" lon="-3.753633">
        <ele>2223.0</ele>
        <time>2016-07-25T17:18:50Z</time>
      </trkpt>
      <trkpt lat="41.032817" lon="-3.753583">
        <ele>2222.0</ele>
        <time>2016-07-25T17:18:51Z</time>
      </trkpt>
      <trkpt lat="41.032867" lon="-3.753550">
        <ele>2221.0</ele>
        <time>2016-07-25T17:18:52Z</time>
      </trkpt>
      <trkpt lat="41.032900" lon="-3.753500">
        <ele>2220.0</ele>
        <time>2016-07-25T17:18:53Z</time>
      </trkpt>
      <trkpt lat="41.032950" lon="-3.753467">
        <ele>2220.0</ele>
        <time>2016-07-25T17:18:54Z</time>
      </trkpt>
      <trkpt lat="41.032983" lon="-3.753417">
        <ele>2219.0</ele>
        <time>2016-07-25T17:18:55Z</time>
      </trkpt>
      <trkpt lat="41.033017" lon="-3.753383">
        <ele>2216.0</ele>
        <time>2016-07-25T17:18:56Z</time>
      </trkpt>
      <trkpt lat="41.033067" lon="-3.753333">
        <ele>2213.0</ele>
        <time>2016-07-25T17:18:57Z</time>
      </trkpt>
      <trkpt lat="41.033133" lon="-3.753283">
        <ele>2210.0</ele>
        <time>2016-07-25T17:18:58Z</time>
      </trkpt>
      <trkpt lat="41.033183" lon="-3.753250">
        <ele>2207.0</ele>
        <time>2016-07-25T17:18:59Z</time>
      </trkpt>
      <trkpt lat="41.033233" lon="-3.753200">
        <ele>2205.0</ele>
        <time>2016-07-25T17:19:00Z</time>
      </trkpt>
      <trkpt lat="41.033300" lon="-3.753150">
        <ele>2203.0</ele>
        <time>2016-07-25T17:19:01Z</time>
      </trkpt>
      <trkpt lat="41.033350" lon="-3.753100">
        <ele>2203.0</ele>
        <time>2016-07-25T17:19:02Z</time>
      </trkpt>
      <trkpt lat="41.033400" lon="-3.753050">
        <ele>2203.0</ele>
        <time>2016-07-25T17:19:03Z</time>
      </trkpt>
      <trkpt lat="41.033433" lon="-3.753000">
        <ele>2204.0</ele>
        <time>2016-07-25T17:19:04Z</time>
      </trkpt>
      <trkpt lat="41.033467" lon="-3.752967">
        <ele>2203.0</ele>
        <time>2016-07-25T17:19:05Z</time>
      </trkpt>
      <trkpt lat="41.033483" lon="-3.752917">
        <ele>2202.0</ele>
        <time>2016-07-25T17:19:06Z</time>
      </trkpt>
      <trkpt lat="41.033533" lon="-3.752883">
        <ele>2199.0</ele>
        <time>2016-07-25T17:19:07Z</time>
      </trkpt>
      <trkpt lat="41.033600" lon="-3.752867">
        <ele>2196.0</ele>
        <time>2016-07-25T17:19:08Z</time>
      </trkpt>
      <trkpt lat="41.033650" lon="-3.752850">
        <ele>2196.0</ele>
        <time>2016-07-25T17:19:09Z</time>
      </trkpt>
      <trkpt lat="41.033683" lon="-3.752867">
        <ele>2198.0</ele>
        <time>2016-07-25T17:19:10Z</time>
      </trkpt>
      <trkpt lat="41.033700" lon="-3.752867">
        <ele>2201.0</ele>
        <time>2016-07-25T17:19:11Z</time>
      </trkpt>
      <trkpt lat="41.033733" lon="-3.752850">
        <ele>2202.0</ele>
        <time>2016-07-25T17:19:12Z</time>
      </trkpt>
      <trkpt lat="41.033767" lon="-3.752817">
        <ele>2203.0</ele>
        <time>2016-07-25T17:19:13Z</time>
      </trkpt>
      <trkpt lat="41.033800" lon="-3.752783">
        <ele>2202.0</ele>
        <time>2016-07-25T17:19:14Z</time>
      </trkpt>
      <trkpt lat="41.033850" lon="-3.752750">
        <ele>2202.0</ele>
        <time>2016-07-25T17:19:15Z</time>
      </trkpt>
      <trkpt lat="41.033900" lon="-3.752750">
        <ele>2201.0</ele>
        <time>2016-07-25T17:19:16Z</time>
      </trkpt>
      <trkpt lat="41.033933" lon="-3.752767">
        <ele>2201.0</ele>
        <time>2016-07-25T17:19:17Z</time>
      </trkpt>
      <trkpt lat="41.033967" lon="-3.752783">
        <ele>2201.0</ele>
        <time>2016-07-25T17:19:18Z</time>
      </trkpt>
      <trkpt lat="41.034000" lon="-3.752800">
        <ele>2201.0</ele>
        <time>2016-07-25T17:19:19Z</time>
      </trkpt>
      <trkpt lat="41.034033" lon="-3.752800">
        <ele>2200.0</ele>
        <time>2016-07-25T17:19:20Z</time>
      </trkpt>
      <trkpt lat="41.034067" lon="-3.752800">
        <ele>2199.0</ele>
        <time>2016-07-25T17:19:21Z</time>
      </trkpt>
      <trkpt lat="41.034083" lon="-3.752800">
        <ele>2197.0</ele>
        <time>2016-07-25T17:19:22Z</time>
      </trkpt>
      <trkpt lat="41.034117" lon="-3.752800">
        <ele>2195.0</ele>
        <time>2016-07-25T17:19:23Z</time>
      </trkpt>
      <trkpt lat="41.034150" lon="-3.752800">
        <ele>2194.0</ele>
        <time>2016-07-25T17:19:24Z</time>
      </trkpt>
      <trkpt lat="41.034183" lon="-3.752800">
        <ele>2192.0</ele>
        <time>2016-07-25T17:19:25Z</time>
      </trkpt>
      <trkpt lat="41.034217" lon="-3.752800">
        <ele>2188.0</ele>
        <time>2016-07-25T17:19:26Z</time>
      </trkpt>
      <trkpt lat="41.034267" lon="-3.752783">
        <ele>2185.0</ele>
        <time>2016-07-25T17:19:27Z</time>
      </trkpt>
      <trkpt lat="41.034317" lon="-3.752783">
        <ele>2182.0</ele>
        <time>2016-07-25T17:19:28Z</time>
      </trkpt>
      <trkpt lat="41.034367" lon="-3.752783">
        <ele>2180.0</ele>
        <time>2016-07-25T17:19:29Z</time>
      </trkpt>
      <trkpt lat="41.034417" lon="-3.752767">
        <ele>2178.0</ele>
        <time>2016-07-25T17:19:30Z</time>
      </trkpt>
      <trkpt lat="41.034467" lon="-3.752750">
        <ele>2175.0</ele>
        <time>2016-07-25T17:19:31Z</time>
      </trkpt>
      <trkpt lat="41.034517" lon="-3.752733">
        <ele>2172.0</ele>
        <time>2016-07-25T17:19:32Z</time>
      </trkpt>
      <trkpt lat="41.034567" lon="-3.752700">
        <ele>2169.0</ele>
        <time>2016-07-25T17:19:33Z</time>
      </trkpt>
      <trkpt lat="41.034617" lon="-3.752683">
        <ele>2166.0</ele>
        <time>2016-07-25T17:19:34Z</time>
      </trkpt>
      <trkpt lat="41.034667" lon="-3.752650">
        <ele>2163.0</ele>
        <time>2016-07-25T17:19:35Z</time>
      </trkpt>
      <trkpt lat="41.034750" lon="-3.752633">
        <ele>2161.0</ele>
        <time>2016-07-25T17:19:36Z</time>
      </trkpt>
      <trkpt lat="41.034817" lon="-3.752600">
        <ele>2159.0</ele>
        <time>2016-07-25T17:19:37Z</time>
      </trkpt>
      <trkpt lat="41.034867" lon="-3.752550">
        <ele>2157.0</ele>
        <time>2016-07-25T17:19:38Z</time>
      </trkpt>
      <trkpt lat="41.034933" lon="-3.752517">
        <ele>2155.0</ele>
        <time>2016-07-25T17:19:39Z</time>
      </trkpt>
      <trkpt lat="41.034967" lon="-3.752500">
        <ele>2153.0</ele>
        <time>2016-07-25T17:19:40Z</time>
      </trkpt>
      <trkpt lat="41.035017" lon="-3.752467">
        <ele>2149.0</ele>
        <time>2016-07-25T17:19:41Z</time>
      </trkpt>
      <trkpt lat="41.035083" lon="-3.752450">
        <ele>2144.0</ele>
        <time>2016-07-25T17:19:42Z</time>
      </trkpt>
      <trkpt lat="41.035150" lon="-3.752433">
        <ele>2140.0</ele>
        <time>2016-07-25T17:19:43Z</time>
      </trkpt>
      <trkpt lat="41.035233" lon="-3.752417">
        <ele>2138.0</ele>
        <time>2016-07-25T17:19:44Z</time>
      </trkpt>
      <trkpt lat="41.035300" lon="-3.752367">
        <ele>2138.0</ele>
        <time>2016-07-25T17:19:45Z</time>
      </trkpt>
      <trkpt lat="41.035333" lon="-3.752333">
        <ele>2138.0</ele>
        <time>2016-07-25T17:19:46Z</time>
      </trkpt>
      <trkpt lat="41.035383" lon="-3.752300">
        <ele>2137.0</ele>
        <time>2016-07-25T17:19:47Z</time>
      </trkpt>
      <trkpt lat="41.035433" lon="-3.752267">
        <ele>2134.0</ele>
        <time>2016-07-25T17:19:48Z</time>
      </trkpt>
      <trkpt lat="41.035517" lon="-3.752233">
        <ele>2131.0</ele>
        <time>2016-07-25T17:19:49Z</time>
      </trkpt>
      <trkpt lat="41.035583" lon="-3.752200">
        <ele>2130.0</ele>
        <time>2016-07-25T17:19:50Z</time>
      </trkpt>
      <trkpt lat="41.035650" lon="-3.752167">
        <ele>2130.0</ele>
        <time>2016-07-25T17:19:51Z</time>
      </trkpt>
      <trkpt lat="41.035700" lon="-3.752133">
        <ele>2130.0</ele>
        <time>2016-07-25T17:19:52Z</time>
      </trkpt>
      <trkpt lat="41.035750" lon="-3.752100">
        <ele>2129.0</ele>
        <time>2016-07-25T17:19:53Z</time>
      </trkpt>
      <trkpt lat="41.035800" lon="-3.752067">
        <ele>2127.0</ele>
        <time>2016-07-25T17:19:54Z</time>
      </trkpt>
      <trkpt lat="41.035867" lon="-3.752033">
        <ele>2123.0</ele>
        <time>2016-07-25T17:19:55Z</time>
      </trkpt>
      <trkpt lat="41.035933" lon="-3.752000">
        <ele>2121.0</ele>
        <time>2016-07-25T17:19:56Z</time>
      </trkpt>
      <trkpt lat="41.036017" lon="-3.751983">
        <ele>2120.0</ele>
        <time>2016-07-25T17:19:57Z</time>
      </trkpt>
      <trkpt lat="41.036067" lon="-3.751950">
        <ele>2120.0</ele>
        <time>2016-07-25T17:19:58Z</time>
      </trkpt>
      <trkpt lat="41.036117" lon="-3.751933">
        <ele>2120.0</ele>
        <time>2016-07-25T17:19:59Z</time>
      </trkpt>
      <trkpt lat="41.036167" lon="-3.751900">
        <ele>2119.0</ele>
        <time>2016-07-25T17:20:00Z</time>
      </trkpt>
      <trkpt lat="41.036217" lon="-3.751867">
        <ele>2117.0</ele>
        <time>2016-07-25T17:20:01Z</time>
      </trkpt>
      <trkpt lat="41.036283" lon="-3.751817">
        <ele>2114.0</ele>
        <time>2016-07-25T17:20:02Z</time>
      </trkpt>
      <trkpt lat="41.036333" lon="-3.751783">
        <ele>2114.0</ele>
        <time>2016-07-25T17:20:03Z</time>
      </trkpt>
      <trkpt lat="41.036400" lon="-3.751767">
        <ele>2115.0</ele>
        <time>2016-07-25T17:20:04Z</time>
      </trkpt>
      <trkpt lat="41.036450" lon="-3.751750">
        <ele>2115.0</ele>
        <time>2016-07-25T17:20:05Z</time>
      </trkpt>
      <trkpt lat="41.036483" lon="-3.751733">
        <ele>2116.0</ele>
        <time>2016-07-25T17:20:06Z</time>
      </trkpt>
      <trkpt lat="41.036517" lon="-3.751717">
        <ele>2116.0</ele>
        <time>2016-07-25T17:20:07Z</time>
      </trkpt>
      <trkpt lat="41.036550" lon="-3.751717">
        <ele>2116.0</ele>
        <time>2016-07-25T17:20:08Z</time>
      </trkpt>
      <trkpt lat="41.036600" lon="-3.751700">
        <ele>2116.0</ele>
        <time>2016-07-25T17:20:09Z</time>
      </trkpt>
      <trkpt lat="41.036617" lon="-3.751717">
        <ele>2116.0</ele>
        <time>2016-07-25T17:20:10Z</time>
      </trkpt>
      <trkpt lat="41.036650" lon="-3.751733">
        <ele>2116.0</ele>
        <time>2016-07-25T17:20:11Z</time>
      </trkpt>
      <trkpt lat="41.036683" lon="-3.751767">
        <ele>2116.0</ele>
        <time>2016-07-25T17:20:12Z</time>
      </trkpt>
      <trkpt lat="41.036717" lon="-3.751783">
        <ele>2115.0</ele>
        <time>2016-07-25T17:20:13Z</time>
      </trkpt>
      <trkpt lat="41.036767" lon="-3.751800">
        <ele>2115.0</ele>
        <time>2016-07-25T17:20:14Z</time>
      </trkpt>
      <trkpt lat="41.036800" lon="-3.751817">
        <ele>2115.0</ele>
        <time>2016-07-25T17:20:15Z</time>
      </trkpt>
      <trkpt lat="41.036850" lon="-3.751817">
        <ele>2116.0</ele>
        <time>2016-07-25T17:20:16Z</time>
      </trkpt>
      <trkpt lat="41.036883" lon="-3.751833">
        <ele>2116.0</ele>
        <time>2016-07-25T17:20:17Z</time>
      </trkpt>
      <trkpt lat="41.036917" lon="-3.751850">
        <ele>2116.0</ele>
        <time>2016-07-25T17:20:18Z</time>
      </trkpt>
      <trkpt lat="41.036967" lon="-3.751867">
        <ele>2116.0</ele>
        <time>2016-07-25T17:20:19Z</time>
      </trkpt>
      <trkpt lat="41.037000" lon="-3.751883">
        <ele>2116.0</ele>
        <time>2016-07-25T17:20:20Z</time>
      </trkpt>
      <trkpt lat="41.037033" lon="-3.751883">
        <ele>2116.0</ele>
        <time>2016-07-25T17:20:21Z</time>
      </trkpt>
      <trkpt lat="41.037083" lon="-3.751900">
        <ele>2116.0</ele>
        <time>2016-07-25T17:20:22Z</time>
      </trkpt>
      <trkpt lat="41.037117" lon="-3.751917">
        <ele>2116.0</ele>
        <time>2016-07-25T17:20:23Z</time>
      </trkpt>
      <trkpt lat="41.037150" lon="-3.751950">
        <ele>2115.0</ele>
        <time>2016-07-25T17:20:24Z</time>
      </trkpt>
      <trkpt lat="41.037183" lon="-3.751983">
        <ele>2115.0</ele>
        <time>2016-07-25T17:20:25Z</time>
      </trkpt>
      <trkpt lat="41.037217" lon="-3.752017">
        <ele>2114.0</ele>
        <time>2016-07-25T17:20:26Z</time>
      </trkpt>
      <trkpt lat="41.037250" lon="-3.752050">
        <ele>2114.0</ele>
        <time>2016-07-25T17:20:27Z</time>
      </trkpt>
      <trkpt lat="41.037283" lon="-3.752067">
        <ele>2113.0</ele>
        <time>2016-07-25T17:20:28Z</time>
      </trkpt>
      <trkpt lat="41.037333" lon="-3.752083">
        <ele>2113.0</ele>
        <time>2016-07-25T17:20:29Z</time>
      </trkpt>
      <trkpt lat="41.037400" lon="-3.752100">
        <ele>2113.0</ele>
        <time>2016-07-25T17:20:30Z</time>
      </trkpt>
      <trkpt lat="41.037433" lon="-3.752133">
        <ele>2114.0</ele>
        <time>2016-07-25T17:20:31Z</time>
      </trkpt>
      <trkpt lat="41.037483" lon="-3.752167">
        <ele>2114.0</ele>
        <time>2016-07-25T17:20:32Z</time>
      </trkpt>
      <trkpt lat="41.037517" lon="-3.752200">
        <ele>2115.0</ele>
        <time>2016-07-25T17:20:33Z</time>
      </trkpt>
      <trkpt lat="41.037567" lon="-3.752233">
        <ele>2116.0</ele>
        <time>2016-07-25T17:20:34Z</time>
      </trkpt>
      <trkpt lat="41.037600" lon="-3.752250">
        <ele>2116.0</ele>
        <time>2016-07-25T17:20:35Z</time>
      </trkpt>
      <trkpt lat="41.037650" lon="-3.752283">
        <ele>2116.0</ele>
        <time>2016-07-25T17:20:36Z</time>
      </trkpt>
      <trkpt lat="41.037683" lon="-3.752300">
        <ele>2115.0</ele>
        <time>2016-07-25T17:20:37Z</time>
      </trkpt>
      <trkpt lat="41.037733" lon="-3.752333">
        <ele>2113.0</ele>
        <time>2016-07-25T17:20:38Z</time>
      </trkpt>
      <trkpt lat="41.037783" lon="-3.752350">
        <ele>2112.0</ele>
        <time>2016-07-25T17:20:39Z</time>
      </trkpt>
      <trkpt lat="41.037817" lon="-3.752367">
        <ele>2112.0</ele>
        <time>2016-07-25T17:20:40Z</time>
      </trkpt>
      <trkpt lat="41.037850" lon="-3.752400">
        <ele>2111.0</ele>
        <time>2016-07-25T17:20:41Z</time>
      </trkpt>
      <trkpt lat="41.037900" lon="-3.752417">
        <ele>2110.0</ele>
        <time>2016-07-25T17:20:42Z</time>
      </trkpt>
      <trkpt lat="41.037950" lon="-3.752433">
        <ele>2109.0</ele>
        <time>2016-07-25T17:20:43Z</time>
      </trkpt>
      <trkpt lat="41.038000" lon="-3.752467">
        <ele>2108.0</ele>
        <time>2016-07-25T17:20:44Z</time>
      </trkpt>
      <trkpt lat="41.038050" lon="-3.752483">
        <ele>2108.0</ele>
        <time>2016-07-25T17:20:45Z</time>
      </trkpt>
      <trkpt lat="41.038083" lon="-3.752500">
        <ele>2108.0</ele>
        <time>2016-07-25T17:20:46Z</time>
      </trkpt>
      <trkpt lat="41.038133" lon="-3.752500">
        <ele>2108.0</ele>
        <time>2016-07-25T17:20:47Z</time>
      </trkpt>
      <trkpt lat="41.038183" lon="-3.752517">
        <ele>2107.0</ele>
        <time>2016-07-25T17:20:48Z</time>
      </trkpt>
      <trkpt lat="41.038233" lon="-3.752533">
        <ele>2106.0</ele>
        <time>2016-07-25T17:20:49Z</time>
      </trkpt>
      <trkpt lat="41.038283" lon="-3.752567">
        <ele>2106.0</ele>
        <time>2016-07-25T17:20:50Z</time>
      </trkpt>
      <trkpt lat="41.038350" lon="-3.752567">
        <ele>2105.0</ele>
        <time>2016-07-25T17:20:51Z</time>
      </trkpt>
      <trkpt lat="41.038400" lon="-3.752583">
        <ele>2104.0</ele>
        <time>2016-07-25T17:20:52Z</time>
      </trkpt>
      <trkpt lat="41.038467" lon="-3.752567">
        <ele>2102.0</ele>
        <time>2016-07-25T17:20:53Z</time>
      </trkpt>
      <trkpt lat="41.038533" lon="-3.752550">
        <ele>2100.0</ele>
        <time>2016-07-25T17:20:54Z</time>
      </trkpt>
      <trkpt lat="41.038600" lon="-3.752533">
        <ele>2097.0</ele>
        <time>2016-07-25T17:20:55Z</time>
      </trkpt>
      <trkpt lat="41.038667" lon="-3.752500">
        <ele>2095.0</ele>
        <time>2016-07-25T17:20:56Z</time>
      </trkpt>
      <trkpt lat="41.038717" lon="-3.752483">
        <ele>2092.0</ele>
        <time>2016-07-25T17:20:57Z</time>
      </trkpt>
      <trkpt lat="41.038783" lon="-3.752483">
        <ele>2089.0</ele>
        <time>2016-07-25T17:20:58Z</time>
      </trkpt>
      <trkpt lat="41.038833" lon="-3.752483">
        <ele>2086.0</ele>
        <time>2016-07-25T17:20:59Z</time>
      </trkpt>
      <trkpt lat="41.038900" lon="-3.752500">
        <ele>2084.0</ele>
        <time>2016-07-25T17:21:00Z</time>
      </trkpt>
      <trkpt lat="41.038950" lon="-3.752500">
        <ele>2082.0</ele>
        <time>2016-07-25T17:21:01Z</time>
      </trkpt>
      <trkpt lat="41.039000" lon="-3.752483">
        <ele>2081.0</ele>
        <time>2016-07-25T17:21:02Z</time>
      </trkpt>
      <trkpt lat="41.039050" lon="-3.752483">
        <ele>2080.0</ele>
        <time>2016-07-25T17:21:03Z</time>
      </trkpt>
      <trkpt lat="41.039100" lon="-3.752483">
        <ele>2078.0</ele>
        <time>2016-07-25T17:21:04Z</time>
      </trkpt>
      <trkpt lat="41.039167" lon="-3.752500">
        <ele>2077.0</ele>
        <time>2016-07-25T17:21:05Z</time>
      </trkpt>
      <trkpt lat="41.039217" lon="-3.752533">
        <ele>2076.0</ele>
        <time>2016-07-25T17:21:06Z</time>
      </trkpt>
      <trkpt lat="41.039283" lon="-3.752550">
        <ele>2077.0</ele>
        <time>2016-07-25T17:21:07Z</time>
      </trkpt>
      <trkpt lat="41.039317" lon="-3.752583">
        <ele>2080.0</ele>
        <time>2016-07-25T17:21:08Z</time>
      </trkpt>
      <trkpt lat="41.039350" lon="-3.752600">
        <ele>2081.0</ele>
        <time>2016-07-25T17:21:09Z</time>
      </trkpt>
      <trkpt lat="41.039400" lon="-3.752600">
        <ele>2081.0</ele>
        <time>2016-07-25T17:21:10Z</time>
      </trkpt>
      <trkpt lat="41.039450" lon="-3.752600">
        <ele>2081.0</ele>
        <time>2016-07-25T17:21:11Z</time>
      </trkpt>
      <trkpt lat="41.039500" lon="-3.752567">
        <ele>2080.0</ele>
        <time>2016-07-25T17:21:12Z</time>
      </trkpt>
      <trkpt lat="41.039567" lon="-3.752550">
        <ele>2080.0</ele>
        <time>2016-07-25T17:21:13Z</time>
      </trkpt>
      <trkpt lat="41.039617" lon="-3.752533">
        <ele>2080.0</ele>
        <time>2016-07-25T17:21:14Z</time>
      </trkpt>
      <trkpt lat="41.039650" lon="-3.752533">
        <ele>2080.0</ele>
        <time>2016-07-25T17:21:15Z</time>
      </trkpt>
      <trkpt lat="41.039683" lon="-3.752517">
        <ele>2080.0</ele>
        <time>2016-07-25T17:21:16Z</time>
      </trkpt>
      <trkpt lat="41.039717" lon="-3.752533">
        <ele>2079.0</ele>
        <time>2016-07-25T17:21:17Z</time>
      </trkpt>
      <trkpt lat="41.039750" lon="-3.752533">
        <ele>2077.0</ele>
        <time>2016-07-25T17:21:18Z</time>
      </trkpt>
      <trkpt lat="41.039800" lon="-3.752567">
        <ele>2076.0</ele>
        <time>2016-07-25T17:21:19Z</time>
      </trkpt>
      <trkpt lat="41.039850" lon="-3.752600">
        <ele>2076.0</ele>
        <time>2016-07-25T17:21:20Z</time>
      </trkpt>
      <trkpt lat="41.039883" lon="-3.752633">
        <ele>2076.0</ele>
        <time>2016-07-25T17:21:21Z</time>
      </trkpt>
      <trkpt lat="41.039933" lon="-3.752667">
        <ele>2076.0</ele>
        <time>2016-07-25T17:21:22Z</time>
      </trkpt>
      <trkpt lat="41.039983" lon="-3.752683">
        <ele>2077.0</ele>
        <time>2016-07-25T17:21:23Z</time>
      </trkpt>
      <trkpt lat="41.040050" lon="-3.752700">
        <ele>2076.0</ele>
        <time>2016-07-25T17:21:24Z</time>
      </trkpt>
      <trkpt lat="41.040100" lon="-3.752733">
        <ele>2077.0</ele>
        <time>2016-07-25T17:21:25Z</time>
      </trkpt>
      <trkpt lat="41.040150" lon="-3.752767">
        <ele>2079.0</ele>
        <time>2016-07-25T17:21:26Z</time>
      </trkpt>
      <trkpt lat="41.040183" lon="-3.752783">
        <ele>2081.0</ele>
        <time>2016-07-25T17:21:27Z</time>
      </trkpt>
      <trkpt lat="41.040217" lon="-3.752817">
        <ele>2083.0</ele>
        <time>2016-07-25T17:21:28Z</time>
      </trkpt>
      <trkpt lat="41.040233" lon="-3.752850">
        <ele>2083.0</ele>
        <time>2016-07-25T17:21:29Z</time>
      </trkpt>
      <trkpt lat="41.040250" lon="-3.752900">
        <ele>2082.0</ele>
        <time>2016-07-25T17:21:30Z</time>
      </trkpt>
      <trkpt lat="41.040283" lon="-3.752950">
        <ele>2081.0</ele>
        <time>2016-07-25T17:21:31Z</time>
      </trkpt>
      <trkpt lat="41.040317" lon="-3.752983">
        <ele>2080.0</ele>
        <time>2016-07-25T17:21:32Z</time>
      </trkpt>
      <trkpt lat="41.040367" lon="-3.753000">
        <ele>2080.0</ele>
        <time>2016-07-25T17:21:33Z</time>
      </trkpt>
      <trkpt lat="41.040400" lon="-3.753033">
        <ele>2081.0</ele>
        <time>2016-07-25T17:21:34Z</time>
      </trkpt>
      <trkpt lat="41.040417" lon="-3.753050">
        <ele>2082.0</ele>
        <time>2016-07-25T17:21:35Z</time>
      </trkpt>
      <trkpt lat="41.040417" lon="-3.753050">
        <ele>2083.0</ele>
        <time>2016-07-25T17:21:36Z</time>
      </trkpt>
      <trkpt lat="41.040433" lon="-3.753050">
        <ele>2083.0</ele>
        <time>2016-07-25T17:21:37Z</time>
      </trkpt>
      <trkpt lat="41.040450" lon="-3.753067">
        <ele>2082.0</ele>
        <time>2016-07-25T17:21:38Z</time>
      </trkpt>
      <trkpt lat="41.040483" lon="-3.753083">
        <ele>2080.0</ele>
        <time>2016-07-25T17:21:39Z</time>
      </trkpt>
      <trkpt lat="41.040517" lon="-3.753117">
        <ele>2080.0</ele>
        <time>2016-07-25T17:21:40Z</time>
      </trkpt>
      <trkpt lat="41.040567" lon="-3.753167">
        <ele>2080.0</ele>
        <time>2016-07-25T17:21:41Z</time>
      </trkpt>
      <trkpt lat="41.040600" lon="-3.753183">
        <ele>2080.0</ele>
        <time>2016-07-25T17:21:42Z</time>
      </trkpt>
      <trkpt lat="41.040650" lon="-3.753200">
        <ele>2081.0</ele>
        <time>2016-07-25T17:21:43Z</time>
      </trkpt>
      <trkpt lat="41.040700" lon="-3.753217">
        <ele>2082.0</ele>
        <time>2016-07-25T17:21:44Z</time>
      </trkpt>
      <trkpt lat="41.040733" lon="-3.753250">
        <ele>2082.0</ele>
        <time>2016-07-25T17:21:45Z</time>
      </trkpt>
      <trkpt lat="41.040750" lon="-3.753267">
        <ele>2082.0</ele>
        <time>2016-07-25T17:21:46Z</time>
      </trkpt>
      <trkpt lat="41.040783" lon="-3.753300">
        <ele>2082.0</ele>
        <time>2016-07-25T17:21:47Z</time>
      </trkpt>
      <trkpt lat="41.040817" lon="-3.753350">
        <ele>2081.0</ele>
        <time>2016-07-25T17:21:48Z</time>
      </trkpt>
      <trkpt lat="41.040867" lon="-3.753400">
        <ele>2081.0</ele>
        <time>2016-07-25T17:21:49Z</time>
      </trkpt>
      <trkpt lat="41.040900" lon="-3.753467">
        <ele>2082.0</ele>
        <time>2016-07-25T17:21:50Z</time>
      </trkpt>
      <trkpt lat="41.040933" lon="-3.753517">
        <ele>2085.0</ele>
        <time>2016-07-25T17:21:51Z</time>
      </trkpt>
      <trkpt lat="41.040967" lon="-3.753567">
        <ele>2088.0</ele>
        <time>2016-07-25T17:21:52Z</time>
      </trkpt>
      <trkpt lat="41.041000" lon="-3.753600">
        <ele>2090.0</ele>
        <time>2016-07-25T17:21:53Z</time>
      </trkpt>
      <trkpt lat="41.041033" lon="-3.753633">
        <ele>2092.0</ele>
        <time>2016-07-25T17:21:54Z</time>
      </trkpt>
      <trkpt lat="41.041067" lon="-3.753683">
        <ele>2093.0</ele>
        <time>2016-07-25T17:21:55Z</time>
      </trkpt>
      <trkpt lat="41.041117" lon="-3.753717">
        <ele>2094.0</ele>
        <time>2016-07-25T17:21:56Z</time>
      </trkpt>
      <trkpt lat="41.041167" lon="-3.753767">
        <ele>2096.0</ele>
        <time>2016-07-25T17:21:57Z</time>
      </trkpt>
      <trkpt lat="41.041217" lon="-3.753817">
        <ele>2098.0</ele>
        <time>2016-07-25T17:21:58Z</time>
      </trkpt>
      <trkpt lat="41.041250" lon="-3.753850">
        <ele>2100.0</ele>
        <time>2016-07-25T17:21:59Z</time>
      </trkpt>
      <trkpt lat="41.041283" lon="-3.753900">
        <ele>2102.0</ele>
        <time>2016-07-25T17:22:00Z</time>
      </trkpt>
      <trkpt lat="41.041333" lon="-3.753967">
        <ele>2104.0</ele>
        <time>2016-07-25T17:22:01Z</time>
      </trkpt>
      <trkpt lat="41.041367" lon="-3.754017">
        <ele>2107.0</ele>
        <time>2016-07-25T17:22:02Z</time>
      </trkpt>
      <trkpt lat="41.041417" lon="-3.754050">
        <ele>2109.0</ele>
        <time>2016-07-25T17:22:03Z</time>
      </trkpt>
      <trkpt lat="41.041467" lon="-3.754067">
        <ele>2110.0</ele>
        <time>2016-07-25T17:22:04Z</time>
      </trkpt>
      <trkpt lat="41.041500" lon="-3.754100">
        <ele>2112.0</ele>
        <time>2016-07-25T17:22:05Z</time>
      </trkpt>
      <trkpt lat="41.041550" lon="-3.754150">
        <ele>2114.0</ele>
        <time>2016-07-25T17:22:06Z</time>
      </trkpt>
      <trkpt lat="41.041583" lon="-3.754183">
        <ele>2116.0</ele>
        <time>2016-07-25T17:22:07Z</time>
      </trkpt>
      <trkpt lat="41.041617" lon="-3.754217">
        <ele>2118.0</ele>
        <time>2016-07-25T17:22:08Z</time>
      </trkpt>
      <trkpt lat="41.041633" lon="-3.754250">
        <ele>2119.0</ele>
        <time>2016-07-25T17:22:09Z</time>
      </trkpt>
      <trkpt lat="41.041667" lon="-3.754283">
        <ele>2119.0</ele>
        <time>2016-07-25T17:22:10Z</time>
      </trkpt>
      <trkpt lat="41.041700" lon="-3.754317">
        <ele>2119.0</ele>
        <time>2016-07-25T17:22:11Z</time>
      </trkpt>
      <trkpt lat="41.041733" lon="-3.754333">
        <ele>2120.0</ele>
        <time>2016-07-25T17:22:12Z</time>
      </trkpt>
      <trkpt lat="41.041767" lon="-3.754350">
        <ele>2120.0</ele>
        <time>2016-07-25T17:22:13Z</time>
      </trkpt>
      <trkpt lat="41.041817" lon="-3.754350">
        <ele>2120.0</ele>
        <time>2016-07-25T17:22:14Z</time>
      </trkpt>
      <trkpt lat="41.041850" lon="-3.754333">
        <ele>2120.0</ele>
        <time>2016-07-25T17:22:15Z</time>
      </trkpt>
      <trkpt lat="41.041917" lon="-3.754300">
        <ele>2119.0</ele>
        <time>2016-07-25T17:22:16Z</time>
      </trkpt>
      <trkpt lat="41.041983" lon="-3.754300">
        <ele>2120.0</ele>
        <time>2016-07-25T17:22:17Z</time>
      </trkpt>
      <trkpt lat="41.042050" lon="-3.754283">
        <ele>2122.0</ele>
        <time>2016-07-25T17:22:18Z</time>
      </trkpt>
      <trkpt lat="41.042100" lon="-3.754300">
        <ele>2125.0</ele>
        <time>2016-07-25T17:22:19Z</time>
      </trkpt>
      <trkpt lat="41.042133" lon="-3.754317">
        <ele>2126.0</ele>
        <time>2016-07-25T17:22:20Z</time>
      </trkpt>
      <trkpt lat="41.042183" lon="-3.754317">
        <ele>2128.0</ele>
        <time>2016-07-25T17:22:21Z</time>
      </trkpt>
      <trkpt lat="41.042217" lon="-3.754317">
        <ele>2127.0</ele>
        <time>2016-07-25T17:22:22Z</time>
      </trkpt>
      <trkpt lat="41.042267" lon="-3.754317">
        <ele>2127.0</ele>
        <time>2016-07-25T17:22:23Z</time>
      </trkpt>
      <trkpt lat="41.042333" lon="-3.754283">
        <ele>2127.0</ele>
        <time>2016-07-25T17:22:24Z</time>
      </trkpt>
      <trkpt lat="41.042383" lon="-3.754250">
        <ele>2129.0</ele>
        <time>2016-07-25T17:22:25Z</time>
      </trkpt>
      <trkpt lat="41.042433" lon="-3.754217">
        <ele>2133.0</ele>
        <time>2016-07-25T17:22:26Z</time>
      </trkpt>
      <trkpt lat="41.042467" lon="-3.754200">
        <ele>2136.0</ele>
        <time>2016-07-25T17:22:27Z</time>
      </trkpt>
      <trkpt lat="41.042500" lon="-3.754183">
        <ele>2137.0</ele>
        <time>2016-07-25T17:22:28Z</time>
      </trkpt>
      <trkpt lat="41.042533" lon="-3.754183">
        <ele>2137.0</ele>
        <time>2016-07-25T17:22:29Z</time>
      </trkpt>
      <trkpt lat="41.042583" lon="-3.754150">
        <ele>2139.0</ele>
        <time>2016-07-25T17:22:30Z</time>
      </trkpt>
      <trkpt lat="41.042633" lon="-3.754117">
        <ele>2141.0</ele>
        <time>2016-07-25T17:22:31Z</time>
      </trkpt>
      <trkpt lat="41.042667" lon="-3.754050">
        <ele>2144.0</ele>
        <time>2016-07-25T17:22:32Z</time>
      </trkpt>
      <trkpt lat="41.042700" lon="-3.754000">
        <ele>2146.0</ele>
        <time>2016-07-25T17:22:33Z</time>
      </trkpt>
      <trkpt lat="41.042750" lon="-3.753950">
        <ele>2148.0</ele>
        <time>2016-07-25T17:22:34Z</time>
      </trkpt>
      <trkpt lat="41.042783" lon="-3.753900">
        <ele>2148.0</ele>
        <time>2016-07-25T17:22:35Z</time>
      </trkpt>
      <trkpt lat="41.042817" lon="-3.753850">
        <ele>2148.0</ele>
        <time>2016-07-25T17:22:36Z</time>
      </trkpt>
      <trkpt lat="41.042867" lon="-3.753783">
        <ele>2149.0</ele>
        <time>2016-07-25T17:22:37Z</time>
      </trkpt>
      <trkpt lat="41.042883" lon="-3.753700">
        <ele>2149.0</ele>
        <time>2016-07-25T17:22:38Z</time>
      </trkpt>
      <trkpt lat="41.042883" lon="-3.753600">
        <ele>2149.0</ele>
        <time>2016-07-25T17:22:39Z</time>
      </trkpt>
      <trkpt lat="41.042883" lon="-3.753467">
        <ele>2148.0</ele>
        <time>2016-07-25T17:22:40Z</time>
      </trkpt>
      <trkpt lat="41.042850" lon="-3.753333">
        <ele>2148.0</ele>
        <time>2016-07-25T17:22:41Z</time>
      </trkpt>
      <trkpt lat="41.042800" lon="-3.753217">
        <ele>2148.0</ele>
        <time>2016-07-25T17:22:42Z</time>
      </trkpt>
      <trkpt lat="41.042717" lon="-3.753100">
        <ele>2148.0</ele>
        <time>2016-07-25T17:22:43Z</time>
      </trkpt>
      <trkpt lat="41.042600" lon="-3.753033">
        <ele>2147.0</ele>
        <time>2016-07-25T17:22:44Z</time>
      </trkpt>
      <trkpt lat="41.042483" lon="-3.752983">
        <ele>2148.0</ele>
        <time>2016-07-25T17:22:45Z</time>
      </trkpt>
      <trkpt lat="41.042367" lon="-3.752983">
        <ele>2150.0</ele>
        <time>2016-07-25T17:22:46Z</time>
      </trkpt>
      <trkpt lat="41.042267" lon="-3.752983">
        <ele>2153.0</ele>
        <time>2016-07-25T17:22:47Z</time>
      </trkpt>
      <trkpt lat="41.042183" lon="-3.752983">
        <ele>2155.0</ele>
        <time>2016-07-25T17:22:48Z</time>
      </trkpt>
      <trkpt lat="41.042100" lon="-3.753000">
        <ele>2156.0</ele>
        <time>2016-07-25T17:22:49Z</time>
      </trkpt>
      <trkpt lat="41.042033" lon="-3.753033">
        <ele>2156.0</ele>
        <time>2016-07-25T17:22:50Z</time>
      </trkpt>
      <trkpt lat="41.041967" lon="-3.753100">
        <ele>2156.0</ele>
        <time>2016-07-25T17:22:51Z</time>
      </trkpt>
      <trkpt lat="41.041917" lon="-3.753183">
        <ele>2157.0</ele>
        <time>2016-07-25T17:22:52Z</time>
      </trkpt>
      <trkpt lat="41.041883" lon="-3.753267">
        <ele>2159.0</ele>
        <time>2016-07-25T17:22:53Z</time>
      </trkpt>
      <trkpt lat="41.041867" lon="-3.753350">
        <ele>2161.0</ele>
        <time>2016-07-25T17:22:54Z</time>
      </trkpt>
      <trkpt lat="41.041867" lon="-3.753417">
        <ele>2163.0</ele>
        <time>2016-07-25T17:22:55Z</time>
      </trkpt>
      <trkpt lat="41.041867" lon="-3.753483">
        <ele>2165.0</ele>
        <time>2016-07-25T17:22:56Z</time>
      </trkpt>
      <trkpt lat="41.041883" lon="-3.753533">
        <ele>2166.0</ele>
        <time>2016-07-25T17:22:57Z</time>
      </trkpt>
      <trkpt lat="41.041917" lon="-3.753600">
        <ele>2168.0</ele>
        <time>2016-07-25T17:22:58Z</time>
      </trkpt>
      <trkpt lat="41.041950" lon="-3.753633">
        <ele>2170.0</ele>
        <time>2016-07-25T17:22:59Z</time>
      </trkpt>
      <trkpt lat="41.041983" lon="-3.753683">
        <ele>2173.0</ele>
        <time>2016-07-25T17:23:00Z</time>
      </trkpt>
      <trkpt lat="41.042000" lon="-3.753717">
        <ele>2176.0</ele>
        <time>2016-07-25T17:23:01Z</time>
      </trkpt>
      <trkpt lat="41.042017" lon="-3.753767">
        <ele>2178.0</ele>
        <time>2016-07-25T17:23:02Z</time>
      </trkpt>
      <trkpt lat="41.042033" lon="-3.753800">
        <ele>2179.0</ele>
        <time>2016-07-25T17:23:03Z</time>
      </trkpt>
      <trkpt lat="41.042067" lon="-3.753833">
        <ele>2180.0</ele>
        <time>2016-07-25T17:23:04Z</time>
      </trkpt>
      <trkpt lat="41.042100" lon="-3.753850">
        <ele>2182.0</ele>
        <time>2016-07-25T17:23:05Z</time>
      </trkpt>
      <trkpt lat="41.042150" lon="-3.753850">
        <ele>2184.0</ele>
        <time>2016-07-25T17:23:06Z</time>
      </trkpt>
      <trkpt lat="41.042183" lon="-3.753850">
        <ele>2187.0</ele>
        <time>2016-07-25T17:23:07Z</time>
      </trkpt>
      <trkpt lat="41.042233" lon="-3.753833">
        <ele>2189.0</ele>
        <time>2016-07-25T17:23:08Z</time>
      </trkpt>
      <trkpt lat="41.042267" lon="-3.753833">
        <ele>2191.0</ele>
        <time>2016-07-25T17:23:09Z</time>
      </trkpt>
      <trkpt lat="41.042317" lon="-3.753817">
        <ele>2193.0</ele>
        <time>2016-07-25T17:23:10Z</time>
      </trkpt>
      <trkpt lat="41.042367" lon="-3.753783">
        <ele>2194.0</ele>
        <time>2016-07-25T17:23:11Z</time>
      </trkpt>
      <trkpt lat="41.042417" lon="-3.753767">
        <ele>2196.0</ele>
        <time>2016-07-25T17:23:12Z</time>
      </trkpt>
      <trkpt lat="41.042483" lon="-3.753733">
        <ele>2198.0</ele>
        <time>2016-07-25T17:23:13Z</time>
      </trkpt>
      <trkpt lat="41.042533" lon="-3.753717">
        <ele>2200.0</ele>
        <time>2016-07-25T17:23:14Z</time>
      </trkpt>
      <trkpt lat="41.042583" lon="-3.753733">
        <ele>2204.0</ele>
        <time>2016-07-25T17:23:15Z</time>
      </trkpt>
      <trkpt lat="41.042617" lon="-3.753733">
        <ele>2208.0</ele>
        <time>2016-07-25T17:23:16Z</time>
      </trkpt>
      <trkpt lat="41.042650" lon="-3.753750">
        <ele>2211.0</ele>
        <time>2016-07-25T17:23:17Z</time>
      </trkpt>
      <trkpt lat="41.042683" lon="-3.753750">
        <ele>2214.0</ele>
        <time>2016-07-25T17:23:18Z</time>
      </trkpt>
      <trkpt lat="41.042717" lon="-3.753750">
        <ele>2217.0</ele>
        <time>2016-07-25T17:23:19Z</time>
      </trkpt>
      <trkpt lat="41.042733" lon="-3.753717">
        <ele>2219.0</ele>
        <time>2016-07-25T17:23:20Z</time>
      </trkpt>
      <trkpt lat="41.042767" lon="-3.753683">
        <ele>2221.0</ele>
        <time>2016-07-25T17:23:21Z</time>
      </trkpt>
      <trkpt lat="41.042783" lon="-3.753600">
        <ele>2223.0</ele>
        <time>2016-07-25T17:23:22Z</time>
      </trkpt>
      <trkpt lat="41.042800" lon="-3.753500">
        <ele>2224.0</ele>
        <time>2016-07-25T17:23:23Z</time>
      </trkpt>
      <trkpt lat="41.042783" lon="-3.753333">
        <ele>2223.0</ele>
        <time>2016-07-25T17:23:24Z</time>
      </trkpt>
      <trkpt lat="41.042733" lon="-3.753167">
        <ele>2223.0</ele>
        <time>2016-07-25T17:23:25Z</time>
      </trkpt>
      <trkpt lat="41.042617" lon="-3.753017">
        <ele>2225.0</ele>
        <time>2016-07-25T17:23:26Z</time>
      </trkpt>
      <trkpt lat="41.042517" lon="-3.752933">
        <ele>2230.0</ele>
        <time>2016-07-25T17:23:27Z</time>
      </trkpt>
      <trkpt lat="41.042417" lon="-3.752900">
        <ele>2234.0</ele>
        <time>2016-07-25T17:23:28Z</time>
      </trkpt>
      <trkpt lat="41.042317" lon="-3.752883">
        <ele>2236.0</ele>
        <time>2016-07-25T17:23:29Z</time>
      </trkpt>
      <trkpt lat="41.042233" lon="-3.752883">
        <ele>2238.0</ele>
        <time>2016-07-25T17:23:30Z</time>
      </trkpt>
      <trkpt lat="41.042150" lon="-3.752900">
        <ele>2240.0</ele>
        <time>2016-07-25T17:23:31Z</time>
      </trkpt>
      <trkpt lat="41.042067" lon="-3.752950">
        <ele>2242.0</ele>
        <time>2016-07-25T17:23:32Z</time>
      </trkpt>
      <trkpt lat="41.042000" lon="-3.753000">
        <ele>2243.0</ele>
        <time>2016-07-25T17:23:33Z</time>
      </trkpt>
      <trkpt lat="41.041967" lon="-3.753067">
        <ele>2246.0</ele>
        <time>2016-07-25T17:23:34Z</time>
      </trkpt>
      <trkpt lat="41.041933" lon="-3.753133">
        <ele>2248.0</ele>
        <time>2016-07-25T17:23:35Z</time>
      </trkpt>
      <trkpt lat="41.041900" lon="-3.753200">
        <ele>2250.0</ele>
        <time>2016-07-25T17:23:36Z</time>
      </trkpt>
      <trkpt lat="41.041883" lon="-3.753267">
        <ele>2253.0</ele>
        <time>2016-07-25T17:23:37Z</time>
      </trkpt>
      <trkpt lat="41.041867" lon="-3.753333">
        <ele>2255.0</ele>
        <time>2016-07-25T17:23:38Z</time>
      </trkpt>
      <trkpt lat="41.041867" lon="-3.753383">
        <ele>2257.0</ele>
        <time>2016-07-25T17:23:39Z</time>
      </trkpt>
      <trkpt lat="41.041867" lon="-3.753417">
        <ele>2258.0</ele>
        <time>2016-07-25T17:23:40Z</time>
      </trkpt>
      <trkpt lat="41.041883" lon="-3.753467">
        <ele>2259.0</ele>
        <time>2016-07-25T17:23:41Z</time>
      </trkpt>
      <trkpt lat="41.041900" lon="-3.753500">
        <ele>2259.0</ele>
        <time>2016-07-25T17:23:42Z</time>
      </trkpt>
      <trkpt lat="41.041917" lon="-3.753533">
        <ele>2259.0</ele>
        <time>2016-07-25T17:23:43Z</time>
      </trkpt>
      <trkpt lat="41.041933" lon="-3.753550">
        <ele>2259.0</ele>
        <time>2016-07-25T17:23:44Z</time>
      </trkpt>
      <trkpt lat="41.041950" lon="-3.753567">
        <ele>2259.0</ele>
        <time>2016-07-25T17:23:45Z</time>
      </trkpt>
      <trkpt lat="41.041983" lon="-3.753567">
        <ele>2259.0</ele>
        <time>2016-07-25T17:23:46Z</time>
      </trkpt>
      <trkpt lat="41.042033" lon="-3.753550">
        <ele>2258.0</ele>
        <time>2016-07-25T17:23:47Z</time>
      </trkpt>
      <trkpt lat="41.042067" lon="-3.753550">
        <ele>2258.0</ele>
        <time>2016-07-25T17:23:48Z</time>
      </trkpt>
      <trkpt lat="41.042117" lon="-3.753533">
        <ele>2258.0</ele>
        <time>2016-07-25T17:23:49Z</time>
      </trkpt>
      <trkpt lat="41.042150" lon="-3.753533">
        <ele>2257.0</ele>
        <time>2016-07-25T17:23:50Z</time>
      </trkpt>
      <trkpt lat="41.042200" lon="-3.753517">
        <ele>2257.0</ele>
        <time>2016-07-25T17:23:51Z</time>
      </trkpt>
      <trkpt lat="41.042250" lon="-3.753517">
        <ele>2256.0</ele>
        <time>2016-07-25T17:23:52Z</time>
      </trkpt>
      <trkpt lat="41.042283" lon="-3.753500">
        <ele>2255.0</ele>
        <time>2016-07-25T17:23:53Z</time>
      </trkpt>
      <trkpt lat="41.042333" lon="-3.753483">
        <ele>2255.0</ele>
        <time>2016-07-25T17:23:54Z</time>
      </trkpt>
      <trkpt lat="41.042383" lon="-3.753450">
        <ele>2255.0</ele>
        <time>2016-07-25T17:23:55Z</time>
      </trkpt>
      <trkpt lat="41.042433" lon="-3.753417">
        <ele>2255.0</ele>
        <time>2016-07-25T17:23:56Z</time>
      </trkpt>
      <trkpt lat="41.042467" lon="-3.753350">
        <ele>2255.0</ele>
        <time>2016-07-25T17:23:57Z</time>
      </trkpt>
      <trkpt lat="41.042517" lon="-3.753300">
        <ele>2254.0</ele>
        <time>2016-07-25T17:23:58Z</time>
      </trkpt>
      <trkpt lat="41.042567" lon="-3.753233">
        <ele>2254.0</ele>
        <time>2016-07-25T17:23:59Z</time>
      </trkpt>
      <trkpt lat="41.042617" lon="-3.753150">
        <ele>2254.0</ele>
        <time>2016-07-25T17:24:00Z</time>
      </trkpt>
      <trkpt lat="41.042650" lon="-3.753067">
        <ele>2254.0</ele>
        <time>2016-07-25T17:24:01Z</time>
      </trkpt>
      <trkpt lat="41.042700" lon="-3.752967">
        <ele>2255.0</ele>
        <time>2016-07-25T17:24:02Z</time>
      </trkpt>
      <trkpt lat="41.042750" lon="-3.752867">
        <ele>2255.0</ele>
        <time>2016-07-25T17:24:03Z</time>
      </trkpt>
      <trkpt lat="41.042800" lon="-3.752783">
        <ele>2254.0</ele>
        <time>2016-07-25T17:24:04Z</time>
      </trkpt>
      <trkpt lat="41.042867" lon="-3.752683">
        <ele>2254.0</ele>
        <time>2016-07-25T17:24:05Z</time>
      </trkpt>
      <trkpt lat="41.042900" lon="-3.752583">
        <ele>2255.0</ele>
        <time>2016-07-25T17:24:06Z</time>
      </trkpt>
      <trkpt lat="41.042933" lon="-3.752500">
        <ele>2255.0</ele>
        <time>2016-07-25T17:24:07Z</time>
      </trkpt>
      <trkpt lat="41.042967" lon="-3.752417">
        <ele>2254.0</ele>
        <time>2016-07-25T17:24:08Z</time>
      </trkpt>
      <trkpt lat="41.043000" lon="-3.752350">
        <ele>2253.0</ele>
        <time>2016-07-25T17:24:09Z</time>
      </trkpt>
      <trkpt lat="41.043050" lon="-3.752250">
        <ele>2250.0</ele>
        <time>2016-07-25T17:24:10Z</time>
      </trkpt>
      <trkpt lat="41.043100" lon="-3.752167">
        <ele>2249.0</ele>
        <time>2016-07-25T17:24:11Z</time>
      </trkpt>
      <trkpt lat="41.043150" lon="-3.752083">
        <ele>2248.0</ele>
        <time>2016-07-25T17:24:12Z</time>
      </trkpt>
      <trkpt lat="41.043217" lon="-3.751983">
        <ele>2247.0</ele>
        <time>2016-07-25T17:24:13Z</time>
      </trkpt>
      <trkpt lat="41.043283" lon="-3.751900">
        <ele>2245.0</ele>
        <time>2016-07-25T17:24:14Z</time>
      </trkpt>
      <trkpt lat="41.043333" lon="-3.751817">
        <ele>2244.0</ele>
        <time>2016-07-25T17:24:15Z</time>
      </trkpt>
      <trkpt lat="41.043400" lon="-3.751717">
        <ele>2243.0</ele>
        <time>2016-07-25T17:24:16Z</time>
      </trkpt>
      <trkpt lat="41.043450" lon="-3.751617">
        <ele>2242.0</ele>
        <time>2016-07-25T17:24:17Z</time>
      </trkpt>
      <trkpt lat="41.043500" lon="-3.751517">
        <ele>2240.0</ele>
        <time>2016-07-25T17:24:18Z</time>
      </trkpt>
      <trkpt lat="41.043550" lon="-3.751433">
        <ele>2238.0</ele>
        <time>2016-07-25T17:24:19Z</time>
      </trkpt>
      <trkpt lat="41.043617" lon="-3.751350">
        <ele>2236.0</ele>
        <time>2016-07-25T17:24:20Z</time>
      </trkpt>
      <trkpt lat="41.043667" lon="-3.751250">
        <ele>2235.0</ele>
        <time>2016-07-25T17:24:21Z</time>
      </trkpt>
      <trkpt lat="41.043717" lon="-3.751167">
        <ele>2235.0</ele>
        <time>2016-07-25T17:24:22Z</time>
      </trkpt>
      <trkpt lat="41.043750" lon="-3.751083">
        <ele>2234.0</ele>
        <time>2016-07-25T17:24:23Z</time>
      </trkpt>
      <trkpt lat="41.043767" lon="-3.751017">
        <ele>2233.0</ele>
        <time>2016-07-25T17:24:24Z</time>
      </trkpt>
      <trkpt lat="41.043817" lon="-3.750933">
        <ele>2230.0</ele>
        <time>2016-07-25T17:24:25Z</time>
      </trkpt>
      <trkpt lat="41.043850" lon="-3.750850">
        <ele>2227.0</ele>
        <time>2016-07-25T17:24:26Z</time>
      </trkpt>
      <trkpt lat="41.043917" lon="-3.750783">
        <ele>2225.0</ele>
        <time>2016-07-25T17:24:27Z</time>
      </trkpt>
      <trkpt lat="41.043950" lon="-3.750733">
        <ele>2225.0</ele>
        <time>2016-07-25T17:24:28Z</time>
      </trkpt>
      <trkpt lat="41.043983" lon="-3.750683">
        <ele>2225.0</ele>
        <time>2016-07-25T17:24:29Z</time>
      </trkpt>
      <trkpt lat="41.044017" lon="-3.750650">
        <ele>2226.0</ele>
        <time>2016-07-25T17:24:30Z</time>
      </trkpt>
      <trkpt lat="41.044033" lon="-3.750600">
        <ele>2226.0</ele>
        <time>2016-07-25T17:24:31Z</time>
      </trkpt>
      <trkpt lat="41.044050" lon="-3.750550">
        <ele>2226.0</ele>
        <time>2016-07-25T17:24:32Z</time>
      </trkpt>
      <trkpt lat="41.044067" lon="-3.750500">
        <ele>2224.0</ele>
        <time>2016-07-25T17:24:33Z</time>
      </trkpt>
      <trkpt lat="41.044117" lon="-3.750450">
        <ele>2222.0</ele>
        <time>2016-07-25T17:24:34Z</time>
      </trkpt>
      <trkpt lat="41.044167" lon="-3.750400">
        <ele>2221.0</ele>
        <time>2016-07-25T17:24:35Z</time>
      </trkpt>
      <trkpt lat="41.044217" lon="-3.750350">
        <ele>2222.0</ele>
        <time>2016-07-25T17:24:36Z</time>
      </trkpt>
      <trkpt lat="41.044233" lon="-3.750300">
        <ele>2223.0</ele>
        <time>2016-07-25T17:24:37Z</time>
      </trkpt>
      <trkpt lat="41.044250" lon="-3.750250">
        <ele>2223.0</ele>
        <time>2016-07-25T17:24:38Z</time>
      </trkpt>
      <trkpt lat="41.044283" lon="-3.750217">
        <ele>2222.0</ele>
        <time>2016-07-25T17:24:39Z</time>
      </trkpt>
      <trkpt lat="41.044317" lon="-3.750167">
        <ele>2219.0</ele>
        <time>2016-07-25T17:24:40Z</time>
      </trkpt>
      <trkpt lat="41.044367" lon="-3.750133">
        <ele>2217.0</ele>
        <time>2016-07-25T17:24:41Z</time>
      </trkpt>
      <trkpt lat="41.044433" lon="-3.750100">
        <ele>2217.0</ele>
        <time>2016-07-25T17:24:42Z</time>
      </trkpt>
      <trkpt lat="41.044467" lon="-3.750083">
        <ele>2217.0</ele>
        <time>2016-07-25T17:24:43Z</time>
      </trkpt>
      <trkpt lat="41.044517" lon="-3.750050">
        <ele>2217.0</ele>
        <time>2016-07-25T17:24:44Z</time>
      </trkpt>
      <trkpt lat="41.044550" lon="-3.750033">
        <ele>2216.0</ele>
        <time>2016-07-25T17:24:45Z</time>
      </trkpt>
      <trkpt lat="41.044583" lon="-3.750033">
        <ele>2215.0</ele>
        <time>2016-07-25T17:24:46Z</time>
      </trkpt>
      <trkpt lat="41.044617" lon="-3.750017">
        <ele>2213.0</ele>
        <time>2016-07-25T17:24:47Z</time>
      </trkpt>
      <trkpt lat="41.044683" lon="-3.750000">
        <ele>2211.0</ele>
        <time>2016-07-25T17:24:48Z</time>
      </trkpt>
      <trkpt lat="41.044733" lon="-3.749983">
        <ele>2210.0</ele>
        <time>2016-07-25T17:24:49Z</time>
      </trkpt>
      <trkpt lat="41.044783" lon="-3.749983">
        <ele>2210.0</ele>
        <time>2016-07-25T17:24:50Z</time>
      </trkpt>
      <trkpt lat="41.044817" lon="-3.749967">
        <ele>2210.0</ele>
        <time>2016-07-25T17:24:51Z</time>
      </trkpt>
      <trkpt lat="41.044867" lon="-3.749950">
        <ele>2210.0</ele>
        <time>2016-07-25T17:24:52Z</time>
      </trkpt>
      <trkpt lat="41.044900" lon="-3.749917">
        <ele>2210.0</ele>
        <time>2016-07-25T17:24:53Z</time>
      </trkpt>
      <trkpt lat="41.044933" lon="-3.749867">
        <ele>2210.0</ele>
        <time>2016-07-25T17:24:54Z</time>
      </trkpt>
      <trkpt lat="41.044983" lon="-3.749817">
        <ele>2210.0</ele>
        <time>2016-07-25T17:24:55Z</time>
      </trkpt>
      <trkpt lat="41.045017" lon="-3.749783">
        <ele>2210.0</ele>
        <time>2016-07-25T17:24:56Z</time>
      </trkpt>
      <trkpt lat="41.045050" lon="-3.749750">
        <ele>2209.0</ele>
        <time>2016-07-25T17:24:57Z</time>
      </trkpt>
      <trkpt lat="41.045083" lon="-3.749733">
        <ele>2208.0</ele>
        <time>2016-07-25T17:24:58Z</time>
      </trkpt>
      <trkpt lat="41.045133" lon="-3.749717">
        <ele>2207.0</ele>
        <time>2016-07-25T17:24:59Z</time>
      </trkpt>
      <trkpt lat="41.045183" lon="-3.749700">
        <ele>2206.0</ele>
        <time>2016-07-25T17:25:00Z</time>
      </trkpt>
      <trkpt lat="41.045233" lon="-3.749700">
        <ele>2206.0</ele>
        <time>2016-07-25T17:25:01Z</time>
      </trkpt>
      <trkpt lat="41.045283" lon="-3.749683">
        <ele>2207.0</ele>
        <time>2016-07-25T17:25:02Z</time>
      </trkpt>
      <trkpt lat="41.045317" lon="-3.749683">
        <ele>2207.0</ele>
        <time>2016-07-25T17:25:03Z</time>
      </trkpt>
      <trkpt lat="41.045367" lon="-3.749683">
        <ele>2207.0</ele>
        <time>2016-07-25T17:25:04Z</time>
      </trkpt>
      <trkpt lat="41.045417" lon="-3.749667">
        <ele>2206.0</ele>
        <time>2016-07-25T17:25:05Z</time>
      </trkpt>
      <trkpt lat="41.045467" lon="-3.749667">
        <ele>2206.0</ele>
        <time>2016-07-25T17:25:06Z</time>
      </trkpt>
      <trkpt lat="41.045517" lon="-3.749667">
        <ele>2207.0</ele>
        <time>2016-07-25T17:25:07Z</time>
      </trkpt>
      <trkpt lat="41.045567" lon="-3.749667">
        <ele>2209.0</ele>
        <time>2016-07-25T17:25:08Z</time>
      </trkpt>
      <trkpt lat="41.045600" lon="-3.749650">
        <ele>2211.0</ele>
        <time>2016-07-25T17:25:09Z</time>
      </trkpt>
      <trkpt lat="41.045633" lon="-3.749650">
        <ele>2213.0</ele>
        <time>2016-07-25T17:25:10Z</time>
      </trkpt>
      <trkpt lat="41.045667" lon="-3.749667">
        <ele>2214.0</ele>
        <time>2016-07-25T17:25:11Z</time>
      </trkpt>
      <trkpt lat="41.045717" lon="-3.749667">
        <ele>2214.0</ele>
        <time>2016-07-25T17:25:12Z</time>
      </trkpt>
      <trkpt lat="41.045750" lon="-3.749683">
        <ele>2215.0</ele>
        <time>2016-07-25T17:25:13Z</time>
      </trkpt>
      <trkpt lat="41.045800" lon="-3.749683">
        <ele>2216.0</ele>
        <time>2016-07-25T17:25:14Z</time>
      </trkpt>
      <trkpt lat="41.045850" lon="-3.749683">
        <ele>2217.0</ele>
        <time>2016-07-25T17:25:15Z</time>
      </trkpt>
      <trkpt lat="41.045883" lon="-3.749667">
        <ele>2218.0</ele>
        <time>2016-07-25T17:25:16Z</time>
      </trkpt>
      <trkpt lat="41.045917" lon="-3.749667">
        <ele>2219.0</ele>
        <time>2016-07-25T17:25:17Z</time>
      </trkpt>
      <trkpt lat="41.045967" lon="-3.749650">
        <ele>2219.0</ele>
        <time>2016-07-25T17:25:18Z</time>
      </trkpt>
      <trkpt lat="41.046017" lon="-3.749650">
        <ele>2220.0</ele>
        <time>2016-07-25T17:25:19Z</time>
      </trkpt>
      <trkpt lat="41.046067" lon="-3.749633">
        <ele>2221.0</ele>
        <time>2016-07-25T17:25:20Z</time>
      </trkpt>
      <trkpt lat="41.046117" lon="-3.749617">
        <ele>2222.0</ele>
        <time>2016-07-25T17:25:21Z</time>
      </trkpt>
      <trkpt lat="41.046167" lon="-3.749617">
        <ele>2225.0</ele>
        <time>2016-07-25T17:25:22Z</time>
      </trkpt>
      <trkpt lat="41.046200" lon="-3.749600">
        <ele>2228.0</ele>
        <time>2016-07-25T17:25:23Z</time>
      </trkpt>
      <trkpt lat="41.046233" lon="-3.749583">
        <ele>2231.0</ele>
        <time>2016-07-25T17:25:24Z</time>
      </trkpt>
      <trkpt lat="41.046250" lon="-3.749583">
        <ele>2233.0</ele>
        <time>2016-07-25T17:25:25Z</time>
      </trkpt>
      <trkpt lat="41.046267" lon="-3.749600">
        <ele>2235.0</ele>
        <time>2016-07-25T17:25:26Z</time>
      </trkpt>
      <trkpt lat="41.046300" lon="-3.749600">
        <ele>2236.0</ele>
        <time>2016-07-25T17:25:27Z</time>
      </trkpt>
      <trkpt lat="41.046333" lon="-3.749617">
        <ele>2238.0</ele>
        <time>2016-07-25T17:25:28Z</time>
      </trkpt>
      <trkpt lat="41.046367" lon="-3.749633">
        <ele>2240.0</ele>
        <time>2016-07-25T17:25:29Z</time>
      </trkpt>
      <trkpt lat="41.046417" lon="-3.749650">
        <ele>2242.0</ele>
        <time>2016-07-25T17:25:30Z</time>
      </trkpt>
      <trkpt lat="41.046450" lon="-3.749667">
        <ele>2244.0</ele>
        <time>2016-07-25T17:25:31Z</time>
      </trkpt>
      <trkpt lat="41.046483" lon="-3.749683">
        <ele>2247.0</ele>
        <time>2016-07-25T17:25:32Z</time>
      </trkpt>
      <trkpt lat="41.046533" lon="-3.749700">
        <ele>2249.0</ele>
        <time>2016-07-25T17:25:33Z</time>
      </trkpt>
      <trkpt lat="41.046567" lon="-3.749717">
        <ele>2252.0</ele>
        <time>2016-07-25T17:25:34Z</time>
      </trkpt>
      <trkpt lat="41.046600" lon="-3.749750">
        <ele>2254.0</ele>
        <time>2016-07-25T17:25:35Z</time>
      </trkpt>
      <trkpt lat="41.046633" lon="-3.749767">
        <ele>2256.0</ele>
        <time>2016-07-25T17:25:36Z</time>
      </trkpt>
      <trkpt lat="41.046667" lon="-3.749783">
        <ele>2258.0</ele>
        <time>2016-07-25T17:25:37Z</time>
      </trkpt>
      <trkpt lat="41.046700" lon="-3.749800">
        <ele>2259.0</ele>
        <time>2016-07-25T17:25:38Z</time>
      </trkpt>
      <trkpt lat="41.046750" lon="-3.749800">
        <ele>2259.0</ele>
        <time>2016-07-25T17:25:39Z</time>
      </trkpt>
      <trkpt lat="41.046800" lon="-3.749767">
        <ele>2259.0</ele>
        <time>2016-07-25T17:25:40Z</time>
      </trkpt>
      <trkpt lat="41.046833" lon="-3.749733">
        <ele>2260.0</ele>
        <time>2016-07-25T17:25:41Z</time>
      </trkpt>
      <trkpt lat="41.046883" lon="-3.749683">
        <ele>2261.0</ele>
        <time>2016-07-25T17:25:42Z</time>
      </trkpt>
      <trkpt lat="41.046917" lon="-3.749617">
        <ele>2261.0</ele>
        <time>2016-07-25T17:25:43Z</time>
      </trkpt>
      <trkpt lat="41.046950" lon="-3.749567">
        <ele>2262.0</ele>
        <time>2016-07-25T17:25:44Z</time>
      </trkpt>
      <trkpt lat="41.047000" lon="-3.749500">
        <ele>2262.0</ele>
        <time>2016-07-25T17:25:45Z</time>
      </trkpt>
      <trkpt lat="41.047033" lon="-3.749433">
        <ele>2263.0</ele>
        <time>2016-07-25T17:25:46Z</time>
      </trkpt>
      <trkpt lat="41.047067" lon="-3.749350">
        <ele>2263.0</ele>
        <time>2016-07-25T17:25:47Z</time>
      </trkpt>
      <trkpt lat="41.047083" lon="-3.749250">
        <ele>2264.0</ele>
        <time>2016-07-25T17:25:48Z</time>
      </trkpt>
      <trkpt lat="41.047083" lon="-3.749133">
        <ele>2264.0</ele>
        <time>2016-07-25T17:25:49Z</time>
      </trkpt>
      <trkpt lat="41.047083" lon="-3.749017">
        <ele>2264.0</ele>
        <time>2016-07-25T17:25:50Z</time>
      </trkpt>
      <trkpt lat="41.047067" lon="-3.748883">
        <ele>2265.0</ele>
        <time>2016-07-25T17:25:51Z</time>
      </trkpt>
      <trkpt lat="41.047033" lon="-3.748750">
        <ele>2265.0</ele>
        <time>2016-07-25T17:25:52Z</time>
      </trkpt>
      <trkpt lat="41.046983" lon="-3.748617">
        <ele>2265.0</ele>
        <time>2016-07-25T17:25:53Z</time>
      </trkpt>
      <trkpt lat="41.046917" lon="-3.748483">
        <ele>2266.0</ele>
        <time>2016-07-25T17:25:54Z</time>
      </trkpt>
      <trkpt lat="41.046833" lon="-3.748367">
        <ele>2267.0</ele>
        <time>2016-07-25T17:25:55Z</time>
      </trkpt>
      <trkpt lat="41.046733" lon="-3.748267">
        <ele>2268.0</ele>
        <time>2016-07-25T17:25:56Z</time>
      </trkpt>
      <trkpt lat="41.046617" lon="-3.748200">
        <ele>2268.0</ele>
        <time>2016-07-25T17:25:57Z</time>
      </trkpt>
      <trkpt lat="41.046483" lon="-3.748150">
        <ele>2268.0</ele>
        <time>2016-07-25T17:25:58Z</time>
      </trkpt>
      <trkpt lat="41.046367" lon="-3.748150">
        <ele>2268.0</ele>
        <time>2016-07-25T17:25:59Z</time>
      </trkpt>
      <trkpt lat="41.046267" lon="-3.748167">
        <ele>2268.0</ele>
        <time>2016-07-25T17:26:00Z</time>
      </trkpt>
      <trkpt lat="41.046167" lon="-3.748217">
        <ele>2268.0</ele>
        <time>2016-07-25T17:26:01Z</time>
      </trkpt>
      <trkpt lat="41.046083" lon="-3.748267">
        <ele>2268.0</ele>
        <time>2016-07-25T17:26:02Z</time>
      </trkpt>
      <trkpt lat="41.046017" lon="-3.748350">
        <ele>2268.0</ele>
        <time>2016-07-25T17:26:03Z</time>
      </trkpt>
      <trkpt lat="41.045967" lon="-3.748417">
        <ele>2269.0</ele>
        <time>2016-07-25T17:26:04Z</time>
      </trkpt>
      <trkpt lat="41.045917" lon="-3.748500">
        <ele>2270.0</ele>
        <time>2016-07-25T17:26:05Z</time>
      </trkpt>
      <trkpt lat="41.045867" lon="-3.748583">
        <ele>2271.0</ele>
        <time>2016-07-25T17:26:06Z</time>
      </trkpt>
      <trkpt lat="41.045833" lon="-3.748650">
        <ele>2272.0</ele>
        <time>2016-07-25T17:26:07Z</time>
      </trkpt>
      <trkpt lat="41.045817" lon="-3.748733">
        <ele>2273.0</ele>
        <time>2016-07-25T17:26:08Z</time>
      </trkpt>
      <trkpt lat="41.045800" lon="-3.748817">
        <ele>2274.0</ele>
        <time>2016-07-25T17:26:09Z</time>
      </trkpt>
      <trkpt lat="41.045800" lon="-3.748900">
        <ele>2274.0</ele>
        <time>2016-07-25T17:26:10Z</time>
      </trkpt>
      <trkpt lat="41.045817" lon="-3.748950">
        <ele>2274.0</ele>
        <time>2016-07-25T17:26:11Z</time>
      </trkpt>
      <trkpt lat="41.045850" lon="-3.749000">
        <ele>2274.0</ele>
        <time>2016-07-25T17:26:12Z</time>
      </trkpt>
      <trkpt lat="41.045867" lon="-3.749050">
        <ele>2275.0</ele>
        <time>2016-07-25T17:26:13Z</time>
      </trkpt>
      <trkpt lat="41.045900" lon="-3.749100">
        <ele>2276.0</ele>
        <time>2016-07-25T17:26:14Z</time>
      </trkpt>
      <trkpt lat="41.045933" lon="-3.749133">
        <ele>2276.0</ele>
        <time>2016-07-25T17:26:15Z</time>
      </trkpt>
      <trkpt lat="41.045950" lon="-3.749183">
        <ele>2277.0</ele>
        <time>2016-07-25T17:26:16Z</time>
      </trkpt>
      <trkpt lat="41.045983" lon="-3.749217">
        <ele>2277.0</ele>
        <time>2016-07-25T17:26:17Z</time>
      </trkpt>
      <trkpt lat="41.046017" lon="-3.749233">
        <ele>2277.0</ele>
        <time>2016-07-25T17:26:18Z</time>
      </trkpt>
      <trkpt lat="41.046050" lon="-3.749233">
        <ele>2277.0</ele>
        <time>2016-07-25T17:26:19Z</time>
      </trkpt>
      <trkpt lat="41.046083" lon="-3.749233">
        <ele>2276.0</ele>
        <time>2016-07-25T17:26:20Z</time>
      </trkpt>
      <trkpt lat="41.046133" lon="-3.749217">
        <ele>2275.0</ele>
        <time>2016-07-25T17:26:21Z</time>
      </trkpt>
      <trkpt lat="41.046183" lon="-3.749200">
        <ele>2273.0</ele>
        <time>2016-07-25T17:26:22Z</time>
      </trkpt>
      <trkpt lat="41.046250" lon="-3.749167">
        <ele>2272.0</ele>
        <time>2016-07-25T17:26:23Z</time>
      </trkpt>
      <trkpt lat="41.046317" lon="-3.749133">
        <ele>2274.0</ele>
        <time>2016-07-25T17:26:24Z</time>
      </trkpt>
      <trkpt lat="41.046350" lon="-3.749100">
        <ele>2276.0</ele>
        <time>2016-07-25T17:26:25Z</time>
      </trkpt>
      <trkpt lat="41.046383" lon="-3.749083">
        <ele>2277.0</ele>
        <time>2016-07-25T17:26:26Z</time>
      </trkpt>
      <trkpt lat="41.046417" lon="-3.749050">
        <ele>2277.0</ele>
        <time>2016-07-25T17:26:27Z</time>
      </trkpt>
      <trkpt lat="41.046450" lon="-3.749017">
        <ele>2276.0</ele>
        <time>2016-07-25T17:26:28Z</time>
      </trkpt>
      <trkpt lat="41.046500" lon="-3.748983">
        <ele>2273.0</ele>
        <time>2016-07-25T17:26:29Z</time>
      </trkpt>
      <trkpt lat="41.046567" lon="-3.748933">
        <ele>2272.0</ele>
        <time>2016-07-25T17:26:30Z</time>
      </trkpt>
      <trkpt lat="41.046617" lon="-3.748867">
        <ele>2273.0</ele>
        <time>2016-07-25T17:26:31Z</time>
      </trkpt>
      <trkpt lat="41.046650" lon="-3.748817">
        <ele>2276.0</ele>
        <time>2016-07-25T17:26:32Z</time>
      </trkpt>
      <trkpt lat="41.046683" lon="-3.748783">
        <ele>2278.0</ele>
        <time>2016-07-25T17:26:33Z</time>
      </trkpt>
      <trkpt lat="41.046700" lon="-3.748767">
        <ele>2279.0</ele>
        <time>2016-07-25T17:26:34Z</time>
      </trkpt>
      <trkpt lat="41.046733" lon="-3.748750">
        <ele>2278.0</ele>
        <time>2016-07-25T17:26:35Z</time>
      </trkpt>
      <trkpt lat="41.046783" lon="-3.748733">
        <ele>2277.0</ele>
        <time>2016-07-25T17:26:36Z</time>
      </trkpt>
      <trkpt lat="41.046833" lon="-3.748717">
        <ele>2277.0</ele>
        <time>2016-07-25T17:26:37Z</time>
      </trkpt>
      <trkpt lat="41.046883" lon="-3.748700">
        <ele>2279.0</ele>
        <time>2016-07-25T17:26:38Z</time>
      </trkpt>
      <trkpt lat="41.046933" lon="-3.748717">
        <ele>2283.0</ele>
        <time>2016-07-25T17:26:39Z</time>
      </trkpt>
      <trkpt lat="41.046967" lon="-3.748733">
        <ele>2285.0</ele>
        <time>2016-07-25T17:26:40Z</time>
      </trkpt>
      <trkpt lat="41.046983" lon="-3.748733">
        <ele>2287.0</ele>
        <time>2016-07-25T17:26:41Z</time>
      </trkpt>
      <trkpt lat="41.047033" lon="-3.748733">
        <ele>2289.0</ele>
        <time>2016-07-25T17:26:42Z</time>
      </trkpt>
      <trkpt lat="41.047067" lon="-3.748733">
        <ele>2292.0</ele>
        <time>2016-07-25T17:26:43Z</time>
      </trkpt>
      <trkpt lat="41.047117" lon="-3.748733">
        <ele>2295.0</ele>
        <time>2016-07-25T17:26:44Z</time>
      </trkpt>
      <trkpt lat="41.047150" lon="-3.748750">
        <ele>2298.0</ele>
        <time>2016-07-25T17:26:45Z</time>
      </trkpt>
      <trkpt lat="41.047167" lon="-3.748750">
        <ele>2301.0</ele>
        <time>2016-07-25T17:26:46Z</time>
      </trkpt>
      <trkpt lat="41.047200" lon="-3.748767">
        <ele>2304.0</ele>
        <time>2016-07-25T17:26:47Z</time>
      </trkpt>
      <trkpt lat="41.047217" lon="-3.748750">
        <ele>2307.0</ele>
        <time>2016-07-25T17:26:48Z</time>
      </trkpt>
      <trkpt lat="41.047250" lon="-3.748700">
        <ele>2308.0</ele>
        <time>2016-07-25T17:26:49Z</time>
      </trkpt>
      <trkpt lat="41.047283" lon="-3.748633">
        <ele>2309.0</ele>
        <time>2016-07-25T17:26:50Z</time>
      </trkpt>
      <trkpt lat="41.047300" lon="-3.748550">
        <ele>2311.0</ele>
        <time>2016-07-25T17:26:51Z</time>
      </trkpt>
      <trkpt lat="41.047333" lon="-3.748467">
        <ele>2314.0</ele>
        <time>2016-07-25T17:26:52Z</time>
      </trkpt>
      <trkpt lat="41.047350" lon="-3.748367">
        <ele>2317.0</ele>
        <time>2016-07-25T17:26:53Z</time>
      </trkpt>
      <trkpt lat="41.047350" lon="-3.748283">
        <ele>2321.0</ele>
        <time>2016-07-25T17:26:54Z</time>
      </trkpt>
      <trkpt lat="41.047333" lon="-3.748167">
        <ele>2324.0</ele>
        <time>2016-07-25T17:26:55Z</time>
      </trkpt>
      <trkpt lat="41.047317" lon="-3.748050">
        <ele>2327.0</ele>
        <time>2016-07-25T17:26:56Z</time>
      </trkpt>
      <trkpt lat="41.047250" lon="-3.747917">
        <ele>2330.0</ele>
        <time>2016-07-25T17:26:57Z</time>
      </trkpt>
      <trkpt lat="41.047167" lon="-3.747800">
        <ele>2332.0</ele>
        <time>2016-07-25T17:26:58Z</time>
      </trkpt>
      <trkpt lat="41.047033" lon="-3.747733">
        <ele>2334.0</ele>
        <time>2016-07-25T17:26:59Z</time>
      </trkpt>
      <trkpt lat="41.046883" lon="-3.747700">
        <ele>2338.0</ele>
        <time>2016-07-25T17:27:00Z</time>
      </trkpt>
      <trkpt lat="41.046750" lon="-3.747700">
        <ele>2342.0</ele>
        <time>2016-07-25T17:27:01Z</time>
      </trkpt>
      <trkpt lat="41.046633" lon="-3.747717">
        <ele>2347.0</ele>
        <time>2016-07-25T17:27:02Z</time>
      </trkpt>
      <trkpt lat="41.046550" lon="-3.747750">
        <ele>2350.0</ele>
        <time>2016-07-25T17:27:03Z</time>
      </trkpt>
      <trkpt lat="41.046450" lon="-3.747783">
        <ele>2353.0</ele>
        <time>2016-07-25T17:27:04Z</time>
      </trkpt>
      <trkpt lat="41.046367" lon="-3.747833">
        <ele>2355.0</ele>
        <time>2016-07-25T17:27:05Z</time>
      </trkpt>
      <trkpt lat="41.046300" lon="-3.747900">
        <ele>2357.0</ele>
        <time>2016-07-25T17:27:06Z</time>
      </trkpt>
      <trkpt lat="41.046250" lon="-3.747950">
        <ele>2359.0</ele>
        <time>2016-07-25T17:27:07Z</time>
      </trkpt>
      <trkpt lat="41.046217" lon="-3.748017">
        <ele>2361.0</ele>
        <time>2016-07-25T17:27:08Z</time>
      </trkpt>
      <trkpt lat="41.046217" lon="-3.748083">
        <ele>2363.0</ele>
        <time>2016-07-25T17:27:09Z</time>
      </trkpt>
      <trkpt lat="41.046217" lon="-3.748150">
        <ele>2365.0</ele>
        <time>2016-07-25T17:27:10Z</time>
      </trkpt>
      <trkpt lat="41.046217" lon="-3.748200">
        <ele>2367.0</ele>
        <time>2016-07-25T17:27:11Z</time>
      </trkpt>
      <trkpt lat="41.046233" lon="-3.748267">
        <ele>2369.0</ele>
        <time>2016-07-25T17:27:12Z</time>
      </trkpt>
      <trkpt lat="41.046250" lon="-3.748333">
        <ele>2373.0</ele>
        <time>2016-07-25T17:27:13Z</time>
      </trkpt>
      <trkpt lat="41.046267" lon="-3.748383">
        <ele>2377.0</ele>
        <time>2016-07-25T17:27:14Z</time>
      </trkpt>
      <trkpt lat="41.046267" lon="-3.748450">
        <ele>2381.0</ele>
        <time>2016-07-25T17:27:15Z</time>
      </trkpt>
      <trkpt lat="41.046267" lon="-3.748483">
        <ele>2385.0</ele>
        <time>2016-07-25T17:27:16Z</time>
      </trkpt>
      <trkpt lat="41.046267" lon="-3.748500">
        <ele>2387.0</ele>
        <time>2016-07-25T17:27:17Z</time>
      </trkpt>
      <trkpt lat="41.046283" lon="-3.748533">
        <ele>2388.0</ele>
        <time>2016-07-25T17:27:18Z</time>
      </trkpt>
      <trkpt lat="41.046300" lon="-3.748567">
        <ele>2388.0</ele>
        <time>2016-07-25T17:27:19Z</time>
      </trkpt>
      <trkpt lat="41.046350" lon="-3.748583">
        <ele>2389.0</ele>
        <time>2016-07-25T17:27:20Z</time>
      </trkpt>
      <trkpt lat="41.046383" lon="-3.748600">
        <ele>2392.0</ele>
        <time>2016-07-25T17:27:21Z</time>
      </trkpt>
      <trkpt lat="41.046417" lon="-3.748600">
        <ele>2395.0</ele>
        <time>2016-07-25T17:27:22Z</time>
      </trkpt>
      <trkpt lat="41.046450" lon="-3.748567">
        <ele>2397.0</ele>
        <time>2016-07-25T17:27:23Z</time>
      </trkpt>
      <trkpt lat="41.046483" lon="-3.748550">
        <ele>2398.0</ele>
        <time>2016-07-25T17:27:24Z</time>
      </trkpt>
      <trkpt lat="41.046533" lon="-3.748500">
        <ele>2398.0</ele>
        <time>2016-07-25T17:27:25Z</time>
      </trkpt>
      <trkpt lat="41.046583" lon="-3.748450">
        <ele>2398.0</ele>
        <time>2016-07-25T17:27:26Z</time>
      </trkpt>
      <trkpt lat="41.046650" lon="-3.748383">
        <ele>2398.0</ele>
        <time>2016-07-25T17:27:27Z</time>
      </trkpt>
      <trkpt lat="41.046700" lon="-3.748283">
        <ele>2400.0</ele>
        <time>2016-07-25T17:27:28Z</time>
      </trkpt>
      <trkpt lat="41.046750" lon="-3.748167">
        <ele>2402.0</ele>
        <time>2016-07-25T17:27:29Z</time>
      </trkpt>
      <trkpt lat="41.046783" lon="-3.748067">
        <ele>2405.0</ele>
        <time>2016-07-25T17:27:30Z</time>
      </trkpt>
      <trkpt lat="41.046817" lon="-3.747967">
        <ele>2407.0</ele>
        <time>2016-07-25T17:27:31Z</time>
      </trkpt>
      <trkpt lat="41.046850" lon="-3.747850">
        <ele>2409.0</ele>
        <time>2016-07-25T17:27:32Z</time>
      </trkpt>
      <trkpt lat="41.046867" lon="-3.747717">
        <ele>2412.0</ele>
        <time>2016-07-25T17:27:33Z</time>
      </trkpt>
      <trkpt lat="41.046867" lon="-3.747583">
        <ele>2415.0</ele>
        <time>2016-07-25T17:27:34Z</time>
      </trkpt>
      <trkpt lat="41.046850" lon="-3.747450">
        <ele>2418.0</ele>
        <time>2016-07-25T17:27:35Z</time>
      </trkpt>
      <trkpt lat="41.046783" lon="-3.747317">
        <ele>2420.0</ele>
        <time>2016-07-25T17:27:36Z</time>
      </trkpt>
      <trkpt lat="41.046700" lon="-3.747200">
        <ele>2423.0</ele>
        <time>2016-07-25T17:27:37Z</time>
      </trkpt>
      <trkpt lat="41.046600" lon="-3.747100">
        <ele>2424.0</ele>
        <time>2016-07-25T17:27:38Z</time>
      </trkpt>
      <trkpt lat="41.046483" lon="-3.747033">
        <ele>2426.0</ele>
        <time>2016-07-25T17:27:39Z</time>
      </trkpt>
      <trkpt lat="41.046350" lon="-3.747017">
        <ele>2428.0</ele>
        <time>2016-07-25T17:27:40Z</time>
      </trkpt>
      <trkpt lat="41.046233" lon="-3.747067">
        <ele>2429.0</ele>
        <time>2016-07-25T17:27:41Z</time>
      </trkpt>
      <trkpt lat="41.046133" lon="-3.747117">
        <ele>2432.0</ele>
        <time>2016-07-25T17:27:42Z</time>
      </trkpt>
      <trkpt lat="41.046050" lon="-3.747183">
        <ele>2435.0</ele>
        <time>2016-07-25T17:27:43Z</time>
      </trkpt>
      <trkpt lat="41.045967" lon="-3.747250">
        <ele>2438.0</ele>
        <time>2016-07-25T17:27:44Z</time>
      </trkpt>
      <trkpt lat="41.045900" lon="-3.747300">
        <ele>2441.0</ele>
        <time>2016-07-25T17:27:45Z</time>
      </trkpt>
      <trkpt lat="41.045833" lon="-3.747367">
        <ele>2444.0</ele>
        <time>2016-07-25T17:27:46Z</time>
      </trkpt>
      <trkpt lat="41.045783" lon="-3.747433">
        <ele>2446.0</ele>
        <time>2016-07-25T17:27:47Z</time>
      </trkpt>
      <trkpt lat="41.045767" lon="-3.747500">
        <ele>2448.0</ele>
        <time>2016-07-25T17:27:48Z</time>
      </trkpt>
      <trkpt lat="41.045750" lon="-3.747583">
        <ele>2451.0</ele>
        <time>2016-07-25T17:27:49Z</time>
      </trkpt>
      <trkpt lat="41.045733" lon="-3.747650">
        <ele>2454.0</ele>
        <time>2016-07-25T17:27:50Z</time>
      </trkpt>
      <trkpt lat="41.045750" lon="-3.747700">
        <ele>2456.0</ele>
        <time>2016-07-25T17:27:51Z</time>
      </trkpt>
      <trkpt lat="41.045750" lon="-3.747750">
        <ele>2457.0</ele>
        <time>2016-07-25T17:27:52Z</time>
      </trkpt>
      <trkpt lat="41.045783" lon="-3.747800">
        <ele>2458.0</ele>
        <time>2016-07-25T17:27:53Z</time>
      </trkpt>
      <trkpt lat="41.045817" lon="-3.747867">
        <ele>2460.0</ele>
        <time>2016-07-25T17:27:54Z</time>
      </trkpt>
      <trkpt lat="41.045850" lon="-3.747900">
        <ele>2462.0</ele>
        <time>2016-07-25T17:27:55Z</time>
      </trkpt>
      <trkpt lat="41.045900" lon="-3.747917">
        <ele>2465.0</ele>
        <time>2016-07-25T17:27:56Z</time>
      </trkpt>
      <trkpt lat="41.045950" lon="-3.747917">
        <ele>2466.0</ele>
        <time>2016-07-25T17:27:57Z</time>
      </trkpt>
      <trkpt lat="41.046000" lon="-3.747900">
        <ele>2467.0</ele>
        <time>2016-07-25T17:27:58Z</time>
      </trkpt>
      <trkpt lat="41.046050" lon="-3.747883">
        <ele>2467.0</ele>
        <time>2016-07-25T17:27:59Z</time>
      </trkpt>
      <trkpt lat="41.046117" lon="-3.747850">
        <ele>2467.0</ele>
        <time>2016-07-25T17:28:00Z</time>
      </trkpt>
      <trkpt lat="41.046183" lon="-3.747783">
        <ele>2467.0</ele>
        <time>2016-07-25T17:28:01Z</time>
      </trkpt>
      <trkpt lat="41.046250" lon="-3.747700">
        <ele>2468.0</ele>
        <time>2016-07-25T17:28:02Z</time>
      </trkpt>
      <trkpt lat="41.046283" lon="-3.747583">
        <ele>2470.0</ele>
        <time>2016-07-25T17:28:03Z</time>
      </trkpt>
      <trkpt lat="41.046300" lon="-3.747467">
        <ele>2472.0</ele>
        <time>2016-07-25T17:28:04Z</time>
      </trkpt>
      <trkpt lat="41.046300" lon="-3.747350">
        <ele>2475.0</ele>
        <time>2016-07-25T17:28:05Z</time>
      </trkpt>
      <trkpt lat="41.046300" lon="-3.747233">
        <ele>2476.0</ele>
        <time>2016-07-25T17:28:06Z</time>
      </trkpt>
      <trkpt lat="41.046267" lon="-3.747100">
        <ele>2478.0</ele>
        <time>2016-07-25T17:28:07Z</time>
      </trkpt>
      <trkpt lat="41.046217" lon="-3.746950">
        <ele>2479.0</ele>
        <time>2016-07-25T17:28:08Z</time>
      </trkpt>
      <trkpt lat="41.046133" lon="-3.746817">
        <ele>2480.0</ele>
        <time>2016-07-25T17:28:09Z</time>
      </trkpt>
      <trkpt lat="41.046033" lon="-3.746683">
        <ele>2482.0</ele>
        <time>2016-07-25T17:28:10Z</time>
      </trkpt>
      <trkpt lat="41.045933" lon="-3.746600">
        <ele>2484.0</ele>
        <time>2016-07-25T17:28:11Z</time>
      </trkpt>
      <trkpt lat="41.045817" lon="-3.746533">
        <ele>2485.0</ele>
        <time>2016-07-25T17:28:12Z</time>
      </trkpt>
      <trkpt lat="41.045700" lon="-3.746500">
        <ele>2486.0</ele>
        <time>2016-07-25T17:28:13Z</time>
      </trkpt>
      <trkpt lat="41.045583" lon="-3.746500">
        <ele>2488.0</ele>
        <time>2016-07-25T17:28:14Z</time>
      </trkpt>
      <trkpt lat="41.045467" lon="-3.746533">
        <ele>2490.0</ele>
        <time>2016-07-25T17:28:15Z</time>
      </trkpt>
      <trkpt lat="41.045383" lon="-3.746583">
        <ele>2494.0</ele>
        <time>2016-07-25T17:28:16Z</time>
      </trkpt>
      <trkpt lat="41.045317" lon="-3.746650">
        <ele>2497.0</ele>
        <time>2016-07-25T17:28:17Z</time>
      </trkpt>
      <trkpt lat="41.045250" lon="-3.746717">
        <ele>2500.0</ele>
        <time>2016-07-25T17:28:18Z</time>
      </trkpt>
      <trkpt lat="41.045200" lon="-3.746783">
        <ele>2502.0</ele>
        <time>2016-07-25T17:28:19Z</time>
      </trkpt>
      <trkpt lat="41.045150" lon="-3.746850">
        <ele>2504.0</ele>
        <time>2016-07-25T17:28:20Z</time>
      </trkpt>
      <trkpt lat="41.045100" lon="-3.746917">
        <ele>2505.0</ele>
        <time>2016-07-25T17:28:21Z</time>
      </trkpt>
      <trkpt lat="41.045067" lon="-3.747000">
        <ele>2507.0</ele>
        <time>2016-07-25T17:28:22Z</time>
      </trkpt>
      <trkpt lat="41.045050" lon="-3.747067">
        <ele>2508.0</ele>
        <time>2016-07-25T17:28:23Z</time>
      </trkpt>
      <trkpt lat="41.045033" lon="-3.747150">
        <ele>2509.0</ele>
        <time>2016-07-25T17:28:24Z</time>
      </trkpt>
      <trkpt lat="41.045017" lon="-3.747217">
        <ele>2510.0</ele>
        <time>2016-07-25T17:28:25Z</time>
      </trkpt>
      <trkpt lat="41.045033" lon="-3.747283">
        <ele>2510.0</ele>
        <time>2016-07-25T17:28:26Z</time>
      </trkpt>
      <trkpt lat="41.045050" lon="-3.747350">
        <ele>2509.0</ele>
        <time>2016-07-25T17:28:27Z</time>
      </trkpt>
      <trkpt lat="41.045083" lon="-3.747417">
        <ele>2508.0</ele>
        <time>2016-07-25T17:28:28Z</time>
      </trkpt>
      <trkpt lat="41.045133" lon="-3.747467">
        <ele>2506.0</ele>
        <time>2016-07-25T17:28:29Z</time>
      </trkpt>
      <trkpt lat="41.045183" lon="-3.747500">
        <ele>2506.0</ele>
        <time>2016-07-25T17:28:30Z</time>
      </trkpt>
      <trkpt lat="41.045233" lon="-3.747533">
        <ele>2507.0</ele>
        <time>2016-07-25T17:28:31Z</time>
      </trkpt>
      <trkpt lat="41.045283" lon="-3.747567">
        <ele>2508.0</ele>
        <time>2016-07-25T17:28:32Z</time>
      </trkpt>
      <trkpt lat="41.045317" lon="-3.747567">
        <ele>2510.0</ele>
        <time>2016-07-25T17:28:33Z</time>
      </trkpt>
      <trkpt lat="41.045367" lon="-3.747567">
        <ele>2510.0</ele>
        <time>2016-07-25T17:28:34Z</time>
      </trkpt>
      <trkpt lat="41.045433" lon="-3.747550">
        <ele>2511.0</ele>
        <time>2016-07-25T17:28:35Z</time>
      </trkpt>
      <trkpt lat="41.045483" lon="-3.747550">
        <ele>2512.0</ele>
        <time>2016-07-25T17:28:36Z</time>
      </trkpt>
      <trkpt lat="41.045533" lon="-3.747533">
        <ele>2514.0</ele>
        <time>2016-07-25T17:28:37Z</time>
      </trkpt>
      <trkpt lat="41.045583" lon="-3.747517">
        <ele>2516.0</ele>
        <time>2016-07-25T17:28:38Z</time>
      </trkpt>
      <trkpt lat="41.045633" lon="-3.747483">
        <ele>2517.0</ele>
        <time>2016-07-25T17:28:39Z</time>
      </trkpt>
      <trkpt lat="41.045683" lon="-3.747450">
        <ele>2518.0</ele>
        <time>2016-07-25T17:28:40Z</time>
      </trkpt>
      <trkpt lat="41.045750" lon="-3.747417">
        <ele>2518.0</ele>
        <time>2016-07-25T17:28:41Z</time>
      </trkpt>
      <trkpt lat="41.045800" lon="-3.747367">
        <ele>2518.0</ele>
        <time>2016-07-25T17:28:42Z</time>
      </trkpt>
      <trkpt lat="41.045850" lon="-3.747317">
        <ele>2520.0</ele>
        <time>2016-07-25T17:28:43Z</time>
      </trkpt>
      <trkpt lat="41.045900" lon="-3.747267">
        <ele>2521.0</ele>
        <time>2016-07-25T17:28:44Z</time>
      </trkpt>
      <trkpt lat="41.045950" lon="-3.747233">
        <ele>2522.0</ele>
        <time>2016-07-25T17:28:45Z</time>
      </trkpt>
      <trkpt lat="41.046017" lon="-3.747183">
        <ele>2522.0</ele>
        <time>2016-07-25T17:28:46Z</time>
      </trkpt>
      <trkpt lat="41.046067" lon="-3.747117">
        <ele>2523.0</ele>
        <time>2016-07-25T17:28:47Z</time>
      </trkpt>
      <trkpt lat="41.046133" lon="-3.747050">
        <ele>2523.0</ele>
        <time>2016-07-25T17:28:48Z</time>
      </trkpt>
      <trkpt lat="41.046183" lon="-3.746950">
        <ele>2524.0</ele>
        <time>2016-07-25T17:28:49Z</time>
      </trkpt>
      <trkpt lat="41.046217" lon="-3.746850">
        <ele>2524.0</ele>
        <time>2016-07-25T17:28:50Z</time>
      </trkpt>
      <trkpt lat="41.046267" lon="-3.746733">
        <ele>2525.0</ele>
        <time>2016-07-25T17:28:51Z</time>
      </trkpt>
      <trkpt lat="41.046317" lon="-3.746600">
        <ele>2525.0</ele>
        <time>2016-07-25T17:28:52Z</time>
      </trkpt>
      <trkpt lat="41.046367" lon="-3.746483">
        <ele>2525.0</ele>
        <time>2016-07-25T17:28:53Z</time>
      </trkpt>
      <trkpt lat="41.046433" lon="-3.746400">
        <ele>2524.0</ele>
        <time>2016-07-25T17:28:54Z</time>
      </trkpt>
      <trkpt lat="41.046483" lon="-3.746333">
        <ele>2523.0</ele>
        <time>2016-07-25T17:28:55Z</time>
      </trkpt>
      <trkpt lat="41.046533" lon="-3.746300">
        <ele>2521.0</ele>
        <time>2016-07-25T17:28:56Z</time>
      </trkpt>
      <trkpt lat="41.046583" lon="-3.746267">
        <ele>2518.0</ele>
        <time>2016-07-25T17:28:57Z</time>
      </trkpt>
      <trkpt lat="41.046650" lon="-3.746217">
        <ele>2515.0</ele>
        <time>2016-07-25T17:28:58Z</time>
      </trkpt>
      <trkpt lat="41.046717" lon="-3.746183">
        <ele>2512.0</ele>
        <time>2016-07-25T17:28:59Z</time>
      </trkpt>
      <trkpt lat="41.046783" lon="-3.746150">
        <ele>2510.0</ele>
        <time>2016-07-25T17:29:00Z</time>
      </trkpt>
      <trkpt lat="41.046850" lon="-3.746133">
        <ele>2508.0</ele>
        <time>2016-07-25T17:29:01Z</time>
      </trkpt>
      <trkpt lat="41.046900" lon="-3.746117">
        <ele>2507.0</ele>
        <time>2016-07-25T17:29:02Z</time>
      </trkpt>
      <trkpt lat="41.046967" lon="-3.746100">
        <ele>2505.0</ele>
        <time>2016-07-25T17:29:03Z</time>
      </trkpt>
      <trkpt lat="41.047017" lon="-3.746067">
        <ele>2504.0</ele>
        <time>2016-07-25T17:29:04Z</time>
      </trkpt>
      <trkpt lat="41.047100" lon="-3.746033">
        <ele>2502.0</ele>
        <time>2016-07-25T17:29:05Z</time>
      </trkpt>
      <trkpt lat="41.047167" lon="-3.746000">
        <ele>2501.0</ele>
        <time>2016-07-25T17:29:06Z</time>
      </trkpt>
      <trkpt lat="41.047250" lon="-3.745983">
        <ele>2499.0</ele>
        <time>2016-07-25T17:29:07Z</time>
      </trkpt>
      <trkpt lat="41.047317" lon="-3.745967">
        <ele>2498.0</ele>
        <time>2016-07-25T17:29:08Z</time>
      </trkpt>
      <trkpt lat="41.047400" lon="-3.745950">
        <ele>2497.0</ele>
        <time>2016-07-25T17:29:09Z</time>
      </trkpt>
      <trkpt lat="41.047467" lon="-3.745917">
        <ele>2497.0</ele>
        <time>2016-07-25T17:29:10Z</time>
      </trkpt>
      <trkpt lat="41.047550" lon="-3.745867">
        <ele>2496.0</ele>
        <time>2016-07-25T17:29:11Z</time>
      </trkpt>
      <trkpt lat="41.047617" lon="-3.745817">
        <ele>2494.0</ele>
        <time>2016-07-25T17:29:12Z</time>
      </trkpt>
      <trkpt lat="41.047683" lon="-3.745783">
        <ele>2493.0</ele>
        <time>2016-07-25T17:29:13Z</time>
      </trkpt>
      <trkpt lat="41.047750" lon="-3.745733">
        <ele>2492.0</ele>
        <time>2016-07-25T17:29:14Z</time>
      </trkpt>
      <trkpt lat="41.047817" lon="-3.745700">
        <ele>2491.0</ele>
        <time>2016-07-25T17:29:15Z</time>
      </trkpt>
      <trkpt lat="41.047867" lon="-3.745667">
        <ele>2490.0</ele>
        <time>2016-07-25T17:29:16Z</time>
      </trkpt>
      <trkpt lat="41.047917" lon="-3.745633">
        <ele>2488.0</ele>
        <time>2016-07-25T17:29:17Z</time>
      </trkpt>
      <trkpt lat="41.047983" lon="-3.745600">
        <ele>2485.0</ele>
        <time>2016-07-25T17:29:18Z</time>
      </trkpt>
      <trkpt lat="41.048050" lon="-3.745567">
        <ele>2483.0</ele>
        <time>2016-07-25T17:29:19Z</time>
      </trkpt>
      <trkpt lat="41.048133" lon="-3.745533">
        <ele>2481.0</ele>
        <time>2016-07-25T17:29:20Z</time>
      </trkpt>
      <trkpt lat="41.048217" lon="-3.745483">
        <ele>2480.0</ele>
        <time>2016-07-25T17:29:21Z</time>
      </trkpt>
      <trkpt lat="41.048283" lon="-3.745433">
        <ele>2480.0</ele>
        <time>2016-07-25T17:29:22Z</time>
      </trkpt>
      <trkpt lat="41.048333" lon="-3.745383">
        <ele>2480.0</ele>
        <time>2016-07-25T17:29:23Z</time>
      </trkpt>
      <trkpt lat="41.048383" lon="-3.745333">
        <ele>2478.0</ele>
        <time>2016-07-25T17:29:24Z</time>
      </trkpt>
      <trkpt lat="41.048450" lon="-3.745283">
        <ele>2476.0</ele>
        <time>2016-07-25T17:29:25Z</time>
      </trkpt>
      <trkpt lat="41.048517" lon="-3.745250">
        <ele>2473.0</ele>
        <time>2016-07-25T17:29:26Z</time>
      </trkpt>
      <trkpt lat="41.048583" lon="-3.745200">
        <ele>2471.0</ele>
        <time>2016-07-25T17:29:27Z</time>
      </trkpt>
      <trkpt lat="41.048650" lon="-3.745167">
        <ele>2471.0</ele>
        <time>2016-07-25T17:29:28Z</time>
      </trkpt>
      <trkpt lat="41.048717" lon="-3.745117">
        <ele>2469.0</ele>
        <time>2016-07-25T17:29:29Z</time>
      </trkpt>
      <trkpt lat="41.048783" lon="-3.745050">
        <ele>2468.0</ele>
        <time>2016-07-25T17:29:30Z</time>
      </trkpt>
      <trkpt lat="41.048850" lon="-3.745000">
        <ele>2466.0</ele>
        <time>2016-07-25T17:29:31Z</time>
      </trkpt>
      <trkpt lat="41.048917" lon="-3.744933">
        <ele>2464.0</ele>
        <time>2016-07-25T17:29:32Z</time>
      </trkpt>
      <trkpt lat="41.049000" lon="-3.744883">
        <ele>2463.0</ele>
        <time>2016-07-25T17:29:33Z</time>
      </trkpt>
      <trkpt lat="41.049067" lon="-3.744833">
        <ele>2462.0</ele>
        <time>2016-07-25T17:29:34Z</time>
      </trkpt>
      <trkpt lat="41.049133" lon="-3.744783">
        <ele>2461.0</ele>
        <time>2016-07-25T17:29:35Z</time>
      </trkpt>
      <trkpt lat="41.049200" lon="-3.744700">
        <ele>2460.0</ele>
        <time>2016-07-25T17:29:36Z</time>
      </trkpt>
      <trkpt lat="41.049250" lon="-3.744633">
        <ele>2460.0</ele>
        <time>2016-07-25T17:29:37Z</time>
      </trkpt>
      <trkpt lat="41.049283" lon="-3.744583">
        <ele>2458.0</ele>
        <time>2016-07-25T17:29:38Z</time>
      </trkpt>
      <trkpt lat="41.049350" lon="-3.744550">
        <ele>2456.0</ele>
        <time>2016-07-25T17:29:39Z</time>
      </trkpt>
      <trkpt lat="41.049400" lon="-3.744500">
        <ele>2453.0</ele>
        <time>2016-07-25T17:29:40Z</time>
      </trkpt>
      <trkpt lat="41.049483" lon="-3.744467">
        <ele>2450.0</ele>
        <time>2016-07-25T17:29:41Z</time>
      </trkpt>
      <trkpt lat="41.049533" lon="-3.744417">
        <ele>2450.0</ele>
        <time>2016-07-25T17:29:42Z</time>
      </trkpt>
      <trkpt lat="41.049600" lon="-3.744383">
        <ele>2449.0</ele>
        <time>2016-07-25T17:29:43Z</time>
      </trkpt>
      <trkpt lat="41.049633" lon="-3.744350">
        <ele>2447.0</ele>
        <time>2016-07-25T17:29:44Z</time>
      </trkpt>
      <trkpt lat="41.049700" lon="-3.744333">
        <ele>2444.0</ele>
        <time>2016-07-25T17:29:45Z</time>
      </trkpt>
      <trkpt lat="41.049767" lon="-3.744300">
        <ele>2441.0</ele>
        <time>2016-07-25T17:29:46Z</time>
      </trkpt>
      <trkpt lat="41.049833" lon="-3.744267">
        <ele>2438.0</ele>
        <time>2016-07-25T17:29:47Z</time>
      </trkpt>
      <trkpt lat="41.049900" lon="-3.744217">
        <ele>2436.0</ele>
        <time>2016-07-25T17:29:48Z</time>
      </trkpt>
      <trkpt lat="41.049967" lon="-3.744167">
        <ele>2435.0</ele>
        <time>2016-07-25T17:29:49Z</time>
      </trkpt>
      <trkpt lat="41.050033" lon="-3.744117">
        <ele>2434.0</ele>
        <time>2016-07-25T17:29:50Z</time>
      </trkpt>
      <trkpt lat="41.050083" lon="-3.744083">
        <ele>2432.0</ele>
        <time>2016-07-25T17:29:51Z</time>
      </trkpt>
      <trkpt lat="41.050150" lon="-3.744050">
        <ele>2431.0</ele>
        <time>2016-07-25T17:29:52Z</time>
      </trkpt>
      <trkpt lat="41.050200" lon="-3.744017">
        <ele>2430.0</ele>
        <time>2016-07-25T17:29:53Z</time>
      </trkpt>
      <trkpt lat="41.050267" lon="-3.743983">
        <ele>2428.0</ele>
        <time>2016-07-25T17:29:54Z</time>
      </trkpt>
      <trkpt lat="41.050333" lon="-3.743950">
        <ele>2427.0</ele>
        <time>2016-07-25T17:29:55Z</time>
      </trkpt>
      <trkpt lat="41.050383" lon="-3.743900">
        <ele>2426.0</ele>
        <time>2016-07-25T17:29:56Z</time>
      </trkpt>
      <trkpt lat="41.050450" lon="-3.743867">
        <ele>2426.0</ele>
        <time>2016-07-25T17:29:57Z</time>
      </trkpt>
      <trkpt lat="41.050500" lon="-3.743850">
        <ele>2424.0</ele>
        <time>2016-07-25T17:29:58Z</time>
      </trkpt>
      <trkpt lat="41.050567" lon="-3.743833">
        <ele>2422.0</ele>
        <time>2016-07-25T17:29:59Z</time>
      </trkpt>
      <trkpt lat="41.050633" lon="-3.743800">
        <ele>2420.0</ele>
        <time>2016-07-25T17:30:00Z</time>
      </trkpt>
      <trkpt lat="41.050700" lon="-3.743767">
        <ele>2419.0</ele>
        <time>2016-07-25T17:30:01Z</time>
      </trkpt>
      <trkpt lat="41.050767" lon="-3.743717">
        <ele>2417.0</ele>
        <time>2016-07-25T17:30:02Z</time>
      </trkpt>
      <trkpt lat="41.050817" lon="-3.743667">
        <ele>2415.0</ele>
        <time>2016-07-25T17:30:03Z</time>
      </trkpt>
      <trkpt lat="41.050900" lon="-3.743633">
        <ele>2413.0</ele>
        <time>2016-07-25T17:30:04Z</time>
      </trkpt>
      <trkpt lat="41.050967" lon="-3.743600">
        <ele>2412.0</ele>
        <time>2016-07-25T17:30:05Z</time>
      </trkpt>
      <trkpt lat="41.051017" lon="-3.743550">
        <ele>2411.0</ele>
        <time>2016-07-25T17:30:06Z</time>
      </trkpt>
      <trkpt lat="41.051067" lon="-3.743500">
        <ele>2409.0</ele>
        <time>2016-07-25T17:30:07Z</time>
      </trkpt>
      <trkpt lat="41.051117" lon="-3.743450">
        <ele>2408.0</ele>
        <time>2016-07-25T17:30:08Z</time>
      </trkpt>
      <trkpt lat="41.051167" lon="-3.743417">
        <ele>2405.0</ele>
        <time>2016-07-25T17:30:09Z</time>
      </trkpt>
      <trkpt lat="41.051233" lon="-3.743383">
        <ele>2403.0</ele>
        <time>2016-07-25T17:30:10Z</time>
      </trkpt>
      <trkpt lat="41.051300" lon="-3.743367">
        <ele>2400.0</ele>
        <time>2016-07-25T17:30:11Z</time>
      </trkpt>
      <trkpt lat="41.051367" lon="-3.743333">
        <ele>2399.0</ele>
        <time>2016-07-25T17:30:12Z</time>
      </trkpt>
      <trkpt lat="41.051417" lon="-3.743300">
        <ele>2398.0</ele>
        <time>2016-07-25T17:30:13Z</time>
      </trkpt>
      <trkpt lat="41.051467" lon="-3.743267">
        <ele>2397.0</ele>
        <time>2016-07-25T17:30:14Z</time>
      </trkpt>
      <trkpt lat="41.051517" lon="-3.743233">
        <ele>2395.0</ele>
        <time>2016-07-25T17:30:15Z</time>
      </trkpt>
      <trkpt lat="41.051583" lon="-3.743200">
        <ele>2393.0</ele>
        <time>2016-07-25T17:30:16Z</time>
      </trkpt>
      <trkpt lat="41.051633" lon="-3.743167">
        <ele>2390.0</ele>
        <time>2016-07-25T17:30:17Z</time>
      </trkpt>
      <trkpt lat="41.051700" lon="-3.743150">
        <ele>2389.0</ele>
        <time>2016-07-25T17:30:18Z</time>
      </trkpt>
      <trkpt lat="41.051767" lon="-3.743083">
        <ele>2388.0</ele>
        <time>2016-07-25T17:30:19Z</time>
      </trkpt>
      <trkpt lat="41.051817" lon="-3.743017">
        <ele>2389.0</ele>
        <time>2016-07-25T17:30:20Z</time>
      </trkpt>
      <trkpt lat="41.051867" lon="-3.742950">
        <ele>2389.0</ele>
        <time>2016-07-25T17:30:21Z</time>
      </trkpt>
      <trkpt lat="41.051900" lon="-3.742900">
        <ele>2388.0</ele>
        <time>2016-07-25T17:30:22Z</time>
      </trkpt>
      <trkpt lat="41.051950" lon="-3.742850">
        <ele>2385.0</ele>
        <time>2016-07-25T17:30:23Z</time>
      </trkpt>
      <trkpt lat="41.052017" lon="-3.742817">
        <ele>2383.0</ele>
        <time>2016-07-25T17:30:24Z</time>
      </trkpt>
      <trkpt lat="41.052067" lon="-3.742767">
        <ele>2382.0</ele>
        <time>2016-07-25T17:30:25Z</time>
      </trkpt>
      <trkpt lat="41.052133" lon="-3.742733">
        <ele>2382.0</ele>
        <time>2016-07-25T17:30:26Z</time>
      </trkpt>
      <trkpt lat="41.052167" lon="-3.742700">
        <ele>2381.0</ele>
        <time>2016-07-25T17:30:27Z</time>
      </trkpt>
      <trkpt lat="41.052217" lon="-3.742650">
        <ele>2380.0</ele>
        <time>2016-07-25T17:30:28Z</time>
      </trkpt>
      <trkpt lat="41.052267" lon="-3.742617">
        <ele>2377.0</ele>
        <time>2016-07-25T17:30:29Z</time>
      </trkpt>
      <trkpt lat="41.052333" lon="-3.742600">
        <ele>2374.0</ele>
        <time>2016-07-25T17:30:30Z</time>
      </trkpt>
      <trkpt lat="41.052400" lon="-3.742550">
        <ele>2372.0</ele>
        <time>2016-07-25T17:30:31Z</time>
      </trkpt>
      <trkpt lat="41.052450" lon="-3.742517">
        <ele>2371.0</ele>
        <time>2016-07-25T17:30:32Z</time>
      </trkpt>
      <trkpt lat="41.052517" lon="-3.742483">
        <ele>2370.0</ele>
        <time>2016-07-25T17:30:33Z</time>
      </trkpt>
      <trkpt lat="41.052567" lon="-3.742467">
        <ele>2369.0</ele>
        <time>2016-07-25T17:30:34Z</time>
      </trkpt>
      <trkpt lat="41.052617" lon="-3.742433">
        <ele>2367.0</ele>
        <time>2016-07-25T17:30:35Z</time>
      </trkpt>
      <trkpt lat="41.052683" lon="-3.742417">
        <ele>2365.0</ele>
        <time>2016-07-25T17:30:36Z</time>
      </trkpt>
      <trkpt lat="41.052733" lon="-3.742383">
        <ele>2363.0</ele>
        <time>2016-07-25T17:30:37Z</time>
      </trkpt>
      <trkpt lat="41.052783" lon="-3.742350">
        <ele>2361.0</ele>
        <time>2016-07-25T17:30:38Z</time>
      </trkpt>
      <trkpt lat="41.052850" lon="-3.742317">
        <ele>2359.0</ele>
        <time>2016-07-25T17:30:39Z</time>
      </trkpt>
      <trkpt lat="41.052900" lon="-3.742283">
        <ele>2358.0</ele>
        <time>2016-07-25T17:30:40Z</time>
      </trkpt>
      <trkpt lat="41.052967" lon="-3.742250">
        <ele>2356.0</ele>
        <time>2016-07-25T17:30:41Z</time>
      </trkpt>
      <trkpt lat="41.053017" lon="-3.742217">
        <ele>2355.0</ele>
        <time>2016-07-25T17:30:42Z</time>
      </trkpt>
      <trkpt lat="41.053067" lon="-3.742167">
        <ele>2353.0</ele>
        <time>2016-07-25T17:30:43Z</time>
      </trkpt>
      <trkpt lat="41.053133" lon="-3.742117">
        <ele>2351.0</ele>
        <time>2016-07-25T17:30:44Z</time>
      </trkpt>
      <trkpt lat="41.053200" lon="-3.742067">
        <ele>2349.0</ele>
        <time>2016-07-25T17:30:45Z</time>
      </trkpt>
      <trkpt lat="41.053267" lon="-3.742033">
        <ele>2347.0</ele>
        <time>2016-07-25T17:30:46Z</time>
      </trkpt>
      <trkpt lat="41.053333" lon="-3.742000">
        <ele>2345.0</ele>
        <time>2016-07-25T17:30:47Z</time>
      </trkpt>
      <trkpt lat="41.053383" lon="-3.741950">
        <ele>2343.0</ele>
        <time>2016-07-25T17:30:48Z</time>
      </trkpt>
      <trkpt lat="41.053450" lon="-3.741917">
        <ele>2341.0</ele>
        <time>2016-07-25T17:30:49Z</time>
      </trkpt>
      <trkpt lat="41.053517" lon="-3.741850">
        <ele>2338.0</ele>
        <time>2016-07-25T17:30:50Z</time>
      </trkpt>
      <trkpt lat="41.053583" lon="-3.741800">
        <ele>2336.0</ele>
        <time>2016-07-25T17:30:51Z</time>
      </trkpt>
      <trkpt lat="41.053650" lon="-3.741750">
        <ele>2334.0</ele>
        <time>2016-07-25T17:30:52Z</time>
      </trkpt>
      <trkpt lat="41.053717" lon="-3.741700">
        <ele>2332.0</ele>
        <time>2016-07-25T17:30:53Z</time>
      </trkpt>
      <trkpt lat="41.053767" lon="-3.741633">
        <ele>2330.0</ele>
        <time>2016-07-25T17:30:54Z</time>
      </trkpt>
      <trkpt lat="41.053833" lon="-3.741583">
        <ele>2328.0</ele>
        <time>2016-07-25T17:30:55Z</time>
      </trkpt>
      <trkpt lat="41.053900" lon="-3.741550">
        <ele>2325.0</ele>
        <time>2016-07-25T17:30:56Z</time>
      </trkpt>
      <trkpt lat="41.053967" lon="-3.741500">
        <ele>2322.0</ele>
        <time>2016-07-25T17:30:57Z</time>
      </trkpt>
      <trkpt lat="41.054033" lon="-3.741450">
        <ele>2319.0</ele>
        <time>2016-07-25T17:30:58Z</time>
      </trkpt>
      <trkpt lat="41.054100" lon="-3.741400">
        <ele>2317.0</ele>
        <time>2016-07-25T17:30:59Z</time>
      </trkpt>
      <trkpt lat="41.054167" lon="-3.741333">
        <ele>2314.0</ele>
        <time>2016-07-25T17:31:00Z</time>
      </trkpt>
      <trkpt lat="41.054217" lon="-3.741267">
        <ele>2312.0</ele>
        <time>2016-07-25T17:31:01Z</time>
      </trkpt>
      <trkpt lat="41.054283" lon="-3.741217">
        <ele>2310.0</ele>
        <time>2016-07-25T17:31:02Z</time>
      </trkpt>
      <trkpt lat="41.054350" lon="-3.741183">
        <ele>2307.0</ele>
        <time>2016-07-25T17:31:03Z</time>
      </trkpt>
      <trkpt lat="41.054400" lon="-3.741150">
        <ele>2305.0</ele>
        <time>2016-07-25T17:31:04Z</time>
      </trkpt>
      <trkpt lat="41.054467" lon="-3.741117">
        <ele>2302.0</ele>
        <time>2016-07-25T17:31:05Z</time>
      </trkpt>
      <trkpt lat="41.054533" lon="-3.741067">
        <ele>2301.0</ele>
        <time>2016-07-25T17:31:06Z</time>
      </trkpt>
      <trkpt lat="41.054600" lon="-3.741017">
        <ele>2300.0</ele>
        <time>2016-07-25T17:31:07Z</time>
      </trkpt>
      <trkpt lat="41.054650" lon="-3.740967">
        <ele>2299.0</ele>
        <time>2016-07-25T17:31:08Z</time>
      </trkpt>
      <trkpt lat="41.054700" lon="-3.740950">
        <ele>2297.0</ele>
        <time>2016-07-25T17:31:09Z</time>
      </trkpt>
      <trkpt lat="41.054750" lon="-3.740933">
        <ele>2295.0</ele>
        <time>2016-07-25T17:31:10Z</time>
      </trkpt>
      <trkpt lat="41.054800" lon="-3.740917">
        <ele>2293.0</ele>
        <time>2016-07-25T17:31:11Z</time>
      </trkpt>
      <trkpt lat="41.054850" lon="-3.740900">
        <ele>2290.0</ele>
        <time>2016-07-25T17:31:12Z</time>
      </trkpt>
      <trkpt lat="41.054900" lon="-3.740867">
        <ele>2288.0</ele>
        <time>2016-07-25T17:31:13Z</time>
      </trkpt>
      <trkpt lat="41.054933" lon="-3.740833">
        <ele>2285.0</ele>
        <time>2016-07-25T17:31:14Z</time>
      </trkpt>
      <trkpt lat="41.054983" lon="-3.740817">
        <ele>2281.0</ele>
        <time>2016-07-25T17:31:15Z</time>
      </trkpt>
      <trkpt lat="41.055033" lon="-3.740800">
        <ele>2278.0</ele>
        <time>2016-07-25T17:31:16Z</time>
      </trkpt>
      <trkpt lat="41.055083" lon="-3.740783">
        <ele>2274.0</ele>
        <time>2016-07-25T17:31:17Z</time>
      </trkpt>
      <trkpt lat="41.055133" lon="-3.740750">
        <ele>2270.0</ele>
        <time>2016-07-25T17:31:18Z</time>
      </trkpt>
      <trkpt lat="41.055183" lon="-3.740700">
        <ele>2267.0</ele>
        <time>2016-07-25T17:31:19Z</time>
      </trkpt>
      <trkpt lat="41.055250" lon="-3.740650">
        <ele>2265.0</ele>
        <time>2016-07-25T17:31:20Z</time>
      </trkpt>
      <trkpt lat="41.055317" lon="-3.740617">
        <ele>2263.0</ele>
        <time>2016-07-25T17:31:21Z</time>
      </trkpt>
      <trkpt lat="41.055367" lon="-3.740567">
        <ele>2262.0</ele>
        <time>2016-07-25T17:31:22Z</time>
      </trkpt>
      <trkpt lat="41.055433" lon="-3.740517">
        <ele>2261.0</ele>
        <time>2016-07-25T17:31:23Z</time>
      </trkpt>
      <trkpt lat="41.055483" lon="-3.740467">
        <ele>2260.0</ele>
        <time>2016-07-25T17:31:24Z</time>
      </trkpt>
      <trkpt lat="41.055533" lon="-3.740400">
        <ele>2259.0</ele>
        <time>2016-07-25T17:31:25Z</time>
      </trkpt>
      <trkpt lat="41.055600" lon="-3.740333">
        <ele>2259.0</ele>
        <time>2016-07-25T17:31:26Z</time>
      </trkpt>
      <trkpt lat="41.055633" lon="-3.740267">
        <ele>2260.0</ele>
        <time>2016-07-25T17:31:27Z</time>
      </trkpt>
      <trkpt lat="41.055683" lon="-3.740183">
        <ele>2260.0</ele>
        <time>2016-07-25T17:31:28Z</time>
      </trkpt>
      <trkpt lat="41.055717" lon="-3.740117">
        <ele>2261.0</ele>
        <time>2016-07-25T17:31:29Z</time>
      </trkpt>
      <trkpt lat="41.055750" lon="-3.740050">
        <ele>2261.0</ele>
        <time>2016-07-25T17:31:30Z</time>
      </trkpt>
      <trkpt lat="41.055783" lon="-3.740000">
        <ele>2260.0</ele>
        <time>2016-07-25T17:31:31Z</time>
      </trkpt>
      <trkpt lat="41.055833" lon="-3.739933">
        <ele>2259.0</ele>
        <time>2016-07-25T17:31:32Z</time>
      </trkpt>
      <trkpt lat="41.055900" lon="-3.739850">
        <ele>2258.0</ele>
        <time>2016-07-25T17:31:33Z</time>
      </trkpt>
      <trkpt lat="41.055967" lon="-3.739783">
        <ele>2259.0</ele>
        <time>2016-07-25T17:31:34Z</time>
      </trkpt>
      <trkpt lat="41.056017" lon="-3.739717">
        <ele>2261.0</ele>
        <time>2016-07-25T17:31:35Z</time>
      </trkpt>
      <trkpt lat="41.056050" lon="-3.739667">
        <ele>2262.0</ele>
        <time>2016-07-25T17:31:36Z</time>
      </trkpt>
      <trkpt lat="41.056100" lon="-3.739617">
        <ele>2263.0</ele>
        <time>2016-07-25T17:31:37Z</time>
      </trkpt>
      <trkpt lat="41.056150" lon="-3.739567">
        <ele>2263.0</ele>
        <time>2016-07-25T17:31:38Z</time>
      </trkpt>
      <trkpt lat="41.056200" lon="-3.739533">
        <ele>2262.0</ele>
        <time>2016-07-25T17:31:39Z</time>
      </trkpt>
      <trkpt lat="41.056250" lon="-3.739483">
        <ele>2262.0</ele>
        <time>2016-07-25T17:31:40Z</time>
      </trkpt>
      <trkpt lat="41.056317" lon="-3.739450">
        <ele>2261.0</ele>
        <time>2016-07-25T17:31:41Z</time>
      </trkpt>
      <trkpt lat="41.056367" lon="-3.739417">
        <ele>2262.0</ele>
        <time>2016-07-25T17:31:42Z</time>
      </trkpt>
      <trkpt lat="41.056417" lon="-3.739367">
        <ele>2263.0</ele>
        <time>2016-07-25T17:31:43Z</time>
      </trkpt>
      <trkpt lat="41.056467" lon="-3.739317">
        <ele>2264.0</ele>
        <time>2016-07-25T17:31:44Z</time>
      </trkpt>
      <trkpt lat="41.056500" lon="-3.739267">
        <ele>2264.0</ele>
        <time>2016-07-25T17:31:45Z</time>
      </trkpt>
      <trkpt lat="41.056550" lon="-3.739217">
        <ele>2264.0</ele>
        <time>2016-07-25T17:31:46Z</time>
      </trkpt>
      <trkpt lat="41.056600" lon="-3.739167">
        <ele>2264.0</ele>
        <time>2016-07-25T17:31:47Z</time>
      </trkpt>
      <trkpt lat="41.056650" lon="-3.739117">
        <ele>2264.0</ele>
        <time>2016-07-25T17:31:48Z</time>
      </trkpt>
      <trkpt lat="41.056700" lon="-3.739083">
        <ele>2263.0</ele>
        <time>2016-07-25T17:31:49Z</time>
      </trkpt>
      <trkpt lat="41.056767" lon="-3.739067">
        <ele>2263.0</ele>
        <time>2016-07-25T17:31:50Z</time>
      </trkpt>
      <trkpt lat="41.056817" lon="-3.739017">
        <ele>2265.0</ele>
        <time>2016-07-25T17:31:51Z</time>
      </trkpt>
      <trkpt lat="41.056867" lon="-3.738967">
        <ele>2267.0</ele>
        <time>2016-07-25T17:31:52Z</time>
      </trkpt>
      <trkpt lat="41.056900" lon="-3.738917">
        <ele>2269.0</ele>
        <time>2016-07-25T17:31:53Z</time>
      </trkpt>
      <trkpt lat="41.056933" lon="-3.738867">
        <ele>2269.0</ele>
        <time>2016-07-25T17:31:54Z</time>
      </trkpt>
      <trkpt lat="41.056983" lon="-3.738833">
        <ele>2269.0</ele>
        <time>2016-07-25T17:31:55Z</time>
      </trkpt>
      <trkpt lat="41.057033" lon="-3.738783">
        <ele>2267.0</ele>
        <time>2016-07-25T17:31:56Z</time>
      </trkpt>
      <trkpt lat="41.057083" lon="-3.738750">
        <ele>2266.0</ele>
        <time>2016-07-25T17:31:57Z</time>
      </trkpt>
      <trkpt lat="41.057150" lon="-3.738700">
        <ele>2267.0</ele>
        <time>2016-07-25T17:31:58Z</time>
      </trkpt>
      <trkpt lat="41.057200" lon="-3.738667">
        <ele>2269.0</ele>
        <time>2016-07-25T17:31:59Z</time>
      </trkpt>
      <trkpt lat="41.057233" lon="-3.738633">
        <ele>2271.0</ele>
        <time>2016-07-25T17:32:00Z</time>
      </trkpt>
      <trkpt lat="41.057267" lon="-3.738600">
        <ele>2270.0</ele>
        <time>2016-07-25T17:32:01Z</time>
      </trkpt>
      <trkpt lat="41.057317" lon="-3.738567">
        <ele>2269.0</ele>
        <time>2016-07-25T17:32:02Z</time>
      </trkpt>
      <trkpt lat="41.057383" lon="-3.738533">
        <ele>2267.0</ele>
        <time>2016-07-25T17:32:03Z</time>
      </trkpt>
      <trkpt lat="41.057450" lon="-3.738483">
        <ele>2266.0</ele>
        <time>2016-07-25T17:32:04Z</time>
      </trkpt>
      <trkpt lat="41.057500" lon="-3.738433">
        <ele>2267.0</ele>
        <time>2016-07-25T17:32:05Z</time>
      </trkpt>
      <trkpt lat="41.057550" lon="-3.738400">
        <ele>2269.0</ele>
        <time>2016-07-25T17:32:06Z</time>
      </trkpt>
      <trkpt lat="41.057583" lon="-3.738383">
        <ele>2269.0</ele>
        <time>2016-07-25T17:32:07Z</time>
      </trkpt>
      <trkpt lat="41.057633" lon="-3.738383">
        <ele>2269.0</ele>
        <time>2016-07-25T17:32:08Z</time>
      </trkpt>
      <trkpt lat="41.057683" lon="-3.738367">
        <ele>2268.0</ele>
        <time>2016-07-25T17:32:09Z</time>
      </trkpt>
      <trkpt lat="41.057733" lon="-3.738350">
        <ele>2268.0</ele>
        <time>2016-07-25T17:32:10Z</time>
      </trkpt>
      <trkpt lat="41.057783" lon="-3.738317">
        <ele>2268.0</ele>
        <time>2016-07-25T17:32:11Z</time>
      </trkpt>
      <trkpt lat="41.057833" lon="-3.738300">
        <ele>2268.0</ele>
        <time>2016-07-25T17:32:12Z</time>
      </trkpt>
      <trkpt lat="41.057883" lon="-3.738283">
        <ele>2268.0</ele>
        <time>2016-07-25T17:32:13Z</time>
      </trkpt>
      <trkpt lat="41.057933" lon="-3.738250">
        <ele>2268.0</ele>
        <time>2016-07-25T17:32:14Z</time>
      </trkpt>
      <trkpt lat="41.058000" lon="-3.738233">
        <ele>2267.0</ele>
        <time>2016-07-25T17:32:15Z</time>
      </trkpt>
      <trkpt lat="41.058050" lon="-3.738200">
        <ele>2266.0</ele>
        <time>2016-07-25T17:32:16Z</time>
      </trkpt>
      <trkpt lat="41.058100" lon="-3.738167">
        <ele>2266.0</ele>
        <time>2016-07-25T17:32:17Z</time>
      </trkpt>
      <trkpt lat="41.058150" lon="-3.738150">
        <ele>2267.0</ele>
        <time>2016-07-25T17:32:18Z</time>
      </trkpt>
      <trkpt lat="41.058200" lon="-3.738133">
        <ele>2267.0</ele>
        <time>2016-07-25T17:32:19Z</time>
      </trkpt>
      <trkpt lat="41.058233" lon="-3.738117">
        <ele>2267.0</ele>
        <time>2016-07-25T17:32:20Z</time>
      </trkpt>
      <trkpt lat="41.058283" lon="-3.738117">
        <ele>2266.0</ele>
        <time>2016-07-25T17:32:21Z</time>
      </trkpt>
      <trkpt lat="41.058333" lon="-3.738117">
        <ele>2265.0</ele>
        <time>2016-07-25T17:32:22Z</time>
      </trkpt>
      <trkpt lat="41.058400" lon="-3.738133">
        <ele>2265.0</ele>
        <time>2016-07-25T17:32:23Z</time>
      </trkpt>
      <trkpt lat="41.058450" lon="-3.738133">
        <ele>2265.0</ele>
        <time>2016-07-25T17:32:24Z</time>
      </trkpt>
      <trkpt lat="41.058483" lon="-3.738150">
        <ele>2265.0</ele>
        <time>2016-07-25T17:32:25Z</time>
      </trkpt>
      <trkpt lat="41.058533" lon="-3.738167">
        <ele>2265.0</ele>
        <time>2016-07-25T17:32:26Z</time>
      </trkpt>
      <trkpt lat="41.058567" lon="-3.738183">
        <ele>2265.0</ele>
        <time>2016-07-25T17:32:27Z</time>
      </trkpt>
      <trkpt lat="41.058600" lon="-3.738217">
        <ele>2264.0</ele>
        <time>2016-07-25T17:32:28Z</time>
      </trkpt>
      <trkpt lat="41.058650" lon="-3.738250">
        <ele>2263.0</ele>
        <time>2016-07-25T17:32:29Z</time>
      </trkpt>
      <trkpt lat="41.058683" lon="-3.738300">
        <ele>2263.0</ele>
        <time>2016-07-25T17:32:30Z</time>
      </trkpt>
      <trkpt lat="41.058717" lon="-3.738333">
        <ele>2263.0</ele>
        <time>2016-07-25T17:32:31Z</time>
      </trkpt>
      <trkpt lat="41.058750" lon="-3.738383">
        <ele>2263.0</ele>
        <time>2016-07-25T17:32:32Z</time>
      </trkpt>
      <trkpt lat="41.058783" lon="-3.738417">
        <ele>2264.0</ele>
        <time>2016-07-25T17:32:33Z</time>
      </trkpt>
      <trkpt lat="41.058833" lon="-3.738450">
        <ele>2264.0</ele>
        <time>2016-07-25T17:32:34Z</time>
      </trkpt>
      <trkpt lat="41.058867" lon="-3.738483">
        <ele>2264.0</ele>
        <time>2016-07-25T17:32:35Z</time>
      </trkpt>
      <trkpt lat="41.058933" lon="-3.738500">
        <ele>2264.0</ele>
        <time>2016-07-25T17:32:36Z</time>
      </trkpt>
      <trkpt lat="41.058983" lon="-3.738500">
        <ele>2264.0</ele>
        <time>2016-07-25T17:32:37Z</time>
      </trkpt>
      <trkpt lat="41.059050" lon="-3.738483">
        <ele>2265.0</ele>
        <time>2016-07-25T17:32:38Z</time>
      </trkpt>
      <trkpt lat="41.059100" lon="-3.738450">
        <ele>2265.0</ele>
        <time>2016-07-25T17:32:39Z</time>
      </trkpt>
      <trkpt lat="41.059150" lon="-3.738417">
        <ele>2265.0</ele>
        <time>2016-07-25T17:32:40Z</time>
      </trkpt>
      <trkpt lat="41.059200" lon="-3.738383">
        <ele>2264.0</ele>
        <time>2016-07-25T17:32:41Z</time>
      </trkpt>
      <trkpt lat="41.059233" lon="-3.738350">
        <ele>2263.0</ele>
        <time>2016-07-25T17:32:42Z</time>
      </trkpt>
      <trkpt lat="41.059300" lon="-3.738300">
        <ele>2260.0</ele>
        <time>2016-07-25T17:32:43Z</time>
      </trkpt>
      <trkpt lat="41.059350" lon="-3.738283">
        <ele>2258.0</ele>
        <time>2016-07-25T17:32:44Z</time>
      </trkpt>
      <trkpt lat="41.059417" lon="-3.738250">
        <ele>2257.0</ele>
        <time>2016-07-25T17:32:45Z</time>
      </trkpt>
      <trkpt lat="41.059467" lon="-3.738233">
        <ele>2257.0</ele>
        <time>2016-07-25T17:32:46Z</time>
      </trkpt>
      <trkpt lat="41.059517" lon="-3.738217">
        <ele>2257.0</ele>
        <time>2016-07-25T17:32:47Z</time>
      </trkpt>
      <trkpt lat="41.059550" lon="-3.738200">
        <ele>2256.0</ele>
        <time>2016-07-25T17:32:48Z</time>
      </trkpt>
      <trkpt lat="41.059600" lon="-3.738183">
        <ele>2254.0</ele>
        <time>2016-07-25T17:32:49Z</time>
      </trkpt>
      <trkpt lat="41.059667" lon="-3.738183">
        <ele>2252.0</ele>
        <time>2016-07-25T17:32:50Z</time>
      </trkpt>
      <trkpt lat="41.059717" lon="-3.738167">
        <ele>2250.0</ele>
        <time>2016-07-25T17:32:51Z</time>
      </trkpt>
      <trkpt lat="41.059783" lon="-3.738150">
        <ele>2249.0</ele>
        <time>2016-07-25T17:32:52Z</time>
      </trkpt>
      <trkpt lat="41.059850" lon="-3.738150">
        <ele>2248.0</ele>
        <time>2016-07-25T17:32:53Z</time>
      </trkpt>
      <trkpt lat="41.059917" lon="-3.738133">
        <ele>2247.0</ele>
        <time>2016-07-25T17:32:54Z</time>
      </trkpt>
      <trkpt lat="41.059983" lon="-3.738100">
        <ele>2247.0</ele>
        <time>2016-07-25T17:32:55Z</time>
      </trkpt>
      <trkpt lat="41.060050" lon="-3.738067">
        <ele>2247.0</ele>
        <time>2016-07-25T17:32:56Z</time>
      </trkpt>
      <trkpt lat="41.060117" lon="-3.738017">
        <ele>2248.0</ele>
        <time>2016-07-25T17:32:57Z</time>
      </trkpt>
      <trkpt lat="41.060150" lon="-3.737983">
        <ele>2249.0</ele>
        <time>2016-07-25T17:32:58Z</time>
      </trkpt>
      <trkpt lat="41.060200" lon="-3.737950">
        <ele>2249.0</ele>
        <time>2016-07-25T17:32:59Z</time>
      </trkpt>
      <trkpt lat="41.060233" lon="-3.737933">
        <ele>2248.0</ele>
        <time>2016-07-25T17:33:00Z</time>
      </trkpt>
      <trkpt lat="41.060300" lon="-3.737917">
        <ele>2247.0</ele>
        <time>2016-07-25T17:33:01Z</time>
      </trkpt>
      <trkpt lat="41.060367" lon="-3.737883">
        <ele>2247.0</ele>
        <time>2016-07-25T17:33:02Z</time>
      </trkpt>
      <trkpt lat="41.060417" lon="-3.737867">
        <ele>2249.0</ele>
        <time>2016-07-25T17:33:03Z</time>
      </trkpt>
      <trkpt lat="41.060467" lon="-3.737833">
        <ele>2251.0</ele>
        <time>2016-07-25T17:33:04Z</time>
      </trkpt>
      <trkpt lat="41.060500" lon="-3.737817">
        <ele>2253.0</ele>
        <time>2016-07-25T17:33:05Z</time>
      </trkpt>
      <trkpt lat="41.060533" lon="-3.737783">
        <ele>2253.0</ele>
        <time>2016-07-25T17:33:06Z</time>
      </trkpt>
      <trkpt lat="41.060583" lon="-3.737783">
        <ele>2252.0</ele>
        <time>2016-07-25T17:33:07Z</time>
      </trkpt>
      <trkpt lat="41.060633" lon="-3.737767">
        <ele>2251.0</ele>
        <time>2016-07-25T17:33:08Z</time>
      </trkpt>
      <trkpt lat="41.060700" lon="-3.737767">
        <ele>2252.0</ele>
        <time>2016-07-25T17:33:09Z</time>
      </trkpt>
      <trkpt lat="41.060750" lon="-3.737750">
        <ele>2253.0</ele>
        <time>2016-07-25T17:33:10Z</time>
      </trkpt>
      <trkpt lat="41.060800" lon="-3.737733">
        <ele>2254.0</ele>
        <time>2016-07-25T17:33:11Z</time>
      </trkpt>
      <trkpt lat="41.060850" lon="-3.737717">
        <ele>2254.0</ele>
        <time>2016-07-25T17:33:12Z</time>
      </trkpt>
      <trkpt lat="41.060900" lon="-3.737683">
        <ele>2253.0</ele>
        <time>2016-07-25T17:33:13Z</time>
      </trkpt>
      <trkpt lat="41.060967" lon="-3.737683">
        <ele>2252.0</ele>
        <time>2016-07-25T17:33:14Z</time>
      </trkpt>
      <trkpt lat="41.061033" lon="-3.737667">
        <ele>2252.0</ele>
        <time>2016-07-25T17:33:15Z</time>
      </trkpt>
      <trkpt lat="41.061083" lon="-3.737650">
        <ele>2253.0</ele>
        <time>2016-07-25T17:33:16Z</time>
      </trkpt>
      <trkpt lat="41.061133" lon="-3.737650">
        <ele>2254.0</ele>
        <time>2016-07-25T17:33:17Z</time>
      </trkpt>
      <trkpt lat="41.061183" lon="-3.737633">
        <ele>2255.0</ele>
        <time>2016-07-25T17:33:18Z</time>
      </trkpt>
      <trkpt lat="41.061217" lon="-3.737633">
        <ele>2255.0</ele>
        <time>2016-07-25T17:33:19Z</time>
      </trkpt>
      <trkpt lat="41.061250" lon="-3.737650">
        <ele>2254.0</ele>
        <time>2016-07-25T17:33:20Z</time>
      </trkpt>
      <trkpt lat="41.061283" lon="-3.737667">
        <ele>2252.0</ele>
        <time>2016-07-25T17:33:21Z</time>
      </trkpt>
      <trkpt lat="41.061333" lon="-3.737700">
        <ele>2250.0</ele>
        <time>2016-07-25T17:33:22Z</time>
      </trkpt>
      <trkpt lat="41.061383" lon="-3.737733">
        <ele>2249.0</ele>
        <time>2016-07-25T17:33:23Z</time>
      </trkpt>
      <trkpt lat="41.061417" lon="-3.737783">
        <ele>2248.0</ele>
        <time>2016-07-25T17:33:24Z</time>
      </trkpt>
      <trkpt lat="41.061450" lon="-3.737817">
        <ele>2247.0</ele>
        <time>2016-07-25T17:33:25Z</time>
      </trkpt>
      <trkpt lat="41.061483" lon="-3.737850">
        <ele>2245.0</ele>
        <time>2016-07-25T17:33:26Z</time>
      </trkpt>
      <trkpt lat="41.061517" lon="-3.737900">
        <ele>2243.0</ele>
        <time>2016-07-25T17:33:27Z</time>
      </trkpt>
      <trkpt lat="41.061567" lon="-3.737933">
        <ele>2242.0</ele>
        <time>2016-07-25T17:33:28Z</time>
      </trkpt>
      <trkpt lat="41.061600" lon="-3.737983">
        <ele>2241.0</ele>
        <time>2016-07-25T17:33:29Z</time>
      </trkpt>
      <trkpt lat="41.061650" lon="-3.738017">
        <ele>2240.0</ele>
        <time>2016-07-25T17:33:30Z</time>
      </trkpt>
      <trkpt lat="41.061683" lon="-3.738067">
        <ele>2239.0</ele>
        <time>2016-07-25T17:33:31Z</time>
      </trkpt>
      <trkpt lat="41.061733" lon="-3.738100">
        <ele>2238.0</ele>
        <time>2016-07-25T17:33:32Z</time>
      </trkpt>
      <trkpt lat="41.061783" lon="-3.738133">
        <ele>2238.0</ele>
        <time>2016-07-25T17:33:33Z</time>
      </trkpt>
      <trkpt lat="41.061817" lon="-3.738183">
        <ele>2237.0</ele>
        <time>2016-07-25T17:33:34Z</time>
      </trkpt>
      <trkpt lat="41.061850" lon="-3.738217">
        <ele>2236.0</ele>
        <time>2016-07-25T17:33:35Z</time>
      </trkpt>
      <trkpt lat="41.061883" lon="-3.738233">
        <ele>2234.0</ele>
        <time>2016-07-25T17:33:36Z</time>
      </trkpt>
      <trkpt lat="41.061933" lon="-3.738267">
        <ele>2231.0</ele>
        <time>2016-07-25T17:33:37Z</time>
      </trkpt>
      <trkpt lat="41.061967" lon="-3.738300">
        <ele>2229.0</ele>
        <time>2016-07-25T17:33:38Z</time>
      </trkpt>
      <trkpt lat="41.062017" lon="-3.738350">
        <ele>2227.0</ele>
        <time>2016-07-25T17:33:39Z</time>
      </trkpt>
      <trkpt lat="41.062050" lon="-3.738383">
        <ele>2225.0</ele>
        <time>2016-07-25T17:33:40Z</time>
      </trkpt>
      <trkpt lat="41.062100" lon="-3.738433">
        <ele>2223.0</ele>
        <time>2016-07-25T17:33:41Z</time>
      </trkpt>
      <trkpt lat="41.062133" lon="-3.738450">
        <ele>2221.0</ele>
        <time>2016-07-25T17:33:42Z</time>
      </trkpt>
      <trkpt lat="41.062200" lon="-3.738450">
        <ele>2220.0</ele>
        <time>2016-07-25T17:33:43Z</time>
      </trkpt>
      <trkpt lat="41.062250" lon="-3.738450">
        <ele>2218.0</ele>
        <time>2016-07-25T17:33:44Z</time>
      </trkpt>
      <trkpt lat="41.062317" lon="-3.738417">
        <ele>2218.0</ele>
        <time>2016-07-25T17:33:45Z</time>
      </trkpt>
      <trkpt lat="41.062383" lon="-3.738383">
        <ele>2218.0</ele>
        <time>2016-07-25T17:33:46Z</time>
      </trkpt>
      <trkpt lat="41.062433" lon="-3.738317">
        <ele>2217.0</ele>
        <time>2016-07-25T17:33:47Z</time>
      </trkpt>
      <trkpt lat="41.062483" lon="-3.738250">
        <ele>2217.0</ele>
        <time>2016-07-25T17:33:48Z</time>
      </trkpt>
      <trkpt lat="41.062533" lon="-3.738183">
        <ele>2217.0</ele>
        <time>2016-07-25T17:33:49Z</time>
      </trkpt>
      <trkpt lat="41.062567" lon="-3.738133">
        <ele>2216.0</ele>
        <time>2016-07-25T17:33:50Z</time>
      </trkpt>
      <trkpt lat="41.062617" lon="-3.738067">
        <ele>2214.0</ele>
        <time>2016-07-25T17:33:51Z</time>
      </trkpt>
      <trkpt lat="41.062683" lon="-3.738000">
        <ele>2213.0</ele>
        <time>2016-07-25T17:33:52Z</time>
      </trkpt>
      <trkpt lat="41.062733" lon="-3.737933">
        <ele>2211.0</ele>
        <time>2016-07-25T17:33:53Z</time>
      </trkpt>
      <trkpt lat="41.062783" lon="-3.737850">
        <ele>2210.0</ele>
        <time>2016-07-25T17:33:54Z</time>
      </trkpt>
      <trkpt lat="41.062817" lon="-3.737783">
        <ele>2209.0</ele>
        <time>2016-07-25T17:33:55Z</time>
      </trkpt>
      <trkpt lat="41.062867" lon="-3.737700">
        <ele>2208.0</ele>
        <time>2016-07-25T17:33:56Z</time>
      </trkpt>
      <trkpt lat="41.062917" lon="-3.737617">
        <ele>2206.0</ele>
        <time>2016-07-25T17:33:57Z</time>
      </trkpt>
      <trkpt lat="41.062967" lon="-3.737533">
        <ele>2205.0</ele>
        <time>2016-07-25T17:33:58Z</time>
      </trkpt>
      <trkpt lat="41.063017" lon="-3.737433">
        <ele>2205.0</ele>
        <time>2016-07-25T17:33:59Z</time>
      </trkpt>
      <trkpt lat="41.063050" lon="-3.737350">
        <ele>2207.0</ele>
        <time>2016-07-25T17:34:00Z</time>
      </trkpt>
      <trkpt lat="41.063083" lon="-3.737267">
        <ele>2208.0</ele>
        <time>2016-07-25T17:34:01Z</time>
      </trkpt>
      <trkpt lat="41.063117" lon="-3.737200">
        <ele>2208.0</ele>
        <time>2016-07-25T17:34:02Z</time>
      </trkpt>
      <trkpt lat="41.063133" lon="-3.737133">
        <ele>2208.0</ele>
        <time>2016-07-25T17:34:03Z</time>
      </trkpt>
      <trkpt lat="41.063167" lon="-3.737050">
        <ele>2206.0</ele>
        <time>2016-07-25T17:34:04Z</time>
      </trkpt>
      <trkpt lat="41.063217" lon="-3.736967">
        <ele>2205.0</ele>
        <time>2016-07-25T17:34:05Z</time>
      </trkpt>
      <trkpt lat="41.063250" lon="-3.736900">
        <ele>2204.0</ele>
        <time>2016-07-25T17:34:06Z</time>
      </trkpt>
      <trkpt lat="41.063300" lon="-3.736833">
        <ele>2205.0</ele>
        <time>2016-07-25T17:34:07Z</time>
      </trkpt>
      <trkpt lat="41.063333" lon="-3.736783">
        <ele>2206.0</ele>
        <time>2016-07-25T17:34:08Z</time>
      </trkpt>
      <trkpt lat="41.063367" lon="-3.736733">
        <ele>2206.0</ele>
        <time>2016-07-25T17:34:09Z</time>
      </trkpt>
      <trkpt lat="41.063400" lon="-3.736667">
        <ele>2205.0</ele>
        <time>2016-07-25T17:34:10Z</time>
      </trkpt>
      <trkpt lat="41.063433" lon="-3.736583">
        <ele>2205.0</ele>
        <time>2016-07-25T17:34:11Z</time>
      </trkpt>
      <trkpt lat="41.063467" lon="-3.736517">
        <ele>2204.0</ele>
        <time>2016-07-25T17:34:12Z</time>
      </trkpt>
      <trkpt lat="41.063500" lon="-3.736450">
        <ele>2205.0</ele>
        <time>2016-07-25T17:34:13Z</time>
      </trkpt>
      <trkpt lat="41.063533" lon="-3.736400">
        <ele>2206.0</ele>
        <time>2016-07-25T17:34:14Z</time>
      </trkpt>
      <trkpt lat="41.063567" lon="-3.736333">
        <ele>2207.0</ele>
        <time>2016-07-25T17:34:15Z</time>
      </trkpt>
      <trkpt lat="41.063600" lon="-3.736283">
        <ele>2208.0</ele>
        <time>2016-07-25T17:34:16Z</time>
      </trkpt>
      <trkpt lat="41.063633" lon="-3.736233">
        <ele>2209.0</ele>
        <time>2016-07-25T17:34:17Z</time>
      </trkpt>
      <trkpt lat="41.063683" lon="-3.736200">
        <ele>2211.0</ele>
        <time>2016-07-25T17:34:18Z</time>
      </trkpt>
      <trkpt lat="41.063733" lon="-3.736200">
        <ele>2213.0</ele>
        <time>2016-07-25T17:34:19Z</time>
      </trkpt>
      <trkpt lat="41.063767" lon="-3.736217">
        <ele>2215.0</ele>
        <time>2016-07-25T17:34:20Z</time>
      </trkpt>
      <trkpt lat="41.063800" lon="-3.736217">
        <ele>2216.0</ele>
        <time>2016-07-25T17:34:21Z</time>
      </trkpt>
      <trkpt lat="41.063833" lon="-3.736217">
        <ele>2218.0</ele>
        <time>2016-07-25T17:34:22Z</time>
      </trkpt>
      <trkpt lat="41.063867" lon="-3.736250">
        <ele>2218.0</ele>
        <time>2016-07-25T17:34:23Z</time>
      </trkpt>
      <trkpt lat="41.063900" lon="-3.736283">
        <ele>2219.0</ele>
        <time>2016-07-25T17:34:24Z</time>
      </trkpt>
      <trkpt lat="41.063933" lon="-3.736367">
        <ele>2219.0</ele>
        <time>2016-07-25T17:34:25Z</time>
      </trkpt>
      <trkpt lat="41.063967" lon="-3.736433">
        <ele>2221.0</ele>
        <time>2016-07-25T17:34:26Z</time>
      </trkpt>
      <trkpt lat="41.063983" lon="-3.736517">
        <ele>2223.0</ele>
        <time>2016-07-25T17:34:27Z</time>
      </trkpt>
      <trkpt lat="41.063983" lon="-3.736583">
        <ele>2226.0</ele>
        <time>2016-07-25T17:34:28Z</time>
      </trkpt>
      <trkpt lat="41.063967" lon="-3.736650">
        <ele>2228.0</ele>
        <time>2016-07-25T17:34:29Z</time>
      </trkpt>
      <trkpt lat="41.063967" lon="-3.736733">
        <ele>2230.0</ele>
        <time>2016-07-25T17:34:30Z</time>
      </trkpt>
      <trkpt lat="41.063983" lon="-3.736817">
        <ele>2231.0</ele>
        <time>2016-07-25T17:34:31Z</time>
      </trkpt>
      <trkpt lat="41.064000" lon="-3.736883">
        <ele>2234.0</ele>
        <time>2016-07-25T17:34:32Z</time>
      </trkpt>
      <trkpt lat="41.064017" lon="-3.736933">
        <ele>2238.0</ele>
        <time>2016-07-25T17:34:33Z</time>
      </trkpt>
      <trkpt lat="41.064017" lon="-3.737000">
        <ele>2242.0</ele>
        <time>2016-07-25T17:34:34Z</time>
      </trkpt>
      <trkpt lat="41.063983" lon="-3.737067">
        <ele>2245.0</ele>
        <time>2016-07-25T17:34:35Z</time>
      </trkpt>
      <trkpt lat="41.063933" lon="-3.737133">
        <ele>2246.0</ele>
        <time>2016-07-25T17:34:36Z</time>
      </trkpt>
      <trkpt lat="41.063900" lon="-3.737233">
        <ele>2248.0</ele>
        <time>2016-07-25T17:34:37Z</time>
      </trkpt>
      <trkpt lat="41.063850" lon="-3.737333">
        <ele>2250.0</ele>
        <time>2016-07-25T17:34:38Z</time>
      </trkpt>
      <trkpt lat="41.063783" lon="-3.737417">
        <ele>2252.0</ele>
        <time>2016-07-25T17:34:39Z</time>
      </trkpt>
      <trkpt lat="41.063700" lon="-3.737500">
        <ele>2253.0</ele>
        <time>2016-07-25T17:34:40Z</time>
      </trkpt>
      <trkpt lat="41.063617" lon="-3.737550">
        <ele>2254.0</ele>
        <time>2016-07-25T17:34:41Z</time>
      </trkpt>
      <trkpt lat="41.063550" lon="-3.737617">
        <ele>2255.0</ele>
        <time>2016-07-25T17:34:42Z</time>
      </trkpt>
      <trkpt lat="41.063500" lon="-3.737683">
        <ele>2255.0</ele>
        <time>2016-07-25T17:34:43Z</time>
      </trkpt>
      <trkpt lat="41.063433" lon="-3.737767">
        <ele>2255.0</ele>
        <time>2016-07-25T17:34:44Z</time>
      </trkpt>
      <trkpt lat="41.063367" lon="-3.737850">
        <ele>2257.0</ele>
        <time>2016-07-25T17:34:45Z</time>
      </trkpt>
      <trkpt lat="41.063283" lon="-3.737917">
        <ele>2259.0</ele>
        <time>2016-07-25T17:34:46Z</time>
      </trkpt>
      <trkpt lat="41.063183" lon="-3.737950">
        <ele>2260.0</ele>
        <time>2016-07-25T17:34:47Z</time>
      </trkpt>
      <trkpt lat="41.063067" lon="-3.737967">
        <ele>2261.0</ele>
        <time>2016-07-25T17:34:48Z</time>
      </trkpt>
      <trkpt lat="41.062950" lon="-3.737967">
        <ele>2261.0</ele>
        <time>2016-07-25T17:34:49Z</time>
      </trkpt>
      <trkpt lat="41.062817" lon="-3.737950">
        <ele>2262.0</ele>
        <time>2016-07-25T17:34:50Z</time>
      </trkpt>
      <trkpt lat="41.062683" lon="-3.737883">
        <ele>2263.0</ele>
        <time>2016-07-25T17:34:51Z</time>
      </trkpt>
      <trkpt lat="41.062567" lon="-3.737800">
        <ele>2264.0</ele>
        <time>2016-07-25T17:34:52Z</time>
      </trkpt>
      <trkpt lat="41.062467" lon="-3.737667">
        <ele>2264.0</ele>
        <time>2016-07-25T17:34:53Z</time>
      </trkpt>
      <trkpt lat="41.062383" lon="-3.737533">
        <ele>2265.0</ele>
        <time>2016-07-25T17:34:54Z</time>
      </trkpt>
      <trkpt lat="41.062333" lon="-3.737400">
        <ele>2266.0</ele>
        <time>2016-07-25T17:34:55Z</time>
      </trkpt>
      <trkpt lat="41.062300" lon="-3.737267">
        <ele>2267.0</ele>
        <time>2016-07-25T17:34:56Z</time>
      </trkpt>
      <trkpt lat="41.062300" lon="-3.737133">
        <ele>2268.0</ele>
        <time>2016-07-25T17:34:57Z</time>
      </trkpt>
      <trkpt lat="41.062300" lon="-3.737033">
        <ele>2268.0</ele>
        <time>2016-07-25T17:34:58Z</time>
      </trkpt>
      <trkpt lat="41.062333" lon="-3.736933">
        <ele>2269.0</ele>
        <time>2016-07-25T17:34:59Z</time>
      </trkpt>
      <trkpt lat="41.062367" lon="-3.736850">
        <ele>2269.0</ele>
        <time>2016-07-25T17:35:00Z</time>
      </trkpt>
      <trkpt lat="41.062417" lon="-3.736817">
        <ele>2270.0</ele>
        <time>2016-07-25T17:35:01Z</time>
      </trkpt>
      <trkpt lat="41.062450" lon="-3.736817">
        <ele>2269.0</ele>
        <time>2016-07-25T17:35:02Z</time>
      </trkpt>
      <trkpt lat="41.062517" lon="-3.736817">
        <ele>2268.0</ele>
        <time>2016-07-25T17:35:03Z</time>
      </trkpt>
      <trkpt lat="41.062567" lon="-3.736800">
        <ele>2269.0</ele>
        <time>2016-07-25T17:35:04Z</time>
      </trkpt>
      <trkpt lat="41.062617" lon="-3.736767">
        <ele>2270.0</ele>
        <time>2016-07-25T17:35:05Z</time>
      </trkpt>
      <trkpt lat="41.062667" lon="-3.736750">
        <ele>2272.0</ele>
        <time>2016-07-25T17:35:06Z</time>
      </trkpt>
      <trkpt lat="41.062700" lon="-3.736750">
        <ele>2273.0</ele>
        <time>2016-07-25T17:35:07Z</time>
      </trkpt>
      <trkpt lat="41.062750" lon="-3.736767">
        <ele>2273.0</ele>
        <time>2016-07-25T17:35:08Z</time>
      </trkpt>
      <trkpt lat="41.062800" lon="-3.736800">
        <ele>2272.0</ele>
        <time>2016-07-25T17:35:09Z</time>
      </trkpt>
      <trkpt lat="41.062850" lon="-3.736833">
        <ele>2272.0</ele>
        <time>2016-07-25T17:35:10Z</time>
      </trkpt>
      <trkpt lat="41.062883" lon="-3.736867">
        <ele>2273.0</ele>
        <time>2016-07-25T17:35:11Z</time>
      </trkpt>
      <trkpt lat="41.062933" lon="-3.736883">
        <ele>2275.0</ele>
        <time>2016-07-25T17:35:12Z</time>
      </trkpt>
      <trkpt lat="41.062967" lon="-3.736917">
        <ele>2277.0</ele>
        <time>2016-07-25T17:35:13Z</time>
      </trkpt>
      <trkpt lat="41.063000" lon="-3.736950">
        <ele>2279.0</ele>
        <time>2016-07-25T17:35:14Z</time>
      </trkpt>
      <trkpt lat="41.063050" lon="-3.736983">
        <ele>2280.0</ele>
        <time>2016-07-25T17:35:15Z</time>
      </trkpt>
      <trkpt lat="41.063067" lon="-3.737017">
        <ele>2282.0</ele>
        <time>2016-07-25T17:35:16Z</time>
      </trkpt>
      <trkpt lat="41.063100" lon="-3.737050">
        <ele>2283.0</ele>
        <time>2016-07-25T17:35:17Z</time>
      </trkpt>
      <trkpt lat="41.063117" lon="-3.737100">
        <ele>2284.0</ele>
        <time>2016-07-25T17:35:18Z</time>
      </trkpt>
      <trkpt lat="41.063150" lon="-3.737150">
        <ele>2285.0</ele>
        <time>2016-07-25T17:35:19Z</time>
      </trkpt>
      <trkpt lat="41.063183" lon="-3.737183">
        <ele>2285.0</ele>
        <time>2016-07-25T17:35:20Z</time>
      </trkpt>
      <trkpt lat="41.063217" lon="-3.737200">
        <ele>2287.0</ele>
        <time>2016-07-25T17:35:21Z</time>
      </trkpt>
      <trkpt lat="41.063250" lon="-3.737217">
        <ele>2288.0</ele>
        <time>2016-07-25T17:35:22Z</time>
      </trkpt>
      <trkpt lat="41.063283" lon="-3.737217">
        <ele>2290.0</ele>
        <time>2016-07-25T17:35:23Z</time>
      </trkpt>
      <trkpt lat="41.063317" lon="-3.737250">
        <ele>2292.0</ele>
        <time>2016-07-25T17:35:24Z</time>
      </trkpt>
      <trkpt lat="41.063333" lon="-3.737267">
        <ele>2295.0</ele>
        <time>2016-07-25T17:35:25Z</time>
      </trkpt>
      <trkpt lat="41.063367" lon="-3.737283">
        <ele>2297.0</ele>
        <time>2016-07-25T17:35:26Z</time>
      </trkpt>
      <trkpt lat="41.063383" lon="-3.737283">
        <ele>2299.0</ele>
        <time>2016-07-25T17:35:27Z</time>
      </trkpt>
      <trkpt lat="41.063417" lon="-3.737283">
        <ele>2300.0</ele>
        <time>2016-07-25T17:35:28Z</time>
      </trkpt>
      <trkpt lat="41.063450" lon="-3.737267">
        <ele>2300.0</ele>
        <time>2016-07-25T17:35:29Z</time>
      </trkpt>
      <trkpt lat="41.063483" lon="-3.737250">
        <ele>2301.0</ele>
        <time>2016-07-25T17:35:30Z</time>
      </trkpt>
      <trkpt lat="41.063533" lon="-3.737217">
        <ele>2302.0</ele>
        <time>2016-07-25T17:35:31Z</time>
      </trkpt>
      <trkpt lat="41.063583" lon="-3.737133">
        <ele>2302.0</ele>
        <time>2016-07-25T17:35:32Z</time>
      </trkpt>
      <trkpt lat="41.063617" lon="-3.737033">
        <ele>2303.0</ele>
        <time>2016-07-25T17:35:33Z</time>
      </trkpt>
      <trkpt lat="41.063633" lon="-3.736900">
        <ele>2305.0</ele>
        <time>2016-07-25T17:35:34Z</time>
      </trkpt>
      <trkpt lat="41.063633" lon="-3.736767">
        <ele>2307.0</ele>
        <time>2016-07-25T17:35:35Z</time>
      </trkpt>
      <trkpt lat="41.063617" lon="-3.736633">
        <ele>2308.0</ele>
        <time>2016-07-25T17:35:36Z</time>
      </trkpt>
      <trkpt lat="41.063583" lon="-3.736500">
        <ele>2309.0</ele>
        <time>2016-07-25T17:35:37Z</time>
      </trkpt>
      <trkpt lat="41.063533" lon="-3.736350">
        <ele>2309.0</ele>
        <time>2016-07-25T17:35:38Z</time>
      </trkpt>
      <trkpt lat="41.063450" lon="-3.736200">
        <ele>2308.0</ele>
        <time>2016-07-25T17:35:39Z</time>
      </trkpt>
      <trkpt lat="41.063317" lon="-3.736083">
        <ele>2308.0</ele>
        <time>2016-07-25T17:35:40Z</time>
      </trkpt>
      <trkpt lat="41.063167" lon="-3.736033">
        <ele>2307.0</ele>
        <time>2016-07-25T17:35:41Z</time>
      </trkpt>
      <trkpt lat="41.063017" lon="-3.736050">
        <ele>2307.0</ele>
        <time>2016-07-25T17:35:42Z</time>
      </trkpt>
      <trkpt lat="41.062917" lon="-3.736133">
        <ele>2308.0</ele>
        <time>2016-07-25T17:35:43Z</time>
      </trkpt>
      <trkpt lat="41.062850" lon="-3.736217">
        <ele>2311.0</ele>
        <time>2016-07-25T17:35:44Z</time>
      </trkpt>
      <trkpt lat="41.062800" lon="-3.736300">
        <ele>2314.0</ele>
        <time>2016-07-25T17:35:45Z</time>
      </trkpt>
      <trkpt lat="41.062783" lon="-3.736350">
        <ele>2316.0</ele>
        <time>2016-07-25T17:35:46Z</time>
      </trkpt>
      <trkpt lat="41.062783" lon="-3.736400">
        <ele>2317.0</ele>
        <time>2016-07-25T17:35:47Z</time>
      </trkpt>
      <trkpt lat="41.062767" lon="-3.736450">
        <ele>2317.0</ele>
        <time>2016-07-25T17:35:48Z</time>
      </trkpt>
      <trkpt lat="41.062767" lon="-3.736517">
        <ele>2316.0</ele>
        <time>2016-07-25T17:35:49Z</time>
      </trkpt>
      <trkpt lat="41.062783" lon="-3.736583">
        <ele>2317.0</ele>
        <time>2016-07-25T17:35:50Z</time>
      </trkpt>
      <trkpt lat="41.062817" lon="-3.736617">
        <ele>2319.0</ele>
        <time>2016-07-25T17:35:51Z</time>
      </trkpt>
      <trkpt lat="41.062833" lon="-3.736650">
        <ele>2322.0</ele>
        <time>2016-07-25T17:35:52Z</time>
      </trkpt>
      <trkpt lat="41.062850" lon="-3.736667">
        <ele>2325.0</ele>
        <time>2016-07-25T17:35:53Z</time>
      </trkpt>
      <trkpt lat="41.062867" lon="-3.736667">
        <ele>2326.0</ele>
        <time>2016-07-25T17:35:54Z</time>
      </trkpt>
      <trkpt lat="41.062883" lon="-3.736700">
        <ele>2327.0</ele>
        <time>2016-07-25T17:35:55Z</time>
      </trkpt>
      <trkpt lat="41.062917" lon="-3.736717">
        <ele>2327.0</ele>
        <time>2016-07-25T17:35:56Z</time>
      </trkpt>
      <trkpt lat="41.062950" lon="-3.736717">
        <ele>2327.0</ele>
        <time>2016-07-25T17:35:57Z</time>
      </trkpt>
      <trkpt lat="41.063000" lon="-3.736700">
        <ele>2328.0</ele>
        <time>2016-07-25T17:35:58Z</time>
      </trkpt>
      <trkpt lat="41.063050" lon="-3.736683">
        <ele>2331.0</ele>
        <time>2016-07-25T17:35:59Z</time>
      </trkpt>
      <trkpt lat="41.063083" lon="-3.736650">
        <ele>2334.0</ele>
        <time>2016-07-25T17:36:00Z</time>
      </trkpt>
      <trkpt lat="41.063117" lon="-3.736633">
        <ele>2336.0</ele>
        <time>2016-07-25T17:36:01Z</time>
      </trkpt>
      <trkpt lat="41.063133" lon="-3.736617">
        <ele>2337.0</ele>
        <time>2016-07-25T17:36:02Z</time>
      </trkpt>
      <trkpt lat="41.063183" lon="-3.736600">
        <ele>2337.0</ele>
        <time>2016-07-25T17:36:03Z</time>
      </trkpt>
      <trkpt lat="41.063217" lon="-3.736567">
        <ele>2338.0</ele>
        <time>2016-07-25T17:36:04Z</time>
      </trkpt>
      <trkpt lat="41.063267" lon="-3.736517">
        <ele>2339.0</ele>
        <time>2016-07-25T17:36:05Z</time>
      </trkpt>
      <trkpt lat="41.063300" lon="-3.736450">
        <ele>2341.0</ele>
        <time>2016-07-25T17:36:06Z</time>
      </trkpt>
      <trkpt lat="41.063317" lon="-3.736367">
        <ele>2341.0</ele>
        <time>2016-07-25T17:36:07Z</time>
      </trkpt>
      <trkpt lat="41.063350" lon="-3.736300">
        <ele>2342.0</ele>
        <time>2016-07-25T17:36:08Z</time>
      </trkpt>
      <trkpt lat="41.063383" lon="-3.736233">
        <ele>2342.0</ele>
        <time>2016-07-25T17:36:09Z</time>
      </trkpt>
      <trkpt lat="41.063433" lon="-3.736150">
        <ele>2343.0</ele>
        <time>2016-07-25T17:36:10Z</time>
      </trkpt>
      <trkpt lat="41.063467" lon="-3.736067">
        <ele>2343.0</ele>
        <time>2016-07-25T17:36:11Z</time>
      </trkpt>
      <trkpt lat="41.063483" lon="-3.735950">
        <ele>2344.0</ele>
        <time>2016-07-25T17:36:12Z</time>
      </trkpt>
      <trkpt lat="41.063483" lon="-3.735817">
        <ele>2344.0</ele>
        <time>2016-07-25T17:36:13Z</time>
      </trkpt>
      <trkpt lat="41.063483" lon="-3.735683">
        <ele>2345.0</ele>
        <time>2016-07-25T17:36:14Z</time>
      </trkpt>
      <trkpt lat="41.063467" lon="-3.735533">
        <ele>2346.0</ele>
        <time>2016-07-25T17:36:15Z</time>
      </trkpt>
      <trkpt lat="41.063417" lon="-3.735400">
        <ele>2347.0</ele>
        <time>2016-07-25T17:36:16Z</time>
      </trkpt>
      <trkpt lat="41.063333" lon="-3.735267">
        <ele>2346.0</ele>
        <time>2016-07-25T17:36:17Z</time>
      </trkpt>
      <trkpt lat="41.063233" lon="-3.735133">
        <ele>2346.0</ele>
        <time>2016-07-25T17:36:18Z</time>
      </trkpt>
      <trkpt lat="41.063133" lon="-3.735033">
        <ele>2346.0</ele>
        <time>2016-07-25T17:36:19Z</time>
      </trkpt>
      <trkpt lat="41.063000" lon="-3.734967">
        <ele>2347.0</ele>
        <time>2016-07-25T17:36:20Z</time>
      </trkpt>
      <trkpt lat="41.062883" lon="-3.734933">
        <ele>2348.0</ele>
        <time>2016-07-25T17:36:21Z</time>
      </trkpt>
      <trkpt lat="41.062767" lon="-3.734933">
        <ele>2349.0</ele>
        <time>2016-07-25T17:36:22Z</time>
      </trkpt>
      <trkpt lat="41.062650" lon="-3.734950">
        <ele>2350.0</ele>
        <time>2016-07-25T17:36:23Z</time>
      </trkpt>
      <trkpt lat="41.062533" lon="-3.734983">
        <ele>2351.0</ele>
        <time>2016-07-25T17:36:24Z</time>
      </trkpt>
      <trkpt lat="41.062433" lon="-3.735017">
        <ele>2351.0</ele>
        <time>2016-07-25T17:36:25Z</time>
      </trkpt>
      <trkpt lat="41.062333" lon="-3.735050">
        <ele>2352.0</ele>
        <time>2016-07-25T17:36:26Z</time>
      </trkpt>
      <trkpt lat="41.062233" lon="-3.735117">
        <ele>2353.0</ele>
        <time>2016-07-25T17:36:27Z</time>
      </trkpt>
      <trkpt lat="41.062150" lon="-3.735200">
        <ele>2354.0</ele>
        <time>2016-07-25T17:36:28Z</time>
      </trkpt>
      <trkpt lat="41.062083" lon="-3.735283">
        <ele>2355.0</ele>
        <time>2016-07-25T17:36:29Z</time>
      </trkpt>
      <trkpt lat="41.062017" lon="-3.735367">
        <ele>2356.0</ele>
        <time>2016-07-25T17:36:30Z</time>
      </trkpt>
      <trkpt lat="41.061950" lon="-3.735450">
        <ele>2357.0</ele>
        <time>2016-07-25T17:36:31Z</time>
      </trkpt>
      <trkpt lat="41.061883" lon="-3.735517">
        <ele>2358.0</ele>
        <time>2016-07-25T17:36:32Z</time>
      </trkpt>
      <trkpt lat="41.061817" lon="-3.735600">
        <ele>2360.0</ele>
        <time>2016-07-25T17:36:33Z</time>
      </trkpt>
      <trkpt lat="41.061750" lon="-3.735683">
        <ele>2361.0</ele>
        <time>2016-07-25T17:36:34Z</time>
      </trkpt>
      <trkpt lat="41.061700" lon="-3.735767">
        <ele>2362.0</ele>
        <time>2016-07-25T17:36:35Z</time>
      </trkpt>
      <trkpt lat="41.061667" lon="-3.735850">
        <ele>2364.0</ele>
        <time>2016-07-25T17:36:36Z</time>
      </trkpt>
      <trkpt lat="41.061650" lon="-3.735933">
        <ele>2365.0</ele>
        <time>2016-07-25T17:36:37Z</time>
      </trkpt>
      <trkpt lat="41.061633" lon="-3.736000">
        <ele>2367.0</ele>
        <time>2016-07-25T17:36:38Z</time>
      </trkpt>
      <trkpt lat="41.061617" lon="-3.736083">
        <ele>2369.0</ele>
        <time>2016-07-25T17:36:39Z</time>
      </trkpt>
      <trkpt lat="41.061617" lon="-3.736133">
        <ele>2372.0</ele>
        <time>2016-07-25T17:36:40Z</time>
      </trkpt>
      <trkpt lat="41.061633" lon="-3.736183">
        <ele>2374.0</ele>
        <time>2016-07-25T17:36:41Z</time>
      </trkpt>
      <trkpt lat="41.061650" lon="-3.736200">
        <ele>2376.0</ele>
        <time>2016-07-25T17:36:42Z</time>
      </trkpt>
      <trkpt lat="41.061667" lon="-3.736200">
        <ele>2377.0</ele>
        <time>2016-07-25T17:36:43Z</time>
      </trkpt>
      <trkpt lat="41.061717" lon="-3.736200">
        <ele>2378.0</ele>
        <time>2016-07-25T17:36:44Z</time>
      </trkpt>
      <trkpt lat="41.061750" lon="-3.736150">
        <ele>2380.0</ele>
        <time>2016-07-25T17:36:45Z</time>
      </trkpt>
      <trkpt lat="41.061783" lon="-3.736067">
        <ele>2382.0</ele>
        <time>2016-07-25T17:36:46Z</time>
      </trkpt>
      <trkpt lat="41.061817" lon="-3.735983">
        <ele>2384.0</ele>
        <time>2016-07-25T17:36:47Z</time>
      </trkpt>
      <trkpt lat="41.061850" lon="-3.735900">
        <ele>2386.0</ele>
        <time>2016-07-25T17:36:48Z</time>
      </trkpt>
      <trkpt lat="41.061883" lon="-3.735800">
        <ele>2388.0</ele>
        <time>2016-07-25T17:36:49Z</time>
      </trkpt>
      <trkpt lat="41.061900" lon="-3.735717">
        <ele>2389.0</ele>
        <time>2016-07-25T17:36:50Z</time>
      </trkpt>
      <trkpt lat="41.061933" lon="-3.735617">
        <ele>2390.0</ele>
        <time>2016-07-25T17:36:51Z</time>
      </trkpt>
      <trkpt lat="41.061950" lon="-3.735500">
        <ele>2391.0</ele>
        <time>2016-07-25T17:36:52Z</time>
      </trkpt>
      <trkpt lat="41.061950" lon="-3.735383">
        <ele>2392.0</ele>
        <time>2016-07-25T17:36:53Z</time>
      </trkpt>
      <trkpt lat="41.061967" lon="-3.735283">
        <ele>2394.0</ele>
        <time>2016-07-25T17:36:54Z</time>
      </trkpt>
      <trkpt lat="41.061983" lon="-3.735183">
        <ele>2395.0</ele>
        <time>2016-07-25T17:36:55Z</time>
      </trkpt>
      <trkpt lat="41.062017" lon="-3.735083">
        <ele>2396.0</ele>
        <time>2016-07-25T17:36:56Z</time>
      </trkpt>
      <trkpt lat="41.062017" lon="-3.734967">
        <ele>2396.0</ele>
        <time>2016-07-25T17:36:57Z</time>
      </trkpt>
      <trkpt lat="41.062000" lon="-3.734833">
        <ele>2397.0</ele>
        <time>2016-07-25T17:36:58Z</time>
      </trkpt>
      <trkpt lat="41.061950" lon="-3.734700">
        <ele>2397.0</ele>
        <time>2016-07-25T17:36:59Z</time>
      </trkpt>
      <trkpt lat="41.061883" lon="-3.734567">
        <ele>2398.0</ele>
        <time>2016-07-25T17:37:00Z</time>
      </trkpt>
      <trkpt lat="41.061817" lon="-3.734433">
        <ele>2400.0</ele>
        <time>2016-07-25T17:37:01Z</time>
      </trkpt>
      <trkpt lat="41.061717" lon="-3.734333">
        <ele>2402.0</ele>
        <time>2016-07-25T17:37:02Z</time>
      </trkpt>
      <trkpt lat="41.061600" lon="-3.734250">
        <ele>2403.0</ele>
        <time>2016-07-25T17:37:03Z</time>
      </trkpt>
      <trkpt lat="41.061467" lon="-3.734183">
        <ele>2404.0</ele>
        <time>2016-07-25T17:37:04Z</time>
      </trkpt>
      <trkpt lat="41.061350" lon="-3.734133">
        <ele>2405.0</ele>
        <time>2016-07-25T17:37:05Z</time>
      </trkpt>
      <trkpt lat="41.061217" lon="-3.734117">
        <ele>2406.0</ele>
        <time>2016-07-25T17:37:06Z</time>
      </trkpt>
      <trkpt lat="41.061083" lon="-3.734117">
        <ele>2407.0</ele>
        <time>2016-07-25T17:37:07Z</time>
      </trkpt>
      <trkpt lat="41.060967" lon="-3.734133">
        <ele>2407.0</ele>
        <time>2016-07-25T17:37:08Z</time>
      </trkpt>
      <trkpt lat="41.060850" lon="-3.734183">
        <ele>2408.0</ele>
        <time>2016-07-25T17:37:09Z</time>
      </trkpt>
      <trkpt lat="41.060750" lon="-3.734233">
        <ele>2409.0</ele>
        <time>2016-07-25T17:37:10Z</time>
      </trkpt>
      <trkpt lat="41.060650" lon="-3.734300">
        <ele>2411.0</ele>
        <time>2016-07-25T17:37:11Z</time>
      </trkpt>
      <trkpt lat="41.060583" lon="-3.734367">
        <ele>2412.0</ele>
        <time>2016-07-25T17:37:12Z</time>
      </trkpt>
      <trkpt lat="41.060500" lon="-3.734450">
        <ele>2413.0</ele>
        <time>2016-07-25T17:37:13Z</time>
      </trkpt>
      <trkpt lat="41.060417" lon="-3.734533">
        <ele>2413.0</ele>
        <time>2016-07-25T17:37:14Z</time>
      </trkpt>
      <trkpt lat="41.060350" lon="-3.734617">
        <ele>2415.0</ele>
        <time>2016-07-25T17:37:15Z</time>
      </trkpt>
      <trkpt lat="41.060283" lon="-3.734700">
        <ele>2416.0</ele>
        <time>2016-07-25T17:37:16Z</time>
      </trkpt>
      <trkpt lat="41.060217" lon="-3.734767">
        <ele>2418.0</ele>
        <time>2016-07-25T17:37:17Z</time>
      </trkpt>
      <trkpt lat="41.060183" lon="-3.734850">
        <ele>2419.0</ele>
        <time>2016-07-25T17:37:18Z</time>
      </trkpt>
      <trkpt lat="41.060133" lon="-3.734917">
        <ele>2421.0</ele>
        <time>2016-07-25T17:37:19Z</time>
      </trkpt>
      <trkpt lat="41.060117" lon="-3.735000">
        <ele>2423.0</ele>
        <time>2016-07-25T17:37:20Z</time>
      </trkpt>
      <trkpt lat="41.060083" lon="-3.735050">
        <ele>2425.0</ele>
        <time>2016-07-25T17:37:21Z</time>
      </trkpt>
      <trkpt lat="41.060050" lon="-3.735117">
        <ele>2427.0</ele>
        <time>2016-07-25T17:37:22Z</time>
      </trkpt>
      <trkpt lat="41.060033" lon="-3.735167">
        <ele>2428.0</ele>
        <time>2016-07-25T17:37:23Z</time>
      </trkpt>
      <trkpt lat="41.060017" lon="-3.735233">
        <ele>2428.0</ele>
        <time>2016-07-25T17:37:24Z</time>
      </trkpt>
      <trkpt lat="41.060000" lon="-3.735300">
        <ele>2429.0</ele>
        <time>2016-07-25T17:37:25Z</time>
      </trkpt>
      <trkpt lat="41.060000" lon="-3.735383">
        <ele>2430.0</ele>
        <time>2016-07-25T17:37:26Z</time>
      </trkpt>
      <trkpt lat="41.060000" lon="-3.735433">
        <ele>2431.0</ele>
        <time>2016-07-25T17:37:27Z</time>
      </trkpt>
      <trkpt lat="41.060000" lon="-3.735483">
        <ele>2433.0</ele>
        <time>2016-07-25T17:37:28Z</time>
      </trkpt>
      <trkpt lat="41.060000" lon="-3.735550">
        <ele>2434.0</ele>
        <time>2016-07-25T17:37:29Z</time>
      </trkpt>
      <trkpt lat="41.060000" lon="-3.735600">
        <ele>2436.0</ele>
        <time>2016-07-25T17:37:30Z</time>
      </trkpt>
      <trkpt lat="41.060017" lon="-3.735633">
        <ele>2437.0</ele>
        <time>2016-07-25T17:37:31Z</time>
      </trkpt>
      <trkpt lat="41.060033" lon="-3.735683">
        <ele>2439.0</ele>
        <time>2016-07-25T17:37:32Z</time>
      </trkpt>
      <trkpt lat="41.060067" lon="-3.735717">
        <ele>2441.0</ele>
        <time>2016-07-25T17:37:33Z</time>
      </trkpt>
      <trkpt lat="41.060100" lon="-3.735733">
        <ele>2445.0</ele>
        <time>2016-07-25T17:37:34Z</time>
      </trkpt>
      <trkpt lat="41.060117" lon="-3.735750">
        <ele>2448.0</ele>
        <time>2016-07-25T17:37:35Z</time>
      </trkpt>
      <trkpt lat="41.060133" lon="-3.735767">
        <ele>2451.0</ele>
        <time>2016-07-25T17:37:36Z</time>
      </trkpt>
      <trkpt lat="41.060167" lon="-3.735783">
        <ele>2454.0</ele>
        <time>2016-07-25T17:37:37Z</time>
      </trkpt>
      <trkpt lat="41.060200" lon="-3.735783">
        <ele>2456.0</ele>
        <time>2016-07-25T17:37:38Z</time>
      </trkpt>
      <trkpt lat="41.060217" lon="-3.735767">
        <ele>2459.0</ele>
        <time>2016-07-25T17:37:39Z</time>
      </trkpt>
      <trkpt lat="41.060250" lon="-3.735767">
        <ele>2461.0</ele>
        <time>2016-07-25T17:37:40Z</time>
      </trkpt>
      <trkpt lat="41.060283" lon="-3.735733">
        <ele>2463.0</ele>
        <time>2016-07-25T17:37:41Z</time>
      </trkpt>
      <trkpt lat="41.060317" lon="-3.735683">
        <ele>2464.0</ele>
        <time>2016-07-25T17:37:42Z</time>
      </trkpt>
      <trkpt lat="41.060333" lon="-3.735600">
        <ele>2465.0</ele>
        <time>2016-07-25T17:37:43Z</time>
      </trkpt>
      <trkpt lat="41.060350" lon="-3.735500">
        <ele>2466.0</ele>
        <time>2016-07-25T17:37:44Z</time>
      </trkpt>
      <trkpt lat="41.060367" lon="-3.735383">
        <ele>2467.0</ele>
        <time>2016-07-25T17:37:45Z</time>
      </trkpt>
      <trkpt lat="41.060367" lon="-3.735250">
        <ele>2469.0</ele>
        <time>2016-07-25T17:37:46Z</time>
      </trkpt>
      <trkpt lat="41.060333" lon="-3.735100">
        <ele>2470.0</ele>
        <time>2016-07-25T17:37:47Z</time>
      </trkpt>
      <trkpt lat="41.060267" lon="-3.734967">
        <ele>2471.0</ele>
        <time>2016-07-25T17:37:48Z</time>
      </trkpt>
      <trkpt lat="41.060183" lon="-3.734833">
        <ele>2472.0</ele>
        <time>2016-07-25T17:37:49Z</time>
      </trkpt>
      <trkpt lat="41.060067" lon="-3.734733">
        <ele>2474.0</ele>
        <time>2016-07-25T17:37:50Z</time>
      </trkpt>
      <trkpt lat="41.059933" lon="-3.734667">
        <ele>2475.0</ele>
        <time>2016-07-25T17:37:51Z</time>
      </trkpt>
      <trkpt lat="41.059800" lon="-3.734650">
        <ele>2477.0</ele>
        <time>2016-07-25T17:37:52Z</time>
      </trkpt>
      <trkpt lat="41.059667" lon="-3.734667">
        <ele>2478.0</ele>
        <time>2016-07-25T17:37:53Z</time>
      </trkpt>
      <trkpt lat="41.059550" lon="-3.734700">
        <ele>2479.0</ele>
        <time>2016-07-25T17:37:54Z</time>
      </trkpt>
      <trkpt lat="41.059450" lon="-3.734767">
        <ele>2481.0</ele>
        <time>2016-07-25T17:37:55Z</time>
      </trkpt>
      <trkpt lat="41.059367" lon="-3.734817">
        <ele>2482.0</ele>
        <time>2016-07-25T17:37:56Z</time>
      </trkpt>
      <trkpt lat="41.059283" lon="-3.734883">
        <ele>2483.0</ele>
        <time>2016-07-25T17:37:57Z</time>
      </trkpt>
      <trkpt lat="41.059200" lon="-3.734950">
        <ele>2484.0</ele>
        <time>2016-07-25T17:37:58Z</time>
      </trkpt>
      <trkpt lat="41.059117" lon="-3.735017">
        <ele>2485.0</ele>
        <time>2016-07-25T17:37:59Z</time>
      </trkpt>
      <trkpt lat="41.059050" lon="-3.735100">
        <ele>2486.0</ele>
        <time>2016-07-25T17:38:00Z</time>
      </trkpt>
      <trkpt lat="41.059017" lon="-3.735167">
        <ele>2489.0</ele>
        <time>2016-07-25T17:38:01Z</time>
      </trkpt>
      <trkpt lat="41.058983" lon="-3.735233">
        <ele>2491.0</ele>
        <time>2016-07-25T17:38:02Z</time>
      </trkpt>
      <trkpt lat="41.058967" lon="-3.735300">
        <ele>2493.0</ele>
        <time>2016-07-25T17:38:03Z</time>
      </trkpt>
      <trkpt lat="41.058967" lon="-3.735367">
        <ele>2495.0</ele>
        <time>2016-07-25T17:38:04Z</time>
      </trkpt>
      <trkpt lat="41.058950" lon="-3.735433">
        <ele>2497.0</ele>
        <time>2016-07-25T17:38:05Z</time>
      </trkpt>
      <trkpt lat="41.058950" lon="-3.735500">
        <ele>2499.0</ele>
        <time>2016-07-25T17:38:06Z</time>
      </trkpt>
      <trkpt lat="41.058967" lon="-3.735567">
        <ele>2500.0</ele>
        <time>2016-07-25T17:38:07Z</time>
      </trkpt>
      <trkpt lat="41.058983" lon="-3.735617">
        <ele>2501.0</ele>
        <time>2016-07-25T17:38:08Z</time>
      </trkpt>
      <trkpt lat="41.059000" lon="-3.735650">
        <ele>2503.0</ele>
        <time>2016-07-25T17:38:09Z</time>
      </trkpt>
      <trkpt lat="41.059033" lon="-3.735683">
        <ele>2505.0</ele>
        <time>2016-07-25T17:38:10Z</time>
      </trkpt>
      <trkpt lat="41.059083" lon="-3.735700">
        <ele>2507.0</ele>
        <time>2016-07-25T17:38:11Z</time>
      </trkpt>
      <trkpt lat="41.059117" lon="-3.735700">
        <ele>2509.0</ele>
        <time>2016-07-25T17:38:12Z</time>
      </trkpt>
      <trkpt lat="41.059133" lon="-3.735700">
        <ele>2510.0</ele>
        <time>2016-07-25T17:38:13Z</time>
      </trkpt>
      <trkpt lat="41.059167" lon="-3.735700">
        <ele>2512.0</ele>
        <time>2016-07-25T17:38:14Z</time>
      </trkpt>
      <trkpt lat="41.059200" lon="-3.735683">
        <ele>2513.0</ele>
        <time>2016-07-25T17:38:15Z</time>
      </trkpt>
      <trkpt lat="41.059250" lon="-3.735650">
        <ele>2512.0</ele>
        <time>2016-07-25T17:38:16Z</time>
      </trkpt>
      <trkpt lat="41.059300" lon="-3.735583">
        <ele>2513.0</ele>
        <time>2016-07-25T17:38:17Z</time>
      </trkpt>
      <trkpt lat="41.059333" lon="-3.735483">
        <ele>2513.0</ele>
        <time>2016-07-25T17:38:18Z</time>
      </trkpt>
      <trkpt lat="41.059383" lon="-3.735367">
        <ele>2514.0</ele>
        <time>2016-07-25T17:38:19Z</time>
      </trkpt>
      <trkpt lat="41.059400" lon="-3.735233">
        <ele>2516.0</ele>
        <time>2016-07-25T17:38:20Z</time>
      </trkpt>
      <trkpt lat="41.059400" lon="-3.735083">
        <ele>2517.0</ele>
        <time>2016-07-25T17:38:21Z</time>
      </trkpt>
      <trkpt lat="41.059383" lon="-3.734933">
        <ele>2519.0</ele>
        <time>2016-07-25T17:38:22Z</time>
      </trkpt>
      <trkpt lat="41.059367" lon="-3.734800">
        <ele>2522.0</ele>
        <time>2016-07-25T17:38:23Z</time>
      </trkpt>
      <trkpt lat="41.059333" lon="-3.734667">
        <ele>2525.0</ele>
        <time>2016-07-25T17:38:24Z</time>
      </trkpt>
      <trkpt lat="41.059267" lon="-3.734550">
        <ele>2526.0</ele>
        <time>2016-07-25T17:38:25Z</time>
      </trkpt>
      <trkpt lat="41.059200" lon="-3.734417">
        <ele>2527.0</ele>
        <time>2016-07-25T17:38:26Z</time>
      </trkpt>
      <trkpt lat="41.059100" lon="-3.734283">
        <ele>2527.0</ele>
        <time>2016-07-25T17:38:27Z</time>
      </trkpt>
      <trkpt lat="41.059000" lon="-3.734167">
        <ele>2529.0</ele>
        <time>2016-07-25T17:38:28Z</time>
      </trkpt>
      <trkpt lat="41.058883" lon="-3.734083">
        <ele>2530.0</ele>
        <time>2016-07-25T17:38:29Z</time>
      </trkpt>
      <trkpt lat="41.058767" lon="-3.734050">
        <ele>2531.0</ele>
        <time>2016-07-25T17:38:30Z</time>
      </trkpt>
      <trkpt lat="41.058633" lon="-3.734033">
        <ele>2532.0</ele>
        <time>2016-07-25T17:38:31Z</time>
      </trkpt>
      <trkpt lat="41.058517" lon="-3.734033">
        <ele>2533.0</ele>
        <time>2016-07-25T17:38:32Z</time>
      </trkpt>
      <trkpt lat="41.058417" lon="-3.734050">
        <ele>2534.0</ele>
        <time>2016-07-25T17:38:33Z</time>
      </trkpt>
      <trkpt lat="41.058317" lon="-3.734083">
        <ele>2536.0</ele>
        <time>2016-07-25T17:38:34Z</time>
      </trkpt>
      <trkpt lat="41.058217" lon="-3.734117">
        <ele>2537.0</ele>
        <time>2016-07-25T17:38:35Z</time>
      </trkpt>
      <trkpt lat="41.058133" lon="-3.734167">
        <ele>2538.0</ele>
        <time>2016-07-25T17:38:36Z</time>
      </trkpt>
      <trkpt lat="41.058050" lon="-3.734217">
        <ele>2540.0</ele>
        <time>2016-07-25T17:38:37Z</time>
      </trkpt>
      <trkpt lat="41.057983" lon="-3.734267">
        <ele>2542.0</ele>
        <time>2016-07-25T17:38:38Z</time>
      </trkpt>
      <trkpt lat="41.057917" lon="-3.734317">
        <ele>2543.0</ele>
        <time>2016-07-25T17:38:39Z</time>
      </trkpt>
      <trkpt lat="41.057867" lon="-3.734367">
        <ele>2544.0</ele>
        <time>2016-07-25T17:38:40Z</time>
      </trkpt>
      <trkpt lat="41.057833" lon="-3.734433">
        <ele>2544.0</ele>
        <time>2016-07-25T17:38:41Z</time>
      </trkpt>
      <trkpt lat="41.057800" lon="-3.734500">
        <ele>2544.0</ele>
        <time>2016-07-25T17:38:42Z</time>
      </trkpt>
      <trkpt lat="41.057767" lon="-3.734583">
        <ele>2545.0</ele>
        <time>2016-07-25T17:38:43Z</time>
      </trkpt>
      <trkpt lat="41.057767" lon="-3.734667">
        <ele>2546.0</ele>
        <time>2016-07-25T17:38:44Z</time>
      </trkpt>
      <trkpt lat="41.057750" lon="-3.734733">
        <ele>2549.0</ele>
        <time>2016-07-25T17:38:45Z</time>
      </trkpt>
      <trkpt lat="41.057750" lon="-3.734783">
        <ele>2551.0</ele>
        <time>2016-07-25T17:38:46Z</time>
      </trkpt>
      <trkpt lat="41.057767" lon="-3.734817">
        <ele>2552.0</ele>
        <time>2016-07-25T17:38:47Z</time>
      </trkpt>
      <trkpt lat="41.057783" lon="-3.734867">
        <ele>2552.0</ele>
        <time>2016-07-25T17:38:48Z</time>
      </trkpt>
      <trkpt lat="41.057800" lon="-3.734917">
        <ele>2552.0</ele>
        <time>2016-07-25T17:38:49Z</time>
      </trkpt>
      <trkpt lat="41.057817" lon="-3.734967">
        <ele>2553.0</ele>
        <time>2016-07-25T17:38:50Z</time>
      </trkpt>
      <trkpt lat="41.057850" lon="-3.735000">
        <ele>2554.0</ele>
        <time>2016-07-25T17:38:51Z</time>
      </trkpt>
      <trkpt lat="41.057900" lon="-3.735017">
        <ele>2556.0</ele>
        <time>2016-07-25T17:38:52Z</time>
      </trkpt>
      <trkpt lat="41.057917" lon="-3.735017">
        <ele>2557.0</ele>
        <time>2016-07-25T17:38:53Z</time>
      </trkpt>
      <trkpt lat="41.057950" lon="-3.735017">
        <ele>2558.0</ele>
        <time>2016-07-25T17:38:54Z</time>
      </trkpt>
      <trkpt lat="41.057983" lon="-3.735033">
        <ele>2558.0</ele>
        <time>2016-07-25T17:38:55Z</time>
      </trkpt>
      <trkpt lat="41.058017" lon="-3.735050">
        <ele>2557.0</ele>
        <time>2016-07-25T17:38:56Z</time>
      </trkpt>
      <trkpt lat="41.058067" lon="-3.735050">
        <ele>2558.0</ele>
        <time>2016-07-25T17:38:57Z</time>
      </trkpt>
      <trkpt lat="41.058117" lon="-3.735033">
        <ele>2559.0</ele>
        <time>2016-07-25T17:38:58Z</time>
      </trkpt>
      <trkpt lat="41.058167" lon="-3.735000">
        <ele>2560.0</ele>
        <time>2016-07-25T17:38:59Z</time>
      </trkpt>
      <trkpt lat="41.058217" lon="-3.734967">
        <ele>2561.0</ele>
        <time>2016-07-25T17:39:00Z</time>
      </trkpt>
      <trkpt lat="41.058267" lon="-3.734967">
        <ele>2563.0</ele>
        <time>2016-07-25T17:39:01Z</time>
      </trkpt>
      <trkpt lat="41.058317" lon="-3.734967">
        <ele>2564.0</ele>
        <time>2016-07-25T17:39:02Z</time>
      </trkpt>
      <trkpt lat="41.058367" lon="-3.734950">
        <ele>2565.0</ele>
        <time>2016-07-25T17:39:03Z</time>
      </trkpt>
      <trkpt lat="41.058417" lon="-3.734917">
        <ele>2566.0</ele>
        <time>2016-07-25T17:39:04Z</time>
      </trkpt>
      <trkpt lat="41.058467" lon="-3.734883">
        <ele>2568.0</ele>
        <time>2016-07-25T17:39:05Z</time>
      </trkpt>
      <trkpt lat="41.058500" lon="-3.734850">
        <ele>2570.0</ele>
        <time>2016-07-25T17:39:06Z</time>
      </trkpt>
      <trkpt lat="41.058550" lon="-3.734833">
        <ele>2571.0</ele>
        <time>2016-07-25T17:39:07Z</time>
      </trkpt>
      <trkpt lat="41.058583" lon="-3.734800">
        <ele>2572.0</ele>
        <time>2016-07-25T17:39:08Z</time>
      </trkpt>
      <trkpt lat="41.058633" lon="-3.734733">
        <ele>2573.0</ele>
        <time>2016-07-25T17:39:09Z</time>
      </trkpt>
      <trkpt lat="41.058683" lon="-3.734650">
        <ele>2573.0</ele>
        <time>2016-07-25T17:39:10Z</time>
      </trkpt>
      <trkpt lat="41.058700" lon="-3.734533">
        <ele>2574.0</ele>
        <time>2016-07-25T17:39:11Z</time>
      </trkpt>
      <trkpt lat="41.058700" lon="-3.734400">
        <ele>2576.0</ele>
        <time>2016-07-25T17:39:12Z</time>
      </trkpt>
      <trkpt lat="41.058683" lon="-3.734267">
        <ele>2577.0</ele>
        <time>2016-07-25T17:39:13Z</time>
      </trkpt>
      <trkpt lat="41.058650" lon="-3.734133">
        <ele>2578.0</ele>
        <time>2016-07-25T17:39:14Z</time>
      </trkpt>
      <trkpt lat="41.058583" lon="-3.733983">
        <ele>2578.0</ele>
        <time>2016-07-25T17:39:15Z</time>
      </trkpt>
      <trkpt lat="41.058483" lon="-3.733850">
        <ele>2578.0</ele>
        <time>2016-07-25T17:39:16Z</time>
      </trkpt>
      <trkpt lat="41.058383" lon="-3.733750">
        <ele>2580.0</ele>
        <time>2016-07-25T17:39:17Z</time>
      </trkpt>
      <trkpt lat="41.058267" lon="-3.733667">
        <ele>2581.0</ele>
        <time>2016-07-25T17:39:18Z</time>
      </trkpt>
      <trkpt lat="41.058150" lon="-3.733633">
        <ele>2583.0</ele>
        <time>2016-07-25T17:39:19Z</time>
      </trkpt>
      <trkpt lat="41.058033" lon="-3.733633">
        <ele>2584.0</ele>
        <time>2016-07-25T17:39:20Z</time>
      </trkpt>
      <trkpt lat="41.057933" lon="-3.733650">
        <ele>2586.0</ele>
        <time>2016-07-25T17:39:21Z</time>
      </trkpt>
      <trkpt lat="41.057833" lon="-3.733667">
        <ele>2586.0</ele>
        <time>2016-07-25T17:39:22Z</time>
      </trkpt>
      <trkpt lat="41.057717" lon="-3.733700">
        <ele>2587.0</ele>
        <time>2016-07-25T17:39:23Z</time>
      </trkpt>
      <trkpt lat="41.057633" lon="-3.733750">
        <ele>2587.0</ele>
        <time>2016-07-25T17:39:24Z</time>
      </trkpt>
      <trkpt lat="41.057550" lon="-3.733817">
        <ele>2587.0</ele>
        <time>2016-07-25T17:39:25Z</time>
      </trkpt>
      <trkpt lat="41.057483" lon="-3.733883">
        <ele>2587.0</ele>
        <time>2016-07-25T17:39:26Z</time>
      </trkpt>
      <trkpt lat="41.057433" lon="-3.733967">
        <ele>2587.0</ele>
        <time>2016-07-25T17:39:27Z</time>
      </trkpt>
      <trkpt lat="41.057383" lon="-3.734033">
        <ele>2587.0</ele>
        <time>2016-07-25T17:39:28Z</time>
      </trkpt>
      <trkpt lat="41.057350" lon="-3.734117">
        <ele>2587.0</ele>
        <time>2016-07-25T17:39:29Z</time>
      </trkpt>
      <trkpt lat="41.057317" lon="-3.734200">
        <ele>2587.0</ele>
        <time>2016-07-25T17:39:30Z</time>
      </trkpt>
      <trkpt lat="41.057300" lon="-3.734267">
        <ele>2587.0</ele>
        <time>2016-07-25T17:39:31Z</time>
      </trkpt>
      <trkpt lat="41.057300" lon="-3.734333">
        <ele>2586.0</ele>
        <time>2016-07-25T17:39:32Z</time>
      </trkpt>
      <trkpt lat="41.057300" lon="-3.734400">
        <ele>2586.0</ele>
        <time>2016-07-25T17:39:33Z</time>
      </trkpt>
      <trkpt lat="41.057317" lon="-3.734467">
        <ele>2586.0</ele>
        <time>2016-07-25T17:39:34Z</time>
      </trkpt>
      <trkpt lat="41.057350" lon="-3.734500">
        <ele>2586.0</ele>
        <time>2016-07-25T17:39:35Z</time>
      </trkpt>
      <trkpt lat="41.057367" lon="-3.734550">
        <ele>2585.0</ele>
        <time>2016-07-25T17:39:36Z</time>
      </trkpt>
      <trkpt lat="41.057417" lon="-3.734583">
        <ele>2583.0</ele>
        <time>2016-07-25T17:39:37Z</time>
      </trkpt>
      <trkpt lat="41.057450" lon="-3.734617">
        <ele>2582.0</ele>
        <time>2016-07-25T17:39:38Z</time>
      </trkpt>
      <trkpt lat="41.057500" lon="-3.734650">
        <ele>2582.0</ele>
        <time>2016-07-25T17:39:39Z</time>
      </trkpt>
      <trkpt lat="41.057550" lon="-3.734683">
        <ele>2582.0</ele>
        <time>2016-07-25T17:39:40Z</time>
      </trkpt>
      <trkpt lat="41.057600" lon="-3.734717">
        <ele>2582.0</ele>
        <time>2016-07-25T17:39:41Z</time>
      </trkpt>
      <trkpt lat="41.057633" lon="-3.734767">
        <ele>2583.0</ele>
        <time>2016-07-25T17:39:42Z</time>
      </trkpt>
      <trkpt lat="41.057683" lon="-3.734783">
        <ele>2584.0</ele>
        <time>2016-07-25T17:39:43Z</time>
      </trkpt>
      <trkpt lat="41.057717" lon="-3.734783">
        <ele>2584.0</ele>
        <time>2016-07-25T17:39:44Z</time>
      </trkpt>
      <trkpt lat="41.057767" lon="-3.734800">
        <ele>2583.0</ele>
        <time>2016-07-25T17:39:45Z</time>
      </trkpt>
      <trkpt lat="41.057833" lon="-3.734800">
        <ele>2582.0</ele>
        <time>2016-07-25T17:39:46Z</time>
      </trkpt>
      <trkpt lat="41.057883" lon="-3.734800">
        <ele>2583.0</ele>
        <time>2016-07-25T17:39:47Z</time>
      </trkpt>
      <trkpt lat="41.057933" lon="-3.734800">
        <ele>2584.0</ele>
        <time>2016-07-25T17:39:48Z</time>
      </trkpt>
      <trkpt lat="41.057983" lon="-3.734783">
        <ele>2585.0</ele>
        <time>2016-07-25T17:39:49Z</time>
      </trkpt>
      <trkpt lat="41.058033" lon="-3.734767">
        <ele>2585.0</ele>
        <time>2016-07-25T17:39:50Z</time>
      </trkpt>
      <trkpt lat="41.058100" lon="-3.734733">
        <ele>2584.0</ele>
        <time>2016-07-25T17:39:51Z</time>
      </trkpt>
      <trkpt lat="41.058150" lon="-3.734733">
        <ele>2583.0</ele>
        <time>2016-07-25T17:39:52Z</time>
      </trkpt>
      <trkpt lat="41.058217" lon="-3.734717">
        <ele>2583.0</ele>
        <time>2016-07-25T17:39:53Z</time>
      </trkpt>
      <trkpt lat="41.058267" lon="-3.734700">
        <ele>2584.0</ele>
        <time>2016-07-25T17:39:54Z</time>
      </trkpt>
      <trkpt lat="41.058317" lon="-3.734667">
        <ele>2585.0</ele>
        <time>2016-07-25T17:39:55Z</time>
      </trkpt>
      <trkpt lat="41.058367" lon="-3.734650">
        <ele>2584.0</ele>
        <time>2016-07-25T17:39:56Z</time>
      </trkpt>
      <trkpt lat="41.058417" lon="-3.734633">
        <ele>2584.0</ele>
        <time>2016-07-25T17:39:57Z</time>
      </trkpt>
      <trkpt lat="41.058483" lon="-3.734600">
        <ele>2583.0</ele>
        <time>2016-07-25T17:39:58Z</time>
      </trkpt>
      <trkpt lat="41.058533" lon="-3.734600">
        <ele>2584.0</ele>
        <time>2016-07-25T17:39:59Z</time>
      </trkpt>
      <trkpt lat="41.058600" lon="-3.734583">
        <ele>2585.0</ele>
        <time>2016-07-25T17:40:00Z</time>
      </trkpt>
      <trkpt lat="41.058633" lon="-3.734567">
        <ele>2587.0</ele>
        <time>2016-07-25T17:40:01Z</time>
      </trkpt>
      <trkpt lat="41.058683" lon="-3.734550">
        <ele>2588.0</ele>
        <time>2016-07-25T17:40:02Z</time>
      </trkpt>
      <trkpt lat="41.058717" lon="-3.734550">
        <ele>2588.0</ele>
        <time>2016-07-25T17:40:03Z</time>
      </trkpt>
      <trkpt lat="41.058767" lon="-3.734533">
        <ele>2588.0</ele>
        <time>2016-07-25T17:40:04Z</time>
      </trkpt>
      <trkpt lat="41.058833" lon="-3.734533">
        <ele>2587.0</ele>
        <time>2016-07-25T17:40:05Z</time>
      </trkpt>
      <trkpt lat="41.058883" lon="-3.734517">
        <ele>2588.0</ele>
        <time>2016-07-25T17:40:06Z</time>
      </trkpt>
      <trkpt lat="41.058933" lon="-3.734517">
        <ele>2589.0</ele>
        <time>2016-07-25T17:40:07Z</time>
      </trkpt>
      <trkpt lat="41.058983" lon="-3.734500">
        <ele>2590.0</ele>
        <time>2016-07-25T17:40:08Z</time>
      </trkpt>
      <trkpt lat="41.059033" lon="-3.734500">
        <ele>2591.0</ele>
        <time>2016-07-25T17:40:09Z</time>
      </trkpt>
      <trkpt lat="41.059100" lon="-3.734500">
        <ele>2590.0</ele>
        <time>2016-07-25T17:40:10Z</time>
      </trkpt>
      <trkpt lat="41.059150" lon="-3.734483">
        <ele>2589.0</ele>
        <time>2016-07-25T17:40:11Z</time>
      </trkpt>
      <trkpt lat="41.059233" lon="-3.734483">
        <ele>2589.0</ele>
        <time>2016-07-25T17:40:12Z</time>
      </trkpt>
      <trkpt lat="41.059283" lon="-3.734467">
        <ele>2590.0</ele>
        <time>2016-07-25T17:40:13Z</time>
      </trkpt>
      <trkpt lat="41.059350" lon="-3.734450">
        <ele>2591.0</ele>
        <time>2016-07-25T17:40:14Z</time>
      </trkpt>
      <trkpt lat="41.059400" lon="-3.734433">
        <ele>2591.0</ele>
        <time>2016-07-25T17:40:15Z</time>
      </trkpt>
      <trkpt lat="41.059467" lon="-3.734417">
        <ele>2590.0</ele>
        <time>2016-07-25T17:40:16Z</time>
      </trkpt>
      <trkpt lat="41.059533" lon="-3.734400">
        <ele>2588.0</ele>
        <time>2016-07-25T17:40:17Z</time>
      </trkpt>
      <trkpt lat="41.059600" lon="-3.734367">
        <ele>2587.0</ele>
        <time>2016-07-25T17:40:18Z</time>
      </trkpt>
      <trkpt lat="41.059683" lon="-3.734333">
        <ele>2586.0</ele>
        <time>2016-07-25T17:40:19Z</time>
      </trkpt>
      <trkpt lat="41.059767" lon="-3.734283">
        <ele>2586.0</ele>
        <time>2016-07-25T17:40:20Z</time>
      </trkpt>
      <trkpt lat="41.059833" lon="-3.734217">
        <ele>2586.0</ele>
        <time>2016-07-25T17:40:21Z</time>
      </trkpt>
      <trkpt lat="41.059900" lon="-3.734150">
        <ele>2585.0</ele>
        <time>2016-07-25T17:40:22Z</time>
      </trkpt>
      <trkpt lat="41.059967" lon="-3.734083">
        <ele>2583.0</ele>
        <time>2016-07-25T17:40:23Z</time>
      </trkpt>
      <trkpt lat="41.060033" lon="-3.734017">
        <ele>2580.0</ele>
        <time>2016-07-25T17:40:24Z</time>
      </trkpt>
      <trkpt lat="41.060117" lon="-3.733950">
        <ele>2579.0</ele>
        <time>2016-07-25T17:40:25Z</time>
      </trkpt>
      <trkpt lat="41.060167" lon="-3.733883">
        <ele>2578.0</ele>
        <time>2016-07-25T17:40:26Z</time>
      </trkpt>
      <trkpt lat="41.060217" lon="-3.733817">
        <ele>2577.0</ele>
        <time>2016-07-25T17:40:27Z</time>
      </trkpt>
      <trkpt lat="41.060267" lon="-3.733750">
        <ele>2575.0</ele>
        <time>2016-07-25T17:40:28Z</time>
      </trkpt>
      <trkpt lat="41.060333" lon="-3.733683">
        <ele>2574.0</ele>
        <time>2016-07-25T17:40:29Z</time>
      </trkpt>
      <trkpt lat="41.060400" lon="-3.733633">
        <ele>2572.0</ele>
        <time>2016-07-25T17:40:30Z</time>
      </trkpt>
      <trkpt lat="41.060467" lon="-3.733567">
        <ele>2570.0</ele>
        <time>2016-07-25T17:40:31Z</time>
      </trkpt>
      <trkpt lat="41.060533" lon="-3.733517">
        <ele>2570.0</ele>
        <time>2016-07-25T17:40:32Z</time>
      </trkpt>
      <trkpt lat="41.060600" lon="-3.733467">
        <ele>2570.0</ele>
        <time>2016-07-25T17:40:33Z</time>
      </trkpt>
      <trkpt lat="41.060650" lon="-3.733417">
        <ele>2569.0</ele>
        <time>2016-07-25T17:40:34Z</time>
      </trkpt>
      <trkpt lat="41.060700" lon="-3.733383">
        <ele>2568.0</ele>
        <time>2016-07-25T17:40:35Z</time>
      </trkpt>
      <trkpt lat="41.060783" lon="-3.733350">
        <ele>2565.0</ele>
        <time>2016-07-25T17:40:36Z</time>
      </trkpt>
      <trkpt lat="41.060867" lon="-3.733300">
        <ele>2564.0</ele>
        <time>2016-07-25T17:40:37Z</time>
      </trkpt>
      <trkpt lat="41.060933" lon="-3.733267">
        <ele>2564.0</ele>
        <time>2016-07-25T17:40:38Z</time>
      </trkpt>
      <trkpt lat="41.061000" lon="-3.733233">
        <ele>2565.0</ele>
        <time>2016-07-25T17:40:39Z</time>
      </trkpt>
      <trkpt lat="41.061050" lon="-3.733217">
        <ele>2565.0</ele>
        <time>2016-07-25T17:40:40Z</time>
      </trkpt>
      <trkpt lat="41.061117" lon="-3.733183">
        <ele>2563.0</ele>
        <time>2016-07-25T17:40:41Z</time>
      </trkpt>
      <trkpt lat="41.061183" lon="-3.733150">
        <ele>2561.0</ele>
        <time>2016-07-25T17:40:42Z</time>
      </trkpt>
      <trkpt lat="41.061267" lon="-3.733100">
        <ele>2558.0</ele>
        <time>2016-07-25T17:40:43Z</time>
      </trkpt>
      <trkpt lat="41.061350" lon="-3.733050">
        <ele>2558.0</ele>
        <time>2016-07-25T17:40:44Z</time>
      </trkpt>
      <trkpt lat="41.061417" lon="-3.733017">
        <ele>2559.0</ele>
        <time>2016-07-25T17:40:45Z</time>
      </trkpt>
      <trkpt lat="41.061467" lon="-3.732967">
        <ele>2559.0</ele>
        <time>2016-07-25T17:40:46Z</time>
      </trkpt>
      <trkpt lat="41.061517" lon="-3.732917">
        <ele>2559.0</ele>
        <time>2016-07-25T17:40:47Z</time>
      </trkpt>
      <trkpt lat="41.061567" lon="-3.732867">
        <ele>2558.0</ele>
        <time>2016-07-25T17:40:48Z</time>
      </trkpt>
      <trkpt lat="41.061617" lon="-3.732817">
        <ele>2555.0</ele>
        <time>2016-07-25T17:40:49Z</time>
      </trkpt>
      <trkpt lat="41.061683" lon="-3.732767">
        <ele>2553.0</ele>
        <time>2016-07-25T17:40:50Z</time>
      </trkpt>
      <trkpt lat="41.061767" lon="-3.732733">
        <ele>2552.0</ele>
        <time>2016-07-25T17:40:51Z</time>
      </trkpt>
      <trkpt lat="41.061833" lon="-3.732683">
        <ele>2551.0</ele>
        <time>2016-07-25T17:40:52Z</time>
      </trkpt>
      <trkpt lat="41.061883" lon="-3.732650">
        <ele>2552.0</ele>
        <time>2016-07-25T17:40:53Z</time>
      </trkpt>
      <trkpt lat="41.061950" lon="-3.732600">
        <ele>2552.0</ele>
        <time>2016-07-25T17:40:54Z</time>
      </trkpt>
      <trkpt lat="41.062000" lon="-3.732567">
        <ele>2550.0</ele>
        <time>2016-07-25T17:40:55Z</time>
      </trkpt>
      <trkpt lat="41.062067" lon="-3.732533">
        <ele>2548.0</ele>
        <time>2016-07-25T17:40:56Z</time>
      </trkpt>
      <trkpt lat="41.062133" lon="-3.732500">
        <ele>2545.0</ele>
        <time>2016-07-25T17:40:57Z</time>
      </trkpt>
      <trkpt lat="41.062217" lon="-3.732467">
        <ele>2544.0</ele>
        <time>2016-07-25T17:40:58Z</time>
      </trkpt>
      <trkpt lat="41.062283" lon="-3.732433">
        <ele>2544.0</ele>
        <time>2016-07-25T17:40:59Z</time>
      </trkpt>
      <trkpt lat="41.062333" lon="-3.732383">
        <ele>2543.0</ele>
        <time>2016-07-25T17:41:00Z</time>
      </trkpt>
      <trkpt lat="41.062400" lon="-3.732350">
        <ele>2542.0</ele>
        <time>2016-07-25T17:41:01Z</time>
      </trkpt>
      <trkpt lat="41.062450" lon="-3.732300">
        <ele>2540.0</ele>
        <time>2016-07-25T17:41:02Z</time>
      </trkpt>
      <trkpt lat="41.062517" lon="-3.732250">
        <ele>2538.0</ele>
        <time>2016-07-25T17:41:03Z</time>
      </trkpt>
      <trkpt lat="41.062583" lon="-3.732200">
        <ele>2536.0</ele>
        <time>2016-07-25T17:41:04Z</time>
      </trkpt>
      <trkpt lat="41.062650" lon="-3.732150">
        <ele>2534.0</ele>
        <time>2016-07-25T17:41:05Z</time>
      </trkpt>
      <trkpt lat="41.062717" lon="-3.732083">
        <ele>2532.0</ele>
        <time>2016-07-25T17:41:06Z</time>
      </trkpt>
      <trkpt lat="41.062783" lon="-3.732033">
        <ele>2530.0</ele>
        <time>2016-07-25T17:41:07Z</time>
      </trkpt>
      <trkpt lat="41.062850" lon="-3.731983">
        <ele>2529.0</ele>
        <time>2016-07-25T17:41:08Z</time>
      </trkpt>
      <trkpt lat="41.062917" lon="-3.731917">
        <ele>2528.0</ele>
        <time>2016-07-25T17:41:09Z</time>
      </trkpt>
      <trkpt lat="41.062967" lon="-3.731850">
        <ele>2527.0</ele>
        <time>2016-07-25T17:41:10Z</time>
      </trkpt>
      <trkpt lat="41.063017" lon="-3.731783">
        <ele>2525.0</ele>
        <time>2016-07-25T17:41:11Z</time>
      </trkpt>
      <trkpt lat="41.063067" lon="-3.731700">
        <ele>2524.0</ele>
        <time>2016-07-25T17:41:12Z</time>
      </trkpt>
      <trkpt lat="41.063133" lon="-3.731617">
        <ele>2524.0</ele>
        <time>2016-07-25T17:41:13Z</time>
      </trkpt>
      <trkpt lat="41.063183" lon="-3.731550">
        <ele>2523.0</ele>
        <time>2016-07-25T17:41:14Z</time>
      </trkpt>
      <trkpt lat="41.063250" lon="-3.731500">
        <ele>2522.0</ele>
        <time>2016-07-25T17:41:15Z</time>
      </trkpt>
      <trkpt lat="41.063300" lon="-3.731450">
        <ele>2521.0</ele>
        <time>2016-07-25T17:41:16Z</time>
      </trkpt>
      <trkpt lat="41.063367" lon="-3.731383">
        <ele>2519.0</ele>
        <time>2016-07-25T17:41:17Z</time>
      </trkpt>
      <trkpt lat="41.063433" lon="-3.731317">
        <ele>2516.0</ele>
        <time>2016-07-25T17:41:18Z</time>
      </trkpt>
      <trkpt lat="41.063500" lon="-3.731233">
        <ele>2514.0</ele>
        <time>2016-07-25T17:41:19Z</time>
      </trkpt>
      <trkpt lat="41.063583" lon="-3.731167">
        <ele>2512.0</ele>
        <time>2016-07-25T17:41:20Z</time>
      </trkpt>
      <trkpt lat="41.063650" lon="-3.731117">
        <ele>2512.0</ele>
        <time>2016-07-25T17:41:21Z</time>
      </trkpt>
      <trkpt lat="41.063717" lon="-3.731050">
        <ele>2512.0</ele>
        <time>2016-07-25T17:41:22Z</time>
      </trkpt>
      <trkpt lat="41.063783" lon="-3.730967">
        <ele>2511.0</ele>
        <time>2016-07-25T17:41:23Z</time>
      </trkpt>
      <trkpt lat="41.063833" lon="-3.730900">
        <ele>2511.0</ele>
        <time>2016-07-25T17:41:24Z</time>
      </trkpt>
      <trkpt lat="41.063900" lon="-3.730817">
        <ele>2511.0</ele>
        <time>2016-07-25T17:41:25Z</time>
      </trkpt>
      <trkpt lat="41.063967" lon="-3.730750">
        <ele>2510.0</ele>
        <time>2016-07-25T17:41:26Z</time>
      </trkpt>
      <trkpt lat="41.064017" lon="-3.730683">
        <ele>2510.0</ele>
        <time>2016-07-25T17:41:27Z</time>
      </trkpt>
      <trkpt lat="41.064083" lon="-3.730600">
        <ele>2510.0</ele>
        <time>2016-07-25T17:41:28Z</time>
      </trkpt>
      <trkpt lat="41.064150" lon="-3.730517">
        <ele>2509.0</ele>
        <time>2016-07-25T17:41:29Z</time>
      </trkpt>
      <trkpt lat="41.064200" lon="-3.730433">
        <ele>2509.0</ele>
        <time>2016-07-25T17:41:30Z</time>
      </trkpt>
      <trkpt lat="41.064267" lon="-3.730367">
        <ele>2509.0</ele>
        <time>2016-07-25T17:41:31Z</time>
      </trkpt>
      <trkpt lat="41.064333" lon="-3.730283">
        <ele>2510.0</ele>
        <time>2016-07-25T17:41:32Z</time>
      </trkpt>
      <trkpt lat="41.064400" lon="-3.730217">
        <ele>2510.0</ele>
        <time>2016-07-25T17:41:33Z</time>
      </trkpt>
      <trkpt lat="41.064467" lon="-3.730133">
        <ele>2510.0</ele>
        <time>2016-07-25T17:41:34Z</time>
      </trkpt>
      <trkpt lat="41.064517" lon="-3.730067">
        <ele>2510.0</ele>
        <time>2016-07-25T17:41:35Z</time>
      </trkpt>
      <trkpt lat="41.064583" lon="-3.730000">
        <ele>2509.0</ele>
        <time>2016-07-25T17:41:36Z</time>
      </trkpt>
      <trkpt lat="41.064633" lon="-3.729933">
        <ele>2508.0</ele>
        <time>2016-07-25T17:41:37Z</time>
      </trkpt>
      <trkpt lat="41.064683" lon="-3.729867">
        <ele>2507.0</ele>
        <time>2016-07-25T17:41:38Z</time>
      </trkpt>
      <trkpt lat="41.064750" lon="-3.729783">
        <ele>2505.0</ele>
        <time>2016-07-25T17:41:39Z</time>
      </trkpt>
      <trkpt lat="41.064817" lon="-3.729717">
        <ele>2503.0</ele>
        <time>2016-07-25T17:41:40Z</time>
      </trkpt>
      <trkpt lat="41.064883" lon="-3.729633">
        <ele>2501.0</ele>
        <time>2016-07-25T17:41:41Z</time>
      </trkpt>
      <trkpt lat="41.064967" lon="-3.729583">
        <ele>2500.0</ele>
        <time>2016-07-25T17:41:42Z</time>
      </trkpt>
      <trkpt lat="41.065033" lon="-3.729517">
        <ele>2499.0</ele>
        <time>2016-07-25T17:41:43Z</time>
      </trkpt>
      <trkpt lat="41.065100" lon="-3.729450">
        <ele>2498.0</ele>
        <time>2016-07-25T17:41:44Z</time>
      </trkpt>
      <trkpt lat="41.065167" lon="-3.729383">
        <ele>2497.0</ele>
        <time>2016-07-25T17:41:45Z</time>
      </trkpt>
      <trkpt lat="41.065233" lon="-3.729317">
        <ele>2496.0</ele>
        <time>2016-07-25T17:41:46Z</time>
      </trkpt>
      <trkpt lat="41.065300" lon="-3.729267">
        <ele>2494.0</ele>
        <time>2016-07-25T17:41:47Z</time>
      </trkpt>
      <trkpt lat="41.065367" lon="-3.729200">
        <ele>2492.0</ele>
        <time>2016-07-25T17:41:48Z</time>
      </trkpt>
      <trkpt lat="41.065433" lon="-3.729133">
        <ele>2490.0</ele>
        <time>2016-07-25T17:41:49Z</time>
      </trkpt>
      <trkpt lat="41.065517" lon="-3.729083">
        <ele>2489.0</ele>
        <time>2016-07-25T17:41:50Z</time>
      </trkpt>
      <trkpt lat="41.065583" lon="-3.729017">
        <ele>2488.0</ele>
        <time>2016-07-25T17:41:51Z</time>
      </trkpt>
      <trkpt lat="41.065650" lon="-3.728950">
        <ele>2486.0</ele>
        <time>2016-07-25T17:41:52Z</time>
      </trkpt>
      <trkpt lat="41.065733" lon="-3.728900">
        <ele>2484.0</ele>
        <time>2016-07-25T17:41:53Z</time>
      </trkpt>
      <trkpt lat="41.065800" lon="-3.728817">
        <ele>2482.0</ele>
        <time>2016-07-25T17:41:54Z</time>
      </trkpt>
      <trkpt lat="41.065883" lon="-3.728733">
        <ele>2480.0</ele>
        <time>2016-07-25T17:41:55Z</time>
      </trkpt>
      <trkpt lat="41.065950" lon="-3.728650">
        <ele>2478.0</ele>
        <time>2016-07-25T17:41:56Z</time>
      </trkpt>
      <trkpt lat="41.066017" lon="-3.728550">
        <ele>2476.0</ele>
        <time>2016-07-25T17:41:57Z</time>
      </trkpt>
      <trkpt lat="41.066083" lon="-3.728467">
        <ele>2474.0</ele>
        <time>2016-07-25T17:41:58Z</time>
      </trkpt>
      <trkpt lat="41.066150" lon="-3.728400">
        <ele>2472.0</ele>
        <time>2016-07-25T17:41:59Z</time>
      </trkpt>
      <trkpt lat="41.066217" lon="-3.728317">
        <ele>2469.0</ele>
        <time>2016-07-25T17:42:00Z</time>
      </trkpt>
      <trkpt lat="41.066283" lon="-3.728233">
        <ele>2466.0</ele>
        <time>2016-07-25T17:42:01Z</time>
      </trkpt>
      <trkpt lat="41.066350" lon="-3.728150">
        <ele>2464.0</ele>
        <time>2016-07-25T17:42:02Z</time>
      </trkpt>
      <trkpt lat="41.066417" lon="-3.728067">
        <ele>2461.0</ele>
        <time>2016-07-25T17:42:03Z</time>
      </trkpt>
      <trkpt lat="41.066483" lon="-3.727967">
        <ele>2459.0</ele>
        <time>2016-07-25T17:42:04Z</time>
      </trkpt>
      <trkpt lat="41.066550" lon="-3.727867">
        <ele>2456.0</ele>
        <time>2016-07-25T17:42:05Z</time>
      </trkpt>
      <trkpt lat="41.066617" lon="-3.727767">
        <ele>2455.0</ele>
        <time>2016-07-25T17:42:06Z</time>
      </trkpt>
      <trkpt lat="41.066683" lon="-3.727667">
        <ele>2453.0</ele>
        <time>2016-07-25T17:42:07Z</time>
      </trkpt>
      <trkpt lat="41.066750" lon="-3.727567">
        <ele>2451.0</ele>
        <time>2016-07-25T17:42:08Z</time>
      </trkpt>
      <trkpt lat="41.066800" lon="-3.727450">
        <ele>2449.0</ele>
        <time>2016-07-25T17:42:09Z</time>
      </trkpt>
      <trkpt lat="41.066867" lon="-3.727333">
        <ele>2447.0</ele>
        <time>2016-07-25T17:42:10Z</time>
      </trkpt>
      <trkpt lat="41.066917" lon="-3.727233">
        <ele>2445.0</ele>
        <time>2016-07-25T17:42:11Z</time>
      </trkpt>
      <trkpt lat="41.066967" lon="-3.727117">
        <ele>2443.0</ele>
        <time>2016-07-25T17:42:12Z</time>
      </trkpt>
      <trkpt lat="41.067017" lon="-3.727000">
        <ele>2441.0</ele>
        <time>2016-07-25T17:42:13Z</time>
      </trkpt>
      <trkpt lat="41.067067" lon="-3.726867">
        <ele>2440.0</ele>
        <time>2016-07-25T17:42:14Z</time>
      </trkpt>
      <trkpt lat="41.067133" lon="-3.726750">
        <ele>2438.0</ele>
        <time>2016-07-25T17:42:15Z</time>
      </trkpt>
      <trkpt lat="41.067183" lon="-3.726650">
        <ele>2438.0</ele>
        <time>2016-07-25T17:42:16Z</time>
      </trkpt>
      <trkpt lat="41.067233" lon="-3.726533">
        <ele>2437.0</ele>
        <time>2016-07-25T17:42:17Z</time>
      </trkpt>
      <trkpt lat="41.067267" lon="-3.726433">
        <ele>2435.0</ele>
        <time>2016-07-25T17:42:18Z</time>
      </trkpt>
      <trkpt lat="41.067333" lon="-3.726333">
        <ele>2433.0</ele>
        <time>2016-07-25T17:42:19Z</time>
      </trkpt>
      <trkpt lat="41.067383" lon="-3.726217">
        <ele>2431.0</ele>
        <time>2016-07-25T17:42:20Z</time>
      </trkpt>
      <trkpt lat="41.067450" lon="-3.726100">
        <ele>2429.0</ele>
        <time>2016-07-25T17:42:21Z</time>
      </trkpt>
      <trkpt lat="41.067500" lon="-3.725983">
        <ele>2428.0</ele>
        <time>2016-07-25T17:42:22Z</time>
      </trkpt>
      <trkpt lat="41.067550" lon="-3.725883">
        <ele>2428.0</ele>
        <time>2016-07-25T17:42:23Z</time>
      </trkpt>
      <trkpt lat="41.067600" lon="-3.725767">
        <ele>2427.0</ele>
        <time>2016-07-25T17:42:24Z</time>
      </trkpt>
      <trkpt lat="41.067633" lon="-3.725667">
        <ele>2426.0</ele>
        <time>2016-07-25T17:42:25Z</time>
      </trkpt>
      <trkpt lat="41.067683" lon="-3.725567">
        <ele>2424.0</ele>
        <time>2016-07-25T17:42:26Z</time>
      </trkpt>
      <trkpt lat="41.067733" lon="-3.725467">
        <ele>2422.0</ele>
        <time>2016-07-25T17:42:27Z</time>
      </trkpt>
      <trkpt lat="41.067800" lon="-3.725367">
        <ele>2420.0</ele>
        <time>2016-07-25T17:42:28Z</time>
      </trkpt>
      <trkpt lat="41.067850" lon="-3.725267">
        <ele>2419.0</ele>
        <time>2016-07-25T17:42:29Z</time>
      </trkpt>
      <trkpt lat="41.067900" lon="-3.725150">
        <ele>2418.0</ele>
        <time>2016-07-25T17:42:30Z</time>
      </trkpt>
      <trkpt lat="41.067950" lon="-3.725050">
        <ele>2417.0</ele>
        <time>2016-07-25T17:42:31Z</time>
      </trkpt>
      <trkpt lat="41.068000" lon="-3.724950">
        <ele>2415.0</ele>
        <time>2016-07-25T17:42:32Z</time>
      </trkpt>
      <trkpt lat="41.068050" lon="-3.724850">
        <ele>2413.0</ele>
        <time>2016-07-25T17:42:33Z</time>
      </trkpt>
      <trkpt lat="41.068117" lon="-3.724767">
        <ele>2411.0</ele>
        <time>2016-07-25T17:42:34Z</time>
      </trkpt>
      <trkpt lat="41.068167" lon="-3.724667">
        <ele>2410.0</ele>
        <time>2016-07-25T17:42:35Z</time>
      </trkpt>
      <trkpt lat="41.068233" lon="-3.724583">
        <ele>2408.0</ele>
        <time>2016-07-25T17:42:36Z</time>
      </trkpt>
      <trkpt lat="41.068283" lon="-3.724500">
        <ele>2407.0</ele>
        <time>2016-07-25T17:42:37Z</time>
      </trkpt>
      <trkpt lat="41.068333" lon="-3.724400">
        <ele>2405.0</ele>
        <time>2016-07-25T17:42:38Z</time>
      </trkpt>
      <trkpt lat="41.068400" lon="-3.724300">
        <ele>2403.0</ele>
        <time>2016-07-25T17:42:39Z</time>
      </trkpt>
      <trkpt lat="41.068467" lon="-3.724217">
        <ele>2400.0</ele>
        <time>2016-07-25T17:42:40Z</time>
      </trkpt>
      <trkpt lat="41.068533" lon="-3.724117">
        <ele>2398.0</ele>
        <time>2016-07-25T17:42:41Z</time>
      </trkpt>
      <trkpt lat="41.068600" lon="-3.724017">
        <ele>2396.0</ele>
        <time>2016-07-25T17:42:42Z</time>
      </trkpt>
      <trkpt lat="41.068667" lon="-3.723933">
        <ele>2396.0</ele>
        <time>2016-07-25T17:42:43Z</time>
      </trkpt>
      <trkpt lat="41.068733" lon="-3.723850">
        <ele>2395.0</ele>
        <time>2016-07-25T17:42:44Z</time>
      </trkpt>
      <trkpt lat="41.068783" lon="-3.723750">
        <ele>2393.0</ele>
        <time>2016-07-25T17:42:45Z</time>
      </trkpt>
      <trkpt lat="41.068850" lon="-3.723667">
        <ele>2392.0</ele>
        <time>2016-07-25T17:42:46Z</time>
      </trkpt>
      <trkpt lat="41.068917" lon="-3.723567">
        <ele>2390.0</ele>
        <time>2016-07-25T17:42:47Z</time>
      </trkpt>
      <trkpt lat="41.068967" lon="-3.723483">
        <ele>2388.0</ele>
        <time>2016-07-25T17:42:48Z</time>
      </trkpt>
      <trkpt lat="41.069033" lon="-3.723383">
        <ele>2386.0</ele>
        <time>2016-07-25T17:42:49Z</time>
      </trkpt>
      <trkpt lat="41.069100" lon="-3.723283">
        <ele>2385.0</ele>
        <time>2016-07-25T17:42:50Z</time>
      </trkpt>
      <trkpt lat="41.069167" lon="-3.723183">
        <ele>2384.0</ele>
        <time>2016-07-25T17:42:51Z</time>
      </trkpt>
      <trkpt lat="41.069217" lon="-3.723100">
        <ele>2383.0</ele>
        <time>2016-07-25T17:42:52Z</time>
      </trkpt>
      <trkpt lat="41.069283" lon="-3.723017">
        <ele>2381.0</ele>
        <time>2016-07-25T17:42:53Z</time>
      </trkpt>
      <trkpt lat="41.069350" lon="-3.722917">
        <ele>2379.0</ele>
        <time>2016-07-25T17:42:54Z</time>
      </trkpt>
      <trkpt lat="41.069417" lon="-3.722817">
        <ele>2377.0</ele>
        <time>2016-07-25T17:42:55Z</time>
      </trkpt>
      <trkpt lat="41.069483" lon="-3.722717">
        <ele>2376.0</ele>
        <time>2016-07-25T17:42:56Z</time>
      </trkpt>
      <trkpt lat="41.069550" lon="-3.722617">
        <ele>2375.0</ele>
        <time>2016-07-25T17:42:57Z</time>
      </trkpt>
      <trkpt lat="41.069617" lon="-3.722517">
        <ele>2374.0</ele>
        <time>2016-07-25T17:42:58Z</time>
      </trkpt>
      <trkpt lat="41.069667" lon="-3.722433">
        <ele>2373.0</ele>
        <time>2016-07-25T17:42:59Z</time>
      </trkpt>
      <trkpt lat="41.069733" lon="-3.722350">
        <ele>2372.0</ele>
        <time>2016-07-25T17:43:00Z</time>
      </trkpt>
      <trkpt lat="41.069800" lon="-3.722267">
        <ele>2371.0</ele>
        <time>2016-07-25T17:43:01Z</time>
      </trkpt>
      <trkpt lat="41.069867" lon="-3.722167">
        <ele>2371.0</ele>
        <time>2016-07-25T17:43:02Z</time>
      </trkpt>
      <trkpt lat="41.069933" lon="-3.722083">
        <ele>2370.0</ele>
        <time>2016-07-25T17:43:03Z</time>
      </trkpt>
      <trkpt lat="41.070000" lon="-3.721983">
        <ele>2370.0</ele>
        <time>2016-07-25T17:43:04Z</time>
      </trkpt>
      <trkpt lat="41.070050" lon="-3.721900">
        <ele>2368.0</ele>
        <time>2016-07-25T17:43:05Z</time>
      </trkpt>
      <trkpt lat="41.070117" lon="-3.721800">
        <ele>2367.0</ele>
        <time>2016-07-25T17:43:06Z</time>
      </trkpt>
      <trkpt lat="41.070183" lon="-3.721700">
        <ele>2367.0</ele>
        <time>2016-07-25T17:43:07Z</time>
      </trkpt>
      <trkpt lat="41.070233" lon="-3.721617">
        <ele>2367.0</ele>
        <time>2016-07-25T17:43:08Z</time>
      </trkpt>
      <trkpt lat="41.070283" lon="-3.721533">
        <ele>2366.0</ele>
        <time>2016-07-25T17:43:09Z</time>
      </trkpt>
      <trkpt lat="41.070350" lon="-3.721450">
        <ele>2365.0</ele>
        <time>2016-07-25T17:43:10Z</time>
      </trkpt>
      <trkpt lat="41.070400" lon="-3.721367">
        <ele>2363.0</ele>
        <time>2016-07-25T17:43:11Z</time>
      </trkpt>
      <trkpt lat="41.070467" lon="-3.721267">
        <ele>2361.0</ele>
        <time>2016-07-25T17:43:12Z</time>
      </trkpt>
      <trkpt lat="41.070533" lon="-3.721150">
        <ele>2360.0</ele>
        <time>2016-07-25T17:43:13Z</time>
      </trkpt>
      <trkpt lat="41.070583" lon="-3.721033">
        <ele>2358.0</ele>
        <time>2016-07-25T17:43:14Z</time>
      </trkpt>
      <trkpt lat="41.070633" lon="-3.720933">
        <ele>2357.0</ele>
        <time>2016-07-25T17:43:15Z</time>
      </trkpt>
      <trkpt lat="41.070700" lon="-3.720817">
        <ele>2355.0</ele>
        <time>2016-07-25T17:43:16Z</time>
      </trkpt>
      <trkpt lat="41.070750" lon="-3.720717">
        <ele>2353.0</ele>
        <time>2016-07-25T17:43:17Z</time>
      </trkpt>
      <trkpt lat="41.070800" lon="-3.720583">
        <ele>2351.0</ele>
        <time>2016-07-25T17:43:18Z</time>
      </trkpt>
      <trkpt lat="41.070850" lon="-3.720450">
        <ele>2350.0</ele>
        <time>2016-07-25T17:43:19Z</time>
      </trkpt>
      <trkpt lat="41.070900" lon="-3.720317">
        <ele>2349.0</ele>
        <time>2016-07-25T17:43:20Z</time>
      </trkpt>
      <trkpt lat="41.070933" lon="-3.720183">
        <ele>2348.0</ele>
        <time>2016-07-25T17:43:21Z</time>
      </trkpt>
      <trkpt lat="41.070983" lon="-3.720067">
        <ele>2347.0</ele>
        <time>2016-07-25T17:43:22Z</time>
      </trkpt>
      <trkpt lat="41.071017" lon="-3.719933">
        <ele>2346.0</ele>
        <time>2016-07-25T17:43:23Z</time>
      </trkpt>
      <trkpt lat="41.071050" lon="-3.719817">
        <ele>2344.0</ele>
        <time>2016-07-25T17:43:24Z</time>
      </trkpt>
      <trkpt lat="41.071100" lon="-3.719683">
        <ele>2342.0</ele>
        <time>2016-07-25T17:43:25Z</time>
      </trkpt>
      <trkpt lat="41.071150" lon="-3.719567">
        <ele>2340.0</ele>
        <time>2016-07-25T17:43:26Z</time>
      </trkpt>
      <trkpt lat="41.071200" lon="-3.719450">
        <ele>2338.0</ele>
        <time>2016-07-25T17:43:27Z</time>
      </trkpt>
      <trkpt lat="41.071267" lon="-3.719350">
        <ele>2337.0</ele>
        <time>2016-07-25T17:43:28Z</time>
      </trkpt>
      <trkpt lat="41.071317" lon="-3.719233">
        <ele>2336.0</ele>
        <time>2016-07-25T17:43:29Z</time>
      </trkpt>
      <trkpt lat="41.071367" lon="-3.719133">
        <ele>2334.0</ele>
        <time>2016-07-25T17:43:30Z</time>
      </trkpt>
      <trkpt lat="41.071417" lon="-3.719017">
        <ele>2333.0</ele>
        <time>2016-07-25T17:43:31Z</time>
      </trkpt>
      <trkpt lat="41.071483" lon="-3.718900">
        <ele>2331.0</ele>
        <time>2016-07-25T17:43:32Z</time>
      </trkpt>
      <trkpt lat="41.071533" lon="-3.718783">
        <ele>2330.0</ele>
        <time>2016-07-25T17:43:33Z</time>
      </trkpt>
      <trkpt lat="41.071600" lon="-3.718683">
        <ele>2330.0</ele>
        <time>2016-07-25T17:43:34Z</time>
      </trkpt>
      <trkpt lat="41.071650" lon="-3.718583">
        <ele>2330.0</ele>
        <time>2016-07-25T17:43:35Z</time>
      </trkpt>
      <trkpt lat="41.071700" lon="-3.718483">
        <ele>2329.0</ele>
        <time>2016-07-25T17:43:36Z</time>
      </trkpt>
      <trkpt lat="41.071750" lon="-3.718367">
        <ele>2328.0</ele>
        <time>2016-07-25T17:43:37Z</time>
      </trkpt>
      <trkpt lat="41.071800" lon="-3.718267">
        <ele>2326.0</ele>
        <time>2016-07-25T17:43:38Z</time>
      </trkpt>
      <trkpt lat="41.071850" lon="-3.718167">
        <ele>2325.0</ele>
        <time>2016-07-25T17:43:39Z</time>
      </trkpt>
      <trkpt lat="41.071883" lon="-3.718050">
        <ele>2324.0</ele>
        <time>2016-07-25T17:43:40Z</time>
      </trkpt>
      <trkpt lat="41.071917" lon="-3.717950">
        <ele>2322.0</ele>
        <time>2016-07-25T17:43:41Z</time>
      </trkpt>
      <trkpt lat="41.071967" lon="-3.717850">
        <ele>2320.0</ele>
        <time>2016-07-25T17:43:42Z</time>
      </trkpt>
      <trkpt lat="41.072000" lon="-3.717733">
        <ele>2319.0</ele>
        <time>2016-07-25T17:43:43Z</time>
      </trkpt>
      <trkpt lat="41.072050" lon="-3.717633">
        <ele>2318.0</ele>
        <time>2016-07-25T17:43:44Z</time>
      </trkpt>
      <trkpt lat="41.072083" lon="-3.717533">
        <ele>2317.0</ele>
        <time>2016-07-25T17:43:45Z</time>
      </trkpt>
      <trkpt lat="41.072117" lon="-3.717433">
        <ele>2316.0</ele>
        <time>2016-07-25T17:43:46Z</time>
      </trkpt>
      <trkpt lat="41.072150" lon="-3.717317">
        <ele>2315.0</ele>
        <time>2016-07-25T17:43:47Z</time>
      </trkpt>
      <trkpt lat="41.072183" lon="-3.717217">
        <ele>2314.0</ele>
        <time>2016-07-25T17:43:48Z</time>
      </trkpt>
      <trkpt lat="41.072217" lon="-3.717117">
        <ele>2312.0</ele>
        <time>2016-07-25T17:43:49Z</time>
      </trkpt>
      <trkpt lat="41.072267" lon="-3.717000">
        <ele>2311.0</ele>
        <time>2016-07-25T17:43:50Z</time>
      </trkpt>
      <trkpt lat="41.072300" lon="-3.716900">
        <ele>2311.0</ele>
        <time>2016-07-25T17:43:51Z</time>
      </trkpt>
      <trkpt lat="41.072317" lon="-3.716800">
        <ele>2311.0</ele>
        <time>2016-07-25T17:43:52Z</time>
      </trkpt>
      <trkpt lat="41.072350" lon="-3.716700">
        <ele>2311.0</ele>
        <time>2016-07-25T17:43:53Z</time>
      </trkpt>
      <trkpt lat="41.072383" lon="-3.716600">
        <ele>2310.0</ele>
        <time>2016-07-25T17:43:54Z</time>
      </trkpt>
      <trkpt lat="41.072400" lon="-3.716500">
        <ele>2308.0</ele>
        <time>2016-07-25T17:43:55Z</time>
      </trkpt>
      <trkpt lat="41.072450" lon="-3.716400">
        <ele>2307.0</ele>
        <time>2016-07-25T17:43:56Z</time>
      </trkpt>
      <trkpt lat="41.072483" lon="-3.716300">
        <ele>2306.0</ele>
        <time>2016-07-25T17:43:57Z</time>
      </trkpt>
      <trkpt lat="41.072517" lon="-3.716217">
        <ele>2306.0</ele>
        <time>2016-07-25T17:43:58Z</time>
      </trkpt>
      <trkpt lat="41.072550" lon="-3.716133">
        <ele>2306.0</ele>
        <time>2016-07-25T17:43:59Z</time>
      </trkpt>
      <trkpt lat="41.072583" lon="-3.716050">
        <ele>2307.0</ele>
        <time>2016-07-25T17:44:00Z</time>
      </trkpt>
      <trkpt lat="41.072600" lon="-3.715983">
        <ele>2307.0</ele>
        <time>2016-07-25T17:44:01Z</time>
      </trkpt>
      <trkpt lat="41.072633" lon="-3.715933">
        <ele>2307.0</ele>
        <time>2016-07-25T17:44:02Z</time>
      </trkpt>
      <trkpt lat="41.072667" lon="-3.715883">
        <ele>2306.0</ele>
        <time>2016-07-25T17:44:03Z</time>
      </trkpt>
      <trkpt lat="41.072683" lon="-3.715833">
        <ele>2304.0</ele>
        <time>2016-07-25T17:44:04Z</time>
      </trkpt>
      <trkpt lat="41.072733" lon="-3.715750">
        <ele>2302.0</ele>
        <time>2016-07-25T17:44:05Z</time>
      </trkpt>
      <trkpt lat="41.072767" lon="-3.715667">
        <ele>2300.0</ele>
        <time>2016-07-25T17:44:06Z</time>
      </trkpt>
      <trkpt lat="41.072800" lon="-3.715600">
        <ele>2300.0</ele>
        <time>2016-07-25T17:44:07Z</time>
      </trkpt>
      <trkpt lat="41.072833" lon="-3.715533">
        <ele>2299.0</ele>
        <time>2016-07-25T17:44:08Z</time>
      </trkpt>
      <trkpt lat="41.072867" lon="-3.715483">
        <ele>2298.0</ele>
        <time>2016-07-25T17:44:09Z</time>
      </trkpt>
      <trkpt lat="41.072900" lon="-3.715417">
        <ele>2297.0</ele>
        <time>2016-07-25T17:44:10Z</time>
      </trkpt>
      <trkpt lat="41.072933" lon="-3.715350">
        <ele>2297.0</ele>
        <time>2016-07-25T17:44:11Z</time>
      </trkpt>
      <trkpt lat="41.072967" lon="-3.715300">
        <ele>2297.0</ele>
        <time>2016-07-25T17:44:12Z</time>
      </trkpt>
      <trkpt lat="41.072983" lon="-3.715233">
        <ele>2298.0</ele>
        <time>2016-07-25T17:44:13Z</time>
      </trkpt>
      <trkpt lat="41.073017" lon="-3.715183">
        <ele>2297.0</ele>
        <time>2016-07-25T17:44:14Z</time>
      </trkpt>
      <trkpt lat="41.073050" lon="-3.715133">
        <ele>2295.0</ele>
        <time>2016-07-25T17:44:15Z</time>
      </trkpt>
      <trkpt lat="41.073100" lon="-3.715067">
        <ele>2294.0</ele>
        <time>2016-07-25T17:44:16Z</time>
      </trkpt>
      <trkpt lat="41.073133" lon="-3.714983">
        <ele>2294.0</ele>
        <time>2016-07-25T17:44:17Z</time>
      </trkpt>
      <trkpt lat="41.073183" lon="-3.714900">
        <ele>2294.0</ele>
        <time>2016-07-25T17:44:18Z</time>
      </trkpt>
      <trkpt lat="41.073217" lon="-3.714833">
        <ele>2294.0</ele>
        <time>2016-07-25T17:44:19Z</time>
      </trkpt>
      <trkpt lat="41.073250" lon="-3.714783">
        <ele>2294.0</ele>
        <time>2016-07-25T17:44:20Z</time>
      </trkpt>
      <trkpt lat="41.073283" lon="-3.714750">
        <ele>2293.0</ele>
        <time>2016-07-25T17:44:21Z</time>
      </trkpt>
      <trkpt lat="41.073317" lon="-3.714700">
        <ele>2293.0</ele>
        <time>2016-07-25T17:44:22Z</time>
      </trkpt>
      <trkpt lat="41.073367" lon="-3.714650">
        <ele>2293.0</ele>
        <time>2016-07-25T17:44:23Z</time>
      </trkpt>
      <trkpt lat="41.073400" lon="-3.714600">
        <ele>2293.0</ele>
        <time>2016-07-25T17:44:24Z</time>
      </trkpt>
      <trkpt lat="41.073433" lon="-3.714533">
        <ele>2293.0</ele>
        <time>2016-07-25T17:44:25Z</time>
      </trkpt>
      <trkpt lat="41.073467" lon="-3.714500">
        <ele>2293.0</ele>
        <time>2016-07-25T17:44:26Z</time>
      </trkpt>
      <trkpt lat="41.073500" lon="-3.714450">
        <ele>2292.0</ele>
        <time>2016-07-25T17:44:27Z</time>
      </trkpt>
      <trkpt lat="41.073550" lon="-3.714400">
        <ele>2292.0</ele>
        <time>2016-07-25T17:44:28Z</time>
      </trkpt>
      <trkpt lat="41.073600" lon="-3.714367">
        <ele>2292.0</ele>
        <time>2016-07-25T17:44:29Z</time>
      </trkpt>
      <trkpt lat="41.073633" lon="-3.714317">
        <ele>2293.0</ele>
        <time>2016-07-25T17:44:30Z</time>
      </trkpt>
      <trkpt lat="41.073667" lon="-3.714283">
        <ele>2295.0</ele>
        <time>2016-07-25T17:44:31Z</time>
      </trkpt>
      <trkpt lat="41.073700" lon="-3.714233">
        <ele>2296.0</ele>
        <time>2016-07-25T17:44:32Z</time>
      </trkpt>
      <trkpt lat="41.073733" lon="-3.714200">
        <ele>2296.0</ele>
        <time>2016-07-25T17:44:33Z</time>
      </trkpt>
      <trkpt lat="41.073767" lon="-3.714167">
        <ele>2297.0</ele>
        <time>2016-07-25T17:44:34Z</time>
      </trkpt>
      <trkpt lat="41.073800" lon="-3.714133">
        <ele>2298.0</ele>
        <time>2016-07-25T17:44:35Z</time>
      </trkpt>
      <trkpt lat="41.073833" lon="-3.714100">
        <ele>2299.0</ele>
        <time>2016-07-25T17:44:36Z</time>
      </trkpt>
      <trkpt lat="41.073867" lon="-3.714067">
        <ele>2300.0</ele>
        <time>2016-07-25T17:44:37Z</time>
      </trkpt>
      <trkpt lat="41.073900" lon="-3.714050">
        <ele>2301.0</ele>
        <time>2016-07-25T17:44:38Z</time>
      </trkpt>
      <trkpt lat="41.073933" lon="-3.714033">
        <ele>2301.0</ele>
        <time>2016-07-25T17:44:39Z</time>
      </trkpt>
      <trkpt lat="41.073967" lon="-3.714017">
        <ele>2301.0</ele>
        <time>2016-07-25T17:44:40Z</time>
      </trkpt>
      <trkpt lat="41.074000" lon="-3.714017">
        <ele>2300.0</ele>
        <time>2016-07-25T17:44:41Z</time>
      </trkpt>
      <trkpt lat="41.074033" lon="-3.714033">
        <ele>2300.0</ele>
        <time>2016-07-25T17:44:42Z</time>
      </trkpt>
      <trkpt lat="41.074067" lon="-3.714033">
        <ele>2299.0</ele>
        <time>2016-07-25T17:44:43Z</time>
      </trkpt>
      <trkpt lat="41.074083" lon="-3.714067">
        <ele>2298.0</ele>
        <time>2016-07-25T17:44:44Z</time>
      </trkpt>
      <trkpt lat="41.074117" lon="-3.714100">
        <ele>2297.0</ele>
        <time>2016-07-25T17:44:45Z</time>
      </trkpt>
      <trkpt lat="41.074150" lon="-3.714133">
        <ele>2296.0</ele>
        <time>2016-07-25T17:44:46Z</time>
      </trkpt>
      <trkpt lat="41.074183" lon="-3.714167">
        <ele>2295.0</ele>
        <time>2016-07-25T17:44:47Z</time>
      </trkpt>
      <trkpt lat="41.074217" lon="-3.714200">
        <ele>2295.0</ele>
        <time>2016-07-25T17:44:48Z</time>
      </trkpt>
      <trkpt lat="41.074233" lon="-3.714250">
        <ele>2294.0</ele>
        <time>2016-07-25T17:44:49Z</time>
      </trkpt>
      <trkpt lat="41.074250" lon="-3.714300">
        <ele>2293.0</ele>
        <time>2016-07-25T17:44:50Z</time>
      </trkpt>
      <trkpt lat="41.074283" lon="-3.714333">
        <ele>2292.0</ele>
        <time>2016-07-25T17:44:51Z</time>
      </trkpt>
      <trkpt lat="41.074317" lon="-3.714367">
        <ele>2290.0</ele>
        <time>2016-07-25T17:44:52Z</time>
      </trkpt>
      <trkpt lat="41.074367" lon="-3.714400">
        <ele>2290.0</ele>
        <time>2016-07-25T17:44:53Z</time>
      </trkpt>
      <trkpt lat="41.074400" lon="-3.714417">
        <ele>2290.0</ele>
        <time>2016-07-25T17:44:54Z</time>
      </trkpt>
      <trkpt lat="41.074433" lon="-3.714450">
        <ele>2292.0</ele>
        <time>2016-07-25T17:44:55Z</time>
      </trkpt>
      <trkpt lat="41.074450" lon="-3.714467">
        <ele>2294.0</ele>
        <time>2016-07-25T17:44:56Z</time>
      </trkpt>
      <trkpt lat="41.074450" lon="-3.714500">
        <ele>2295.0</ele>
        <time>2016-07-25T17:44:57Z</time>
      </trkpt>
      <trkpt lat="41.074450" lon="-3.714517">
        <ele>2295.0</ele>
        <time>2016-07-25T17:44:58Z</time>
      </trkpt>
      <trkpt lat="41.074483" lon="-3.714533">
        <ele>2294.0</ele>
        <time>2016-07-25T17:44:59Z</time>
      </trkpt>
      <trkpt lat="41.074500" lon="-3.714567">
        <ele>2294.0</ele>
        <time>2016-07-25T17:45:00Z</time>
      </trkpt>
      <trkpt lat="41.074533" lon="-3.714600">
        <ele>2293.0</ele>
        <time>2016-07-25T17:45:01Z</time>
      </trkpt>
      <trkpt lat="41.074550" lon="-3.714633">
        <ele>2292.0</ele>
        <time>2016-07-25T17:45:02Z</time>
      </trkpt>
      <trkpt lat="41.074583" lon="-3.714667">
        <ele>2292.0</ele>
        <time>2016-07-25T17:45:03Z</time>
      </trkpt>
      <trkpt lat="41.074600" lon="-3.714700">
        <ele>2292.0</ele>
        <time>2016-07-25T17:45:04Z</time>
      </trkpt>
      <trkpt lat="41.074633" lon="-3.714733">
        <ele>2292.0</ele>
        <time>2016-07-25T17:45:05Z</time>
      </trkpt>
      <trkpt lat="41.074650" lon="-3.714750">
        <ele>2292.0</ele>
        <time>2016-07-25T17:45:06Z</time>
      </trkpt>
      <trkpt lat="41.074667" lon="-3.714783">
        <ele>2291.0</ele>
        <time>2016-07-25T17:45:07Z</time>
      </trkpt>
      <trkpt lat="41.074683" lon="-3.714800">
        <ele>2291.0</ele>
        <time>2016-07-25T17:45:08Z</time>
      </trkpt>
      <trkpt lat="41.074717" lon="-3.714833">
        <ele>2290.0</ele>
        <time>2016-07-25T17:45:09Z</time>
      </trkpt>
      <trkpt lat="41.074733" lon="-3.714867">
        <ele>2289.0</ele>
        <time>2016-07-25T17:45:10Z</time>
      </trkpt>
      <trkpt lat="41.074750" lon="-3.714900">
        <ele>2289.0</ele>
        <time>2016-07-25T17:45:11Z</time>
      </trkpt>
      <trkpt lat="41.074767" lon="-3.714917">
        <ele>2290.0</ele>
        <time>2016-07-25T17:45:12Z</time>
      </trkpt>
      <trkpt lat="41.074783" lon="-3.714917">
        <ele>2291.0</ele>
        <time>2016-07-25T17:45:13Z</time>
      </trkpt>
      <trkpt lat="41.074800" lon="-3.714900">
        <ele>2290.0</ele>
        <time>2016-07-25T17:45:14Z</time>
      </trkpt>
      <trkpt lat="41.074800" lon="-3.714883">
        <ele>2289.0</ele>
        <time>2016-07-25T17:45:15Z</time>
      </trkpt>
      <trkpt lat="41.074833" lon="-3.714867">
        <ele>2286.0</ele>
        <time>2016-07-25T17:45:16Z</time>
      </trkpt>
      <trkpt lat="41.074867" lon="-3.714883">
        <ele>2283.0</ele>
        <time>2016-07-25T17:45:17Z</time>
      </trkpt>
      <trkpt lat="41.074917" lon="-3.714917">
        <ele>2282.0</ele>
        <time>2016-07-25T17:45:18Z</time>
      </trkpt>
      <trkpt lat="41.074933" lon="-3.714933">
        <ele>2283.0</ele>
        <time>2016-07-25T17:45:19Z</time>
      </trkpt>
      <trkpt lat="41.074950" lon="-3.714950">
        <ele>2283.0</ele>
        <time>2016-07-25T17:45:20Z</time>
      </trkpt>
      <trkpt lat="41.074950" lon="-3.714950">
        <ele>2282.0</ele>
        <time>2016-07-25T17:45:21Z</time>
      </trkpt>
      <trkpt lat="41.074967" lon="-3.714967">
        <ele>2280.0</ele>
        <time>2016-07-25T17:45:22Z</time>
      </trkpt>
      <trkpt lat="41.074983" lon="-3.715000">
        <ele>2277.0</ele>
        <time>2016-07-25T17:45:23Z</time>
      </trkpt>
      <trkpt lat="41.075017" lon="-3.715033">
        <ele>2275.0</ele>
        <time>2016-07-25T17:45:24Z</time>
      </trkpt>
      <trkpt lat="41.075033" lon="-3.715067">
        <ele>2275.0</ele>
        <time>2016-07-25T17:45:25Z</time>
      </trkpt>
      <trkpt lat="41.075050" lon="-3.715100">
        <ele>2274.0</ele>
        <time>2016-07-25T17:45:26Z</time>
      </trkpt>
      <trkpt lat="41.075067" lon="-3.715117">
        <ele>2274.0</ele>
        <time>2016-07-25T17:45:27Z</time>
      </trkpt>
      <trkpt lat="41.075067" lon="-3.715150">
        <ele>2272.0</ele>
        <time>2016-07-25T17:45:28Z</time>
      </trkpt>
      <trkpt lat="41.075083" lon="-3.715167">
        <ele>2270.0</ele>
        <time>2016-07-25T17:45:29Z</time>
      </trkpt>
      <trkpt lat="41.075100" lon="-3.715200">
        <ele>2268.0</ele>
        <time>2016-07-25T17:45:30Z</time>
      </trkpt>
      <trkpt lat="41.075133" lon="-3.715233">
        <ele>2266.0</ele>
        <time>2016-07-25T17:45:31Z</time>
      </trkpt>
      <trkpt lat="41.075150" lon="-3.715267">
        <ele>2266.0</ele>
        <time>2016-07-25T17:45:32Z</time>
      </trkpt>
      <trkpt lat="41.075167" lon="-3.715283">
        <ele>2266.0</ele>
        <time>2016-07-25T17:45:33Z</time>
      </trkpt>
      <trkpt lat="41.075183" lon="-3.715300">
        <ele>2266.0</ele>
        <time>2016-07-25T17:45:34Z</time>
      </trkpt>
      <trkpt lat="41.075217" lon="-3.715283">
        <ele>2265.0</ele>
        <time>2016-07-25T17:45:35Z</time>
      </trkpt>
      <trkpt lat="41.075250" lon="-3.715283">
        <ele>2265.0</ele>
        <time>2016-07-25T17:45:36Z</time>
      </trkpt>
      <trkpt lat="41.075283" lon="-3.715283">
        <ele>2265.0</ele>
        <time>2016-07-25T17:45:37Z</time>
      </trkpt>
      <trkpt lat="41.075317" lon="-3.715300">
        <ele>2266.0</ele>
        <time>2016-07-25T17:45:38Z</time>
      </trkpt>
      <trkpt lat="41.075333" lon="-3.715300">
        <ele>2266.0</ele>
        <time>2016-07-25T17:45:39Z</time>
      </trkpt>
      <trkpt lat="41.075367" lon="-3.715283">
        <ele>2267.0</ele>
        <time>2016-07-25T17:45:40Z</time>
      </trkpt>
      <trkpt lat="41.075383" lon="-3.715267">
        <ele>2267.0</ele>
        <time>2016-07-25T17:45:41Z</time>
      </trkpt>
      <trkpt lat="41.075417" lon="-3.715250">
        <ele>2267.0</ele>
        <time>2016-07-25T17:45:42Z</time>
      </trkpt>
      <trkpt lat="41.075450" lon="-3.715233">
        <ele>2267.0</ele>
        <time>2016-07-25T17:45:43Z</time>
      </trkpt>
      <trkpt lat="41.075483" lon="-3.715233">
        <ele>2268.0</ele>
        <time>2016-07-25T17:45:44Z</time>
      </trkpt>
      <trkpt lat="41.075517" lon="-3.715233">
        <ele>2269.0</ele>
        <time>2016-07-25T17:45:45Z</time>
      </trkpt>
      <trkpt lat="41.075533" lon="-3.715233">
        <ele>2270.0</ele>
        <time>2016-07-25T17:45:46Z</time>
      </trkpt>
      <trkpt lat="41.075550" lon="-3.715233">
        <ele>2271.0</ele>
        <time>2016-07-25T17:45:47Z</time>
      </trkpt>
      <trkpt lat="41.075567" lon="-3.715233">
        <ele>2272.0</ele>
        <time>2016-07-25T17:45:48Z</time>
      </trkpt>
      <trkpt lat="41.075583" lon="-3.715233">
        <ele>2273.0</ele>
        <time>2016-07-25T17:45:49Z</time>
      </trkpt>
      <trkpt lat="41.075600" lon="-3.715233">
        <ele>2273.0</ele>
        <time>2016-07-25T17:45:50Z</time>
      </trkpt>
      <trkpt lat="41.075617" lon="-3.715217">
        <ele>2273.0</ele>
        <time>2016-07-25T17:45:51Z</time>
      </trkpt>
      <trkpt lat="41.075650" lon="-3.715167">
        <ele>2273.0</ele>
        <time>2016-07-25T17:45:52Z</time>
      </trkpt>
      <trkpt lat="41.075667" lon="-3.715100">
        <ele>2273.0</ele>
        <time>2016-07-25T17:45:53Z</time>
      </trkpt>
      <trkpt lat="41.075700" lon="-3.715033">
        <ele>2274.0</ele>
        <time>2016-07-25T17:45:54Z</time>
      </trkpt>
      <trkpt lat="41.075717" lon="-3.714967">
        <ele>2274.0</ele>
        <time>2016-07-25T17:45:55Z</time>
      </trkpt>
      <trkpt lat="41.075733" lon="-3.714917">
        <ele>2275.0</ele>
        <time>2016-07-25T17:45:56Z</time>
      </trkpt>
      <trkpt lat="41.075767" lon="-3.714850">
        <ele>2275.0</ele>
        <time>2016-07-25T17:45:57Z</time>
      </trkpt>
      <trkpt lat="41.075800" lon="-3.714783">
        <ele>2275.0</ele>
        <time>2016-07-25T17:45:58Z</time>
      </trkpt>
      <trkpt lat="41.075833" lon="-3.714717">
        <ele>2275.0</ele>
        <time>2016-07-25T17:45:59Z</time>
      </trkpt>
      <trkpt lat="41.075850" lon="-3.714650">
        <ele>2276.0</ele>
        <time>2016-07-25T17:46:00Z</time>
      </trkpt>
      <trkpt lat="41.075883" lon="-3.714600">
        <ele>2277.0</ele>
        <time>2016-07-25T17:46:01Z</time>
      </trkpt>
      <trkpt lat="41.075900" lon="-3.714550">
        <ele>2278.0</ele>
        <time>2016-07-25T17:46:02Z</time>
      </trkpt>
      <trkpt lat="41.075917" lon="-3.714500">
        <ele>2279.0</ele>
        <time>2016-07-25T17:46:03Z</time>
      </trkpt>
      <trkpt lat="41.075950" lon="-3.714467">
        <ele>2278.0</ele>
        <time>2016-07-25T17:46:04Z</time>
      </trkpt>
      <trkpt lat="41.075967" lon="-3.714417">
        <ele>2279.0</ele>
        <time>2016-07-25T17:46:05Z</time>
      </trkpt>
      <trkpt lat="41.076000" lon="-3.714367">
        <ele>2279.0</ele>
        <time>2016-07-25T17:46:06Z</time>
      </trkpt>
      <trkpt lat="41.076033" lon="-3.714300">
        <ele>2280.0</ele>
        <time>2016-07-25T17:46:07Z</time>
      </trkpt>
      <trkpt lat="41.076050" lon="-3.714250">
        <ele>2281.0</ele>
        <time>2016-07-25T17:46:08Z</time>
      </trkpt>
      <trkpt lat="41.076050" lon="-3.714183">
        <ele>2282.0</ele>
        <time>2016-07-25T17:46:09Z</time>
      </trkpt>
      <trkpt lat="41.076083" lon="-3.714133">
        <ele>2282.0</ele>
        <time>2016-07-25T17:46:10Z</time>
      </trkpt>
      <trkpt lat="41.076100" lon="-3.714067">
        <ele>2282.0</ele>
        <time>2016-07-25T17:46:11Z</time>
      </trkpt>
      <trkpt lat="41.076117" lon="-3.713983">
        <ele>2282.0</ele>
        <time>2016-07-25T17:46:12Z</time>
      </trkpt>
      <trkpt lat="41.076133" lon="-3.713900">
        <ele>2283.0</ele>
        <time>2016-07-25T17:46:13Z</time>
      </trkpt>
      <trkpt lat="41.076133" lon="-3.713783">
        <ele>2283.0</ele>
        <time>2016-07-25T17:46:14Z</time>
      </trkpt>
      <trkpt lat="41.076133" lon="-3.713650">
        <ele>2283.0</ele>
        <time>2016-07-25T17:46:15Z</time>
      </trkpt>
      <trkpt lat="41.076083" lon="-3.713517">
        <ele>2283.0</ele>
        <time>2016-07-25T17:46:16Z</time>
      </trkpt>
      <trkpt lat="41.076017" lon="-3.713367">
        <ele>2282.0</ele>
        <time>2016-07-25T17:46:17Z</time>
      </trkpt>
      <trkpt lat="41.075933" lon="-3.713233">
        <ele>2280.0</ele>
        <time>2016-07-25T17:46:18Z</time>
      </trkpt>
      <trkpt lat="41.075817" lon="-3.713100">
        <ele>2280.0</ele>
        <time>2016-07-25T17:46:19Z</time>
      </trkpt>
      <trkpt lat="41.075667" lon="-3.713033">
        <ele>2280.0</ele>
        <time>2016-07-25T17:46:20Z</time>
      </trkpt>
      <trkpt lat="41.075533" lon="-3.713000">
        <ele>2281.0</ele>
        <time>2016-07-25T17:46:21Z</time>
      </trkpt>
      <trkpt lat="41.075417" lon="-3.713017">
        <ele>2282.0</ele>
        <time>2016-07-25T17:46:22Z</time>
      </trkpt>
      <trkpt lat="41.075283" lon="-3.713033">
        <ele>2283.0</ele>
        <time>2016-07-25T17:46:23Z</time>
      </trkpt>
      <trkpt lat="41.075167" lon="-3.713083">
        <ele>2283.0</ele>
        <time>2016-07-25T17:46:24Z</time>
      </trkpt>
      <trkpt lat="41.075050" lon="-3.713117">
        <ele>2283.0</ele>
        <time>2016-07-25T17:46:25Z</time>
      </trkpt>
      <trkpt lat="41.074950" lon="-3.713183">
        <ele>2283.0</ele>
        <time>2016-07-25T17:46:26Z</time>
      </trkpt>
      <trkpt lat="41.074867" lon="-3.713267">
        <ele>2283.0</ele>
        <time>2016-07-25T17:46:27Z</time>
      </trkpt>
      <trkpt lat="41.074783" lon="-3.713350">
        <ele>2285.0</ele>
        <time>2016-07-25T17:46:28Z</time>
      </trkpt>
      <trkpt lat="41.074733" lon="-3.713433">
        <ele>2286.0</ele>
        <time>2016-07-25T17:46:29Z</time>
      </trkpt>
      <trkpt lat="41.074700" lon="-3.713517">
        <ele>2287.0</ele>
        <time>2016-07-25T17:46:30Z</time>
      </trkpt>
      <trkpt lat="41.074667" lon="-3.713583">
        <ele>2288.0</ele>
        <time>2016-07-25T17:46:31Z</time>
      </trkpt>
      <trkpt lat="41.074633" lon="-3.713650">
        <ele>2289.0</ele>
        <time>2016-07-25T17:46:32Z</time>
      </trkpt>
      <trkpt lat="41.074600" lon="-3.713733">
        <ele>2290.0</ele>
        <time>2016-07-25T17:46:33Z</time>
      </trkpt>
      <trkpt lat="41.074583" lon="-3.713783">
        <ele>2291.0</ele>
        <time>2016-07-25T17:46:34Z</time>
      </trkpt>
      <trkpt lat="41.074567" lon="-3.713850">
        <ele>2291.0</ele>
        <time>2016-07-25T17:46:35Z</time>
      </trkpt>
      <trkpt lat="41.074567" lon="-3.713917">
        <ele>2292.0</ele>
        <time>2016-07-25T17:46:36Z</time>
      </trkpt>
      <trkpt lat="41.074567" lon="-3.713983">
        <ele>2294.0</ele>
        <time>2016-07-25T17:46:37Z</time>
      </trkpt>
      <trkpt lat="41.074583" lon="-3.714033">
        <ele>2296.0</ele>
        <time>2016-07-25T17:46:38Z</time>
      </trkpt>
      <trkpt lat="41.074600" lon="-3.714067">
        <ele>2299.0</ele>
        <time>2016-07-25T17:46:39Z</time>
      </trkpt>
      <trkpt lat="41.074617" lon="-3.714100">
        <ele>2301.0</ele>
        <time>2016-07-25T17:46:40Z</time>
      </trkpt>
      <trkpt lat="41.074633" lon="-3.714117">
        <ele>2303.0</ele>
        <time>2016-07-25T17:46:41Z</time>
      </trkpt>
      <trkpt lat="41.074667" lon="-3.714133">
        <ele>2304.0</ele>
        <time>2016-07-25T17:46:42Z</time>
      </trkpt>
      <trkpt lat="41.074700" lon="-3.714133">
        <ele>2305.0</ele>
        <time>2016-07-25T17:46:43Z</time>
      </trkpt>
      <trkpt lat="41.074733" lon="-3.714117">
        <ele>2306.0</ele>
        <time>2016-07-25T17:46:44Z</time>
      </trkpt>
      <trkpt lat="41.074767" lon="-3.714083">
        <ele>2307.0</ele>
        <time>2016-07-25T17:46:45Z</time>
      </trkpt>
      <trkpt lat="41.074783" lon="-3.714033">
        <ele>2308.0</ele>
        <time>2016-07-25T17:46:46Z</time>
      </trkpt>
      <trkpt lat="41.074817" lon="-3.713983">
        <ele>2309.0</ele>
        <time>2016-07-25T17:46:47Z</time>
      </trkpt>
      <trkpt lat="41.074833" lon="-3.713900">
        <ele>2308.0</ele>
        <time>2016-07-25T17:46:48Z</time>
      </trkpt>
      <trkpt lat="41.074850" lon="-3.713800">
        <ele>2308.0</ele>
        <time>2016-07-25T17:46:49Z</time>
      </trkpt>
      <trkpt lat="41.074850" lon="-3.713683">
        <ele>2308.0</ele>
        <time>2016-07-25T17:46:50Z</time>
      </trkpt>
      <trkpt lat="41.074817" lon="-3.713550">
        <ele>2308.0</ele>
        <time>2016-07-25T17:46:51Z</time>
      </trkpt>
      <trkpt lat="41.074767" lon="-3.713417">
        <ele>2308.0</ele>
        <time>2016-07-25T17:46:52Z</time>
      </trkpt>
      <trkpt lat="41.074717" lon="-3.713300">
        <ele>2309.0</ele>
        <time>2016-07-25T17:46:53Z</time>
      </trkpt>
      <trkpt lat="41.074667" lon="-3.713183">
        <ele>2308.0</ele>
        <time>2016-07-25T17:46:54Z</time>
      </trkpt>
      <trkpt lat="41.074633" lon="-3.713067">
        <ele>2307.0</ele>
        <time>2016-07-25T17:46:55Z</time>
      </trkpt>
      <trkpt lat="41.074617" lon="-3.712933">
        <ele>2305.0</ele>
        <time>2016-07-25T17:46:56Z</time>
      </trkpt>
      <trkpt lat="41.074600" lon="-3.712800">
        <ele>2305.0</ele>
        <time>2016-07-25T17:46:57Z</time>
      </trkpt>
      <trkpt lat="41.074583" lon="-3.712667">
        <ele>2305.0</ele>
        <time>2016-07-25T17:46:58Z</time>
      </trkpt>
      <trkpt lat="41.074583" lon="-3.712550">
        <ele>2305.0</ele>
        <time>2016-07-25T17:46:59Z</time>
      </trkpt>
      <trkpt lat="41.074600" lon="-3.712467">
        <ele>2305.0</ele>
        <time>2016-07-25T17:47:00Z</time>
      </trkpt>
      <trkpt lat="41.074617" lon="-3.712383">
        <ele>2306.0</ele>
        <time>2016-07-25T17:47:01Z</time>
      </trkpt>
      <trkpt lat="41.074633" lon="-3.712300">
        <ele>2306.0</ele>
        <time>2016-07-25T17:47:02Z</time>
      </trkpt>
      <trkpt lat="41.074650" lon="-3.712233">
        <ele>2305.0</ele>
        <time>2016-07-25T17:47:03Z</time>
      </trkpt>
      <trkpt lat="41.074700" lon="-3.712150">
        <ele>2304.0</ele>
        <time>2016-07-25T17:47:04Z</time>
      </trkpt>
      <trkpt lat="41.074733" lon="-3.712067">
        <ele>2303.0</ele>
        <time>2016-07-25T17:47:05Z</time>
      </trkpt>
      <trkpt lat="41.074750" lon="-3.711983">
        <ele>2304.0</ele>
        <time>2016-07-25T17:47:06Z</time>
      </trkpt>
      <trkpt lat="41.074767" lon="-3.711900">
        <ele>2304.0</ele>
        <time>2016-07-25T17:47:07Z</time>
      </trkpt>
      <trkpt lat="41.074800" lon="-3.711817">
        <ele>2305.0</ele>
        <time>2016-07-25T17:47:08Z</time>
      </trkpt>
      <trkpt lat="41.074833" lon="-3.711750">
        <ele>2305.0</ele>
        <time>2016-07-25T17:47:09Z</time>
      </trkpt>
      <trkpt lat="41.074867" lon="-3.711667">
        <ele>2306.0</ele>
        <time>2016-07-25T17:47:10Z</time>
      </trkpt>
      <trkpt lat="41.074900" lon="-3.711583">
        <ele>2308.0</ele>
        <time>2016-07-25T17:47:11Z</time>
      </trkpt>
      <trkpt lat="41.074917" lon="-3.711500">
        <ele>2309.0</ele>
        <time>2016-07-25T17:47:12Z</time>
      </trkpt>
      <trkpt lat="41.074950" lon="-3.711417">
        <ele>2310.0</ele>
        <time>2016-07-25T17:47:13Z</time>
      </trkpt>
      <trkpt lat="41.074983" lon="-3.711333">
        <ele>2311.0</ele>
        <time>2016-07-25T17:47:14Z</time>
      </trkpt>
      <trkpt lat="41.075017" lon="-3.711267">
        <ele>2314.0</ele>
        <time>2016-07-25T17:47:15Z</time>
      </trkpt>
      <trkpt lat="41.075033" lon="-3.711200">
        <ele>2317.0</ele>
        <time>2016-07-25T17:47:16Z</time>
      </trkpt>
      <trkpt lat="41.075067" lon="-3.711133">
        <ele>2320.0</ele>
        <time>2016-07-25T17:47:17Z</time>
      </trkpt>
      <trkpt lat="41.075067" lon="-3.711067">
        <ele>2322.0</ele>
        <time>2016-07-25T17:47:18Z</time>
      </trkpt>
      <trkpt lat="41.075083" lon="-3.711000">
        <ele>2324.0</ele>
        <time>2016-07-25T17:47:19Z</time>
      </trkpt>
      <trkpt lat="41.075083" lon="-3.710917">
        <ele>2326.0</ele>
        <time>2016-07-25T17:47:20Z</time>
      </trkpt>
      <trkpt lat="41.075100" lon="-3.710833">
        <ele>2326.0</ele>
        <time>2016-07-25T17:47:21Z</time>
      </trkpt>
      <trkpt lat="41.075117" lon="-3.710750">
        <ele>2327.0</ele>
        <time>2016-07-25T17:47:22Z</time>
      </trkpt>
      <trkpt lat="41.075117" lon="-3.710650">
        <ele>2328.0</ele>
        <time>2016-07-25T17:47:23Z</time>
      </trkpt>
      <trkpt lat="41.075100" lon="-3.710517">
        <ele>2329.0</ele>
        <time>2016-07-25T17:47:24Z</time>
      </trkpt>
      <trkpt lat="41.075067" lon="-3.710383">
        <ele>2329.0</ele>
        <time>2016-07-25T17:47:25Z</time>
      </trkpt>
      <trkpt lat="41.075000" lon="-3.710233">
        <ele>2329.0</ele>
        <time>2016-07-25T17:47:26Z</time>
      </trkpt>
      <trkpt lat="41.074917" lon="-3.710083">
        <ele>2330.0</ele>
        <time>2016-07-25T17:47:27Z</time>
      </trkpt>
      <trkpt lat="41.074800" lon="-3.709950">
        <ele>2333.0</ele>
        <time>2016-07-25T17:47:28Z</time>
      </trkpt>
      <trkpt lat="41.074683" lon="-3.709883">
        <ele>2336.0</ele>
        <time>2016-07-25T17:47:29Z</time>
      </trkpt>
      <trkpt lat="41.074567" lon="-3.709850">
        <ele>2339.0</ele>
        <time>2016-07-25T17:47:30Z</time>
      </trkpt>
      <trkpt lat="41.074450" lon="-3.709833">
        <ele>2340.0</ele>
        <time>2016-07-25T17:47:31Z</time>
      </trkpt>
      <trkpt lat="41.074333" lon="-3.709850">
        <ele>2340.0</ele>
        <time>2016-07-25T17:47:32Z</time>
      </trkpt>
      <trkpt lat="41.074217" lon="-3.709867">
        <ele>2340.0</ele>
        <time>2016-07-25T17:47:33Z</time>
      </trkpt>
      <trkpt lat="41.074100" lon="-3.709900">
        <ele>2340.0</ele>
        <time>2016-07-25T17:47:34Z</time>
      </trkpt>
      <trkpt lat="41.073983" lon="-3.709950">
        <ele>2340.0</ele>
        <time>2016-07-25T17:47:35Z</time>
      </trkpt>
      <trkpt lat="41.073900" lon="-3.710017">
        <ele>2340.0</ele>
        <time>2016-07-25T17:47:36Z</time>
      </trkpt>
      <trkpt lat="41.073817" lon="-3.710100">
        <ele>2340.0</ele>
        <time>2016-07-25T17:47:37Z</time>
      </trkpt>
      <trkpt lat="41.073750" lon="-3.710183">
        <ele>2341.0</ele>
        <time>2016-07-25T17:47:38Z</time>
      </trkpt>
      <trkpt lat="41.073700" lon="-3.710250">
        <ele>2341.0</ele>
        <time>2016-07-25T17:47:39Z</time>
      </trkpt>
      <trkpt lat="41.073633" lon="-3.710333">
        <ele>2342.0</ele>
        <time>2016-07-25T17:47:40Z</time>
      </trkpt>
      <trkpt lat="41.073583" lon="-3.710400">
        <ele>2344.0</ele>
        <time>2016-07-25T17:47:41Z</time>
      </trkpt>
      <trkpt lat="41.073533" lon="-3.710467">
        <ele>2345.0</ele>
        <time>2016-07-25T17:47:42Z</time>
      </trkpt>
      <trkpt lat="41.073483" lon="-3.710517">
        <ele>2346.0</ele>
        <time>2016-07-25T17:47:43Z</time>
      </trkpt>
      <trkpt lat="41.073433" lon="-3.710567">
        <ele>2347.0</ele>
        <time>2016-07-25T17:47:44Z</time>
      </trkpt>
      <trkpt lat="41.073383" lon="-3.710633">
        <ele>2347.0</ele>
        <time>2016-07-25T17:47:45Z</time>
      </trkpt>
      <trkpt lat="41.073350" lon="-3.710717">
        <ele>2346.0</ele>
        <time>2016-07-25T17:47:46Z</time>
      </trkpt>
      <trkpt lat="41.073317" lon="-3.710783">
        <ele>2347.0</ele>
        <time>2016-07-25T17:47:47Z</time>
      </trkpt>
      <trkpt lat="41.073317" lon="-3.710833">
        <ele>2348.0</ele>
        <time>2016-07-25T17:47:48Z</time>
      </trkpt>
      <trkpt lat="41.073300" lon="-3.710883">
        <ele>2350.0</ele>
        <time>2016-07-25T17:47:49Z</time>
      </trkpt>
      <trkpt lat="41.073283" lon="-3.710917">
        <ele>2350.0</ele>
        <time>2016-07-25T17:47:50Z</time>
      </trkpt>
      <trkpt lat="41.073267" lon="-3.710950">
        <ele>2350.0</ele>
        <time>2016-07-25T17:47:51Z</time>
      </trkpt>
      <trkpt lat="41.073267" lon="-3.711000">
        <ele>2349.0</ele>
        <time>2016-07-25T17:47:52Z</time>
      </trkpt>
      <trkpt lat="41.073283" lon="-3.711033">
        <ele>2347.0</ele>
        <time>2016-07-25T17:47:53Z</time>
      </trkpt>
      <trkpt lat="41.073317" lon="-3.711067">
        <ele>2346.0</ele>
        <time>2016-07-25T17:47:54Z</time>
      </trkpt>
      <trkpt lat="41.073350" lon="-3.711083">
        <ele>2346.0</ele>
        <time>2016-07-25T17:47:55Z</time>
      </trkpt>
      <trkpt lat="41.073383" lon="-3.711100">
        <ele>2347.0</ele>
        <time>2016-07-25T17:47:56Z</time>
      </trkpt>
      <trkpt lat="41.073400" lon="-3.711117">
        <ele>2349.0</ele>
        <time>2016-07-25T17:47:57Z</time>
      </trkpt>
      <trkpt lat="41.073417" lon="-3.711117">
        <ele>2350.0</ele>
        <time>2016-07-25T17:47:58Z</time>
      </trkpt>
      <trkpt lat="41.073433" lon="-3.711117">
        <ele>2349.0</ele>
        <time>2016-07-25T17:47:59Z</time>
      </trkpt>
      <trkpt lat="41.073467" lon="-3.711117">
        <ele>2348.0</ele>
        <time>2016-07-25T17:48:00Z</time>
      </trkpt>
      <trkpt lat="41.073500" lon="-3.711100">
        <ele>2347.0</ele>
        <time>2016-07-25T17:48:01Z</time>
      </trkpt>
      <trkpt lat="41.073517" lon="-3.711100">
        <ele>2347.0</ele>
        <time>2016-07-25T17:48:02Z</time>
      </trkpt>
      <trkpt lat="41.073533" lon="-3.711117">
        <ele>2348.0</ele>
        <time>2016-07-25T17:48:03Z</time>
      </trkpt>
      <trkpt lat="41.073550" lon="-3.711117">
        <ele>2348.0</ele>
        <time>2016-07-25T17:48:04Z</time>
      </trkpt>
      <trkpt lat="41.073583" lon="-3.711117">
        <ele>2346.0</ele>
        <time>2016-07-25T17:48:05Z</time>
      </trkpt>
      <trkpt lat="41.073617" lon="-3.711100">
        <ele>2344.0</ele>
        <time>2016-07-25T17:48:06Z</time>
      </trkpt>
      <trkpt lat="41.073667" lon="-3.711083">
        <ele>2342.0</ele>
        <time>2016-07-25T17:48:07Z</time>
      </trkpt>
      <trkpt lat="41.073700" lon="-3.711067">
        <ele>2342.0</ele>
        <time>2016-07-25T17:48:08Z</time>
      </trkpt>
      <trkpt lat="41.073733" lon="-3.711033">
        <ele>2343.0</ele>
        <time>2016-07-25T17:48:09Z</time>
      </trkpt>
      <trkpt lat="41.073750" lon="-3.711017">
        <ele>2344.0</ele>
        <time>2016-07-25T17:48:10Z</time>
      </trkpt>
      <trkpt lat="41.073783" lon="-3.710983">
        <ele>2343.0</ele>
        <time>2016-07-25T17:48:11Z</time>
      </trkpt>
      <trkpt lat="41.073817" lon="-3.710967">
        <ele>2341.0</ele>
        <time>2016-07-25T17:48:12Z</time>
      </trkpt>
      <trkpt lat="41.073883" lon="-3.710933">
        <ele>2339.0</ele>
        <time>2016-07-25T17:48:13Z</time>
      </trkpt>
      <trkpt lat="41.073933" lon="-3.710883">
        <ele>2339.0</ele>
        <time>2016-07-25T17:48:14Z</time>
      </trkpt>
      <trkpt lat="41.073983" lon="-3.710850">
        <ele>2342.0</ele>
        <time>2016-07-25T17:48:15Z</time>
      </trkpt>
      <trkpt lat="41.074000" lon="-3.710817">
        <ele>2344.0</ele>
        <time>2016-07-25T17:48:16Z</time>
      </trkpt>
      <trkpt lat="41.074017" lon="-3.710800">
        <ele>2345.0</ele>
        <time>2016-07-25T17:48:17Z</time>
      </trkpt>
      <trkpt lat="41.074033" lon="-3.710800">
        <ele>2344.0</ele>
        <time>2016-07-25T17:48:18Z</time>
      </trkpt>
      <trkpt lat="41.074067" lon="-3.710767">
        <ele>2341.0</ele>
        <time>2016-07-25T17:48:19Z</time>
      </trkpt>
      <trkpt lat="41.074117" lon="-3.710733">
        <ele>2339.0</ele>
        <time>2016-07-25T17:48:20Z</time>
      </trkpt>
      <trkpt lat="41.074183" lon="-3.710683">
        <ele>2338.0</ele>
        <time>2016-07-25T17:48:21Z</time>
      </trkpt>
      <trkpt lat="41.074217" lon="-3.710650">
        <ele>2339.0</ele>
        <time>2016-07-25T17:48:22Z</time>
      </trkpt>
      <trkpt lat="41.074250" lon="-3.710617">
        <ele>2340.0</ele>
        <time>2016-07-25T17:48:23Z</time>
      </trkpt>
      <trkpt lat="41.074267" lon="-3.710567">
        <ele>2339.0</ele>
        <time>2016-07-25T17:48:24Z</time>
      </trkpt>
      <trkpt lat="41.074300" lon="-3.710517">
        <ele>2337.0</ele>
        <time>2016-07-25T17:48:25Z</time>
      </trkpt>
      <trkpt lat="41.074333" lon="-3.710450">
        <ele>2334.0</ele>
        <time>2016-07-25T17:48:26Z</time>
      </trkpt>
      <trkpt lat="41.074383" lon="-3.710383">
        <ele>2332.0</ele>
        <time>2016-07-25T17:48:27Z</time>
      </trkpt>
      <trkpt lat="41.074450" lon="-3.710317">
        <ele>2333.0</ele>
        <time>2016-07-25T17:48:28Z</time>
      </trkpt>
      <trkpt lat="41.074517" lon="-3.710250">
        <ele>2336.0</ele>
        <time>2016-07-25T17:48:29Z</time>
      </trkpt>
      <trkpt lat="41.074550" lon="-3.710217">
        <ele>2340.0</ele>
        <time>2016-07-25T17:48:30Z</time>
      </trkpt>
      <trkpt lat="41.074567" lon="-3.710183">
        <ele>2342.0</ele>
        <time>2016-07-25T17:48:31Z</time>
      </trkpt>
      <trkpt lat="41.074617" lon="-3.710133">
        <ele>2343.0</ele>
        <time>2016-07-25T17:48:32Z</time>
      </trkpt>
      <trkpt lat="41.074667" lon="-3.710100">
        <ele>2343.0</ele>
        <time>2016-07-25T17:48:33Z</time>
      </trkpt>
      <trkpt lat="41.074717" lon="-3.710067">
        <ele>2343.0</ele>
        <time>2016-07-25T17:48:34Z</time>
      </trkpt>
      <trkpt lat="41.074783" lon="-3.710033">
        <ele>2345.0</ele>
        <time>2016-07-25T17:48:35Z</time>
      </trkpt>
      <trkpt lat="41.074833" lon="-3.709983">
        <ele>2347.0</ele>
        <time>2016-07-25T17:48:36Z</time>
      </trkpt>
      <trkpt lat="41.074883" lon="-3.709950">
        <ele>2349.0</ele>
        <time>2016-07-25T17:48:37Z</time>
      </trkpt>
      <trkpt lat="41.074917" lon="-3.709917">
        <ele>2350.0</ele>
        <time>2016-07-25T17:48:38Z</time>
      </trkpt>
      <trkpt lat="41.074967" lon="-3.709883">
        <ele>2350.0</ele>
        <time>2016-07-25T17:48:39Z</time>
      </trkpt>
      <trkpt lat="41.075017" lon="-3.709833">
        <ele>2351.0</ele>
        <time>2016-07-25T17:48:40Z</time>
      </trkpt>
      <trkpt lat="41.075067" lon="-3.709767">
        <ele>2351.0</ele>
        <time>2016-07-25T17:48:41Z</time>
      </trkpt>
      <trkpt lat="41.075100" lon="-3.709683">
        <ele>2351.0</ele>
        <time>2016-07-25T17:48:42Z</time>
      </trkpt>
      <trkpt lat="41.075133" lon="-3.709583">
        <ele>2351.0</ele>
        <time>2016-07-25T17:48:43Z</time>
      </trkpt>
      <trkpt lat="41.075167" lon="-3.709483">
        <ele>2351.0</ele>
        <time>2016-07-25T17:48:44Z</time>
      </trkpt>
      <trkpt lat="41.075200" lon="-3.709383">
        <ele>2351.0</ele>
        <time>2016-07-25T17:48:45Z</time>
      </trkpt>
      <trkpt lat="41.075217" lon="-3.709283">
        <ele>2350.0</ele>
        <time>2016-07-25T17:48:46Z</time>
      </trkpt>
      <trkpt lat="41.075250" lon="-3.709200">
        <ele>2348.0</ele>
        <time>2016-07-25T17:48:47Z</time>
      </trkpt>
      <trkpt lat="41.075300" lon="-3.709117">
        <ele>2345.0</ele>
        <time>2016-07-25T17:48:48Z</time>
      </trkpt>
      <trkpt lat="41.075350" lon="-3.709017">
        <ele>2342.0</ele>
        <time>2016-07-25T17:48:49Z</time>
      </trkpt>
      <trkpt lat="41.075383" lon="-3.708917">
        <ele>2341.0</ele>
        <time>2016-07-25T17:48:50Z</time>
      </trkpt>
      <trkpt lat="41.075417" lon="-3.708800">
        <ele>2340.0</ele>
        <time>2016-07-25T17:48:51Z</time>
      </trkpt>
      <trkpt lat="41.075450" lon="-3.708717">
        <ele>2339.0</ele>
        <time>2016-07-25T17:48:52Z</time>
      </trkpt>
      <trkpt lat="41.075500" lon="-3.708617">
        <ele>2338.0</ele>
        <time>2016-07-25T17:48:53Z</time>
      </trkpt>
      <trkpt lat="41.075533" lon="-3.708517">
        <ele>2336.0</ele>
        <time>2016-07-25T17:48:54Z</time>
      </trkpt>
      <trkpt lat="41.075583" lon="-3.708417">
        <ele>2335.0</ele>
        <time>2016-07-25T17:48:55Z</time>
      </trkpt>
      <trkpt lat="41.075633" lon="-3.708300">
        <ele>2335.0</ele>
        <time>2016-07-25T17:48:56Z</time>
      </trkpt>
      <trkpt lat="41.075667" lon="-3.708200">
        <ele>2336.0</ele>
        <time>2016-07-25T17:48:57Z</time>
      </trkpt>
      <trkpt lat="41.075700" lon="-3.708083">
        <ele>2335.0</ele>
        <time>2016-07-25T17:48:58Z</time>
      </trkpt>
      <trkpt lat="41.075733" lon="-3.707967">
        <ele>2334.0</ele>
        <time>2016-07-25T17:48:59Z</time>
      </trkpt>
      <trkpt lat="41.075767" lon="-3.707850">
        <ele>2334.0</ele>
        <time>2016-07-25T17:49:00Z</time>
      </trkpt>
      <trkpt lat="41.075800" lon="-3.707750">
        <ele>2333.0</ele>
        <time>2016-07-25T17:49:01Z</time>
      </trkpt>
      <trkpt lat="41.075833" lon="-3.707650">
        <ele>2332.0</ele>
        <time>2016-07-25T17:49:02Z</time>
      </trkpt>
      <trkpt lat="41.075867" lon="-3.707550">
        <ele>2330.0</ele>
        <time>2016-07-25T17:49:03Z</time>
      </trkpt>
      <trkpt lat="41.075900" lon="-3.707450">
        <ele>2328.0</ele>
        <time>2016-07-25T17:49:04Z</time>
      </trkpt>
      <trkpt lat="41.075933" lon="-3.707333">
        <ele>2326.0</ele>
        <time>2016-07-25T17:49:05Z</time>
      </trkpt>
      <trkpt lat="41.075983" lon="-3.707233">
        <ele>2324.0</ele>
        <time>2016-07-25T17:49:06Z</time>
      </trkpt>
      <trkpt lat="41.076033" lon="-3.707133">
        <ele>2323.0</ele>
        <time>2016-07-25T17:49:07Z</time>
      </trkpt>
      <trkpt lat="41.076067" lon="-3.707033">
        <ele>2322.0</ele>
        <time>2016-07-25T17:49:08Z</time>
      </trkpt>
      <trkpt lat="41.076117" lon="-3.706933">
        <ele>2321.0</ele>
        <time>2016-07-25T17:49:09Z</time>
      </trkpt>
      <trkpt lat="41.076133" lon="-3.706833">
        <ele>2321.0</ele>
        <time>2016-07-25T17:49:10Z</time>
      </trkpt>
      <trkpt lat="41.076150" lon="-3.706733">
        <ele>2320.0</ele>
        <time>2016-07-25T17:49:11Z</time>
      </trkpt>
      <trkpt lat="41.076183" lon="-3.706650">
        <ele>2317.0</ele>
        <time>2016-07-25T17:49:12Z</time>
      </trkpt>
      <trkpt lat="41.076217" lon="-3.706567">
        <ele>2314.0</ele>
        <time>2016-07-25T17:49:13Z</time>
      </trkpt>
      <trkpt lat="41.076267" lon="-3.706500">
        <ele>2312.0</ele>
        <time>2016-07-25T17:49:14Z</time>
      </trkpt>
      <trkpt lat="41.076317" lon="-3.706417">
        <ele>2311.0</ele>
        <time>2016-07-25T17:49:15Z</time>
      </trkpt>
      <trkpt lat="41.076350" lon="-3.706350">
        <ele>2311.0</ele>
        <time>2016-07-25T17:49:16Z</time>
      </trkpt>
      <trkpt lat="41.076367" lon="-3.706283">
        <ele>2310.0</ele>
        <time>2016-07-25T17:49:17Z</time>
      </trkpt>
      <trkpt lat="41.076400" lon="-3.706217">
        <ele>2307.0</ele>
        <time>2016-07-25T17:49:18Z</time>
      </trkpt>
      <trkpt lat="41.076450" lon="-3.706167">
        <ele>2304.0</ele>
        <time>2016-07-25T17:49:19Z</time>
      </trkpt>
      <trkpt lat="41.076500" lon="-3.706100">
        <ele>2301.0</ele>
        <time>2016-07-25T17:49:20Z</time>
      </trkpt>
      <trkpt lat="41.076533" lon="-3.706033">
        <ele>2299.0</ele>
        <time>2016-07-25T17:49:21Z</time>
      </trkpt>
      <trkpt lat="41.076583" lon="-3.705967">
        <ele>2297.0</ele>
        <time>2016-07-25T17:49:22Z</time>
      </trkpt>
      <trkpt lat="41.076617" lon="-3.705900">
        <ele>2295.0</ele>
        <time>2016-07-25T17:49:23Z</time>
      </trkpt>
      <trkpt lat="41.076667" lon="-3.705833">
        <ele>2294.0</ele>
        <time>2016-07-25T17:49:24Z</time>
      </trkpt>
      <trkpt lat="41.076717" lon="-3.705767">
        <ele>2292.0</ele>
        <time>2016-07-25T17:49:25Z</time>
      </trkpt>
      <trkpt lat="41.076750" lon="-3.705700">
        <ele>2291.0</ele>
        <time>2016-07-25T17:49:26Z</time>
      </trkpt>
      <trkpt lat="41.076800" lon="-3.705650">
        <ele>2290.0</ele>
        <time>2016-07-25T17:49:27Z</time>
      </trkpt>
      <trkpt lat="41.076833" lon="-3.705600">
        <ele>2290.0</ele>
        <time>2016-07-25T17:49:28Z</time>
      </trkpt>
      <trkpt lat="41.076867" lon="-3.705550">
        <ele>2289.0</ele>
        <time>2016-07-25T17:49:29Z</time>
      </trkpt>
      <trkpt lat="41.076900" lon="-3.705517">
        <ele>2287.0</ele>
        <time>2016-07-25T17:49:30Z</time>
      </trkpt>
      <trkpt lat="41.076950" lon="-3.705450">
        <ele>2285.0</ele>
        <time>2016-07-25T17:49:31Z</time>
      </trkpt>
      <trkpt lat="41.076983" lon="-3.705383">
        <ele>2284.0</ele>
        <time>2016-07-25T17:49:32Z</time>
      </trkpt>
      <trkpt lat="41.077017" lon="-3.705317">
        <ele>2282.0</ele>
        <time>2016-07-25T17:49:33Z</time>
      </trkpt>
      <trkpt lat="41.077050" lon="-3.705267">
        <ele>2281.0</ele>
        <time>2016-07-25T17:49:34Z</time>
      </trkpt>
      <trkpt lat="41.077083" lon="-3.705217">
        <ele>2280.0</ele>
        <time>2016-07-25T17:49:35Z</time>
      </trkpt>
      <trkpt lat="41.077117" lon="-3.705200">
        <ele>2278.0</ele>
        <time>2016-07-25T17:49:36Z</time>
      </trkpt>
      <trkpt lat="41.077150" lon="-3.705200">
        <ele>2277.0</ele>
        <time>2016-07-25T17:49:37Z</time>
      </trkpt>
      <trkpt lat="41.077183" lon="-3.705217">
        <ele>2277.0</ele>
        <time>2016-07-25T17:49:38Z</time>
      </trkpt>
      <trkpt lat="41.077200" lon="-3.705250">
        <ele>2276.0</ele>
        <time>2016-07-25T17:49:39Z</time>
      </trkpt>
      <trkpt lat="41.077217" lon="-3.705283">
        <ele>2275.0</ele>
        <time>2016-07-25T17:49:40Z</time>
      </trkpt>
      <trkpt lat="41.077233" lon="-3.705333">
        <ele>2274.0</ele>
        <time>2016-07-25T17:49:41Z</time>
      </trkpt>
      <trkpt lat="41.077250" lon="-3.705367">
        <ele>2272.0</ele>
        <time>2016-07-25T17:49:42Z</time>
      </trkpt>
      <trkpt lat="41.077283" lon="-3.705400">
        <ele>2271.0</ele>
        <time>2016-07-25T17:49:43Z</time>
      </trkpt>
      <trkpt lat="41.077333" lon="-3.705417">
        <ele>2270.0</ele>
        <time>2016-07-25T17:49:44Z</time>
      </trkpt>
      <trkpt lat="41.077367" lon="-3.705450">
        <ele>2271.0</ele>
        <time>2016-07-25T17:49:45Z</time>
      </trkpt>
      <trkpt lat="41.077400" lon="-3.705467">
        <ele>2271.0</ele>
        <time>2016-07-25T17:49:46Z</time>
      </trkpt>
      <trkpt lat="41.077450" lon="-3.705467">
        <ele>2271.0</ele>
        <time>2016-07-25T17:49:47Z</time>
      </trkpt>
      <trkpt lat="41.077483" lon="-3.705467">
        <ele>2270.0</ele>
        <time>2016-07-25T17:49:48Z</time>
      </trkpt>
      <trkpt lat="41.077533" lon="-3.705483">
        <ele>2270.0</ele>
        <time>2016-07-25T17:49:49Z</time>
      </trkpt>
      <trkpt lat="41.077567" lon="-3.705500">
        <ele>2269.0</ele>
        <time>2016-07-25T17:49:50Z</time>
      </trkpt>
      <trkpt lat="41.077600" lon="-3.705517">
        <ele>2269.0</ele>
        <time>2016-07-25T17:49:51Z</time>
      </trkpt>
      <trkpt lat="41.077633" lon="-3.705550">
        <ele>2268.0</ele>
        <time>2016-07-25T17:49:52Z</time>
      </trkpt>
      <trkpt lat="41.077667" lon="-3.705583">
        <ele>2267.0</ele>
        <time>2016-07-25T17:49:53Z</time>
      </trkpt>
      <trkpt lat="41.077683" lon="-3.705617">
        <ele>2266.0</ele>
        <time>2016-07-25T17:49:54Z</time>
      </trkpt>
      <trkpt lat="41.077717" lon="-3.705650">
        <ele>2265.0</ele>
        <time>2016-07-25T17:49:55Z</time>
      </trkpt>
      <trkpt lat="41.077750" lon="-3.705683">
        <ele>2265.0</ele>
        <time>2016-07-25T17:49:56Z</time>
      </trkpt>
      <trkpt lat="41.077750" lon="-3.705733">
        <ele>2265.0</ele>
        <time>2016-07-25T17:49:57Z</time>
      </trkpt>
      <trkpt lat="41.077767" lon="-3.705800">
        <ele>2264.0</ele>
        <time>2016-07-25T17:49:58Z</time>
      </trkpt>
      <trkpt lat="41.077767" lon="-3.705867">
        <ele>2263.0</ele>
        <time>2016-07-25T17:49:59Z</time>
      </trkpt>
      <trkpt lat="41.077767" lon="-3.705933">
        <ele>2262.0</ele>
        <time>2016-07-25T17:50:00Z</time>
      </trkpt>
      <trkpt lat="41.077767" lon="-3.706000">
        <ele>2262.0</ele>
        <time>2016-07-25T17:50:01Z</time>
      </trkpt>
      <trkpt lat="41.077767" lon="-3.706083">
        <ele>2262.0</ele>
        <time>2016-07-25T17:50:02Z</time>
      </trkpt>
      <trkpt lat="41.077750" lon="-3.706150">
        <ele>2261.0</ele>
        <time>2016-07-25T17:50:03Z</time>
      </trkpt>
      <trkpt lat="41.077750" lon="-3.706233">
        <ele>2260.0</ele>
        <time>2016-07-25T17:50:04Z</time>
      </trkpt>
      <trkpt lat="41.077733" lon="-3.706317">
        <ele>2260.0</ele>
        <time>2016-07-25T17:50:05Z</time>
      </trkpt>
      <trkpt lat="41.077733" lon="-3.706383">
        <ele>2258.0</ele>
        <time>2016-07-25T17:50:06Z</time>
      </trkpt>
      <trkpt lat="41.077733" lon="-3.706450">
        <ele>2257.0</ele>
        <time>2016-07-25T17:50:07Z</time>
      </trkpt>
      <trkpt lat="41.077733" lon="-3.706533">
        <ele>2256.0</ele>
        <time>2016-07-25T17:50:08Z</time>
      </trkpt>
      <trkpt lat="41.077733" lon="-3.706600">
        <ele>2255.0</ele>
        <time>2016-07-25T17:50:09Z</time>
      </trkpt>
      <trkpt lat="41.077717" lon="-3.706667">
        <ele>2253.0</ele>
        <time>2016-07-25T17:50:10Z</time>
      </trkpt>
      <trkpt lat="41.077717" lon="-3.706750">
        <ele>2252.0</ele>
        <time>2016-07-25T17:50:11Z</time>
      </trkpt>
      <trkpt lat="41.077700" lon="-3.706817">
        <ele>2249.0</ele>
        <time>2016-07-25T17:50:12Z</time>
      </trkpt>
      <trkpt lat="41.077700" lon="-3.706900">
        <ele>2247.0</ele>
        <time>2016-07-25T17:50:13Z</time>
      </trkpt>
      <trkpt lat="41.077683" lon="-3.706983">
        <ele>2246.0</ele>
        <time>2016-07-25T17:50:14Z</time>
      </trkpt>
      <trkpt lat="41.077667" lon="-3.707067">
        <ele>2244.0</ele>
        <time>2016-07-25T17:50:15Z</time>
      </trkpt>
      <trkpt lat="41.077650" lon="-3.707133">
        <ele>2242.0</ele>
        <time>2016-07-25T17:50:16Z</time>
      </trkpt>
      <trkpt lat="41.077633" lon="-3.707200">
        <ele>2240.0</ele>
        <time>2016-07-25T17:50:17Z</time>
      </trkpt>
      <trkpt lat="41.077617" lon="-3.707283">
        <ele>2237.0</ele>
        <time>2016-07-25T17:50:18Z</time>
      </trkpt>
      <trkpt lat="41.077617" lon="-3.707367">
        <ele>2235.0</ele>
        <time>2016-07-25T17:50:19Z</time>
      </trkpt>
      <trkpt lat="41.077617" lon="-3.707450">
        <ele>2234.0</ele>
        <time>2016-07-25T17:50:20Z</time>
      </trkpt>
      <trkpt lat="41.077600" lon="-3.707517">
        <ele>2232.0</ele>
        <time>2016-07-25T17:50:21Z</time>
      </trkpt>
      <trkpt lat="41.077600" lon="-3.707600">
        <ele>2230.0</ele>
        <time>2016-07-25T17:50:22Z</time>
      </trkpt>
      <trkpt lat="41.077583" lon="-3.707667">
        <ele>2229.0</ele>
        <time>2016-07-25T17:50:23Z</time>
      </trkpt>
      <trkpt lat="41.077583" lon="-3.707750">
        <ele>2228.0</ele>
        <time>2016-07-25T17:50:24Z</time>
      </trkpt>
      <trkpt lat="41.077583" lon="-3.707817">
        <ele>2228.0</ele>
        <time>2016-07-25T17:50:25Z</time>
      </trkpt>
      <trkpt lat="41.077583" lon="-3.707883">
        <ele>2228.0</ele>
        <time>2016-07-25T17:50:26Z</time>
      </trkpt>
      <trkpt lat="41.077567" lon="-3.707950">
        <ele>2228.0</ele>
        <time>2016-07-25T17:50:27Z</time>
      </trkpt>
      <trkpt lat="41.077533" lon="-3.708000">
        <ele>2228.0</ele>
        <time>2016-07-25T17:50:28Z</time>
      </trkpt>
      <trkpt lat="41.077517" lon="-3.708067">
        <ele>2227.0</ele>
        <time>2016-07-25T17:50:29Z</time>
      </trkpt>
      <trkpt lat="41.077500" lon="-3.708133">
        <ele>2226.0</ele>
        <time>2016-07-25T17:50:30Z</time>
      </trkpt>
      <trkpt lat="41.077483" lon="-3.708200">
        <ele>2225.0</ele>
        <time>2016-07-25T17:50:31Z</time>
      </trkpt>
      <trkpt lat="41.077450" lon="-3.708267">
        <ele>2225.0</ele>
        <time>2016-07-25T17:50:32Z</time>
      </trkpt>
      <trkpt lat="41.077400" lon="-3.708333">
        <ele>2224.0</ele>
        <time>2016-07-25T17:50:33Z</time>
      </trkpt>
      <trkpt lat="41.077367" lon="-3.708417">
        <ele>2224.0</ele>
        <time>2016-07-25T17:50:34Z</time>
      </trkpt>
      <trkpt lat="41.077333" lon="-3.708483">
        <ele>2224.0</ele>
        <time>2016-07-25T17:50:35Z</time>
      </trkpt>
      <trkpt lat="41.077300" lon="-3.708550">
        <ele>2224.0</ele>
        <time>2016-07-25T17:50:36Z</time>
      </trkpt>
      <trkpt lat="41.077283" lon="-3.708617">
        <ele>2225.0</ele>
        <time>2016-07-25T17:50:37Z</time>
      </trkpt>
      <trkpt lat="41.077267" lon="-3.708667">
        <ele>2224.0</ele>
        <time>2016-07-25T17:50:38Z</time>
      </trkpt>
      <trkpt lat="41.077250" lon="-3.708733">
        <ele>2224.0</ele>
        <time>2016-07-25T17:50:39Z</time>
      </trkpt>
      <trkpt lat="41.077233" lon="-3.708783">
        <ele>2224.0</ele>
        <time>2016-07-25T17:50:40Z</time>
      </trkpt>
      <trkpt lat="41.077200" lon="-3.708850">
        <ele>2224.0</ele>
        <time>2016-07-25T17:50:41Z</time>
      </trkpt>
      <trkpt lat="41.077183" lon="-3.708900">
        <ele>2223.0</ele>
        <time>2016-07-25T17:50:42Z</time>
      </trkpt>
      <trkpt lat="41.077183" lon="-3.708950">
        <ele>2221.0</ele>
        <time>2016-07-25T17:50:43Z</time>
      </trkpt>
      <trkpt lat="41.077183" lon="-3.709000">
        <ele>2219.0</ele>
        <time>2016-07-25T17:50:44Z</time>
      </trkpt>
      <trkpt lat="41.077183" lon="-3.709067">
        <ele>2217.0</ele>
        <time>2016-07-25T17:50:45Z</time>
      </trkpt>
      <trkpt lat="41.077183" lon="-3.709133">
        <ele>2217.0</ele>
        <time>2016-07-25T17:50:46Z</time>
      </trkpt>
      <trkpt lat="41.077183" lon="-3.709200">
        <ele>2217.0</ele>
        <time>2016-07-25T17:50:47Z</time>
      </trkpt>
      <trkpt lat="41.077183" lon="-3.709250">
        <ele>2217.0</ele>
        <time>2016-07-25T17:50:48Z</time>
      </trkpt>
      <trkpt lat="41.077183" lon="-3.709300">
        <ele>2217.0</ele>
        <time>2016-07-25T17:50:49Z</time>
      </trkpt>
      <trkpt lat="41.077200" lon="-3.709350">
        <ele>2216.0</ele>
        <time>2016-07-25T17:50:50Z</time>
      </trkpt>
      <trkpt lat="41.077233" lon="-3.709417">
        <ele>2215.0</ele>
        <time>2016-07-25T17:50:51Z</time>
      </trkpt>
      <trkpt lat="41.077250" lon="-3.709467">
        <ele>2215.0</ele>
        <time>2016-07-25T17:50:52Z</time>
      </trkpt>
      <trkpt lat="41.077267" lon="-3.709517">
        <ele>2215.0</ele>
        <time>2016-07-25T17:50:53Z</time>
      </trkpt>
      <trkpt lat="41.077283" lon="-3.709567">
        <ele>2216.0</ele>
        <time>2016-07-25T17:50:54Z</time>
      </trkpt>
      <trkpt lat="41.077283" lon="-3.709617">
        <ele>2217.0</ele>
        <time>2016-07-25T17:50:55Z</time>
      </trkpt>
      <trkpt lat="41.077300" lon="-3.709650">
        <ele>2217.0</ele>
        <time>2016-07-25T17:50:56Z</time>
      </trkpt>
      <trkpt lat="41.077317" lon="-3.709700">
        <ele>2218.0</ele>
        <time>2016-07-25T17:50:57Z</time>
      </trkpt>
      <trkpt lat="41.077317" lon="-3.709750">
        <ele>2218.0</ele>
        <time>2016-07-25T17:50:58Z</time>
      </trkpt>
      <trkpt lat="41.077300" lon="-3.709783">
        <ele>2217.0</ele>
        <time>2016-07-25T17:50:59Z</time>
      </trkpt>
      <trkpt lat="41.077300" lon="-3.709833">
        <ele>2217.0</ele>
        <time>2016-07-25T17:51:00Z</time>
      </trkpt>
      <trkpt lat="41.077283" lon="-3.709900">
        <ele>2216.0</ele>
        <time>2016-07-25T17:51:01Z</time>
      </trkpt>
      <trkpt lat="41.077283" lon="-3.709950">
        <ele>2217.0</ele>
        <time>2016-07-25T17:51:02Z</time>
      </trkpt>
      <trkpt lat="41.077283" lon="-3.710000">
        <ele>2219.0</ele>
        <time>2016-07-25T17:51:03Z</time>
      </trkpt>
      <trkpt lat="41.077283" lon="-3.710017">
        <ele>2220.0</ele>
        <time>2016-07-25T17:51:04Z</time>
      </trkpt>
      <trkpt lat="41.077283" lon="-3.710033">
        <ele>2220.0</ele>
        <time>2016-07-25T17:51:05Z</time>
      </trkpt>
      <trkpt lat="41.077283" lon="-3.710050">
        <ele>2218.0</ele>
        <time>2016-07-25T17:51:06Z</time>
      </trkpt>
      <trkpt lat="41.077283" lon="-3.710100">
        <ele>2217.0</ele>
        <time>2016-07-25T17:51:07Z</time>
      </trkpt>
      <trkpt lat="41.077300" lon="-3.710150">
        <ele>2216.0</ele>
        <time>2016-07-25T17:51:08Z</time>
      </trkpt>
      <trkpt lat="41.077300" lon="-3.710200">
        <ele>2216.0</ele>
        <time>2016-07-25T17:51:09Z</time>
      </trkpt>
      <trkpt lat="41.077283" lon="-3.710250">
        <ele>2218.0</ele>
        <time>2016-07-25T17:51:10Z</time>
      </trkpt>
      <trkpt lat="41.077283" lon="-3.710283">
        <ele>2219.0</ele>
        <time>2016-07-25T17:51:11Z</time>
      </trkpt>
      <trkpt lat="41.077283" lon="-3.710317">
        <ele>2219.0</ele>
        <time>2016-07-25T17:51:12Z</time>
      </trkpt>
      <trkpt lat="41.077267" lon="-3.710367">
        <ele>2218.0</ele>
        <time>2016-07-25T17:51:13Z</time>
      </trkpt>
      <trkpt lat="41.077267" lon="-3.710433">
        <ele>2217.0</ele>
        <time>2016-07-25T17:51:14Z</time>
      </trkpt>
      <trkpt lat="41.077267" lon="-3.710500">
        <ele>2217.0</ele>
        <time>2016-07-25T17:51:15Z</time>
      </trkpt>
      <trkpt lat="41.077250" lon="-3.710550">
        <ele>2219.0</ele>
        <time>2016-07-25T17:51:16Z</time>
      </trkpt>
      <trkpt lat="41.077250" lon="-3.710600">
        <ele>2219.0</ele>
        <time>2016-07-25T17:51:17Z</time>
      </trkpt>
      <trkpt lat="41.077233" lon="-3.710650">
        <ele>2219.0</ele>
        <time>2016-07-25T17:51:18Z</time>
      </trkpt>
      <trkpt lat="41.077233" lon="-3.710700">
        <ele>2218.0</ele>
        <time>2016-07-25T17:51:19Z</time>
      </trkpt>
      <trkpt lat="41.077250" lon="-3.710750">
        <ele>2217.0</ele>
        <time>2016-07-25T17:51:20Z</time>
      </trkpt>
      <trkpt lat="41.077250" lon="-3.710800">
        <ele>2216.0</ele>
        <time>2016-07-25T17:51:21Z</time>
      </trkpt>
      <trkpt lat="41.077250" lon="-3.710867">
        <ele>2216.0</ele>
        <time>2016-07-25T17:51:22Z</time>
      </trkpt>
      <trkpt lat="41.077133" lon="-3.710883">
        <ele>2215.0</ele>
        <time>2016-07-25T17:51:23Z</time>
      </trkpt>
      <trkpt lat="41.077133" lon="-3.710883">
        <ele>2213.0</ele>
        <time>2016-07-25T17:51:24Z</time>
      </trkpt>
      <trkpt lat="41.077150" lon="-3.710900">
        <ele>2209.0</ele>
        <time>2016-07-25T17:51:25Z</time>
      </trkpt>
      <trkpt lat="41.077150" lon="-3.710950">
        <ele>2206.0</ele>
        <time>2016-07-25T17:51:26Z</time>
      </trkpt>
      <trkpt lat="41.077117" lon="-3.711000">
        <ele>2203.0</ele>
        <time>2016-07-25T17:51:27Z</time>
      </trkpt>
    </trkseg>
  </trk>
</gpx>
